<?xml version="1.0" encoding="UTF-8" standalone="no" ?>
<gpx xmlns="http://www.topografix.com/GPX/1/1" xmlns:xsi="http://www.w3.org/2001/XMLSchema-instance" xsi:schemaLocation="http://www.topografix.com/GPX/1/1 http://www.topografix.com/GPX/1/1/gpx.xsd" version="1.1" creator="VisuGPX - https://www.visugpx.com">
  <metadata>
    <name>Promenade le long de la côte entre Pénestin et Assérac</name>
    <desc><![CDATA[Balade cool avec belles vues sur la mer depuis la côte.]]></desc>
  </metadata>
  <trk>
    <name><![CDATA[Promenade le long de la côte entre Pénestin et Assérac_1]]></name>
    <trkseg>
      <trkpt lat="47.48299" lon="-2.49607">
        <ele>18.8</ele>
        <time>2020-08-03T12:44:49Z</time>
      </trkpt>
      <trkpt lat="47.48299" lon="-2.49607">
        <ele>18.4</ele>
        <time>2020-08-03T12:44:50Z</time>
      </trkpt>
      <trkpt lat="47.48299" lon="-2.49607">
        <ele>18.6</ele>
        <time>2020-08-03T12:44:51Z</time>
      </trkpt>
      <trkpt lat="47.48299" lon="-2.49607">
        <ele>18.4</ele>
        <time>2020-08-03T12:44:52Z</time>
      </trkpt>
      <trkpt lat="47.48299" lon="-2.49607">
        <ele>18.2</ele>
        <time>2020-08-03T12:44:53Z</time>
      </trkpt>
      <trkpt lat="47.48302" lon="-2.49597">
        <ele>18.4</ele>
        <time>2020-08-03T12:45:32Z</time>
      </trkpt>
      <trkpt lat="47.48302" lon="-2.49597">
        <ele>18</ele>
        <time>2020-08-03T12:45:33Z</time>
      </trkpt>
      <trkpt lat="47.48302" lon="-2.49597">
        <ele>18</ele>
        <time>2020-08-03T12:45:34Z</time>
      </trkpt>
      <trkpt lat="47.48302" lon="-2.49597">
        <ele>17.8</ele>
        <time>2020-08-03T12:45:35Z</time>
      </trkpt>
      <trkpt lat="47.48302" lon="-2.49597">
        <ele>17.4</ele>
        <time>2020-08-03T12:45:36Z</time>
      </trkpt>
      <trkpt lat="47.48302" lon="-2.49597">
        <ele>18</ele>
        <time>2020-08-03T12:45:37Z</time>
      </trkpt>
      <trkpt lat="47.48302" lon="-2.49597">
        <ele>18.2</ele>
        <time>2020-08-03T12:45:38Z</time>
      </trkpt>
      <trkpt lat="47.48292" lon="-2.49585">
        <ele>18.8</ele>
        <time>2020-08-03T12:46:03Z</time>
      </trkpt>
      <trkpt lat="47.4829" lon="-2.49584">
        <ele>18.6</ele>
        <time>2020-08-03T12:46:04Z</time>
      </trkpt>
      <trkpt lat="47.48288" lon="-2.49582">
        <ele>18.6</ele>
        <time>2020-08-03T12:46:05Z</time>
      </trkpt>
      <trkpt lat="47.48287" lon="-2.49581">
        <ele>19</ele>
        <time>2020-08-03T12:46:06Z</time>
      </trkpt>
      <trkpt lat="47.48285" lon="-2.49579">
        <ele>18.8</ele>
        <time>2020-08-03T12:46:07Z</time>
      </trkpt>
      <trkpt lat="47.48283" lon="-2.49577">
        <ele>18.8</ele>
        <time>2020-08-03T12:46:08Z</time>
      </trkpt>
      <trkpt lat="47.48282" lon="-2.49575">
        <ele>18.4</ele>
        <time>2020-08-03T12:46:09Z</time>
      </trkpt>
      <trkpt lat="47.4828" lon="-2.49573">
        <ele>18.4</ele>
        <time>2020-08-03T12:46:10Z</time>
      </trkpt>
      <trkpt lat="47.48278" lon="-2.49571">
        <ele>19.2</ele>
        <time>2020-08-03T12:46:11Z</time>
      </trkpt>
      <trkpt lat="47.48276" lon="-2.49569">
        <ele>19.4</ele>
        <time>2020-08-03T12:46:12Z</time>
      </trkpt>
      <trkpt lat="47.48274" lon="-2.49567">
        <ele>19.2</ele>
        <time>2020-08-03T12:46:13Z</time>
      </trkpt>
      <trkpt lat="47.48272" lon="-2.49564">
        <ele>19.4</ele>
        <time>2020-08-03T12:46:14Z</time>
      </trkpt>
      <trkpt lat="47.4827" lon="-2.49561">
        <ele>19.4</ele>
        <time>2020-08-03T12:46:15Z</time>
      </trkpt>
      <trkpt lat="47.48268" lon="-2.49558">
        <ele>19.2</ele>
        <time>2020-08-03T12:46:16Z</time>
      </trkpt>
      <trkpt lat="47.48266" lon="-2.49556">
        <ele>19</ele>
        <time>2020-08-03T12:46:17Z</time>
      </trkpt>
      <trkpt lat="47.48264" lon="-2.49553">
        <ele>18.8</ele>
        <time>2020-08-03T12:46:18Z</time>
      </trkpt>
      <trkpt lat="47.48262" lon="-2.49551">
        <ele>18.8</ele>
        <time>2020-08-03T12:46:19Z</time>
      </trkpt>
      <trkpt lat="47.4826" lon="-2.49549">
        <ele>18.8</ele>
        <time>2020-08-03T12:46:20Z</time>
      </trkpt>
      <trkpt lat="47.48258" lon="-2.49546">
        <ele>19</ele>
        <time>2020-08-03T12:46:21Z</time>
      </trkpt>
      <trkpt lat="47.48256" lon="-2.49544">
        <ele>19</ele>
        <time>2020-08-03T12:46:22Z</time>
      </trkpt>
      <trkpt lat="47.48255" lon="-2.49542">
        <ele>19</ele>
        <time>2020-08-03T12:46:23Z</time>
      </trkpt>
      <trkpt lat="47.48253" lon="-2.49539">
        <ele>19.4</ele>
        <time>2020-08-03T12:46:24Z</time>
      </trkpt>
      <trkpt lat="47.48251" lon="-2.49537">
        <ele>19.4</ele>
        <time>2020-08-03T12:46:25Z</time>
      </trkpt>
      <trkpt lat="47.48249" lon="-2.49535">
        <ele>19.2</ele>
        <time>2020-08-03T12:46:26Z</time>
      </trkpt>
      <trkpt lat="47.48247" lon="-2.49532">
        <ele>19.2</ele>
        <time>2020-08-03T12:46:27Z</time>
      </trkpt>
      <trkpt lat="47.48244" lon="-2.4953">
        <ele>19.2</ele>
        <time>2020-08-03T12:46:28Z</time>
      </trkpt>
      <trkpt lat="47.48242" lon="-2.49528">
        <ele>19.2</ele>
        <time>2020-08-03T12:46:29Z</time>
      </trkpt>
      <trkpt lat="47.4824" lon="-2.49525">
        <ele>19.2</ele>
        <time>2020-08-03T12:46:30Z</time>
      </trkpt>
      <trkpt lat="47.48237" lon="-2.49523">
        <ele>19.2</ele>
        <time>2020-08-03T12:46:31Z</time>
      </trkpt>
      <trkpt lat="47.48235" lon="-2.49521">
        <ele>19.2</ele>
        <time>2020-08-03T12:46:32Z</time>
      </trkpt>
      <trkpt lat="47.48233" lon="-2.49519">
        <ele>19.4</ele>
        <time>2020-08-03T12:46:33Z</time>
      </trkpt>
      <trkpt lat="47.48231" lon="-2.49517">
        <ele>19.4</ele>
        <time>2020-08-03T12:46:34Z</time>
      </trkpt>
      <trkpt lat="47.48229" lon="-2.49515">
        <ele>19.4</ele>
        <time>2020-08-03T12:46:35Z</time>
      </trkpt>
      <trkpt lat="47.48227" lon="-2.49513">
        <ele>19.2</ele>
        <time>2020-08-03T12:46:36Z</time>
      </trkpt>
      <trkpt lat="47.48225" lon="-2.49511">
        <ele>19.2</ele>
        <time>2020-08-03T12:46:37Z</time>
      </trkpt>
      <trkpt lat="47.48223" lon="-2.49509">
        <ele>19</ele>
        <time>2020-08-03T12:46:38Z</time>
      </trkpt>
      <trkpt lat="47.48221" lon="-2.49506">
        <ele>18.8</ele>
        <time>2020-08-03T12:46:39Z</time>
      </trkpt>
      <trkpt lat="47.48218" lon="-2.49504">
        <ele>18.6</ele>
        <time>2020-08-03T12:46:40Z</time>
      </trkpt>
      <trkpt lat="47.48216" lon="-2.49501">
        <ele>18.6</ele>
        <time>2020-08-03T12:46:41Z</time>
      </trkpt>
      <trkpt lat="47.48213" lon="-2.49498">
        <ele>18.6</ele>
        <time>2020-08-03T12:46:42Z</time>
      </trkpt>
      <trkpt lat="47.4821" lon="-2.49496">
        <ele>18.8</ele>
        <time>2020-08-03T12:46:43Z</time>
      </trkpt>
      <trkpt lat="47.48207" lon="-2.49494">
        <ele>18.6</ele>
        <time>2020-08-03T12:46:44Z</time>
      </trkpt>
      <trkpt lat="47.48204" lon="-2.49492">
        <ele>18.6</ele>
        <time>2020-08-03T12:46:45Z</time>
      </trkpt>
      <trkpt lat="47.48201" lon="-2.4949">
        <ele>18.4</ele>
        <time>2020-08-03T12:46:46Z</time>
      </trkpt>
      <trkpt lat="47.48198" lon="-2.49488">
        <ele>18.4</ele>
        <time>2020-08-03T12:46:47Z</time>
      </trkpt>
      <trkpt lat="47.48195" lon="-2.49485">
        <ele>18.4</ele>
        <time>2020-08-03T12:46:48Z</time>
      </trkpt>
      <trkpt lat="47.48193" lon="-2.49483">
        <ele>18.4</ele>
        <time>2020-08-03T12:46:49Z</time>
      </trkpt>
      <trkpt lat="47.4819" lon="-2.4948">
        <ele>18.4</ele>
        <time>2020-08-03T12:46:50Z</time>
      </trkpt>
      <trkpt lat="47.48188" lon="-2.49477">
        <ele>18.4</ele>
        <time>2020-08-03T12:46:51Z</time>
      </trkpt>
      <trkpt lat="47.48185" lon="-2.49474">
        <ele>18.4</ele>
        <time>2020-08-03T12:46:52Z</time>
      </trkpt>
      <trkpt lat="47.48182" lon="-2.49471">
        <ele>18.4</ele>
        <time>2020-08-03T12:46:53Z</time>
      </trkpt>
      <trkpt lat="47.48179" lon="-2.49468">
        <ele>18.2</ele>
        <time>2020-08-03T12:46:54Z</time>
      </trkpt>
      <trkpt lat="47.48176" lon="-2.49465">
        <ele>18.2</ele>
        <time>2020-08-03T12:46:55Z</time>
      </trkpt>
      <trkpt lat="47.48173" lon="-2.49461">
        <ele>18.2</ele>
        <time>2020-08-03T12:46:56Z</time>
      </trkpt>
      <trkpt lat="47.48169" lon="-2.49458">
        <ele>18.2</ele>
        <time>2020-08-03T12:46:57Z</time>
      </trkpt>
      <trkpt lat="47.48166" lon="-2.49455">
        <ele>18.2</ele>
        <time>2020-08-03T12:46:58Z</time>
      </trkpt>
      <trkpt lat="47.48163" lon="-2.49452">
        <ele>18.2</ele>
        <time>2020-08-03T12:46:59Z</time>
      </trkpt>
      <trkpt lat="47.4816" lon="-2.4945">
        <ele>18.4</ele>
        <time>2020-08-03T12:47:00Z</time>
      </trkpt>
      <trkpt lat="47.48157" lon="-2.49448">
        <ele>18.2</ele>
        <time>2020-08-03T12:47:01Z</time>
      </trkpt>
      <trkpt lat="47.48154" lon="-2.49445">
        <ele>18.2</ele>
        <time>2020-08-03T12:47:02Z</time>
      </trkpt>
      <trkpt lat="47.48151" lon="-2.49443">
        <ele>18.2</ele>
        <time>2020-08-03T12:47:03Z</time>
      </trkpt>
      <trkpt lat="47.48148" lon="-2.4944">
        <ele>18.2</ele>
        <time>2020-08-03T12:47:04Z</time>
      </trkpt>
      <trkpt lat="47.48145" lon="-2.49437">
        <ele>18.4</ele>
        <time>2020-08-03T12:47:05Z</time>
      </trkpt>
      <trkpt lat="47.48142" lon="-2.49434">
        <ele>18.4</ele>
        <time>2020-08-03T12:47:06Z</time>
      </trkpt>
      <trkpt lat="47.48139" lon="-2.49431">
        <ele>18.4</ele>
        <time>2020-08-03T12:47:07Z</time>
      </trkpt>
      <trkpt lat="47.48136" lon="-2.49427">
        <ele>18.2</ele>
        <time>2020-08-03T12:47:08Z</time>
      </trkpt>
      <trkpt lat="47.48134" lon="-2.49424">
        <ele>18.2</ele>
        <time>2020-08-03T12:47:09Z</time>
      </trkpt>
      <trkpt lat="47.48131" lon="-2.49421">
        <ele>18.2</ele>
        <time>2020-08-03T12:47:10Z</time>
      </trkpt>
      <trkpt lat="47.48128" lon="-2.49417">
        <ele>18.2</ele>
        <time>2020-08-03T12:47:11Z</time>
      </trkpt>
      <trkpt lat="47.48126" lon="-2.49414">
        <ele>18.2</ele>
        <time>2020-08-03T12:47:12Z</time>
      </trkpt>
      <trkpt lat="47.48123" lon="-2.49411">
        <ele>18</ele>
        <time>2020-08-03T12:47:13Z</time>
      </trkpt>
      <trkpt lat="47.4812" lon="-2.49408">
        <ele>17.8</ele>
        <time>2020-08-03T12:47:14Z</time>
      </trkpt>
      <trkpt lat="47.48118" lon="-2.49405">
        <ele>17.8</ele>
        <time>2020-08-03T12:47:15Z</time>
      </trkpt>
      <trkpt lat="47.48115" lon="-2.49403">
        <ele>17.8</ele>
        <time>2020-08-03T12:47:16Z</time>
      </trkpt>
      <trkpt lat="47.48112" lon="-2.49401">
        <ele>17.8</ele>
        <time>2020-08-03T12:47:17Z</time>
      </trkpt>
      <trkpt lat="47.48109" lon="-2.49399">
        <ele>17.8</ele>
        <time>2020-08-03T12:47:18Z</time>
      </trkpt>
      <trkpt lat="47.48107" lon="-2.49397">
        <ele>17.8</ele>
        <time>2020-08-03T12:47:19Z</time>
      </trkpt>
      <trkpt lat="47.48104" lon="-2.49395">
        <ele>18</ele>
        <time>2020-08-03T12:47:20Z</time>
      </trkpt>
      <trkpt lat="47.48103" lon="-2.49393">
        <ele>18</ele>
        <time>2020-08-03T12:47:21Z</time>
      </trkpt>
      <trkpt lat="47.481" lon="-2.4939">
        <ele>18.2</ele>
        <time>2020-08-03T12:47:22Z</time>
      </trkpt>
      <trkpt lat="47.48097" lon="-2.49387">
        <ele>18</ele>
        <time>2020-08-03T12:47:23Z</time>
      </trkpt>
      <trkpt lat="47.48094" lon="-2.49384">
        <ele>18</ele>
        <time>2020-08-03T12:47:24Z</time>
      </trkpt>
      <trkpt lat="47.48091" lon="-2.49382">
        <ele>18</ele>
        <time>2020-08-03T12:47:25Z</time>
      </trkpt>
      <trkpt lat="47.48089" lon="-2.49379">
        <ele>18</ele>
        <time>2020-08-03T12:47:26Z</time>
      </trkpt>
      <trkpt lat="47.48086" lon="-2.49376">
        <ele>17.8</ele>
        <time>2020-08-03T12:47:27Z</time>
      </trkpt>
      <trkpt lat="47.48083" lon="-2.49373">
        <ele>17.8</ele>
        <time>2020-08-03T12:47:28Z</time>
      </trkpt>
      <trkpt lat="47.48081" lon="-2.4937">
        <ele>17.6</ele>
        <time>2020-08-03T12:47:29Z</time>
      </trkpt>
      <trkpt lat="47.48078" lon="-2.49368">
        <ele>17.8</ele>
        <time>2020-08-03T12:47:30Z</time>
      </trkpt>
      <trkpt lat="47.48076" lon="-2.49366">
        <ele>17.8</ele>
        <time>2020-08-03T12:47:31Z</time>
      </trkpt>
      <trkpt lat="47.48074" lon="-2.49364">
        <ele>17.8</ele>
        <time>2020-08-03T12:47:32Z</time>
      </trkpt>
      <trkpt lat="47.48072" lon="-2.49362">
        <ele>17.8</ele>
        <time>2020-08-03T12:47:33Z</time>
      </trkpt>
      <trkpt lat="47.4807" lon="-2.4936">
        <ele>17.6</ele>
        <time>2020-08-03T12:47:34Z</time>
      </trkpt>
      <trkpt lat="47.48068" lon="-2.49359">
        <ele>17.8</ele>
        <time>2020-08-03T12:47:35Z</time>
      </trkpt>
      <trkpt lat="47.48065" lon="-2.49357">
        <ele>17.6</ele>
        <time>2020-08-03T12:47:36Z</time>
      </trkpt>
      <trkpt lat="47.48063" lon="-2.49355">
        <ele>17.6</ele>
        <time>2020-08-03T12:47:37Z</time>
      </trkpt>
      <trkpt lat="47.48061" lon="-2.49353">
        <ele>17.6</ele>
        <time>2020-08-03T12:47:38Z</time>
      </trkpt>
      <trkpt lat="47.48059" lon="-2.49351">
        <ele>17.8</ele>
        <time>2020-08-03T12:47:39Z</time>
      </trkpt>
      <trkpt lat="47.48057" lon="-2.49349">
        <ele>18.2</ele>
        <time>2020-08-03T12:47:40Z</time>
      </trkpt>
      <trkpt lat="47.48055" lon="-2.49347">
        <ele>18.2</ele>
        <time>2020-08-03T12:47:41Z</time>
      </trkpt>
      <trkpt lat="47.48052" lon="-2.49345">
        <ele>18.4</ele>
        <time>2020-08-03T12:47:42Z</time>
      </trkpt>
      <trkpt lat="47.4805" lon="-2.49343">
        <ele>18.4</ele>
        <time>2020-08-03T12:47:43Z</time>
      </trkpt>
      <trkpt lat="47.48048" lon="-2.49341">
        <ele>18.4</ele>
        <time>2020-08-03T12:47:44Z</time>
      </trkpt>
      <trkpt lat="47.48045" lon="-2.49339">
        <ele>18.4</ele>
        <time>2020-08-03T12:47:45Z</time>
      </trkpt>
      <trkpt lat="47.48043" lon="-2.49336">
        <ele>18.4</ele>
        <time>2020-08-03T12:47:46Z</time>
      </trkpt>
      <trkpt lat="47.48041" lon="-2.49334">
        <ele>18.8</ele>
        <time>2020-08-03T12:47:47Z</time>
      </trkpt>
      <trkpt lat="47.48039" lon="-2.49332">
        <ele>19</ele>
        <time>2020-08-03T12:47:48Z</time>
      </trkpt>
      <trkpt lat="47.48036" lon="-2.49329">
        <ele>19</ele>
        <time>2020-08-03T12:47:49Z</time>
      </trkpt>
      <trkpt lat="47.48034" lon="-2.49327">
        <ele>19.2</ele>
        <time>2020-08-03T12:47:50Z</time>
      </trkpt>
      <trkpt lat="47.48031" lon="-2.49324">
        <ele>19.4</ele>
        <time>2020-08-03T12:47:51Z</time>
      </trkpt>
      <trkpt lat="47.48029" lon="-2.49321">
        <ele>19.4</ele>
        <time>2020-08-03T12:47:52Z</time>
      </trkpt>
      <trkpt lat="47.48027" lon="-2.49319">
        <ele>19.2</ele>
        <time>2020-08-03T12:47:53Z</time>
      </trkpt>
      <trkpt lat="47.48024" lon="-2.49316">
        <ele>19.2</ele>
        <time>2020-08-03T12:47:54Z</time>
      </trkpt>
      <trkpt lat="47.48022" lon="-2.49314">
        <ele>19.2</ele>
        <time>2020-08-03T12:47:55Z</time>
      </trkpt>
      <trkpt lat="47.48019" lon="-2.49311">
        <ele>19.4</ele>
        <time>2020-08-03T12:47:56Z</time>
      </trkpt>
      <trkpt lat="47.48017" lon="-2.49309">
        <ele>19.4</ele>
        <time>2020-08-03T12:47:57Z</time>
      </trkpt>
      <trkpt lat="47.48014" lon="-2.49307">
        <ele>19.4</ele>
        <time>2020-08-03T12:47:58Z</time>
      </trkpt>
      <trkpt lat="47.48012" lon="-2.49305">
        <ele>19.4</ele>
        <time>2020-08-03T12:47:59Z</time>
      </trkpt>
      <trkpt lat="47.4801" lon="-2.49303">
        <ele>19.4</ele>
        <time>2020-08-03T12:48:00Z</time>
      </trkpt>
      <trkpt lat="47.48009" lon="-2.49301">
        <ele>19.2</ele>
        <time>2020-08-03T12:48:01Z</time>
      </trkpt>
      <trkpt lat="47.48008" lon="-2.49301">
        <ele>19.2</ele>
        <time>2020-08-03T12:48:02Z</time>
      </trkpt>
      <trkpt lat="47.48008" lon="-2.49301">
        <ele>19.2</ele>
        <time>2020-08-03T12:48:03Z</time>
      </trkpt>
      <trkpt lat="47.48008" lon="-2.49301">
        <ele>19.2</ele>
        <time>2020-08-03T12:48:04Z</time>
      </trkpt>
      <trkpt lat="47.48008" lon="-2.49301">
        <ele>19.2</ele>
        <time>2020-08-03T12:48:05Z</time>
      </trkpt>
      <trkpt lat="47.48008" lon="-2.49301">
        <ele>19.2</ele>
        <time>2020-08-03T12:48:06Z</time>
      </trkpt>
      <trkpt lat="47.48008" lon="-2.49301">
        <ele>19.2</ele>
        <time>2020-08-03T12:48:07Z</time>
      </trkpt>
      <trkpt lat="47.48008" lon="-2.49301">
        <ele>19.2</ele>
        <time>2020-08-03T12:48:08Z</time>
      </trkpt>
      <trkpt lat="47.48008" lon="-2.49301">
        <ele>19.2</ele>
        <time>2020-08-03T12:48:09Z</time>
      </trkpt>
      <trkpt lat="47.47994" lon="-2.49291">
        <ele>19.2</ele>
        <time>2020-08-03T12:48:40Z</time>
      </trkpt>
      <trkpt lat="47.47992" lon="-2.4929">
        <ele>19.2</ele>
        <time>2020-08-03T12:48:41Z</time>
      </trkpt>
      <trkpt lat="47.4799" lon="-2.49289">
        <ele>19.2</ele>
        <time>2020-08-03T12:48:42Z</time>
      </trkpt>
      <trkpt lat="47.47988" lon="-2.49287">
        <ele>19.4</ele>
        <time>2020-08-03T12:48:43Z</time>
      </trkpt>
      <trkpt lat="47.47986" lon="-2.49286">
        <ele>19.4</ele>
        <time>2020-08-03T12:48:44Z</time>
      </trkpt>
      <trkpt lat="47.47983" lon="-2.49285">
        <ele>19.6</ele>
        <time>2020-08-03T12:48:45Z</time>
      </trkpt>
      <trkpt lat="47.47981" lon="-2.49284">
        <ele>19.6</ele>
        <time>2020-08-03T12:48:46Z</time>
      </trkpt>
      <trkpt lat="47.47978" lon="-2.49282">
        <ele>19.4</ele>
        <time>2020-08-03T12:48:47Z</time>
      </trkpt>
      <trkpt lat="47.47975" lon="-2.4928">
        <ele>19.4</ele>
        <time>2020-08-03T12:48:48Z</time>
      </trkpt>
      <trkpt lat="47.47973" lon="-2.49278">
        <ele>19.4</ele>
        <time>2020-08-03T12:48:49Z</time>
      </trkpt>
      <trkpt lat="47.4797" lon="-2.49276">
        <ele>20</ele>
        <time>2020-08-03T12:48:50Z</time>
      </trkpt>
      <trkpt lat="47.47967" lon="-2.49274">
        <ele>20.6</ele>
        <time>2020-08-03T12:48:51Z</time>
      </trkpt>
      <trkpt lat="47.47964" lon="-2.49272">
        <ele>21</ele>
        <time>2020-08-03T12:48:52Z</time>
      </trkpt>
      <trkpt lat="47.47961" lon="-2.4927">
        <ele>20.8</ele>
        <time>2020-08-03T12:48:53Z</time>
      </trkpt>
      <trkpt lat="47.47959" lon="-2.49268">
        <ele>20.8</ele>
        <time>2020-08-03T12:48:54Z</time>
      </trkpt>
      <trkpt lat="47.47956" lon="-2.49266">
        <ele>20.8</ele>
        <time>2020-08-03T12:48:55Z</time>
      </trkpt>
      <trkpt lat="47.47953" lon="-2.49263">
        <ele>21</ele>
        <time>2020-08-03T12:48:56Z</time>
      </trkpt>
      <trkpt lat="47.4795" lon="-2.49261">
        <ele>20.8</ele>
        <time>2020-08-03T12:48:57Z</time>
      </trkpt>
      <trkpt lat="47.47947" lon="-2.49258">
        <ele>20.8</ele>
        <time>2020-08-03T12:48:58Z</time>
      </trkpt>
      <trkpt lat="47.47945" lon="-2.49256">
        <ele>20.6</ele>
        <time>2020-08-03T12:48:59Z</time>
      </trkpt>
      <trkpt lat="47.47942" lon="-2.49253">
        <ele>20.8</ele>
        <time>2020-08-03T12:49:00Z</time>
      </trkpt>
      <trkpt lat="47.47939" lon="-2.49251">
        <ele>20.8</ele>
        <time>2020-08-03T12:49:01Z</time>
      </trkpt>
      <trkpt lat="47.47937" lon="-2.49249">
        <ele>20.8</ele>
        <time>2020-08-03T12:49:02Z</time>
      </trkpt>
      <trkpt lat="47.47934" lon="-2.49247">
        <ele>20.4</ele>
        <time>2020-08-03T12:49:03Z</time>
      </trkpt>
      <trkpt lat="47.47932" lon="-2.49245">
        <ele>20.4</ele>
        <time>2020-08-03T12:49:04Z</time>
      </trkpt>
      <trkpt lat="47.4793" lon="-2.49243">
        <ele>20.6</ele>
        <time>2020-08-03T12:49:05Z</time>
      </trkpt>
      <trkpt lat="47.47927" lon="-2.49241">
        <ele>20.4</ele>
        <time>2020-08-03T12:49:06Z</time>
      </trkpt>
      <trkpt lat="47.47925" lon="-2.49239">
        <ele>20.6</ele>
        <time>2020-08-03T12:49:07Z</time>
      </trkpt>
      <trkpt lat="47.47923" lon="-2.49236">
        <ele>20.6</ele>
        <time>2020-08-03T12:49:08Z</time>
      </trkpt>
      <trkpt lat="47.4792" lon="-2.49234">
        <ele>20.6</ele>
        <time>2020-08-03T12:49:09Z</time>
      </trkpt>
      <trkpt lat="47.47918" lon="-2.49231">
        <ele>20.6</ele>
        <time>2020-08-03T12:49:10Z</time>
      </trkpt>
      <trkpt lat="47.47916" lon="-2.49229">
        <ele>20.6</ele>
        <time>2020-08-03T12:49:11Z</time>
      </trkpt>
      <trkpt lat="47.47914" lon="-2.49226">
        <ele>20.6</ele>
        <time>2020-08-03T12:49:12Z</time>
      </trkpt>
      <trkpt lat="47.47912" lon="-2.49223">
        <ele>21</ele>
        <time>2020-08-03T12:49:13Z</time>
      </trkpt>
      <trkpt lat="47.47909" lon="-2.4922">
        <ele>21</ele>
        <time>2020-08-03T12:49:14Z</time>
      </trkpt>
      <trkpt lat="47.47907" lon="-2.49218">
        <ele>20.8</ele>
        <time>2020-08-03T12:49:15Z</time>
      </trkpt>
      <trkpt lat="47.47904" lon="-2.49215">
        <ele>20.8</ele>
        <time>2020-08-03T12:49:16Z</time>
      </trkpt>
      <trkpt lat="47.47902" lon="-2.49213">
        <ele>21</ele>
        <time>2020-08-03T12:49:17Z</time>
      </trkpt>
      <trkpt lat="47.47899" lon="-2.49211">
        <ele>20.6</ele>
        <time>2020-08-03T12:49:18Z</time>
      </trkpt>
      <trkpt lat="47.47896" lon="-2.49209">
        <ele>20.6</ele>
        <time>2020-08-03T12:49:19Z</time>
      </trkpt>
      <trkpt lat="47.47893" lon="-2.49208">
        <ele>20.8</ele>
        <time>2020-08-03T12:49:20Z</time>
      </trkpt>
      <trkpt lat="47.4789" lon="-2.49207">
        <ele>21</ele>
        <time>2020-08-03T12:49:21Z</time>
      </trkpt>
      <trkpt lat="47.47887" lon="-2.49205">
        <ele>21</ele>
        <time>2020-08-03T12:49:22Z</time>
      </trkpt>
      <trkpt lat="47.47884" lon="-2.49204">
        <ele>20.8</ele>
        <time>2020-08-03T12:49:23Z</time>
      </trkpt>
      <trkpt lat="47.47881" lon="-2.49202">
        <ele>21</ele>
        <time>2020-08-03T12:49:24Z</time>
      </trkpt>
      <trkpt lat="47.47879" lon="-2.492">
        <ele>21</ele>
        <time>2020-08-03T12:49:25Z</time>
      </trkpt>
      <trkpt lat="47.47876" lon="-2.49198">
        <ele>21</ele>
        <time>2020-08-03T12:49:26Z</time>
      </trkpt>
      <trkpt lat="47.47873" lon="-2.49196">
        <ele>20.8</ele>
        <time>2020-08-03T12:49:27Z</time>
      </trkpt>
      <trkpt lat="47.4787" lon="-2.49194">
        <ele>21.2</ele>
        <time>2020-08-03T12:49:28Z</time>
      </trkpt>
      <trkpt lat="47.47867" lon="-2.49192">
        <ele>21.2</ele>
        <time>2020-08-03T12:49:29Z</time>
      </trkpt>
      <trkpt lat="47.47864" lon="-2.4919">
        <ele>21.2</ele>
        <time>2020-08-03T12:49:30Z</time>
      </trkpt>
      <trkpt lat="47.47862" lon="-2.49188">
        <ele>21.4</ele>
        <time>2020-08-03T12:49:31Z</time>
      </trkpt>
      <trkpt lat="47.47859" lon="-2.49186">
        <ele>21.6</ele>
        <time>2020-08-03T12:49:32Z</time>
      </trkpt>
      <trkpt lat="47.47856" lon="-2.49184">
        <ele>21.6</ele>
        <time>2020-08-03T12:49:33Z</time>
      </trkpt>
      <trkpt lat="47.47853" lon="-2.49184">
        <ele>21.6</ele>
        <time>2020-08-03T12:49:34Z</time>
      </trkpt>
      <trkpt lat="47.4785" lon="-2.49184">
        <ele>21.4</ele>
        <time>2020-08-03T12:49:35Z</time>
      </trkpt>
      <trkpt lat="47.47847" lon="-2.49184">
        <ele>21.6</ele>
        <time>2020-08-03T12:49:36Z</time>
      </trkpt>
      <trkpt lat="47.47844" lon="-2.49182">
        <ele>21.4</ele>
        <time>2020-08-03T12:49:37Z</time>
      </trkpt>
      <trkpt lat="47.47842" lon="-2.49181">
        <ele>21.8</ele>
        <time>2020-08-03T12:49:38Z</time>
      </trkpt>
      <trkpt lat="47.47839" lon="-2.49179">
        <ele>21.8</ele>
        <time>2020-08-03T12:49:39Z</time>
      </trkpt>
      <trkpt lat="47.47837" lon="-2.49177">
        <ele>22.4</ele>
        <time>2020-08-03T12:49:40Z</time>
      </trkpt>
      <trkpt lat="47.47834" lon="-2.49175">
        <ele>22.2</ele>
        <time>2020-08-03T12:49:41Z</time>
      </trkpt>
      <trkpt lat="47.47831" lon="-2.49173">
        <ele>22</ele>
        <time>2020-08-03T12:49:42Z</time>
      </trkpt>
      <trkpt lat="47.47829" lon="-2.49171">
        <ele>22</ele>
        <time>2020-08-03T12:49:43Z</time>
      </trkpt>
      <trkpt lat="47.47826" lon="-2.49169">
        <ele>22</ele>
        <time>2020-08-03T12:49:44Z</time>
      </trkpt>
      <trkpt lat="47.47824" lon="-2.49167">
        <ele>21.8</ele>
        <time>2020-08-03T12:49:45Z</time>
      </trkpt>
      <trkpt lat="47.47821" lon="-2.49164">
        <ele>21.8</ele>
        <time>2020-08-03T12:49:46Z</time>
      </trkpt>
      <trkpt lat="47.47818" lon="-2.49162">
        <ele>21.6</ele>
        <time>2020-08-03T12:49:47Z</time>
      </trkpt>
      <trkpt lat="47.47815" lon="-2.4916">
        <ele>21.4</ele>
        <time>2020-08-03T12:49:48Z</time>
      </trkpt>
      <trkpt lat="47.47813" lon="-2.49157">
        <ele>21.4</ele>
        <time>2020-08-03T12:49:49Z</time>
      </trkpt>
      <trkpt lat="47.4781" lon="-2.49155">
        <ele>21.4</ele>
        <time>2020-08-03T12:49:50Z</time>
      </trkpt>
      <trkpt lat="47.47807" lon="-2.49152">
        <ele>21.4</ele>
        <time>2020-08-03T12:49:51Z</time>
      </trkpt>
      <trkpt lat="47.47804" lon="-2.49149">
        <ele>21.4</ele>
        <time>2020-08-03T12:49:52Z</time>
      </trkpt>
      <trkpt lat="47.47802" lon="-2.49146">
        <ele>21.4</ele>
        <time>2020-08-03T12:49:53Z</time>
      </trkpt>
      <trkpt lat="47.47799" lon="-2.49143">
        <ele>21.4</ele>
        <time>2020-08-03T12:49:54Z</time>
      </trkpt>
      <trkpt lat="47.47796" lon="-2.4914">
        <ele>21.6</ele>
        <time>2020-08-03T12:49:55Z</time>
      </trkpt>
      <trkpt lat="47.47793" lon="-2.49138">
        <ele>21.6</ele>
        <time>2020-08-03T12:49:56Z</time>
      </trkpt>
      <trkpt lat="47.4779" lon="-2.49135">
        <ele>21.4</ele>
        <time>2020-08-03T12:49:57Z</time>
      </trkpt>
      <trkpt lat="47.47788" lon="-2.49132">
        <ele>21.6</ele>
        <time>2020-08-03T12:49:58Z</time>
      </trkpt>
      <trkpt lat="47.47785" lon="-2.49129">
        <ele>21.8</ele>
        <time>2020-08-03T12:49:59Z</time>
      </trkpt>
      <trkpt lat="47.47783" lon="-2.49127">
        <ele>21.8</ele>
        <time>2020-08-03T12:50:00Z</time>
      </trkpt>
      <trkpt lat="47.4778" lon="-2.49125">
        <ele>21.8</ele>
        <time>2020-08-03T12:50:01Z</time>
      </trkpt>
      <trkpt lat="47.47778" lon="-2.49122">
        <ele>22.2</ele>
        <time>2020-08-03T12:50:02Z</time>
      </trkpt>
      <trkpt lat="47.47776" lon="-2.4912">
        <ele>22.2</ele>
        <time>2020-08-03T12:50:03Z</time>
      </trkpt>
      <trkpt lat="47.47774" lon="-2.49117">
        <ele>22</ele>
        <time>2020-08-03T12:50:04Z</time>
      </trkpt>
      <trkpt lat="47.47772" lon="-2.49113">
        <ele>22</ele>
        <time>2020-08-03T12:50:05Z</time>
      </trkpt>
      <trkpt lat="47.47771" lon="-2.4911">
        <ele>22</ele>
        <time>2020-08-03T12:50:06Z</time>
      </trkpt>
      <trkpt lat="47.4777" lon="-2.49106">
        <ele>22.2</ele>
        <time>2020-08-03T12:50:07Z</time>
      </trkpt>
      <trkpt lat="47.4777" lon="-2.49103">
        <ele>22</ele>
        <time>2020-08-03T12:50:08Z</time>
      </trkpt>
      <trkpt lat="47.47769" lon="-2.49099">
        <ele>21.8</ele>
        <time>2020-08-03T12:50:09Z</time>
      </trkpt>
      <trkpt lat="47.47768" lon="-2.49096">
        <ele>21.6</ele>
        <time>2020-08-03T12:50:10Z</time>
      </trkpt>
      <trkpt lat="47.47767" lon="-2.49092">
        <ele>21.6</ele>
        <time>2020-08-03T12:50:11Z</time>
      </trkpt>
      <trkpt lat="47.47765" lon="-2.49089">
        <ele>21.6</ele>
        <time>2020-08-03T12:50:12Z</time>
      </trkpt>
      <trkpt lat="47.47764" lon="-2.49087">
        <ele>21.6</ele>
        <time>2020-08-03T12:50:13Z</time>
      </trkpt>
      <trkpt lat="47.47762" lon="-2.49085">
        <ele>21.4</ele>
        <time>2020-08-03T12:50:14Z</time>
      </trkpt>
      <trkpt lat="47.47761" lon="-2.49083">
        <ele>21.4</ele>
        <time>2020-08-03T12:50:15Z</time>
      </trkpt>
      <trkpt lat="47.47759" lon="-2.49082">
        <ele>21.2</ele>
        <time>2020-08-03T12:50:16Z</time>
      </trkpt>
      <trkpt lat="47.47758" lon="-2.4908">
        <ele>21.8</ele>
        <time>2020-08-03T12:50:17Z</time>
      </trkpt>
      <trkpt lat="47.47757" lon="-2.49079">
        <ele>21.4</ele>
        <time>2020-08-03T12:50:18Z</time>
      </trkpt>
      <trkpt lat="47.47756" lon="-2.49076">
        <ele>21</ele>
        <time>2020-08-03T12:50:19Z</time>
      </trkpt>
      <trkpt lat="47.47754" lon="-2.49074">
        <ele>21</ele>
        <time>2020-08-03T12:50:20Z</time>
      </trkpt>
      <trkpt lat="47.47752" lon="-2.49071">
        <ele>21.2</ele>
        <time>2020-08-03T12:50:21Z</time>
      </trkpt>
      <trkpt lat="47.4775" lon="-2.49068">
        <ele>21.2</ele>
        <time>2020-08-03T12:50:22Z</time>
      </trkpt>
      <trkpt lat="47.47748" lon="-2.49067">
        <ele>21.2</ele>
        <time>2020-08-03T12:50:23Z</time>
      </trkpt>
      <trkpt lat="47.47745" lon="-2.49065">
        <ele>21.2</ele>
        <time>2020-08-03T12:50:24Z</time>
      </trkpt>
      <trkpt lat="47.47742" lon="-2.49063">
        <ele>21.4</ele>
        <time>2020-08-03T12:50:25Z</time>
      </trkpt>
      <trkpt lat="47.47739" lon="-2.49062">
        <ele>21.2</ele>
        <time>2020-08-03T12:50:26Z</time>
      </trkpt>
      <trkpt lat="47.47736" lon="-2.4906">
        <ele>21.2</ele>
        <time>2020-08-03T12:50:27Z</time>
      </trkpt>
      <trkpt lat="47.47733" lon="-2.49058">
        <ele>21.4</ele>
        <time>2020-08-03T12:50:28Z</time>
      </trkpt>
      <trkpt lat="47.4773" lon="-2.49056">
        <ele>21.2</ele>
        <time>2020-08-03T12:50:29Z</time>
      </trkpt>
      <trkpt lat="47.47727" lon="-2.49054">
        <ele>21.4</ele>
        <time>2020-08-03T12:50:30Z</time>
      </trkpt>
      <trkpt lat="47.47724" lon="-2.49053">
        <ele>21.6</ele>
        <time>2020-08-03T12:50:31Z</time>
      </trkpt>
      <trkpt lat="47.47721" lon="-2.49051">
        <ele>21.6</ele>
        <time>2020-08-03T12:50:32Z</time>
      </trkpt>
      <trkpt lat="47.47718" lon="-2.49049">
        <ele>21.6</ele>
        <time>2020-08-03T12:50:33Z</time>
      </trkpt>
      <trkpt lat="47.47715" lon="-2.49048">
        <ele>21.6</ele>
        <time>2020-08-03T12:50:34Z</time>
      </trkpt>
      <trkpt lat="47.47712" lon="-2.49046">
        <ele>21.4</ele>
        <time>2020-08-03T12:50:35Z</time>
      </trkpt>
      <trkpt lat="47.47709" lon="-2.49044">
        <ele>21.4</ele>
        <time>2020-08-03T12:50:36Z</time>
      </trkpt>
      <trkpt lat="47.47705" lon="-2.49043">
        <ele>21.4</ele>
        <time>2020-08-03T12:50:37Z</time>
      </trkpt>
      <trkpt lat="47.47702" lon="-2.49042">
        <ele>21.6</ele>
        <time>2020-08-03T12:50:38Z</time>
      </trkpt>
      <trkpt lat="47.47699" lon="-2.4904">
        <ele>21.6</ele>
        <time>2020-08-03T12:50:39Z</time>
      </trkpt>
      <trkpt lat="47.47696" lon="-2.49038">
        <ele>21.8</ele>
        <time>2020-08-03T12:50:40Z</time>
      </trkpt>
      <trkpt lat="47.47693" lon="-2.49036">
        <ele>21.8</ele>
        <time>2020-08-03T12:50:41Z</time>
      </trkpt>
      <trkpt lat="47.4769" lon="-2.49034">
        <ele>22</ele>
        <time>2020-08-03T12:50:42Z</time>
      </trkpt>
      <trkpt lat="47.47687" lon="-2.49032">
        <ele>21.8</ele>
        <time>2020-08-03T12:50:43Z</time>
      </trkpt>
      <trkpt lat="47.47684" lon="-2.4903">
        <ele>21.8</ele>
        <time>2020-08-03T12:50:44Z</time>
      </trkpt>
      <trkpt lat="47.47681" lon="-2.49028">
        <ele>22</ele>
        <time>2020-08-03T12:50:45Z</time>
      </trkpt>
      <trkpt lat="47.47679" lon="-2.49025">
        <ele>21.8</ele>
        <time>2020-08-03T12:50:46Z</time>
      </trkpt>
      <trkpt lat="47.47676" lon="-2.49023">
        <ele>21.8</ele>
        <time>2020-08-03T12:50:47Z</time>
      </trkpt>
      <trkpt lat="47.47673" lon="-2.4902">
        <ele>21.8</ele>
        <time>2020-08-03T12:50:48Z</time>
      </trkpt>
      <trkpt lat="47.4767" lon="-2.49018">
        <ele>21.8</ele>
        <time>2020-08-03T12:50:49Z</time>
      </trkpt>
      <trkpt lat="47.47668" lon="-2.49015">
        <ele>21.8</ele>
        <time>2020-08-03T12:50:50Z</time>
      </trkpt>
      <trkpt lat="47.47665" lon="-2.49012">
        <ele>21.6</ele>
        <time>2020-08-03T12:50:51Z</time>
      </trkpt>
      <trkpt lat="47.47662" lon="-2.4901">
        <ele>21.8</ele>
        <time>2020-08-03T12:50:52Z</time>
      </trkpt>
      <trkpt lat="47.47659" lon="-2.49007">
        <ele>21.8</ele>
        <time>2020-08-03T12:50:53Z</time>
      </trkpt>
      <trkpt lat="47.47656" lon="-2.49004">
        <ele>22</ele>
        <time>2020-08-03T12:50:54Z</time>
      </trkpt>
      <trkpt lat="47.47654" lon="-2.49002">
        <ele>22.2</ele>
        <time>2020-08-03T12:50:55Z</time>
      </trkpt>
      <trkpt lat="47.47651" lon="-2.49">
        <ele>22</ele>
        <time>2020-08-03T12:50:56Z</time>
      </trkpt>
      <trkpt lat="47.47647" lon="-2.48998">
        <ele>22.2</ele>
        <time>2020-08-03T12:50:57Z</time>
      </trkpt>
      <trkpt lat="47.47644" lon="-2.48996">
        <ele>22.2</ele>
        <time>2020-08-03T12:50:58Z</time>
      </trkpt>
      <trkpt lat="47.47641" lon="-2.48995">
        <ele>22.4</ele>
        <time>2020-08-03T12:50:59Z</time>
      </trkpt>
      <trkpt lat="47.47638" lon="-2.48993">
        <ele>22.6</ele>
        <time>2020-08-03T12:51:00Z</time>
      </trkpt>
      <trkpt lat="47.47635" lon="-2.48992">
        <ele>22.6</ele>
        <time>2020-08-03T12:51:01Z</time>
      </trkpt>
      <trkpt lat="47.47632" lon="-2.48991">
        <ele>22.6</ele>
        <time>2020-08-03T12:51:02Z</time>
      </trkpt>
      <trkpt lat="47.47628" lon="-2.4899">
        <ele>22.4</ele>
        <time>2020-08-03T12:51:03Z</time>
      </trkpt>
      <trkpt lat="47.47625" lon="-2.4899">
        <ele>22.2</ele>
        <time>2020-08-03T12:51:04Z</time>
      </trkpt>
      <trkpt lat="47.47622" lon="-2.48989">
        <ele>22.4</ele>
        <time>2020-08-03T12:51:05Z</time>
      </trkpt>
      <trkpt lat="47.47619" lon="-2.48988">
        <ele>22.8</ele>
        <time>2020-08-03T12:51:06Z</time>
      </trkpt>
      <trkpt lat="47.47615" lon="-2.48987">
        <ele>23</ele>
        <time>2020-08-03T12:51:07Z</time>
      </trkpt>
      <trkpt lat="47.47612" lon="-2.48986">
        <ele>23</ele>
        <time>2020-08-03T12:51:08Z</time>
      </trkpt>
      <trkpt lat="47.47609" lon="-2.48985">
        <ele>23</ele>
        <time>2020-08-03T12:51:09Z</time>
      </trkpt>
      <trkpt lat="47.47606" lon="-2.48984">
        <ele>23</ele>
        <time>2020-08-03T12:51:10Z</time>
      </trkpt>
      <trkpt lat="47.47603" lon="-2.48982">
        <ele>22.6</ele>
        <time>2020-08-03T12:51:11Z</time>
      </trkpt>
      <trkpt lat="47.476" lon="-2.4898">
        <ele>22.6</ele>
        <time>2020-08-03T12:51:12Z</time>
      </trkpt>
      <trkpt lat="47.47597" lon="-2.48978">
        <ele>22.8</ele>
        <time>2020-08-03T12:51:13Z</time>
      </trkpt>
      <trkpt lat="47.47595" lon="-2.48975">
        <ele>23</ele>
        <time>2020-08-03T12:51:14Z</time>
      </trkpt>
      <trkpt lat="47.47592" lon="-2.48971">
        <ele>22.8</ele>
        <time>2020-08-03T12:51:15Z</time>
      </trkpt>
      <trkpt lat="47.4759" lon="-2.48968">
        <ele>22.6</ele>
        <time>2020-08-03T12:51:16Z</time>
      </trkpt>
      <trkpt lat="47.47588" lon="-2.48964">
        <ele>22.6</ele>
        <time>2020-08-03T12:51:17Z</time>
      </trkpt>
      <trkpt lat="47.47586" lon="-2.4896">
        <ele>22.8</ele>
        <time>2020-08-03T12:51:18Z</time>
      </trkpt>
      <trkpt lat="47.47584" lon="-2.48956">
        <ele>22.8</ele>
        <time>2020-08-03T12:51:19Z</time>
      </trkpt>
      <trkpt lat="47.47583" lon="-2.48953">
        <ele>22.6</ele>
        <time>2020-08-03T12:51:20Z</time>
      </trkpt>
      <trkpt lat="47.47581" lon="-2.48949">
        <ele>22.6</ele>
        <time>2020-08-03T12:51:21Z</time>
      </trkpt>
      <trkpt lat="47.47579" lon="-2.48946">
        <ele>22.6</ele>
        <time>2020-08-03T12:51:22Z</time>
      </trkpt>
      <trkpt lat="47.47577" lon="-2.48943">
        <ele>22.6</ele>
        <time>2020-08-03T12:51:23Z</time>
      </trkpt>
      <trkpt lat="47.47575" lon="-2.4894">
        <ele>22.6</ele>
        <time>2020-08-03T12:51:24Z</time>
      </trkpt>
      <trkpt lat="47.47572" lon="-2.48939">
        <ele>22.6</ele>
        <time>2020-08-03T12:51:25Z</time>
      </trkpt>
      <trkpt lat="47.47569" lon="-2.48938">
        <ele>22.6</ele>
        <time>2020-08-03T12:51:26Z</time>
      </trkpt>
      <trkpt lat="47.47566" lon="-2.48938">
        <ele>22.6</ele>
        <time>2020-08-03T12:51:27Z</time>
      </trkpt>
      <trkpt lat="47.47563" lon="-2.48938">
        <ele>22.6</ele>
        <time>2020-08-03T12:51:28Z</time>
      </trkpt>
      <trkpt lat="47.4756" lon="-2.48938">
        <ele>22.4</ele>
        <time>2020-08-03T12:51:29Z</time>
      </trkpt>
      <trkpt lat="47.47557" lon="-2.48937">
        <ele>22.6</ele>
        <time>2020-08-03T12:51:30Z</time>
      </trkpt>
      <trkpt lat="47.47554" lon="-2.48935">
        <ele>22.6</ele>
        <time>2020-08-03T12:51:31Z</time>
      </trkpt>
      <trkpt lat="47.47551" lon="-2.48934">
        <ele>22.8</ele>
        <time>2020-08-03T12:51:32Z</time>
      </trkpt>
      <trkpt lat="47.47548" lon="-2.48931">
        <ele>22.8</ele>
        <time>2020-08-03T12:51:33Z</time>
      </trkpt>
      <trkpt lat="47.47545" lon="-2.48928">
        <ele>23.2</ele>
        <time>2020-08-03T12:51:34Z</time>
      </trkpt>
      <trkpt lat="47.47542" lon="-2.48926">
        <ele>23.6</ele>
        <time>2020-08-03T12:51:35Z</time>
      </trkpt>
      <trkpt lat="47.4754" lon="-2.48924">
        <ele>23.6</ele>
        <time>2020-08-03T12:51:36Z</time>
      </trkpt>
      <trkpt lat="47.47537" lon="-2.48922">
        <ele>23.6</ele>
        <time>2020-08-03T12:51:37Z</time>
      </trkpt>
      <trkpt lat="47.47534" lon="-2.4892">
        <ele>23.4</ele>
        <time>2020-08-03T12:51:38Z</time>
      </trkpt>
      <trkpt lat="47.47531" lon="-2.48917">
        <ele>23.2</ele>
        <time>2020-08-03T12:51:39Z</time>
      </trkpt>
      <trkpt lat="47.47528" lon="-2.48915">
        <ele>23</ele>
        <time>2020-08-03T12:51:40Z</time>
      </trkpt>
      <trkpt lat="47.47526" lon="-2.48912">
        <ele>23</ele>
        <time>2020-08-03T12:51:41Z</time>
      </trkpt>
      <trkpt lat="47.47523" lon="-2.48911">
        <ele>23</ele>
        <time>2020-08-03T12:51:42Z</time>
      </trkpt>
      <trkpt lat="47.47519" lon="-2.4891">
        <ele>23</ele>
        <time>2020-08-03T12:51:43Z</time>
      </trkpt>
      <trkpt lat="47.47516" lon="-2.48909">
        <ele>23</ele>
        <time>2020-08-03T12:51:44Z</time>
      </trkpt>
      <trkpt lat="47.47513" lon="-2.4891">
        <ele>23</ele>
        <time>2020-08-03T12:51:45Z</time>
      </trkpt>
      <trkpt lat="47.4751" lon="-2.4891">
        <ele>23.2</ele>
        <time>2020-08-03T12:51:46Z</time>
      </trkpt>
      <trkpt lat="47.47506" lon="-2.48911">
        <ele>23.6</ele>
        <time>2020-08-03T12:51:47Z</time>
      </trkpt>
      <trkpt lat="47.47503" lon="-2.48912">
        <ele>24</ele>
        <time>2020-08-03T12:51:48Z</time>
      </trkpt>
      <trkpt lat="47.475" lon="-2.48911">
        <ele>23.8</ele>
        <time>2020-08-03T12:51:49Z</time>
      </trkpt>
      <trkpt lat="47.47496" lon="-2.4891">
        <ele>23.8</ele>
        <time>2020-08-03T12:51:50Z</time>
      </trkpt>
      <trkpt lat="47.47493" lon="-2.48909">
        <ele>23.8</ele>
        <time>2020-08-03T12:51:51Z</time>
      </trkpt>
      <trkpt lat="47.4749" lon="-2.48907">
        <ele>24</ele>
        <time>2020-08-03T12:51:52Z</time>
      </trkpt>
      <trkpt lat="47.47487" lon="-2.48905">
        <ele>24.2</ele>
        <time>2020-08-03T12:51:53Z</time>
      </trkpt>
      <trkpt lat="47.47484" lon="-2.48904">
        <ele>24.2</ele>
        <time>2020-08-03T12:51:54Z</time>
      </trkpt>
      <trkpt lat="47.47481" lon="-2.48903">
        <ele>24.2</ele>
        <time>2020-08-03T12:51:55Z</time>
      </trkpt>
      <trkpt lat="47.47478" lon="-2.48902">
        <ele>23.8</ele>
        <time>2020-08-03T12:51:56Z</time>
      </trkpt>
      <trkpt lat="47.47475" lon="-2.48901">
        <ele>23.2</ele>
        <time>2020-08-03T12:51:57Z</time>
      </trkpt>
      <trkpt lat="47.47472" lon="-2.489">
        <ele>23.2</ele>
        <time>2020-08-03T12:51:58Z</time>
      </trkpt>
      <trkpt lat="47.47469" lon="-2.48899">
        <ele>23</ele>
        <time>2020-08-03T12:51:59Z</time>
      </trkpt>
      <trkpt lat="47.47466" lon="-2.48897">
        <ele>22.8</ele>
        <time>2020-08-03T12:52:00Z</time>
      </trkpt>
      <trkpt lat="47.47463" lon="-2.48893">
        <ele>22.6</ele>
        <time>2020-08-03T12:52:01Z</time>
      </trkpt>
      <trkpt lat="47.47461" lon="-2.4889">
        <ele>22.8</ele>
        <time>2020-08-03T12:52:02Z</time>
      </trkpt>
      <trkpt lat="47.4746" lon="-2.48887">
        <ele>22.8</ele>
        <time>2020-08-03T12:52:03Z</time>
      </trkpt>
      <trkpt lat="47.47459" lon="-2.48884">
        <ele>22.6</ele>
        <time>2020-08-03T12:52:04Z</time>
      </trkpt>
      <trkpt lat="47.47458" lon="-2.4888">
        <ele>22.6</ele>
        <time>2020-08-03T12:52:05Z</time>
      </trkpt>
      <trkpt lat="47.47456" lon="-2.48877">
        <ele>22.6</ele>
        <time>2020-08-03T12:52:06Z</time>
      </trkpt>
      <trkpt lat="47.47455" lon="-2.48873">
        <ele>22.4</ele>
        <time>2020-08-03T12:52:07Z</time>
      </trkpt>
      <trkpt lat="47.47454" lon="-2.4887">
        <ele>22.4</ele>
        <time>2020-08-03T12:52:08Z</time>
      </trkpt>
      <trkpt lat="47.47452" lon="-2.48868">
        <ele>22.2</ele>
        <time>2020-08-03T12:52:09Z</time>
      </trkpt>
      <trkpt lat="47.47451" lon="-2.48865">
        <ele>22.4</ele>
        <time>2020-08-03T12:52:10Z</time>
      </trkpt>
      <trkpt lat="47.47449" lon="-2.48864">
        <ele>22.4</ele>
        <time>2020-08-03T12:52:11Z</time>
      </trkpt>
      <trkpt lat="47.47448" lon="-2.48861">
        <ele>22.4</ele>
        <time>2020-08-03T12:52:12Z</time>
      </trkpt>
      <trkpt lat="47.47448" lon="-2.4886">
        <ele>22.4</ele>
        <time>2020-08-03T12:52:13Z</time>
      </trkpt>
      <trkpt lat="47.47448" lon="-2.48857">
        <ele>22.4</ele>
        <time>2020-08-03T12:52:14Z</time>
      </trkpt>
      <trkpt lat="47.47448" lon="-2.48854">
        <ele>22.4</ele>
        <time>2020-08-03T12:52:15Z</time>
      </trkpt>
      <trkpt lat="47.47447" lon="-2.48851">
        <ele>22.4</ele>
        <time>2020-08-03T12:52:16Z</time>
      </trkpt>
      <trkpt lat="47.47448" lon="-2.48847">
        <ele>22.4</ele>
        <time>2020-08-03T12:52:17Z</time>
      </trkpt>
      <trkpt lat="47.47449" lon="-2.48844">
        <ele>22.2</ele>
        <time>2020-08-03T12:52:18Z</time>
      </trkpt>
      <trkpt lat="47.4745" lon="-2.48837">
        <ele>22.2</ele>
        <time>2020-08-03T12:52:19Z</time>
      </trkpt>
      <trkpt lat="47.4745" lon="-2.48831">
        <ele>22.2</ele>
        <time>2020-08-03T12:52:20Z</time>
      </trkpt>
      <trkpt lat="47.47449" lon="-2.48826">
        <ele>22.2</ele>
        <time>2020-08-03T12:52:21Z</time>
      </trkpt>
      <trkpt lat="47.4745" lon="-2.48822">
        <ele>22.2</ele>
        <time>2020-08-03T12:52:22Z</time>
      </trkpt>
      <trkpt lat="47.4745" lon="-2.48818">
        <ele>22.2</ele>
        <time>2020-08-03T12:52:23Z</time>
      </trkpt>
      <trkpt lat="47.47451" lon="-2.48813">
        <ele>22.2</ele>
        <time>2020-08-03T12:52:24Z</time>
      </trkpt>
      <trkpt lat="47.47451" lon="-2.48809">
        <ele>22.2</ele>
        <time>2020-08-03T12:52:25Z</time>
      </trkpt>
      <trkpt lat="47.47451" lon="-2.48804">
        <ele>22.2</ele>
        <time>2020-08-03T12:52:26Z</time>
      </trkpt>
      <trkpt lat="47.47452" lon="-2.48799">
        <ele>22.2</ele>
        <time>2020-08-03T12:52:27Z</time>
      </trkpt>
      <trkpt lat="47.47452" lon="-2.48795">
        <ele>22.2</ele>
        <time>2020-08-03T12:52:28Z</time>
      </trkpt>
      <trkpt lat="47.47453" lon="-2.48791">
        <ele>22.2</ele>
        <time>2020-08-03T12:52:29Z</time>
      </trkpt>
      <trkpt lat="47.47452" lon="-2.48787">
        <ele>22.2</ele>
        <time>2020-08-03T12:52:30Z</time>
      </trkpt>
      <trkpt lat="47.47453" lon="-2.48786">
        <ele>22.2</ele>
        <time>2020-08-03T12:52:31Z</time>
      </trkpt>
      <trkpt lat="47.47454" lon="-2.48783">
        <ele>22.2</ele>
        <time>2020-08-03T12:52:32Z</time>
      </trkpt>
      <trkpt lat="47.47454" lon="-2.48781">
        <ele>22.2</ele>
        <time>2020-08-03T12:52:33Z</time>
      </trkpt>
      <trkpt lat="47.47452" lon="-2.48778">
        <ele>22.2</ele>
        <time>2020-08-03T12:52:34Z</time>
      </trkpt>
      <trkpt lat="47.47451" lon="-2.48775">
        <ele>22</ele>
        <time>2020-08-03T12:52:35Z</time>
      </trkpt>
      <trkpt lat="47.47449" lon="-2.48771">
        <ele>22.2</ele>
        <time>2020-08-03T12:52:36Z</time>
      </trkpt>
      <trkpt lat="47.47447" lon="-2.4877">
        <ele>22.4</ele>
        <time>2020-08-03T12:52:37Z</time>
      </trkpt>
      <trkpt lat="47.47446" lon="-2.48768">
        <ele>22.2</ele>
        <time>2020-08-03T12:52:38Z</time>
      </trkpt>
      <trkpt lat="47.47444" lon="-2.48767">
        <ele>22.2</ele>
        <time>2020-08-03T12:52:39Z</time>
      </trkpt>
      <trkpt lat="47.47444" lon="-2.48766">
        <ele>22.2</ele>
        <time>2020-08-03T12:52:40Z</time>
      </trkpt>
      <trkpt lat="47.47444" lon="-2.48764">
        <ele>22.2</ele>
        <time>2020-08-03T12:52:41Z</time>
      </trkpt>
      <trkpt lat="47.47443" lon="-2.48762">
        <ele>22.2</ele>
        <time>2020-08-03T12:52:42Z</time>
      </trkpt>
      <trkpt lat="47.47443" lon="-2.48761">
        <ele>22.2</ele>
        <time>2020-08-03T12:52:43Z</time>
      </trkpt>
      <trkpt lat="47.47443" lon="-2.4876">
        <ele>22.2</ele>
        <time>2020-08-03T12:52:44Z</time>
      </trkpt>
      <trkpt lat="47.47443" lon="-2.4876">
        <ele>22.2</ele>
        <time>2020-08-03T12:52:45Z</time>
      </trkpt>
      <trkpt lat="47.47443" lon="-2.48759">
        <ele>22.2</ele>
        <time>2020-08-03T12:52:46Z</time>
      </trkpt>
      <trkpt lat="47.47442" lon="-2.48759">
        <ele>22.2</ele>
        <time>2020-08-03T12:52:47Z</time>
      </trkpt>
      <trkpt lat="47.47424" lon="-2.48745">
        <ele>22.4</ele>
        <time>2020-08-03T12:55:21Z</time>
      </trkpt>
      <trkpt lat="47.47423" lon="-2.48744">
        <ele>22.4</ele>
        <time>2020-08-03T12:55:22Z</time>
      </trkpt>
      <trkpt lat="47.47422" lon="-2.48743">
        <ele>22.2</ele>
        <time>2020-08-03T12:55:23Z</time>
      </trkpt>
      <trkpt lat="47.47422" lon="-2.48742">
        <ele>22.4</ele>
        <time>2020-08-03T12:55:24Z</time>
      </trkpt>
      <trkpt lat="47.47421" lon="-2.48741">
        <ele>22.2</ele>
        <time>2020-08-03T12:55:25Z</time>
      </trkpt>
      <trkpt lat="47.4742" lon="-2.48741">
        <ele>22.2</ele>
        <time>2020-08-03T12:55:26Z</time>
      </trkpt>
      <trkpt lat="47.47418" lon="-2.4874">
        <ele>22.2</ele>
        <time>2020-08-03T12:55:27Z</time>
      </trkpt>
      <trkpt lat="47.47417" lon="-2.48739">
        <ele>22.2</ele>
        <time>2020-08-03T12:55:28Z</time>
      </trkpt>
      <trkpt lat="47.47415" lon="-2.48739">
        <ele>22.2</ele>
        <time>2020-08-03T12:55:29Z</time>
      </trkpt>
      <trkpt lat="47.47414" lon="-2.48738">
        <ele>22.2</ele>
        <time>2020-08-03T12:55:30Z</time>
      </trkpt>
      <trkpt lat="47.47412" lon="-2.48737">
        <ele>22.2</ele>
        <time>2020-08-03T12:55:31Z</time>
      </trkpt>
      <trkpt lat="47.47411" lon="-2.48737">
        <ele>22.2</ele>
        <time>2020-08-03T12:55:32Z</time>
      </trkpt>
      <trkpt lat="47.47409" lon="-2.48736">
        <ele>22.4</ele>
        <time>2020-08-03T12:55:33Z</time>
      </trkpt>
      <trkpt lat="47.47408" lon="-2.48736">
        <ele>22.4</ele>
        <time>2020-08-03T12:55:34Z</time>
      </trkpt>
      <trkpt lat="47.47406" lon="-2.48736">
        <ele>22.4</ele>
        <time>2020-08-03T12:55:35Z</time>
      </trkpt>
      <trkpt lat="47.47405" lon="-2.48735">
        <ele>22.4</ele>
        <time>2020-08-03T12:55:36Z</time>
      </trkpt>
      <trkpt lat="47.47404" lon="-2.48735">
        <ele>22.4</ele>
        <time>2020-08-03T12:55:37Z</time>
      </trkpt>
      <trkpt lat="47.47402" lon="-2.48734">
        <ele>22.4</ele>
        <time>2020-08-03T12:55:38Z</time>
      </trkpt>
      <trkpt lat="47.47401" lon="-2.48733">
        <ele>22.2</ele>
        <time>2020-08-03T12:55:39Z</time>
      </trkpt>
      <trkpt lat="47.474" lon="-2.48732">
        <ele>22</ele>
        <time>2020-08-03T12:55:40Z</time>
      </trkpt>
      <trkpt lat="47.47398" lon="-2.48731">
        <ele>22</ele>
        <time>2020-08-03T12:55:41Z</time>
      </trkpt>
      <trkpt lat="47.47397" lon="-2.4873">
        <ele>22</ele>
        <time>2020-08-03T12:55:42Z</time>
      </trkpt>
      <trkpt lat="47.47396" lon="-2.48728">
        <ele>22</ele>
        <time>2020-08-03T12:55:43Z</time>
      </trkpt>
      <trkpt lat="47.47395" lon="-2.48727">
        <ele>22</ele>
        <time>2020-08-03T12:55:44Z</time>
      </trkpt>
      <trkpt lat="47.47394" lon="-2.48726">
        <ele>21.8</ele>
        <time>2020-08-03T12:55:45Z</time>
      </trkpt>
      <trkpt lat="47.47393" lon="-2.48724">
        <ele>21.4</ele>
        <time>2020-08-03T12:55:46Z</time>
      </trkpt>
      <trkpt lat="47.47392" lon="-2.48721">
        <ele>21.6</ele>
        <time>2020-08-03T12:55:47Z</time>
      </trkpt>
      <trkpt lat="47.47391" lon="-2.48718">
        <ele>21.8</ele>
        <time>2020-08-03T12:55:48Z</time>
      </trkpt>
      <trkpt lat="47.47389" lon="-2.48715">
        <ele>22</ele>
        <time>2020-08-03T12:55:49Z</time>
      </trkpt>
      <trkpt lat="47.47388" lon="-2.48712">
        <ele>22.2</ele>
        <time>2020-08-03T12:55:50Z</time>
      </trkpt>
      <trkpt lat="47.47387" lon="-2.48708">
        <ele>22.2</ele>
        <time>2020-08-03T12:55:51Z</time>
      </trkpt>
      <trkpt lat="47.47386" lon="-2.48704">
        <ele>21.8</ele>
        <time>2020-08-03T12:55:52Z</time>
      </trkpt>
      <trkpt lat="47.47386" lon="-2.487">
        <ele>21.6</ele>
        <time>2020-08-03T12:55:53Z</time>
      </trkpt>
      <trkpt lat="47.47386" lon="-2.48696">
        <ele>21.6</ele>
        <time>2020-08-03T12:55:54Z</time>
      </trkpt>
      <trkpt lat="47.47385" lon="-2.48692">
        <ele>21.6</ele>
        <time>2020-08-03T12:55:55Z</time>
      </trkpt>
      <trkpt lat="47.47385" lon="-2.48687">
        <ele>21.4</ele>
        <time>2020-08-03T12:55:56Z</time>
      </trkpt>
      <trkpt lat="47.47384" lon="-2.48682">
        <ele>21.4</ele>
        <time>2020-08-03T12:55:57Z</time>
      </trkpt>
      <trkpt lat="47.47384" lon="-2.48677">
        <ele>21.4</ele>
        <time>2020-08-03T12:55:58Z</time>
      </trkpt>
      <trkpt lat="47.47384" lon="-2.48671">
        <ele>21.4</ele>
        <time>2020-08-03T12:55:59Z</time>
      </trkpt>
      <trkpt lat="47.47383" lon="-2.48667">
        <ele>21.4</ele>
        <time>2020-08-03T12:56:00Z</time>
      </trkpt>
      <trkpt lat="47.47383" lon="-2.48662">
        <ele>21.6</ele>
        <time>2020-08-03T12:56:01Z</time>
      </trkpt>
      <trkpt lat="47.47382" lon="-2.48657">
        <ele>21.4</ele>
        <time>2020-08-03T12:56:02Z</time>
      </trkpt>
      <trkpt lat="47.47382" lon="-2.48652">
        <ele>21.4</ele>
        <time>2020-08-03T12:56:03Z</time>
      </trkpt>
      <trkpt lat="47.47381" lon="-2.48646">
        <ele>21.2</ele>
        <time>2020-08-03T12:56:04Z</time>
      </trkpt>
      <trkpt lat="47.4738" lon="-2.48641">
        <ele>21</ele>
        <time>2020-08-03T12:56:05Z</time>
      </trkpt>
      <trkpt lat="47.4738" lon="-2.48635">
        <ele>20.8</ele>
        <time>2020-08-03T12:56:06Z</time>
      </trkpt>
      <trkpt lat="47.47379" lon="-2.4863">
        <ele>20.8</ele>
        <time>2020-08-03T12:56:07Z</time>
      </trkpt>
      <trkpt lat="47.47378" lon="-2.48625">
        <ele>20.6</ele>
        <time>2020-08-03T12:56:08Z</time>
      </trkpt>
      <trkpt lat="47.47377" lon="-2.48619">
        <ele>20.6</ele>
        <time>2020-08-03T12:56:09Z</time>
      </trkpt>
      <trkpt lat="47.47377" lon="-2.48614">
        <ele>20.6</ele>
        <time>2020-08-03T12:56:10Z</time>
      </trkpt>
      <trkpt lat="47.47375" lon="-2.48608">
        <ele>20.4</ele>
        <time>2020-08-03T12:56:11Z</time>
      </trkpt>
      <trkpt lat="47.47374" lon="-2.48603">
        <ele>20.4</ele>
        <time>2020-08-03T12:56:12Z</time>
      </trkpt>
      <trkpt lat="47.47373" lon="-2.48598">
        <ele>20.4</ele>
        <time>2020-08-03T12:56:13Z</time>
      </trkpt>
      <trkpt lat="47.47372" lon="-2.48593">
        <ele>20.4</ele>
        <time>2020-08-03T12:56:14Z</time>
      </trkpt>
      <trkpt lat="47.47372" lon="-2.48587">
        <ele>20.6</ele>
        <time>2020-08-03T12:56:15Z</time>
      </trkpt>
      <trkpt lat="47.47371" lon="-2.48581">
        <ele>20.4</ele>
        <time>2020-08-03T12:56:16Z</time>
      </trkpt>
      <trkpt lat="47.4737" lon="-2.48575">
        <ele>20.4</ele>
        <time>2020-08-03T12:56:17Z</time>
      </trkpt>
      <trkpt lat="47.4737" lon="-2.4857">
        <ele>20.6</ele>
        <time>2020-08-03T12:56:18Z</time>
      </trkpt>
      <trkpt lat="47.47369" lon="-2.48564">
        <ele>20.4</ele>
        <time>2020-08-03T12:56:19Z</time>
      </trkpt>
      <trkpt lat="47.47368" lon="-2.48558">
        <ele>20.2</ele>
        <time>2020-08-03T12:56:20Z</time>
      </trkpt>
      <trkpt lat="47.47368" lon="-2.48552">
        <ele>20.2</ele>
        <time>2020-08-03T12:56:21Z</time>
      </trkpt>
      <trkpt lat="47.47367" lon="-2.48546">
        <ele>20.2</ele>
        <time>2020-08-03T12:56:22Z</time>
      </trkpt>
      <trkpt lat="47.47366" lon="-2.48541">
        <ele>20.2</ele>
        <time>2020-08-03T12:56:23Z</time>
      </trkpt>
      <trkpt lat="47.47366" lon="-2.48535">
        <ele>20.2</ele>
        <time>2020-08-03T12:56:24Z</time>
      </trkpt>
      <trkpt lat="47.47366" lon="-2.48529">
        <ele>20.2</ele>
        <time>2020-08-03T12:56:25Z</time>
      </trkpt>
      <trkpt lat="47.47366" lon="-2.48524">
        <ele>20.2</ele>
        <time>2020-08-03T12:56:26Z</time>
      </trkpt>
      <trkpt lat="47.47365" lon="-2.48518">
        <ele>20.2</ele>
        <time>2020-08-03T12:56:27Z</time>
      </trkpt>
      <trkpt lat="47.47365" lon="-2.48512">
        <ele>20.2</ele>
        <time>2020-08-03T12:56:28Z</time>
      </trkpt>
      <trkpt lat="47.47365" lon="-2.48506">
        <ele>20</ele>
        <time>2020-08-03T12:56:29Z</time>
      </trkpt>
      <trkpt lat="47.47365" lon="-2.485">
        <ele>20</ele>
        <time>2020-08-03T12:56:30Z</time>
      </trkpt>
      <trkpt lat="47.47365" lon="-2.48494">
        <ele>20</ele>
        <time>2020-08-03T12:56:31Z</time>
      </trkpt>
      <trkpt lat="47.47365" lon="-2.48488">
        <ele>19.8</ele>
        <time>2020-08-03T12:56:32Z</time>
      </trkpt>
      <trkpt lat="47.47366" lon="-2.48483">
        <ele>19.8</ele>
        <time>2020-08-03T12:56:33Z</time>
      </trkpt>
      <trkpt lat="47.47367" lon="-2.48477">
        <ele>19.8</ele>
        <time>2020-08-03T12:56:34Z</time>
      </trkpt>
      <trkpt lat="47.47368" lon="-2.48472">
        <ele>19.8</ele>
        <time>2020-08-03T12:56:35Z</time>
      </trkpt>
      <trkpt lat="47.47368" lon="-2.48466">
        <ele>19.8</ele>
        <time>2020-08-03T12:56:36Z</time>
      </trkpt>
      <trkpt lat="47.47369" lon="-2.48461">
        <ele>19.6</ele>
        <time>2020-08-03T12:56:37Z</time>
      </trkpt>
      <trkpt lat="47.4737" lon="-2.48456">
        <ele>19.6</ele>
        <time>2020-08-03T12:56:38Z</time>
      </trkpt>
      <trkpt lat="47.4737" lon="-2.48451">
        <ele>19.6</ele>
        <time>2020-08-03T12:56:39Z</time>
      </trkpt>
      <trkpt lat="47.47371" lon="-2.48446">
        <ele>19.8</ele>
        <time>2020-08-03T12:56:40Z</time>
      </trkpt>
      <trkpt lat="47.47371" lon="-2.48441">
        <ele>19.6</ele>
        <time>2020-08-03T12:56:41Z</time>
      </trkpt>
      <trkpt lat="47.47371" lon="-2.48436">
        <ele>19.6</ele>
        <time>2020-08-03T12:56:42Z</time>
      </trkpt>
      <trkpt lat="47.4737" lon="-2.48432">
        <ele>19.6</ele>
        <time>2020-08-03T12:56:43Z</time>
      </trkpt>
      <trkpt lat="47.47369" lon="-2.48427">
        <ele>19.4</ele>
        <time>2020-08-03T12:56:44Z</time>
      </trkpt>
      <trkpt lat="47.47368" lon="-2.48423">
        <ele>19.4</ele>
        <time>2020-08-03T12:56:45Z</time>
      </trkpt>
      <trkpt lat="47.47365" lon="-2.48419">
        <ele>19.2</ele>
        <time>2020-08-03T12:56:46Z</time>
      </trkpt>
      <trkpt lat="47.47363" lon="-2.48416">
        <ele>19.2</ele>
        <time>2020-08-03T12:56:47Z</time>
      </trkpt>
      <trkpt lat="47.47359" lon="-2.48413">
        <ele>19.2</ele>
        <time>2020-08-03T12:56:48Z</time>
      </trkpt>
      <trkpt lat="47.47356" lon="-2.48412">
        <ele>19.2</ele>
        <time>2020-08-03T12:56:49Z</time>
      </trkpt>
      <trkpt lat="47.47352" lon="-2.4841">
        <ele>19.2</ele>
        <time>2020-08-03T12:56:50Z</time>
      </trkpt>
      <trkpt lat="47.47347" lon="-2.48409">
        <ele>19</ele>
        <time>2020-08-03T12:56:51Z</time>
      </trkpt>
      <trkpt lat="47.47343" lon="-2.48408">
        <ele>18.6</ele>
        <time>2020-08-03T12:56:52Z</time>
      </trkpt>
      <trkpt lat="47.47338" lon="-2.48407">
        <ele>18.6</ele>
        <time>2020-08-03T12:56:53Z</time>
      </trkpt>
      <trkpt lat="47.47333" lon="-2.48406">
        <ele>18.4</ele>
        <time>2020-08-03T12:56:54Z</time>
      </trkpt>
      <trkpt lat="47.47328" lon="-2.48405">
        <ele>18.4</ele>
        <time>2020-08-03T12:56:55Z</time>
      </trkpt>
      <trkpt lat="47.47324" lon="-2.48403">
        <ele>18.2</ele>
        <time>2020-08-03T12:56:56Z</time>
      </trkpt>
      <trkpt lat="47.47319" lon="-2.48403">
        <ele>18</ele>
        <time>2020-08-03T12:56:57Z</time>
      </trkpt>
      <trkpt lat="47.47314" lon="-2.48402">
        <ele>18</ele>
        <time>2020-08-03T12:56:58Z</time>
      </trkpt>
      <trkpt lat="47.47309" lon="-2.48401">
        <ele>17.8</ele>
        <time>2020-08-03T12:56:59Z</time>
      </trkpt>
      <trkpt lat="47.47304" lon="-2.484">
        <ele>17.4</ele>
        <time>2020-08-03T12:57:00Z</time>
      </trkpt>
      <trkpt lat="47.47298" lon="-2.48399">
        <ele>17.4</ele>
        <time>2020-08-03T12:57:01Z</time>
      </trkpt>
      <trkpt lat="47.47293" lon="-2.48397">
        <ele>17.2</ele>
        <time>2020-08-03T12:57:02Z</time>
      </trkpt>
      <trkpt lat="47.47287" lon="-2.48396">
        <ele>17.2</ele>
        <time>2020-08-03T12:57:03Z</time>
      </trkpt>
      <trkpt lat="47.47282" lon="-2.48394">
        <ele>17</ele>
        <time>2020-08-03T12:57:04Z</time>
      </trkpt>
      <trkpt lat="47.47276" lon="-2.48393">
        <ele>17</ele>
        <time>2020-08-03T12:57:05Z</time>
      </trkpt>
      <trkpt lat="47.47271" lon="-2.48392">
        <ele>17</ele>
        <time>2020-08-03T12:57:06Z</time>
      </trkpt>
      <trkpt lat="47.47266" lon="-2.48391">
        <ele>16.8</ele>
        <time>2020-08-03T12:57:07Z</time>
      </trkpt>
      <trkpt lat="47.47261" lon="-2.4839">
        <ele>16.6</ele>
        <time>2020-08-03T12:57:08Z</time>
      </trkpt>
      <trkpt lat="47.47255" lon="-2.48389">
        <ele>16.4</ele>
        <time>2020-08-03T12:57:09Z</time>
      </trkpt>
      <trkpt lat="47.4725" lon="-2.48388">
        <ele>16.2</ele>
        <time>2020-08-03T12:57:10Z</time>
      </trkpt>
      <trkpt lat="47.47245" lon="-2.48387">
        <ele>16.2</ele>
        <time>2020-08-03T12:57:11Z</time>
      </trkpt>
      <trkpt lat="47.4724" lon="-2.48386">
        <ele>16.2</ele>
        <time>2020-08-03T12:57:12Z</time>
      </trkpt>
      <trkpt lat="47.47234" lon="-2.48386">
        <ele>16</ele>
        <time>2020-08-03T12:57:13Z</time>
      </trkpt>
      <trkpt lat="47.47229" lon="-2.48386">
        <ele>15.8</ele>
        <time>2020-08-03T12:57:14Z</time>
      </trkpt>
      <trkpt lat="47.47223" lon="-2.48386">
        <ele>15.6</ele>
        <time>2020-08-03T12:57:15Z</time>
      </trkpt>
      <trkpt lat="47.47218" lon="-2.48386">
        <ele>15.4</ele>
        <time>2020-08-03T12:57:16Z</time>
      </trkpt>
      <trkpt lat="47.47212" lon="-2.48386">
        <ele>15.4</ele>
        <time>2020-08-03T12:57:17Z</time>
      </trkpt>
      <trkpt lat="47.47207" lon="-2.48387">
        <ele>15.2</ele>
        <time>2020-08-03T12:57:18Z</time>
      </trkpt>
      <trkpt lat="47.47201" lon="-2.48388">
        <ele>15</ele>
        <time>2020-08-03T12:57:19Z</time>
      </trkpt>
      <trkpt lat="47.47196" lon="-2.48389">
        <ele>14.8</ele>
        <time>2020-08-03T12:57:20Z</time>
      </trkpt>
      <trkpt lat="47.47191" lon="-2.48391">
        <ele>14.6</ele>
        <time>2020-08-03T12:57:21Z</time>
      </trkpt>
      <trkpt lat="47.47186" lon="-2.48393">
        <ele>14.6</ele>
        <time>2020-08-03T12:57:22Z</time>
      </trkpt>
      <trkpt lat="47.47181" lon="-2.48395">
        <ele>14.4</ele>
        <time>2020-08-03T12:57:23Z</time>
      </trkpt>
      <trkpt lat="47.47176" lon="-2.48398">
        <ele>14.6</ele>
        <time>2020-08-03T12:57:24Z</time>
      </trkpt>
      <trkpt lat="47.47172" lon="-2.484">
        <ele>14.6</ele>
        <time>2020-08-03T12:57:25Z</time>
      </trkpt>
      <trkpt lat="47.47167" lon="-2.48403">
        <ele>14.4</ele>
        <time>2020-08-03T12:57:26Z</time>
      </trkpt>
      <trkpt lat="47.47163" lon="-2.48405">
        <ele>14.4</ele>
        <time>2020-08-03T12:57:27Z</time>
      </trkpt>
      <trkpt lat="47.47158" lon="-2.48408">
        <ele>14.2</ele>
        <time>2020-08-03T12:57:28Z</time>
      </trkpt>
      <trkpt lat="47.47153" lon="-2.48412">
        <ele>14.2</ele>
        <time>2020-08-03T12:57:29Z</time>
      </trkpt>
      <trkpt lat="47.47149" lon="-2.48415">
        <ele>14</ele>
        <time>2020-08-03T12:57:30Z</time>
      </trkpt>
      <trkpt lat="47.47144" lon="-2.48419">
        <ele>13.8</ele>
        <time>2020-08-03T12:57:31Z</time>
      </trkpt>
      <trkpt lat="47.4714" lon="-2.48423">
        <ele>13.8</ele>
        <time>2020-08-03T12:57:32Z</time>
      </trkpt>
      <trkpt lat="47.47136" lon="-2.48427">
        <ele>14</ele>
        <time>2020-08-03T12:57:33Z</time>
      </trkpt>
      <trkpt lat="47.47132" lon="-2.48431">
        <ele>14</ele>
        <time>2020-08-03T12:57:34Z</time>
      </trkpt>
      <trkpt lat="47.47128" lon="-2.48435">
        <ele>14.2</ele>
        <time>2020-08-03T12:57:35Z</time>
      </trkpt>
      <trkpt lat="47.47124" lon="-2.48439">
        <ele>14</ele>
        <time>2020-08-03T12:57:36Z</time>
      </trkpt>
      <trkpt lat="47.47121" lon="-2.48443">
        <ele>13.8</ele>
        <time>2020-08-03T12:57:37Z</time>
      </trkpt>
      <trkpt lat="47.47117" lon="-2.48446">
        <ele>14</ele>
        <time>2020-08-03T12:57:38Z</time>
      </trkpt>
      <trkpt lat="47.47113" lon="-2.4845">
        <ele>14.2</ele>
        <time>2020-08-03T12:57:39Z</time>
      </trkpt>
      <trkpt lat="47.47109" lon="-2.48453">
        <ele>14.2</ele>
        <time>2020-08-03T12:57:40Z</time>
      </trkpt>
      <trkpt lat="47.47105" lon="-2.48457">
        <ele>14.2</ele>
        <time>2020-08-03T12:57:41Z</time>
      </trkpt>
      <trkpt lat="47.47102" lon="-2.48461">
        <ele>14.2</ele>
        <time>2020-08-03T12:57:42Z</time>
      </trkpt>
      <trkpt lat="47.47098" lon="-2.48465">
        <ele>14.2</ele>
        <time>2020-08-03T12:57:43Z</time>
      </trkpt>
      <trkpt lat="47.47095" lon="-2.48469">
        <ele>14.4</ele>
        <time>2020-08-03T12:57:44Z</time>
      </trkpt>
      <trkpt lat="47.47091" lon="-2.48472">
        <ele>14.6</ele>
        <time>2020-08-03T12:57:45Z</time>
      </trkpt>
      <trkpt lat="47.47087" lon="-2.48476">
        <ele>14.6</ele>
        <time>2020-08-03T12:57:46Z</time>
      </trkpt>
      <trkpt lat="47.47083" lon="-2.48479">
        <ele>14.4</ele>
        <time>2020-08-03T12:57:47Z</time>
      </trkpt>
      <trkpt lat="47.4708" lon="-2.48484">
        <ele>14.4</ele>
        <time>2020-08-03T12:57:48Z</time>
      </trkpt>
      <trkpt lat="47.47076" lon="-2.48488">
        <ele>14.4</ele>
        <time>2020-08-03T12:57:49Z</time>
      </trkpt>
      <trkpt lat="47.47072" lon="-2.48491">
        <ele>14.4</ele>
        <time>2020-08-03T12:57:50Z</time>
      </trkpt>
      <trkpt lat="47.47068" lon="-2.48495">
        <ele>14.4</ele>
        <time>2020-08-03T12:57:51Z</time>
      </trkpt>
      <trkpt lat="47.47065" lon="-2.48499">
        <ele>14.4</ele>
        <time>2020-08-03T12:57:52Z</time>
      </trkpt>
      <trkpt lat="47.47061" lon="-2.48502">
        <ele>14.6</ele>
        <time>2020-08-03T12:57:53Z</time>
      </trkpt>
      <trkpt lat="47.47058" lon="-2.48506">
        <ele>14.8</ele>
        <time>2020-08-03T12:57:54Z</time>
      </trkpt>
      <trkpt lat="47.47055" lon="-2.48509">
        <ele>14.8</ele>
        <time>2020-08-03T12:57:55Z</time>
      </trkpt>
      <trkpt lat="47.47052" lon="-2.48512">
        <ele>15</ele>
        <time>2020-08-03T12:57:56Z</time>
      </trkpt>
      <trkpt lat="47.47048" lon="-2.48515">
        <ele>15</ele>
        <time>2020-08-03T12:57:57Z</time>
      </trkpt>
      <trkpt lat="47.47045" lon="-2.48519">
        <ele>15</ele>
        <time>2020-08-03T12:57:58Z</time>
      </trkpt>
      <trkpt lat="47.47042" lon="-2.48522">
        <ele>15</ele>
        <time>2020-08-03T12:57:59Z</time>
      </trkpt>
      <trkpt lat="47.47039" lon="-2.48525">
        <ele>14.8</ele>
        <time>2020-08-03T12:58:00Z</time>
      </trkpt>
      <trkpt lat="47.47036" lon="-2.48528">
        <ele>14.8</ele>
        <time>2020-08-03T12:58:01Z</time>
      </trkpt>
      <trkpt lat="47.47033" lon="-2.48532">
        <ele>14.8</ele>
        <time>2020-08-03T12:58:02Z</time>
      </trkpt>
      <trkpt lat="47.4703" lon="-2.48535">
        <ele>15</ele>
        <time>2020-08-03T12:58:03Z</time>
      </trkpt>
      <trkpt lat="47.47027" lon="-2.48538">
        <ele>15.2</ele>
        <time>2020-08-03T12:58:04Z</time>
      </trkpt>
      <trkpt lat="47.47024" lon="-2.48541">
        <ele>15.4</ele>
        <time>2020-08-03T12:58:05Z</time>
      </trkpt>
      <trkpt lat="47.47021" lon="-2.48544">
        <ele>15.6</ele>
        <time>2020-08-03T12:58:06Z</time>
      </trkpt>
      <trkpt lat="47.47017" lon="-2.48547">
        <ele>15.4</ele>
        <time>2020-08-03T12:58:07Z</time>
      </trkpt>
      <trkpt lat="47.47014" lon="-2.4855">
        <ele>15.2</ele>
        <time>2020-08-03T12:58:08Z</time>
      </trkpt>
      <trkpt lat="47.47011" lon="-2.48552">
        <ele>15.2</ele>
        <time>2020-08-03T12:58:09Z</time>
      </trkpt>
      <trkpt lat="47.47008" lon="-2.48555">
        <ele>15</ele>
        <time>2020-08-03T12:58:10Z</time>
      </trkpt>
      <trkpt lat="47.47005" lon="-2.48559">
        <ele>15.2</ele>
        <time>2020-08-03T12:58:11Z</time>
      </trkpt>
      <trkpt lat="47.47002" lon="-2.48563">
        <ele>15.2</ele>
        <time>2020-08-03T12:58:12Z</time>
      </trkpt>
      <trkpt lat="47.46999" lon="-2.48566">
        <ele>15.4</ele>
        <time>2020-08-03T12:58:13Z</time>
      </trkpt>
      <trkpt lat="47.46995" lon="-2.48569">
        <ele>15.2</ele>
        <time>2020-08-03T12:58:14Z</time>
      </trkpt>
      <trkpt lat="47.46992" lon="-2.48573">
        <ele>15.2</ele>
        <time>2020-08-03T12:58:15Z</time>
      </trkpt>
      <trkpt lat="47.46988" lon="-2.48577">
        <ele>15</ele>
        <time>2020-08-03T12:58:16Z</time>
      </trkpt>
      <trkpt lat="47.46985" lon="-2.4858">
        <ele>15</ele>
        <time>2020-08-03T12:58:17Z</time>
      </trkpt>
      <trkpt lat="47.46981" lon="-2.48584">
        <ele>15.2</ele>
        <time>2020-08-03T12:58:18Z</time>
      </trkpt>
      <trkpt lat="47.46978" lon="-2.48588">
        <ele>15.2</ele>
        <time>2020-08-03T12:58:19Z</time>
      </trkpt>
      <trkpt lat="47.46974" lon="-2.48592">
        <ele>15.4</ele>
        <time>2020-08-03T12:58:20Z</time>
      </trkpt>
      <trkpt lat="47.4697" lon="-2.48596">
        <ele>15.4</ele>
        <time>2020-08-03T12:58:21Z</time>
      </trkpt>
      <trkpt lat="47.46966" lon="-2.486">
        <ele>15.4</ele>
        <time>2020-08-03T12:58:22Z</time>
      </trkpt>
      <trkpt lat="47.46962" lon="-2.48605">
        <ele>15.2</ele>
        <time>2020-08-03T12:58:23Z</time>
      </trkpt>
      <trkpt lat="47.46958" lon="-2.48609">
        <ele>15.2</ele>
        <time>2020-08-03T12:58:24Z</time>
      </trkpt>
      <trkpt lat="47.46954" lon="-2.48613">
        <ele>15.2</ele>
        <time>2020-08-03T12:58:25Z</time>
      </trkpt>
      <trkpt lat="47.4695" lon="-2.48617">
        <ele>15</ele>
        <time>2020-08-03T12:58:26Z</time>
      </trkpt>
      <trkpt lat="47.46945" lon="-2.48622">
        <ele>15</ele>
        <time>2020-08-03T12:58:27Z</time>
      </trkpt>
      <trkpt lat="47.46941" lon="-2.48626">
        <ele>14.8</ele>
        <time>2020-08-03T12:58:28Z</time>
      </trkpt>
      <trkpt lat="47.46937" lon="-2.4863">
        <ele>14.6</ele>
        <time>2020-08-03T12:58:29Z</time>
      </trkpt>
      <trkpt lat="47.46933" lon="-2.48634">
        <ele>14.4</ele>
        <time>2020-08-03T12:58:30Z</time>
      </trkpt>
      <trkpt lat="47.46929" lon="-2.48639">
        <ele>14.2</ele>
        <time>2020-08-03T12:58:31Z</time>
      </trkpt>
      <trkpt lat="47.46925" lon="-2.48643">
        <ele>14</ele>
        <time>2020-08-03T12:58:32Z</time>
      </trkpt>
      <trkpt lat="47.4692" lon="-2.48647">
        <ele>14</ele>
        <time>2020-08-03T12:58:33Z</time>
      </trkpt>
      <trkpt lat="47.46916" lon="-2.48652">
        <ele>14.2</ele>
        <time>2020-08-03T12:58:34Z</time>
      </trkpt>
      <trkpt lat="47.46912" lon="-2.48656">
        <ele>13.8</ele>
        <time>2020-08-03T12:58:35Z</time>
      </trkpt>
      <trkpt lat="47.46908" lon="-2.4866">
        <ele>13.8</ele>
        <time>2020-08-03T12:58:36Z</time>
      </trkpt>
      <trkpt lat="47.46904" lon="-2.48665">
        <ele>13.8</ele>
        <time>2020-08-03T12:58:37Z</time>
      </trkpt>
      <trkpt lat="47.469" lon="-2.48669">
        <ele>13.8</ele>
        <time>2020-08-03T12:58:38Z</time>
      </trkpt>
      <trkpt lat="47.46896" lon="-2.48674">
        <ele>13.8</ele>
        <time>2020-08-03T12:58:39Z</time>
      </trkpt>
      <trkpt lat="47.46892" lon="-2.48678">
        <ele>13.6</ele>
        <time>2020-08-03T12:58:40Z</time>
      </trkpt>
      <trkpt lat="47.46888" lon="-2.48683">
        <ele>13.6</ele>
        <time>2020-08-03T12:58:41Z</time>
      </trkpt>
      <trkpt lat="47.46884" lon="-2.48688">
        <ele>13.4</ele>
        <time>2020-08-03T12:58:42Z</time>
      </trkpt>
      <trkpt lat="47.4688" lon="-2.48692">
        <ele>13.4</ele>
        <time>2020-08-03T12:58:43Z</time>
      </trkpt>
      <trkpt lat="47.46875" lon="-2.48697">
        <ele>13.2</ele>
        <time>2020-08-03T12:58:44Z</time>
      </trkpt>
      <trkpt lat="47.46871" lon="-2.48702">
        <ele>13</ele>
        <time>2020-08-03T12:58:45Z</time>
      </trkpt>
      <trkpt lat="47.46867" lon="-2.48706">
        <ele>13</ele>
        <time>2020-08-03T12:58:46Z</time>
      </trkpt>
      <trkpt lat="47.46862" lon="-2.48709">
        <ele>12.8</ele>
        <time>2020-08-03T12:58:47Z</time>
      </trkpt>
      <trkpt lat="47.46857" lon="-2.48712">
        <ele>12.6</ele>
        <time>2020-08-03T12:58:48Z</time>
      </trkpt>
      <trkpt lat="47.46853" lon="-2.48716">
        <ele>12.6</ele>
        <time>2020-08-03T12:58:49Z</time>
      </trkpt>
      <trkpt lat="47.46848" lon="-2.48719">
        <ele>12.6</ele>
        <time>2020-08-03T12:58:50Z</time>
      </trkpt>
      <trkpt lat="47.46844" lon="-2.48722">
        <ele>12.6</ele>
        <time>2020-08-03T12:58:51Z</time>
      </trkpt>
      <trkpt lat="47.46839" lon="-2.48726">
        <ele>12.4</ele>
        <time>2020-08-03T12:58:52Z</time>
      </trkpt>
      <trkpt lat="47.46834" lon="-2.4873">
        <ele>12.4</ele>
        <time>2020-08-03T12:58:53Z</time>
      </trkpt>
      <trkpt lat="47.46829" lon="-2.48734">
        <ele>12.4</ele>
        <time>2020-08-03T12:58:54Z</time>
      </trkpt>
      <trkpt lat="47.46824" lon="-2.48738">
        <ele>12.4</ele>
        <time>2020-08-03T12:58:55Z</time>
      </trkpt>
      <trkpt lat="47.4682" lon="-2.48742">
        <ele>12.2</ele>
        <time>2020-08-03T12:58:56Z</time>
      </trkpt>
      <trkpt lat="47.46815" lon="-2.48746">
        <ele>12.2</ele>
        <time>2020-08-03T12:58:57Z</time>
      </trkpt>
      <trkpt lat="47.4681" lon="-2.48749">
        <ele>12.2</ele>
        <time>2020-08-03T12:58:58Z</time>
      </trkpt>
      <trkpt lat="47.46805" lon="-2.48753">
        <ele>12</ele>
        <time>2020-08-03T12:58:59Z</time>
      </trkpt>
      <trkpt lat="47.468" lon="-2.48757">
        <ele>12</ele>
        <time>2020-08-03T12:59:00Z</time>
      </trkpt>
      <trkpt lat="47.46796" lon="-2.48761">
        <ele>11.8</ele>
        <time>2020-08-03T12:59:01Z</time>
      </trkpt>
      <trkpt lat="47.46791" lon="-2.48765">
        <ele>12</ele>
        <time>2020-08-03T12:59:02Z</time>
      </trkpt>
      <trkpt lat="47.46786" lon="-2.48769">
        <ele>12</ele>
        <time>2020-08-03T12:59:03Z</time>
      </trkpt>
      <trkpt lat="47.46782" lon="-2.48773">
        <ele>12</ele>
        <time>2020-08-03T12:59:04Z</time>
      </trkpt>
      <trkpt lat="47.46777" lon="-2.48777">
        <ele>11.8</ele>
        <time>2020-08-03T12:59:05Z</time>
      </trkpt>
      <trkpt lat="47.46772" lon="-2.48781">
        <ele>11.8</ele>
        <time>2020-08-03T12:59:06Z</time>
      </trkpt>
      <trkpt lat="47.46767" lon="-2.48784">
        <ele>11.6</ele>
        <time>2020-08-03T12:59:07Z</time>
      </trkpt>
      <trkpt lat="47.46763" lon="-2.48788">
        <ele>11.6</ele>
        <time>2020-08-03T12:59:08Z</time>
      </trkpt>
      <trkpt lat="47.46758" lon="-2.48791">
        <ele>11.6</ele>
        <time>2020-08-03T12:59:09Z</time>
      </trkpt>
      <trkpt lat="47.46753" lon="-2.48795">
        <ele>11.6</ele>
        <time>2020-08-03T12:59:10Z</time>
      </trkpt>
      <trkpt lat="47.46749" lon="-2.48799">
        <ele>11.4</ele>
        <time>2020-08-03T12:59:11Z</time>
      </trkpt>
      <trkpt lat="47.46746" lon="-2.48804">
        <ele>11.4</ele>
        <time>2020-08-03T12:59:12Z</time>
      </trkpt>
      <trkpt lat="47.46743" lon="-2.48811">
        <ele>11.2</ele>
        <time>2020-08-03T12:59:13Z</time>
      </trkpt>
      <trkpt lat="47.46742" lon="-2.48817">
        <ele>11</ele>
        <time>2020-08-03T12:59:14Z</time>
      </trkpt>
      <trkpt lat="47.46741" lon="-2.48823">
        <ele>10.6</ele>
        <time>2020-08-03T12:59:15Z</time>
      </trkpt>
      <trkpt lat="47.46739" lon="-2.4883">
        <ele>10.6</ele>
        <time>2020-08-03T12:59:16Z</time>
      </trkpt>
      <trkpt lat="47.46738" lon="-2.48835">
        <ele>10.4</ele>
        <time>2020-08-03T12:59:17Z</time>
      </trkpt>
      <trkpt lat="47.46735" lon="-2.48839">
        <ele>10.6</ele>
        <time>2020-08-03T12:59:18Z</time>
      </trkpt>
      <trkpt lat="47.46732" lon="-2.48843">
        <ele>10.6</ele>
        <time>2020-08-03T12:59:19Z</time>
      </trkpt>
      <trkpt lat="47.4673" lon="-2.48845">
        <ele>10.4</ele>
        <time>2020-08-03T12:59:20Z</time>
      </trkpt>
      <trkpt lat="47.46727" lon="-2.48847">
        <ele>10.4</ele>
        <time>2020-08-03T12:59:21Z</time>
      </trkpt>
      <trkpt lat="47.46724" lon="-2.48849">
        <ele>10.4</ele>
        <time>2020-08-03T12:59:22Z</time>
      </trkpt>
      <trkpt lat="47.46721" lon="-2.48851">
        <ele>10.6</ele>
        <time>2020-08-03T12:59:23Z</time>
      </trkpt>
      <trkpt lat="47.46719" lon="-2.48853">
        <ele>10.8</ele>
        <time>2020-08-03T12:59:24Z</time>
      </trkpt>
      <trkpt lat="47.46716" lon="-2.48856">
        <ele>11</ele>
        <time>2020-08-03T12:59:25Z</time>
      </trkpt>
      <trkpt lat="47.46713" lon="-2.48858">
        <ele>11</ele>
        <time>2020-08-03T12:59:26Z</time>
      </trkpt>
      <trkpt lat="47.46711" lon="-2.4886">
        <ele>10.8</ele>
        <time>2020-08-03T12:59:27Z</time>
      </trkpt>
      <trkpt lat="47.46708" lon="-2.48862">
        <ele>10.6</ele>
        <time>2020-08-03T12:59:28Z</time>
      </trkpt>
      <trkpt lat="47.46705" lon="-2.48864">
        <ele>11</ele>
        <time>2020-08-03T12:59:29Z</time>
      </trkpt>
      <trkpt lat="47.46702" lon="-2.48866">
        <ele>11</ele>
        <time>2020-08-03T12:59:30Z</time>
      </trkpt>
      <trkpt lat="47.46699" lon="-2.48869">
        <ele>11</ele>
        <time>2020-08-03T12:59:31Z</time>
      </trkpt>
      <trkpt lat="47.46696" lon="-2.48871">
        <ele>11.2</ele>
        <time>2020-08-03T12:59:32Z</time>
      </trkpt>
      <trkpt lat="47.46693" lon="-2.48874">
        <ele>11.2</ele>
        <time>2020-08-03T12:59:33Z</time>
      </trkpt>
      <trkpt lat="47.4669" lon="-2.48875">
        <ele>11.4</ele>
        <time>2020-08-03T12:59:34Z</time>
      </trkpt>
      <trkpt lat="47.46687" lon="-2.48877">
        <ele>11.6</ele>
        <time>2020-08-03T12:59:35Z</time>
      </trkpt>
      <trkpt lat="47.46684" lon="-2.48878">
        <ele>11.6</ele>
        <time>2020-08-03T12:59:36Z</time>
      </trkpt>
      <trkpt lat="47.46681" lon="-2.48878">
        <ele>11.4</ele>
        <time>2020-08-03T12:59:37Z</time>
      </trkpt>
      <trkpt lat="47.46678" lon="-2.48879">
        <ele>11.6</ele>
        <time>2020-08-03T12:59:38Z</time>
      </trkpt>
      <trkpt lat="47.46675" lon="-2.48879">
        <ele>11.6</ele>
        <time>2020-08-03T12:59:39Z</time>
      </trkpt>
      <trkpt lat="47.46672" lon="-2.48879">
        <ele>11.6</ele>
        <time>2020-08-03T12:59:40Z</time>
      </trkpt>
      <trkpt lat="47.46668" lon="-2.48879">
        <ele>11.6</ele>
        <time>2020-08-03T12:59:41Z</time>
      </trkpt>
      <trkpt lat="47.46665" lon="-2.48878">
        <ele>11.6</ele>
        <time>2020-08-03T12:59:42Z</time>
      </trkpt>
      <trkpt lat="47.46661" lon="-2.48877">
        <ele>11.8</ele>
        <time>2020-08-03T12:59:43Z</time>
      </trkpt>
      <trkpt lat="47.46658" lon="-2.48876">
        <ele>11.8</ele>
        <time>2020-08-03T12:59:44Z</time>
      </trkpt>
      <trkpt lat="47.46654" lon="-2.48875">
        <ele>11.8</ele>
        <time>2020-08-03T12:59:45Z</time>
      </trkpt>
      <trkpt lat="47.46651" lon="-2.48873">
        <ele>11.8</ele>
        <time>2020-08-03T12:59:46Z</time>
      </trkpt>
      <trkpt lat="47.46647" lon="-2.48872">
        <ele>11.8</ele>
        <time>2020-08-03T12:59:47Z</time>
      </trkpt>
      <trkpt lat="47.46644" lon="-2.48871">
        <ele>11.8</ele>
        <time>2020-08-03T12:59:48Z</time>
      </trkpt>
      <trkpt lat="47.4664" lon="-2.4887">
        <ele>11.8</ele>
        <time>2020-08-03T12:59:49Z</time>
      </trkpt>
      <trkpt lat="47.46637" lon="-2.48868">
        <ele>12</ele>
        <time>2020-08-03T12:59:50Z</time>
      </trkpt>
      <trkpt lat="47.46634" lon="-2.48867">
        <ele>12</ele>
        <time>2020-08-03T12:59:51Z</time>
      </trkpt>
      <trkpt lat="47.4663" lon="-2.48865">
        <ele>12.2</ele>
        <time>2020-08-03T12:59:52Z</time>
      </trkpt>
      <trkpt lat="47.46626" lon="-2.48863">
        <ele>12.2</ele>
        <time>2020-08-03T12:59:53Z</time>
      </trkpt>
      <trkpt lat="47.46622" lon="-2.48861">
        <ele>12.2</ele>
        <time>2020-08-03T12:59:54Z</time>
      </trkpt>
      <trkpt lat="47.46618" lon="-2.4886">
        <ele>12.4</ele>
        <time>2020-08-03T12:59:55Z</time>
      </trkpt>
      <trkpt lat="47.46614" lon="-2.48858">
        <ele>12.4</ele>
        <time>2020-08-03T12:59:56Z</time>
      </trkpt>
      <trkpt lat="47.4661" lon="-2.48856">
        <ele>12.6</ele>
        <time>2020-08-03T12:59:57Z</time>
      </trkpt>
      <trkpt lat="47.46607" lon="-2.48855">
        <ele>12.6</ele>
        <time>2020-08-03T12:59:58Z</time>
      </trkpt>
      <trkpt lat="47.46603" lon="-2.48854">
        <ele>12.6</ele>
        <time>2020-08-03T12:59:59Z</time>
      </trkpt>
      <trkpt lat="47.46599" lon="-2.48852">
        <ele>12.8</ele>
        <time>2020-08-03T13:00:00Z</time>
      </trkpt>
      <trkpt lat="47.46595" lon="-2.4885">
        <ele>12.8</ele>
        <time>2020-08-03T13:00:01Z</time>
      </trkpt>
      <trkpt lat="47.46592" lon="-2.48848">
        <ele>13</ele>
        <time>2020-08-03T13:00:02Z</time>
      </trkpt>
      <trkpt lat="47.46587" lon="-2.48847">
        <ele>13</ele>
        <time>2020-08-03T13:00:03Z</time>
      </trkpt>
      <trkpt lat="47.46583" lon="-2.48845">
        <ele>13.2</ele>
        <time>2020-08-03T13:00:04Z</time>
      </trkpt>
      <trkpt lat="47.4658" lon="-2.48843">
        <ele>13.2</ele>
        <time>2020-08-03T13:00:05Z</time>
      </trkpt>
      <trkpt lat="47.46576" lon="-2.48841">
        <ele>13.4</ele>
        <time>2020-08-03T13:00:06Z</time>
      </trkpt>
      <trkpt lat="47.46572" lon="-2.48839">
        <ele>13.4</ele>
        <time>2020-08-03T13:00:07Z</time>
      </trkpt>
      <trkpt lat="47.46568" lon="-2.48837">
        <ele>13.6</ele>
        <time>2020-08-03T13:00:08Z</time>
      </trkpt>
      <trkpt lat="47.46565" lon="-2.48835">
        <ele>13.8</ele>
        <time>2020-08-03T13:00:09Z</time>
      </trkpt>
      <trkpt lat="47.46561" lon="-2.48832">
        <ele>14</ele>
        <time>2020-08-03T13:00:10Z</time>
      </trkpt>
      <trkpt lat="47.46558" lon="-2.48829">
        <ele>14</ele>
        <time>2020-08-03T13:00:11Z</time>
      </trkpt>
      <trkpt lat="47.46555" lon="-2.48826">
        <ele>14.2</ele>
        <time>2020-08-03T13:00:12Z</time>
      </trkpt>
      <trkpt lat="47.46552" lon="-2.48823">
        <ele>14.2</ele>
        <time>2020-08-03T13:00:13Z</time>
      </trkpt>
      <trkpt lat="47.46548" lon="-2.48821">
        <ele>14.6</ele>
        <time>2020-08-03T13:00:14Z</time>
      </trkpt>
      <trkpt lat="47.46546" lon="-2.48817">
        <ele>14.6</ele>
        <time>2020-08-03T13:00:15Z</time>
      </trkpt>
      <trkpt lat="47.46543" lon="-2.48814">
        <ele>14.6</ele>
        <time>2020-08-03T13:00:16Z</time>
      </trkpt>
      <trkpt lat="47.46541" lon="-2.4881">
        <ele>14.6</ele>
        <time>2020-08-03T13:00:17Z</time>
      </trkpt>
      <trkpt lat="47.46538" lon="-2.48806">
        <ele>14.8</ele>
        <time>2020-08-03T13:00:18Z</time>
      </trkpt>
      <trkpt lat="47.46536" lon="-2.48803">
        <ele>14.8</ele>
        <time>2020-08-03T13:00:19Z</time>
      </trkpt>
      <trkpt lat="47.46533" lon="-2.48799">
        <ele>15</ele>
        <time>2020-08-03T13:00:20Z</time>
      </trkpt>
      <trkpt lat="47.46531" lon="-2.48795">
        <ele>15</ele>
        <time>2020-08-03T13:00:21Z</time>
      </trkpt>
      <trkpt lat="47.46529" lon="-2.4879">
        <ele>15.2</ele>
        <time>2020-08-03T13:00:22Z</time>
      </trkpt>
      <trkpt lat="47.46527" lon="-2.48787">
        <ele>15</ele>
        <time>2020-08-03T13:00:23Z</time>
      </trkpt>
      <trkpt lat="47.46525" lon="-2.48782">
        <ele>15</ele>
        <time>2020-08-03T13:00:24Z</time>
      </trkpt>
      <trkpt lat="47.46524" lon="-2.48778">
        <ele>15.2</ele>
        <time>2020-08-03T13:00:25Z</time>
      </trkpt>
      <trkpt lat="47.46522" lon="-2.48773">
        <ele>15.4</ele>
        <time>2020-08-03T13:00:26Z</time>
      </trkpt>
      <trkpt lat="47.4652" lon="-2.48769">
        <ele>15.4</ele>
        <time>2020-08-03T13:00:27Z</time>
      </trkpt>
      <trkpt lat="47.46517" lon="-2.48765">
        <ele>15.4</ele>
        <time>2020-08-03T13:00:28Z</time>
      </trkpt>
      <trkpt lat="47.46515" lon="-2.48761">
        <ele>15.4</ele>
        <time>2020-08-03T13:00:29Z</time>
      </trkpt>
      <trkpt lat="47.46512" lon="-2.48757">
        <ele>15.6</ele>
        <time>2020-08-03T13:00:30Z</time>
      </trkpt>
      <trkpt lat="47.4651" lon="-2.48753">
        <ele>15.6</ele>
        <time>2020-08-03T13:00:31Z</time>
      </trkpt>
      <trkpt lat="47.46508" lon="-2.48749">
        <ele>15.8</ele>
        <time>2020-08-03T13:00:32Z</time>
      </trkpt>
      <trkpt lat="47.46505" lon="-2.48746">
        <ele>15.8</ele>
        <time>2020-08-03T13:00:33Z</time>
      </trkpt>
      <trkpt lat="47.46503" lon="-2.48742">
        <ele>16</ele>
        <time>2020-08-03T13:00:34Z</time>
      </trkpt>
      <trkpt lat="47.46501" lon="-2.48738">
        <ele>16</ele>
        <time>2020-08-03T13:00:35Z</time>
      </trkpt>
      <trkpt lat="47.46499" lon="-2.48733">
        <ele>16.2</ele>
        <time>2020-08-03T13:00:36Z</time>
      </trkpt>
      <trkpt lat="47.46496" lon="-2.48728">
        <ele>16.2</ele>
        <time>2020-08-03T13:00:37Z</time>
      </trkpt>
      <trkpt lat="47.46494" lon="-2.48724">
        <ele>16.2</ele>
        <time>2020-08-03T13:00:38Z</time>
      </trkpt>
      <trkpt lat="47.46492" lon="-2.48719">
        <ele>16.4</ele>
        <time>2020-08-03T13:00:39Z</time>
      </trkpt>
      <trkpt lat="47.46489" lon="-2.48715">
        <ele>16.4</ele>
        <time>2020-08-03T13:00:40Z</time>
      </trkpt>
      <trkpt lat="47.46487" lon="-2.4871">
        <ele>16.4</ele>
        <time>2020-08-03T13:00:41Z</time>
      </trkpt>
      <trkpt lat="47.46486" lon="-2.48705">
        <ele>16.4</ele>
        <time>2020-08-03T13:00:42Z</time>
      </trkpt>
      <trkpt lat="47.46484" lon="-2.48699">
        <ele>16.6</ele>
        <time>2020-08-03T13:00:43Z</time>
      </trkpt>
      <trkpt lat="47.46482" lon="-2.48694">
        <ele>16.6</ele>
        <time>2020-08-03T13:00:44Z</time>
      </trkpt>
      <trkpt lat="47.4648" lon="-2.48689">
        <ele>16.6</ele>
        <time>2020-08-03T13:00:45Z</time>
      </trkpt>
      <trkpt lat="47.46479" lon="-2.48683">
        <ele>16.6</ele>
        <time>2020-08-03T13:00:46Z</time>
      </trkpt>
      <trkpt lat="47.46477" lon="-2.48678">
        <ele>16.6</ele>
        <time>2020-08-03T13:00:47Z</time>
      </trkpt>
      <trkpt lat="47.46476" lon="-2.48672">
        <ele>16.8</ele>
        <time>2020-08-03T13:00:48Z</time>
      </trkpt>
      <trkpt lat="47.46474" lon="-2.48667">
        <ele>16.8</ele>
        <time>2020-08-03T13:00:49Z</time>
      </trkpt>
      <trkpt lat="47.46473" lon="-2.48661">
        <ele>16.8</ele>
        <time>2020-08-03T13:00:50Z</time>
      </trkpt>
      <trkpt lat="47.46471" lon="-2.48656">
        <ele>16.8</ele>
        <time>2020-08-03T13:00:51Z</time>
      </trkpt>
      <trkpt lat="47.46469" lon="-2.4865">
        <ele>16.8</ele>
        <time>2020-08-03T13:00:52Z</time>
      </trkpt>
      <trkpt lat="47.46468" lon="-2.48644">
        <ele>16.6</ele>
        <time>2020-08-03T13:00:53Z</time>
      </trkpt>
      <trkpt lat="47.46466" lon="-2.48639">
        <ele>16.8</ele>
        <time>2020-08-03T13:00:54Z</time>
      </trkpt>
      <trkpt lat="47.46465" lon="-2.48633">
        <ele>16.8</ele>
        <time>2020-08-03T13:00:55Z</time>
      </trkpt>
      <trkpt lat="47.46463" lon="-2.48628">
        <ele>17</ele>
        <time>2020-08-03T13:00:56Z</time>
      </trkpt>
      <trkpt lat="47.46461" lon="-2.48622">
        <ele>16.8</ele>
        <time>2020-08-03T13:00:57Z</time>
      </trkpt>
      <trkpt lat="47.46459" lon="-2.48616">
        <ele>16.8</ele>
        <time>2020-08-03T13:00:58Z</time>
      </trkpt>
      <trkpt lat="47.46457" lon="-2.4861">
        <ele>16.8</ele>
        <time>2020-08-03T13:00:59Z</time>
      </trkpt>
      <trkpt lat="47.46455" lon="-2.48604">
        <ele>17</ele>
        <time>2020-08-03T13:01:00Z</time>
      </trkpt>
      <trkpt lat="47.46453" lon="-2.48598">
        <ele>16.8</ele>
        <time>2020-08-03T13:01:01Z</time>
      </trkpt>
      <trkpt lat="47.46452" lon="-2.48592">
        <ele>16.8</ele>
        <time>2020-08-03T13:01:02Z</time>
      </trkpt>
      <trkpt lat="47.4645" lon="-2.48586">
        <ele>17</ele>
        <time>2020-08-03T13:01:03Z</time>
      </trkpt>
      <trkpt lat="47.46448" lon="-2.4858">
        <ele>17</ele>
        <time>2020-08-03T13:01:04Z</time>
      </trkpt>
      <trkpt lat="47.46446" lon="-2.48574">
        <ele>17</ele>
        <time>2020-08-03T13:01:05Z</time>
      </trkpt>
      <trkpt lat="47.46444" lon="-2.48568">
        <ele>17</ele>
        <time>2020-08-03T13:01:06Z</time>
      </trkpt>
      <trkpt lat="47.46442" lon="-2.48562">
        <ele>16.8</ele>
        <time>2020-08-03T13:01:07Z</time>
      </trkpt>
      <trkpt lat="47.4644" lon="-2.48556">
        <ele>16.8</ele>
        <time>2020-08-03T13:01:08Z</time>
      </trkpt>
      <trkpt lat="47.46437" lon="-2.48553">
        <ele>16.8</ele>
        <time>2020-08-03T13:01:09Z</time>
      </trkpt>
      <trkpt lat="47.46432" lon="-2.48551">
        <ele>16.8</ele>
        <time>2020-08-03T13:01:10Z</time>
      </trkpt>
      <trkpt lat="47.46428" lon="-2.48552">
        <ele>16.8</ele>
        <time>2020-08-03T13:01:11Z</time>
      </trkpt>
      <trkpt lat="47.46425" lon="-2.48556">
        <ele>16.6</ele>
        <time>2020-08-03T13:01:12Z</time>
      </trkpt>
      <trkpt lat="47.46422" lon="-2.4856">
        <ele>16.6</ele>
        <time>2020-08-03T13:01:13Z</time>
      </trkpt>
      <trkpt lat="47.46421" lon="-2.48565">
        <ele>16.4</ele>
        <time>2020-08-03T13:01:14Z</time>
      </trkpt>
      <trkpt lat="47.46419" lon="-2.4857">
        <ele>16.4</ele>
        <time>2020-08-03T13:01:15Z</time>
      </trkpt>
      <trkpt lat="47.46418" lon="-2.48574">
        <ele>16.4</ele>
        <time>2020-08-03T13:01:16Z</time>
      </trkpt>
      <trkpt lat="47.46417" lon="-2.48579">
        <ele>16.6</ele>
        <time>2020-08-03T13:01:17Z</time>
      </trkpt>
      <trkpt lat="47.46416" lon="-2.48583">
        <ele>16.6</ele>
        <time>2020-08-03T13:01:18Z</time>
      </trkpt>
      <trkpt lat="47.46415" lon="-2.48588">
        <ele>16.6</ele>
        <time>2020-08-03T13:01:19Z</time>
      </trkpt>
      <trkpt lat="47.46413" lon="-2.48592">
        <ele>16.6</ele>
        <time>2020-08-03T13:01:20Z</time>
      </trkpt>
      <trkpt lat="47.46413" lon="-2.48596">
        <ele>16.8</ele>
        <time>2020-08-03T13:01:21Z</time>
      </trkpt>
      <trkpt lat="47.46411" lon="-2.48601">
        <ele>16.8</ele>
        <time>2020-08-03T13:01:22Z</time>
      </trkpt>
      <trkpt lat="47.46411" lon="-2.48605">
        <ele>17</ele>
        <time>2020-08-03T13:01:23Z</time>
      </trkpt>
      <trkpt lat="47.4641" lon="-2.48609">
        <ele>17</ele>
        <time>2020-08-03T13:01:24Z</time>
      </trkpt>
      <trkpt lat="47.46408" lon="-2.48615">
        <ele>17</ele>
        <time>2020-08-03T13:01:25Z</time>
      </trkpt>
      <trkpt lat="47.46406" lon="-2.4862">
        <ele>17</ele>
        <time>2020-08-03T13:01:26Z</time>
      </trkpt>
      <trkpt lat="47.46405" lon="-2.48625">
        <ele>16.8</ele>
        <time>2020-08-03T13:01:27Z</time>
      </trkpt>
      <trkpt lat="47.46403" lon="-2.4863">
        <ele>16.8</ele>
        <time>2020-08-03T13:01:28Z</time>
      </trkpt>
      <trkpt lat="47.46402" lon="-2.48636">
        <ele>16.6</ele>
        <time>2020-08-03T13:01:29Z</time>
      </trkpt>
      <trkpt lat="47.464" lon="-2.48641">
        <ele>16.4</ele>
        <time>2020-08-03T13:01:30Z</time>
      </trkpt>
      <trkpt lat="47.46399" lon="-2.48647">
        <ele>16.4</ele>
        <time>2020-08-03T13:01:31Z</time>
      </trkpt>
      <trkpt lat="47.46397" lon="-2.48653">
        <ele>16.4</ele>
        <time>2020-08-03T13:01:32Z</time>
      </trkpt>
      <trkpt lat="47.46395" lon="-2.48658">
        <ele>16.6</ele>
        <time>2020-08-03T13:01:33Z</time>
      </trkpt>
      <trkpt lat="47.46394" lon="-2.48664">
        <ele>16.6</ele>
        <time>2020-08-03T13:01:34Z</time>
      </trkpt>
      <trkpt lat="47.46392" lon="-2.48669">
        <ele>16.8</ele>
        <time>2020-08-03T13:01:35Z</time>
      </trkpt>
      <trkpt lat="47.46391" lon="-2.48675">
        <ele>16.8</ele>
        <time>2020-08-03T13:01:36Z</time>
      </trkpt>
      <trkpt lat="47.4639" lon="-2.48681">
        <ele>16.8</ele>
        <time>2020-08-03T13:01:37Z</time>
      </trkpt>
      <trkpt lat="47.46389" lon="-2.48687">
        <ele>16.8</ele>
        <time>2020-08-03T13:01:38Z</time>
      </trkpt>
      <trkpt lat="47.46388" lon="-2.48694">
        <ele>16.6</ele>
        <time>2020-08-03T13:01:39Z</time>
      </trkpt>
      <trkpt lat="47.46387" lon="-2.487">
        <ele>16.6</ele>
        <time>2020-08-03T13:01:40Z</time>
      </trkpt>
      <trkpt lat="47.46387" lon="-2.48707">
        <ele>16.4</ele>
        <time>2020-08-03T13:01:41Z</time>
      </trkpt>
      <trkpt lat="47.46386" lon="-2.48713">
        <ele>16.4</ele>
        <time>2020-08-03T13:01:42Z</time>
      </trkpt>
      <trkpt lat="47.46385" lon="-2.4872">
        <ele>16.6</ele>
        <time>2020-08-03T13:01:43Z</time>
      </trkpt>
      <trkpt lat="47.46384" lon="-2.48726">
        <ele>16.6</ele>
        <time>2020-08-03T13:01:44Z</time>
      </trkpt>
      <trkpt lat="47.46384" lon="-2.48732">
        <ele>16.6</ele>
        <time>2020-08-03T13:01:45Z</time>
      </trkpt>
      <trkpt lat="47.46383" lon="-2.48738">
        <ele>16.8</ele>
        <time>2020-08-03T13:01:46Z</time>
      </trkpt>
      <trkpt lat="47.46382" lon="-2.48744">
        <ele>16.8</ele>
        <time>2020-08-03T13:01:47Z</time>
      </trkpt>
      <trkpt lat="47.46382" lon="-2.4875">
        <ele>17</ele>
        <time>2020-08-03T13:01:48Z</time>
      </trkpt>
      <trkpt lat="47.46382" lon="-2.48756">
        <ele>17</ele>
        <time>2020-08-03T13:01:49Z</time>
      </trkpt>
      <trkpt lat="47.46381" lon="-2.48762">
        <ele>17.2</ele>
        <time>2020-08-03T13:01:50Z</time>
      </trkpt>
      <trkpt lat="47.46381" lon="-2.48768">
        <ele>17.2</ele>
        <time>2020-08-03T13:01:51Z</time>
      </trkpt>
      <trkpt lat="47.4638" lon="-2.48774">
        <ele>17.2</ele>
        <time>2020-08-03T13:01:52Z</time>
      </trkpt>
      <trkpt lat="47.4638" lon="-2.4878">
        <ele>17</ele>
        <time>2020-08-03T13:01:53Z</time>
      </trkpt>
      <trkpt lat="47.46379" lon="-2.48786">
        <ele>17</ele>
        <time>2020-08-03T13:01:54Z</time>
      </trkpt>
      <trkpt lat="47.46379" lon="-2.48791">
        <ele>17.2</ele>
        <time>2020-08-03T13:01:55Z</time>
      </trkpt>
      <trkpt lat="47.46378" lon="-2.48797">
        <ele>17.2</ele>
        <time>2020-08-03T13:01:56Z</time>
      </trkpt>
      <trkpt lat="47.46377" lon="-2.48802">
        <ele>17.2</ele>
        <time>2020-08-03T13:01:57Z</time>
      </trkpt>
      <trkpt lat="47.46376" lon="-2.48807">
        <ele>17.4</ele>
        <time>2020-08-03T13:01:58Z</time>
      </trkpt>
      <trkpt lat="47.46375" lon="-2.48812">
        <ele>17.4</ele>
        <time>2020-08-03T13:01:59Z</time>
      </trkpt>
      <trkpt lat="47.46374" lon="-2.48818">
        <ele>17.4</ele>
        <time>2020-08-03T13:02:00Z</time>
      </trkpt>
      <trkpt lat="47.46372" lon="-2.48823">
        <ele>17.4</ele>
        <time>2020-08-03T13:02:01Z</time>
      </trkpt>
      <trkpt lat="47.46371" lon="-2.48828">
        <ele>17.6</ele>
        <time>2020-08-03T13:02:02Z</time>
      </trkpt>
      <trkpt lat="47.46369" lon="-2.48833">
        <ele>17.6</ele>
        <time>2020-08-03T13:02:03Z</time>
      </trkpt>
      <trkpt lat="47.46367" lon="-2.48837">
        <ele>17.6</ele>
        <time>2020-08-03T13:02:04Z</time>
      </trkpt>
      <trkpt lat="47.46365" lon="-2.48842">
        <ele>17.8</ele>
        <time>2020-08-03T13:02:05Z</time>
      </trkpt>
      <trkpt lat="47.46363" lon="-2.48847">
        <ele>17.8</ele>
        <time>2020-08-03T13:02:06Z</time>
      </trkpt>
      <trkpt lat="47.46361" lon="-2.48851">
        <ele>17.8</ele>
        <time>2020-08-03T13:02:07Z</time>
      </trkpt>
      <trkpt lat="47.46359" lon="-2.48856">
        <ele>17.6</ele>
        <time>2020-08-03T13:02:08Z</time>
      </trkpt>
      <trkpt lat="47.46357" lon="-2.4886">
        <ele>17.6</ele>
        <time>2020-08-03T13:02:09Z</time>
      </trkpt>
      <trkpt lat="47.46354" lon="-2.48865">
        <ele>17.6</ele>
        <time>2020-08-03T13:02:10Z</time>
      </trkpt>
      <trkpt lat="47.46352" lon="-2.4887">
        <ele>17.6</ele>
        <time>2020-08-03T13:02:11Z</time>
      </trkpt>
      <trkpt lat="47.46349" lon="-2.48875">
        <ele>17.6</ele>
        <time>2020-08-03T13:02:12Z</time>
      </trkpt>
      <trkpt lat="47.46347" lon="-2.48879">
        <ele>17.6</ele>
        <time>2020-08-03T13:02:13Z</time>
      </trkpt>
      <trkpt lat="47.46344" lon="-2.48883">
        <ele>17.6</ele>
        <time>2020-08-03T13:02:14Z</time>
      </trkpt>
      <trkpt lat="47.46341" lon="-2.48887">
        <ele>17.8</ele>
        <time>2020-08-03T13:02:15Z</time>
      </trkpt>
      <trkpt lat="47.46339" lon="-2.48892">
        <ele>17.6</ele>
        <time>2020-08-03T13:02:16Z</time>
      </trkpt>
      <trkpt lat="47.46336" lon="-2.48896">
        <ele>17.6</ele>
        <time>2020-08-03T13:02:17Z</time>
      </trkpt>
      <trkpt lat="47.46333" lon="-2.48901">
        <ele>17.6</ele>
        <time>2020-08-03T13:02:18Z</time>
      </trkpt>
      <trkpt lat="47.4633" lon="-2.48905">
        <ele>17.6</ele>
        <time>2020-08-03T13:02:19Z</time>
      </trkpt>
      <trkpt lat="47.46327" lon="-2.4891">
        <ele>17.6</ele>
        <time>2020-08-03T13:02:20Z</time>
      </trkpt>
      <trkpt lat="47.46324" lon="-2.48915">
        <ele>17.6</ele>
        <time>2020-08-03T13:02:21Z</time>
      </trkpt>
      <trkpt lat="47.46321" lon="-2.4892">
        <ele>17.8</ele>
        <time>2020-08-03T13:02:22Z</time>
      </trkpt>
      <trkpt lat="47.46318" lon="-2.48925">
        <ele>17.8</ele>
        <time>2020-08-03T13:02:23Z</time>
      </trkpt>
      <trkpt lat="47.46315" lon="-2.48929">
        <ele>17.6</ele>
        <time>2020-08-03T13:02:24Z</time>
      </trkpt>
      <trkpt lat="47.46312" lon="-2.48934">
        <ele>17.6</ele>
        <time>2020-08-03T13:02:25Z</time>
      </trkpt>
      <trkpt lat="47.46309" lon="-2.48938">
        <ele>17.6</ele>
        <time>2020-08-03T13:02:26Z</time>
      </trkpt>
      <trkpt lat="47.46306" lon="-2.48943">
        <ele>17.6</ele>
        <time>2020-08-03T13:02:27Z</time>
      </trkpt>
      <trkpt lat="47.46303" lon="-2.48948">
        <ele>17.6</ele>
        <time>2020-08-03T13:02:28Z</time>
      </trkpt>
      <trkpt lat="47.463" lon="-2.48953">
        <ele>17.4</ele>
        <time>2020-08-03T13:02:29Z</time>
      </trkpt>
      <trkpt lat="47.46296" lon="-2.48958">
        <ele>17.2</ele>
        <time>2020-08-03T13:02:30Z</time>
      </trkpt>
      <trkpt lat="47.46293" lon="-2.48964">
        <ele>17.2</ele>
        <time>2020-08-03T13:02:31Z</time>
      </trkpt>
      <trkpt lat="47.4629" lon="-2.48969">
        <ele>17</ele>
        <time>2020-08-03T13:02:32Z</time>
      </trkpt>
      <trkpt lat="47.46286" lon="-2.48975">
        <ele>17</ele>
        <time>2020-08-03T13:02:33Z</time>
      </trkpt>
      <trkpt lat="47.46283" lon="-2.48981">
        <ele>16.8</ele>
        <time>2020-08-03T13:02:34Z</time>
      </trkpt>
      <trkpt lat="47.46279" lon="-2.48986">
        <ele>16.8</ele>
        <time>2020-08-03T13:02:35Z</time>
      </trkpt>
      <trkpt lat="47.46276" lon="-2.48992">
        <ele>17</ele>
        <time>2020-08-03T13:02:36Z</time>
      </trkpt>
      <trkpt lat="47.46272" lon="-2.48998">
        <ele>17</ele>
        <time>2020-08-03T13:02:37Z</time>
      </trkpt>
      <trkpt lat="47.46269" lon="-2.49003">
        <ele>17</ele>
        <time>2020-08-03T13:02:38Z</time>
      </trkpt>
      <trkpt lat="47.46265" lon="-2.49009">
        <ele>16.8</ele>
        <time>2020-08-03T13:02:39Z</time>
      </trkpt>
      <trkpt lat="47.46262" lon="-2.49015">
        <ele>16.4</ele>
        <time>2020-08-03T13:02:40Z</time>
      </trkpt>
      <trkpt lat="47.46258" lon="-2.49021">
        <ele>16.2</ele>
        <time>2020-08-03T13:02:41Z</time>
      </trkpt>
      <trkpt lat="47.46254" lon="-2.49027">
        <ele>16</ele>
        <time>2020-08-03T13:02:42Z</time>
      </trkpt>
      <trkpt lat="47.46251" lon="-2.49033">
        <ele>15.6</ele>
        <time>2020-08-03T13:02:43Z</time>
      </trkpt>
      <trkpt lat="47.46247" lon="-2.49039">
        <ele>15.6</ele>
        <time>2020-08-03T13:02:44Z</time>
      </trkpt>
      <trkpt lat="47.46243" lon="-2.49045">
        <ele>15.4</ele>
        <time>2020-08-03T13:02:45Z</time>
      </trkpt>
      <trkpt lat="47.46239" lon="-2.49051">
        <ele>15.4</ele>
        <time>2020-08-03T13:02:46Z</time>
      </trkpt>
      <trkpt lat="47.46236" lon="-2.49057">
        <ele>15.2</ele>
        <time>2020-08-03T13:02:47Z</time>
      </trkpt>
      <trkpt lat="47.46232" lon="-2.49063">
        <ele>15</ele>
        <time>2020-08-03T13:02:48Z</time>
      </trkpt>
      <trkpt lat="47.46229" lon="-2.49069">
        <ele>15</ele>
        <time>2020-08-03T13:02:49Z</time>
      </trkpt>
      <trkpt lat="47.46225" lon="-2.49074">
        <ele>14.6</ele>
        <time>2020-08-03T13:02:50Z</time>
      </trkpt>
      <trkpt lat="47.46221" lon="-2.49079">
        <ele>14.6</ele>
        <time>2020-08-03T13:02:51Z</time>
      </trkpt>
      <trkpt lat="47.46217" lon="-2.49084">
        <ele>14.4</ele>
        <time>2020-08-03T13:02:52Z</time>
      </trkpt>
      <trkpt lat="47.46216" lon="-2.49091">
        <ele>14.2</ele>
        <time>2020-08-03T13:02:53Z</time>
      </trkpt>
      <trkpt lat="47.46216" lon="-2.49098">
        <ele>14</ele>
        <time>2020-08-03T13:02:54Z</time>
      </trkpt>
      <trkpt lat="47.46218" lon="-2.49104">
        <ele>13.6</ele>
        <time>2020-08-03T13:02:55Z</time>
      </trkpt>
      <trkpt lat="47.4622" lon="-2.4911">
        <ele>13.4</ele>
        <time>2020-08-03T13:02:56Z</time>
      </trkpt>
      <trkpt lat="47.46223" lon="-2.49117">
        <ele>13.4</ele>
        <time>2020-08-03T13:02:57Z</time>
      </trkpt>
      <trkpt lat="47.46226" lon="-2.49122">
        <ele>13.4</ele>
        <time>2020-08-03T13:02:58Z</time>
      </trkpt>
      <trkpt lat="47.46229" lon="-2.49128">
        <ele>13.4</ele>
        <time>2020-08-03T13:02:59Z</time>
      </trkpt>
      <trkpt lat="47.46231" lon="-2.49134">
        <ele>13.2</ele>
        <time>2020-08-03T13:03:00Z</time>
      </trkpt>
      <trkpt lat="47.46233" lon="-2.49139">
        <ele>13</ele>
        <time>2020-08-03T13:03:01Z</time>
      </trkpt>
      <trkpt lat="47.46235" lon="-2.49145">
        <ele>12.8</ele>
        <time>2020-08-03T13:03:02Z</time>
      </trkpt>
      <trkpt lat="47.46237" lon="-2.49151">
        <ele>12.8</ele>
        <time>2020-08-03T13:03:03Z</time>
      </trkpt>
      <trkpt lat="47.46239" lon="-2.49157">
        <ele>12.6</ele>
        <time>2020-08-03T13:03:04Z</time>
      </trkpt>
      <trkpt lat="47.46241" lon="-2.49163">
        <ele>12.4</ele>
        <time>2020-08-03T13:03:05Z</time>
      </trkpt>
      <trkpt lat="47.46243" lon="-2.49169">
        <ele>12.4</ele>
        <time>2020-08-03T13:03:06Z</time>
      </trkpt>
      <trkpt lat="47.46245" lon="-2.49176">
        <ele>12.2</ele>
        <time>2020-08-03T13:03:07Z</time>
      </trkpt>
      <trkpt lat="47.46247" lon="-2.49181">
        <ele>12</ele>
        <time>2020-08-03T13:03:08Z</time>
      </trkpt>
      <trkpt lat="47.46249" lon="-2.49187">
        <ele>11.8</ele>
        <time>2020-08-03T13:03:09Z</time>
      </trkpt>
      <trkpt lat="47.46251" lon="-2.49192">
        <ele>11.6</ele>
        <time>2020-08-03T13:03:10Z</time>
      </trkpt>
      <trkpt lat="47.46254" lon="-2.49198">
        <ele>11.6</ele>
        <time>2020-08-03T13:03:11Z</time>
      </trkpt>
      <trkpt lat="47.46256" lon="-2.49203">
        <ele>11.4</ele>
        <time>2020-08-03T13:03:12Z</time>
      </trkpt>
      <trkpt lat="47.46259" lon="-2.49207">
        <ele>11.2</ele>
        <time>2020-08-03T13:03:13Z</time>
      </trkpt>
      <trkpt lat="47.46262" lon="-2.49211">
        <ele>11.2</ele>
        <time>2020-08-03T13:03:14Z</time>
      </trkpt>
      <trkpt lat="47.46264" lon="-2.49216">
        <ele>11</ele>
        <time>2020-08-03T13:03:15Z</time>
      </trkpt>
      <trkpt lat="47.46266" lon="-2.4922">
        <ele>11</ele>
        <time>2020-08-03T13:03:16Z</time>
      </trkpt>
      <trkpt lat="47.46268" lon="-2.49225">
        <ele>10.8</ele>
        <time>2020-08-03T13:03:17Z</time>
      </trkpt>
      <trkpt lat="47.4627" lon="-2.4923">
        <ele>10.6</ele>
        <time>2020-08-03T13:03:18Z</time>
      </trkpt>
      <trkpt lat="47.46272" lon="-2.49234">
        <ele>10.4</ele>
        <time>2020-08-03T13:03:19Z</time>
      </trkpt>
      <trkpt lat="47.46274" lon="-2.49239">
        <ele>10.2</ele>
        <time>2020-08-03T13:03:20Z</time>
      </trkpt>
      <trkpt lat="47.46276" lon="-2.49243">
        <ele>10</ele>
        <time>2020-08-03T13:03:21Z</time>
      </trkpt>
      <trkpt lat="47.46277" lon="-2.49247">
        <ele>9.8</ele>
        <time>2020-08-03T13:03:22Z</time>
      </trkpt>
      <trkpt lat="47.46279" lon="-2.4925">
        <ele>9.6</ele>
        <time>2020-08-03T13:03:23Z</time>
      </trkpt>
      <trkpt lat="47.4628" lon="-2.49254">
        <ele>9.4</ele>
        <time>2020-08-03T13:03:24Z</time>
      </trkpt>
      <trkpt lat="47.46281" lon="-2.49257">
        <ele>9.2</ele>
        <time>2020-08-03T13:03:25Z</time>
      </trkpt>
      <trkpt lat="47.46282" lon="-2.49259">
        <ele>9</ele>
        <time>2020-08-03T13:03:26Z</time>
      </trkpt>
      <trkpt lat="47.46283" lon="-2.49261">
        <ele>9</ele>
        <time>2020-08-03T13:03:27Z</time>
      </trkpt>
      <trkpt lat="47.46283" lon="-2.49263">
        <ele>8.8</ele>
        <time>2020-08-03T13:03:28Z</time>
      </trkpt>
      <trkpt lat="47.46284" lon="-2.49265">
        <ele>8.8</ele>
        <time>2020-08-03T13:03:29Z</time>
      </trkpt>
      <trkpt lat="47.46284" lon="-2.49267">
        <ele>8.8</ele>
        <time>2020-08-03T13:03:30Z</time>
      </trkpt>
      <trkpt lat="47.46284" lon="-2.49268">
        <ele>8.8</ele>
        <time>2020-08-03T13:03:31Z</time>
      </trkpt>
      <trkpt lat="47.46285" lon="-2.49271">
        <ele>8.8</ele>
        <time>2020-08-03T13:03:32Z</time>
      </trkpt>
      <trkpt lat="47.46285" lon="-2.49273">
        <ele>8.6</ele>
        <time>2020-08-03T13:03:33Z</time>
      </trkpt>
      <trkpt lat="47.46286" lon="-2.49274">
        <ele>8.4</ele>
        <time>2020-08-03T13:03:34Z</time>
      </trkpt>
      <trkpt lat="47.46286" lon="-2.49277">
        <ele>8.4</ele>
        <time>2020-08-03T13:03:35Z</time>
      </trkpt>
      <trkpt lat="47.46287" lon="-2.49279">
        <ele>8.4</ele>
        <time>2020-08-03T13:03:36Z</time>
      </trkpt>
      <trkpt lat="47.46287" lon="-2.49281">
        <ele>8.4</ele>
        <time>2020-08-03T13:03:37Z</time>
      </trkpt>
      <trkpt lat="47.46288" lon="-2.49283">
        <ele>8.4</ele>
        <time>2020-08-03T13:03:38Z</time>
      </trkpt>
      <trkpt lat="47.46288" lon="-2.49284">
        <ele>8.2</ele>
        <time>2020-08-03T13:03:39Z</time>
      </trkpt>
      <trkpt lat="47.46288" lon="-2.49286">
        <ele>8.2</ele>
        <time>2020-08-03T13:03:40Z</time>
      </trkpt>
      <trkpt lat="47.46289" lon="-2.49288">
        <ele>8.2</ele>
        <time>2020-08-03T13:03:41Z</time>
      </trkpt>
      <trkpt lat="47.46289" lon="-2.4929">
        <ele>8</ele>
        <time>2020-08-03T13:03:42Z</time>
      </trkpt>
      <trkpt lat="47.46289" lon="-2.49292">
        <ele>8</ele>
        <time>2020-08-03T13:03:43Z</time>
      </trkpt>
      <trkpt lat="47.4629" lon="-2.49294">
        <ele>7.8</ele>
        <time>2020-08-03T13:03:44Z</time>
      </trkpt>
      <trkpt lat="47.4629" lon="-2.49296">
        <ele>7.8</ele>
        <time>2020-08-03T13:03:45Z</time>
      </trkpt>
      <trkpt lat="47.4629" lon="-2.49297">
        <ele>7.6</ele>
        <time>2020-08-03T13:03:46Z</time>
      </trkpt>
      <trkpt lat="47.46291" lon="-2.49299">
        <ele>7.6</ele>
        <time>2020-08-03T13:03:47Z</time>
      </trkpt>
      <trkpt lat="47.46291" lon="-2.493">
        <ele>7.6</ele>
        <time>2020-08-03T13:03:48Z</time>
      </trkpt>
      <trkpt lat="47.46292" lon="-2.49302">
        <ele>7.4</ele>
        <time>2020-08-03T13:03:49Z</time>
      </trkpt>
      <trkpt lat="47.46292" lon="-2.49303">
        <ele>7.6</ele>
        <time>2020-08-03T13:03:50Z</time>
      </trkpt>
      <trkpt lat="47.46292" lon="-2.49304">
        <ele>7.6</ele>
        <time>2020-08-03T13:03:51Z</time>
      </trkpt>
      <trkpt lat="47.46292" lon="-2.49305">
        <ele>7.6</ele>
        <time>2020-08-03T13:03:52Z</time>
      </trkpt>
      <trkpt lat="47.46293" lon="-2.49306">
        <ele>7.6</ele>
        <time>2020-08-03T13:03:53Z</time>
      </trkpt>
      <trkpt lat="47.46293" lon="-2.49307">
        <ele>7.4</ele>
        <time>2020-08-03T13:03:54Z</time>
      </trkpt>
      <trkpt lat="47.46293" lon="-2.49308">
        <ele>7.4</ele>
        <time>2020-08-03T13:03:55Z</time>
      </trkpt>
      <trkpt lat="47.46293" lon="-2.49309">
        <ele>7.4</ele>
        <time>2020-08-03T13:03:56Z</time>
      </trkpt>
      <trkpt lat="47.46294" lon="-2.49309">
        <ele>7.4</ele>
        <time>2020-08-03T13:03:57Z</time>
      </trkpt>
      <trkpt lat="47.46294" lon="-2.49308">
        <ele>7.2</ele>
        <time>2020-08-03T13:03:58Z</time>
      </trkpt>
      <trkpt lat="47.46293" lon="-2.49309">
        <ele>7.4</ele>
        <time>2020-08-03T13:03:59Z</time>
      </trkpt>
      <trkpt lat="47.46293" lon="-2.49309">
        <ele>7.2</ele>
        <time>2020-08-03T13:04:00Z</time>
      </trkpt>
      <trkpt lat="47.46293" lon="-2.49309">
        <ele>7.2</ele>
        <time>2020-08-03T13:04:01Z</time>
      </trkpt>
      <trkpt lat="47.46293" lon="-2.49309">
        <ele>7.2</ele>
        <time>2020-08-03T13:04:02Z</time>
      </trkpt>
      <trkpt lat="47.46293" lon="-2.49309">
        <ele>7.2</ele>
        <time>2020-08-03T13:04:03Z</time>
      </trkpt>
      <trkpt lat="47.46284" lon="-2.49271">
        <ele>7.6</ele>
        <time>2020-08-03T13:05:41Z</time>
      </trkpt>
      <trkpt lat="47.46283" lon="-2.49268">
        <ele>7.6</ele>
        <time>2020-08-03T13:05:42Z</time>
      </trkpt>
      <trkpt lat="47.46281" lon="-2.49267">
        <ele>7.8</ele>
        <time>2020-08-03T13:05:43Z</time>
      </trkpt>
      <trkpt lat="47.4628" lon="-2.49265">
        <ele>8</ele>
        <time>2020-08-03T13:05:44Z</time>
      </trkpt>
      <trkpt lat="47.46279" lon="-2.49262">
        <ele>8</ele>
        <time>2020-08-03T13:05:45Z</time>
      </trkpt>
      <trkpt lat="47.46278" lon="-2.49259">
        <ele>8.2</ele>
        <time>2020-08-03T13:05:46Z</time>
      </trkpt>
      <trkpt lat="47.46277" lon="-2.49257">
        <ele>8.4</ele>
        <time>2020-08-03T13:05:47Z</time>
      </trkpt>
      <trkpt lat="47.46276" lon="-2.49254">
        <ele>8.6</ele>
        <time>2020-08-03T13:05:48Z</time>
      </trkpt>
      <trkpt lat="47.46275" lon="-2.49252">
        <ele>8.8</ele>
        <time>2020-08-03T13:05:49Z</time>
      </trkpt>
      <trkpt lat="47.46274" lon="-2.4925">
        <ele>9</ele>
        <time>2020-08-03T13:05:50Z</time>
      </trkpt>
      <trkpt lat="47.46273" lon="-2.49248">
        <ele>8.8</ele>
        <time>2020-08-03T13:05:51Z</time>
      </trkpt>
      <trkpt lat="47.46272" lon="-2.49246">
        <ele>8.8</ele>
        <time>2020-08-03T13:05:52Z</time>
      </trkpt>
      <trkpt lat="47.46271" lon="-2.49245">
        <ele>8.8</ele>
        <time>2020-08-03T13:05:53Z</time>
      </trkpt>
      <trkpt lat="47.4627" lon="-2.49243">
        <ele>9</ele>
        <time>2020-08-03T13:05:54Z</time>
      </trkpt>
      <trkpt lat="47.4627" lon="-2.49242">
        <ele>9</ele>
        <time>2020-08-03T13:05:55Z</time>
      </trkpt>
      <trkpt lat="47.46269" lon="-2.4924">
        <ele>9.2</ele>
        <time>2020-08-03T13:05:56Z</time>
      </trkpt>
      <trkpt lat="47.46268" lon="-2.49239">
        <ele>9.2</ele>
        <time>2020-08-03T13:05:57Z</time>
      </trkpt>
      <trkpt lat="47.46267" lon="-2.49237">
        <ele>9.2</ele>
        <time>2020-08-03T13:05:58Z</time>
      </trkpt>
      <trkpt lat="47.46267" lon="-2.49235">
        <ele>9.4</ele>
        <time>2020-08-03T13:05:59Z</time>
      </trkpt>
      <trkpt lat="47.46266" lon="-2.49233">
        <ele>9.4</ele>
        <time>2020-08-03T13:06:00Z</time>
      </trkpt>
      <trkpt lat="47.46265" lon="-2.49231">
        <ele>9.6</ele>
        <time>2020-08-03T13:06:01Z</time>
      </trkpt>
      <trkpt lat="47.46264" lon="-2.4923">
        <ele>9.6</ele>
        <time>2020-08-03T13:06:02Z</time>
      </trkpt>
      <trkpt lat="47.46263" lon="-2.49228">
        <ele>9.6</ele>
        <time>2020-08-03T13:06:03Z</time>
      </trkpt>
      <trkpt lat="47.46263" lon="-2.49226">
        <ele>9.6</ele>
        <time>2020-08-03T13:06:04Z</time>
      </trkpt>
      <trkpt lat="47.46262" lon="-2.49224">
        <ele>9.6</ele>
        <time>2020-08-03T13:06:05Z</time>
      </trkpt>
      <trkpt lat="47.46261" lon="-2.49221">
        <ele>9.6</ele>
        <time>2020-08-03T13:06:06Z</time>
      </trkpt>
      <trkpt lat="47.46261" lon="-2.49219">
        <ele>9.8</ele>
        <time>2020-08-03T13:06:07Z</time>
      </trkpt>
      <trkpt lat="47.4626" lon="-2.49217">
        <ele>9.8</ele>
        <time>2020-08-03T13:06:08Z</time>
      </trkpt>
      <trkpt lat="47.46259" lon="-2.49216">
        <ele>9.8</ele>
        <time>2020-08-03T13:06:09Z</time>
      </trkpt>
      <trkpt lat="47.46258" lon="-2.49214">
        <ele>10</ele>
        <time>2020-08-03T13:06:10Z</time>
      </trkpt>
      <trkpt lat="47.46257" lon="-2.49212">
        <ele>10</ele>
        <time>2020-08-03T13:06:11Z</time>
      </trkpt>
      <trkpt lat="47.46256" lon="-2.4921">
        <ele>10</ele>
        <time>2020-08-03T13:06:12Z</time>
      </trkpt>
      <trkpt lat="47.46254" lon="-2.49208">
        <ele>10</ele>
        <time>2020-08-03T13:06:13Z</time>
      </trkpt>
      <trkpt lat="47.46253" lon="-2.49206">
        <ele>10.2</ele>
        <time>2020-08-03T13:06:14Z</time>
      </trkpt>
      <trkpt lat="47.46252" lon="-2.49204">
        <ele>10.2</ele>
        <time>2020-08-03T13:06:15Z</time>
      </trkpt>
      <trkpt lat="47.46251" lon="-2.49202">
        <ele>10.2</ele>
        <time>2020-08-03T13:06:16Z</time>
      </trkpt>
      <trkpt lat="47.4625" lon="-2.49199">
        <ele>10.2</ele>
        <time>2020-08-03T13:06:17Z</time>
      </trkpt>
      <trkpt lat="47.46249" lon="-2.49197">
        <ele>10.4</ele>
        <time>2020-08-03T13:06:18Z</time>
      </trkpt>
      <trkpt lat="47.46248" lon="-2.49195">
        <ele>10.4</ele>
        <time>2020-08-03T13:06:19Z</time>
      </trkpt>
      <trkpt lat="47.46247" lon="-2.49193">
        <ele>10.6</ele>
        <time>2020-08-03T13:06:20Z</time>
      </trkpt>
      <trkpt lat="47.46246" lon="-2.49191">
        <ele>10.6</ele>
        <time>2020-08-03T13:06:21Z</time>
      </trkpt>
      <trkpt lat="47.46245" lon="-2.49188">
        <ele>10.6</ele>
        <time>2020-08-03T13:06:22Z</time>
      </trkpt>
      <trkpt lat="47.46244" lon="-2.49187">
        <ele>10.6</ele>
        <time>2020-08-03T13:06:23Z</time>
      </trkpt>
      <trkpt lat="47.46243" lon="-2.49184">
        <ele>10.8</ele>
        <time>2020-08-03T13:06:24Z</time>
      </trkpt>
      <trkpt lat="47.46242" lon="-2.49182">
        <ele>10.8</ele>
        <time>2020-08-03T13:06:25Z</time>
      </trkpt>
      <trkpt lat="47.46241" lon="-2.4918">
        <ele>11</ele>
        <time>2020-08-03T13:06:26Z</time>
      </trkpt>
      <trkpt lat="47.4624" lon="-2.49177">
        <ele>11</ele>
        <time>2020-08-03T13:06:27Z</time>
      </trkpt>
      <trkpt lat="47.46239" lon="-2.49174">
        <ele>11</ele>
        <time>2020-08-03T13:06:28Z</time>
      </trkpt>
      <trkpt lat="47.46238" lon="-2.49171">
        <ele>11</ele>
        <time>2020-08-03T13:06:29Z</time>
      </trkpt>
      <trkpt lat="47.46237" lon="-2.49169">
        <ele>11</ele>
        <time>2020-08-03T13:06:30Z</time>
      </trkpt>
      <trkpt lat="47.46236" lon="-2.49166">
        <ele>11.2</ele>
        <time>2020-08-03T13:06:31Z</time>
      </trkpt>
      <trkpt lat="47.46235" lon="-2.49162">
        <ele>11.4</ele>
        <time>2020-08-03T13:06:32Z</time>
      </trkpt>
      <trkpt lat="47.46234" lon="-2.49159">
        <ele>11.4</ele>
        <time>2020-08-03T13:06:33Z</time>
      </trkpt>
      <trkpt lat="47.46232" lon="-2.49155">
        <ele>11.4</ele>
        <time>2020-08-03T13:06:34Z</time>
      </trkpt>
      <trkpt lat="47.46231" lon="-2.49151">
        <ele>11.4</ele>
        <time>2020-08-03T13:06:35Z</time>
      </trkpt>
      <trkpt lat="47.4623" lon="-2.49148">
        <ele>11.4</ele>
        <time>2020-08-03T13:06:36Z</time>
      </trkpt>
      <trkpt lat="47.46228" lon="-2.49144">
        <ele>11.6</ele>
        <time>2020-08-03T13:06:37Z</time>
      </trkpt>
      <trkpt lat="47.46227" lon="-2.4914">
        <ele>11.6</ele>
        <time>2020-08-03T13:06:38Z</time>
      </trkpt>
      <trkpt lat="47.46226" lon="-2.49137">
        <ele>11.6</ele>
        <time>2020-08-03T13:06:39Z</time>
      </trkpt>
      <trkpt lat="47.46224" lon="-2.49133">
        <ele>11.8</ele>
        <time>2020-08-03T13:06:40Z</time>
      </trkpt>
      <trkpt lat="47.46223" lon="-2.4913">
        <ele>11.8</ele>
        <time>2020-08-03T13:06:41Z</time>
      </trkpt>
      <trkpt lat="47.46222" lon="-2.49126">
        <ele>12</ele>
        <time>2020-08-03T13:06:42Z</time>
      </trkpt>
      <trkpt lat="47.4622" lon="-2.49124">
        <ele>12</ele>
        <time>2020-08-03T13:06:43Z</time>
      </trkpt>
      <trkpt lat="47.46218" lon="-2.4912">
        <ele>12</ele>
        <time>2020-08-03T13:06:44Z</time>
      </trkpt>
      <trkpt lat="47.46217" lon="-2.49117">
        <ele>12</ele>
        <time>2020-08-03T13:06:45Z</time>
      </trkpt>
      <trkpt lat="47.46215" lon="-2.49114">
        <ele>12.2</ele>
        <time>2020-08-03T13:06:46Z</time>
      </trkpt>
      <trkpt lat="47.46214" lon="-2.49111">
        <ele>12.2</ele>
        <time>2020-08-03T13:06:47Z</time>
      </trkpt>
      <trkpt lat="47.46212" lon="-2.49108">
        <ele>12.4</ele>
        <time>2020-08-03T13:06:48Z</time>
      </trkpt>
      <trkpt lat="47.46211" lon="-2.49106">
        <ele>12.4</ele>
        <time>2020-08-03T13:06:49Z</time>
      </trkpt>
      <trkpt lat="47.46209" lon="-2.49104">
        <ele>12.6</ele>
        <time>2020-08-03T13:06:50Z</time>
      </trkpt>
      <trkpt lat="47.46206" lon="-2.49104">
        <ele>12.6</ele>
        <time>2020-08-03T13:06:51Z</time>
      </trkpt>
      <trkpt lat="47.46204" lon="-2.49105">
        <ele>13</ele>
        <time>2020-08-03T13:06:52Z</time>
      </trkpt>
      <trkpt lat="47.46202" lon="-2.49106">
        <ele>13.2</ele>
        <time>2020-08-03T13:06:53Z</time>
      </trkpt>
      <trkpt lat="47.462" lon="-2.49107">
        <ele>13.2</ele>
        <time>2020-08-03T13:06:54Z</time>
      </trkpt>
      <trkpt lat="47.46197" lon="-2.49109">
        <ele>13.2</ele>
        <time>2020-08-03T13:06:55Z</time>
      </trkpt>
      <trkpt lat="47.46195" lon="-2.49111">
        <ele>13.2</ele>
        <time>2020-08-03T13:06:56Z</time>
      </trkpt>
      <trkpt lat="47.46192" lon="-2.49113">
        <ele>13</ele>
        <time>2020-08-03T13:06:57Z</time>
      </trkpt>
      <trkpt lat="47.4619" lon="-2.49115">
        <ele>13</ele>
        <time>2020-08-03T13:06:58Z</time>
      </trkpt>
      <trkpt lat="47.46188" lon="-2.49117">
        <ele>13</ele>
        <time>2020-08-03T13:06:59Z</time>
      </trkpt>
      <trkpt lat="47.46186" lon="-2.49118">
        <ele>13.2</ele>
        <time>2020-08-03T13:07:00Z</time>
      </trkpt>
      <trkpt lat="47.46184" lon="-2.49119">
        <ele>13.2</ele>
        <time>2020-08-03T13:07:01Z</time>
      </trkpt>
      <trkpt lat="47.46183" lon="-2.4912">
        <ele>13.2</ele>
        <time>2020-08-03T13:07:02Z</time>
      </trkpt>
      <trkpt lat="47.46182" lon="-2.49119">
        <ele>13.2</ele>
        <time>2020-08-03T13:07:03Z</time>
      </trkpt>
      <trkpt lat="47.46182" lon="-2.49119">
        <ele>13.2</ele>
        <time>2020-08-03T13:07:04Z</time>
      </trkpt>
      <trkpt lat="47.46182" lon="-2.49119">
        <ele>13.2</ele>
        <time>2020-08-03T13:07:05Z</time>
      </trkpt>
      <trkpt lat="47.46182" lon="-2.49119">
        <ele>13</ele>
        <time>2020-08-03T13:07:06Z</time>
      </trkpt>
      <trkpt lat="47.46181" lon="-2.49118">
        <ele>13</ele>
        <time>2020-08-03T13:07:07Z</time>
      </trkpt>
      <trkpt lat="47.46181" lon="-2.49118">
        <ele>13.2</ele>
        <time>2020-08-03T13:07:08Z</time>
      </trkpt>
      <trkpt lat="47.46181" lon="-2.49118">
        <ele>13</ele>
        <time>2020-08-03T13:07:09Z</time>
      </trkpt>
      <trkpt lat="47.46181" lon="-2.49118">
        <ele>13</ele>
        <time>2020-08-03T13:07:10Z</time>
      </trkpt>
      <trkpt lat="47.46159" lon="-2.49129">
        <ele>13.8</ele>
        <time>2020-08-03T13:07:44Z</time>
      </trkpt>
      <trkpt lat="47.46156" lon="-2.49131">
        <ele>13.8</ele>
        <time>2020-08-03T13:07:45Z</time>
      </trkpt>
      <trkpt lat="47.46153" lon="-2.49133">
        <ele>14</ele>
        <time>2020-08-03T13:07:46Z</time>
      </trkpt>
      <trkpt lat="47.46151" lon="-2.49135">
        <ele>14.2</ele>
        <time>2020-08-03T13:07:47Z</time>
      </trkpt>
      <trkpt lat="47.46148" lon="-2.49136">
        <ele>14.4</ele>
        <time>2020-08-03T13:07:48Z</time>
      </trkpt>
      <trkpt lat="47.46145" lon="-2.49138">
        <ele>14.2</ele>
        <time>2020-08-03T13:07:49Z</time>
      </trkpt>
      <trkpt lat="47.46142" lon="-2.49139">
        <ele>14</ele>
        <time>2020-08-03T13:07:50Z</time>
      </trkpt>
      <trkpt lat="47.46138" lon="-2.49141">
        <ele>14</ele>
        <time>2020-08-03T13:07:51Z</time>
      </trkpt>
      <trkpt lat="47.46135" lon="-2.49143">
        <ele>14.2</ele>
        <time>2020-08-03T13:07:52Z</time>
      </trkpt>
      <trkpt lat="47.46132" lon="-2.49145">
        <ele>14</ele>
        <time>2020-08-03T13:07:53Z</time>
      </trkpt>
      <trkpt lat="47.46129" lon="-2.49147">
        <ele>13.8</ele>
        <time>2020-08-03T13:07:54Z</time>
      </trkpt>
      <trkpt lat="47.46126" lon="-2.49149">
        <ele>14</ele>
        <time>2020-08-03T13:07:55Z</time>
      </trkpt>
      <trkpt lat="47.46122" lon="-2.49151">
        <ele>14</ele>
        <time>2020-08-03T13:07:56Z</time>
      </trkpt>
      <trkpt lat="47.46119" lon="-2.49152">
        <ele>14.2</ele>
        <time>2020-08-03T13:07:57Z</time>
      </trkpt>
      <trkpt lat="47.46116" lon="-2.49154">
        <ele>14.2</ele>
        <time>2020-08-03T13:07:58Z</time>
      </trkpt>
      <trkpt lat="47.46112" lon="-2.49156">
        <ele>14.2</ele>
        <time>2020-08-03T13:07:59Z</time>
      </trkpt>
      <trkpt lat="47.46109" lon="-2.49158">
        <ele>14.2</ele>
        <time>2020-08-03T13:08:00Z</time>
      </trkpt>
      <trkpt lat="47.46106" lon="-2.4916">
        <ele>14.2</ele>
        <time>2020-08-03T13:08:01Z</time>
      </trkpt>
      <trkpt lat="47.46102" lon="-2.49162">
        <ele>14.4</ele>
        <time>2020-08-03T13:08:02Z</time>
      </trkpt>
      <trkpt lat="47.46099" lon="-2.49164">
        <ele>14.4</ele>
        <time>2020-08-03T13:08:03Z</time>
      </trkpt>
      <trkpt lat="47.46096" lon="-2.49166">
        <ele>14.4</ele>
        <time>2020-08-03T13:08:04Z</time>
      </trkpt>
      <trkpt lat="47.46093" lon="-2.49168">
        <ele>14.6</ele>
        <time>2020-08-03T13:08:05Z</time>
      </trkpt>
      <trkpt lat="47.46089" lon="-2.49169">
        <ele>14.8</ele>
        <time>2020-08-03T13:08:06Z</time>
      </trkpt>
      <trkpt lat="47.46086" lon="-2.49171">
        <ele>14.8</ele>
        <time>2020-08-03T13:08:07Z</time>
      </trkpt>
      <trkpt lat="47.46083" lon="-2.49173">
        <ele>15</ele>
        <time>2020-08-03T13:08:08Z</time>
      </trkpt>
      <trkpt lat="47.46079" lon="-2.49175">
        <ele>14.8</ele>
        <time>2020-08-03T13:08:09Z</time>
      </trkpt>
      <trkpt lat="47.46076" lon="-2.49177">
        <ele>15</ele>
        <time>2020-08-03T13:08:10Z</time>
      </trkpt>
      <trkpt lat="47.46072" lon="-2.49179">
        <ele>15</ele>
        <time>2020-08-03T13:08:11Z</time>
      </trkpt>
      <trkpt lat="47.46069" lon="-2.49181">
        <ele>15</ele>
        <time>2020-08-03T13:08:12Z</time>
      </trkpt>
      <trkpt lat="47.46065" lon="-2.49183">
        <ele>15.2</ele>
        <time>2020-08-03T13:08:13Z</time>
      </trkpt>
      <trkpt lat="47.46062" lon="-2.49185">
        <ele>15</ele>
        <time>2020-08-03T13:08:14Z</time>
      </trkpt>
      <trkpt lat="47.46058" lon="-2.49187">
        <ele>15</ele>
        <time>2020-08-03T13:08:15Z</time>
      </trkpt>
      <trkpt lat="47.46055" lon="-2.4919">
        <ele>15.2</ele>
        <time>2020-08-03T13:08:16Z</time>
      </trkpt>
      <trkpt lat="47.46051" lon="-2.49192">
        <ele>15.2</ele>
        <time>2020-08-03T13:08:17Z</time>
      </trkpt>
      <trkpt lat="47.46048" lon="-2.49194">
        <ele>15.4</ele>
        <time>2020-08-03T13:08:18Z</time>
      </trkpt>
      <trkpt lat="47.46045" lon="-2.49196">
        <ele>15.4</ele>
        <time>2020-08-03T13:08:19Z</time>
      </trkpt>
      <trkpt lat="47.46041" lon="-2.49197">
        <ele>15.4</ele>
        <time>2020-08-03T13:08:20Z</time>
      </trkpt>
      <trkpt lat="47.46038" lon="-2.49199">
        <ele>15.6</ele>
        <time>2020-08-03T13:08:21Z</time>
      </trkpt>
      <trkpt lat="47.46035" lon="-2.49201">
        <ele>15.6</ele>
        <time>2020-08-03T13:08:22Z</time>
      </trkpt>
      <trkpt lat="47.46031" lon="-2.49203">
        <ele>15.6</ele>
        <time>2020-08-03T13:08:23Z</time>
      </trkpt>
      <trkpt lat="47.46028" lon="-2.49204">
        <ele>15.8</ele>
        <time>2020-08-03T13:08:24Z</time>
      </trkpt>
      <trkpt lat="47.46025" lon="-2.49206">
        <ele>16</ele>
        <time>2020-08-03T13:08:25Z</time>
      </trkpt>
      <trkpt lat="47.46022" lon="-2.49208">
        <ele>16</ele>
        <time>2020-08-03T13:08:26Z</time>
      </trkpt>
      <trkpt lat="47.46018" lon="-2.4921">
        <ele>16</ele>
        <time>2020-08-03T13:08:27Z</time>
      </trkpt>
      <trkpt lat="47.46015" lon="-2.49212">
        <ele>16</ele>
        <time>2020-08-03T13:08:28Z</time>
      </trkpt>
      <trkpt lat="47.46011" lon="-2.49215">
        <ele>16</ele>
        <time>2020-08-03T13:08:29Z</time>
      </trkpt>
      <trkpt lat="47.46008" lon="-2.49217">
        <ele>16</ele>
        <time>2020-08-03T13:08:30Z</time>
      </trkpt>
      <trkpt lat="47.46004" lon="-2.49219">
        <ele>16.2</ele>
        <time>2020-08-03T13:08:31Z</time>
      </trkpt>
      <trkpt lat="47.46001" lon="-2.49221">
        <ele>16.2</ele>
        <time>2020-08-03T13:08:32Z</time>
      </trkpt>
      <trkpt lat="47.45998" lon="-2.49224">
        <ele>16.4</ele>
        <time>2020-08-03T13:08:33Z</time>
      </trkpt>
      <trkpt lat="47.45994" lon="-2.49226">
        <ele>16.6</ele>
        <time>2020-08-03T13:08:34Z</time>
      </trkpt>
      <trkpt lat="47.45991" lon="-2.49227">
        <ele>16.4</ele>
        <time>2020-08-03T13:08:35Z</time>
      </trkpt>
      <trkpt lat="47.45987" lon="-2.49229">
        <ele>16.4</ele>
        <time>2020-08-03T13:08:36Z</time>
      </trkpt>
      <trkpt lat="47.45984" lon="-2.49231">
        <ele>16.6</ele>
        <time>2020-08-03T13:08:37Z</time>
      </trkpt>
      <trkpt lat="47.45981" lon="-2.49234">
        <ele>16.8</ele>
        <time>2020-08-03T13:08:38Z</time>
      </trkpt>
      <trkpt lat="47.45978" lon="-2.49236">
        <ele>17.2</ele>
        <time>2020-08-03T13:08:39Z</time>
      </trkpt>
      <trkpt lat="47.45975" lon="-2.49238">
        <ele>17.4</ele>
        <time>2020-08-03T13:08:40Z</time>
      </trkpt>
      <trkpt lat="47.45971" lon="-2.4924">
        <ele>17.6</ele>
        <time>2020-08-03T13:08:41Z</time>
      </trkpt>
      <trkpt lat="47.45969" lon="-2.49242">
        <ele>17.6</ele>
        <time>2020-08-03T13:08:42Z</time>
      </trkpt>
      <trkpt lat="47.45966" lon="-2.49244">
        <ele>17.6</ele>
        <time>2020-08-03T13:08:43Z</time>
      </trkpt>
      <trkpt lat="47.45963" lon="-2.49245">
        <ele>17.4</ele>
        <time>2020-08-03T13:08:44Z</time>
      </trkpt>
      <trkpt lat="47.4596" lon="-2.49247">
        <ele>17</ele>
        <time>2020-08-03T13:08:45Z</time>
      </trkpt>
      <trkpt lat="47.45957" lon="-2.4925">
        <ele>17.4</ele>
        <time>2020-08-03T13:08:46Z</time>
      </trkpt>
      <trkpt lat="47.45954" lon="-2.49252">
        <ele>17.6</ele>
        <time>2020-08-03T13:08:47Z</time>
      </trkpt>
      <trkpt lat="47.45951" lon="-2.49254">
        <ele>17.4</ele>
        <time>2020-08-03T13:08:48Z</time>
      </trkpt>
      <trkpt lat="47.45947" lon="-2.49256">
        <ele>17.6</ele>
        <time>2020-08-03T13:08:49Z</time>
      </trkpt>
      <trkpt lat="47.45944" lon="-2.49258">
        <ele>17.6</ele>
        <time>2020-08-03T13:08:50Z</time>
      </trkpt>
      <trkpt lat="47.45941" lon="-2.49261">
        <ele>17.8</ele>
        <time>2020-08-03T13:08:51Z</time>
      </trkpt>
      <trkpt lat="47.45938" lon="-2.49263">
        <ele>17.8</ele>
        <time>2020-08-03T13:08:52Z</time>
      </trkpt>
      <trkpt lat="47.45935" lon="-2.49265">
        <ele>17.6</ele>
        <time>2020-08-03T13:08:53Z</time>
      </trkpt>
      <trkpt lat="47.45931" lon="-2.49268">
        <ele>17.6</ele>
        <time>2020-08-03T13:08:54Z</time>
      </trkpt>
      <trkpt lat="47.45928" lon="-2.4927">
        <ele>17.6</ele>
        <time>2020-08-03T13:08:55Z</time>
      </trkpt>
      <trkpt lat="47.45925" lon="-2.49272">
        <ele>17.6</ele>
        <time>2020-08-03T13:08:56Z</time>
      </trkpt>
      <trkpt lat="47.45921" lon="-2.49275">
        <ele>17.6</ele>
        <time>2020-08-03T13:08:57Z</time>
      </trkpt>
      <trkpt lat="47.45918" lon="-2.49278">
        <ele>17.6</ele>
        <time>2020-08-03T13:08:58Z</time>
      </trkpt>
      <trkpt lat="47.45915" lon="-2.4928">
        <ele>17.6</ele>
        <time>2020-08-03T13:08:59Z</time>
      </trkpt>
      <trkpt lat="47.45911" lon="-2.49282">
        <ele>17.6</ele>
        <time>2020-08-03T13:09:00Z</time>
      </trkpt>
      <trkpt lat="47.45908" lon="-2.49285">
        <ele>17.8</ele>
        <time>2020-08-03T13:09:01Z</time>
      </trkpt>
      <trkpt lat="47.45904" lon="-2.49287">
        <ele>17.4</ele>
        <time>2020-08-03T13:09:02Z</time>
      </trkpt>
      <trkpt lat="47.45901" lon="-2.4929">
        <ele>17.6</ele>
        <time>2020-08-03T13:09:03Z</time>
      </trkpt>
      <trkpt lat="47.45897" lon="-2.49292">
        <ele>17.6</ele>
        <time>2020-08-03T13:09:04Z</time>
      </trkpt>
      <trkpt lat="47.45894" lon="-2.49294">
        <ele>17.4</ele>
        <time>2020-08-03T13:09:05Z</time>
      </trkpt>
      <trkpt lat="47.4589" lon="-2.49297">
        <ele>17.8</ele>
        <time>2020-08-03T13:09:06Z</time>
      </trkpt>
      <trkpt lat="47.45887" lon="-2.493">
        <ele>17.6</ele>
        <time>2020-08-03T13:09:07Z</time>
      </trkpt>
      <trkpt lat="47.45883" lon="-2.49302">
        <ele>17.6</ele>
        <time>2020-08-03T13:09:08Z</time>
      </trkpt>
      <trkpt lat="47.45879" lon="-2.49304">
        <ele>17.8</ele>
        <time>2020-08-03T13:09:09Z</time>
      </trkpt>
      <trkpt lat="47.45875" lon="-2.49307">
        <ele>17.4</ele>
        <time>2020-08-03T13:09:10Z</time>
      </trkpt>
      <trkpt lat="47.45872" lon="-2.49309">
        <ele>17.4</ele>
        <time>2020-08-03T13:09:11Z</time>
      </trkpt>
      <trkpt lat="47.45868" lon="-2.49312">
        <ele>17.2</ele>
        <time>2020-08-03T13:09:12Z</time>
      </trkpt>
      <trkpt lat="47.45864" lon="-2.49314">
        <ele>17.2</ele>
        <time>2020-08-03T13:09:13Z</time>
      </trkpt>
      <trkpt lat="47.45861" lon="-2.49316">
        <ele>17.2</ele>
        <time>2020-08-03T13:09:14Z</time>
      </trkpt>
      <trkpt lat="47.45857" lon="-2.49318">
        <ele>17</ele>
        <time>2020-08-03T13:09:15Z</time>
      </trkpt>
      <trkpt lat="47.45854" lon="-2.49321">
        <ele>17</ele>
        <time>2020-08-03T13:09:16Z</time>
      </trkpt>
      <trkpt lat="47.4585" lon="-2.49323">
        <ele>17</ele>
        <time>2020-08-03T13:09:17Z</time>
      </trkpt>
      <trkpt lat="47.45847" lon="-2.49326">
        <ele>16.8</ele>
        <time>2020-08-03T13:09:18Z</time>
      </trkpt>
      <trkpt lat="47.45843" lon="-2.49328">
        <ele>16.8</ele>
        <time>2020-08-03T13:09:19Z</time>
      </trkpt>
      <trkpt lat="47.4584" lon="-2.49331">
        <ele>16.8</ele>
        <time>2020-08-03T13:09:20Z</time>
      </trkpt>
      <trkpt lat="47.45836" lon="-2.49333">
        <ele>16.8</ele>
        <time>2020-08-03T13:09:21Z</time>
      </trkpt>
      <trkpt lat="47.45832" lon="-2.49336">
        <ele>16.8</ele>
        <time>2020-08-03T13:09:22Z</time>
      </trkpt>
      <trkpt lat="47.45828" lon="-2.49339">
        <ele>16.8</ele>
        <time>2020-08-03T13:09:23Z</time>
      </trkpt>
      <trkpt lat="47.45824" lon="-2.49341">
        <ele>16.8</ele>
        <time>2020-08-03T13:09:24Z</time>
      </trkpt>
      <trkpt lat="47.4582" lon="-2.49344">
        <ele>16.6</ele>
        <time>2020-08-03T13:09:25Z</time>
      </trkpt>
      <trkpt lat="47.45817" lon="-2.49347">
        <ele>16.4</ele>
        <time>2020-08-03T13:09:26Z</time>
      </trkpt>
      <trkpt lat="47.45812" lon="-2.4935">
        <ele>16.2</ele>
        <time>2020-08-03T13:09:27Z</time>
      </trkpt>
      <trkpt lat="47.45808" lon="-2.49353">
        <ele>16</ele>
        <time>2020-08-03T13:09:28Z</time>
      </trkpt>
      <trkpt lat="47.45804" lon="-2.49355">
        <ele>15.8</ele>
        <time>2020-08-03T13:09:29Z</time>
      </trkpt>
      <trkpt lat="47.458" lon="-2.49358">
        <ele>15.8</ele>
        <time>2020-08-03T13:09:30Z</time>
      </trkpt>
      <trkpt lat="47.45796" lon="-2.49361">
        <ele>15.8</ele>
        <time>2020-08-03T13:09:31Z</time>
      </trkpt>
      <trkpt lat="47.45792" lon="-2.49364">
        <ele>15.6</ele>
        <time>2020-08-03T13:09:32Z</time>
      </trkpt>
      <trkpt lat="47.45788" lon="-2.49367">
        <ele>15.4</ele>
        <time>2020-08-03T13:09:33Z</time>
      </trkpt>
      <trkpt lat="47.45785" lon="-2.49369">
        <ele>15.2</ele>
        <time>2020-08-03T13:09:34Z</time>
      </trkpt>
      <trkpt lat="47.45782" lon="-2.49371">
        <ele>15</ele>
        <time>2020-08-03T13:09:35Z</time>
      </trkpt>
      <trkpt lat="47.45779" lon="-2.49373">
        <ele>15</ele>
        <time>2020-08-03T13:09:36Z</time>
      </trkpt>
      <trkpt lat="47.45777" lon="-2.49375">
        <ele>14.8</ele>
        <time>2020-08-03T13:09:37Z</time>
      </trkpt>
      <trkpt lat="47.45774" lon="-2.49377">
        <ele>14.6</ele>
        <time>2020-08-03T13:09:38Z</time>
      </trkpt>
      <trkpt lat="47.45771" lon="-2.49379">
        <ele>14.6</ele>
        <time>2020-08-03T13:09:39Z</time>
      </trkpt>
      <trkpt lat="47.45768" lon="-2.49381">
        <ele>14.4</ele>
        <time>2020-08-03T13:09:40Z</time>
      </trkpt>
      <trkpt lat="47.45766" lon="-2.49384">
        <ele>14.4</ele>
        <time>2020-08-03T13:09:41Z</time>
      </trkpt>
      <trkpt lat="47.45763" lon="-2.49387">
        <ele>14.4</ele>
        <time>2020-08-03T13:09:42Z</time>
      </trkpt>
      <trkpt lat="47.4576" lon="-2.4939">
        <ele>14.2</ele>
        <time>2020-08-03T13:09:43Z</time>
      </trkpt>
      <trkpt lat="47.45758" lon="-2.49393">
        <ele>14</ele>
        <time>2020-08-03T13:09:44Z</time>
      </trkpt>
      <trkpt lat="47.45755" lon="-2.49396">
        <ele>14</ele>
        <time>2020-08-03T13:09:45Z</time>
      </trkpt>
      <trkpt lat="47.45752" lon="-2.494">
        <ele>14.2</ele>
        <time>2020-08-03T13:09:46Z</time>
      </trkpt>
      <trkpt lat="47.45749" lon="-2.49404">
        <ele>13.8</ele>
        <time>2020-08-03T13:09:47Z</time>
      </trkpt>
      <trkpt lat="47.45746" lon="-2.49409">
        <ele>13.4</ele>
        <time>2020-08-03T13:09:48Z</time>
      </trkpt>
      <trkpt lat="47.45743" lon="-2.49414">
        <ele>13.2</ele>
        <time>2020-08-03T13:09:49Z</time>
      </trkpt>
      <trkpt lat="47.4574" lon="-2.49419">
        <ele>13</ele>
        <time>2020-08-03T13:09:50Z</time>
      </trkpt>
      <trkpt lat="47.45737" lon="-2.49424">
        <ele>12.8</ele>
        <time>2020-08-03T13:09:51Z</time>
      </trkpt>
      <trkpt lat="47.45734" lon="-2.4943">
        <ele>12.6</ele>
        <time>2020-08-03T13:09:52Z</time>
      </trkpt>
      <trkpt lat="47.45731" lon="-2.49436">
        <ele>12.6</ele>
        <time>2020-08-03T13:09:53Z</time>
      </trkpt>
      <trkpt lat="47.45729" lon="-2.49442">
        <ele>12.4</ele>
        <time>2020-08-03T13:09:54Z</time>
      </trkpt>
      <trkpt lat="47.45727" lon="-2.49449">
        <ele>12.4</ele>
        <time>2020-08-03T13:09:55Z</time>
      </trkpt>
      <trkpt lat="47.45725" lon="-2.49456">
        <ele>12</ele>
        <time>2020-08-03T13:09:56Z</time>
      </trkpt>
      <trkpt lat="47.45723" lon="-2.49463">
        <ele>11.8</ele>
        <time>2020-08-03T13:09:57Z</time>
      </trkpt>
      <trkpt lat="47.45721" lon="-2.4947">
        <ele>11.6</ele>
        <time>2020-08-03T13:09:58Z</time>
      </trkpt>
      <trkpt lat="47.4572" lon="-2.49478">
        <ele>11.4</ele>
        <time>2020-08-03T13:09:59Z</time>
      </trkpt>
      <trkpt lat="47.45719" lon="-2.49485">
        <ele>11.2</ele>
        <time>2020-08-03T13:10:00Z</time>
      </trkpt>
      <trkpt lat="47.45717" lon="-2.49492">
        <ele>11.4</ele>
        <time>2020-08-03T13:10:01Z</time>
      </trkpt>
      <trkpt lat="47.45716" lon="-2.495">
        <ele>11</ele>
        <time>2020-08-03T13:10:02Z</time>
      </trkpt>
      <trkpt lat="47.45716" lon="-2.49507">
        <ele>11</ele>
        <time>2020-08-03T13:10:03Z</time>
      </trkpt>
      <trkpt lat="47.45716" lon="-2.49514">
        <ele>11.2</ele>
        <time>2020-08-03T13:10:04Z</time>
      </trkpt>
      <trkpt lat="47.45716" lon="-2.49522">
        <ele>11.2</ele>
        <time>2020-08-03T13:10:05Z</time>
      </trkpt>
      <trkpt lat="47.45716" lon="-2.49529">
        <ele>11</ele>
        <time>2020-08-03T13:10:06Z</time>
      </trkpt>
      <trkpt lat="47.45717" lon="-2.49536">
        <ele>10.8</ele>
        <time>2020-08-03T13:10:07Z</time>
      </trkpt>
      <trkpt lat="47.45717" lon="-2.49543">
        <ele>10.8</ele>
        <time>2020-08-03T13:10:08Z</time>
      </trkpt>
      <trkpt lat="47.45718" lon="-2.49551">
        <ele>10.6</ele>
        <time>2020-08-03T13:10:09Z</time>
      </trkpt>
      <trkpt lat="47.45719" lon="-2.49558">
        <ele>10.6</ele>
        <time>2020-08-03T13:10:10Z</time>
      </trkpt>
      <trkpt lat="47.4572" lon="-2.49566">
        <ele>10.6</ele>
        <time>2020-08-03T13:10:11Z</time>
      </trkpt>
      <trkpt lat="47.45721" lon="-2.49573">
        <ele>10.6</ele>
        <time>2020-08-03T13:10:12Z</time>
      </trkpt>
      <trkpt lat="47.45722" lon="-2.4958">
        <ele>10.4</ele>
        <time>2020-08-03T13:10:13Z</time>
      </trkpt>
      <trkpt lat="47.45723" lon="-2.49587">
        <ele>10.4</ele>
        <time>2020-08-03T13:10:14Z</time>
      </trkpt>
      <trkpt lat="47.45724" lon="-2.49595">
        <ele>10.4</ele>
        <time>2020-08-03T13:10:15Z</time>
      </trkpt>
      <trkpt lat="47.45725" lon="-2.49602">
        <ele>10.2</ele>
        <time>2020-08-03T13:10:16Z</time>
      </trkpt>
      <trkpt lat="47.45726" lon="-2.49609">
        <ele>10.2</ele>
        <time>2020-08-03T13:10:17Z</time>
      </trkpt>
      <trkpt lat="47.45727" lon="-2.49616">
        <ele>10.4</ele>
        <time>2020-08-03T13:10:18Z</time>
      </trkpt>
      <trkpt lat="47.45727" lon="-2.49623">
        <ele>10.4</ele>
        <time>2020-08-03T13:10:19Z</time>
      </trkpt>
      <trkpt lat="47.45728" lon="-2.4963">
        <ele>10.4</ele>
        <time>2020-08-03T13:10:20Z</time>
      </trkpt>
      <trkpt lat="47.45729" lon="-2.49637">
        <ele>10.6</ele>
        <time>2020-08-03T13:10:21Z</time>
      </trkpt>
      <trkpt lat="47.4573" lon="-2.49644">
        <ele>10.6</ele>
        <time>2020-08-03T13:10:22Z</time>
      </trkpt>
      <trkpt lat="47.45731" lon="-2.4965">
        <ele>10.6</ele>
        <time>2020-08-03T13:10:23Z</time>
      </trkpt>
      <trkpt lat="47.45732" lon="-2.49657">
        <ele>10.4</ele>
        <time>2020-08-03T13:10:24Z</time>
      </trkpt>
      <trkpt lat="47.45733" lon="-2.49663">
        <ele>10.2</ele>
        <time>2020-08-03T13:10:25Z</time>
      </trkpt>
      <trkpt lat="47.45734" lon="-2.4967">
        <ele>10</ele>
        <time>2020-08-03T13:10:26Z</time>
      </trkpt>
      <trkpt lat="47.45735" lon="-2.49676">
        <ele>10</ele>
        <time>2020-08-03T13:10:27Z</time>
      </trkpt>
      <trkpt lat="47.45736" lon="-2.49682">
        <ele>10</ele>
        <time>2020-08-03T13:10:28Z</time>
      </trkpt>
      <trkpt lat="47.45737" lon="-2.49688">
        <ele>9.8</ele>
        <time>2020-08-03T13:10:29Z</time>
      </trkpt>
      <trkpt lat="47.45738" lon="-2.49694">
        <ele>9.8</ele>
        <time>2020-08-03T13:10:30Z</time>
      </trkpt>
      <trkpt lat="47.45738" lon="-2.497">
        <ele>10</ele>
        <time>2020-08-03T13:10:31Z</time>
      </trkpt>
      <trkpt lat="47.45739" lon="-2.49706">
        <ele>9.8</ele>
        <time>2020-08-03T13:10:32Z</time>
      </trkpt>
      <trkpt lat="47.45739" lon="-2.49712">
        <ele>9.8</ele>
        <time>2020-08-03T13:10:33Z</time>
      </trkpt>
      <trkpt lat="47.4574" lon="-2.49718">
        <ele>9.8</ele>
        <time>2020-08-03T13:10:34Z</time>
      </trkpt>
      <trkpt lat="47.4574" lon="-2.49723">
        <ele>9.6</ele>
        <time>2020-08-03T13:10:35Z</time>
      </trkpt>
      <trkpt lat="47.4574" lon="-2.49728">
        <ele>9.6</ele>
        <time>2020-08-03T13:10:36Z</time>
      </trkpt>
      <trkpt lat="47.45739" lon="-2.49734">
        <ele>9.6</ele>
        <time>2020-08-03T13:10:37Z</time>
      </trkpt>
      <trkpt lat="47.45739" lon="-2.49739">
        <ele>9.6</ele>
        <time>2020-08-03T13:10:38Z</time>
      </trkpt>
      <trkpt lat="47.45738" lon="-2.49744">
        <ele>9.6</ele>
        <time>2020-08-03T13:10:39Z</time>
      </trkpt>
      <trkpt lat="47.45737" lon="-2.49748">
        <ele>9.8</ele>
        <time>2020-08-03T13:10:40Z</time>
      </trkpt>
      <trkpt lat="47.45735" lon="-2.49753">
        <ele>9.8</ele>
        <time>2020-08-03T13:10:41Z</time>
      </trkpt>
      <trkpt lat="47.45733" lon="-2.49757">
        <ele>9.8</ele>
        <time>2020-08-03T13:10:42Z</time>
      </trkpt>
      <trkpt lat="47.4573" lon="-2.49761">
        <ele>9.8</ele>
        <time>2020-08-03T13:10:43Z</time>
      </trkpt>
      <trkpt lat="47.45727" lon="-2.49764">
        <ele>10</ele>
        <time>2020-08-03T13:10:44Z</time>
      </trkpt>
      <trkpt lat="47.45724" lon="-2.49767">
        <ele>10</ele>
        <time>2020-08-03T13:10:45Z</time>
      </trkpt>
      <trkpt lat="47.45721" lon="-2.49769">
        <ele>10.2</ele>
        <time>2020-08-03T13:10:46Z</time>
      </trkpt>
      <trkpt lat="47.45718" lon="-2.49771">
        <ele>10.4</ele>
        <time>2020-08-03T13:10:47Z</time>
      </trkpt>
      <trkpt lat="47.45715" lon="-2.49772">
        <ele>10.6</ele>
        <time>2020-08-03T13:10:48Z</time>
      </trkpt>
      <trkpt lat="47.45712" lon="-2.49774">
        <ele>10.6</ele>
        <time>2020-08-03T13:10:49Z</time>
      </trkpt>
      <trkpt lat="47.45709" lon="-2.49775">
        <ele>10.8</ele>
        <time>2020-08-03T13:10:50Z</time>
      </trkpt>
      <trkpt lat="47.45706" lon="-2.49777">
        <ele>11</ele>
        <time>2020-08-03T13:10:51Z</time>
      </trkpt>
      <trkpt lat="47.45703" lon="-2.49777">
        <ele>11.2</ele>
        <time>2020-08-03T13:10:52Z</time>
      </trkpt>
      <trkpt lat="47.457" lon="-2.49778">
        <ele>11.2</ele>
        <time>2020-08-03T13:10:53Z</time>
      </trkpt>
      <trkpt lat="47.45697" lon="-2.49779">
        <ele>11.6</ele>
        <time>2020-08-03T13:10:54Z</time>
      </trkpt>
      <trkpt lat="47.45694" lon="-2.49779">
        <ele>11.6</ele>
        <time>2020-08-03T13:10:55Z</time>
      </trkpt>
      <trkpt lat="47.45692" lon="-2.49779">
        <ele>11.6</ele>
        <time>2020-08-03T13:10:56Z</time>
      </trkpt>
      <trkpt lat="47.45688" lon="-2.49779">
        <ele>11.6</ele>
        <time>2020-08-03T13:10:57Z</time>
      </trkpt>
      <trkpt lat="47.45685" lon="-2.49779">
        <ele>12</ele>
        <time>2020-08-03T13:10:58Z</time>
      </trkpt>
      <trkpt lat="47.45682" lon="-2.49778">
        <ele>12</ele>
        <time>2020-08-03T13:10:59Z</time>
      </trkpt>
      <trkpt lat="47.45679" lon="-2.49777">
        <ele>12</ele>
        <time>2020-08-03T13:11:00Z</time>
      </trkpt>
      <trkpt lat="47.45676" lon="-2.49775">
        <ele>12.2</ele>
        <time>2020-08-03T13:11:01Z</time>
      </trkpt>
      <trkpt lat="47.45673" lon="-2.49774">
        <ele>12</ele>
        <time>2020-08-03T13:11:02Z</time>
      </trkpt>
      <trkpt lat="47.4567" lon="-2.49772">
        <ele>12</ele>
        <time>2020-08-03T13:11:03Z</time>
      </trkpt>
      <trkpt lat="47.45668" lon="-2.4977">
        <ele>12.2</ele>
        <time>2020-08-03T13:11:04Z</time>
      </trkpt>
      <trkpt lat="47.45665" lon="-2.49769">
        <ele>12</ele>
        <time>2020-08-03T13:11:05Z</time>
      </trkpt>
      <trkpt lat="47.45663" lon="-2.49769">
        <ele>12.2</ele>
        <time>2020-08-03T13:11:06Z</time>
      </trkpt>
      <trkpt lat="47.4566" lon="-2.49768">
        <ele>12.4</ele>
        <time>2020-08-03T13:11:07Z</time>
      </trkpt>
      <trkpt lat="47.45659" lon="-2.49766">
        <ele>12.4</ele>
        <time>2020-08-03T13:11:08Z</time>
      </trkpt>
      <trkpt lat="47.45657" lon="-2.49764">
        <ele>12.6</ele>
        <time>2020-08-03T13:11:09Z</time>
      </trkpt>
      <trkpt lat="47.45656" lon="-2.49763">
        <ele>13.6</ele>
        <time>2020-08-03T13:11:10Z</time>
      </trkpt>
      <trkpt lat="47.45655" lon="-2.49761">
        <ele>13.8</ele>
        <time>2020-08-03T13:11:11Z</time>
      </trkpt>
      <trkpt lat="47.45654" lon="-2.49759">
        <ele>13.6</ele>
        <time>2020-08-03T13:11:12Z</time>
      </trkpt>
      <trkpt lat="47.45653" lon="-2.49757">
        <ele>13.2</ele>
        <time>2020-08-03T13:11:13Z</time>
      </trkpt>
      <trkpt lat="47.45651" lon="-2.49755">
        <ele>13.2</ele>
        <time>2020-08-03T13:11:14Z</time>
      </trkpt>
      <trkpt lat="47.4565" lon="-2.49753">
        <ele>13.2</ele>
        <time>2020-08-03T13:11:15Z</time>
      </trkpt>
      <trkpt lat="47.45649" lon="-2.49751">
        <ele>13.2</ele>
        <time>2020-08-03T13:11:16Z</time>
      </trkpt>
      <trkpt lat="47.45648" lon="-2.49749">
        <ele>13.2</ele>
        <time>2020-08-03T13:11:17Z</time>
      </trkpt>
      <trkpt lat="47.45646" lon="-2.49747">
        <ele>14</ele>
        <time>2020-08-03T13:11:18Z</time>
      </trkpt>
      <trkpt lat="47.45645" lon="-2.49745">
        <ele>14</ele>
        <time>2020-08-03T13:11:19Z</time>
      </trkpt>
      <trkpt lat="47.45644" lon="-2.49743">
        <ele>13.6</ele>
        <time>2020-08-03T13:11:20Z</time>
      </trkpt>
      <trkpt lat="47.45642" lon="-2.49741">
        <ele>13.4</ele>
        <time>2020-08-03T13:11:21Z</time>
      </trkpt>
      <trkpt lat="47.45641" lon="-2.49739">
        <ele>12.8</ele>
        <time>2020-08-03T13:11:22Z</time>
      </trkpt>
      <trkpt lat="47.45639" lon="-2.49738">
        <ele>13</ele>
        <time>2020-08-03T13:11:23Z</time>
      </trkpt>
      <trkpt lat="47.45638" lon="-2.49737">
        <ele>13.6</ele>
        <time>2020-08-03T13:11:24Z</time>
      </trkpt>
      <trkpt lat="47.45637" lon="-2.49736">
        <ele>13.6</ele>
        <time>2020-08-03T13:11:25Z</time>
      </trkpt>
      <trkpt lat="47.45636" lon="-2.49735">
        <ele>13.2</ele>
        <time>2020-08-03T13:11:26Z</time>
      </trkpt>
      <trkpt lat="47.45635" lon="-2.49733">
        <ele>12.8</ele>
        <time>2020-08-03T13:11:27Z</time>
      </trkpt>
      <trkpt lat="47.45634" lon="-2.49731">
        <ele>13.2</ele>
        <time>2020-08-03T13:11:28Z</time>
      </trkpt>
      <trkpt lat="47.45633" lon="-2.4973">
        <ele>14.2</ele>
        <time>2020-08-03T13:11:29Z</time>
      </trkpt>
      <trkpt lat="47.45631" lon="-2.4973">
        <ele>14.8</ele>
        <time>2020-08-03T13:11:30Z</time>
      </trkpt>
      <trkpt lat="47.45629" lon="-2.49729">
        <ele>14.6</ele>
        <time>2020-08-03T13:11:31Z</time>
      </trkpt>
      <trkpt lat="47.45628" lon="-2.49728">
        <ele>14.4</ele>
        <time>2020-08-03T13:11:32Z</time>
      </trkpt>
      <trkpt lat="47.45627" lon="-2.49728">
        <ele>14.6</ele>
        <time>2020-08-03T13:11:33Z</time>
      </trkpt>
      <trkpt lat="47.45626" lon="-2.49728">
        <ele>14.4</ele>
        <time>2020-08-03T13:11:34Z</time>
      </trkpt>
      <trkpt lat="47.45626" lon="-2.49728">
        <ele>14.4</ele>
        <time>2020-08-03T13:11:35Z</time>
      </trkpt>
      <trkpt lat="47.45626" lon="-2.49728">
        <ele>14.4</ele>
        <time>2020-08-03T13:11:36Z</time>
      </trkpt>
      <trkpt lat="47.45626" lon="-2.49728">
        <ele>15</ele>
        <time>2020-08-03T13:11:37Z</time>
      </trkpt>
      <trkpt lat="47.45626" lon="-2.49728">
        <ele>14.6</ele>
        <time>2020-08-03T13:11:38Z</time>
      </trkpt>
      <trkpt lat="47.45626" lon="-2.49728">
        <ele>14.8</ele>
        <time>2020-08-03T13:11:39Z</time>
      </trkpt>
      <trkpt lat="47.45626" lon="-2.49728">
        <ele>14.4</ele>
        <time>2020-08-03T13:11:40Z</time>
      </trkpt>
      <trkpt lat="47.45626" lon="-2.49728">
        <ele>14.4</ele>
        <time>2020-08-03T13:11:41Z</time>
      </trkpt>
      <trkpt lat="47.45619" lon="-2.4971">
        <ele>14.2</ele>
        <time>2020-08-03T13:12:26Z</time>
      </trkpt>
      <trkpt lat="47.45618" lon="-2.49709">
        <ele>14.6</ele>
        <time>2020-08-03T13:12:27Z</time>
      </trkpt>
      <trkpt lat="47.45616" lon="-2.49707">
        <ele>15</ele>
        <time>2020-08-03T13:12:28Z</time>
      </trkpt>
      <trkpt lat="47.45614" lon="-2.49705">
        <ele>15</ele>
        <time>2020-08-03T13:12:29Z</time>
      </trkpt>
      <trkpt lat="47.45612" lon="-2.49703">
        <ele>15.2</ele>
        <time>2020-08-03T13:12:30Z</time>
      </trkpt>
      <trkpt lat="47.4561" lon="-2.49701">
        <ele>14.6</ele>
        <time>2020-08-03T13:12:31Z</time>
      </trkpt>
      <trkpt lat="47.45608" lon="-2.49699">
        <ele>15.2</ele>
        <time>2020-08-03T13:12:32Z</time>
      </trkpt>
      <trkpt lat="47.45606" lon="-2.49697">
        <ele>16.2</ele>
        <time>2020-08-03T13:12:33Z</time>
      </trkpt>
      <trkpt lat="47.45604" lon="-2.49695">
        <ele>16.2</ele>
        <time>2020-08-03T13:12:34Z</time>
      </trkpt>
      <trkpt lat="47.45602" lon="-2.49694">
        <ele>16.2</ele>
        <time>2020-08-03T13:12:35Z</time>
      </trkpt>
      <trkpt lat="47.456" lon="-2.49693">
        <ele>16</ele>
        <time>2020-08-03T13:12:36Z</time>
      </trkpt>
      <trkpt lat="47.45598" lon="-2.49692">
        <ele>15.8</ele>
        <time>2020-08-03T13:12:37Z</time>
      </trkpt>
      <trkpt lat="47.45595" lon="-2.49691">
        <ele>16.2</ele>
        <time>2020-08-03T13:12:38Z</time>
      </trkpt>
      <trkpt lat="47.45593" lon="-2.49689">
        <ele>16.2</ele>
        <time>2020-08-03T13:12:39Z</time>
      </trkpt>
      <trkpt lat="47.45591" lon="-2.49688">
        <ele>16.2</ele>
        <time>2020-08-03T13:12:40Z</time>
      </trkpt>
      <trkpt lat="47.45589" lon="-2.49687">
        <ele>16</ele>
        <time>2020-08-03T13:12:41Z</time>
      </trkpt>
      <trkpt lat="47.45586" lon="-2.49686">
        <ele>16</ele>
        <time>2020-08-03T13:12:42Z</time>
      </trkpt>
      <trkpt lat="47.45584" lon="-2.49685">
        <ele>16</ele>
        <time>2020-08-03T13:12:43Z</time>
      </trkpt>
      <trkpt lat="47.45581" lon="-2.49684">
        <ele>16</ele>
        <time>2020-08-03T13:12:44Z</time>
      </trkpt>
      <trkpt lat="47.45579" lon="-2.49683">
        <ele>16.4</ele>
        <time>2020-08-03T13:12:45Z</time>
      </trkpt>
      <trkpt lat="47.45576" lon="-2.49682">
        <ele>16.6</ele>
        <time>2020-08-03T13:12:46Z</time>
      </trkpt>
      <trkpt lat="47.45574" lon="-2.4968">
        <ele>16.6</ele>
        <time>2020-08-03T13:12:47Z</time>
      </trkpt>
      <trkpt lat="47.45572" lon="-2.49678">
        <ele>16.6</ele>
        <time>2020-08-03T13:12:48Z</time>
      </trkpt>
      <trkpt lat="47.45569" lon="-2.49676">
        <ele>16.6</ele>
        <time>2020-08-03T13:12:49Z</time>
      </trkpt>
      <trkpt lat="47.45567" lon="-2.49674">
        <ele>16.4</ele>
        <time>2020-08-03T13:12:50Z</time>
      </trkpt>
      <trkpt lat="47.45566" lon="-2.49672">
        <ele>16.4</ele>
        <time>2020-08-03T13:12:51Z</time>
      </trkpt>
      <trkpt lat="47.45565" lon="-2.4967">
        <ele>16.6</ele>
        <time>2020-08-03T13:12:52Z</time>
      </trkpt>
      <trkpt lat="47.45563" lon="-2.49668">
        <ele>16.8</ele>
        <time>2020-08-03T13:12:53Z</time>
      </trkpt>
      <trkpt lat="47.45563" lon="-2.49667">
        <ele>16.8</ele>
        <time>2020-08-03T13:12:54Z</time>
      </trkpt>
      <trkpt lat="47.45562" lon="-2.49666">
        <ele>16.4</ele>
        <time>2020-08-03T13:12:55Z</time>
      </trkpt>
      <trkpt lat="47.45561" lon="-2.49664">
        <ele>16.6</ele>
        <time>2020-08-03T13:12:56Z</time>
      </trkpt>
      <trkpt lat="47.4556" lon="-2.49663">
        <ele>16.2</ele>
        <time>2020-08-03T13:12:57Z</time>
      </trkpt>
      <trkpt lat="47.4556" lon="-2.49661">
        <ele>15.4</ele>
        <time>2020-08-03T13:12:58Z</time>
      </trkpt>
      <trkpt lat="47.45559" lon="-2.4966">
        <ele>14.8</ele>
        <time>2020-08-03T13:12:59Z</time>
      </trkpt>
      <trkpt lat="47.45558" lon="-2.49658">
        <ele>15</ele>
        <time>2020-08-03T13:13:00Z</time>
      </trkpt>
      <trkpt lat="47.45558" lon="-2.49657">
        <ele>15.2</ele>
        <time>2020-08-03T13:13:01Z</time>
      </trkpt>
      <trkpt lat="47.45557" lon="-2.49655">
        <ele>15.2</ele>
        <time>2020-08-03T13:13:02Z</time>
      </trkpt>
      <trkpt lat="47.45557" lon="-2.49654">
        <ele>14.8</ele>
        <time>2020-08-03T13:13:03Z</time>
      </trkpt>
      <trkpt lat="47.45557" lon="-2.49653">
        <ele>15.4</ele>
        <time>2020-08-03T13:13:04Z</time>
      </trkpt>
      <trkpt lat="47.45557" lon="-2.49653">
        <ele>16.2</ele>
        <time>2020-08-03T13:13:05Z</time>
      </trkpt>
      <trkpt lat="47.45557" lon="-2.49652">
        <ele>15.2</ele>
        <time>2020-08-03T13:13:06Z</time>
      </trkpt>
      <trkpt lat="47.45557" lon="-2.49652">
        <ele>14.2</ele>
        <time>2020-08-03T13:13:07Z</time>
      </trkpt>
      <trkpt lat="47.45557" lon="-2.49652">
        <ele>14.6</ele>
        <time>2020-08-03T13:13:08Z</time>
      </trkpt>
      <trkpt lat="47.45557" lon="-2.49652">
        <ele>15.4</ele>
        <time>2020-08-03T13:13:09Z</time>
      </trkpt>
      <trkpt lat="47.45556" lon="-2.49651">
        <ele>15.6</ele>
        <time>2020-08-03T13:13:10Z</time>
      </trkpt>
      <trkpt lat="47.45556" lon="-2.4965">
        <ele>15.4</ele>
        <time>2020-08-03T13:13:11Z</time>
      </trkpt>
      <trkpt lat="47.45548" lon="-2.49633">
        <ele>16.6</ele>
        <time>2020-08-03T13:13:18Z</time>
      </trkpt>
      <trkpt lat="47.45546" lon="-2.4963">
        <ele>17.2</ele>
        <time>2020-08-03T13:13:19Z</time>
      </trkpt>
      <trkpt lat="47.45545" lon="-2.49627">
        <ele>17.4</ele>
        <time>2020-08-03T13:13:20Z</time>
      </trkpt>
      <trkpt lat="47.45543" lon="-2.49624">
        <ele>18</ele>
        <time>2020-08-03T13:13:21Z</time>
      </trkpt>
      <trkpt lat="47.45541" lon="-2.49622">
        <ele>17.8</ele>
        <time>2020-08-03T13:13:22Z</time>
      </trkpt>
      <trkpt lat="47.45539" lon="-2.49621">
        <ele>17.8</ele>
        <time>2020-08-03T13:13:23Z</time>
      </trkpt>
      <trkpt lat="47.45537" lon="-2.49619">
        <ele>17.6</ele>
        <time>2020-08-03T13:13:24Z</time>
      </trkpt>
      <trkpt lat="47.45535" lon="-2.49617">
        <ele>17.6</ele>
        <time>2020-08-03T13:13:25Z</time>
      </trkpt>
      <trkpt lat="47.45532" lon="-2.49616">
        <ele>19</ele>
        <time>2020-08-03T13:13:26Z</time>
      </trkpt>
      <trkpt lat="47.4553" lon="-2.49614">
        <ele>19.2</ele>
        <time>2020-08-03T13:13:27Z</time>
      </trkpt>
      <trkpt lat="47.45528" lon="-2.49612">
        <ele>18.8</ele>
        <time>2020-08-03T13:13:28Z</time>
      </trkpt>
      <trkpt lat="47.45527" lon="-2.49611">
        <ele>18.4</ele>
        <time>2020-08-03T13:13:29Z</time>
      </trkpt>
      <trkpt lat="47.45525" lon="-2.49609">
        <ele>18.2</ele>
        <time>2020-08-03T13:13:30Z</time>
      </trkpt>
      <trkpt lat="47.45523" lon="-2.49607">
        <ele>17.8</ele>
        <time>2020-08-03T13:13:31Z</time>
      </trkpt>
      <trkpt lat="47.45521" lon="-2.49605">
        <ele>17.8</ele>
        <time>2020-08-03T13:13:32Z</time>
      </trkpt>
      <trkpt lat="47.4552" lon="-2.49604">
        <ele>17.8</ele>
        <time>2020-08-03T13:13:33Z</time>
      </trkpt>
      <trkpt lat="47.45518" lon="-2.49602">
        <ele>17.6</ele>
        <time>2020-08-03T13:13:34Z</time>
      </trkpt>
      <trkpt lat="47.45516" lon="-2.496">
        <ele>17.4</ele>
        <time>2020-08-03T13:13:35Z</time>
      </trkpt>
      <trkpt lat="47.45515" lon="-2.49598">
        <ele>17.6</ele>
        <time>2020-08-03T13:13:36Z</time>
      </trkpt>
      <trkpt lat="47.45513" lon="-2.49596">
        <ele>17.6</ele>
        <time>2020-08-03T13:13:37Z</time>
      </trkpt>
      <trkpt lat="47.45512" lon="-2.49594">
        <ele>18</ele>
        <time>2020-08-03T13:13:38Z</time>
      </trkpt>
      <trkpt lat="47.4551" lon="-2.49592">
        <ele>18</ele>
        <time>2020-08-03T13:13:39Z</time>
      </trkpt>
      <trkpt lat="47.45509" lon="-2.49591">
        <ele>18.4</ele>
        <time>2020-08-03T13:13:40Z</time>
      </trkpt>
      <trkpt lat="47.45507" lon="-2.49589">
        <ele>19</ele>
        <time>2020-08-03T13:13:41Z</time>
      </trkpt>
      <trkpt lat="47.45505" lon="-2.49588">
        <ele>18.6</ele>
        <time>2020-08-03T13:13:42Z</time>
      </trkpt>
      <trkpt lat="47.45503" lon="-2.49586">
        <ele>18.8</ele>
        <time>2020-08-03T13:13:43Z</time>
      </trkpt>
      <trkpt lat="47.45502" lon="-2.49584">
        <ele>19</ele>
        <time>2020-08-03T13:13:44Z</time>
      </trkpt>
      <trkpt lat="47.455" lon="-2.49582">
        <ele>20</ele>
        <time>2020-08-03T13:13:45Z</time>
      </trkpt>
      <trkpt lat="47.45498" lon="-2.4958">
        <ele>20</ele>
        <time>2020-08-03T13:13:46Z</time>
      </trkpt>
      <trkpt lat="47.45496" lon="-2.49579">
        <ele>19.6</ele>
        <time>2020-08-03T13:13:47Z</time>
      </trkpt>
      <trkpt lat="47.45495" lon="-2.49577">
        <ele>19.4</ele>
        <time>2020-08-03T13:13:48Z</time>
      </trkpt>
      <trkpt lat="47.45493" lon="-2.49576">
        <ele>19.2</ele>
        <time>2020-08-03T13:13:49Z</time>
      </trkpt>
      <trkpt lat="47.45491" lon="-2.49574">
        <ele>19</ele>
        <time>2020-08-03T13:13:50Z</time>
      </trkpt>
      <trkpt lat="47.4549" lon="-2.49573">
        <ele>19</ele>
        <time>2020-08-03T13:13:51Z</time>
      </trkpt>
      <trkpt lat="47.45488" lon="-2.49571">
        <ele>19.6</ele>
        <time>2020-08-03T13:13:52Z</time>
      </trkpt>
      <trkpt lat="47.45487" lon="-2.49569">
        <ele>19.2</ele>
        <time>2020-08-03T13:13:53Z</time>
      </trkpt>
      <trkpt lat="47.45485" lon="-2.49567">
        <ele>19.2</ele>
        <time>2020-08-03T13:13:54Z</time>
      </trkpt>
      <trkpt lat="47.45484" lon="-2.49565">
        <ele>18.8</ele>
        <time>2020-08-03T13:13:55Z</time>
      </trkpt>
      <trkpt lat="47.45483" lon="-2.49564">
        <ele>18.6</ele>
        <time>2020-08-03T13:13:56Z</time>
      </trkpt>
      <trkpt lat="47.45481" lon="-2.49563">
        <ele>18.6</ele>
        <time>2020-08-03T13:13:57Z</time>
      </trkpt>
      <trkpt lat="47.4548" lon="-2.4956">
        <ele>18.4</ele>
        <time>2020-08-03T13:13:58Z</time>
      </trkpt>
      <trkpt lat="47.45478" lon="-2.49557">
        <ele>18.4</ele>
        <time>2020-08-03T13:13:59Z</time>
      </trkpt>
      <trkpt lat="47.45477" lon="-2.49555">
        <ele>18.4</ele>
        <time>2020-08-03T13:14:00Z</time>
      </trkpt>
      <trkpt lat="47.45475" lon="-2.49552">
        <ele>18.6</ele>
        <time>2020-08-03T13:14:01Z</time>
      </trkpt>
      <trkpt lat="47.45473" lon="-2.49549">
        <ele>18.2</ele>
        <time>2020-08-03T13:14:02Z</time>
      </trkpt>
      <trkpt lat="47.45471" lon="-2.49548">
        <ele>18.2</ele>
        <time>2020-08-03T13:14:03Z</time>
      </trkpt>
      <trkpt lat="47.45469" lon="-2.49545">
        <ele>18</ele>
        <time>2020-08-03T13:14:04Z</time>
      </trkpt>
      <trkpt lat="47.45467" lon="-2.49543">
        <ele>18</ele>
        <time>2020-08-03T13:14:05Z</time>
      </trkpt>
      <trkpt lat="47.45465" lon="-2.4954">
        <ele>18</ele>
        <time>2020-08-03T13:14:06Z</time>
      </trkpt>
      <trkpt lat="47.45463" lon="-2.49538">
        <ele>18</ele>
        <time>2020-08-03T13:14:07Z</time>
      </trkpt>
      <trkpt lat="47.45461" lon="-2.49535">
        <ele>17.8</ele>
        <time>2020-08-03T13:14:08Z</time>
      </trkpt>
      <trkpt lat="47.45459" lon="-2.49533">
        <ele>18</ele>
        <time>2020-08-03T13:14:09Z</time>
      </trkpt>
      <trkpt lat="47.45457" lon="-2.49531">
        <ele>18.8</ele>
        <time>2020-08-03T13:14:10Z</time>
      </trkpt>
      <trkpt lat="47.45455" lon="-2.49529">
        <ele>19.8</ele>
        <time>2020-08-03T13:14:11Z</time>
      </trkpt>
      <trkpt lat="47.45453" lon="-2.49528">
        <ele>19.4</ele>
        <time>2020-08-03T13:14:12Z</time>
      </trkpt>
      <trkpt lat="47.45451" lon="-2.49526">
        <ele>19</ele>
        <time>2020-08-03T13:14:13Z</time>
      </trkpt>
      <trkpt lat="47.45449" lon="-2.49525">
        <ele>18.8</ele>
        <time>2020-08-03T13:14:14Z</time>
      </trkpt>
      <trkpt lat="47.45447" lon="-2.49523">
        <ele>18.6</ele>
        <time>2020-08-03T13:14:15Z</time>
      </trkpt>
      <trkpt lat="47.45445" lon="-2.49521">
        <ele>18.6</ele>
        <time>2020-08-03T13:14:16Z</time>
      </trkpt>
      <trkpt lat="47.45443" lon="-2.49519">
        <ele>18.2</ele>
        <time>2020-08-03T13:14:17Z</time>
      </trkpt>
      <trkpt lat="47.45441" lon="-2.49517">
        <ele>18</ele>
        <time>2020-08-03T13:14:18Z</time>
      </trkpt>
      <trkpt lat="47.45438" lon="-2.49516">
        <ele>18</ele>
        <time>2020-08-03T13:14:19Z</time>
      </trkpt>
      <trkpt lat="47.45436" lon="-2.49514">
        <ele>18</ele>
        <time>2020-08-03T13:14:20Z</time>
      </trkpt>
      <trkpt lat="47.45434" lon="-2.49514">
        <ele>18</ele>
        <time>2020-08-03T13:14:21Z</time>
      </trkpt>
      <trkpt lat="47.45432" lon="-2.49513">
        <ele>18</ele>
        <time>2020-08-03T13:14:22Z</time>
      </trkpt>
      <trkpt lat="47.4543" lon="-2.49512">
        <ele>18</ele>
        <time>2020-08-03T13:14:23Z</time>
      </trkpt>
      <trkpt lat="47.45428" lon="-2.49511">
        <ele>18.4</ele>
        <time>2020-08-03T13:14:24Z</time>
      </trkpt>
      <trkpt lat="47.45425" lon="-2.49509">
        <ele>18.6</ele>
        <time>2020-08-03T13:14:25Z</time>
      </trkpt>
      <trkpt lat="47.45423" lon="-2.49508">
        <ele>18.8</ele>
        <time>2020-08-03T13:14:26Z</time>
      </trkpt>
      <trkpt lat="47.45421" lon="-2.49507">
        <ele>18.6</ele>
        <time>2020-08-03T13:14:27Z</time>
      </trkpt>
      <trkpt lat="47.45419" lon="-2.49506">
        <ele>18.6</ele>
        <time>2020-08-03T13:14:28Z</time>
      </trkpt>
      <trkpt lat="47.45416" lon="-2.49505">
        <ele>18.6</ele>
        <time>2020-08-03T13:14:29Z</time>
      </trkpt>
      <trkpt lat="47.45414" lon="-2.49504">
        <ele>18.6</ele>
        <time>2020-08-03T13:14:30Z</time>
      </trkpt>
      <trkpt lat="47.45413" lon="-2.49504">
        <ele>18.2</ele>
        <time>2020-08-03T13:14:31Z</time>
      </trkpt>
      <trkpt lat="47.45411" lon="-2.49502">
        <ele>17.8</ele>
        <time>2020-08-03T13:14:32Z</time>
      </trkpt>
      <trkpt lat="47.45409" lon="-2.49501">
        <ele>17.8</ele>
        <time>2020-08-03T13:14:33Z</time>
      </trkpt>
      <trkpt lat="47.45408" lon="-2.495">
        <ele>17.8</ele>
        <time>2020-08-03T13:14:34Z</time>
      </trkpt>
      <trkpt lat="47.45407" lon="-2.49498">
        <ele>17.6</ele>
        <time>2020-08-03T13:14:35Z</time>
      </trkpt>
      <trkpt lat="47.45405" lon="-2.49497">
        <ele>17.8</ele>
        <time>2020-08-03T13:14:36Z</time>
      </trkpt>
      <trkpt lat="47.45403" lon="-2.49495">
        <ele>17.6</ele>
        <time>2020-08-03T13:14:37Z</time>
      </trkpt>
      <trkpt lat="47.45401" lon="-2.49493">
        <ele>17.2</ele>
        <time>2020-08-03T13:14:38Z</time>
      </trkpt>
      <trkpt lat="47.45399" lon="-2.49491">
        <ele>17.8</ele>
        <time>2020-08-03T13:14:39Z</time>
      </trkpt>
      <trkpt lat="47.45398" lon="-2.49489">
        <ele>18</ele>
        <time>2020-08-03T13:14:40Z</time>
      </trkpt>
      <trkpt lat="47.45396" lon="-2.49488">
        <ele>18</ele>
        <time>2020-08-03T13:14:41Z</time>
      </trkpt>
      <trkpt lat="47.45393" lon="-2.49486">
        <ele>17.4</ele>
        <time>2020-08-03T13:14:42Z</time>
      </trkpt>
      <trkpt lat="47.45391" lon="-2.49485">
        <ele>17</ele>
        <time>2020-08-03T13:14:43Z</time>
      </trkpt>
      <trkpt lat="47.45389" lon="-2.49483">
        <ele>17.4</ele>
        <time>2020-08-03T13:14:44Z</time>
      </trkpt>
      <trkpt lat="47.45387" lon="-2.49481">
        <ele>17.6</ele>
        <time>2020-08-03T13:14:45Z</time>
      </trkpt>
      <trkpt lat="47.45386" lon="-2.49479">
        <ele>17.8</ele>
        <time>2020-08-03T13:14:46Z</time>
      </trkpt>
      <trkpt lat="47.45383" lon="-2.49477">
        <ele>17.6</ele>
        <time>2020-08-03T13:14:47Z</time>
      </trkpt>
      <trkpt lat="47.45381" lon="-2.49476">
        <ele>17.6</ele>
        <time>2020-08-03T13:14:48Z</time>
      </trkpt>
      <trkpt lat="47.45379" lon="-2.49475">
        <ele>17.6</ele>
        <time>2020-08-03T13:14:49Z</time>
      </trkpt>
      <trkpt lat="47.45377" lon="-2.49474">
        <ele>17.4</ele>
        <time>2020-08-03T13:14:50Z</time>
      </trkpt>
      <trkpt lat="47.45375" lon="-2.49473">
        <ele>17.2</ele>
        <time>2020-08-03T13:14:51Z</time>
      </trkpt>
      <trkpt lat="47.45372" lon="-2.49472">
        <ele>17.6</ele>
        <time>2020-08-03T13:14:52Z</time>
      </trkpt>
      <trkpt lat="47.45371" lon="-2.49471">
        <ele>17.4</ele>
        <time>2020-08-03T13:14:53Z</time>
      </trkpt>
      <trkpt lat="47.45369" lon="-2.49469">
        <ele>18</ele>
        <time>2020-08-03T13:14:54Z</time>
      </trkpt>
      <trkpt lat="47.45366" lon="-2.49467">
        <ele>18.2</ele>
        <time>2020-08-03T13:14:55Z</time>
      </trkpt>
      <trkpt lat="47.45364" lon="-2.49466">
        <ele>17.8</ele>
        <time>2020-08-03T13:14:56Z</time>
      </trkpt>
      <trkpt lat="47.45361" lon="-2.49465">
        <ele>17.6</ele>
        <time>2020-08-03T13:14:57Z</time>
      </trkpt>
      <trkpt lat="47.45359" lon="-2.49464">
        <ele>17.6</ele>
        <time>2020-08-03T13:14:58Z</time>
      </trkpt>
      <trkpt lat="47.45357" lon="-2.49462">
        <ele>17.6</ele>
        <time>2020-08-03T13:14:59Z</time>
      </trkpt>
      <trkpt lat="47.45355" lon="-2.4946">
        <ele>17.6</ele>
        <time>2020-08-03T13:15:00Z</time>
      </trkpt>
      <trkpt lat="47.45353" lon="-2.49459">
        <ele>17.4</ele>
        <time>2020-08-03T13:15:01Z</time>
      </trkpt>
      <trkpt lat="47.45351" lon="-2.49457">
        <ele>17.6</ele>
        <time>2020-08-03T13:15:02Z</time>
      </trkpt>
      <trkpt lat="47.45349" lon="-2.49457">
        <ele>17.8</ele>
        <time>2020-08-03T13:15:03Z</time>
      </trkpt>
      <trkpt lat="47.45347" lon="-2.49456">
        <ele>18.2</ele>
        <time>2020-08-03T13:15:04Z</time>
      </trkpt>
      <trkpt lat="47.45345" lon="-2.49454">
        <ele>18</ele>
        <time>2020-08-03T13:15:05Z</time>
      </trkpt>
      <trkpt lat="47.45344" lon="-2.49453">
        <ele>17.8</ele>
        <time>2020-08-03T13:15:06Z</time>
      </trkpt>
      <trkpt lat="47.45343" lon="-2.49451">
        <ele>17.8</ele>
        <time>2020-08-03T13:15:07Z</time>
      </trkpt>
      <trkpt lat="47.45342" lon="-2.4945">
        <ele>17</ele>
        <time>2020-08-03T13:15:08Z</time>
      </trkpt>
      <trkpt lat="47.45341" lon="-2.49449">
        <ele>17.2</ele>
        <time>2020-08-03T13:15:09Z</time>
      </trkpt>
      <trkpt lat="47.45341" lon="-2.49449">
        <ele>17.4</ele>
        <time>2020-08-03T13:15:10Z</time>
      </trkpt>
      <trkpt lat="47.45341" lon="-2.49449">
        <ele>17.6</ele>
        <time>2020-08-03T13:15:11Z</time>
      </trkpt>
      <trkpt lat="47.45341" lon="-2.49449">
        <ele>17.8</ele>
        <time>2020-08-03T13:15:12Z</time>
      </trkpt>
      <trkpt lat="47.45341" lon="-2.49449">
        <ele>17.8</ele>
        <time>2020-08-03T13:15:13Z</time>
      </trkpt>
      <trkpt lat="47.45341" lon="-2.49449">
        <ele>17.8</ele>
        <time>2020-08-03T13:15:14Z</time>
      </trkpt>
      <trkpt lat="47.45341" lon="-2.49449">
        <ele>17.2</ele>
        <time>2020-08-03T13:15:15Z</time>
      </trkpt>
      <trkpt lat="47.4534" lon="-2.49449">
        <ele>17</ele>
        <time>2020-08-03T13:15:16Z</time>
      </trkpt>
      <trkpt lat="47.45332" lon="-2.49432">
        <ele>16.8</ele>
        <time>2020-08-03T13:15:30Z</time>
      </trkpt>
      <trkpt lat="47.45331" lon="-2.49431">
        <ele>17</ele>
        <time>2020-08-03T13:15:31Z</time>
      </trkpt>
      <trkpt lat="47.4533" lon="-2.4943">
        <ele>17</ele>
        <time>2020-08-03T13:15:32Z</time>
      </trkpt>
      <trkpt lat="47.45328" lon="-2.49428">
        <ele>17</ele>
        <time>2020-08-03T13:15:33Z</time>
      </trkpt>
      <trkpt lat="47.45327" lon="-2.49427">
        <ele>17</ele>
        <time>2020-08-03T13:15:34Z</time>
      </trkpt>
      <trkpt lat="47.45325" lon="-2.49425">
        <ele>17.2</ele>
        <time>2020-08-03T13:15:35Z</time>
      </trkpt>
      <trkpt lat="47.45324" lon="-2.49424">
        <ele>17.2</ele>
        <time>2020-08-03T13:15:36Z</time>
      </trkpt>
      <trkpt lat="47.45322" lon="-2.49424">
        <ele>17.2</ele>
        <time>2020-08-03T13:15:37Z</time>
      </trkpt>
      <trkpt lat="47.45322" lon="-2.49424">
        <ele>17</ele>
        <time>2020-08-03T13:15:38Z</time>
      </trkpt>
      <trkpt lat="47.45322" lon="-2.49424">
        <ele>17</ele>
        <time>2020-08-03T13:15:39Z</time>
      </trkpt>
      <trkpt lat="47.45322" lon="-2.49424">
        <ele>17</ele>
        <time>2020-08-03T13:15:40Z</time>
      </trkpt>
      <trkpt lat="47.45322" lon="-2.49424">
        <ele>17</ele>
        <time>2020-08-03T13:15:41Z</time>
      </trkpt>
      <trkpt lat="47.45322" lon="-2.49424">
        <ele>17</ele>
        <time>2020-08-03T13:15:42Z</time>
      </trkpt>
      <trkpt lat="47.45322" lon="-2.49424">
        <ele>16.8</ele>
        <time>2020-08-03T13:15:43Z</time>
      </trkpt>
      <trkpt lat="47.45322" lon="-2.49423">
        <ele>17</ele>
        <time>2020-08-03T13:15:44Z</time>
      </trkpt>
      <trkpt lat="47.45321" lon="-2.49423">
        <ele>17.2</ele>
        <time>2020-08-03T13:15:45Z</time>
      </trkpt>
      <trkpt lat="47.45312" lon="-2.49418">
        <ele>17.2</ele>
        <time>2020-08-03T13:15:53Z</time>
      </trkpt>
      <trkpt lat="47.4531" lon="-2.49417">
        <ele>17.4</ele>
        <time>2020-08-03T13:15:54Z</time>
      </trkpt>
      <trkpt lat="47.45308" lon="-2.49416">
        <ele>17.2</ele>
        <time>2020-08-03T13:15:55Z</time>
      </trkpt>
      <trkpt lat="47.45307" lon="-2.49415">
        <ele>17.2</ele>
        <time>2020-08-03T13:15:56Z</time>
      </trkpt>
      <trkpt lat="47.45305" lon="-2.49414">
        <ele>17.4</ele>
        <time>2020-08-03T13:15:57Z</time>
      </trkpt>
      <trkpt lat="47.45303" lon="-2.49413">
        <ele>17.4</ele>
        <time>2020-08-03T13:15:58Z</time>
      </trkpt>
      <trkpt lat="47.45301" lon="-2.49412">
        <ele>17.2</ele>
        <time>2020-08-03T13:15:59Z</time>
      </trkpt>
      <trkpt lat="47.45299" lon="-2.49411">
        <ele>17.4</ele>
        <time>2020-08-03T13:16:00Z</time>
      </trkpt>
      <trkpt lat="47.45297" lon="-2.49411">
        <ele>17.4</ele>
        <time>2020-08-03T13:16:01Z</time>
      </trkpt>
      <trkpt lat="47.45296" lon="-2.4941">
        <ele>17.6</ele>
        <time>2020-08-03T13:16:02Z</time>
      </trkpt>
      <trkpt lat="47.45294" lon="-2.4941">
        <ele>17.8</ele>
        <time>2020-08-03T13:16:03Z</time>
      </trkpt>
      <trkpt lat="47.45292" lon="-2.49409">
        <ele>17.6</ele>
        <time>2020-08-03T13:16:04Z</time>
      </trkpt>
      <trkpt lat="47.4529" lon="-2.49408">
        <ele>17.8</ele>
        <time>2020-08-03T13:16:05Z</time>
      </trkpt>
      <trkpt lat="47.45287" lon="-2.49408">
        <ele>17.8</ele>
        <time>2020-08-03T13:16:06Z</time>
      </trkpt>
      <trkpt lat="47.45285" lon="-2.49407">
        <ele>17.8</ele>
        <time>2020-08-03T13:16:07Z</time>
      </trkpt>
      <trkpt lat="47.45282" lon="-2.49406">
        <ele>17.8</ele>
        <time>2020-08-03T13:16:08Z</time>
      </trkpt>
      <trkpt lat="47.4528" lon="-2.49405">
        <ele>17.6</ele>
        <time>2020-08-03T13:16:09Z</time>
      </trkpt>
      <trkpt lat="47.45277" lon="-2.49404">
        <ele>17.8</ele>
        <time>2020-08-03T13:16:10Z</time>
      </trkpt>
      <trkpt lat="47.45274" lon="-2.49403">
        <ele>17.8</ele>
        <time>2020-08-03T13:16:11Z</time>
      </trkpt>
      <trkpt lat="47.45272" lon="-2.49403">
        <ele>17.8</ele>
        <time>2020-08-03T13:16:12Z</time>
      </trkpt>
      <trkpt lat="47.45269" lon="-2.49403">
        <ele>17.8</ele>
        <time>2020-08-03T13:16:13Z</time>
      </trkpt>
      <trkpt lat="47.45267" lon="-2.49402">
        <ele>17.8</ele>
        <time>2020-08-03T13:16:14Z</time>
      </trkpt>
      <trkpt lat="47.45264" lon="-2.49402">
        <ele>17.8</ele>
        <time>2020-08-03T13:16:15Z</time>
      </trkpt>
      <trkpt lat="47.45262" lon="-2.49402">
        <ele>17.8</ele>
        <time>2020-08-03T13:16:16Z</time>
      </trkpt>
      <trkpt lat="47.45259" lon="-2.49403">
        <ele>17.8</ele>
        <time>2020-08-03T13:16:17Z</time>
      </trkpt>
      <trkpt lat="47.45256" lon="-2.49405">
        <ele>18</ele>
        <time>2020-08-03T13:16:18Z</time>
      </trkpt>
      <trkpt lat="47.45254" lon="-2.49406">
        <ele>17.8</ele>
        <time>2020-08-03T13:16:19Z</time>
      </trkpt>
      <trkpt lat="47.45252" lon="-2.49408">
        <ele>17.8</ele>
        <time>2020-08-03T13:16:20Z</time>
      </trkpt>
      <trkpt lat="47.4525" lon="-2.4941">
        <ele>17.8</ele>
        <time>2020-08-03T13:16:21Z</time>
      </trkpt>
      <trkpt lat="47.45248" lon="-2.49411">
        <ele>17.8</ele>
        <time>2020-08-03T13:16:22Z</time>
      </trkpt>
      <trkpt lat="47.45246" lon="-2.49412">
        <ele>17.8</ele>
        <time>2020-08-03T13:16:23Z</time>
      </trkpt>
      <trkpt lat="47.45245" lon="-2.49413">
        <ele>17.8</ele>
        <time>2020-08-03T13:16:24Z</time>
      </trkpt>
      <trkpt lat="47.45242" lon="-2.49415">
        <ele>17.8</ele>
        <time>2020-08-03T13:16:25Z</time>
      </trkpt>
      <trkpt lat="47.45241" lon="-2.49417">
        <ele>18</ele>
        <time>2020-08-03T13:16:26Z</time>
      </trkpt>
      <trkpt lat="47.45239" lon="-2.49418">
        <ele>18</ele>
        <time>2020-08-03T13:16:27Z</time>
      </trkpt>
      <trkpt lat="47.45236" lon="-2.4942">
        <ele>17.8</ele>
        <time>2020-08-03T13:16:28Z</time>
      </trkpt>
      <trkpt lat="47.45234" lon="-2.49421">
        <ele>17.8</ele>
        <time>2020-08-03T13:16:29Z</time>
      </trkpt>
      <trkpt lat="47.45232" lon="-2.49422">
        <ele>17.8</ele>
        <time>2020-08-03T13:16:30Z</time>
      </trkpt>
      <trkpt lat="47.4523" lon="-2.49424">
        <ele>17.8</ele>
        <time>2020-08-03T13:16:31Z</time>
      </trkpt>
      <trkpt lat="47.45227" lon="-2.49425">
        <ele>17.4</ele>
        <time>2020-08-03T13:16:32Z</time>
      </trkpt>
      <trkpt lat="47.45225" lon="-2.49426">
        <ele>17.6</ele>
        <time>2020-08-03T13:16:33Z</time>
      </trkpt>
      <trkpt lat="47.45222" lon="-2.49427">
        <ele>17.4</ele>
        <time>2020-08-03T13:16:34Z</time>
      </trkpt>
      <trkpt lat="47.4522" lon="-2.49429">
        <ele>17.4</ele>
        <time>2020-08-03T13:16:35Z</time>
      </trkpt>
      <trkpt lat="47.45217" lon="-2.4943">
        <ele>17.4</ele>
        <time>2020-08-03T13:16:36Z</time>
      </trkpt>
      <trkpt lat="47.45214" lon="-2.49431">
        <ele>17.4</ele>
        <time>2020-08-03T13:16:37Z</time>
      </trkpt>
      <trkpt lat="47.45212" lon="-2.49432">
        <ele>17.6</ele>
        <time>2020-08-03T13:16:38Z</time>
      </trkpt>
      <trkpt lat="47.45209" lon="-2.49433">
        <ele>17.4</ele>
        <time>2020-08-03T13:16:39Z</time>
      </trkpt>
      <trkpt lat="47.45206" lon="-2.49434">
        <ele>17.4</ele>
        <time>2020-08-03T13:16:40Z</time>
      </trkpt>
      <trkpt lat="47.45203" lon="-2.49434">
        <ele>17.4</ele>
        <time>2020-08-03T13:16:41Z</time>
      </trkpt>
      <trkpt lat="47.452" lon="-2.49435">
        <ele>17.4</ele>
        <time>2020-08-03T13:16:42Z</time>
      </trkpt>
      <trkpt lat="47.45198" lon="-2.49435">
        <ele>17.6</ele>
        <time>2020-08-03T13:16:43Z</time>
      </trkpt>
      <trkpt lat="47.45195" lon="-2.49436">
        <ele>18</ele>
        <time>2020-08-03T13:16:44Z</time>
      </trkpt>
      <trkpt lat="47.45192" lon="-2.49436">
        <ele>18.4</ele>
        <time>2020-08-03T13:16:45Z</time>
      </trkpt>
      <trkpt lat="47.4519" lon="-2.49437">
        <ele>18.6</ele>
        <time>2020-08-03T13:16:46Z</time>
      </trkpt>
      <trkpt lat="47.45187" lon="-2.49438">
        <ele>18.8</ele>
        <time>2020-08-03T13:16:47Z</time>
      </trkpt>
      <trkpt lat="47.45184" lon="-2.49439">
        <ele>18.4</ele>
        <time>2020-08-03T13:16:48Z</time>
      </trkpt>
      <trkpt lat="47.45182" lon="-2.49439">
        <ele>18.6</ele>
        <time>2020-08-03T13:16:49Z</time>
      </trkpt>
      <trkpt lat="47.4518" lon="-2.49441">
        <ele>19.6</ele>
        <time>2020-08-03T13:16:50Z</time>
      </trkpt>
      <trkpt lat="47.45178" lon="-2.49443">
        <ele>19.6</ele>
        <time>2020-08-03T13:16:51Z</time>
      </trkpt>
      <trkpt lat="47.45176" lon="-2.49444">
        <ele>18.6</ele>
        <time>2020-08-03T13:16:52Z</time>
      </trkpt>
      <trkpt lat="47.45173" lon="-2.49445">
        <ele>18.6</ele>
        <time>2020-08-03T13:16:53Z</time>
      </trkpt>
      <trkpt lat="47.45171" lon="-2.49447">
        <ele>18.2</ele>
        <time>2020-08-03T13:16:54Z</time>
      </trkpt>
      <trkpt lat="47.45169" lon="-2.49449">
        <ele>17.8</ele>
        <time>2020-08-03T13:16:55Z</time>
      </trkpt>
      <trkpt lat="47.45167" lon="-2.4945">
        <ele>17.6</ele>
        <time>2020-08-03T13:16:56Z</time>
      </trkpt>
      <trkpt lat="47.45164" lon="-2.49452">
        <ele>17.6</ele>
        <time>2020-08-03T13:16:57Z</time>
      </trkpt>
      <trkpt lat="47.45162" lon="-2.49452">
        <ele>17.4</ele>
        <time>2020-08-03T13:16:58Z</time>
      </trkpt>
      <trkpt lat="47.4516" lon="-2.49453">
        <ele>17.4</ele>
        <time>2020-08-03T13:16:59Z</time>
      </trkpt>
      <trkpt lat="47.45158" lon="-2.49453">
        <ele>17.4</ele>
        <time>2020-08-03T13:17:00Z</time>
      </trkpt>
      <trkpt lat="47.45156" lon="-2.49453">
        <ele>17.2</ele>
        <time>2020-08-03T13:17:01Z</time>
      </trkpt>
      <trkpt lat="47.45154" lon="-2.49453">
        <ele>17.2</ele>
        <time>2020-08-03T13:17:02Z</time>
      </trkpt>
      <trkpt lat="47.45153" lon="-2.49453">
        <ele>17.2</ele>
        <time>2020-08-03T13:17:03Z</time>
      </trkpt>
      <trkpt lat="47.45152" lon="-2.49453">
        <ele>17.2</ele>
        <time>2020-08-03T13:17:04Z</time>
      </trkpt>
      <trkpt lat="47.45151" lon="-2.49453">
        <ele>17.2</ele>
        <time>2020-08-03T13:17:05Z</time>
      </trkpt>
      <trkpt lat="47.4515" lon="-2.49451">
        <ele>17.2</ele>
        <time>2020-08-03T13:17:06Z</time>
      </trkpt>
      <trkpt lat="47.45148" lon="-2.49452">
        <ele>17.2</ele>
        <time>2020-08-03T13:17:07Z</time>
      </trkpt>
      <trkpt lat="47.45147" lon="-2.49452">
        <ele>17.2</ele>
        <time>2020-08-03T13:17:08Z</time>
      </trkpt>
      <trkpt lat="47.45146" lon="-2.49452">
        <ele>17.2</ele>
        <time>2020-08-03T13:17:09Z</time>
      </trkpt>
      <trkpt lat="47.45144" lon="-2.49452">
        <ele>17.2</ele>
        <time>2020-08-03T13:17:10Z</time>
      </trkpt>
      <trkpt lat="47.45143" lon="-2.49451">
        <ele>17</ele>
        <time>2020-08-03T13:17:11Z</time>
      </trkpt>
      <trkpt lat="47.45142" lon="-2.49451">
        <ele>17</ele>
        <time>2020-08-03T13:17:12Z</time>
      </trkpt>
      <trkpt lat="47.4514" lon="-2.49451">
        <ele>17.2</ele>
        <time>2020-08-03T13:17:13Z</time>
      </trkpt>
      <trkpt lat="47.45139" lon="-2.49451">
        <ele>17.2</ele>
        <time>2020-08-03T13:17:14Z</time>
      </trkpt>
      <trkpt lat="47.45138" lon="-2.49451">
        <ele>17.2</ele>
        <time>2020-08-03T13:17:15Z</time>
      </trkpt>
      <trkpt lat="47.45137" lon="-2.49451">
        <ele>17.2</ele>
        <time>2020-08-03T13:17:16Z</time>
      </trkpt>
      <trkpt lat="47.45136" lon="-2.49451">
        <ele>17</ele>
        <time>2020-08-03T13:17:17Z</time>
      </trkpt>
      <trkpt lat="47.45134" lon="-2.4945">
        <ele>17.2</ele>
        <time>2020-08-03T13:17:18Z</time>
      </trkpt>
      <trkpt lat="47.45133" lon="-2.4945">
        <ele>17.2</ele>
        <time>2020-08-03T13:17:19Z</time>
      </trkpt>
      <trkpt lat="47.45131" lon="-2.4945">
        <ele>17</ele>
        <time>2020-08-03T13:17:20Z</time>
      </trkpt>
      <trkpt lat="47.4513" lon="-2.49449">
        <ele>17.2</ele>
        <time>2020-08-03T13:17:21Z</time>
      </trkpt>
      <trkpt lat="47.45128" lon="-2.49449">
        <ele>17</ele>
        <time>2020-08-03T13:17:22Z</time>
      </trkpt>
      <trkpt lat="47.45126" lon="-2.49449">
        <ele>17.2</ele>
        <time>2020-08-03T13:17:23Z</time>
      </trkpt>
      <trkpt lat="47.45123" lon="-2.49449">
        <ele>17.2</ele>
        <time>2020-08-03T13:17:24Z</time>
      </trkpt>
      <trkpt lat="47.45121" lon="-2.49449">
        <ele>16.6</ele>
        <time>2020-08-03T13:17:25Z</time>
      </trkpt>
      <trkpt lat="47.45119" lon="-2.49449">
        <ele>16.6</ele>
        <time>2020-08-03T13:17:26Z</time>
      </trkpt>
      <trkpt lat="47.45117" lon="-2.49448">
        <ele>16.8</ele>
        <time>2020-08-03T13:17:27Z</time>
      </trkpt>
      <trkpt lat="47.45114" lon="-2.49447">
        <ele>16.6</ele>
        <time>2020-08-03T13:17:28Z</time>
      </trkpt>
      <trkpt lat="47.45112" lon="-2.49447">
        <ele>16.6</ele>
        <time>2020-08-03T13:17:29Z</time>
      </trkpt>
      <trkpt lat="47.4511" lon="-2.49447">
        <ele>16.8</ele>
        <time>2020-08-03T13:17:30Z</time>
      </trkpt>
      <trkpt lat="47.45108" lon="-2.49446">
        <ele>17</ele>
        <time>2020-08-03T13:17:31Z</time>
      </trkpt>
      <trkpt lat="47.45105" lon="-2.49445">
        <ele>17.2</ele>
        <time>2020-08-03T13:17:32Z</time>
      </trkpt>
      <trkpt lat="47.45103" lon="-2.49444">
        <ele>17.2</ele>
        <time>2020-08-03T13:17:33Z</time>
      </trkpt>
      <trkpt lat="47.45101" lon="-2.49443">
        <ele>17</ele>
        <time>2020-08-03T13:17:34Z</time>
      </trkpt>
      <trkpt lat="47.451" lon="-2.49443">
        <ele>16.8</ele>
        <time>2020-08-03T13:17:35Z</time>
      </trkpt>
      <trkpt lat="47.451" lon="-2.49443">
        <ele>16.8</ele>
        <time>2020-08-03T13:17:36Z</time>
      </trkpt>
      <trkpt lat="47.45099" lon="-2.49442">
        <ele>16.6</ele>
        <time>2020-08-03T13:17:37Z</time>
      </trkpt>
      <trkpt lat="47.45098" lon="-2.49441">
        <ele>16.6</ele>
        <time>2020-08-03T13:17:38Z</time>
      </trkpt>
      <trkpt lat="47.45096" lon="-2.4944">
        <ele>16.6</ele>
        <time>2020-08-03T13:17:39Z</time>
      </trkpt>
      <trkpt lat="47.45095" lon="-2.4944">
        <ele>16.8</ele>
        <time>2020-08-03T13:17:40Z</time>
      </trkpt>
      <trkpt lat="47.45094" lon="-2.49439">
        <ele>16.6</ele>
        <time>2020-08-03T13:17:41Z</time>
      </trkpt>
      <trkpt lat="47.45093" lon="-2.49439">
        <ele>16.2</ele>
        <time>2020-08-03T13:17:42Z</time>
      </trkpt>
      <trkpt lat="47.45092" lon="-2.49439">
        <ele>16.4</ele>
        <time>2020-08-03T13:17:43Z</time>
      </trkpt>
      <trkpt lat="47.45092" lon="-2.49439">
        <ele>16.2</ele>
        <time>2020-08-03T13:17:44Z</time>
      </trkpt>
      <trkpt lat="47.45092" lon="-2.49439">
        <ele>16.4</ele>
        <time>2020-08-03T13:17:45Z</time>
      </trkpt>
      <trkpt lat="47.45092" lon="-2.49438">
        <ele>16.4</ele>
        <time>2020-08-03T13:17:46Z</time>
      </trkpt>
      <trkpt lat="47.45092" lon="-2.49438">
        <ele>16.2</ele>
        <time>2020-08-03T13:17:47Z</time>
      </trkpt>
      <trkpt lat="47.45091" lon="-2.49438">
        <ele>16.2</ele>
        <time>2020-08-03T13:17:48Z</time>
      </trkpt>
      <trkpt lat="47.4509" lon="-2.49438">
        <ele>16.2</ele>
        <time>2020-08-03T13:17:49Z</time>
      </trkpt>
      <trkpt lat="47.45089" lon="-2.49437">
        <ele>16.4</ele>
        <time>2020-08-03T13:17:50Z</time>
      </trkpt>
      <trkpt lat="47.45088" lon="-2.49437">
        <ele>16.4</ele>
        <time>2020-08-03T13:17:51Z</time>
      </trkpt>
      <trkpt lat="47.45081" lon="-2.49436">
        <ele>16.8</ele>
        <time>2020-08-03T13:17:57Z</time>
      </trkpt>
      <trkpt lat="47.4508" lon="-2.49436">
        <ele>16.8</ele>
        <time>2020-08-03T13:17:58Z</time>
      </trkpt>
      <trkpt lat="47.45079" lon="-2.49436">
        <ele>16.8</ele>
        <time>2020-08-03T13:18:00Z</time>
      </trkpt>
      <trkpt lat="47.45076" lon="-2.49436">
        <ele>16.6</ele>
        <time>2020-08-03T13:18:01Z</time>
      </trkpt>
      <trkpt lat="47.45075" lon="-2.49436">
        <ele>16.6</ele>
        <time>2020-08-03T13:18:02Z</time>
      </trkpt>
      <trkpt lat="47.45073" lon="-2.49436">
        <ele>16.4</ele>
        <time>2020-08-03T13:18:03Z</time>
      </trkpt>
      <trkpt lat="47.45072" lon="-2.49436">
        <ele>16.4</ele>
        <time>2020-08-03T13:18:04Z</time>
      </trkpt>
      <trkpt lat="47.4507" lon="-2.49436">
        <ele>16.4</ele>
        <time>2020-08-03T13:18:05Z</time>
      </trkpt>
      <trkpt lat="47.45069" lon="-2.49436">
        <ele>16.4</ele>
        <time>2020-08-03T13:18:06Z</time>
      </trkpt>
      <trkpt lat="47.45067" lon="-2.49436">
        <ele>16.4</ele>
        <time>2020-08-03T13:18:07Z</time>
      </trkpt>
      <trkpt lat="47.45066" lon="-2.49436">
        <ele>16.6</ele>
        <time>2020-08-03T13:18:08Z</time>
      </trkpt>
      <trkpt lat="47.45065" lon="-2.49435">
        <ele>16.8</ele>
        <time>2020-08-03T13:18:09Z</time>
      </trkpt>
      <trkpt lat="47.45063" lon="-2.49435">
        <ele>16.6</ele>
        <time>2020-08-03T13:18:10Z</time>
      </trkpt>
      <trkpt lat="47.45062" lon="-2.49434">
        <ele>16.2</ele>
        <time>2020-08-03T13:18:11Z</time>
      </trkpt>
      <trkpt lat="47.45061" lon="-2.49434">
        <ele>16</ele>
        <time>2020-08-03T13:18:12Z</time>
      </trkpt>
      <trkpt lat="47.45059" lon="-2.49433">
        <ele>15.8</ele>
        <time>2020-08-03T13:18:13Z</time>
      </trkpt>
      <trkpt lat="47.45059" lon="-2.49432">
        <ele>15.4</ele>
        <time>2020-08-03T13:18:14Z</time>
      </trkpt>
      <trkpt lat="47.45058" lon="-2.49433">
        <ele>15.8</ele>
        <time>2020-08-03T13:18:15Z</time>
      </trkpt>
      <trkpt lat="47.45058" lon="-2.49434">
        <ele>15.8</ele>
        <time>2020-08-03T13:18:16Z</time>
      </trkpt>
      <trkpt lat="47.45058" lon="-2.49435">
        <ele>16</ele>
        <time>2020-08-03T13:18:17Z</time>
      </trkpt>
      <trkpt lat="47.45059" lon="-2.49437">
        <ele>16.2</ele>
        <time>2020-08-03T13:18:18Z</time>
      </trkpt>
      <trkpt lat="47.45058" lon="-2.49438">
        <ele>16</ele>
        <time>2020-08-03T13:18:19Z</time>
      </trkpt>
      <trkpt lat="47.45058" lon="-2.4944">
        <ele>16.2</ele>
        <time>2020-08-03T13:18:20Z</time>
      </trkpt>
      <trkpt lat="47.45057" lon="-2.49441">
        <ele>16.6</ele>
        <time>2020-08-03T13:18:21Z</time>
      </trkpt>
      <trkpt lat="47.45057" lon="-2.49443">
        <ele>16.8</ele>
        <time>2020-08-03T13:18:22Z</time>
      </trkpt>
      <trkpt lat="47.45057" lon="-2.49444">
        <ele>17</ele>
        <time>2020-08-03T13:18:23Z</time>
      </trkpt>
      <trkpt lat="47.45057" lon="-2.49445">
        <ele>16.8</ele>
        <time>2020-08-03T13:18:24Z</time>
      </trkpt>
      <trkpt lat="47.45057" lon="-2.49444">
        <ele>16.6</ele>
        <time>2020-08-03T13:18:25Z</time>
      </trkpt>
      <trkpt lat="47.45057" lon="-2.49444">
        <ele>16.6</ele>
        <time>2020-08-03T13:18:26Z</time>
      </trkpt>
      <trkpt lat="47.45057" lon="-2.49444">
        <ele>16.6</ele>
        <time>2020-08-03T13:18:27Z</time>
      </trkpt>
      <trkpt lat="47.45057" lon="-2.49444">
        <ele>17</ele>
        <time>2020-08-03T13:18:28Z</time>
      </trkpt>
      <trkpt lat="47.45057" lon="-2.49445">
        <ele>17.2</ele>
        <time>2020-08-03T13:18:29Z</time>
      </trkpt>
      <trkpt lat="47.45057" lon="-2.49445">
        <ele>17.4</ele>
        <time>2020-08-03T13:18:30Z</time>
      </trkpt>
      <trkpt lat="47.45048" lon="-2.49422">
        <ele>15.8</ele>
        <time>2020-08-03T13:20:19Z</time>
      </trkpt>
      <trkpt lat="47.45047" lon="-2.49422">
        <ele>16.2</ele>
        <time>2020-08-03T13:20:21Z</time>
      </trkpt>
      <trkpt lat="47.45046" lon="-2.49421">
        <ele>17.2</ele>
        <time>2020-08-03T13:20:22Z</time>
      </trkpt>
      <trkpt lat="47.45045" lon="-2.4942">
        <ele>16.8</ele>
        <time>2020-08-03T13:20:23Z</time>
      </trkpt>
      <trkpt lat="47.45044" lon="-2.4942">
        <ele>16.6</ele>
        <time>2020-08-03T13:20:24Z</time>
      </trkpt>
      <trkpt lat="47.45043" lon="-2.49419">
        <ele>16.6</ele>
        <time>2020-08-03T13:20:25Z</time>
      </trkpt>
      <trkpt lat="47.45042" lon="-2.49419">
        <ele>16.4</ele>
        <time>2020-08-03T13:20:26Z</time>
      </trkpt>
      <trkpt lat="47.45041" lon="-2.49419">
        <ele>16.2</ele>
        <time>2020-08-03T13:20:28Z</time>
      </trkpt>
      <trkpt lat="47.45039" lon="-2.49418">
        <ele>16.2</ele>
        <time>2020-08-03T13:20:29Z</time>
      </trkpt>
      <trkpt lat="47.45038" lon="-2.49418">
        <ele>16</ele>
        <time>2020-08-03T13:20:30Z</time>
      </trkpt>
      <trkpt lat="47.45038" lon="-2.49418">
        <ele>16</ele>
        <time>2020-08-03T13:20:31Z</time>
      </trkpt>
      <trkpt lat="47.45037" lon="-2.49418">
        <ele>16</ele>
        <time>2020-08-03T13:20:33Z</time>
      </trkpt>
      <trkpt lat="47.45035" lon="-2.49419">
        <ele>15.8</ele>
        <time>2020-08-03T13:20:34Z</time>
      </trkpt>
      <trkpt lat="47.45035" lon="-2.49419">
        <ele>15.8</ele>
        <time>2020-08-03T13:20:35Z</time>
      </trkpt>
      <trkpt lat="47.45034" lon="-2.49419">
        <ele>15.8</ele>
        <time>2020-08-03T13:20:37Z</time>
      </trkpt>
      <trkpt lat="47.45032" lon="-2.49419">
        <ele>15.6</ele>
        <time>2020-08-03T13:20:38Z</time>
      </trkpt>
      <trkpt lat="47.4503" lon="-2.4942">
        <ele>15.4</ele>
        <time>2020-08-03T13:20:39Z</time>
      </trkpt>
      <trkpt lat="47.45029" lon="-2.4942">
        <ele>15.4</ele>
        <time>2020-08-03T13:20:40Z</time>
      </trkpt>
      <trkpt lat="47.45029" lon="-2.49421">
        <ele>15.4</ele>
        <time>2020-08-03T13:20:41Z</time>
      </trkpt>
      <trkpt lat="47.45028" lon="-2.49421">
        <ele>15.4</ele>
        <time>2020-08-03T13:20:42Z</time>
      </trkpt>
      <trkpt lat="47.45026" lon="-2.49421">
        <ele>15.4</ele>
        <time>2020-08-03T13:20:43Z</time>
      </trkpt>
      <trkpt lat="47.45025" lon="-2.49422">
        <ele>15.2</ele>
        <time>2020-08-03T13:20:44Z</time>
      </trkpt>
      <trkpt lat="47.45024" lon="-2.49422">
        <ele>15.2</ele>
        <time>2020-08-03T13:20:45Z</time>
      </trkpt>
      <trkpt lat="47.45023" lon="-2.49422">
        <ele>15.2</ele>
        <time>2020-08-03T13:20:46Z</time>
      </trkpt>
      <trkpt lat="47.45022" lon="-2.49423">
        <ele>15.4</ele>
        <time>2020-08-03T13:20:47Z</time>
      </trkpt>
      <trkpt lat="47.45021" lon="-2.49423">
        <ele>15.2</ele>
        <time>2020-08-03T13:20:49Z</time>
      </trkpt>
      <trkpt lat="47.4502" lon="-2.49423">
        <ele>15.6</ele>
        <time>2020-08-03T13:20:50Z</time>
      </trkpt>
      <trkpt lat="47.45019" lon="-2.49422">
        <ele>15.2</ele>
        <time>2020-08-03T13:20:51Z</time>
      </trkpt>
      <trkpt lat="47.45018" lon="-2.49421">
        <ele>14.4</ele>
        <time>2020-08-03T13:20:53Z</time>
      </trkpt>
      <trkpt lat="47.45016" lon="-2.4942">
        <ele>14</ele>
        <time>2020-08-03T13:20:54Z</time>
      </trkpt>
      <trkpt lat="47.45015" lon="-2.49419">
        <ele>14.4</ele>
        <time>2020-08-03T13:20:55Z</time>
      </trkpt>
      <trkpt lat="47.45015" lon="-2.49419">
        <ele>14</ele>
        <time>2020-08-03T13:20:57Z</time>
      </trkpt>
      <trkpt lat="47.45013" lon="-2.49421">
        <ele>13.4</ele>
        <time>2020-08-03T13:20:58Z</time>
      </trkpt>
      <trkpt lat="47.45012" lon="-2.49422">
        <ele>14.8</ele>
        <time>2020-08-03T13:20:59Z</time>
      </trkpt>
      <trkpt lat="47.45011" lon="-2.49423">
        <ele>14.4</ele>
        <time>2020-08-03T13:21:01Z</time>
      </trkpt>
      <trkpt lat="47.45009" lon="-2.49424">
        <ele>14</ele>
        <time>2020-08-03T13:21:02Z</time>
      </trkpt>
      <trkpt lat="47.45008" lon="-2.49425">
        <ele>14</ele>
        <time>2020-08-03T13:21:03Z</time>
      </trkpt>
      <trkpt lat="47.45007" lon="-2.49425">
        <ele>13.4</ele>
        <time>2020-08-03T13:21:05Z</time>
      </trkpt>
      <trkpt lat="47.45005" lon="-2.49426">
        <ele>13</ele>
        <time>2020-08-03T13:21:06Z</time>
      </trkpt>
      <trkpt lat="47.45004" lon="-2.49425">
        <ele>13</ele>
        <time>2020-08-03T13:21:07Z</time>
      </trkpt>
      <trkpt lat="47.45003" lon="-2.49425">
        <ele>12.8</ele>
        <time>2020-08-03T13:21:09Z</time>
      </trkpt>
      <trkpt lat="47.45002" lon="-2.49424">
        <ele>12.4</ele>
        <time>2020-08-03T13:21:10Z</time>
      </trkpt>
      <trkpt lat="47.45001" lon="-2.49423">
        <ele>12.8</ele>
        <time>2020-08-03T13:21:11Z</time>
      </trkpt>
      <trkpt lat="47.45001" lon="-2.49423">
        <ele>13.2</ele>
        <time>2020-08-03T13:21:12Z</time>
      </trkpt>
      <trkpt lat="47.45001" lon="-2.49423">
        <ele>13.4</ele>
        <time>2020-08-03T13:21:14Z</time>
      </trkpt>
      <trkpt lat="47.45001" lon="-2.49423">
        <ele>13</ele>
        <time>2020-08-03T13:21:15Z</time>
      </trkpt>
      <trkpt lat="47.45001" lon="-2.49423">
        <ele>12.8</ele>
        <time>2020-08-03T13:21:16Z</time>
      </trkpt>
      <trkpt lat="47.45001" lon="-2.49423">
        <ele>12.6</ele>
        <time>2020-08-03T13:21:17Z</time>
      </trkpt>
      <trkpt lat="47.45009" lon="-2.49422">
        <ele>13.2</ele>
        <time>2020-08-03T13:23:02Z</time>
      </trkpt>
      <trkpt lat="47.4501" lon="-2.49422">
        <ele>13.4</ele>
        <time>2020-08-03T13:23:03Z</time>
      </trkpt>
      <trkpt lat="47.45011" lon="-2.49422">
        <ele>13.4</ele>
        <time>2020-08-03T13:23:04Z</time>
      </trkpt>
      <trkpt lat="47.45011" lon="-2.49421">
        <ele>14</ele>
        <time>2020-08-03T13:23:05Z</time>
      </trkpt>
      <trkpt lat="47.45012" lon="-2.49421">
        <ele>13.4</ele>
        <time>2020-08-03T13:23:06Z</time>
      </trkpt>
      <trkpt lat="47.45013" lon="-2.4942">
        <ele>12.8</ele>
        <time>2020-08-03T13:23:07Z</time>
      </trkpt>
      <trkpt lat="47.45014" lon="-2.4942">
        <ele>13.2</ele>
        <time>2020-08-03T13:23:08Z</time>
      </trkpt>
      <trkpt lat="47.45014" lon="-2.49419">
        <ele>13.4</ele>
        <time>2020-08-03T13:23:09Z</time>
      </trkpt>
      <trkpt lat="47.45015" lon="-2.49418">
        <ele>13.4</ele>
        <time>2020-08-03T13:23:10Z</time>
      </trkpt>
      <trkpt lat="47.45014" lon="-2.49417">
        <ele>13.6</ele>
        <time>2020-08-03T13:23:11Z</time>
      </trkpt>
      <trkpt lat="47.45014" lon="-2.49416">
        <ele>13.2</ele>
        <time>2020-08-03T13:23:12Z</time>
      </trkpt>
      <trkpt lat="47.45013" lon="-2.49415">
        <ele>13.2</ele>
        <time>2020-08-03T13:23:13Z</time>
      </trkpt>
      <trkpt lat="47.45012" lon="-2.49414">
        <ele>12.8</ele>
        <time>2020-08-03T13:23:14Z</time>
      </trkpt>
      <trkpt lat="47.45012" lon="-2.49412">
        <ele>13.2</ele>
        <time>2020-08-03T13:23:15Z</time>
      </trkpt>
      <trkpt lat="47.45013" lon="-2.49411">
        <ele>13.4</ele>
        <time>2020-08-03T13:23:16Z</time>
      </trkpt>
      <trkpt lat="47.45013" lon="-2.49411">
        <ele>13.2</ele>
        <time>2020-08-03T13:23:17Z</time>
      </trkpt>
      <trkpt lat="47.45013" lon="-2.49411">
        <ele>13.4</ele>
        <time>2020-08-03T13:23:18Z</time>
      </trkpt>
      <trkpt lat="47.45013" lon="-2.49411">
        <ele>13.6</ele>
        <time>2020-08-03T13:23:19Z</time>
      </trkpt>
      <trkpt lat="47.45013" lon="-2.49411">
        <ele>13.8</ele>
        <time>2020-08-03T13:23:20Z</time>
      </trkpt>
      <trkpt lat="47.45013" lon="-2.49411">
        <ele>14</ele>
        <time>2020-08-03T13:23:21Z</time>
      </trkpt>
      <trkpt lat="47.45013" lon="-2.4941">
        <ele>13.6</ele>
        <time>2020-08-03T13:23:22Z</time>
      </trkpt>
      <trkpt lat="47.45013" lon="-2.49408">
        <ele>13.6</ele>
        <time>2020-08-03T13:23:23Z</time>
      </trkpt>
      <trkpt lat="47.45014" lon="-2.49407">
        <ele>13.6</ele>
        <time>2020-08-03T13:23:24Z</time>
      </trkpt>
      <trkpt lat="47.45014" lon="-2.4939">
        <ele>13.4</ele>
        <time>2020-08-03T13:23:30Z</time>
      </trkpt>
      <trkpt lat="47.45014" lon="-2.49386">
        <ele>13.4</ele>
        <time>2020-08-03T13:23:31Z</time>
      </trkpt>
      <trkpt lat="47.45015" lon="-2.49382">
        <ele>13.6</ele>
        <time>2020-08-03T13:23:32Z</time>
      </trkpt>
      <trkpt lat="47.45015" lon="-2.49379">
        <ele>13.6</ele>
        <time>2020-08-03T13:23:33Z</time>
      </trkpt>
      <trkpt lat="47.45015" lon="-2.49375">
        <ele>13.6</ele>
        <time>2020-08-03T13:23:34Z</time>
      </trkpt>
      <trkpt lat="47.45015" lon="-2.49371">
        <ele>13.6</ele>
        <time>2020-08-03T13:23:35Z</time>
      </trkpt>
      <trkpt lat="47.45016" lon="-2.49368">
        <ele>13.8</ele>
        <time>2020-08-03T13:23:36Z</time>
      </trkpt>
      <trkpt lat="47.45016" lon="-2.49365">
        <ele>14</ele>
        <time>2020-08-03T13:23:37Z</time>
      </trkpt>
      <trkpt lat="47.45016" lon="-2.49361">
        <ele>14</ele>
        <time>2020-08-03T13:23:38Z</time>
      </trkpt>
      <trkpt lat="47.45017" lon="-2.49358">
        <ele>14.2</ele>
        <time>2020-08-03T13:23:39Z</time>
      </trkpt>
      <trkpt lat="47.45017" lon="-2.49354">
        <ele>14.4</ele>
        <time>2020-08-03T13:23:40Z</time>
      </trkpt>
      <trkpt lat="47.45019" lon="-2.49351">
        <ele>14.4</ele>
        <time>2020-08-03T13:23:41Z</time>
      </trkpt>
      <trkpt lat="47.45019" lon="-2.49347">
        <ele>14.6</ele>
        <time>2020-08-03T13:23:42Z</time>
      </trkpt>
      <trkpt lat="47.4502" lon="-2.49343">
        <ele>14.6</ele>
        <time>2020-08-03T13:23:43Z</time>
      </trkpt>
      <trkpt lat="47.4502" lon="-2.4934">
        <ele>14.6</ele>
        <time>2020-08-03T13:23:44Z</time>
      </trkpt>
      <trkpt lat="47.45021" lon="-2.49336">
        <ele>14.8</ele>
        <time>2020-08-03T13:23:45Z</time>
      </trkpt>
      <trkpt lat="47.45021" lon="-2.49332">
        <ele>15</ele>
        <time>2020-08-03T13:23:46Z</time>
      </trkpt>
      <trkpt lat="47.45022" lon="-2.49329">
        <ele>15</ele>
        <time>2020-08-03T13:23:47Z</time>
      </trkpt>
      <trkpt lat="47.45022" lon="-2.49325">
        <ele>15.2</ele>
        <time>2020-08-03T13:23:48Z</time>
      </trkpt>
      <trkpt lat="47.45023" lon="-2.49321">
        <ele>15.2</ele>
        <time>2020-08-03T13:23:49Z</time>
      </trkpt>
      <trkpt lat="47.45023" lon="-2.49317">
        <ele>15.2</ele>
        <time>2020-08-03T13:23:50Z</time>
      </trkpt>
      <trkpt lat="47.45024" lon="-2.49313">
        <ele>15.4</ele>
        <time>2020-08-03T13:23:51Z</time>
      </trkpt>
      <trkpt lat="47.45025" lon="-2.4931">
        <ele>15.6</ele>
        <time>2020-08-03T13:23:52Z</time>
      </trkpt>
      <trkpt lat="47.45026" lon="-2.49306">
        <ele>15.6</ele>
        <time>2020-08-03T13:23:53Z</time>
      </trkpt>
      <trkpt lat="47.45027" lon="-2.49302">
        <ele>15.6</ele>
        <time>2020-08-03T13:23:54Z</time>
      </trkpt>
      <trkpt lat="47.45028" lon="-2.49299">
        <ele>15.8</ele>
        <time>2020-08-03T13:23:55Z</time>
      </trkpt>
      <trkpt lat="47.45029" lon="-2.49295">
        <ele>15.8</ele>
        <time>2020-08-03T13:23:56Z</time>
      </trkpt>
      <trkpt lat="47.4503" lon="-2.49292">
        <ele>16</ele>
        <time>2020-08-03T13:23:57Z</time>
      </trkpt>
      <trkpt lat="47.45031" lon="-2.49288">
        <ele>16</ele>
        <time>2020-08-03T13:23:58Z</time>
      </trkpt>
      <trkpt lat="47.45032" lon="-2.49285">
        <ele>16</ele>
        <time>2020-08-03T13:23:59Z</time>
      </trkpt>
      <trkpt lat="47.45033" lon="-2.49282">
        <ele>16.2</ele>
        <time>2020-08-03T13:24:00Z</time>
      </trkpt>
      <trkpt lat="47.45035" lon="-2.49279">
        <ele>16.2</ele>
        <time>2020-08-03T13:24:01Z</time>
      </trkpt>
      <trkpt lat="47.45036" lon="-2.49275">
        <ele>16.4</ele>
        <time>2020-08-03T13:24:02Z</time>
      </trkpt>
      <trkpt lat="47.45037" lon="-2.49272">
        <ele>16.4</ele>
        <time>2020-08-03T13:24:03Z</time>
      </trkpt>
      <trkpt lat="47.45038" lon="-2.49269">
        <ele>16.6</ele>
        <time>2020-08-03T13:24:04Z</time>
      </trkpt>
      <trkpt lat="47.45039" lon="-2.49265">
        <ele>16.8</ele>
        <time>2020-08-03T13:24:05Z</time>
      </trkpt>
      <trkpt lat="47.4504" lon="-2.49262">
        <ele>16.8</ele>
        <time>2020-08-03T13:24:06Z</time>
      </trkpt>
      <trkpt lat="47.45041" lon="-2.49258">
        <ele>17</ele>
        <time>2020-08-03T13:24:07Z</time>
      </trkpt>
      <trkpt lat="47.45042" lon="-2.49255">
        <ele>17.2</ele>
        <time>2020-08-03T13:24:08Z</time>
      </trkpt>
      <trkpt lat="47.45043" lon="-2.49252">
        <ele>17.4</ele>
        <time>2020-08-03T13:24:09Z</time>
      </trkpt>
      <trkpt lat="47.45045" lon="-2.49249">
        <ele>17.4</ele>
        <time>2020-08-03T13:24:10Z</time>
      </trkpt>
      <trkpt lat="47.45046" lon="-2.49246">
        <ele>17.4</ele>
        <time>2020-08-03T13:24:11Z</time>
      </trkpt>
      <trkpt lat="47.45047" lon="-2.49243">
        <ele>17.6</ele>
        <time>2020-08-03T13:24:12Z</time>
      </trkpt>
      <trkpt lat="47.45048" lon="-2.4924">
        <ele>17.8</ele>
        <time>2020-08-03T13:24:13Z</time>
      </trkpt>
      <trkpt lat="47.45049" lon="-2.49238">
        <ele>17.8</ele>
        <time>2020-08-03T13:24:14Z</time>
      </trkpt>
      <trkpt lat="47.4505" lon="-2.49235">
        <ele>18</ele>
        <time>2020-08-03T13:24:15Z</time>
      </trkpt>
      <trkpt lat="47.45051" lon="-2.49232">
        <ele>18.2</ele>
        <time>2020-08-03T13:24:16Z</time>
      </trkpt>
      <trkpt lat="47.45052" lon="-2.49229">
        <ele>18</ele>
        <time>2020-08-03T13:24:17Z</time>
      </trkpt>
      <trkpt lat="47.45053" lon="-2.49226">
        <ele>18.2</ele>
        <time>2020-08-03T13:24:18Z</time>
      </trkpt>
      <trkpt lat="47.45053" lon="-2.49223">
        <ele>18.2</ele>
        <time>2020-08-03T13:24:19Z</time>
      </trkpt>
      <trkpt lat="47.45052" lon="-2.49221">
        <ele>18.2</ele>
        <time>2020-08-03T13:24:20Z</time>
      </trkpt>
      <trkpt lat="47.45051" lon="-2.49218">
        <ele>18.4</ele>
        <time>2020-08-03T13:24:21Z</time>
      </trkpt>
      <trkpt lat="47.4505" lon="-2.49215">
        <ele>18.6</ele>
        <time>2020-08-03T13:24:22Z</time>
      </trkpt>
      <trkpt lat="47.45048" lon="-2.49213">
        <ele>18.6</ele>
        <time>2020-08-03T13:24:23Z</time>
      </trkpt>
      <trkpt lat="47.45046" lon="-2.49212">
        <ele>18.6</ele>
        <time>2020-08-03T13:24:24Z</time>
      </trkpt>
      <trkpt lat="47.45044" lon="-2.4921">
        <ele>18.8</ele>
        <time>2020-08-03T13:24:25Z</time>
      </trkpt>
      <trkpt lat="47.45041" lon="-2.49209">
        <ele>19</ele>
        <time>2020-08-03T13:24:26Z</time>
      </trkpt>
      <trkpt lat="47.45038" lon="-2.49209">
        <ele>19</ele>
        <time>2020-08-03T13:24:27Z</time>
      </trkpt>
      <trkpt lat="47.45036" lon="-2.49208">
        <ele>19</ele>
        <time>2020-08-03T13:24:28Z</time>
      </trkpt>
      <trkpt lat="47.45033" lon="-2.49207">
        <ele>18.8</ele>
        <time>2020-08-03T13:24:29Z</time>
      </trkpt>
      <trkpt lat="47.4503" lon="-2.49206">
        <ele>18.8</ele>
        <time>2020-08-03T13:24:30Z</time>
      </trkpt>
      <trkpt lat="47.45027" lon="-2.49205">
        <ele>18.8</ele>
        <time>2020-08-03T13:24:31Z</time>
      </trkpt>
      <trkpt lat="47.45024" lon="-2.49204">
        <ele>19</ele>
        <time>2020-08-03T13:24:32Z</time>
      </trkpt>
      <trkpt lat="47.45021" lon="-2.49204">
        <ele>18.8</ele>
        <time>2020-08-03T13:24:33Z</time>
      </trkpt>
      <trkpt lat="47.45018" lon="-2.49203">
        <ele>19.2</ele>
        <time>2020-08-03T13:24:34Z</time>
      </trkpt>
      <trkpt lat="47.45014" lon="-2.49202">
        <ele>19.2</ele>
        <time>2020-08-03T13:24:35Z</time>
      </trkpt>
      <trkpt lat="47.45011" lon="-2.49202">
        <ele>19</ele>
        <time>2020-08-03T13:24:36Z</time>
      </trkpt>
      <trkpt lat="47.45008" lon="-2.49201">
        <ele>19.2</ele>
        <time>2020-08-03T13:24:37Z</time>
      </trkpt>
      <trkpt lat="47.45005" lon="-2.492">
        <ele>19.4</ele>
        <time>2020-08-03T13:24:38Z</time>
      </trkpt>
      <trkpt lat="47.45002" lon="-2.492">
        <ele>19.8</ele>
        <time>2020-08-03T13:24:39Z</time>
      </trkpt>
      <trkpt lat="47.44999" lon="-2.49199">
        <ele>19.8</ele>
        <time>2020-08-03T13:24:40Z</time>
      </trkpt>
      <trkpt lat="47.44996" lon="-2.49197">
        <ele>19.8</ele>
        <time>2020-08-03T13:24:41Z</time>
      </trkpt>
      <trkpt lat="47.44993" lon="-2.49196">
        <ele>19.8</ele>
        <time>2020-08-03T13:24:42Z</time>
      </trkpt>
      <trkpt lat="47.4499" lon="-2.49195">
        <ele>19.4</ele>
        <time>2020-08-03T13:24:43Z</time>
      </trkpt>
      <trkpt lat="47.44986" lon="-2.49195">
        <ele>19.2</ele>
        <time>2020-08-03T13:24:44Z</time>
      </trkpt>
      <trkpt lat="47.44983" lon="-2.49194">
        <ele>19.2</ele>
        <time>2020-08-03T13:24:45Z</time>
      </trkpt>
      <trkpt lat="47.4498" lon="-2.49193">
        <ele>19</ele>
        <time>2020-08-03T13:24:46Z</time>
      </trkpt>
      <trkpt lat="47.44976" lon="-2.49192">
        <ele>18.8</ele>
        <time>2020-08-03T13:24:47Z</time>
      </trkpt>
      <trkpt lat="47.44973" lon="-2.4919">
        <ele>19</ele>
        <time>2020-08-03T13:24:48Z</time>
      </trkpt>
      <trkpt lat="47.4497" lon="-2.49189">
        <ele>19</ele>
        <time>2020-08-03T13:24:49Z</time>
      </trkpt>
      <trkpt lat="47.44966" lon="-2.49188">
        <ele>19.2</ele>
        <time>2020-08-03T13:24:50Z</time>
      </trkpt>
      <trkpt lat="47.44963" lon="-2.49187">
        <ele>19.4</ele>
        <time>2020-08-03T13:24:51Z</time>
      </trkpt>
      <trkpt lat="47.44959" lon="-2.49186">
        <ele>19.6</ele>
        <time>2020-08-03T13:24:52Z</time>
      </trkpt>
      <trkpt lat="47.44955" lon="-2.49185">
        <ele>19.2</ele>
        <time>2020-08-03T13:24:53Z</time>
      </trkpt>
      <trkpt lat="47.44951" lon="-2.49183">
        <ele>19.4</ele>
        <time>2020-08-03T13:24:54Z</time>
      </trkpt>
      <trkpt lat="47.44948" lon="-2.49181">
        <ele>19.4</ele>
        <time>2020-08-03T13:24:55Z</time>
      </trkpt>
      <trkpt lat="47.44944" lon="-2.4918">
        <ele>19.4</ele>
        <time>2020-08-03T13:24:56Z</time>
      </trkpt>
      <trkpt lat="47.4494" lon="-2.49178">
        <ele>19.2</ele>
        <time>2020-08-03T13:24:57Z</time>
      </trkpt>
      <trkpt lat="47.44937" lon="-2.49175">
        <ele>19.8</ele>
        <time>2020-08-03T13:24:58Z</time>
      </trkpt>
      <trkpt lat="47.44933" lon="-2.49173">
        <ele>19.8</ele>
        <time>2020-08-03T13:24:59Z</time>
      </trkpt>
      <trkpt lat="47.44929" lon="-2.49171">
        <ele>19.8</ele>
        <time>2020-08-03T13:25:00Z</time>
      </trkpt>
      <trkpt lat="47.44925" lon="-2.49169">
        <ele>19.2</ele>
        <time>2020-08-03T13:25:01Z</time>
      </trkpt>
      <trkpt lat="47.44921" lon="-2.49166">
        <ele>18.8</ele>
        <time>2020-08-03T13:25:02Z</time>
      </trkpt>
      <trkpt lat="47.44918" lon="-2.49163">
        <ele>18.6</ele>
        <time>2020-08-03T13:25:03Z</time>
      </trkpt>
      <trkpt lat="47.44914" lon="-2.4916">
        <ele>18.6</ele>
        <time>2020-08-03T13:25:04Z</time>
      </trkpt>
      <trkpt lat="47.4491" lon="-2.49157">
        <ele>18.8</ele>
        <time>2020-08-03T13:25:05Z</time>
      </trkpt>
      <trkpt lat="47.44906" lon="-2.49155">
        <ele>18.8</ele>
        <time>2020-08-03T13:25:06Z</time>
      </trkpt>
      <trkpt lat="47.44902" lon="-2.49153">
        <ele>18.8</ele>
        <time>2020-08-03T13:25:07Z</time>
      </trkpt>
      <trkpt lat="47.44899" lon="-2.4915">
        <ele>18.8</ele>
        <time>2020-08-03T13:25:08Z</time>
      </trkpt>
      <trkpt lat="47.44895" lon="-2.49147">
        <ele>19</ele>
        <time>2020-08-03T13:25:09Z</time>
      </trkpt>
      <trkpt lat="47.44892" lon="-2.49144">
        <ele>19</ele>
        <time>2020-08-03T13:25:10Z</time>
      </trkpt>
      <trkpt lat="47.44888" lon="-2.49141">
        <ele>18.8</ele>
        <time>2020-08-03T13:25:11Z</time>
      </trkpt>
      <trkpt lat="47.44885" lon="-2.49138">
        <ele>19</ele>
        <time>2020-08-03T13:25:12Z</time>
      </trkpt>
      <trkpt lat="47.44882" lon="-2.49136">
        <ele>19.2</ele>
        <time>2020-08-03T13:25:13Z</time>
      </trkpt>
      <trkpt lat="47.44879" lon="-2.49132">
        <ele>19.2</ele>
        <time>2020-08-03T13:25:14Z</time>
      </trkpt>
      <trkpt lat="47.44876" lon="-2.49129">
        <ele>19.2</ele>
        <time>2020-08-03T13:25:15Z</time>
      </trkpt>
      <trkpt lat="47.44873" lon="-2.49125">
        <ele>19.4</ele>
        <time>2020-08-03T13:25:16Z</time>
      </trkpt>
      <trkpt lat="47.4487" lon="-2.49122">
        <ele>19.4</ele>
        <time>2020-08-03T13:25:17Z</time>
      </trkpt>
      <trkpt lat="47.44867" lon="-2.49118">
        <ele>19.8</ele>
        <time>2020-08-03T13:25:18Z</time>
      </trkpt>
      <trkpt lat="47.44864" lon="-2.49115">
        <ele>19.6</ele>
        <time>2020-08-03T13:25:19Z</time>
      </trkpt>
      <trkpt lat="47.44861" lon="-2.49111">
        <ele>19.6</ele>
        <time>2020-08-03T13:25:20Z</time>
      </trkpt>
      <trkpt lat="47.44858" lon="-2.49108">
        <ele>19.6</ele>
        <time>2020-08-03T13:25:21Z</time>
      </trkpt>
      <trkpt lat="47.44856" lon="-2.49104">
        <ele>19.4</ele>
        <time>2020-08-03T13:25:22Z</time>
      </trkpt>
      <trkpt lat="47.44853" lon="-2.491">
        <ele>19.4</ele>
        <time>2020-08-03T13:25:23Z</time>
      </trkpt>
      <trkpt lat="47.4485" lon="-2.49096">
        <ele>19.4</ele>
        <time>2020-08-03T13:25:24Z</time>
      </trkpt>
      <trkpt lat="47.44848" lon="-2.49092">
        <ele>19.6</ele>
        <time>2020-08-03T13:25:25Z</time>
      </trkpt>
      <trkpt lat="47.44845" lon="-2.49088">
        <ele>19.8</ele>
        <time>2020-08-03T13:25:26Z</time>
      </trkpt>
      <trkpt lat="47.44842" lon="-2.49084">
        <ele>20</ele>
        <time>2020-08-03T13:25:27Z</time>
      </trkpt>
      <trkpt lat="47.4484" lon="-2.49081">
        <ele>20</ele>
        <time>2020-08-03T13:25:28Z</time>
      </trkpt>
      <trkpt lat="47.44837" lon="-2.49077">
        <ele>19.8</ele>
        <time>2020-08-03T13:25:29Z</time>
      </trkpt>
      <trkpt lat="47.44834" lon="-2.49073">
        <ele>19.8</ele>
        <time>2020-08-03T13:25:30Z</time>
      </trkpt>
      <trkpt lat="47.44832" lon="-2.49068">
        <ele>19.6</ele>
        <time>2020-08-03T13:25:31Z</time>
      </trkpt>
      <trkpt lat="47.44829" lon="-2.49064">
        <ele>19.6</ele>
        <time>2020-08-03T13:25:32Z</time>
      </trkpt>
      <trkpt lat="47.44827" lon="-2.49059">
        <ele>19.6</ele>
        <time>2020-08-03T13:25:33Z</time>
      </trkpt>
      <trkpt lat="47.44824" lon="-2.49055">
        <ele>19.6</ele>
        <time>2020-08-03T13:25:34Z</time>
      </trkpt>
      <trkpt lat="47.44822" lon="-2.4905">
        <ele>19.8</ele>
        <time>2020-08-03T13:25:35Z</time>
      </trkpt>
      <trkpt lat="47.4482" lon="-2.49046">
        <ele>19.6</ele>
        <time>2020-08-03T13:25:36Z</time>
      </trkpt>
      <trkpt lat="47.44817" lon="-2.49041">
        <ele>19.6</ele>
        <time>2020-08-03T13:25:37Z</time>
      </trkpt>
      <trkpt lat="47.44815" lon="-2.49037">
        <ele>19.6</ele>
        <time>2020-08-03T13:25:38Z</time>
      </trkpt>
      <trkpt lat="47.44812" lon="-2.49032">
        <ele>19.6</ele>
        <time>2020-08-03T13:25:39Z</time>
      </trkpt>
      <trkpt lat="47.4481" lon="-2.49027">
        <ele>19.6</ele>
        <time>2020-08-03T13:25:40Z</time>
      </trkpt>
      <trkpt lat="47.44808" lon="-2.49022">
        <ele>19.6</ele>
        <time>2020-08-03T13:25:41Z</time>
      </trkpt>
      <trkpt lat="47.44806" lon="-2.49017">
        <ele>19.6</ele>
        <time>2020-08-03T13:25:42Z</time>
      </trkpt>
      <trkpt lat="47.44804" lon="-2.49011">
        <ele>19.6</ele>
        <time>2020-08-03T13:25:43Z</time>
      </trkpt>
      <trkpt lat="47.44801" lon="-2.49005">
        <ele>19.4</ele>
        <time>2020-08-03T13:25:44Z</time>
      </trkpt>
      <trkpt lat="47.44799" lon="-2.49">
        <ele>19.2</ele>
        <time>2020-08-03T13:25:45Z</time>
      </trkpt>
      <trkpt lat="47.44797" lon="-2.48994">
        <ele>19</ele>
        <time>2020-08-03T13:25:46Z</time>
      </trkpt>
      <trkpt lat="47.44795" lon="-2.48989">
        <ele>18.8</ele>
        <time>2020-08-03T13:25:47Z</time>
      </trkpt>
      <trkpt lat="47.44793" lon="-2.48983">
        <ele>18.8</ele>
        <time>2020-08-03T13:25:48Z</time>
      </trkpt>
      <trkpt lat="47.44791" lon="-2.48978">
        <ele>18.6</ele>
        <time>2020-08-03T13:25:49Z</time>
      </trkpt>
      <trkpt lat="47.44789" lon="-2.48972">
        <ele>18.6</ele>
        <time>2020-08-03T13:25:50Z</time>
      </trkpt>
      <trkpt lat="47.44787" lon="-2.48966">
        <ele>18.6</ele>
        <time>2020-08-03T13:25:51Z</time>
      </trkpt>
      <trkpt lat="47.44785" lon="-2.4896">
        <ele>18.6</ele>
        <time>2020-08-03T13:25:52Z</time>
      </trkpt>
      <trkpt lat="47.44783" lon="-2.48954">
        <ele>18.4</ele>
        <time>2020-08-03T13:25:53Z</time>
      </trkpt>
      <trkpt lat="47.44781" lon="-2.48948">
        <ele>18.4</ele>
        <time>2020-08-03T13:25:54Z</time>
      </trkpt>
      <trkpt lat="47.44779" lon="-2.48943">
        <ele>18.2</ele>
        <time>2020-08-03T13:25:55Z</time>
      </trkpt>
      <trkpt lat="47.44777" lon="-2.48937">
        <ele>18.2</ele>
        <time>2020-08-03T13:25:56Z</time>
      </trkpt>
      <trkpt lat="47.44774" lon="-2.48931">
        <ele>18.4</ele>
        <time>2020-08-03T13:25:57Z</time>
      </trkpt>
      <trkpt lat="47.44772" lon="-2.48925">
        <ele>18.2</ele>
        <time>2020-08-03T13:25:58Z</time>
      </trkpt>
      <trkpt lat="47.4477" lon="-2.48918">
        <ele>18.2</ele>
        <time>2020-08-03T13:25:59Z</time>
      </trkpt>
      <trkpt lat="47.44767" lon="-2.48912">
        <ele>18</ele>
        <time>2020-08-03T13:26:00Z</time>
      </trkpt>
      <trkpt lat="47.44765" lon="-2.48905">
        <ele>17.8</ele>
        <time>2020-08-03T13:26:01Z</time>
      </trkpt>
      <trkpt lat="47.44762" lon="-2.48899">
        <ele>17.6</ele>
        <time>2020-08-03T13:26:02Z</time>
      </trkpt>
      <trkpt lat="47.4476" lon="-2.48892">
        <ele>17.4</ele>
        <time>2020-08-03T13:26:03Z</time>
      </trkpt>
      <trkpt lat="47.44758" lon="-2.48885">
        <ele>17.4</ele>
        <time>2020-08-03T13:26:04Z</time>
      </trkpt>
      <trkpt lat="47.44755" lon="-2.48878">
        <ele>17.4</ele>
        <time>2020-08-03T13:26:05Z</time>
      </trkpt>
      <trkpt lat="47.44753" lon="-2.48871">
        <ele>17.2</ele>
        <time>2020-08-03T13:26:06Z</time>
      </trkpt>
      <trkpt lat="47.4475" lon="-2.48864">
        <ele>17.2</ele>
        <time>2020-08-03T13:26:07Z</time>
      </trkpt>
      <trkpt lat="47.44747" lon="-2.48857">
        <ele>17.2</ele>
        <time>2020-08-03T13:26:08Z</time>
      </trkpt>
      <trkpt lat="47.44744" lon="-2.4885">
        <ele>17</ele>
        <time>2020-08-03T13:26:09Z</time>
      </trkpt>
      <trkpt lat="47.44741" lon="-2.48843">
        <ele>16.8</ele>
        <time>2020-08-03T13:26:10Z</time>
      </trkpt>
      <trkpt lat="47.44738" lon="-2.48836">
        <ele>16.8</ele>
        <time>2020-08-03T13:26:11Z</time>
      </trkpt>
      <trkpt lat="47.44736" lon="-2.48829">
        <ele>16.6</ele>
        <time>2020-08-03T13:26:12Z</time>
      </trkpt>
      <trkpt lat="47.44733" lon="-2.48822">
        <ele>16.6</ele>
        <time>2020-08-03T13:26:13Z</time>
      </trkpt>
      <trkpt lat="47.44729" lon="-2.48816">
        <ele>16.4</ele>
        <time>2020-08-03T13:26:14Z</time>
      </trkpt>
      <trkpt lat="47.44726" lon="-2.48809">
        <ele>16.2</ele>
        <time>2020-08-03T13:26:15Z</time>
      </trkpt>
      <trkpt lat="47.44723" lon="-2.48802">
        <ele>16</ele>
        <time>2020-08-03T13:26:16Z</time>
      </trkpt>
      <trkpt lat="47.4472" lon="-2.48795">
        <ele>15.8</ele>
        <time>2020-08-03T13:26:17Z</time>
      </trkpt>
      <trkpt lat="47.44717" lon="-2.48788">
        <ele>15.8</ele>
        <time>2020-08-03T13:26:18Z</time>
      </trkpt>
      <trkpt lat="47.44714" lon="-2.48781">
        <ele>15.6</ele>
        <time>2020-08-03T13:26:19Z</time>
      </trkpt>
      <trkpt lat="47.44711" lon="-2.48774">
        <ele>15.4</ele>
        <time>2020-08-03T13:26:20Z</time>
      </trkpt>
      <trkpt lat="47.44708" lon="-2.48767">
        <ele>15.4</ele>
        <time>2020-08-03T13:26:21Z</time>
      </trkpt>
      <trkpt lat="47.44705" lon="-2.4876">
        <ele>15.2</ele>
        <time>2020-08-03T13:26:22Z</time>
      </trkpt>
      <trkpt lat="47.44702" lon="-2.48753">
        <ele>15.2</ele>
        <time>2020-08-03T13:26:23Z</time>
      </trkpt>
      <trkpt lat="47.44699" lon="-2.48746">
        <ele>15</ele>
        <time>2020-08-03T13:26:24Z</time>
      </trkpt>
      <trkpt lat="47.44696" lon="-2.48739">
        <ele>15</ele>
        <time>2020-08-03T13:26:25Z</time>
      </trkpt>
      <trkpt lat="47.44693" lon="-2.48732">
        <ele>14.8</ele>
        <time>2020-08-03T13:26:26Z</time>
      </trkpt>
      <trkpt lat="47.4469" lon="-2.48725">
        <ele>14.6</ele>
        <time>2020-08-03T13:26:27Z</time>
      </trkpt>
      <trkpt lat="47.44687" lon="-2.48718">
        <ele>14.6</ele>
        <time>2020-08-03T13:26:28Z</time>
      </trkpt>
      <trkpt lat="47.44684" lon="-2.48711">
        <ele>14.4</ele>
        <time>2020-08-03T13:26:29Z</time>
      </trkpt>
      <trkpt lat="47.44681" lon="-2.48704">
        <ele>14.4</ele>
        <time>2020-08-03T13:26:30Z</time>
      </trkpt>
      <trkpt lat="47.44678" lon="-2.48697">
        <ele>14.4</ele>
        <time>2020-08-03T13:26:31Z</time>
      </trkpt>
      <trkpt lat="47.44675" lon="-2.4869">
        <ele>14.2</ele>
        <time>2020-08-03T13:26:32Z</time>
      </trkpt>
      <trkpt lat="47.44672" lon="-2.48682">
        <ele>14.4</ele>
        <time>2020-08-03T13:26:33Z</time>
      </trkpt>
      <trkpt lat="47.44669" lon="-2.48675">
        <ele>14.6</ele>
        <time>2020-08-03T13:26:34Z</time>
      </trkpt>
      <trkpt lat="47.44666" lon="-2.48668">
        <ele>14.4</ele>
        <time>2020-08-03T13:26:35Z</time>
      </trkpt>
      <trkpt lat="47.44663" lon="-2.4866">
        <ele>14</ele>
        <time>2020-08-03T13:26:36Z</time>
      </trkpt>
      <trkpt lat="47.44659" lon="-2.48653">
        <ele>14.2</ele>
        <time>2020-08-03T13:26:37Z</time>
      </trkpt>
      <trkpt lat="47.44656" lon="-2.48645">
        <ele>14.4</ele>
        <time>2020-08-03T13:26:38Z</time>
      </trkpt>
      <trkpt lat="47.44653" lon="-2.48637">
        <ele>14.2</ele>
        <time>2020-08-03T13:26:39Z</time>
      </trkpt>
      <trkpt lat="47.4465" lon="-2.48629">
        <ele>14.2</ele>
        <time>2020-08-03T13:26:40Z</time>
      </trkpt>
      <trkpt lat="47.44646" lon="-2.48621">
        <ele>14</ele>
        <time>2020-08-03T13:26:41Z</time>
      </trkpt>
      <trkpt lat="47.44643" lon="-2.48614">
        <ele>13.8</ele>
        <time>2020-08-03T13:26:42Z</time>
      </trkpt>
      <trkpt lat="47.44639" lon="-2.48606">
        <ele>13.8</ele>
        <time>2020-08-03T13:26:43Z</time>
      </trkpt>
      <trkpt lat="47.44636" lon="-2.48598">
        <ele>13.8</ele>
        <time>2020-08-03T13:26:44Z</time>
      </trkpt>
      <trkpt lat="47.44632" lon="-2.48591">
        <ele>13.6</ele>
        <time>2020-08-03T13:26:45Z</time>
      </trkpt>
      <trkpt lat="47.4463" lon="-2.48583">
        <ele>13.4</ele>
        <time>2020-08-03T13:26:46Z</time>
      </trkpt>
      <trkpt lat="47.44627" lon="-2.48576">
        <ele>13.4</ele>
        <time>2020-08-03T13:26:47Z</time>
      </trkpt>
      <trkpt lat="47.44623" lon="-2.48569">
        <ele>13.4</ele>
        <time>2020-08-03T13:26:48Z</time>
      </trkpt>
      <trkpt lat="47.4462" lon="-2.48562">
        <ele>13.4</ele>
        <time>2020-08-03T13:26:49Z</time>
      </trkpt>
      <trkpt lat="47.44617" lon="-2.48555">
        <ele>13.4</ele>
        <time>2020-08-03T13:26:50Z</time>
      </trkpt>
      <trkpt lat="47.44614" lon="-2.48548">
        <ele>13.4</ele>
        <time>2020-08-03T13:26:51Z</time>
      </trkpt>
      <trkpt lat="47.44611" lon="-2.48541">
        <ele>13.2</ele>
        <time>2020-08-03T13:26:52Z</time>
      </trkpt>
      <trkpt lat="47.44608" lon="-2.48534">
        <ele>13.4</ele>
        <time>2020-08-03T13:26:53Z</time>
      </trkpt>
      <trkpt lat="47.44605" lon="-2.48527">
        <ele>13.2</ele>
        <time>2020-08-03T13:26:54Z</time>
      </trkpt>
      <trkpt lat="47.44603" lon="-2.48521">
        <ele>13.2</ele>
        <time>2020-08-03T13:26:55Z</time>
      </trkpt>
      <trkpt lat="47.446" lon="-2.48514">
        <ele>13.2</ele>
        <time>2020-08-03T13:26:56Z</time>
      </trkpt>
      <trkpt lat="47.44598" lon="-2.48508">
        <ele>13</ele>
        <time>2020-08-03T13:26:57Z</time>
      </trkpt>
      <trkpt lat="47.44595" lon="-2.48501">
        <ele>12.6</ele>
        <time>2020-08-03T13:26:58Z</time>
      </trkpt>
      <trkpt lat="47.44592" lon="-2.48495">
        <ele>12.4</ele>
        <time>2020-08-03T13:26:59Z</time>
      </trkpt>
      <trkpt lat="47.44589" lon="-2.48489">
        <ele>12.2</ele>
        <time>2020-08-03T13:27:00Z</time>
      </trkpt>
      <trkpt lat="47.44586" lon="-2.48482">
        <ele>12</ele>
        <time>2020-08-03T13:27:01Z</time>
      </trkpt>
      <trkpt lat="47.44583" lon="-2.48475">
        <ele>11.8</ele>
        <time>2020-08-03T13:27:02Z</time>
      </trkpt>
      <trkpt lat="47.44581" lon="-2.48469">
        <ele>11.8</ele>
        <time>2020-08-03T13:27:03Z</time>
      </trkpt>
      <trkpt lat="47.44578" lon="-2.48463">
        <ele>11.6</ele>
        <time>2020-08-03T13:27:04Z</time>
      </trkpt>
      <trkpt lat="47.44576" lon="-2.48456">
        <ele>11.6</ele>
        <time>2020-08-03T13:27:05Z</time>
      </trkpt>
      <trkpt lat="47.44573" lon="-2.4845">
        <ele>11.4</ele>
        <time>2020-08-03T13:27:06Z</time>
      </trkpt>
      <trkpt lat="47.4457" lon="-2.48443">
        <ele>11.4</ele>
        <time>2020-08-03T13:27:07Z</time>
      </trkpt>
      <trkpt lat="47.44567" lon="-2.48437">
        <ele>11.4</ele>
        <time>2020-08-03T13:27:08Z</time>
      </trkpt>
      <trkpt lat="47.44564" lon="-2.4843">
        <ele>11.2</ele>
        <time>2020-08-03T13:27:09Z</time>
      </trkpt>
      <trkpt lat="47.44562" lon="-2.48423">
        <ele>11</ele>
        <time>2020-08-03T13:27:10Z</time>
      </trkpt>
      <trkpt lat="47.44559" lon="-2.48416">
        <ele>11</ele>
        <time>2020-08-03T13:27:11Z</time>
      </trkpt>
      <trkpt lat="47.44557" lon="-2.48409">
        <ele>11</ele>
        <time>2020-08-03T13:27:12Z</time>
      </trkpt>
      <trkpt lat="47.44554" lon="-2.48402">
        <ele>10.8</ele>
        <time>2020-08-03T13:27:13Z</time>
      </trkpt>
      <trkpt lat="47.44552" lon="-2.48396">
        <ele>10.4</ele>
        <time>2020-08-03T13:27:14Z</time>
      </trkpt>
      <trkpt lat="47.4455" lon="-2.4839">
        <ele>10.4</ele>
        <time>2020-08-03T13:27:15Z</time>
      </trkpt>
      <trkpt lat="47.44548" lon="-2.48384">
        <ele>10.2</ele>
        <time>2020-08-03T13:27:16Z</time>
      </trkpt>
      <trkpt lat="47.44547" lon="-2.48379">
        <ele>10.2</ele>
        <time>2020-08-03T13:27:17Z</time>
      </trkpt>
      <trkpt lat="47.44546" lon="-2.48376">
        <ele>10</ele>
        <time>2020-08-03T13:27:18Z</time>
      </trkpt>
      <trkpt lat="47.44545" lon="-2.48374">
        <ele>10.2</ele>
        <time>2020-08-03T13:27:19Z</time>
      </trkpt>
      <trkpt lat="47.44545" lon="-2.48373">
        <ele>10.2</ele>
        <time>2020-08-03T13:27:20Z</time>
      </trkpt>
      <trkpt lat="47.44544" lon="-2.48373">
        <ele>10.4</ele>
        <time>2020-08-03T13:27:21Z</time>
      </trkpt>
      <trkpt lat="47.44544" lon="-2.48373">
        <ele>10.4</ele>
        <time>2020-08-03T13:27:22Z</time>
      </trkpt>
      <trkpt lat="47.44544" lon="-2.48373">
        <ele>10.4</ele>
        <time>2020-08-03T13:27:23Z</time>
      </trkpt>
      <trkpt lat="47.44544" lon="-2.48372">
        <ele>10.2</ele>
        <time>2020-08-03T13:27:24Z</time>
      </trkpt>
      <trkpt lat="47.44543" lon="-2.48372">
        <ele>10.2</ele>
        <time>2020-08-03T13:27:25Z</time>
      </trkpt>
      <trkpt lat="47.44544" lon="-2.48371">
        <ele>10.2</ele>
        <time>2020-08-03T13:27:26Z</time>
      </trkpt>
      <trkpt lat="47.44544" lon="-2.4837">
        <ele>10.2</ele>
        <time>2020-08-03T13:27:27Z</time>
      </trkpt>
      <trkpt lat="47.44539" lon="-2.48335">
        <ele>9.2</ele>
        <time>2020-08-03T13:27:41Z</time>
      </trkpt>
      <trkpt lat="47.44538" lon="-2.48329">
        <ele>9.2</ele>
        <time>2020-08-03T13:27:42Z</time>
      </trkpt>
      <trkpt lat="47.44537" lon="-2.48323">
        <ele>9</ele>
        <time>2020-08-03T13:27:43Z</time>
      </trkpt>
      <trkpt lat="47.44536" lon="-2.48316">
        <ele>9</ele>
        <time>2020-08-03T13:27:44Z</time>
      </trkpt>
      <trkpt lat="47.44535" lon="-2.48309">
        <ele>9</ele>
        <time>2020-08-03T13:27:45Z</time>
      </trkpt>
      <trkpt lat="47.44534" lon="-2.48303">
        <ele>9</ele>
        <time>2020-08-03T13:27:46Z</time>
      </trkpt>
      <trkpt lat="47.44533" lon="-2.48296">
        <ele>9</ele>
        <time>2020-08-03T13:27:47Z</time>
      </trkpt>
      <trkpt lat="47.44532" lon="-2.4829">
        <ele>9</ele>
        <time>2020-08-03T13:27:48Z</time>
      </trkpt>
      <trkpt lat="47.44531" lon="-2.48283">
        <ele>9</ele>
        <time>2020-08-03T13:27:49Z</time>
      </trkpt>
      <trkpt lat="47.44531" lon="-2.48277">
        <ele>9</ele>
        <time>2020-08-03T13:27:50Z</time>
      </trkpt>
      <trkpt lat="47.4453" lon="-2.48271">
        <ele>9</ele>
        <time>2020-08-03T13:27:51Z</time>
      </trkpt>
      <trkpt lat="47.44529" lon="-2.48265">
        <ele>9</ele>
        <time>2020-08-03T13:27:52Z</time>
      </trkpt>
      <trkpt lat="47.44528" lon="-2.48259">
        <ele>9</ele>
        <time>2020-08-03T13:27:53Z</time>
      </trkpt>
      <trkpt lat="47.44528" lon="-2.48254">
        <ele>9</ele>
        <time>2020-08-03T13:27:54Z</time>
      </trkpt>
      <trkpt lat="47.44527" lon="-2.48249">
        <ele>9</ele>
        <time>2020-08-03T13:27:55Z</time>
      </trkpt>
      <trkpt lat="47.44526" lon="-2.48244">
        <ele>9</ele>
        <time>2020-08-03T13:27:56Z</time>
      </trkpt>
      <trkpt lat="47.44525" lon="-2.48239">
        <ele>9</ele>
        <time>2020-08-03T13:27:57Z</time>
      </trkpt>
      <trkpt lat="47.44525" lon="-2.48234">
        <ele>9.2</ele>
        <time>2020-08-03T13:27:58Z</time>
      </trkpt>
      <trkpt lat="47.44524" lon="-2.48229">
        <ele>9.4</ele>
        <time>2020-08-03T13:27:59Z</time>
      </trkpt>
      <trkpt lat="47.44523" lon="-2.48225">
        <ele>9.4</ele>
        <time>2020-08-03T13:28:00Z</time>
      </trkpt>
      <trkpt lat="47.44522" lon="-2.48222">
        <ele>9.6</ele>
        <time>2020-08-03T13:28:01Z</time>
      </trkpt>
      <trkpt lat="47.44521" lon="-2.48222">
        <ele>9.8</ele>
        <time>2020-08-03T13:28:02Z</time>
      </trkpt>
      <trkpt lat="47.4452" lon="-2.48221">
        <ele>9.8</ele>
        <time>2020-08-03T13:28:03Z</time>
      </trkpt>
      <trkpt lat="47.44519" lon="-2.48222">
        <ele>10.2</ele>
        <time>2020-08-03T13:28:04Z</time>
      </trkpt>
      <trkpt lat="47.44518" lon="-2.48222">
        <ele>10.4</ele>
        <time>2020-08-03T13:28:05Z</time>
      </trkpt>
      <trkpt lat="47.44516" lon="-2.48222">
        <ele>10.2</ele>
        <time>2020-08-03T13:28:06Z</time>
      </trkpt>
      <trkpt lat="47.44515" lon="-2.48222">
        <ele>10</ele>
        <time>2020-08-03T13:28:07Z</time>
      </trkpt>
      <trkpt lat="47.44513" lon="-2.48221">
        <ele>9.8</ele>
        <time>2020-08-03T13:28:08Z</time>
      </trkpt>
      <trkpt lat="47.44511" lon="-2.48221">
        <ele>9.6</ele>
        <time>2020-08-03T13:28:09Z</time>
      </trkpt>
      <trkpt lat="47.44509" lon="-2.48221">
        <ele>9.6</ele>
        <time>2020-08-03T13:28:10Z</time>
      </trkpt>
      <trkpt lat="47.44506" lon="-2.48221">
        <ele>9.4</ele>
        <time>2020-08-03T13:28:11Z</time>
      </trkpt>
      <trkpt lat="47.44504" lon="-2.48222">
        <ele>9.4</ele>
        <time>2020-08-03T13:28:12Z</time>
      </trkpt>
      <trkpt lat="47.44501" lon="-2.48222">
        <ele>9.4</ele>
        <time>2020-08-03T13:28:13Z</time>
      </trkpt>
      <trkpt lat="47.44498" lon="-2.48223">
        <ele>9.6</ele>
        <time>2020-08-03T13:28:14Z</time>
      </trkpt>
      <trkpt lat="47.44494" lon="-2.48223">
        <ele>9.8</ele>
        <time>2020-08-03T13:28:15Z</time>
      </trkpt>
      <trkpt lat="47.44491" lon="-2.48223">
        <ele>9.8</ele>
        <time>2020-08-03T13:28:16Z</time>
      </trkpt>
      <trkpt lat="47.44487" lon="-2.48223">
        <ele>9.8</ele>
        <time>2020-08-03T13:28:17Z</time>
      </trkpt>
      <trkpt lat="47.44483" lon="-2.48223">
        <ele>9.6</ele>
        <time>2020-08-03T13:28:18Z</time>
      </trkpt>
      <trkpt lat="47.44479" lon="-2.48224">
        <ele>9.6</ele>
        <time>2020-08-03T13:28:19Z</time>
      </trkpt>
      <trkpt lat="47.44475" lon="-2.48224">
        <ele>9.6</ele>
        <time>2020-08-03T13:28:20Z</time>
      </trkpt>
      <trkpt lat="47.44471" lon="-2.48224">
        <ele>9.4</ele>
        <time>2020-08-03T13:28:21Z</time>
      </trkpt>
      <trkpt lat="47.44466" lon="-2.48225">
        <ele>9.4</ele>
        <time>2020-08-03T13:28:22Z</time>
      </trkpt>
      <trkpt lat="47.44462" lon="-2.48225">
        <ele>9.4</ele>
        <time>2020-08-03T13:28:23Z</time>
      </trkpt>
      <trkpt lat="47.44457" lon="-2.48225">
        <ele>9.6</ele>
        <time>2020-08-03T13:28:24Z</time>
      </trkpt>
      <trkpt lat="47.44453" lon="-2.48225">
        <ele>9.4</ele>
        <time>2020-08-03T13:28:25Z</time>
      </trkpt>
      <trkpt lat="47.44448" lon="-2.48225">
        <ele>9.4</ele>
        <time>2020-08-03T13:28:26Z</time>
      </trkpt>
      <trkpt lat="47.44443" lon="-2.48225">
        <ele>9.4</ele>
        <time>2020-08-03T13:28:27Z</time>
      </trkpt>
      <trkpt lat="47.44439" lon="-2.48226">
        <ele>9.4</ele>
        <time>2020-08-03T13:28:28Z</time>
      </trkpt>
      <trkpt lat="47.44434" lon="-2.48226">
        <ele>9.6</ele>
        <time>2020-08-03T13:28:29Z</time>
      </trkpt>
      <trkpt lat="47.4443" lon="-2.48226">
        <ele>9.4</ele>
        <time>2020-08-03T13:28:30Z</time>
      </trkpt>
      <trkpt lat="47.44425" lon="-2.48226">
        <ele>9.2</ele>
        <time>2020-08-03T13:28:31Z</time>
      </trkpt>
      <trkpt lat="47.44421" lon="-2.48226">
        <ele>9.2</ele>
        <time>2020-08-03T13:28:32Z</time>
      </trkpt>
      <trkpt lat="47.44417" lon="-2.48226">
        <ele>9.2</ele>
        <time>2020-08-03T13:28:33Z</time>
      </trkpt>
      <trkpt lat="47.44412" lon="-2.48226">
        <ele>9.2</ele>
        <time>2020-08-03T13:28:34Z</time>
      </trkpt>
      <trkpt lat="47.44408" lon="-2.48227">
        <ele>9</ele>
        <time>2020-08-03T13:28:35Z</time>
      </trkpt>
      <trkpt lat="47.44403" lon="-2.48227">
        <ele>9</ele>
        <time>2020-08-03T13:28:36Z</time>
      </trkpt>
      <trkpt lat="47.44399" lon="-2.48227">
        <ele>9</ele>
        <time>2020-08-03T13:28:37Z</time>
      </trkpt>
      <trkpt lat="47.44395" lon="-2.48228">
        <ele>9</ele>
        <time>2020-08-03T13:28:38Z</time>
      </trkpt>
      <trkpt lat="47.44391" lon="-2.48228">
        <ele>9</ele>
        <time>2020-08-03T13:28:39Z</time>
      </trkpt>
      <trkpt lat="47.4439" lon="-2.48228">
        <ele>9</ele>
        <time>2020-08-03T13:28:40Z</time>
      </trkpt>
      <trkpt lat="47.44389" lon="-2.48228">
        <ele>9</ele>
        <time>2020-08-03T13:28:41Z</time>
      </trkpt>
      <trkpt lat="47.44389" lon="-2.48228">
        <ele>9</ele>
        <time>2020-08-03T13:28:42Z</time>
      </trkpt>
      <trkpt lat="47.44389" lon="-2.48228">
        <ele>9.2</ele>
        <time>2020-08-03T13:28:43Z</time>
      </trkpt>
      <trkpt lat="47.44389" lon="-2.48228">
        <ele>9.2</ele>
        <time>2020-08-03T13:28:44Z</time>
      </trkpt>
      <trkpt lat="47.44389" lon="-2.48228">
        <ele>8.8</ele>
        <time>2020-08-03T13:28:45Z</time>
      </trkpt>
      <trkpt lat="47.44388" lon="-2.48228">
        <ele>8.8</ele>
        <time>2020-08-03T13:28:46Z</time>
      </trkpt>
      <trkpt lat="47.44387" lon="-2.48228">
        <ele>8.8</ele>
        <time>2020-08-03T13:28:47Z</time>
      </trkpt>
      <trkpt lat="47.44386" lon="-2.48228">
        <ele>9</ele>
        <time>2020-08-03T13:28:48Z</time>
      </trkpt>
      <trkpt lat="47.44371" lon="-2.48229">
        <ele>8.8</ele>
        <time>2020-08-03T13:28:54Z</time>
      </trkpt>
      <trkpt lat="47.44364" lon="-2.48229">
        <ele>8.6</ele>
        <time>2020-08-03T13:28:56Z</time>
      </trkpt>
      <trkpt lat="47.44361" lon="-2.48229">
        <ele>8.8</ele>
        <time>2020-08-03T13:28:57Z</time>
      </trkpt>
      <trkpt lat="47.44358" lon="-2.48229">
        <ele>9</ele>
        <time>2020-08-03T13:28:58Z</time>
      </trkpt>
      <trkpt lat="47.44354" lon="-2.48229">
        <ele>9.2</ele>
        <time>2020-08-03T13:28:59Z</time>
      </trkpt>
      <trkpt lat="47.44351" lon="-2.48229">
        <ele>9.2</ele>
        <time>2020-08-03T13:29:00Z</time>
      </trkpt>
      <trkpt lat="47.44348" lon="-2.48228">
        <ele>9.2</ele>
        <time>2020-08-03T13:29:01Z</time>
      </trkpt>
      <trkpt lat="47.44345" lon="-2.48228">
        <ele>9.4</ele>
        <time>2020-08-03T13:29:02Z</time>
      </trkpt>
      <trkpt lat="47.44342" lon="-2.48228">
        <ele>9.4</ele>
        <time>2020-08-03T13:29:03Z</time>
      </trkpt>
      <trkpt lat="47.44339" lon="-2.48227">
        <ele>9.6</ele>
        <time>2020-08-03T13:29:04Z</time>
      </trkpt>
      <trkpt lat="47.44336" lon="-2.48226">
        <ele>9.6</ele>
        <time>2020-08-03T13:29:05Z</time>
      </trkpt>
      <trkpt lat="47.44334" lon="-2.48226">
        <ele>9.6</ele>
        <time>2020-08-03T13:29:06Z</time>
      </trkpt>
      <trkpt lat="47.44331" lon="-2.48225">
        <ele>9.6</ele>
        <time>2020-08-03T13:29:07Z</time>
      </trkpt>
      <trkpt lat="47.44329" lon="-2.48225">
        <ele>9.6</ele>
        <time>2020-08-03T13:29:08Z</time>
      </trkpt>
      <trkpt lat="47.44327" lon="-2.48224">
        <ele>9.8</ele>
        <time>2020-08-03T13:29:09Z</time>
      </trkpt>
      <trkpt lat="47.44325" lon="-2.48223">
        <ele>9.8</ele>
        <time>2020-08-03T13:29:10Z</time>
      </trkpt>
      <trkpt lat="47.44323" lon="-2.48224">
        <ele>9.8</ele>
        <time>2020-08-03T13:29:11Z</time>
      </trkpt>
      <trkpt lat="47.44322" lon="-2.48225">
        <ele>10</ele>
        <time>2020-08-03T13:29:12Z</time>
      </trkpt>
      <trkpt lat="47.4432" lon="-2.48226">
        <ele>10.2</ele>
        <time>2020-08-03T13:29:13Z</time>
      </trkpt>
      <trkpt lat="47.44319" lon="-2.48226">
        <ele>10.2</ele>
        <time>2020-08-03T13:29:14Z</time>
      </trkpt>
      <trkpt lat="47.44317" lon="-2.48228">
        <ele>10.2</ele>
        <time>2020-08-03T13:29:15Z</time>
      </trkpt>
      <trkpt lat="47.44316" lon="-2.48229">
        <ele>10.6</ele>
        <time>2020-08-03T13:29:16Z</time>
      </trkpt>
      <trkpt lat="47.44314" lon="-2.4823">
        <ele>10.6</ele>
        <time>2020-08-03T13:29:17Z</time>
      </trkpt>
      <trkpt lat="47.44313" lon="-2.48231">
        <ele>10.4</ele>
        <time>2020-08-03T13:29:18Z</time>
      </trkpt>
      <trkpt lat="47.44313" lon="-2.48232">
        <ele>10.4</ele>
        <time>2020-08-03T13:29:19Z</time>
      </trkpt>
      <trkpt lat="47.44312" lon="-2.48232">
        <ele>10.4</ele>
        <time>2020-08-03T13:29:20Z</time>
      </trkpt>
      <trkpt lat="47.44312" lon="-2.48232">
        <ele>10.4</ele>
        <time>2020-08-03T13:29:21Z</time>
      </trkpt>
      <trkpt lat="47.44312" lon="-2.48232">
        <ele>10.4</ele>
        <time>2020-08-03T13:29:22Z</time>
      </trkpt>
      <trkpt lat="47.44311" lon="-2.48232">
        <ele>10.6</ele>
        <time>2020-08-03T13:29:23Z</time>
      </trkpt>
      <trkpt lat="47.44311" lon="-2.48232">
        <ele>10.8</ele>
        <time>2020-08-03T13:29:24Z</time>
      </trkpt>
      <trkpt lat="47.4431" lon="-2.48232">
        <ele>10.8</ele>
        <time>2020-08-03T13:29:25Z</time>
      </trkpt>
      <trkpt lat="47.4431" lon="-2.48231">
        <ele>10.8</ele>
        <time>2020-08-03T13:29:26Z</time>
      </trkpt>
      <trkpt lat="47.4431" lon="-2.48231">
        <ele>10.6</ele>
        <time>2020-08-03T13:29:27Z</time>
      </trkpt>
      <trkpt lat="47.44304" lon="-2.48214">
        <ele>11</ele>
        <time>2020-08-03T13:29:44Z</time>
      </trkpt>
      <trkpt lat="47.44303" lon="-2.48213">
        <ele>11.2</ele>
        <time>2020-08-03T13:29:45Z</time>
      </trkpt>
      <trkpt lat="47.44302" lon="-2.48211">
        <ele>11</ele>
        <time>2020-08-03T13:29:46Z</time>
      </trkpt>
      <trkpt lat="47.443" lon="-2.48209">
        <ele>11.4</ele>
        <time>2020-08-03T13:29:47Z</time>
      </trkpt>
      <trkpt lat="47.44299" lon="-2.48208">
        <ele>11.4</ele>
        <time>2020-08-03T13:29:48Z</time>
      </trkpt>
      <trkpt lat="47.44297" lon="-2.48206">
        <ele>11.6</ele>
        <time>2020-08-03T13:29:49Z</time>
      </trkpt>
      <trkpt lat="47.44296" lon="-2.48204">
        <ele>11.6</ele>
        <time>2020-08-03T13:29:50Z</time>
      </trkpt>
      <trkpt lat="47.44294" lon="-2.48202">
        <ele>11.6</ele>
        <time>2020-08-03T13:29:51Z</time>
      </trkpt>
      <trkpt lat="47.44293" lon="-2.482">
        <ele>11.6</ele>
        <time>2020-08-03T13:29:52Z</time>
      </trkpt>
      <trkpt lat="47.44291" lon="-2.48198">
        <ele>11.6</ele>
        <time>2020-08-03T13:29:53Z</time>
      </trkpt>
      <trkpt lat="47.4429" lon="-2.48196">
        <ele>11.6</ele>
        <time>2020-08-03T13:29:54Z</time>
      </trkpt>
      <trkpt lat="47.44288" lon="-2.48194">
        <ele>11.6</ele>
        <time>2020-08-03T13:29:55Z</time>
      </trkpt>
      <trkpt lat="47.44287" lon="-2.48192">
        <ele>11.6</ele>
        <time>2020-08-03T13:29:56Z</time>
      </trkpt>
      <trkpt lat="47.44285" lon="-2.4819">
        <ele>11.6</ele>
        <time>2020-08-03T13:29:57Z</time>
      </trkpt>
      <trkpt lat="47.44284" lon="-2.48188">
        <ele>11.2</ele>
        <time>2020-08-03T13:29:58Z</time>
      </trkpt>
      <trkpt lat="47.44282" lon="-2.48185">
        <ele>11</ele>
        <time>2020-08-03T13:29:59Z</time>
      </trkpt>
      <trkpt lat="47.44281" lon="-2.48183">
        <ele>11.4</ele>
        <time>2020-08-03T13:30:00Z</time>
      </trkpt>
      <trkpt lat="47.44279" lon="-2.48181">
        <ele>11.8</ele>
        <time>2020-08-03T13:30:01Z</time>
      </trkpt>
      <trkpt lat="47.44278" lon="-2.48179">
        <ele>12.4</ele>
        <time>2020-08-03T13:30:02Z</time>
      </trkpt>
      <trkpt lat="47.44277" lon="-2.48177">
        <ele>12.6</ele>
        <time>2020-08-03T13:30:03Z</time>
      </trkpt>
      <trkpt lat="47.44276" lon="-2.48176">
        <ele>12.8</ele>
        <time>2020-08-03T13:30:04Z</time>
      </trkpt>
      <trkpt lat="47.44275" lon="-2.48174">
        <ele>12.6</ele>
        <time>2020-08-03T13:30:05Z</time>
      </trkpt>
      <trkpt lat="47.44274" lon="-2.48172">
        <ele>12.6</ele>
        <time>2020-08-03T13:30:06Z</time>
      </trkpt>
      <trkpt lat="47.44272" lon="-2.4817">
        <ele>12.6</ele>
        <time>2020-08-03T13:30:07Z</time>
      </trkpt>
      <trkpt lat="47.44271" lon="-2.48167">
        <ele>12.4</ele>
        <time>2020-08-03T13:30:08Z</time>
      </trkpt>
      <trkpt lat="47.4427" lon="-2.48164">
        <ele>12.4</ele>
        <time>2020-08-03T13:30:09Z</time>
      </trkpt>
      <trkpt lat="47.44268" lon="-2.48161">
        <ele>12.4</ele>
        <time>2020-08-03T13:30:10Z</time>
      </trkpt>
      <trkpt lat="47.44266" lon="-2.48158">
        <ele>12.4</ele>
        <time>2020-08-03T13:30:11Z</time>
      </trkpt>
      <trkpt lat="47.44263" lon="-2.48155">
        <ele>12.6</ele>
        <time>2020-08-03T13:30:12Z</time>
      </trkpt>
      <trkpt lat="47.44261" lon="-2.48152">
        <ele>13.6</ele>
        <time>2020-08-03T13:30:13Z</time>
      </trkpt>
      <trkpt lat="47.44258" lon="-2.4815">
        <ele>13</ele>
        <time>2020-08-03T13:30:14Z</time>
      </trkpt>
      <trkpt lat="47.44255" lon="-2.48148">
        <ele>13</ele>
        <time>2020-08-03T13:30:15Z</time>
      </trkpt>
      <trkpt lat="47.44251" lon="-2.48146">
        <ele>13.4</ele>
        <time>2020-08-03T13:30:16Z</time>
      </trkpt>
      <trkpt lat="47.44248" lon="-2.48144">
        <ele>14</ele>
        <time>2020-08-03T13:30:17Z</time>
      </trkpt>
      <trkpt lat="47.44245" lon="-2.48142">
        <ele>14</ele>
        <time>2020-08-03T13:30:18Z</time>
      </trkpt>
      <trkpt lat="47.44241" lon="-2.48139">
        <ele>13.6</ele>
        <time>2020-08-03T13:30:19Z</time>
      </trkpt>
      <trkpt lat="47.44238" lon="-2.48137">
        <ele>13.8</ele>
        <time>2020-08-03T13:30:20Z</time>
      </trkpt>
      <trkpt lat="47.44235" lon="-2.48135">
        <ele>13.6</ele>
        <time>2020-08-03T13:30:21Z</time>
      </trkpt>
      <trkpt lat="47.44232" lon="-2.48133">
        <ele>13.4</ele>
        <time>2020-08-03T13:30:22Z</time>
      </trkpt>
      <trkpt lat="47.44229" lon="-2.4813">
        <ele>13.4</ele>
        <time>2020-08-03T13:30:23Z</time>
      </trkpt>
      <trkpt lat="47.44226" lon="-2.48128">
        <ele>13.4</ele>
        <time>2020-08-03T13:30:24Z</time>
      </trkpt>
      <trkpt lat="47.44223" lon="-2.48125">
        <ele>13.4</ele>
        <time>2020-08-03T13:30:25Z</time>
      </trkpt>
      <trkpt lat="47.4422" lon="-2.48122">
        <ele>13.4</ele>
        <time>2020-08-03T13:30:26Z</time>
      </trkpt>
      <trkpt lat="47.44218" lon="-2.48118">
        <ele>13.4</ele>
        <time>2020-08-03T13:30:27Z</time>
      </trkpt>
      <trkpt lat="47.44215" lon="-2.48115">
        <ele>13.2</ele>
        <time>2020-08-03T13:30:28Z</time>
      </trkpt>
      <trkpt lat="47.44213" lon="-2.4811">
        <ele>13.6</ele>
        <time>2020-08-03T13:30:29Z</time>
      </trkpt>
      <trkpt lat="47.44212" lon="-2.48106">
        <ele>13.8</ele>
        <time>2020-08-03T13:30:30Z</time>
      </trkpt>
      <trkpt lat="47.44211" lon="-2.48101">
        <ele>13.8</ele>
        <time>2020-08-03T13:30:31Z</time>
      </trkpt>
      <trkpt lat="47.44209" lon="-2.48097">
        <ele>13.6</ele>
        <time>2020-08-03T13:30:32Z</time>
      </trkpt>
      <trkpt lat="47.44209" lon="-2.48092">
        <ele>13.4</ele>
        <time>2020-08-03T13:30:33Z</time>
      </trkpt>
      <trkpt lat="47.44209" lon="-2.48088">
        <ele>13.6</ele>
        <time>2020-08-03T13:30:34Z</time>
      </trkpt>
      <trkpt lat="47.44208" lon="-2.48083">
        <ele>13.6</ele>
        <time>2020-08-03T13:30:35Z</time>
      </trkpt>
      <trkpt lat="47.44208" lon="-2.48078">
        <ele>13.4</ele>
        <time>2020-08-03T13:30:36Z</time>
      </trkpt>
      <trkpt lat="47.44209" lon="-2.48074">
        <ele>13.2</ele>
        <time>2020-08-03T13:30:37Z</time>
      </trkpt>
      <trkpt lat="47.44209" lon="-2.48069">
        <ele>13.2</ele>
        <time>2020-08-03T13:30:38Z</time>
      </trkpt>
      <trkpt lat="47.4421" lon="-2.48065">
        <ele>13.4</ele>
        <time>2020-08-03T13:30:39Z</time>
      </trkpt>
      <trkpt lat="47.44212" lon="-2.48061">
        <ele>13.6</ele>
        <time>2020-08-03T13:30:40Z</time>
      </trkpt>
      <trkpt lat="47.44214" lon="-2.48057">
        <ele>13.6</ele>
        <time>2020-08-03T13:30:41Z</time>
      </trkpt>
      <trkpt lat="47.44217" lon="-2.48054">
        <ele>13.6</ele>
        <time>2020-08-03T13:30:42Z</time>
      </trkpt>
      <trkpt lat="47.4422" lon="-2.48052">
        <ele>14</ele>
        <time>2020-08-03T13:30:43Z</time>
      </trkpt>
      <trkpt lat="47.44223" lon="-2.48051">
        <ele>14</ele>
        <time>2020-08-03T13:30:44Z</time>
      </trkpt>
      <trkpt lat="47.44226" lon="-2.4805">
        <ele>13.6</ele>
        <time>2020-08-03T13:30:45Z</time>
      </trkpt>
      <trkpt lat="47.4423" lon="-2.48049">
        <ele>14</ele>
        <time>2020-08-03T13:30:46Z</time>
      </trkpt>
      <trkpt lat="47.44233" lon="-2.48048">
        <ele>13.6</ele>
        <time>2020-08-03T13:30:47Z</time>
      </trkpt>
      <trkpt lat="47.44237" lon="-2.48047">
        <ele>14</ele>
        <time>2020-08-03T13:30:48Z</time>
      </trkpt>
      <trkpt lat="47.4424" lon="-2.48046">
        <ele>14.2</ele>
        <time>2020-08-03T13:30:49Z</time>
      </trkpt>
      <trkpt lat="47.44244" lon="-2.48046">
        <ele>14</ele>
        <time>2020-08-03T13:30:50Z</time>
      </trkpt>
      <trkpt lat="47.44247" lon="-2.48045">
        <ele>14.4</ele>
        <time>2020-08-03T13:30:51Z</time>
      </trkpt>
      <trkpt lat="47.44251" lon="-2.48044">
        <ele>14.2</ele>
        <time>2020-08-03T13:30:52Z</time>
      </trkpt>
      <trkpt lat="47.44254" lon="-2.48043">
        <ele>14.6</ele>
        <time>2020-08-03T13:30:53Z</time>
      </trkpt>
      <trkpt lat="47.44257" lon="-2.48042">
        <ele>14.8</ele>
        <time>2020-08-03T13:30:54Z</time>
      </trkpt>
      <trkpt lat="47.44261" lon="-2.48041">
        <ele>14.6</ele>
        <time>2020-08-03T13:30:55Z</time>
      </trkpt>
      <trkpt lat="47.44264" lon="-2.4804">
        <ele>15</ele>
        <time>2020-08-03T13:30:56Z</time>
      </trkpt>
      <trkpt lat="47.44267" lon="-2.48039">
        <ele>15.2</ele>
        <time>2020-08-03T13:30:57Z</time>
      </trkpt>
      <trkpt lat="47.44271" lon="-2.48038">
        <ele>15.2</ele>
        <time>2020-08-03T13:30:58Z</time>
      </trkpt>
      <trkpt lat="47.44274" lon="-2.48037">
        <ele>15</ele>
        <time>2020-08-03T13:30:59Z</time>
      </trkpt>
      <trkpt lat="47.44277" lon="-2.48036">
        <ele>15</ele>
        <time>2020-08-03T13:31:00Z</time>
      </trkpt>
      <trkpt lat="47.44281" lon="-2.48036">
        <ele>15</ele>
        <time>2020-08-03T13:31:01Z</time>
      </trkpt>
      <trkpt lat="47.44284" lon="-2.48035">
        <ele>15</ele>
        <time>2020-08-03T13:31:02Z</time>
      </trkpt>
      <trkpt lat="47.44287" lon="-2.48034">
        <ele>15</ele>
        <time>2020-08-03T13:31:03Z</time>
      </trkpt>
      <trkpt lat="47.44291" lon="-2.48034">
        <ele>15</ele>
        <time>2020-08-03T13:31:04Z</time>
      </trkpt>
      <trkpt lat="47.44294" lon="-2.48033">
        <ele>15</ele>
        <time>2020-08-03T13:31:05Z</time>
      </trkpt>
      <trkpt lat="47.44297" lon="-2.48032">
        <ele>15.2</ele>
        <time>2020-08-03T13:31:06Z</time>
      </trkpt>
      <trkpt lat="47.44301" lon="-2.48031">
        <ele>14.8</ele>
        <time>2020-08-03T13:31:07Z</time>
      </trkpt>
      <trkpt lat="47.44304" lon="-2.48031">
        <ele>14.8</ele>
        <time>2020-08-03T13:31:08Z</time>
      </trkpt>
      <trkpt lat="47.44308" lon="-2.4803">
        <ele>15</ele>
        <time>2020-08-03T13:31:09Z</time>
      </trkpt>
      <trkpt lat="47.44311" lon="-2.4803">
        <ele>15.2</ele>
        <time>2020-08-03T13:31:10Z</time>
      </trkpt>
      <trkpt lat="47.44315" lon="-2.48029">
        <ele>15.2</ele>
        <time>2020-08-03T13:31:11Z</time>
      </trkpt>
      <trkpt lat="47.44318" lon="-2.48029">
        <ele>15</ele>
        <time>2020-08-03T13:31:12Z</time>
      </trkpt>
      <trkpt lat="47.44321" lon="-2.48029">
        <ele>15</ele>
        <time>2020-08-03T13:31:13Z</time>
      </trkpt>
      <trkpt lat="47.44324" lon="-2.48029">
        <ele>14.8</ele>
        <time>2020-08-03T13:31:14Z</time>
      </trkpt>
      <trkpt lat="47.44328" lon="-2.48029">
        <ele>15</ele>
        <time>2020-08-03T13:31:15Z</time>
      </trkpt>
      <trkpt lat="47.44331" lon="-2.48028">
        <ele>15.6</ele>
        <time>2020-08-03T13:31:16Z</time>
      </trkpt>
      <trkpt lat="47.44334" lon="-2.48027">
        <ele>15.4</ele>
        <time>2020-08-03T13:31:17Z</time>
      </trkpt>
      <trkpt lat="47.44338" lon="-2.48026">
        <ele>15.2</ele>
        <time>2020-08-03T13:31:18Z</time>
      </trkpt>
      <trkpt lat="47.44341" lon="-2.48025">
        <ele>14.8</ele>
        <time>2020-08-03T13:31:19Z</time>
      </trkpt>
      <trkpt lat="47.44344" lon="-2.48025">
        <ele>15</ele>
        <time>2020-08-03T13:31:20Z</time>
      </trkpt>
      <trkpt lat="47.44348" lon="-2.48024">
        <ele>15</ele>
        <time>2020-08-03T13:31:21Z</time>
      </trkpt>
      <trkpt lat="47.44351" lon="-2.48024">
        <ele>15</ele>
        <time>2020-08-03T13:31:22Z</time>
      </trkpt>
      <trkpt lat="47.44354" lon="-2.48023">
        <ele>15</ele>
        <time>2020-08-03T13:31:23Z</time>
      </trkpt>
      <trkpt lat="47.44358" lon="-2.48023">
        <ele>15.2</ele>
        <time>2020-08-03T13:31:24Z</time>
      </trkpt>
      <trkpt lat="47.44361" lon="-2.48022">
        <ele>15.2</ele>
        <time>2020-08-03T13:31:25Z</time>
      </trkpt>
      <trkpt lat="47.44364" lon="-2.48022">
        <ele>15.4</ele>
        <time>2020-08-03T13:31:26Z</time>
      </trkpt>
      <trkpt lat="47.44368" lon="-2.48021">
        <ele>15.4</ele>
        <time>2020-08-03T13:31:27Z</time>
      </trkpt>
      <trkpt lat="47.44371" lon="-2.48021">
        <ele>15.6</ele>
        <time>2020-08-03T13:31:28Z</time>
      </trkpt>
      <trkpt lat="47.44374" lon="-2.48021">
        <ele>15.6</ele>
        <time>2020-08-03T13:31:29Z</time>
      </trkpt>
      <trkpt lat="47.44377" lon="-2.4802">
        <ele>15.6</ele>
        <time>2020-08-03T13:31:30Z</time>
      </trkpt>
      <trkpt lat="47.44381" lon="-2.4802">
        <ele>15.8</ele>
        <time>2020-08-03T13:31:31Z</time>
      </trkpt>
      <trkpt lat="47.44384" lon="-2.48019">
        <ele>15.8</ele>
        <time>2020-08-03T13:31:32Z</time>
      </trkpt>
      <trkpt lat="47.44388" lon="-2.48019">
        <ele>15.8</ele>
        <time>2020-08-03T13:31:33Z</time>
      </trkpt>
      <trkpt lat="47.44391" lon="-2.48018">
        <ele>15.8</ele>
        <time>2020-08-03T13:31:34Z</time>
      </trkpt>
      <trkpt lat="47.44395" lon="-2.48016">
        <ele>15.8</ele>
        <time>2020-08-03T13:31:35Z</time>
      </trkpt>
      <trkpt lat="47.44399" lon="-2.48015">
        <ele>15.8</ele>
        <time>2020-08-03T13:31:36Z</time>
      </trkpt>
      <trkpt lat="47.44403" lon="-2.48014">
        <ele>15.8</ele>
        <time>2020-08-03T13:31:37Z</time>
      </trkpt>
      <trkpt lat="47.44407" lon="-2.48013">
        <ele>15.8</ele>
        <time>2020-08-03T13:31:38Z</time>
      </trkpt>
      <trkpt lat="47.44411" lon="-2.48012">
        <ele>15.8</ele>
        <time>2020-08-03T13:31:39Z</time>
      </trkpt>
      <trkpt lat="47.44414" lon="-2.48011">
        <ele>15.8</ele>
        <time>2020-08-03T13:31:40Z</time>
      </trkpt>
      <trkpt lat="47.44418" lon="-2.48011">
        <ele>15.8</ele>
        <time>2020-08-03T13:31:41Z</time>
      </trkpt>
      <trkpt lat="47.44422" lon="-2.4801">
        <ele>15.8</ele>
        <time>2020-08-03T13:31:42Z</time>
      </trkpt>
      <trkpt lat="47.44425" lon="-2.4801">
        <ele>15.8</ele>
        <time>2020-08-03T13:31:43Z</time>
      </trkpt>
      <trkpt lat="47.44429" lon="-2.48008">
        <ele>15.8</ele>
        <time>2020-08-03T13:31:44Z</time>
      </trkpt>
      <trkpt lat="47.44433" lon="-2.48007">
        <ele>15.8</ele>
        <time>2020-08-03T13:31:45Z</time>
      </trkpt>
      <trkpt lat="47.44437" lon="-2.48006">
        <ele>15.6</ele>
        <time>2020-08-03T13:31:46Z</time>
      </trkpt>
      <trkpt lat="47.4444" lon="-2.48004">
        <ele>15.6</ele>
        <time>2020-08-03T13:31:47Z</time>
      </trkpt>
      <trkpt lat="47.44444" lon="-2.48002">
        <ele>15.8</ele>
        <time>2020-08-03T13:31:48Z</time>
      </trkpt>
      <trkpt lat="47.44447" lon="-2.48001">
        <ele>16</ele>
        <time>2020-08-03T13:31:49Z</time>
      </trkpt>
      <trkpt lat="47.4445" lon="-2.47998">
        <ele>16</ele>
        <time>2020-08-03T13:31:50Z</time>
      </trkpt>
      <trkpt lat="47.44452" lon="-2.47997">
        <ele>16</ele>
        <time>2020-08-03T13:31:51Z</time>
      </trkpt>
      <trkpt lat="47.44455" lon="-2.47995">
        <ele>16</ele>
        <time>2020-08-03T13:31:52Z</time>
      </trkpt>
      <trkpt lat="47.44457" lon="-2.47994">
        <ele>16</ele>
        <time>2020-08-03T13:31:53Z</time>
      </trkpt>
      <trkpt lat="47.44461" lon="-2.47992">
        <ele>16</ele>
        <time>2020-08-03T13:31:54Z</time>
      </trkpt>
      <trkpt lat="47.44465" lon="-2.47991">
        <ele>16</ele>
        <time>2020-08-03T13:31:55Z</time>
      </trkpt>
      <trkpt lat="47.44468" lon="-2.4799">
        <ele>16</ele>
        <time>2020-08-03T13:31:56Z</time>
      </trkpt>
      <trkpt lat="47.44472" lon="-2.47988">
        <ele>15.8</ele>
        <time>2020-08-03T13:31:57Z</time>
      </trkpt>
      <trkpt lat="47.44475" lon="-2.47987">
        <ele>15.6</ele>
        <time>2020-08-03T13:31:58Z</time>
      </trkpt>
      <trkpt lat="47.44479" lon="-2.47986">
        <ele>15.6</ele>
        <time>2020-08-03T13:31:59Z</time>
      </trkpt>
      <trkpt lat="47.44483" lon="-2.47985">
        <ele>15.6</ele>
        <time>2020-08-03T13:32:00Z</time>
      </trkpt>
      <trkpt lat="47.44487" lon="-2.47982">
        <ele>15.2</ele>
        <time>2020-08-03T13:32:01Z</time>
      </trkpt>
      <trkpt lat="47.44491" lon="-2.47978">
        <ele>15</ele>
        <time>2020-08-03T13:32:02Z</time>
      </trkpt>
      <trkpt lat="47.44494" lon="-2.47973">
        <ele>14.6</ele>
        <time>2020-08-03T13:32:03Z</time>
      </trkpt>
      <trkpt lat="47.44495" lon="-2.47967">
        <ele>14.2</ele>
        <time>2020-08-03T13:32:04Z</time>
      </trkpt>
      <trkpt lat="47.44495" lon="-2.4796">
        <ele>14</ele>
        <time>2020-08-03T13:32:05Z</time>
      </trkpt>
      <trkpt lat="47.44495" lon="-2.47953">
        <ele>13.6</ele>
        <time>2020-08-03T13:32:06Z</time>
      </trkpt>
      <trkpt lat="47.44494" lon="-2.47946">
        <ele>13.4</ele>
        <time>2020-08-03T13:32:07Z</time>
      </trkpt>
      <trkpt lat="47.44493" lon="-2.47939">
        <ele>13.2</ele>
        <time>2020-08-03T13:32:08Z</time>
      </trkpt>
      <trkpt lat="47.44492" lon="-2.47932">
        <ele>12.8</ele>
        <time>2020-08-03T13:32:09Z</time>
      </trkpt>
      <trkpt lat="47.44492" lon="-2.47924">
        <ele>12.6</ele>
        <time>2020-08-03T13:32:10Z</time>
      </trkpt>
      <trkpt lat="47.44491" lon="-2.47917">
        <ele>12.2</ele>
        <time>2020-08-03T13:32:11Z</time>
      </trkpt>
      <trkpt lat="47.44492" lon="-2.47908">
        <ele>11.4</ele>
        <time>2020-08-03T13:32:12Z</time>
      </trkpt>
      <trkpt lat="47.44493" lon="-2.479">
        <ele>11.2</ele>
        <time>2020-08-03T13:32:13Z</time>
      </trkpt>
      <trkpt lat="47.44494" lon="-2.4789">
        <ele>10.8</ele>
        <time>2020-08-03T13:32:14Z</time>
      </trkpt>
      <trkpt lat="47.44496" lon="-2.47881">
        <ele>10.6</ele>
        <time>2020-08-03T13:32:15Z</time>
      </trkpt>
      <trkpt lat="47.44499" lon="-2.47872">
        <ele>10.2</ele>
        <time>2020-08-03T13:32:16Z</time>
      </trkpt>
      <trkpt lat="47.44502" lon="-2.47863">
        <ele>10</ele>
        <time>2020-08-03T13:32:17Z</time>
      </trkpt>
      <trkpt lat="47.44505" lon="-2.47854">
        <ele>9.8</ele>
        <time>2020-08-03T13:32:18Z</time>
      </trkpt>
      <trkpt lat="47.44508" lon="-2.47845">
        <ele>9.6</ele>
        <time>2020-08-03T13:32:19Z</time>
      </trkpt>
      <trkpt lat="47.44511" lon="-2.47837">
        <ele>9.4</ele>
        <time>2020-08-03T13:32:20Z</time>
      </trkpt>
      <trkpt lat="47.44514" lon="-2.47828">
        <ele>9.2</ele>
        <time>2020-08-03T13:32:21Z</time>
      </trkpt>
      <trkpt lat="47.44517" lon="-2.4782">
        <ele>9.2</ele>
        <time>2020-08-03T13:32:22Z</time>
      </trkpt>
      <trkpt lat="47.4452" lon="-2.47812">
        <ele>9</ele>
        <time>2020-08-03T13:32:23Z</time>
      </trkpt>
      <trkpt lat="47.44523" lon="-2.47804">
        <ele>8.8</ele>
        <time>2020-08-03T13:32:24Z</time>
      </trkpt>
      <trkpt lat="47.44525" lon="-2.47796">
        <ele>8.8</ele>
        <time>2020-08-03T13:32:25Z</time>
      </trkpt>
      <trkpt lat="47.44528" lon="-2.47789">
        <ele>8.6</ele>
        <time>2020-08-03T13:32:26Z</time>
      </trkpt>
      <trkpt lat="47.44531" lon="-2.47782">
        <ele>8.6</ele>
        <time>2020-08-03T13:32:27Z</time>
      </trkpt>
      <trkpt lat="47.44534" lon="-2.47774">
        <ele>8.6</ele>
        <time>2020-08-03T13:32:28Z</time>
      </trkpt>
      <trkpt lat="47.44536" lon="-2.47767">
        <ele>8.6</ele>
        <time>2020-08-03T13:32:29Z</time>
      </trkpt>
      <trkpt lat="47.44539" lon="-2.4776">
        <ele>8.8</ele>
        <time>2020-08-03T13:32:30Z</time>
      </trkpt>
      <trkpt lat="47.44541" lon="-2.47754">
        <ele>8.6</ele>
        <time>2020-08-03T13:32:31Z</time>
      </trkpt>
      <trkpt lat="47.44544" lon="-2.47747">
        <ele>8.6</ele>
        <time>2020-08-03T13:32:32Z</time>
      </trkpt>
      <trkpt lat="47.44546" lon="-2.47741">
        <ele>8.6</ele>
        <time>2020-08-03T13:32:33Z</time>
      </trkpt>
      <trkpt lat="47.44548" lon="-2.47736">
        <ele>8.6</ele>
        <time>2020-08-03T13:32:34Z</time>
      </trkpt>
      <trkpt lat="47.4455" lon="-2.47731">
        <ele>8.6</ele>
        <time>2020-08-03T13:32:35Z</time>
      </trkpt>
      <trkpt lat="47.44551" lon="-2.47726">
        <ele>8.6</ele>
        <time>2020-08-03T13:32:36Z</time>
      </trkpt>
      <trkpt lat="47.44553" lon="-2.47721">
        <ele>8.6</ele>
        <time>2020-08-03T13:32:37Z</time>
      </trkpt>
      <trkpt lat="47.44554" lon="-2.47718">
        <ele>8.6</ele>
        <time>2020-08-03T13:32:38Z</time>
      </trkpt>
      <trkpt lat="47.44555" lon="-2.47718">
        <ele>8.6</ele>
        <time>2020-08-03T13:32:39Z</time>
      </trkpt>
      <trkpt lat="47.44555" lon="-2.47721">
        <ele>8.6</ele>
        <time>2020-08-03T13:32:40Z</time>
      </trkpt>
      <trkpt lat="47.44554" lon="-2.47723">
        <ele>8.8</ele>
        <time>2020-08-03T13:32:41Z</time>
      </trkpt>
      <trkpt lat="47.44553" lon="-2.47726">
        <ele>9</ele>
        <time>2020-08-03T13:32:42Z</time>
      </trkpt>
      <trkpt lat="47.44551" lon="-2.4773">
        <ele>8.8</ele>
        <time>2020-08-03T13:32:43Z</time>
      </trkpt>
      <trkpt lat="47.4455" lon="-2.47733">
        <ele>8.8</ele>
        <time>2020-08-03T13:32:44Z</time>
      </trkpt>
      <trkpt lat="47.44549" lon="-2.47738">
        <ele>8.8</ele>
        <time>2020-08-03T13:32:45Z</time>
      </trkpt>
      <trkpt lat="47.44548" lon="-2.47742">
        <ele>8.6</ele>
        <time>2020-08-03T13:32:46Z</time>
      </trkpt>
      <trkpt lat="47.44546" lon="-2.47746">
        <ele>8.6</ele>
        <time>2020-08-03T13:32:47Z</time>
      </trkpt>
      <trkpt lat="47.44545" lon="-2.4775">
        <ele>8.8</ele>
        <time>2020-08-03T13:32:48Z</time>
      </trkpt>
      <trkpt lat="47.44544" lon="-2.47754">
        <ele>8.8</ele>
        <time>2020-08-03T13:32:49Z</time>
      </trkpt>
      <trkpt lat="47.44543" lon="-2.47757">
        <ele>8.8</ele>
        <time>2020-08-03T13:32:50Z</time>
      </trkpt>
      <trkpt lat="47.44542" lon="-2.4776">
        <ele>8.8</ele>
        <time>2020-08-03T13:32:51Z</time>
      </trkpt>
      <trkpt lat="47.44542" lon="-2.47761">
        <ele>8.8</ele>
        <time>2020-08-03T13:32:52Z</time>
      </trkpt>
      <trkpt lat="47.44541" lon="-2.47762">
        <ele>8.6</ele>
        <time>2020-08-03T13:32:53Z</time>
      </trkpt>
      <trkpt lat="47.44541" lon="-2.47762">
        <ele>8.6</ele>
        <time>2020-08-03T13:32:54Z</time>
      </trkpt>
      <trkpt lat="47.44541" lon="-2.47762">
        <ele>8.6</ele>
        <time>2020-08-03T13:32:55Z</time>
      </trkpt>
      <trkpt lat="47.44541" lon="-2.47762">
        <ele>8.6</ele>
        <time>2020-08-03T13:32:56Z</time>
      </trkpt>
      <trkpt lat="47.44541" lon="-2.47762">
        <ele>8.8</ele>
        <time>2020-08-03T13:32:57Z</time>
      </trkpt>
      <trkpt lat="47.44541" lon="-2.47762">
        <ele>8.8</ele>
        <time>2020-08-03T13:32:58Z</time>
      </trkpt>
      <trkpt lat="47.44541" lon="-2.47762">
        <ele>8.8</ele>
        <time>2020-08-03T13:32:59Z</time>
      </trkpt>
      <trkpt lat="47.44541" lon="-2.47762">
        <ele>8.8</ele>
        <time>2020-08-03T13:33:00Z</time>
      </trkpt>
      <trkpt lat="47.44547" lon="-2.47738">
        <ele>9</ele>
        <time>2020-08-03T13:34:11Z</time>
      </trkpt>
      <trkpt lat="47.44549" lon="-2.47734">
        <ele>9</ele>
        <time>2020-08-03T13:34:12Z</time>
      </trkpt>
      <trkpt lat="47.4455" lon="-2.47729">
        <ele>8.8</ele>
        <time>2020-08-03T13:34:13Z</time>
      </trkpt>
      <trkpt lat="47.44552" lon="-2.47724">
        <ele>8.8</ele>
        <time>2020-08-03T13:34:14Z</time>
      </trkpt>
      <trkpt lat="47.44554" lon="-2.47719">
        <ele>9</ele>
        <time>2020-08-03T13:34:15Z</time>
      </trkpt>
      <trkpt lat="47.44556" lon="-2.47714">
        <ele>8.8</ele>
        <time>2020-08-03T13:34:16Z</time>
      </trkpt>
      <trkpt lat="47.44558" lon="-2.47708">
        <ele>9</ele>
        <time>2020-08-03T13:34:17Z</time>
      </trkpt>
      <trkpt lat="47.4456" lon="-2.47702">
        <ele>9</ele>
        <time>2020-08-03T13:34:18Z</time>
      </trkpt>
      <trkpt lat="47.44562" lon="-2.47697">
        <ele>9</ele>
        <time>2020-08-03T13:34:19Z</time>
      </trkpt>
      <trkpt lat="47.44563" lon="-2.47691">
        <ele>9</ele>
        <time>2020-08-03T13:34:20Z</time>
      </trkpt>
      <trkpt lat="47.44565" lon="-2.47686">
        <ele>9</ele>
        <time>2020-08-03T13:34:21Z</time>
      </trkpt>
      <trkpt lat="47.44567" lon="-2.4768">
        <ele>9</ele>
        <time>2020-08-03T13:34:22Z</time>
      </trkpt>
      <trkpt lat="47.44568" lon="-2.47675">
        <ele>9</ele>
        <time>2020-08-03T13:34:23Z</time>
      </trkpt>
      <trkpt lat="47.4457" lon="-2.47669">
        <ele>9.2</ele>
        <time>2020-08-03T13:34:24Z</time>
      </trkpt>
      <trkpt lat="47.44572" lon="-2.47664">
        <ele>9.2</ele>
        <time>2020-08-03T13:34:25Z</time>
      </trkpt>
      <trkpt lat="47.44574" lon="-2.47659">
        <ele>9.2</ele>
        <time>2020-08-03T13:34:26Z</time>
      </trkpt>
      <trkpt lat="47.44576" lon="-2.47654">
        <ele>9.4</ele>
        <time>2020-08-03T13:34:27Z</time>
      </trkpt>
      <trkpt lat="47.44577" lon="-2.47649">
        <ele>9.4</ele>
        <time>2020-08-03T13:34:28Z</time>
      </trkpt>
      <trkpt lat="47.44579" lon="-2.47644">
        <ele>9.4</ele>
        <time>2020-08-03T13:34:29Z</time>
      </trkpt>
      <trkpt lat="47.4458" lon="-2.47639">
        <ele>9.4</ele>
        <time>2020-08-03T13:34:30Z</time>
      </trkpt>
      <trkpt lat="47.44582" lon="-2.47635">
        <ele>9.4</ele>
        <time>2020-08-03T13:34:31Z</time>
      </trkpt>
      <trkpt lat="47.44583" lon="-2.4763">
        <ele>9.4</ele>
        <time>2020-08-03T13:34:32Z</time>
      </trkpt>
      <trkpt lat="47.44584" lon="-2.47626">
        <ele>9.2</ele>
        <time>2020-08-03T13:34:33Z</time>
      </trkpt>
      <trkpt lat="47.44585" lon="-2.47622">
        <ele>9.4</ele>
        <time>2020-08-03T13:34:34Z</time>
      </trkpt>
      <trkpt lat="47.44586" lon="-2.47617">
        <ele>9.2</ele>
        <time>2020-08-03T13:34:35Z</time>
      </trkpt>
      <trkpt lat="47.44588" lon="-2.47613">
        <ele>9.2</ele>
        <time>2020-08-03T13:34:36Z</time>
      </trkpt>
      <trkpt lat="47.44589" lon="-2.47608">
        <ele>9.2</ele>
        <time>2020-08-03T13:34:37Z</time>
      </trkpt>
      <trkpt lat="47.44591" lon="-2.47604">
        <ele>9.2</ele>
        <time>2020-08-03T13:34:38Z</time>
      </trkpt>
      <trkpt lat="47.44592" lon="-2.47599">
        <ele>9.2</ele>
        <time>2020-08-03T13:34:39Z</time>
      </trkpt>
      <trkpt lat="47.44594" lon="-2.47594">
        <ele>9</ele>
        <time>2020-08-03T13:34:40Z</time>
      </trkpt>
      <trkpt lat="47.44596" lon="-2.4759">
        <ele>9</ele>
        <time>2020-08-03T13:34:41Z</time>
      </trkpt>
      <trkpt lat="47.44598" lon="-2.47584">
        <ele>8.8</ele>
        <time>2020-08-03T13:34:42Z</time>
      </trkpt>
      <trkpt lat="47.44599" lon="-2.47579">
        <ele>8.8</ele>
        <time>2020-08-03T13:34:43Z</time>
      </trkpt>
      <trkpt lat="47.44601" lon="-2.47573">
        <ele>8.6</ele>
        <time>2020-08-03T13:34:44Z</time>
      </trkpt>
      <trkpt lat="47.44603" lon="-2.47566">
        <ele>8.4</ele>
        <time>2020-08-03T13:34:45Z</time>
      </trkpt>
      <trkpt lat="47.44605" lon="-2.4756">
        <ele>8.4</ele>
        <time>2020-08-03T13:34:46Z</time>
      </trkpt>
      <trkpt lat="47.44608" lon="-2.47553">
        <ele>8.2</ele>
        <time>2020-08-03T13:34:47Z</time>
      </trkpt>
      <trkpt lat="47.4461" lon="-2.47546">
        <ele>8</ele>
        <time>2020-08-03T13:34:48Z</time>
      </trkpt>
      <trkpt lat="47.44613" lon="-2.47538">
        <ele>8</ele>
        <time>2020-08-03T13:34:49Z</time>
      </trkpt>
      <trkpt lat="47.44616" lon="-2.4753">
        <ele>7.8</ele>
        <time>2020-08-03T13:34:50Z</time>
      </trkpt>
      <trkpt lat="47.44619" lon="-2.47522">
        <ele>7.6</ele>
        <time>2020-08-03T13:34:51Z</time>
      </trkpt>
      <trkpt lat="47.44622" lon="-2.47513">
        <ele>7.6</ele>
        <time>2020-08-03T13:34:52Z</time>
      </trkpt>
      <trkpt lat="47.44625" lon="-2.47505">
        <ele>7.6</ele>
        <time>2020-08-03T13:34:53Z</time>
      </trkpt>
      <trkpt lat="47.44629" lon="-2.47498">
        <ele>7.4</ele>
        <time>2020-08-03T13:34:54Z</time>
      </trkpt>
      <trkpt lat="47.44632" lon="-2.47491">
        <ele>7.6</ele>
        <time>2020-08-03T13:34:55Z</time>
      </trkpt>
      <trkpt lat="47.44635" lon="-2.47484">
        <ele>7.4</ele>
        <time>2020-08-03T13:34:56Z</time>
      </trkpt>
      <trkpt lat="47.44639" lon="-2.47477">
        <ele>7.4</ele>
        <time>2020-08-03T13:34:57Z</time>
      </trkpt>
      <trkpt lat="47.44643" lon="-2.47471">
        <ele>7.6</ele>
        <time>2020-08-03T13:34:58Z</time>
      </trkpt>
      <trkpt lat="47.44646" lon="-2.47465">
        <ele>7.6</ele>
        <time>2020-08-03T13:34:59Z</time>
      </trkpt>
      <trkpt lat="47.4465" lon="-2.47459">
        <ele>7.6</ele>
        <time>2020-08-03T13:35:00Z</time>
      </trkpt>
      <trkpt lat="47.44653" lon="-2.47454">
        <ele>7.6</ele>
        <time>2020-08-03T13:35:01Z</time>
      </trkpt>
      <trkpt lat="47.44657" lon="-2.47449">
        <ele>7.4</ele>
        <time>2020-08-03T13:35:02Z</time>
      </trkpt>
      <trkpt lat="47.4466" lon="-2.47443">
        <ele>7.4</ele>
        <time>2020-08-03T13:35:03Z</time>
      </trkpt>
      <trkpt lat="47.44663" lon="-2.47437">
        <ele>7.6</ele>
        <time>2020-08-03T13:35:04Z</time>
      </trkpt>
      <trkpt lat="47.44666" lon="-2.47431">
        <ele>7.6</ele>
        <time>2020-08-03T13:35:05Z</time>
      </trkpt>
      <trkpt lat="47.44669" lon="-2.47424">
        <ele>7.4</ele>
        <time>2020-08-03T13:35:06Z</time>
      </trkpt>
      <trkpt lat="47.44672" lon="-2.47418">
        <ele>7.4</ele>
        <time>2020-08-03T13:35:07Z</time>
      </trkpt>
      <trkpt lat="47.44675" lon="-2.47412">
        <ele>7.4</ele>
        <time>2020-08-03T13:35:08Z</time>
      </trkpt>
      <trkpt lat="47.44679" lon="-2.47405">
        <ele>7.4</ele>
        <time>2020-08-03T13:35:09Z</time>
      </trkpt>
      <trkpt lat="47.44682" lon="-2.47399">
        <ele>7.4</ele>
        <time>2020-08-03T13:35:10Z</time>
      </trkpt>
      <trkpt lat="47.44686" lon="-2.47394">
        <ele>7.4</ele>
        <time>2020-08-03T13:35:11Z</time>
      </trkpt>
      <trkpt lat="47.44689" lon="-2.47388">
        <ele>7.4</ele>
        <time>2020-08-03T13:35:12Z</time>
      </trkpt>
      <trkpt lat="47.44693" lon="-2.47383">
        <ele>7.6</ele>
        <time>2020-08-03T13:35:13Z</time>
      </trkpt>
      <trkpt lat="47.44697" lon="-2.47378">
        <ele>7.6</ele>
        <time>2020-08-03T13:35:14Z</time>
      </trkpt>
      <trkpt lat="47.44702" lon="-2.47373">
        <ele>7.8</ele>
        <time>2020-08-03T13:35:15Z</time>
      </trkpt>
      <trkpt lat="47.44706" lon="-2.47369">
        <ele>8</ele>
        <time>2020-08-03T13:35:16Z</time>
      </trkpt>
      <trkpt lat="47.4471" lon="-2.47366">
        <ele>8</ele>
        <time>2020-08-03T13:35:17Z</time>
      </trkpt>
      <trkpt lat="47.44715" lon="-2.47363">
        <ele>7.8</ele>
        <time>2020-08-03T13:35:18Z</time>
      </trkpt>
      <trkpt lat="47.4472" lon="-2.4736">
        <ele>7.6</ele>
        <time>2020-08-03T13:35:19Z</time>
      </trkpt>
      <trkpt lat="47.44725" lon="-2.47358">
        <ele>7.6</ele>
        <time>2020-08-03T13:35:20Z</time>
      </trkpt>
      <trkpt lat="47.44729" lon="-2.47358">
        <ele>7.4</ele>
        <time>2020-08-03T13:35:21Z</time>
      </trkpt>
      <trkpt lat="47.44734" lon="-2.47357">
        <ele>7.4</ele>
        <time>2020-08-03T13:35:22Z</time>
      </trkpt>
      <trkpt lat="47.44739" lon="-2.47357">
        <ele>7.8</ele>
        <time>2020-08-03T13:35:23Z</time>
      </trkpt>
      <trkpt lat="47.44745" lon="-2.47358">
        <ele>7.4</ele>
        <time>2020-08-03T13:35:24Z</time>
      </trkpt>
      <trkpt lat="47.4475" lon="-2.47359">
        <ele>7.8</ele>
        <time>2020-08-03T13:35:25Z</time>
      </trkpt>
      <trkpt lat="47.44755" lon="-2.4736">
        <ele>7.2</ele>
        <time>2020-08-03T13:35:26Z</time>
      </trkpt>
      <trkpt lat="47.44761" lon="-2.47361">
        <ele>7.4</ele>
        <time>2020-08-03T13:35:27Z</time>
      </trkpt>
      <trkpt lat="47.44766" lon="-2.47363">
        <ele>8</ele>
        <time>2020-08-03T13:35:28Z</time>
      </trkpt>
      <trkpt lat="47.44772" lon="-2.47364">
        <ele>7.6</ele>
        <time>2020-08-03T13:35:29Z</time>
      </trkpt>
      <trkpt lat="47.44777" lon="-2.47364">
        <ele>7.8</ele>
        <time>2020-08-03T13:35:30Z</time>
      </trkpt>
      <trkpt lat="47.44782" lon="-2.47365">
        <ele>7</ele>
        <time>2020-08-03T13:35:31Z</time>
      </trkpt>
      <trkpt lat="47.44787" lon="-2.47364">
        <ele>7.4</ele>
        <time>2020-08-03T13:35:32Z</time>
      </trkpt>
      <trkpt lat="47.44793" lon="-2.47364">
        <ele>7.6</ele>
        <time>2020-08-03T13:35:33Z</time>
      </trkpt>
      <trkpt lat="47.44798" lon="-2.47363">
        <ele>7.8</ele>
        <time>2020-08-03T13:35:34Z</time>
      </trkpt>
      <trkpt lat="47.44803" lon="-2.47362">
        <ele>7.8</ele>
        <time>2020-08-03T13:35:35Z</time>
      </trkpt>
      <trkpt lat="47.44808" lon="-2.4736">
        <ele>8</ele>
        <time>2020-08-03T13:35:36Z</time>
      </trkpt>
      <trkpt lat="47.44812" lon="-2.47358">
        <ele>8</ele>
        <time>2020-08-03T13:35:37Z</time>
      </trkpt>
      <trkpt lat="47.44816" lon="-2.47355">
        <ele>7.8</ele>
        <time>2020-08-03T13:35:38Z</time>
      </trkpt>
      <trkpt lat="47.4482" lon="-2.47352">
        <ele>8.2</ele>
        <time>2020-08-03T13:35:39Z</time>
      </trkpt>
      <trkpt lat="47.44824" lon="-2.47349">
        <ele>8.2</ele>
        <time>2020-08-03T13:35:40Z</time>
      </trkpt>
      <trkpt lat="47.44828" lon="-2.47346">
        <ele>8.2</ele>
        <time>2020-08-03T13:35:41Z</time>
      </trkpt>
      <trkpt lat="47.44832" lon="-2.47342">
        <ele>8.6</ele>
        <time>2020-08-03T13:35:42Z</time>
      </trkpt>
      <trkpt lat="47.44835" lon="-2.47338">
        <ele>8.6</ele>
        <time>2020-08-03T13:35:43Z</time>
      </trkpt>
      <trkpt lat="47.44838" lon="-2.47334">
        <ele>8.8</ele>
        <time>2020-08-03T13:35:44Z</time>
      </trkpt>
      <trkpt lat="47.44841" lon="-2.4733">
        <ele>8.8</ele>
        <time>2020-08-03T13:35:45Z</time>
      </trkpt>
      <trkpt lat="47.44844" lon="-2.47327">
        <ele>9</ele>
        <time>2020-08-03T13:35:46Z</time>
      </trkpt>
      <trkpt lat="47.44847" lon="-2.47324">
        <ele>9.2</ele>
        <time>2020-08-03T13:35:47Z</time>
      </trkpt>
      <trkpt lat="47.4485" lon="-2.47321">
        <ele>9.4</ele>
        <time>2020-08-03T13:35:48Z</time>
      </trkpt>
      <trkpt lat="47.44853" lon="-2.47317">
        <ele>9.6</ele>
        <time>2020-08-03T13:35:49Z</time>
      </trkpt>
      <trkpt lat="47.44857" lon="-2.47313">
        <ele>9.8</ele>
        <time>2020-08-03T13:35:50Z</time>
      </trkpt>
      <trkpt lat="47.44859" lon="-2.4731">
        <ele>10</ele>
        <time>2020-08-03T13:35:51Z</time>
      </trkpt>
      <trkpt lat="47.44862" lon="-2.47306">
        <ele>10</ele>
        <time>2020-08-03T13:35:52Z</time>
      </trkpt>
      <trkpt lat="47.44864" lon="-2.47303">
        <ele>10.2</ele>
        <time>2020-08-03T13:35:53Z</time>
      </trkpt>
      <trkpt lat="47.44866" lon="-2.47301">
        <ele>10.2</ele>
        <time>2020-08-03T13:35:54Z</time>
      </trkpt>
      <trkpt lat="47.44868" lon="-2.47298">
        <ele>10.2</ele>
        <time>2020-08-03T13:35:55Z</time>
      </trkpt>
      <trkpt lat="47.4487" lon="-2.47295">
        <ele>10.4</ele>
        <time>2020-08-03T13:35:56Z</time>
      </trkpt>
      <trkpt lat="47.44873" lon="-2.47292">
        <ele>10.6</ele>
        <time>2020-08-03T13:35:57Z</time>
      </trkpt>
      <trkpt lat="47.44875" lon="-2.47289">
        <ele>10.6</ele>
        <time>2020-08-03T13:35:58Z</time>
      </trkpt>
      <trkpt lat="47.44877" lon="-2.47286">
        <ele>10.6</ele>
        <time>2020-08-03T13:35:59Z</time>
      </trkpt>
      <trkpt lat="47.4488" lon="-2.47282">
        <ele>10.8</ele>
        <time>2020-08-03T13:36:00Z</time>
      </trkpt>
      <trkpt lat="47.44883" lon="-2.47279">
        <ele>11</ele>
        <time>2020-08-03T13:36:01Z</time>
      </trkpt>
      <trkpt lat="47.44886" lon="-2.47276">
        <ele>11</ele>
        <time>2020-08-03T13:36:02Z</time>
      </trkpt>
      <trkpt lat="47.4489" lon="-2.47273">
        <ele>11.2</ele>
        <time>2020-08-03T13:36:03Z</time>
      </trkpt>
      <trkpt lat="47.44893" lon="-2.47269">
        <ele>11.2</ele>
        <time>2020-08-03T13:36:04Z</time>
      </trkpt>
      <trkpt lat="47.44896" lon="-2.47266">
        <ele>11.2</ele>
        <time>2020-08-03T13:36:05Z</time>
      </trkpt>
      <trkpt lat="47.44898" lon="-2.47264">
        <ele>11.4</ele>
        <time>2020-08-03T13:36:06Z</time>
      </trkpt>
      <trkpt lat="47.44901" lon="-2.47261">
        <ele>11.4</ele>
        <time>2020-08-03T13:36:07Z</time>
      </trkpt>
      <trkpt lat="47.44904" lon="-2.47258">
        <ele>11.6</ele>
        <time>2020-08-03T13:36:08Z</time>
      </trkpt>
      <trkpt lat="47.44907" lon="-2.47255">
        <ele>11.6</ele>
        <time>2020-08-03T13:36:09Z</time>
      </trkpt>
      <trkpt lat="47.4491" lon="-2.47253">
        <ele>11.8</ele>
        <time>2020-08-03T13:36:10Z</time>
      </trkpt>
      <trkpt lat="47.44913" lon="-2.4725">
        <ele>11.8</ele>
        <time>2020-08-03T13:36:11Z</time>
      </trkpt>
      <trkpt lat="47.44915" lon="-2.47248">
        <ele>12</ele>
        <time>2020-08-03T13:36:12Z</time>
      </trkpt>
      <trkpt lat="47.44918" lon="-2.47245">
        <ele>12.2</ele>
        <time>2020-08-03T13:36:13Z</time>
      </trkpt>
      <trkpt lat="47.4492" lon="-2.47243">
        <ele>12.2</ele>
        <time>2020-08-03T13:36:14Z</time>
      </trkpt>
      <trkpt lat="47.44923" lon="-2.4724">
        <ele>12.2</ele>
        <time>2020-08-03T13:36:15Z</time>
      </trkpt>
      <trkpt lat="47.44925" lon="-2.47237">
        <ele>12.4</ele>
        <time>2020-08-03T13:36:16Z</time>
      </trkpt>
      <trkpt lat="47.44928" lon="-2.47235">
        <ele>12.6</ele>
        <time>2020-08-03T13:36:17Z</time>
      </trkpt>
      <trkpt lat="47.44931" lon="-2.47233">
        <ele>12.6</ele>
        <time>2020-08-03T13:36:18Z</time>
      </trkpt>
      <trkpt lat="47.44933" lon="-2.47231">
        <ele>12.8</ele>
        <time>2020-08-03T13:36:19Z</time>
      </trkpt>
      <trkpt lat="47.44936" lon="-2.47229">
        <ele>12.8</ele>
        <time>2020-08-03T13:36:20Z</time>
      </trkpt>
      <trkpt lat="47.44938" lon="-2.47227">
        <ele>12.8</ele>
        <time>2020-08-03T13:36:21Z</time>
      </trkpt>
      <trkpt lat="47.4494" lon="-2.47225">
        <ele>13</ele>
        <time>2020-08-03T13:36:22Z</time>
      </trkpt>
      <trkpt lat="47.44942" lon="-2.47224">
        <ele>13.4</ele>
        <time>2020-08-03T13:36:23Z</time>
      </trkpt>
      <trkpt lat="47.44945" lon="-2.47223">
        <ele>13.4</ele>
        <time>2020-08-03T13:36:24Z</time>
      </trkpt>
      <trkpt lat="47.44947" lon="-2.47221">
        <ele>13.6</ele>
        <time>2020-08-03T13:36:25Z</time>
      </trkpt>
      <trkpt lat="47.4495" lon="-2.4722">
        <ele>13.6</ele>
        <time>2020-08-03T13:36:26Z</time>
      </trkpt>
      <trkpt lat="47.44952" lon="-2.4722">
        <ele>13.6</ele>
        <time>2020-08-03T13:36:27Z</time>
      </trkpt>
      <trkpt lat="47.44954" lon="-2.4722">
        <ele>13.8</ele>
        <time>2020-08-03T13:36:28Z</time>
      </trkpt>
      <trkpt lat="47.44956" lon="-2.47219">
        <ele>13.8</ele>
        <time>2020-08-03T13:36:29Z</time>
      </trkpt>
      <trkpt lat="47.44958" lon="-2.47218">
        <ele>14</ele>
        <time>2020-08-03T13:36:30Z</time>
      </trkpt>
      <trkpt lat="47.4496" lon="-2.47217">
        <ele>14.2</ele>
        <time>2020-08-03T13:36:31Z</time>
      </trkpt>
      <trkpt lat="47.44962" lon="-2.47217">
        <ele>14.4</ele>
        <time>2020-08-03T13:36:32Z</time>
      </trkpt>
      <trkpt lat="47.44964" lon="-2.47216">
        <ele>14.6</ele>
        <time>2020-08-03T13:36:33Z</time>
      </trkpt>
      <trkpt lat="47.44967" lon="-2.47214">
        <ele>14.8</ele>
        <time>2020-08-03T13:36:34Z</time>
      </trkpt>
      <trkpt lat="47.4497" lon="-2.47213">
        <ele>14.8</ele>
        <time>2020-08-03T13:36:35Z</time>
      </trkpt>
      <trkpt lat="47.44972" lon="-2.47212">
        <ele>14.8</ele>
        <time>2020-08-03T13:36:36Z</time>
      </trkpt>
      <trkpt lat="47.44975" lon="-2.47212">
        <ele>15</ele>
        <time>2020-08-03T13:36:37Z</time>
      </trkpt>
      <trkpt lat="47.44977" lon="-2.47211">
        <ele>15.4</ele>
        <time>2020-08-03T13:36:38Z</time>
      </trkpt>
      <trkpt lat="47.44981" lon="-2.47211">
        <ele>15.6</ele>
        <time>2020-08-03T13:36:39Z</time>
      </trkpt>
      <trkpt lat="47.44983" lon="-2.47211">
        <ele>15.8</ele>
        <time>2020-08-03T13:36:40Z</time>
      </trkpt>
      <trkpt lat="47.44986" lon="-2.4721">
        <ele>15.8</ele>
        <time>2020-08-03T13:36:41Z</time>
      </trkpt>
      <trkpt lat="47.44988" lon="-2.47208">
        <ele>16</ele>
        <time>2020-08-03T13:36:42Z</time>
      </trkpt>
      <trkpt lat="47.44991" lon="-2.47207">
        <ele>16.2</ele>
        <time>2020-08-03T13:36:43Z</time>
      </trkpt>
      <trkpt lat="47.44994" lon="-2.47206">
        <ele>16</ele>
        <time>2020-08-03T13:36:44Z</time>
      </trkpt>
      <trkpt lat="47.44996" lon="-2.47205">
        <ele>16.2</ele>
        <time>2020-08-03T13:36:45Z</time>
      </trkpt>
      <trkpt lat="47.44999" lon="-2.47204">
        <ele>16.6</ele>
        <time>2020-08-03T13:36:46Z</time>
      </trkpt>
      <trkpt lat="47.45002" lon="-2.47204">
        <ele>16.8</ele>
        <time>2020-08-03T13:36:47Z</time>
      </trkpt>
      <trkpt lat="47.45004" lon="-2.47203">
        <ele>17.2</ele>
        <time>2020-08-03T13:36:48Z</time>
      </trkpt>
      <trkpt lat="47.45007" lon="-2.47202">
        <ele>17.2</ele>
        <time>2020-08-03T13:36:49Z</time>
      </trkpt>
      <trkpt lat="47.45009" lon="-2.47201">
        <ele>17.2</ele>
        <time>2020-08-03T13:36:50Z</time>
      </trkpt>
      <trkpt lat="47.45012" lon="-2.47201">
        <ele>17.4</ele>
        <time>2020-08-03T13:36:51Z</time>
      </trkpt>
      <trkpt lat="47.45015" lon="-2.472">
        <ele>17.4</ele>
        <time>2020-08-03T13:36:52Z</time>
      </trkpt>
      <trkpt lat="47.45017" lon="-2.47199">
        <ele>17.6</ele>
        <time>2020-08-03T13:36:53Z</time>
      </trkpt>
      <trkpt lat="47.45019" lon="-2.47198">
        <ele>17.6</ele>
        <time>2020-08-03T13:36:54Z</time>
      </trkpt>
      <trkpt lat="47.45022" lon="-2.47197">
        <ele>17.8</ele>
        <time>2020-08-03T13:36:55Z</time>
      </trkpt>
      <trkpt lat="47.45024" lon="-2.47197">
        <ele>18</ele>
        <time>2020-08-03T13:36:56Z</time>
      </trkpt>
      <trkpt lat="47.45026" lon="-2.47196">
        <ele>18.2</ele>
        <time>2020-08-03T13:36:57Z</time>
      </trkpt>
      <trkpt lat="47.45028" lon="-2.47195">
        <ele>18.4</ele>
        <time>2020-08-03T13:36:58Z</time>
      </trkpt>
      <trkpt lat="47.4503" lon="-2.47195">
        <ele>18.6</ele>
        <time>2020-08-03T13:36:59Z</time>
      </trkpt>
      <trkpt lat="47.45033" lon="-2.47195">
        <ele>18.6</ele>
        <time>2020-08-03T13:37:00Z</time>
      </trkpt>
      <trkpt lat="47.45036" lon="-2.47194">
        <ele>18.8</ele>
        <time>2020-08-03T13:37:01Z</time>
      </trkpt>
      <trkpt lat="47.45038" lon="-2.47192">
        <ele>19</ele>
        <time>2020-08-03T13:37:02Z</time>
      </trkpt>
      <trkpt lat="47.45041" lon="-2.4719">
        <ele>19</ele>
        <time>2020-08-03T13:37:03Z</time>
      </trkpt>
      <trkpt lat="47.45043" lon="-2.47188">
        <ele>19</ele>
        <time>2020-08-03T13:37:04Z</time>
      </trkpt>
      <trkpt lat="47.45046" lon="-2.47186">
        <ele>19.2</ele>
        <time>2020-08-03T13:37:05Z</time>
      </trkpt>
      <trkpt lat="47.45048" lon="-2.47184">
        <ele>19.2</ele>
        <time>2020-08-03T13:37:06Z</time>
      </trkpt>
      <trkpt lat="47.4505" lon="-2.47181">
        <ele>19.4</ele>
        <time>2020-08-03T13:37:07Z</time>
      </trkpt>
      <trkpt lat="47.45052" lon="-2.47178">
        <ele>19.4</ele>
        <time>2020-08-03T13:37:08Z</time>
      </trkpt>
      <trkpt lat="47.45053" lon="-2.47175">
        <ele>19.4</ele>
        <time>2020-08-03T13:37:09Z</time>
      </trkpt>
      <trkpt lat="47.45058" lon="-2.47169">
        <ele>19.4</ele>
        <time>2020-08-03T13:37:10Z</time>
      </trkpt>
      <trkpt lat="47.45058" lon="-2.47169">
        <ele>19.6</ele>
        <time>2020-08-03T13:37:11Z</time>
      </trkpt>
      <trkpt lat="47.4506" lon="-2.47166">
        <ele>19.6</ele>
        <time>2020-08-03T13:37:12Z</time>
      </trkpt>
      <trkpt lat="47.45065" lon="-2.47162">
        <ele>19.6</ele>
        <time>2020-08-03T13:37:13Z</time>
      </trkpt>
      <trkpt lat="47.45065" lon="-2.47162">
        <ele>19.6</ele>
        <time>2020-08-03T13:37:14Z</time>
      </trkpt>
      <trkpt lat="47.45067" lon="-2.4716">
        <ele>19.4</ele>
        <time>2020-08-03T13:37:15Z</time>
      </trkpt>
      <trkpt lat="47.4507" lon="-2.4716">
        <ele>19.4</ele>
        <time>2020-08-03T13:37:16Z</time>
      </trkpt>
      <trkpt lat="47.45073" lon="-2.47159">
        <ele>19.4</ele>
        <time>2020-08-03T13:37:17Z</time>
      </trkpt>
      <trkpt lat="47.45076" lon="-2.47159">
        <ele>19.4</ele>
        <time>2020-08-03T13:37:18Z</time>
      </trkpt>
      <trkpt lat="47.45079" lon="-2.4716">
        <ele>19.6</ele>
        <time>2020-08-03T13:37:19Z</time>
      </trkpt>
      <trkpt lat="47.45082" lon="-2.47161">
        <ele>19.6</ele>
        <time>2020-08-03T13:37:20Z</time>
      </trkpt>
      <trkpt lat="47.45085" lon="-2.47161">
        <ele>20</ele>
        <time>2020-08-03T13:37:21Z</time>
      </trkpt>
      <trkpt lat="47.45087" lon="-2.47162">
        <ele>20.2</ele>
        <time>2020-08-03T13:37:22Z</time>
      </trkpt>
      <trkpt lat="47.4509" lon="-2.47163">
        <ele>20.2</ele>
        <time>2020-08-03T13:37:23Z</time>
      </trkpt>
      <trkpt lat="47.45093" lon="-2.47164">
        <ele>20</ele>
        <time>2020-08-03T13:37:24Z</time>
      </trkpt>
      <trkpt lat="47.45096" lon="-2.47165">
        <ele>20</ele>
        <time>2020-08-03T13:37:25Z</time>
      </trkpt>
      <trkpt lat="47.45099" lon="-2.47166">
        <ele>20</ele>
        <time>2020-08-03T13:37:26Z</time>
      </trkpt>
      <trkpt lat="47.45102" lon="-2.47167">
        <ele>20.2</ele>
        <time>2020-08-03T13:37:27Z</time>
      </trkpt>
      <trkpt lat="47.45105" lon="-2.47169">
        <ele>20.2</ele>
        <time>2020-08-03T13:37:28Z</time>
      </trkpt>
      <trkpt lat="47.45108" lon="-2.47171">
        <ele>20.2</ele>
        <time>2020-08-03T13:37:29Z</time>
      </trkpt>
      <trkpt lat="47.45111" lon="-2.47173">
        <ele>20.2</ele>
        <time>2020-08-03T13:37:30Z</time>
      </trkpt>
      <trkpt lat="47.45114" lon="-2.47175">
        <ele>20.2</ele>
        <time>2020-08-03T13:37:31Z</time>
      </trkpt>
      <trkpt lat="47.45118" lon="-2.47176">
        <ele>20.2</ele>
        <time>2020-08-03T13:37:32Z</time>
      </trkpt>
      <trkpt lat="47.45121" lon="-2.47178">
        <ele>20.2</ele>
        <time>2020-08-03T13:37:33Z</time>
      </trkpt>
      <trkpt lat="47.45124" lon="-2.4718">
        <ele>20.2</ele>
        <time>2020-08-03T13:37:34Z</time>
      </trkpt>
      <trkpt lat="47.45128" lon="-2.47181">
        <ele>20.4</ele>
        <time>2020-08-03T13:37:35Z</time>
      </trkpt>
      <trkpt lat="47.45134" lon="-2.47182">
        <ele>20.6</ele>
        <time>2020-08-03T13:37:36Z</time>
      </trkpt>
      <trkpt lat="47.45134" lon="-2.47182">
        <ele>20.6</ele>
        <time>2020-08-03T13:37:37Z</time>
      </trkpt>
      <trkpt lat="47.45138" lon="-2.47181">
        <ele>21</ele>
        <time>2020-08-03T13:37:38Z</time>
      </trkpt>
      <trkpt lat="47.45141" lon="-2.4718">
        <ele>21</ele>
        <time>2020-08-03T13:37:39Z</time>
      </trkpt>
      <trkpt lat="47.45145" lon="-2.47179">
        <ele>21.2</ele>
        <time>2020-08-03T13:37:40Z</time>
      </trkpt>
      <trkpt lat="47.45148" lon="-2.47178">
        <ele>21.2</ele>
        <time>2020-08-03T13:37:41Z</time>
      </trkpt>
      <trkpt lat="47.45152" lon="-2.47177">
        <ele>21.2</ele>
        <time>2020-08-03T13:37:42Z</time>
      </trkpt>
      <trkpt lat="47.45154" lon="-2.47176">
        <ele>21.2</ele>
        <time>2020-08-03T13:37:43Z</time>
      </trkpt>
      <trkpt lat="47.45157" lon="-2.47173">
        <ele>21.2</ele>
        <time>2020-08-03T13:37:44Z</time>
      </trkpt>
      <trkpt lat="47.4516" lon="-2.47171">
        <ele>21</ele>
        <time>2020-08-03T13:37:45Z</time>
      </trkpt>
      <trkpt lat="47.45167" lon="-2.47165">
        <ele>21</ele>
        <time>2020-08-03T13:37:46Z</time>
      </trkpt>
      <trkpt lat="47.45167" lon="-2.47165">
        <ele>21</ele>
        <time>2020-08-03T13:37:47Z</time>
      </trkpt>
      <trkpt lat="47.4517" lon="-2.47163">
        <ele>21.2</ele>
        <time>2020-08-03T13:37:48Z</time>
      </trkpt>
      <trkpt lat="47.45173" lon="-2.47161">
        <ele>21.2</ele>
        <time>2020-08-03T13:37:49Z</time>
      </trkpt>
      <trkpt lat="47.45176" lon="-2.47159">
        <ele>21.2</ele>
        <time>2020-08-03T13:37:50Z</time>
      </trkpt>
      <trkpt lat="47.4518" lon="-2.47157">
        <ele>21.4</ele>
        <time>2020-08-03T13:37:51Z</time>
      </trkpt>
      <trkpt lat="47.45183" lon="-2.47154">
        <ele>21.2</ele>
        <time>2020-08-03T13:37:52Z</time>
      </trkpt>
      <trkpt lat="47.45187" lon="-2.47153">
        <ele>21.4</ele>
        <time>2020-08-03T13:37:53Z</time>
      </trkpt>
      <trkpt lat="47.45191" lon="-2.47151">
        <ele>21.2</ele>
        <time>2020-08-03T13:37:54Z</time>
      </trkpt>
      <trkpt lat="47.45198" lon="-2.47149">
        <ele>21.2</ele>
        <time>2020-08-03T13:37:55Z</time>
      </trkpt>
      <trkpt lat="47.45198" lon="-2.47149">
        <ele>21</ele>
        <time>2020-08-03T13:37:56Z</time>
      </trkpt>
      <trkpt lat="47.45201" lon="-2.47147">
        <ele>20.8</ele>
        <time>2020-08-03T13:37:57Z</time>
      </trkpt>
      <trkpt lat="47.45208" lon="-2.47143">
        <ele>20.8</ele>
        <time>2020-08-03T13:37:58Z</time>
      </trkpt>
      <trkpt lat="47.45208" lon="-2.47143">
        <ele>20.8</ele>
        <time>2020-08-03T13:37:59Z</time>
      </trkpt>
      <trkpt lat="47.45211" lon="-2.47139">
        <ele>20.6</ele>
        <time>2020-08-03T13:38:00Z</time>
      </trkpt>
      <trkpt lat="47.45213" lon="-2.47135">
        <ele>20.4</ele>
        <time>2020-08-03T13:38:01Z</time>
      </trkpt>
      <trkpt lat="47.45215" lon="-2.4713">
        <ele>20.4</ele>
        <time>2020-08-03T13:38:02Z</time>
      </trkpt>
      <trkpt lat="47.45215" lon="-2.47125">
        <ele>20.2</ele>
        <time>2020-08-03T13:38:03Z</time>
      </trkpt>
      <trkpt lat="47.45215" lon="-2.47119">
        <ele>20</ele>
        <time>2020-08-03T13:38:04Z</time>
      </trkpt>
      <trkpt lat="47.45214" lon="-2.47113">
        <ele>20</ele>
        <time>2020-08-03T13:38:05Z</time>
      </trkpt>
      <trkpt lat="47.45213" lon="-2.47101">
        <ele>19.8</ele>
        <time>2020-08-03T13:38:06Z</time>
      </trkpt>
      <trkpt lat="47.45213" lon="-2.47101">
        <ele>19.8</ele>
        <time>2020-08-03T13:38:07Z</time>
      </trkpt>
      <trkpt lat="47.45212" lon="-2.47095">
        <ele>19.6</ele>
        <time>2020-08-03T13:38:08Z</time>
      </trkpt>
      <trkpt lat="47.45211" lon="-2.47089">
        <ele>19.4</ele>
        <time>2020-08-03T13:38:09Z</time>
      </trkpt>
      <trkpt lat="47.4521" lon="-2.47082">
        <ele>19.2</ele>
        <time>2020-08-03T13:38:10Z</time>
      </trkpt>
      <trkpt lat="47.45209" lon="-2.47075">
        <ele>19</ele>
        <time>2020-08-03T13:38:11Z</time>
      </trkpt>
      <trkpt lat="47.45206" lon="-2.4706">
        <ele>19</ele>
        <time>2020-08-03T13:38:12Z</time>
      </trkpt>
      <trkpt lat="47.45206" lon="-2.4706">
        <ele>18.8</ele>
        <time>2020-08-03T13:38:13Z</time>
      </trkpt>
      <trkpt lat="47.45205" lon="-2.47052">
        <ele>18.6</ele>
        <time>2020-08-03T13:38:14Z</time>
      </trkpt>
      <trkpt lat="47.45204" lon="-2.47043">
        <ele>18.2</ele>
        <time>2020-08-03T13:38:15Z</time>
      </trkpt>
      <trkpt lat="47.45203" lon="-2.47025">
        <ele>18</ele>
        <time>2020-08-03T13:38:16Z</time>
      </trkpt>
      <trkpt lat="47.45203" lon="-2.47025">
        <ele>17.6</ele>
        <time>2020-08-03T13:38:17Z</time>
      </trkpt>
      <trkpt lat="47.45202" lon="-2.47015">
        <ele>17.2</ele>
        <time>2020-08-03T13:38:18Z</time>
      </trkpt>
      <trkpt lat="47.45199" lon="-2.46995">
        <ele>16.8</ele>
        <time>2020-08-03T13:38:19Z</time>
      </trkpt>
      <trkpt lat="47.45199" lon="-2.46995">
        <ele>16.4</ele>
        <time>2020-08-03T13:38:20Z</time>
      </trkpt>
      <trkpt lat="47.45199" lon="-2.46984">
        <ele>16</ele>
        <time>2020-08-03T13:38:21Z</time>
      </trkpt>
      <trkpt lat="47.45198" lon="-2.46973">
        <ele>15.4</ele>
        <time>2020-08-03T13:38:22Z</time>
      </trkpt>
      <trkpt lat="47.45198" lon="-2.46962">
        <ele>14.8</ele>
        <time>2020-08-03T13:38:23Z</time>
      </trkpt>
      <trkpt lat="47.45197" lon="-2.46949">
        <ele>14.4</ele>
        <time>2020-08-03T13:38:24Z</time>
      </trkpt>
      <trkpt lat="47.45196" lon="-2.46937">
        <ele>13.8</ele>
        <time>2020-08-03T13:38:25Z</time>
      </trkpt>
      <trkpt lat="47.45196" lon="-2.46925">
        <ele>13.4</ele>
        <time>2020-08-03T13:38:26Z</time>
      </trkpt>
      <trkpt lat="47.45195" lon="-2.46912">
        <ele>13.2</ele>
        <time>2020-08-03T13:38:27Z</time>
      </trkpt>
      <trkpt lat="47.45194" lon="-2.46899">
        <ele>12.8</ele>
        <time>2020-08-03T13:38:28Z</time>
      </trkpt>
      <trkpt lat="47.45193" lon="-2.46887">
        <ele>12.4</ele>
        <time>2020-08-03T13:38:29Z</time>
      </trkpt>
      <trkpt lat="47.45192" lon="-2.46861">
        <ele>12</ele>
        <time>2020-08-03T13:38:30Z</time>
      </trkpt>
      <trkpt lat="47.45192" lon="-2.46861">
        <ele>11.4</ele>
        <time>2020-08-03T13:38:31Z</time>
      </trkpt>
      <trkpt lat="47.45191" lon="-2.46848">
        <ele>11.2</ele>
        <time>2020-08-03T13:38:32Z</time>
      </trkpt>
      <trkpt lat="47.4519" lon="-2.46836">
        <ele>11.2</ele>
        <time>2020-08-03T13:38:33Z</time>
      </trkpt>
      <trkpt lat="47.4519" lon="-2.46823">
        <ele>11.6</ele>
        <time>2020-08-03T13:38:34Z</time>
      </trkpt>
      <trkpt lat="47.45189" lon="-2.46801">
        <ele>11.4</ele>
        <time>2020-08-03T13:38:35Z</time>
      </trkpt>
      <trkpt lat="47.45188" lon="-2.4679">
        <ele>11.6</ele>
        <time>2020-08-03T13:38:36Z</time>
      </trkpt>
      <trkpt lat="47.45188" lon="-2.4679">
        <ele>12.2</ele>
        <time>2020-08-03T13:38:37Z</time>
      </trkpt>
      <trkpt lat="47.45188" lon="-2.46781">
        <ele>11.6</ele>
        <time>2020-08-03T13:38:38Z</time>
      </trkpt>
      <trkpt lat="47.45187" lon="-2.46771">
        <ele>12</ele>
        <time>2020-08-03T13:38:39Z</time>
      </trkpt>
      <trkpt lat="47.45187" lon="-2.46762">
        <ele>12.2</ele>
        <time>2020-08-03T13:38:40Z</time>
      </trkpt>
      <trkpt lat="47.45186" lon="-2.46745">
        <ele>12.6</ele>
        <time>2020-08-03T13:38:41Z</time>
      </trkpt>
      <trkpt lat="47.45185" lon="-2.46737">
        <ele>12.6</ele>
        <time>2020-08-03T13:38:42Z</time>
      </trkpt>
      <trkpt lat="47.45185" lon="-2.4673">
        <ele>13</ele>
        <time>2020-08-03T13:38:43Z</time>
      </trkpt>
      <trkpt lat="47.45184" lon="-2.46723">
        <ele>13.2</ele>
        <time>2020-08-03T13:38:44Z</time>
      </trkpt>
      <trkpt lat="47.45184" lon="-2.46716">
        <ele>13.6</ele>
        <time>2020-08-03T13:38:45Z</time>
      </trkpt>
      <trkpt lat="47.45184" lon="-2.46716">
        <ele>13.6</ele>
        <time>2020-08-03T13:38:46Z</time>
      </trkpt>
      <trkpt lat="47.45184" lon="-2.46709">
        <ele>13.2</ele>
        <time>2020-08-03T13:38:47Z</time>
      </trkpt>
      <trkpt lat="47.45183" lon="-2.46696">
        <ele>13.8</ele>
        <time>2020-08-03T13:38:48Z</time>
      </trkpt>
      <trkpt lat="47.45183" lon="-2.46689">
        <ele>14</ele>
        <time>2020-08-03T13:38:49Z</time>
      </trkpt>
      <trkpt lat="47.45183" lon="-2.46682">
        <ele>14.4</ele>
        <time>2020-08-03T13:38:50Z</time>
      </trkpt>
      <trkpt lat="47.45183" lon="-2.46682">
        <ele>14.2</ele>
        <time>2020-08-03T13:38:51Z</time>
      </trkpt>
      <trkpt lat="47.45182" lon="-2.46676">
        <ele>14.6</ele>
        <time>2020-08-03T13:38:52Z</time>
      </trkpt>
      <trkpt lat="47.45181" lon="-2.46663">
        <ele>14.8</ele>
        <time>2020-08-03T13:38:53Z</time>
      </trkpt>
      <trkpt lat="47.45181" lon="-2.46663">
        <ele>14.8</ele>
        <time>2020-08-03T13:38:54Z</time>
      </trkpt>
      <trkpt lat="47.45181" lon="-2.46651">
        <ele>14.8</ele>
        <time>2020-08-03T13:38:55Z</time>
      </trkpt>
      <trkpt lat="47.4518" lon="-2.46645">
        <ele>14.8</ele>
        <time>2020-08-03T13:38:56Z</time>
      </trkpt>
      <trkpt lat="47.4518" lon="-2.46645">
        <ele>14.8</ele>
        <time>2020-08-03T13:38:57Z</time>
      </trkpt>
      <trkpt lat="47.45181" lon="-2.46638">
        <ele>14.6</ele>
        <time>2020-08-03T13:38:58Z</time>
      </trkpt>
      <trkpt lat="47.45181" lon="-2.46625">
        <ele>14.8</ele>
        <time>2020-08-03T13:38:59Z</time>
      </trkpt>
      <trkpt lat="47.45181" lon="-2.46625">
        <ele>14.6</ele>
        <time>2020-08-03T13:39:00Z</time>
      </trkpt>
      <trkpt lat="47.4518" lon="-2.46612">
        <ele>14.8</ele>
        <time>2020-08-03T13:39:01Z</time>
      </trkpt>
      <trkpt lat="47.4518" lon="-2.46605">
        <ele>14.6</ele>
        <time>2020-08-03T13:39:02Z</time>
      </trkpt>
      <trkpt lat="47.4518" lon="-2.46598">
        <ele>14.8</ele>
        <time>2020-08-03T13:39:03Z</time>
      </trkpt>
      <trkpt lat="47.4518" lon="-2.46598">
        <ele>14.8</ele>
        <time>2020-08-03T13:39:04Z</time>
      </trkpt>
      <trkpt lat="47.4518" lon="-2.46591">
        <ele>14.8</ele>
        <time>2020-08-03T13:39:05Z</time>
      </trkpt>
      <trkpt lat="47.45181" lon="-2.46576">
        <ele>14.4</ele>
        <time>2020-08-03T13:39:06Z</time>
      </trkpt>
      <trkpt lat="47.45182" lon="-2.46569">
        <ele>14.6</ele>
        <time>2020-08-03T13:39:07Z</time>
      </trkpt>
      <trkpt lat="47.45183" lon="-2.46562">
        <ele>14.8</ele>
        <time>2020-08-03T13:39:08Z</time>
      </trkpt>
      <trkpt lat="47.45183" lon="-2.46562">
        <ele>14.8</ele>
        <time>2020-08-03T13:39:09Z</time>
      </trkpt>
      <trkpt lat="47.45184" lon="-2.46555">
        <ele>15</ele>
        <time>2020-08-03T13:39:10Z</time>
      </trkpt>
      <trkpt lat="47.45186" lon="-2.46542">
        <ele>15.4</ele>
        <time>2020-08-03T13:39:11Z</time>
      </trkpt>
      <trkpt lat="47.45187" lon="-2.46537">
        <ele>15.4</ele>
        <time>2020-08-03T13:39:12Z</time>
      </trkpt>
      <trkpt lat="47.45188" lon="-2.46531">
        <ele>15.4</ele>
        <time>2020-08-03T13:39:13Z</time>
      </trkpt>
      <trkpt lat="47.4519" lon="-2.46525">
        <ele>15.4</ele>
        <time>2020-08-03T13:39:14Z</time>
      </trkpt>
      <trkpt lat="47.45191" lon="-2.46521">
        <ele>15.4</ele>
        <time>2020-08-03T13:39:15Z</time>
      </trkpt>
      <trkpt lat="47.45193" lon="-2.46516">
        <ele>15.6</ele>
        <time>2020-08-03T13:39:16Z</time>
      </trkpt>
      <trkpt lat="47.45194" lon="-2.46511">
        <ele>16</ele>
        <time>2020-08-03T13:39:17Z</time>
      </trkpt>
      <trkpt lat="47.45194" lon="-2.46511">
        <ele>16.2</ele>
        <time>2020-08-03T13:39:18Z</time>
      </trkpt>
      <trkpt lat="47.45195" lon="-2.46506">
        <ele>16.2</ele>
        <time>2020-08-03T13:39:19Z</time>
      </trkpt>
      <trkpt lat="47.45197" lon="-2.46496">
        <ele>16.4</ele>
        <time>2020-08-03T13:39:20Z</time>
      </trkpt>
      <trkpt lat="47.45198" lon="-2.46491">
        <ele>16.6</ele>
        <time>2020-08-03T13:39:21Z</time>
      </trkpt>
      <trkpt lat="47.45199" lon="-2.46486">
        <ele>16.6</ele>
        <time>2020-08-03T13:39:22Z</time>
      </trkpt>
      <trkpt lat="47.45201" lon="-2.46481">
        <ele>16.8</ele>
        <time>2020-08-03T13:39:23Z</time>
      </trkpt>
      <trkpt lat="47.45202" lon="-2.46476">
        <ele>17</ele>
        <time>2020-08-03T13:39:24Z</time>
      </trkpt>
      <trkpt lat="47.45203" lon="-2.46471">
        <ele>17.2</ele>
        <time>2020-08-03T13:39:25Z</time>
      </trkpt>
      <trkpt lat="47.45205" lon="-2.46466">
        <ele>17.2</ele>
        <time>2020-08-03T13:39:26Z</time>
      </trkpt>
      <trkpt lat="47.45206" lon="-2.46461">
        <ele>17.4</ele>
        <time>2020-08-03T13:39:27Z</time>
      </trkpt>
      <trkpt lat="47.45206" lon="-2.46461">
        <ele>17.6</ele>
        <time>2020-08-03T13:39:28Z</time>
      </trkpt>
      <trkpt lat="47.45207" lon="-2.46456">
        <ele>17.6</ele>
        <time>2020-08-03T13:39:29Z</time>
      </trkpt>
      <trkpt lat="47.4521" lon="-2.46447">
        <ele>17.8</ele>
        <time>2020-08-03T13:39:30Z</time>
      </trkpt>
      <trkpt lat="47.4521" lon="-2.46447">
        <ele>17.8</ele>
        <time>2020-08-03T13:39:31Z</time>
      </trkpt>
      <trkpt lat="47.45215" lon="-2.46438">
        <ele>18.2</ele>
        <time>2020-08-03T13:39:32Z</time>
      </trkpt>
      <trkpt lat="47.45217" lon="-2.46434">
        <ele>18.2</ele>
        <time>2020-08-03T13:39:33Z</time>
      </trkpt>
      <trkpt lat="47.45219" lon="-2.46429">
        <ele>18.2</ele>
        <time>2020-08-03T13:39:34Z</time>
      </trkpt>
      <trkpt lat="47.45221" lon="-2.46425">
        <ele>18.4</ele>
        <time>2020-08-03T13:39:35Z</time>
      </trkpt>
      <trkpt lat="47.45224" lon="-2.4642">
        <ele>18.2</ele>
        <time>2020-08-03T13:39:36Z</time>
      </trkpt>
      <trkpt lat="47.45226" lon="-2.46416">
        <ele>18.2</ele>
        <time>2020-08-03T13:39:37Z</time>
      </trkpt>
      <trkpt lat="47.45226" lon="-2.46416">
        <ele>18.4</ele>
        <time>2020-08-03T13:39:38Z</time>
      </trkpt>
      <trkpt lat="47.45229" lon="-2.46412">
        <ele>18.4</ele>
        <time>2020-08-03T13:39:39Z</time>
      </trkpt>
      <trkpt lat="47.45234" lon="-2.46404">
        <ele>18.4</ele>
        <time>2020-08-03T13:39:40Z</time>
      </trkpt>
      <trkpt lat="47.45237" lon="-2.46399">
        <ele>18.4</ele>
        <time>2020-08-03T13:39:41Z</time>
      </trkpt>
      <trkpt lat="47.45239" lon="-2.46395">
        <ele>18.4</ele>
        <time>2020-08-03T13:39:42Z</time>
      </trkpt>
      <trkpt lat="47.45242" lon="-2.46391">
        <ele>18.4</ele>
        <time>2020-08-03T13:39:43Z</time>
      </trkpt>
      <trkpt lat="47.45245" lon="-2.46387">
        <ele>18.4</ele>
        <time>2020-08-03T13:39:44Z</time>
      </trkpt>
      <trkpt lat="47.45248" lon="-2.46383">
        <ele>18.4</ele>
        <time>2020-08-03T13:39:45Z</time>
      </trkpt>
      <trkpt lat="47.4525" lon="-2.46378">
        <ele>18.4</ele>
        <time>2020-08-03T13:39:46Z</time>
      </trkpt>
      <trkpt lat="47.45253" lon="-2.46374">
        <ele>18.2</ele>
        <time>2020-08-03T13:39:47Z</time>
      </trkpt>
      <trkpt lat="47.45255" lon="-2.46369">
        <ele>18.2</ele>
        <time>2020-08-03T13:39:48Z</time>
      </trkpt>
      <trkpt lat="47.45256" lon="-2.46364">
        <ele>18</ele>
        <time>2020-08-03T13:39:49Z</time>
      </trkpt>
      <trkpt lat="47.45257" lon="-2.46359">
        <ele>18</ele>
        <time>2020-08-03T13:39:50Z</time>
      </trkpt>
      <trkpt lat="47.45256" lon="-2.46353">
        <ele>18</ele>
        <time>2020-08-03T13:39:51Z</time>
      </trkpt>
      <trkpt lat="47.45256" lon="-2.46347">
        <ele>17.8</ele>
        <time>2020-08-03T13:39:52Z</time>
      </trkpt>
      <trkpt lat="47.45255" lon="-2.4634">
        <ele>17.8</ele>
        <time>2020-08-03T13:39:53Z</time>
      </trkpt>
      <trkpt lat="47.45254" lon="-2.46334">
        <ele>17.6</ele>
        <time>2020-08-03T13:39:54Z</time>
      </trkpt>
      <trkpt lat="47.45252" lon="-2.46327">
        <ele>17.6</ele>
        <time>2020-08-03T13:39:55Z</time>
      </trkpt>
      <trkpt lat="47.45251" lon="-2.4632">
        <ele>17.6</ele>
        <time>2020-08-03T13:39:56Z</time>
      </trkpt>
      <trkpt lat="47.45251" lon="-2.4632">
        <ele>17.6</ele>
        <time>2020-08-03T13:39:57Z</time>
      </trkpt>
      <trkpt lat="47.45247" lon="-2.46308">
        <ele>17.8</ele>
        <time>2020-08-03T13:39:58Z</time>
      </trkpt>
      <trkpt lat="47.45245" lon="-2.46302">
        <ele>17.8</ele>
        <time>2020-08-03T13:39:59Z</time>
      </trkpt>
      <trkpt lat="47.45243" lon="-2.46295">
        <ele>17.8</ele>
        <time>2020-08-03T13:40:00Z</time>
      </trkpt>
      <trkpt lat="47.45241" lon="-2.46289">
        <ele>17.8</ele>
        <time>2020-08-03T13:40:01Z</time>
      </trkpt>
      <trkpt lat="47.45239" lon="-2.46282">
        <ele>17.6</ele>
        <time>2020-08-03T13:40:02Z</time>
      </trkpt>
      <trkpt lat="47.45237" lon="-2.46275">
        <ele>17.6</ele>
        <time>2020-08-03T13:40:03Z</time>
      </trkpt>
      <trkpt lat="47.45235" lon="-2.46268">
        <ele>17.4</ele>
        <time>2020-08-03T13:40:04Z</time>
      </trkpt>
      <trkpt lat="47.45233" lon="-2.46261">
        <ele>17.6</ele>
        <time>2020-08-03T13:40:05Z</time>
      </trkpt>
      <trkpt lat="47.4523" lon="-2.46254">
        <ele>17.6</ele>
        <time>2020-08-03T13:40:06Z</time>
      </trkpt>
      <trkpt lat="47.45228" lon="-2.46247">
        <ele>17.6</ele>
        <time>2020-08-03T13:40:07Z</time>
      </trkpt>
      <trkpt lat="47.45226" lon="-2.46241">
        <ele>17.4</ele>
        <time>2020-08-03T13:40:08Z</time>
      </trkpt>
      <trkpt lat="47.45224" lon="-2.46235">
        <ele>17.6</ele>
        <time>2020-08-03T13:40:09Z</time>
      </trkpt>
      <trkpt lat="47.45224" lon="-2.46235">
        <ele>17.6</ele>
        <time>2020-08-03T13:40:10Z</time>
      </trkpt>
      <trkpt lat="47.4522" lon="-2.46223">
        <ele>17.6</ele>
        <time>2020-08-03T13:40:11Z</time>
      </trkpt>
      <trkpt lat="47.45218" lon="-2.46216">
        <ele>17.4</ele>
        <time>2020-08-03T13:40:12Z</time>
      </trkpt>
      <trkpt lat="47.45215" lon="-2.4621">
        <ele>17.2</ele>
        <time>2020-08-03T13:40:13Z</time>
      </trkpt>
      <trkpt lat="47.45213" lon="-2.46203">
        <ele>17</ele>
        <time>2020-08-03T13:40:14Z</time>
      </trkpt>
      <trkpt lat="47.4521" lon="-2.46197">
        <ele>16.8</ele>
        <time>2020-08-03T13:40:15Z</time>
      </trkpt>
      <trkpt lat="47.45208" lon="-2.4619">
        <ele>16.6</ele>
        <time>2020-08-03T13:40:16Z</time>
      </trkpt>
      <trkpt lat="47.45205" lon="-2.46184">
        <ele>16.6</ele>
        <time>2020-08-03T13:40:17Z</time>
      </trkpt>
      <trkpt lat="47.45203" lon="-2.46177">
        <ele>16.4</ele>
        <time>2020-08-03T13:40:18Z</time>
      </trkpt>
      <trkpt lat="47.452" lon="-2.4617">
        <ele>16.4</ele>
        <time>2020-08-03T13:40:19Z</time>
      </trkpt>
      <trkpt lat="47.45198" lon="-2.46163">
        <ele>16.4</ele>
        <time>2020-08-03T13:40:20Z</time>
      </trkpt>
      <trkpt lat="47.45195" lon="-2.46157">
        <ele>16.2</ele>
        <time>2020-08-03T13:40:21Z</time>
      </trkpt>
      <trkpt lat="47.45192" lon="-2.4615">
        <ele>16</ele>
        <time>2020-08-03T13:40:22Z</time>
      </trkpt>
      <trkpt lat="47.45189" lon="-2.46144">
        <ele>16</ele>
        <time>2020-08-03T13:40:23Z</time>
      </trkpt>
      <trkpt lat="47.45186" lon="-2.46138">
        <ele>16</ele>
        <time>2020-08-03T13:40:24Z</time>
      </trkpt>
      <trkpt lat="47.45183" lon="-2.46132">
        <ele>15.8</ele>
        <time>2020-08-03T13:40:25Z</time>
      </trkpt>
      <trkpt lat="47.45179" lon="-2.46127">
        <ele>15.8</ele>
        <time>2020-08-03T13:40:26Z</time>
      </trkpt>
      <trkpt lat="47.45175" lon="-2.46123">
        <ele>16</ele>
        <time>2020-08-03T13:40:27Z</time>
      </trkpt>
      <trkpt lat="47.45171" lon="-2.46119">
        <ele>16</ele>
        <time>2020-08-03T13:40:28Z</time>
      </trkpt>
      <trkpt lat="47.45167" lon="-2.46115">
        <ele>16</ele>
        <time>2020-08-03T13:40:29Z</time>
      </trkpt>
      <trkpt lat="47.45163" lon="-2.46111">
        <ele>16</ele>
        <time>2020-08-03T13:40:30Z</time>
      </trkpt>
      <trkpt lat="47.45159" lon="-2.46107">
        <ele>16</ele>
        <time>2020-08-03T13:40:31Z</time>
      </trkpt>
      <trkpt lat="47.45155" lon="-2.46103">
        <ele>16</ele>
        <time>2020-08-03T13:40:32Z</time>
      </trkpt>
      <trkpt lat="47.45151" lon="-2.46101">
        <ele>16</ele>
        <time>2020-08-03T13:40:33Z</time>
      </trkpt>
      <trkpt lat="47.45147" lon="-2.46099">
        <ele>16</ele>
        <time>2020-08-03T13:40:34Z</time>
      </trkpt>
      <trkpt lat="47.45143" lon="-2.46098">
        <ele>16</ele>
        <time>2020-08-03T13:40:35Z</time>
      </trkpt>
      <trkpt lat="47.45139" lon="-2.46096">
        <ele>16</ele>
        <time>2020-08-03T13:40:36Z</time>
      </trkpt>
      <trkpt lat="47.45135" lon="-2.46096">
        <ele>16</ele>
        <time>2020-08-03T13:40:37Z</time>
      </trkpt>
      <trkpt lat="47.45131" lon="-2.46096">
        <ele>15.8</ele>
        <time>2020-08-03T13:40:38Z</time>
      </trkpt>
      <trkpt lat="47.45128" lon="-2.46095">
        <ele>15.8</ele>
        <time>2020-08-03T13:40:39Z</time>
      </trkpt>
      <trkpt lat="47.45124" lon="-2.46095">
        <ele>16</ele>
        <time>2020-08-03T13:40:40Z</time>
      </trkpt>
      <trkpt lat="47.45121" lon="-2.46095">
        <ele>16</ele>
        <time>2020-08-03T13:40:41Z</time>
      </trkpt>
      <trkpt lat="47.45117" lon="-2.46095">
        <ele>16.2</ele>
        <time>2020-08-03T13:40:42Z</time>
      </trkpt>
      <trkpt lat="47.45114" lon="-2.46096">
        <ele>16.2</ele>
        <time>2020-08-03T13:40:43Z</time>
      </trkpt>
      <trkpt lat="47.4511" lon="-2.46098">
        <ele>16.2</ele>
        <time>2020-08-03T13:40:44Z</time>
      </trkpt>
      <trkpt lat="47.45106" lon="-2.461">
        <ele>16.2</ele>
        <time>2020-08-03T13:40:45Z</time>
      </trkpt>
      <trkpt lat="47.45103" lon="-2.46103">
        <ele>16.2</ele>
        <time>2020-08-03T13:40:46Z</time>
      </trkpt>
      <trkpt lat="47.45099" lon="-2.46106">
        <ele>16.2</ele>
        <time>2020-08-03T13:40:47Z</time>
      </trkpt>
      <trkpt lat="47.45096" lon="-2.46108">
        <ele>16</ele>
        <time>2020-08-03T13:40:48Z</time>
      </trkpt>
      <trkpt lat="47.45092" lon="-2.46111">
        <ele>16.2</ele>
        <time>2020-08-03T13:40:49Z</time>
      </trkpt>
      <trkpt lat="47.45089" lon="-2.46114">
        <ele>16.2</ele>
        <time>2020-08-03T13:40:50Z</time>
      </trkpt>
      <trkpt lat="47.45085" lon="-2.46116">
        <ele>16.2</ele>
        <time>2020-08-03T13:40:51Z</time>
      </trkpt>
      <trkpt lat="47.45081" lon="-2.46118">
        <ele>16.2</ele>
        <time>2020-08-03T13:40:52Z</time>
      </trkpt>
      <trkpt lat="47.45078" lon="-2.4612">
        <ele>16.2</ele>
        <time>2020-08-03T13:40:53Z</time>
      </trkpt>
      <trkpt lat="47.45074" lon="-2.46123">
        <ele>16</ele>
        <time>2020-08-03T13:40:54Z</time>
      </trkpt>
      <trkpt lat="47.45071" lon="-2.46125">
        <ele>16</ele>
        <time>2020-08-03T13:40:55Z</time>
      </trkpt>
      <trkpt lat="47.45067" lon="-2.46127">
        <ele>15.8</ele>
        <time>2020-08-03T13:40:56Z</time>
      </trkpt>
      <trkpt lat="47.45063" lon="-2.46129">
        <ele>15.6</ele>
        <time>2020-08-03T13:40:57Z</time>
      </trkpt>
      <trkpt lat="47.4506" lon="-2.46132">
        <ele>15.8</ele>
        <time>2020-08-03T13:40:58Z</time>
      </trkpt>
      <trkpt lat="47.45056" lon="-2.46134">
        <ele>16</ele>
        <time>2020-08-03T13:40:59Z</time>
      </trkpt>
      <trkpt lat="47.45053" lon="-2.46137">
        <ele>15.8</ele>
        <time>2020-08-03T13:41:00Z</time>
      </trkpt>
      <trkpt lat="47.4505" lon="-2.46139">
        <ele>15.6</ele>
        <time>2020-08-03T13:41:01Z</time>
      </trkpt>
      <trkpt lat="47.45046" lon="-2.46141">
        <ele>15.6</ele>
        <time>2020-08-03T13:41:02Z</time>
      </trkpt>
      <trkpt lat="47.45042" lon="-2.46143">
        <ele>15.8</ele>
        <time>2020-08-03T13:41:03Z</time>
      </trkpt>
      <trkpt lat="47.45039" lon="-2.46146">
        <ele>15.6</ele>
        <time>2020-08-03T13:41:04Z</time>
      </trkpt>
      <trkpt lat="47.45035" lon="-2.4615">
        <ele>15.4</ele>
        <time>2020-08-03T13:41:05Z</time>
      </trkpt>
      <trkpt lat="47.45031" lon="-2.46153">
        <ele>15.2</ele>
        <time>2020-08-03T13:41:06Z</time>
      </trkpt>
      <trkpt lat="47.45028" lon="-2.46156">
        <ele>15</ele>
        <time>2020-08-03T13:41:07Z</time>
      </trkpt>
      <trkpt lat="47.45024" lon="-2.46159">
        <ele>15</ele>
        <time>2020-08-03T13:41:08Z</time>
      </trkpt>
      <trkpt lat="47.45019" lon="-2.46162">
        <ele>14.8</ele>
        <time>2020-08-03T13:41:09Z</time>
      </trkpt>
      <trkpt lat="47.45015" lon="-2.46165">
        <ele>14.8</ele>
        <time>2020-08-03T13:41:10Z</time>
      </trkpt>
      <trkpt lat="47.45011" lon="-2.46167">
        <ele>14.6</ele>
        <time>2020-08-03T13:41:11Z</time>
      </trkpt>
      <trkpt lat="47.45007" lon="-2.46169">
        <ele>14.6</ele>
        <time>2020-08-03T13:41:12Z</time>
      </trkpt>
      <trkpt lat="47.45002" lon="-2.46172">
        <ele>14.4</ele>
        <time>2020-08-03T13:41:13Z</time>
      </trkpt>
      <trkpt lat="47.44998" lon="-2.46176">
        <ele>14.2</ele>
        <time>2020-08-03T13:41:14Z</time>
      </trkpt>
      <trkpt lat="47.44994" lon="-2.4618">
        <ele>14</ele>
        <time>2020-08-03T13:41:15Z</time>
      </trkpt>
      <trkpt lat="47.4499" lon="-2.46183">
        <ele>13.8</ele>
        <time>2020-08-03T13:41:16Z</time>
      </trkpt>
      <trkpt lat="47.44986" lon="-2.46187">
        <ele>13.8</ele>
        <time>2020-08-03T13:41:17Z</time>
      </trkpt>
      <trkpt lat="47.44982" lon="-2.46191">
        <ele>13.6</ele>
        <time>2020-08-03T13:41:18Z</time>
      </trkpt>
      <trkpt lat="47.44979" lon="-2.46195">
        <ele>13.6</ele>
        <time>2020-08-03T13:41:19Z</time>
      </trkpt>
      <trkpt lat="47.44977" lon="-2.462">
        <ele>13.4</ele>
        <time>2020-08-03T13:41:20Z</time>
      </trkpt>
      <trkpt lat="47.44975" lon="-2.46205">
        <ele>13</ele>
        <time>2020-08-03T13:41:21Z</time>
      </trkpt>
      <trkpt lat="47.44973" lon="-2.46211">
        <ele>12.8</ele>
        <time>2020-08-03T13:41:22Z</time>
      </trkpt>
      <trkpt lat="47.44972" lon="-2.46216">
        <ele>12.6</ele>
        <time>2020-08-03T13:41:23Z</time>
      </trkpt>
      <trkpt lat="47.44971" lon="-2.46221">
        <ele>12.6</ele>
        <time>2020-08-03T13:41:24Z</time>
      </trkpt>
      <trkpt lat="47.4497" lon="-2.46225">
        <ele>12.4</ele>
        <time>2020-08-03T13:41:25Z</time>
      </trkpt>
      <trkpt lat="47.44969" lon="-2.46229">
        <ele>12.2</ele>
        <time>2020-08-03T13:41:26Z</time>
      </trkpt>
      <trkpt lat="47.44967" lon="-2.46232">
        <ele>12.2</ele>
        <time>2020-08-03T13:41:27Z</time>
      </trkpt>
      <trkpt lat="47.44965" lon="-2.46235">
        <ele>12</ele>
        <time>2020-08-03T13:41:28Z</time>
      </trkpt>
      <trkpt lat="47.44964" lon="-2.46237">
        <ele>11.8</ele>
        <time>2020-08-03T13:41:29Z</time>
      </trkpt>
      <trkpt lat="47.44962" lon="-2.46238">
        <ele>11.8</ele>
        <time>2020-08-03T13:41:30Z</time>
      </trkpt>
      <trkpt lat="47.44961" lon="-2.46239">
        <ele>11.8</ele>
        <time>2020-08-03T13:41:31Z</time>
      </trkpt>
      <trkpt lat="47.44959" lon="-2.4624">
        <ele>11.6</ele>
        <time>2020-08-03T13:41:32Z</time>
      </trkpt>
      <trkpt lat="47.44958" lon="-2.46241">
        <ele>11.6</ele>
        <time>2020-08-03T13:41:33Z</time>
      </trkpt>
      <trkpt lat="47.44957" lon="-2.46242">
        <ele>11.6</ele>
        <time>2020-08-03T13:41:34Z</time>
      </trkpt>
      <trkpt lat="47.44956" lon="-2.46243">
        <ele>11.4</ele>
        <time>2020-08-03T13:41:35Z</time>
      </trkpt>
      <trkpt lat="47.44955" lon="-2.46242">
        <ele>11.4</ele>
        <time>2020-08-03T13:41:36Z</time>
      </trkpt>
      <trkpt lat="47.44955" lon="-2.46242">
        <ele>11.4</ele>
        <time>2020-08-03T13:41:37Z</time>
      </trkpt>
      <trkpt lat="47.44955" lon="-2.46242">
        <ele>11.4</ele>
        <time>2020-08-03T13:41:38Z</time>
      </trkpt>
      <trkpt lat="47.44955" lon="-2.46242">
        <ele>11.4</ele>
        <time>2020-08-03T13:41:39Z</time>
      </trkpt>
      <trkpt lat="47.44955" lon="-2.46242">
        <ele>11.4</ele>
        <time>2020-08-03T13:41:40Z</time>
      </trkpt>
      <trkpt lat="47.44955" lon="-2.46242">
        <ele>11.6</ele>
        <time>2020-08-03T13:41:41Z</time>
      </trkpt>
      <trkpt lat="47.44955" lon="-2.46243">
        <ele>11.6</ele>
        <time>2020-08-03T13:41:42Z</time>
      </trkpt>
      <trkpt lat="47.44947" lon="-2.46256">
        <ele>11.8</ele>
        <time>2020-08-03T13:41:52Z</time>
      </trkpt>
      <trkpt lat="47.44946" lon="-2.46256">
        <ele>11.8</ele>
        <time>2020-08-03T13:41:53Z</time>
      </trkpt>
      <trkpt lat="47.44944" lon="-2.46255">
        <ele>12</ele>
        <time>2020-08-03T13:41:54Z</time>
      </trkpt>
      <trkpt lat="47.44943" lon="-2.46254">
        <ele>12</ele>
        <time>2020-08-03T13:41:55Z</time>
      </trkpt>
      <trkpt lat="47.44941" lon="-2.46252">
        <ele>11.8</ele>
        <time>2020-08-03T13:41:56Z</time>
      </trkpt>
      <trkpt lat="47.4494" lon="-2.46251">
        <ele>11.8</ele>
        <time>2020-08-03T13:41:57Z</time>
      </trkpt>
      <trkpt lat="47.44938" lon="-2.46251">
        <ele>11.8</ele>
        <time>2020-08-03T13:41:58Z</time>
      </trkpt>
      <trkpt lat="47.44937" lon="-2.46251">
        <ele>11.6</ele>
        <time>2020-08-03T13:41:59Z</time>
      </trkpt>
      <trkpt lat="47.44935" lon="-2.46251">
        <ele>11.4</ele>
        <time>2020-08-03T13:42:00Z</time>
      </trkpt>
      <trkpt lat="47.44934" lon="-2.46251">
        <ele>11</ele>
        <time>2020-08-03T13:42:01Z</time>
      </trkpt>
      <trkpt lat="47.44933" lon="-2.46251">
        <ele>10.8</ele>
        <time>2020-08-03T13:42:02Z</time>
      </trkpt>
      <trkpt lat="47.44932" lon="-2.46251">
        <ele>10.6</ele>
        <time>2020-08-03T13:42:03Z</time>
      </trkpt>
      <trkpt lat="47.44932" lon="-2.46251">
        <ele>10.4</ele>
        <time>2020-08-03T13:42:04Z</time>
      </trkpt>
      <trkpt lat="47.44932" lon="-2.46252">
        <ele>10.6</ele>
        <time>2020-08-03T13:42:05Z</time>
      </trkpt>
      <trkpt lat="47.44932" lon="-2.46252">
        <ele>10.6</ele>
        <time>2020-08-03T13:42:06Z</time>
      </trkpt>
      <trkpt lat="47.44932" lon="-2.46252">
        <ele>9.8</ele>
        <time>2020-08-03T13:42:07Z</time>
      </trkpt>
      <trkpt lat="47.44932" lon="-2.46252">
        <ele>9.8</ele>
        <time>2020-08-03T13:42:08Z</time>
      </trkpt>
      <trkpt lat="47.44931" lon="-2.46251">
        <ele>9.8</ele>
        <time>2020-08-03T13:42:09Z</time>
      </trkpt>
      <trkpt lat="47.4493" lon="-2.46251">
        <ele>9.8</ele>
        <time>2020-08-03T13:42:10Z</time>
      </trkpt>
      <trkpt lat="47.4493" lon="-2.46252">
        <ele>12.4</ele>
        <time>2020-08-03T13:49:51Z</time>
      </trkpt>
      <trkpt lat="47.4493" lon="-2.46252">
        <ele>12.4</ele>
        <time>2020-08-03T13:49:52Z</time>
      </trkpt>
      <trkpt lat="47.44931" lon="-2.46252">
        <ele>12.4</ele>
        <time>2020-08-03T13:49:53Z</time>
      </trkpt>
      <trkpt lat="47.44932" lon="-2.46252">
        <ele>12.2</ele>
        <time>2020-08-03T13:49:54Z</time>
      </trkpt>
      <trkpt lat="47.44932" lon="-2.46252">
        <ele>12.2</ele>
        <time>2020-08-03T13:49:55Z</time>
      </trkpt>
      <trkpt lat="47.44933" lon="-2.46252">
        <ele>12.4</ele>
        <time>2020-08-03T13:49:56Z</time>
      </trkpt>
      <trkpt lat="47.44934" lon="-2.46252">
        <ele>12.6</ele>
        <time>2020-08-03T13:49:57Z</time>
      </trkpt>
      <trkpt lat="47.4495" lon="-2.46257">
        <ele>14</ele>
        <time>2020-08-03T13:50:20Z</time>
      </trkpt>
      <trkpt lat="47.44951" lon="-2.46257">
        <ele>14</ele>
        <time>2020-08-03T13:50:21Z</time>
      </trkpt>
      <trkpt lat="47.44952" lon="-2.46256">
        <ele>13.8</ele>
        <time>2020-08-03T13:50:22Z</time>
      </trkpt>
      <trkpt lat="47.44954" lon="-2.46255">
        <ele>13.8</ele>
        <time>2020-08-03T13:50:23Z</time>
      </trkpt>
      <trkpt lat="47.44955" lon="-2.46255">
        <ele>13.8</ele>
        <time>2020-08-03T13:50:24Z</time>
      </trkpt>
      <trkpt lat="47.44956" lon="-2.46253">
        <ele>13.8</ele>
        <time>2020-08-03T13:50:25Z</time>
      </trkpt>
      <trkpt lat="47.44957" lon="-2.46252">
        <ele>14</ele>
        <time>2020-08-03T13:50:26Z</time>
      </trkpt>
      <trkpt lat="47.44957" lon="-2.46251">
        <ele>14</ele>
        <time>2020-08-03T13:50:27Z</time>
      </trkpt>
      <trkpt lat="47.44957" lon="-2.46251">
        <ele>14.2</ele>
        <time>2020-08-03T13:50:28Z</time>
      </trkpt>
      <trkpt lat="47.44957" lon="-2.46251">
        <ele>14.2</ele>
        <time>2020-08-03T13:50:29Z</time>
      </trkpt>
      <trkpt lat="47.44957" lon="-2.46251">
        <ele>14.2</ele>
        <time>2020-08-03T13:50:30Z</time>
      </trkpt>
      <trkpt lat="47.44958" lon="-2.46251">
        <ele>14.2</ele>
        <time>2020-08-03T13:50:31Z</time>
      </trkpt>
      <trkpt lat="47.44958" lon="-2.46251">
        <ele>14</ele>
        <time>2020-08-03T13:50:32Z</time>
      </trkpt>
      <trkpt lat="47.44958" lon="-2.46251">
        <ele>14</ele>
        <time>2020-08-03T13:50:33Z</time>
      </trkpt>
      <trkpt lat="47.44958" lon="-2.46251">
        <ele>14</ele>
        <time>2020-08-03T13:50:34Z</time>
      </trkpt>
      <trkpt lat="47.44967" lon="-2.46234">
        <ele>13.6</ele>
        <time>2020-08-03T13:51:09Z</time>
      </trkpt>
      <trkpt lat="47.44968" lon="-2.46232">
        <ele>13.8</ele>
        <time>2020-08-03T13:51:10Z</time>
      </trkpt>
      <trkpt lat="47.44968" lon="-2.4623">
        <ele>13.8</ele>
        <time>2020-08-03T13:51:11Z</time>
      </trkpt>
      <trkpt lat="47.44968" lon="-2.46227">
        <ele>14</ele>
        <time>2020-08-03T13:51:12Z</time>
      </trkpt>
      <trkpt lat="47.44969" lon="-2.46225">
        <ele>14</ele>
        <time>2020-08-03T13:51:13Z</time>
      </trkpt>
      <trkpt lat="47.44969" lon="-2.46222">
        <ele>14</ele>
        <time>2020-08-03T13:51:14Z</time>
      </trkpt>
      <trkpt lat="47.4497" lon="-2.4622">
        <ele>14</ele>
        <time>2020-08-03T13:51:15Z</time>
      </trkpt>
      <trkpt lat="47.4497" lon="-2.46217">
        <ele>14</ele>
        <time>2020-08-03T13:51:16Z</time>
      </trkpt>
      <trkpt lat="47.44971" lon="-2.46214">
        <ele>14.2</ele>
        <time>2020-08-03T13:51:17Z</time>
      </trkpt>
      <trkpt lat="47.44972" lon="-2.46211">
        <ele>14.4</ele>
        <time>2020-08-03T13:51:18Z</time>
      </trkpt>
      <trkpt lat="47.44972" lon="-2.46208">
        <ele>14.6</ele>
        <time>2020-08-03T13:51:19Z</time>
      </trkpt>
      <trkpt lat="47.44972" lon="-2.46205">
        <ele>14.6</ele>
        <time>2020-08-03T13:51:20Z</time>
      </trkpt>
      <trkpt lat="47.44972" lon="-2.46202">
        <ele>14.6</ele>
        <time>2020-08-03T13:51:21Z</time>
      </trkpt>
      <trkpt lat="47.44972" lon="-2.46199">
        <ele>14.8</ele>
        <time>2020-08-03T13:51:22Z</time>
      </trkpt>
      <trkpt lat="47.44971" lon="-2.46196">
        <ele>15</ele>
        <time>2020-08-03T13:51:23Z</time>
      </trkpt>
      <trkpt lat="47.44971" lon="-2.46193">
        <ele>15</ele>
        <time>2020-08-03T13:51:24Z</time>
      </trkpt>
      <trkpt lat="47.4497" lon="-2.46189">
        <ele>15</ele>
        <time>2020-08-03T13:51:25Z</time>
      </trkpt>
      <trkpt lat="47.44969" lon="-2.46186">
        <ele>15.2</ele>
        <time>2020-08-03T13:51:26Z</time>
      </trkpt>
      <trkpt lat="47.44969" lon="-2.46183">
        <ele>15.4</ele>
        <time>2020-08-03T13:51:27Z</time>
      </trkpt>
      <trkpt lat="47.44968" lon="-2.4618">
        <ele>15.6</ele>
        <time>2020-08-03T13:51:28Z</time>
      </trkpt>
      <trkpt lat="47.44968" lon="-2.46176">
        <ele>15.6</ele>
        <time>2020-08-03T13:51:29Z</time>
      </trkpt>
      <trkpt lat="47.44968" lon="-2.46173">
        <ele>15.8</ele>
        <time>2020-08-03T13:51:30Z</time>
      </trkpt>
      <trkpt lat="47.44968" lon="-2.46169">
        <ele>15.8</ele>
        <time>2020-08-03T13:51:31Z</time>
      </trkpt>
      <trkpt lat="47.44968" lon="-2.46166">
        <ele>16</ele>
        <time>2020-08-03T13:51:32Z</time>
      </trkpt>
      <trkpt lat="47.44968" lon="-2.46162">
        <ele>16</ele>
        <time>2020-08-03T13:51:33Z</time>
      </trkpt>
      <trkpt lat="47.44968" lon="-2.46159">
        <ele>16.2</ele>
        <time>2020-08-03T13:51:34Z</time>
      </trkpt>
      <trkpt lat="47.44967" lon="-2.46156">
        <ele>16</ele>
        <time>2020-08-03T13:51:35Z</time>
      </trkpt>
      <trkpt lat="47.44967" lon="-2.46153">
        <ele>16</ele>
        <time>2020-08-03T13:51:36Z</time>
      </trkpt>
      <trkpt lat="47.44967" lon="-2.4615">
        <ele>16</ele>
        <time>2020-08-03T13:51:37Z</time>
      </trkpt>
      <trkpt lat="47.44966" lon="-2.46147">
        <ele>16.4</ele>
        <time>2020-08-03T13:51:38Z</time>
      </trkpt>
      <trkpt lat="47.44965" lon="-2.46144">
        <ele>17</ele>
        <time>2020-08-03T13:51:39Z</time>
      </trkpt>
      <trkpt lat="47.44965" lon="-2.46141">
        <ele>17.4</ele>
        <time>2020-08-03T13:51:40Z</time>
      </trkpt>
      <trkpt lat="47.44964" lon="-2.46138">
        <ele>17.2</ele>
        <time>2020-08-03T13:51:41Z</time>
      </trkpt>
      <trkpt lat="47.44964" lon="-2.46135">
        <ele>17.2</ele>
        <time>2020-08-03T13:51:42Z</time>
      </trkpt>
      <trkpt lat="47.44964" lon="-2.46132">
        <ele>17</ele>
        <time>2020-08-03T13:51:43Z</time>
      </trkpt>
      <trkpt lat="47.44963" lon="-2.46128">
        <ele>17</ele>
        <time>2020-08-03T13:51:44Z</time>
      </trkpt>
      <trkpt lat="47.44963" lon="-2.46125">
        <ele>16.8</ele>
        <time>2020-08-03T13:51:45Z</time>
      </trkpt>
      <trkpt lat="47.44963" lon="-2.46122">
        <ele>16.8</ele>
        <time>2020-08-03T13:51:46Z</time>
      </trkpt>
      <trkpt lat="47.44963" lon="-2.46119">
        <ele>17</ele>
        <time>2020-08-03T13:51:47Z</time>
      </trkpt>
      <trkpt lat="47.44963" lon="-2.46116">
        <ele>17.2</ele>
        <time>2020-08-03T13:51:48Z</time>
      </trkpt>
      <trkpt lat="47.44964" lon="-2.46113">
        <ele>17.2</ele>
        <time>2020-08-03T13:51:49Z</time>
      </trkpt>
      <trkpt lat="47.44964" lon="-2.4611">
        <ele>17.2</ele>
        <time>2020-08-03T13:51:50Z</time>
      </trkpt>
      <trkpt lat="47.44963" lon="-2.46107">
        <ele>17.2</ele>
        <time>2020-08-03T13:51:51Z</time>
      </trkpt>
      <trkpt lat="47.44963" lon="-2.46104">
        <ele>17.2</ele>
        <time>2020-08-03T13:51:52Z</time>
      </trkpt>
      <trkpt lat="47.44963" lon="-2.46101">
        <ele>17.4</ele>
        <time>2020-08-03T13:51:53Z</time>
      </trkpt>
      <trkpt lat="47.44962" lon="-2.46098">
        <ele>17.6</ele>
        <time>2020-08-03T13:51:54Z</time>
      </trkpt>
      <trkpt lat="47.44961" lon="-2.46096">
        <ele>17.8</ele>
        <time>2020-08-03T13:51:55Z</time>
      </trkpt>
      <trkpt lat="47.44961" lon="-2.46093">
        <ele>17.8</ele>
        <time>2020-08-03T13:51:56Z</time>
      </trkpt>
      <trkpt lat="47.4496" lon="-2.46089">
        <ele>17.8</ele>
        <time>2020-08-03T13:51:57Z</time>
      </trkpt>
      <trkpt lat="47.4496" lon="-2.46086">
        <ele>18</ele>
        <time>2020-08-03T13:51:58Z</time>
      </trkpt>
      <trkpt lat="47.4496" lon="-2.46082">
        <ele>18</ele>
        <time>2020-08-03T13:51:59Z</time>
      </trkpt>
      <trkpt lat="47.4496" lon="-2.46079">
        <ele>18</ele>
        <time>2020-08-03T13:52:00Z</time>
      </trkpt>
      <trkpt lat="47.4496" lon="-2.46076">
        <ele>18</ele>
        <time>2020-08-03T13:52:01Z</time>
      </trkpt>
      <trkpt lat="47.4496" lon="-2.46073">
        <ele>18.2</ele>
        <time>2020-08-03T13:52:02Z</time>
      </trkpt>
      <trkpt lat="47.44959" lon="-2.46069">
        <ele>18.2</ele>
        <time>2020-08-03T13:52:03Z</time>
      </trkpt>
      <trkpt lat="47.44959" lon="-2.46066">
        <ele>18.4</ele>
        <time>2020-08-03T13:52:04Z</time>
      </trkpt>
      <trkpt lat="47.44959" lon="-2.46063">
        <ele>18.4</ele>
        <time>2020-08-03T13:52:05Z</time>
      </trkpt>
      <trkpt lat="47.44959" lon="-2.46059">
        <ele>18.4</ele>
        <time>2020-08-03T13:52:06Z</time>
      </trkpt>
      <trkpt lat="47.44959" lon="-2.46056">
        <ele>18.4</ele>
        <time>2020-08-03T13:52:07Z</time>
      </trkpt>
      <trkpt lat="47.44958" lon="-2.46052">
        <ele>18.4</ele>
        <time>2020-08-03T13:52:08Z</time>
      </trkpt>
      <trkpt lat="47.44958" lon="-2.46048">
        <ele>18.2</ele>
        <time>2020-08-03T13:52:09Z</time>
      </trkpt>
      <trkpt lat="47.44958" lon="-2.46045">
        <ele>18.2</ele>
        <time>2020-08-03T13:52:10Z</time>
      </trkpt>
      <trkpt lat="47.44958" lon="-2.46042">
        <ele>18.2</ele>
        <time>2020-08-03T13:52:11Z</time>
      </trkpt>
      <trkpt lat="47.44957" lon="-2.46039">
        <ele>18.4</ele>
        <time>2020-08-03T13:52:12Z</time>
      </trkpt>
      <trkpt lat="47.44957" lon="-2.46037">
        <ele>18.4</ele>
        <time>2020-08-03T13:52:13Z</time>
      </trkpt>
      <trkpt lat="47.44957" lon="-2.46034">
        <ele>18.2</ele>
        <time>2020-08-03T13:52:14Z</time>
      </trkpt>
      <trkpt lat="47.44956" lon="-2.4603">
        <ele>18.2</ele>
        <time>2020-08-03T13:52:15Z</time>
      </trkpt>
      <trkpt lat="47.44956" lon="-2.46027">
        <ele>18</ele>
        <time>2020-08-03T13:52:16Z</time>
      </trkpt>
      <trkpt lat="47.44956" lon="-2.46023">
        <ele>18</ele>
        <time>2020-08-03T13:52:17Z</time>
      </trkpt>
      <trkpt lat="47.44956" lon="-2.4602">
        <ele>18</ele>
        <time>2020-08-03T13:52:18Z</time>
      </trkpt>
      <trkpt lat="47.44956" lon="-2.46016">
        <ele>18</ele>
        <time>2020-08-03T13:52:19Z</time>
      </trkpt>
      <trkpt lat="47.44956" lon="-2.46013">
        <ele>18</ele>
        <time>2020-08-03T13:52:20Z</time>
      </trkpt>
      <trkpt lat="47.44955" lon="-2.46009">
        <ele>18</ele>
        <time>2020-08-03T13:52:21Z</time>
      </trkpt>
      <trkpt lat="47.44955" lon="-2.46006">
        <ele>18</ele>
        <time>2020-08-03T13:52:22Z</time>
      </trkpt>
      <trkpt lat="47.44954" lon="-2.46002">
        <ele>18.2</ele>
        <time>2020-08-03T13:52:23Z</time>
      </trkpt>
      <trkpt lat="47.44954" lon="-2.45998">
        <ele>18</ele>
        <time>2020-08-03T13:52:24Z</time>
      </trkpt>
      <trkpt lat="47.44954" lon="-2.45994">
        <ele>17.8</ele>
        <time>2020-08-03T13:52:25Z</time>
      </trkpt>
      <trkpt lat="47.44953" lon="-2.45989">
        <ele>17.8</ele>
        <time>2020-08-03T13:52:26Z</time>
      </trkpt>
      <trkpt lat="47.44953" lon="-2.45984">
        <ele>17.8</ele>
        <time>2020-08-03T13:52:27Z</time>
      </trkpt>
      <trkpt lat="47.44952" lon="-2.4598">
        <ele>17.4</ele>
        <time>2020-08-03T13:52:28Z</time>
      </trkpt>
      <trkpt lat="47.44951" lon="-2.45974">
        <ele>17.4</ele>
        <time>2020-08-03T13:52:29Z</time>
      </trkpt>
      <trkpt lat="47.44951" lon="-2.45969">
        <ele>17.2</ele>
        <time>2020-08-03T13:52:30Z</time>
      </trkpt>
      <trkpt lat="47.44951" lon="-2.45963">
        <ele>17.2</ele>
        <time>2020-08-03T13:52:31Z</time>
      </trkpt>
      <trkpt lat="47.4495" lon="-2.45956">
        <ele>16.6</ele>
        <time>2020-08-03T13:52:32Z</time>
      </trkpt>
      <trkpt lat="47.44949" lon="-2.45949">
        <ele>16.4</ele>
        <time>2020-08-03T13:52:33Z</time>
      </trkpt>
      <trkpt lat="47.44948" lon="-2.45942">
        <ele>16</ele>
        <time>2020-08-03T13:52:34Z</time>
      </trkpt>
      <trkpt lat="47.44948" lon="-2.45934">
        <ele>15.8</ele>
        <time>2020-08-03T13:52:35Z</time>
      </trkpt>
      <trkpt lat="47.44948" lon="-2.45925">
        <ele>15.6</ele>
        <time>2020-08-03T13:52:36Z</time>
      </trkpt>
      <trkpt lat="47.44948" lon="-2.45916">
        <ele>15.2</ele>
        <time>2020-08-03T13:52:37Z</time>
      </trkpt>
      <trkpt lat="47.44947" lon="-2.45906">
        <ele>14.6</ele>
        <time>2020-08-03T13:52:38Z</time>
      </trkpt>
      <trkpt lat="47.44947" lon="-2.45896">
        <ele>14.2</ele>
        <time>2020-08-03T13:52:39Z</time>
      </trkpt>
      <trkpt lat="47.44948" lon="-2.45886">
        <ele>13.6</ele>
        <time>2020-08-03T13:52:40Z</time>
      </trkpt>
      <trkpt lat="47.44948" lon="-2.45876">
        <ele>13</ele>
        <time>2020-08-03T13:52:41Z</time>
      </trkpt>
      <trkpt lat="47.44949" lon="-2.45867">
        <ele>12.6</ele>
        <time>2020-08-03T13:52:42Z</time>
      </trkpt>
      <trkpt lat="47.44949" lon="-2.45857">
        <ele>12</ele>
        <time>2020-08-03T13:52:43Z</time>
      </trkpt>
      <trkpt lat="47.44949" lon="-2.45849">
        <ele>11.6</ele>
        <time>2020-08-03T13:52:44Z</time>
      </trkpt>
      <trkpt lat="47.44949" lon="-2.45839">
        <ele>10.8</ele>
        <time>2020-08-03T13:52:45Z</time>
      </trkpt>
      <trkpt lat="47.44951" lon="-2.45827">
        <ele>10.4</ele>
        <time>2020-08-03T13:52:46Z</time>
      </trkpt>
      <trkpt lat="47.44952" lon="-2.45817">
        <ele>9.8</ele>
        <time>2020-08-03T13:52:47Z</time>
      </trkpt>
      <trkpt lat="47.44953" lon="-2.45807">
        <ele>9</ele>
        <time>2020-08-03T13:52:48Z</time>
      </trkpt>
      <trkpt lat="47.44954" lon="-2.45799">
        <ele>8.8</ele>
        <time>2020-08-03T13:52:49Z</time>
      </trkpt>
      <trkpt lat="47.44955" lon="-2.45791">
        <ele>8.2</ele>
        <time>2020-08-03T13:52:50Z</time>
      </trkpt>
      <trkpt lat="47.44955" lon="-2.45785">
        <ele>8</ele>
        <time>2020-08-03T13:52:51Z</time>
      </trkpt>
      <trkpt lat="47.44955" lon="-2.4578">
        <ele>7.8</ele>
        <time>2020-08-03T13:52:52Z</time>
      </trkpt>
      <trkpt lat="47.44953" lon="-2.45775">
        <ele>7.6</ele>
        <time>2020-08-03T13:52:53Z</time>
      </trkpt>
      <trkpt lat="47.44951" lon="-2.45771">
        <ele>7.6</ele>
        <time>2020-08-03T13:52:54Z</time>
      </trkpt>
      <trkpt lat="47.44949" lon="-2.45768">
        <ele>7.4</ele>
        <time>2020-08-03T13:52:55Z</time>
      </trkpt>
      <trkpt lat="47.44946" lon="-2.45767">
        <ele>7.6</ele>
        <time>2020-08-03T13:52:56Z</time>
      </trkpt>
      <trkpt lat="47.44943" lon="-2.45767">
        <ele>7.4</ele>
        <time>2020-08-03T13:52:57Z</time>
      </trkpt>
      <trkpt lat="47.44941" lon="-2.45768">
        <ele>7.2</ele>
        <time>2020-08-03T13:52:58Z</time>
      </trkpt>
      <trkpt lat="47.44939" lon="-2.4577">
        <ele>7.2</ele>
        <time>2020-08-03T13:52:59Z</time>
      </trkpt>
      <trkpt lat="47.44937" lon="-2.45772">
        <ele>7.2</ele>
        <time>2020-08-03T13:53:00Z</time>
      </trkpt>
      <trkpt lat="47.44935" lon="-2.45774">
        <ele>7.2</ele>
        <time>2020-08-03T13:53:01Z</time>
      </trkpt>
      <trkpt lat="47.44932" lon="-2.45776">
        <ele>7.2</ele>
        <time>2020-08-03T13:53:02Z</time>
      </trkpt>
      <trkpt lat="47.4493" lon="-2.45778">
        <ele>7.4</ele>
        <time>2020-08-03T13:53:03Z</time>
      </trkpt>
      <trkpt lat="47.44928" lon="-2.45781">
        <ele>7.2</ele>
        <time>2020-08-03T13:53:04Z</time>
      </trkpt>
      <trkpt lat="47.44925" lon="-2.45783">
        <ele>7.2</ele>
        <time>2020-08-03T13:53:05Z</time>
      </trkpt>
      <trkpt lat="47.44923" lon="-2.45785">
        <ele>7.2</ele>
        <time>2020-08-03T13:53:06Z</time>
      </trkpt>
      <trkpt lat="47.4492" lon="-2.45787">
        <ele>7</ele>
        <time>2020-08-03T13:53:07Z</time>
      </trkpt>
      <trkpt lat="47.44918" lon="-2.45788">
        <ele>7.2</ele>
        <time>2020-08-03T13:53:08Z</time>
      </trkpt>
      <trkpt lat="47.44916" lon="-2.4579">
        <ele>7.2</ele>
        <time>2020-08-03T13:53:09Z</time>
      </trkpt>
      <trkpt lat="47.44913" lon="-2.45792">
        <ele>7</ele>
        <time>2020-08-03T13:53:10Z</time>
      </trkpt>
      <trkpt lat="47.44911" lon="-2.45795">
        <ele>7.2</ele>
        <time>2020-08-03T13:53:11Z</time>
      </trkpt>
      <trkpt lat="47.44909" lon="-2.45797">
        <ele>7.4</ele>
        <time>2020-08-03T13:53:12Z</time>
      </trkpt>
      <trkpt lat="47.44907" lon="-2.45799">
        <ele>7.4</ele>
        <time>2020-08-03T13:53:13Z</time>
      </trkpt>
      <trkpt lat="47.44904" lon="-2.45801">
        <ele>7.2</ele>
        <time>2020-08-03T13:53:14Z</time>
      </trkpt>
      <trkpt lat="47.44902" lon="-2.45804">
        <ele>7</ele>
        <time>2020-08-03T13:53:15Z</time>
      </trkpt>
      <trkpt lat="47.449" lon="-2.45806">
        <ele>7</ele>
        <time>2020-08-03T13:53:16Z</time>
      </trkpt>
      <trkpt lat="47.44898" lon="-2.45809">
        <ele>7</ele>
        <time>2020-08-03T13:53:17Z</time>
      </trkpt>
      <trkpt lat="47.44896" lon="-2.45811">
        <ele>7.2</ele>
        <time>2020-08-03T13:53:18Z</time>
      </trkpt>
      <trkpt lat="47.44894" lon="-2.45814">
        <ele>7.2</ele>
        <time>2020-08-03T13:53:19Z</time>
      </trkpt>
      <trkpt lat="47.44892" lon="-2.45816">
        <ele>7.4</ele>
        <time>2020-08-03T13:53:20Z</time>
      </trkpt>
      <trkpt lat="47.44889" lon="-2.45818">
        <ele>7.4</ele>
        <time>2020-08-03T13:53:21Z</time>
      </trkpt>
      <trkpt lat="47.44887" lon="-2.4582">
        <ele>7.2</ele>
        <time>2020-08-03T13:53:22Z</time>
      </trkpt>
      <trkpt lat="47.44884" lon="-2.45822">
        <ele>7</ele>
        <time>2020-08-03T13:53:23Z</time>
      </trkpt>
      <trkpt lat="47.44882" lon="-2.45823">
        <ele>7.2</ele>
        <time>2020-08-03T13:53:24Z</time>
      </trkpt>
      <trkpt lat="47.44879" lon="-2.45825">
        <ele>7.2</ele>
        <time>2020-08-03T13:53:25Z</time>
      </trkpt>
      <trkpt lat="47.44877" lon="-2.45827">
        <ele>7</ele>
        <time>2020-08-03T13:53:26Z</time>
      </trkpt>
      <trkpt lat="47.44874" lon="-2.45828">
        <ele>7</ele>
        <time>2020-08-03T13:53:27Z</time>
      </trkpt>
      <trkpt lat="47.44872" lon="-2.4583">
        <ele>7.2</ele>
        <time>2020-08-03T13:53:28Z</time>
      </trkpt>
      <trkpt lat="47.44869" lon="-2.45832">
        <ele>7</ele>
        <time>2020-08-03T13:53:29Z</time>
      </trkpt>
      <trkpt lat="47.44867" lon="-2.45833">
        <ele>7.2</ele>
        <time>2020-08-03T13:53:30Z</time>
      </trkpt>
      <trkpt lat="47.44865" lon="-2.45835">
        <ele>7.2</ele>
        <time>2020-08-03T13:53:31Z</time>
      </trkpt>
      <trkpt lat="47.44863" lon="-2.45837">
        <ele>7.2</ele>
        <time>2020-08-03T13:53:32Z</time>
      </trkpt>
      <trkpt lat="47.44861" lon="-2.45839">
        <ele>7.2</ele>
        <time>2020-08-03T13:53:33Z</time>
      </trkpt>
      <trkpt lat="47.44858" lon="-2.45841">
        <ele>7.2</ele>
        <time>2020-08-03T13:53:34Z</time>
      </trkpt>
      <trkpt lat="47.44856" lon="-2.45843">
        <ele>7.4</ele>
        <time>2020-08-03T13:53:35Z</time>
      </trkpt>
      <trkpt lat="47.44854" lon="-2.45845">
        <ele>7.4</ele>
        <time>2020-08-03T13:53:36Z</time>
      </trkpt>
      <trkpt lat="47.44852" lon="-2.45847">
        <ele>7.2</ele>
        <time>2020-08-03T13:53:37Z</time>
      </trkpt>
      <trkpt lat="47.44849" lon="-2.45849">
        <ele>7.2</ele>
        <time>2020-08-03T13:53:38Z</time>
      </trkpt>
      <trkpt lat="47.44847" lon="-2.45851">
        <ele>7.2</ele>
        <time>2020-08-03T13:53:39Z</time>
      </trkpt>
      <trkpt lat="47.44845" lon="-2.45854">
        <ele>7.4</ele>
        <time>2020-08-03T13:53:40Z</time>
      </trkpt>
      <trkpt lat="47.44842" lon="-2.45856">
        <ele>7.4</ele>
        <time>2020-08-03T13:53:41Z</time>
      </trkpt>
      <trkpt lat="47.4484" lon="-2.45859">
        <ele>7.4</ele>
        <time>2020-08-03T13:53:42Z</time>
      </trkpt>
      <trkpt lat="47.44837" lon="-2.45862">
        <ele>7.6</ele>
        <time>2020-08-03T13:53:43Z</time>
      </trkpt>
      <trkpt lat="47.44835" lon="-2.45864">
        <ele>7.6</ele>
        <time>2020-08-03T13:53:44Z</time>
      </trkpt>
      <trkpt lat="47.44833" lon="-2.45866">
        <ele>7.4</ele>
        <time>2020-08-03T13:53:45Z</time>
      </trkpt>
      <trkpt lat="47.44831" lon="-2.45868">
        <ele>7.4</ele>
        <time>2020-08-03T13:53:46Z</time>
      </trkpt>
      <trkpt lat="47.44829" lon="-2.4587">
        <ele>7.4</ele>
        <time>2020-08-03T13:53:47Z</time>
      </trkpt>
      <trkpt lat="47.44827" lon="-2.45871">
        <ele>7.4</ele>
        <time>2020-08-03T13:53:48Z</time>
      </trkpt>
      <trkpt lat="47.44826" lon="-2.45872">
        <ele>7.4</ele>
        <time>2020-08-03T13:53:49Z</time>
      </trkpt>
      <trkpt lat="47.44824" lon="-2.45874">
        <ele>7.6</ele>
        <time>2020-08-03T13:53:50Z</time>
      </trkpt>
      <trkpt lat="47.44822" lon="-2.45875">
        <ele>7.6</ele>
        <time>2020-08-03T13:53:51Z</time>
      </trkpt>
      <trkpt lat="47.44821" lon="-2.45875">
        <ele>7.8</ele>
        <time>2020-08-03T13:53:52Z</time>
      </trkpt>
      <trkpt lat="47.44819" lon="-2.45874">
        <ele>7.8</ele>
        <time>2020-08-03T13:53:53Z</time>
      </trkpt>
      <trkpt lat="47.44818" lon="-2.45873">
        <ele>8</ele>
        <time>2020-08-03T13:53:54Z</time>
      </trkpt>
      <trkpt lat="47.44817" lon="-2.45872">
        <ele>8</ele>
        <time>2020-08-03T13:53:55Z</time>
      </trkpt>
      <trkpt lat="47.44817" lon="-2.4587">
        <ele>8</ele>
        <time>2020-08-03T13:53:56Z</time>
      </trkpt>
      <trkpt lat="47.44816" lon="-2.45869">
        <ele>8</ele>
        <time>2020-08-03T13:53:57Z</time>
      </trkpt>
      <trkpt lat="47.44816" lon="-2.45868">
        <ele>7.8</ele>
        <time>2020-08-03T13:53:58Z</time>
      </trkpt>
      <trkpt lat="47.44816" lon="-2.45866">
        <ele>8</ele>
        <time>2020-08-03T13:53:59Z</time>
      </trkpt>
      <trkpt lat="47.44817" lon="-2.45865">
        <ele>8.2</ele>
        <time>2020-08-03T13:54:00Z</time>
      </trkpt>
      <trkpt lat="47.44819" lon="-2.45865">
        <ele>8.2</ele>
        <time>2020-08-03T13:54:01Z</time>
      </trkpt>
      <trkpt lat="47.4482" lon="-2.45863">
        <ele>8.2</ele>
        <time>2020-08-03T13:54:02Z</time>
      </trkpt>
      <trkpt lat="47.44821" lon="-2.45862">
        <ele>8</ele>
        <time>2020-08-03T13:54:03Z</time>
      </trkpt>
      <trkpt lat="47.44822" lon="-2.4586">
        <ele>8</ele>
        <time>2020-08-03T13:54:04Z</time>
      </trkpt>
      <trkpt lat="47.44823" lon="-2.45859">
        <ele>8</ele>
        <time>2020-08-03T13:54:05Z</time>
      </trkpt>
      <trkpt lat="47.44823" lon="-2.45858">
        <ele>8</ele>
        <time>2020-08-03T13:54:06Z</time>
      </trkpt>
      <trkpt lat="47.44823" lon="-2.45858">
        <ele>8</ele>
        <time>2020-08-03T13:54:07Z</time>
      </trkpt>
      <trkpt lat="47.44823" lon="-2.45858">
        <ele>8</ele>
        <time>2020-08-03T13:54:08Z</time>
      </trkpt>
      <trkpt lat="47.44823" lon="-2.45858">
        <ele>8</ele>
        <time>2020-08-03T13:54:09Z</time>
      </trkpt>
      <trkpt lat="47.44823" lon="-2.45858">
        <ele>8</ele>
        <time>2020-08-03T13:54:10Z</time>
      </trkpt>
      <trkpt lat="47.44823" lon="-2.45857">
        <ele>8</ele>
        <time>2020-08-03T13:54:11Z</time>
      </trkpt>
      <trkpt lat="47.44823" lon="-2.45857">
        <ele>8</ele>
        <time>2020-08-03T13:54:12Z</time>
      </trkpt>
      <trkpt lat="47.44823" lon="-2.45857">
        <ele>8</ele>
        <time>2020-08-03T13:54:13Z</time>
      </trkpt>
      <trkpt lat="47.44832" lon="-2.45851">
        <ele>8.2</ele>
        <time>2020-08-03T13:54:40Z</time>
      </trkpt>
      <trkpt lat="47.44833" lon="-2.4585">
        <ele>8.2</ele>
        <time>2020-08-03T13:54:41Z</time>
      </trkpt>
      <trkpt lat="47.44833" lon="-2.45849">
        <ele>8.2</ele>
        <time>2020-08-03T13:54:42Z</time>
      </trkpt>
      <trkpt lat="47.44833" lon="-2.45849">
        <ele>8.4</ele>
        <time>2020-08-03T13:54:43Z</time>
      </trkpt>
      <trkpt lat="47.44834" lon="-2.45848">
        <ele>8.2</ele>
        <time>2020-08-03T13:54:44Z</time>
      </trkpt>
      <trkpt lat="47.44834" lon="-2.45847">
        <ele>8</ele>
        <time>2020-08-03T13:54:45Z</time>
      </trkpt>
      <trkpt lat="47.44834" lon="-2.45846">
        <ele>7.6</ele>
        <time>2020-08-03T13:54:46Z</time>
      </trkpt>
      <trkpt lat="47.44835" lon="-2.45845">
        <ele>7.6</ele>
        <time>2020-08-03T13:54:47Z</time>
      </trkpt>
      <trkpt lat="47.44835" lon="-2.45843">
        <ele>7.6</ele>
        <time>2020-08-03T13:54:48Z</time>
      </trkpt>
      <trkpt lat="47.44835" lon="-2.45842">
        <ele>7.8</ele>
        <time>2020-08-03T13:54:49Z</time>
      </trkpt>
      <trkpt lat="47.44835" lon="-2.45841">
        <ele>8</ele>
        <time>2020-08-03T13:54:50Z</time>
      </trkpt>
      <trkpt lat="47.44835" lon="-2.45841">
        <ele>8</ele>
        <time>2020-08-03T13:54:51Z</time>
      </trkpt>
      <trkpt lat="47.44835" lon="-2.4584">
        <ele>8</ele>
        <time>2020-08-03T13:54:52Z</time>
      </trkpt>
      <trkpt lat="47.44835" lon="-2.45839">
        <ele>7.8</ele>
        <time>2020-08-03T13:54:53Z</time>
      </trkpt>
      <trkpt lat="47.44835" lon="-2.45839">
        <ele>8</ele>
        <time>2020-08-03T13:54:54Z</time>
      </trkpt>
      <trkpt lat="47.44835" lon="-2.45839">
        <ele>8.6</ele>
        <time>2020-08-03T13:54:55Z</time>
      </trkpt>
      <trkpt lat="47.4482" lon="-2.45829">
        <ele>7.6</ele>
        <time>2020-08-03T13:55:31Z</time>
      </trkpt>
      <trkpt lat="47.4482" lon="-2.45829">
        <ele>7.6</ele>
        <time>2020-08-03T13:55:32Z</time>
      </trkpt>
      <trkpt lat="47.4482" lon="-2.45829">
        <ele>7.4</ele>
        <time>2020-08-03T13:55:33Z</time>
      </trkpt>
      <trkpt lat="47.44819" lon="-2.45829">
        <ele>7.4</ele>
        <time>2020-08-03T13:55:34Z</time>
      </trkpt>
      <trkpt lat="47.44818" lon="-2.45829">
        <ele>7.2</ele>
        <time>2020-08-03T13:55:35Z</time>
      </trkpt>
      <trkpt lat="47.44818" lon="-2.45828">
        <ele>7.2</ele>
        <time>2020-08-03T13:55:36Z</time>
      </trkpt>
      <trkpt lat="47.44814" lon="-2.45819">
        <ele>6.8</ele>
        <time>2020-08-03T13:55:45Z</time>
      </trkpt>
      <trkpt lat="47.44814" lon="-2.45818">
        <ele>6.8</ele>
        <time>2020-08-03T13:55:46Z</time>
      </trkpt>
      <trkpt lat="47.44814" lon="-2.45819">
        <ele>6.6</ele>
        <time>2020-08-03T13:55:47Z</time>
      </trkpt>
      <trkpt lat="47.44814" lon="-2.45819">
        <ele>6.6</ele>
        <time>2020-08-03T13:55:48Z</time>
      </trkpt>
      <trkpt lat="47.44814" lon="-2.45819">
        <ele>6.6</ele>
        <time>2020-08-03T13:55:49Z</time>
      </trkpt>
      <trkpt lat="47.44814" lon="-2.45819">
        <ele>6.6</ele>
        <time>2020-08-03T13:55:50Z</time>
      </trkpt>
      <trkpt lat="47.44814" lon="-2.45819">
        <ele>6.8</ele>
        <time>2020-08-03T13:55:51Z</time>
      </trkpt>
      <trkpt lat="47.44812" lon="-2.45805">
        <ele>6.8</ele>
        <time>2020-08-03T13:56:03Z</time>
      </trkpt>
      <trkpt lat="47.44812" lon="-2.45804">
        <ele>6.8</ele>
        <time>2020-08-03T13:56:04Z</time>
      </trkpt>
      <trkpt lat="47.44812" lon="-2.45803">
        <ele>6.8</ele>
        <time>2020-08-03T13:56:05Z</time>
      </trkpt>
      <trkpt lat="47.44812" lon="-2.45803">
        <ele>6.6</ele>
        <time>2020-08-03T13:56:06Z</time>
      </trkpt>
      <trkpt lat="47.44811" lon="-2.45802">
        <ele>6.4</ele>
        <time>2020-08-03T13:56:07Z</time>
      </trkpt>
      <trkpt lat="47.44811" lon="-2.45801">
        <ele>6.4</ele>
        <time>2020-08-03T13:56:08Z</time>
      </trkpt>
      <trkpt lat="47.44811" lon="-2.458">
        <ele>6.2</ele>
        <time>2020-08-03T13:56:09Z</time>
      </trkpt>
      <trkpt lat="47.44811" lon="-2.45799">
        <ele>6.2</ele>
        <time>2020-08-03T13:56:10Z</time>
      </trkpt>
      <trkpt lat="47.4481" lon="-2.45798">
        <ele>6.4</ele>
        <time>2020-08-03T13:56:11Z</time>
      </trkpt>
      <trkpt lat="47.4481" lon="-2.45797">
        <ele>6.4</ele>
        <time>2020-08-03T13:56:12Z</time>
      </trkpt>
      <trkpt lat="47.44809" lon="-2.45791">
        <ele>6.4</ele>
        <time>2020-08-03T13:56:17Z</time>
      </trkpt>
      <trkpt lat="47.44809" lon="-2.4579">
        <ele>6.4</ele>
        <time>2020-08-03T13:56:18Z</time>
      </trkpt>
      <trkpt lat="47.44809" lon="-2.45789">
        <ele>6.4</ele>
        <time>2020-08-03T13:56:19Z</time>
      </trkpt>
      <trkpt lat="47.44809" lon="-2.45788">
        <ele>6.4</ele>
        <time>2020-08-03T13:56:20Z</time>
      </trkpt>
      <trkpt lat="47.44808" lon="-2.45787">
        <ele>6.4</ele>
        <time>2020-08-03T13:56:21Z</time>
      </trkpt>
      <trkpt lat="47.44808" lon="-2.45785">
        <ele>6.4</ele>
        <time>2020-08-03T13:56:22Z</time>
      </trkpt>
      <trkpt lat="47.44808" lon="-2.45784">
        <ele>6.4</ele>
        <time>2020-08-03T13:56:23Z</time>
      </trkpt>
      <trkpt lat="47.44808" lon="-2.45783">
        <ele>6.4</ele>
        <time>2020-08-03T13:56:24Z</time>
      </trkpt>
      <trkpt lat="47.44808" lon="-2.45781">
        <ele>6.6</ele>
        <time>2020-08-03T13:56:25Z</time>
      </trkpt>
      <trkpt lat="47.44807" lon="-2.4578">
        <ele>6.8</ele>
        <time>2020-08-03T13:56:26Z</time>
      </trkpt>
      <trkpt lat="47.44807" lon="-2.45779">
        <ele>6.8</ele>
        <time>2020-08-03T13:56:27Z</time>
      </trkpt>
      <trkpt lat="47.44807" lon="-2.45778">
        <ele>6.8</ele>
        <time>2020-08-03T13:56:28Z</time>
      </trkpt>
      <trkpt lat="47.44806" lon="-2.45776">
        <ele>6.8</ele>
        <time>2020-08-03T13:56:29Z</time>
      </trkpt>
      <trkpt lat="47.44806" lon="-2.45775">
        <ele>6.6</ele>
        <time>2020-08-03T13:56:30Z</time>
      </trkpt>
      <trkpt lat="47.44805" lon="-2.45774">
        <ele>6.6</ele>
        <time>2020-08-03T13:56:31Z</time>
      </trkpt>
      <trkpt lat="47.44805" lon="-2.45773">
        <ele>6.6</ele>
        <time>2020-08-03T13:56:32Z</time>
      </trkpt>
      <trkpt lat="47.44805" lon="-2.45773">
        <ele>6.6</ele>
        <time>2020-08-03T13:56:33Z</time>
      </trkpt>
      <trkpt lat="47.44805" lon="-2.45772">
        <ele>6.6</ele>
        <time>2020-08-03T13:56:34Z</time>
      </trkpt>
      <trkpt lat="47.44805" lon="-2.45772">
        <ele>6.6</ele>
        <time>2020-08-03T13:56:35Z</time>
      </trkpt>
      <trkpt lat="47.44805" lon="-2.45772">
        <ele>6.4</ele>
        <time>2020-08-03T13:56:36Z</time>
      </trkpt>
      <trkpt lat="47.44804" lon="-2.45772">
        <ele>6.6</ele>
        <time>2020-08-03T13:56:37Z</time>
      </trkpt>
      <trkpt lat="47.44804" lon="-2.45772">
        <ele>6.6</ele>
        <time>2020-08-03T13:56:38Z</time>
      </trkpt>
      <trkpt lat="47.44804" lon="-2.45772">
        <ele>6.6</ele>
        <time>2020-08-03T13:56:39Z</time>
      </trkpt>
      <trkpt lat="47.44801" lon="-2.45761">
        <ele>6.2</ele>
        <time>2020-08-03T13:56:48Z</time>
      </trkpt>
      <trkpt lat="47.44801" lon="-2.4576">
        <ele>6.4</ele>
        <time>2020-08-03T13:56:49Z</time>
      </trkpt>
      <trkpt lat="47.44801" lon="-2.45759">
        <ele>6.2</ele>
        <time>2020-08-03T13:56:50Z</time>
      </trkpt>
      <trkpt lat="47.44801" lon="-2.45758">
        <ele>6.8</ele>
        <time>2020-08-03T13:56:51Z</time>
      </trkpt>
      <trkpt lat="47.448" lon="-2.45757">
        <ele>7</ele>
        <time>2020-08-03T13:56:52Z</time>
      </trkpt>
      <trkpt lat="47.44799" lon="-2.45755">
        <ele>6.6</ele>
        <time>2020-08-03T13:56:53Z</time>
      </trkpt>
      <trkpt lat="47.44798" lon="-2.45753">
        <ele>6.4</ele>
        <time>2020-08-03T13:56:54Z</time>
      </trkpt>
      <trkpt lat="47.44797" lon="-2.45751">
        <ele>6.6</ele>
        <time>2020-08-03T13:56:55Z</time>
      </trkpt>
      <trkpt lat="47.44796" lon="-2.45748">
        <ele>6.6</ele>
        <time>2020-08-03T13:56:56Z</time>
      </trkpt>
      <trkpt lat="47.44795" lon="-2.45746">
        <ele>6.6</ele>
        <time>2020-08-03T13:56:57Z</time>
      </trkpt>
      <trkpt lat="47.44794" lon="-2.45743">
        <ele>6.4</ele>
        <time>2020-08-03T13:56:58Z</time>
      </trkpt>
      <trkpt lat="47.44792" lon="-2.45739">
        <ele>6.4</ele>
        <time>2020-08-03T13:56:59Z</time>
      </trkpt>
      <trkpt lat="47.44791" lon="-2.45736">
        <ele>6.4</ele>
        <time>2020-08-03T13:57:00Z</time>
      </trkpt>
      <trkpt lat="47.4479" lon="-2.45733">
        <ele>6.4</ele>
        <time>2020-08-03T13:57:01Z</time>
      </trkpt>
      <trkpt lat="47.44788" lon="-2.4573">
        <ele>6.4</ele>
        <time>2020-08-03T13:57:02Z</time>
      </trkpt>
      <trkpt lat="47.44787" lon="-2.45726">
        <ele>6.2</ele>
        <time>2020-08-03T13:57:03Z</time>
      </trkpt>
      <trkpt lat="47.44786" lon="-2.45723">
        <ele>6.4</ele>
        <time>2020-08-03T13:57:04Z</time>
      </trkpt>
      <trkpt lat="47.44785" lon="-2.4572">
        <ele>6.4</ele>
        <time>2020-08-03T13:57:05Z</time>
      </trkpt>
      <trkpt lat="47.44784" lon="-2.45718">
        <ele>6.4</ele>
        <time>2020-08-03T13:57:06Z</time>
      </trkpt>
      <trkpt lat="47.44783" lon="-2.45715">
        <ele>6.4</ele>
        <time>2020-08-03T13:57:07Z</time>
      </trkpt>
      <trkpt lat="47.44781" lon="-2.45712">
        <ele>6.4</ele>
        <time>2020-08-03T13:57:08Z</time>
      </trkpt>
      <trkpt lat="47.4478" lon="-2.45709">
        <ele>6.4</ele>
        <time>2020-08-03T13:57:09Z</time>
      </trkpt>
      <trkpt lat="47.44778" lon="-2.45706">
        <ele>6.4</ele>
        <time>2020-08-03T13:57:10Z</time>
      </trkpt>
      <trkpt lat="47.44777" lon="-2.45703">
        <ele>6.4</ele>
        <time>2020-08-03T13:57:11Z</time>
      </trkpt>
      <trkpt lat="47.44775" lon="-2.457">
        <ele>6.6</ele>
        <time>2020-08-03T13:57:12Z</time>
      </trkpt>
      <trkpt lat="47.44774" lon="-2.45697">
        <ele>6.6</ele>
        <time>2020-08-03T13:57:13Z</time>
      </trkpt>
      <trkpt lat="47.44772" lon="-2.45695">
        <ele>6.6</ele>
        <time>2020-08-03T13:57:14Z</time>
      </trkpt>
      <trkpt lat="47.44771" lon="-2.45691">
        <ele>6.4</ele>
        <time>2020-08-03T13:57:15Z</time>
      </trkpt>
      <trkpt lat="47.4477" lon="-2.45688">
        <ele>6.4</ele>
        <time>2020-08-03T13:57:16Z</time>
      </trkpt>
      <trkpt lat="47.44768" lon="-2.45685">
        <ele>6.4</ele>
        <time>2020-08-03T13:57:17Z</time>
      </trkpt>
      <trkpt lat="47.44766" lon="-2.45682">
        <ele>6.4</ele>
        <time>2020-08-03T13:57:18Z</time>
      </trkpt>
      <trkpt lat="47.44765" lon="-2.45679">
        <ele>6.4</ele>
        <time>2020-08-03T13:57:19Z</time>
      </trkpt>
      <trkpt lat="47.44763" lon="-2.45676">
        <ele>6.2</ele>
        <time>2020-08-03T13:57:20Z</time>
      </trkpt>
      <trkpt lat="47.44762" lon="-2.45673">
        <ele>6.2</ele>
        <time>2020-08-03T13:57:21Z</time>
      </trkpt>
      <trkpt lat="47.4476" lon="-2.4567">
        <ele>6.2</ele>
        <time>2020-08-03T13:57:22Z</time>
      </trkpt>
      <trkpt lat="47.44759" lon="-2.45667">
        <ele>6.2</ele>
        <time>2020-08-03T13:57:23Z</time>
      </trkpt>
      <trkpt lat="47.44757" lon="-2.45663">
        <ele>6.4</ele>
        <time>2020-08-03T13:57:24Z</time>
      </trkpt>
      <trkpt lat="47.44755" lon="-2.4566">
        <ele>6.4</ele>
        <time>2020-08-03T13:57:25Z</time>
      </trkpt>
      <trkpt lat="47.44754" lon="-2.45657">
        <ele>6.4</ele>
        <time>2020-08-03T13:57:26Z</time>
      </trkpt>
      <trkpt lat="47.44752" lon="-2.45654">
        <ele>6.4</ele>
        <time>2020-08-03T13:57:27Z</time>
      </trkpt>
      <trkpt lat="47.4475" lon="-2.45651">
        <ele>6.4</ele>
        <time>2020-08-03T13:57:28Z</time>
      </trkpt>
      <trkpt lat="47.44749" lon="-2.45647">
        <ele>6.4</ele>
        <time>2020-08-03T13:57:29Z</time>
      </trkpt>
      <trkpt lat="47.44747" lon="-2.45644">
        <ele>6.4</ele>
        <time>2020-08-03T13:57:30Z</time>
      </trkpt>
      <trkpt lat="47.44746" lon="-2.45641">
        <ele>6.6</ele>
        <time>2020-08-03T13:57:31Z</time>
      </trkpt>
      <trkpt lat="47.44744" lon="-2.45639">
        <ele>6.6</ele>
        <time>2020-08-03T13:57:32Z</time>
      </trkpt>
      <trkpt lat="47.44743" lon="-2.45636">
        <ele>6.4</ele>
        <time>2020-08-03T13:57:33Z</time>
      </trkpt>
      <trkpt lat="47.44741" lon="-2.45633">
        <ele>6.4</ele>
        <time>2020-08-03T13:57:34Z</time>
      </trkpt>
      <trkpt lat="47.44739" lon="-2.4563">
        <ele>6.6</ele>
        <time>2020-08-03T13:57:35Z</time>
      </trkpt>
      <trkpt lat="47.44737" lon="-2.45628">
        <ele>6.6</ele>
        <time>2020-08-03T13:57:36Z</time>
      </trkpt>
      <trkpt lat="47.44736" lon="-2.45625">
        <ele>6.6</ele>
        <time>2020-08-03T13:57:37Z</time>
      </trkpt>
      <trkpt lat="47.44734" lon="-2.45623">
        <ele>6.4</ele>
        <time>2020-08-03T13:57:38Z</time>
      </trkpt>
      <trkpt lat="47.44732" lon="-2.45621">
        <ele>6.4</ele>
        <time>2020-08-03T13:57:39Z</time>
      </trkpt>
      <trkpt lat="47.44731" lon="-2.45618">
        <ele>6.4</ele>
        <time>2020-08-03T13:57:40Z</time>
      </trkpt>
      <trkpt lat="47.44729" lon="-2.45615">
        <ele>6.4</ele>
        <time>2020-08-03T13:57:41Z</time>
      </trkpt>
      <trkpt lat="47.44727" lon="-2.45613">
        <ele>6.4</ele>
        <time>2020-08-03T13:57:42Z</time>
      </trkpt>
      <trkpt lat="47.44726" lon="-2.4561">
        <ele>6.4</ele>
        <time>2020-08-03T13:57:43Z</time>
      </trkpt>
      <trkpt lat="47.44724" lon="-2.45607">
        <ele>6.4</ele>
        <time>2020-08-03T13:57:44Z</time>
      </trkpt>
      <trkpt lat="47.44722" lon="-2.45605">
        <ele>6.4</ele>
        <time>2020-08-03T13:57:45Z</time>
      </trkpt>
      <trkpt lat="47.4472" lon="-2.45603">
        <ele>6.6</ele>
        <time>2020-08-03T13:57:46Z</time>
      </trkpt>
      <trkpt lat="47.44719" lon="-2.45601">
        <ele>6.6</ele>
        <time>2020-08-03T13:57:47Z</time>
      </trkpt>
      <trkpt lat="47.44717" lon="-2.45599">
        <ele>6.6</ele>
        <time>2020-08-03T13:57:48Z</time>
      </trkpt>
      <trkpt lat="47.44715" lon="-2.45597">
        <ele>6.6</ele>
        <time>2020-08-03T13:57:49Z</time>
      </trkpt>
      <trkpt lat="47.44714" lon="-2.45594">
        <ele>6.4</ele>
        <time>2020-08-03T13:57:50Z</time>
      </trkpt>
      <trkpt lat="47.44712" lon="-2.45592">
        <ele>6.6</ele>
        <time>2020-08-03T13:57:51Z</time>
      </trkpt>
      <trkpt lat="47.4471" lon="-2.45589">
        <ele>6.4</ele>
        <time>2020-08-03T13:57:52Z</time>
      </trkpt>
      <trkpt lat="47.44708" lon="-2.45587">
        <ele>6.4</ele>
        <time>2020-08-03T13:57:53Z</time>
      </trkpt>
      <trkpt lat="47.44707" lon="-2.45585">
        <ele>6.4</ele>
        <time>2020-08-03T13:57:54Z</time>
      </trkpt>
      <trkpt lat="47.44705" lon="-2.45583">
        <ele>6.4</ele>
        <time>2020-08-03T13:57:55Z</time>
      </trkpt>
      <trkpt lat="47.44703" lon="-2.4558">
        <ele>6.4</ele>
        <time>2020-08-03T13:57:56Z</time>
      </trkpt>
      <trkpt lat="47.44701" lon="-2.45578">
        <ele>6.4</ele>
        <time>2020-08-03T13:57:57Z</time>
      </trkpt>
      <trkpt lat="47.44699" lon="-2.45575">
        <ele>6.4</ele>
        <time>2020-08-03T13:57:58Z</time>
      </trkpt>
      <trkpt lat="47.44697" lon="-2.45572">
        <ele>6.4</ele>
        <time>2020-08-03T13:57:59Z</time>
      </trkpt>
      <trkpt lat="47.44695" lon="-2.4557">
        <ele>6.6</ele>
        <time>2020-08-03T13:58:00Z</time>
      </trkpt>
      <trkpt lat="47.44693" lon="-2.45567">
        <ele>6.6</ele>
        <time>2020-08-03T13:58:01Z</time>
      </trkpt>
      <trkpt lat="47.44691" lon="-2.45565">
        <ele>6.6</ele>
        <time>2020-08-03T13:58:02Z</time>
      </trkpt>
      <trkpt lat="47.44689" lon="-2.45563">
        <ele>6.8</ele>
        <time>2020-08-03T13:58:03Z</time>
      </trkpt>
      <trkpt lat="47.44688" lon="-2.4556">
        <ele>6.6</ele>
        <time>2020-08-03T13:58:04Z</time>
      </trkpt>
      <trkpt lat="47.44686" lon="-2.45558">
        <ele>6.6</ele>
        <time>2020-08-03T13:58:05Z</time>
      </trkpt>
      <trkpt lat="47.44684" lon="-2.45556">
        <ele>6.8</ele>
        <time>2020-08-03T13:58:06Z</time>
      </trkpt>
      <trkpt lat="47.44683" lon="-2.45553">
        <ele>6.8</ele>
        <time>2020-08-03T13:58:07Z</time>
      </trkpt>
      <trkpt lat="47.44681" lon="-2.45551">
        <ele>6.8</ele>
        <time>2020-08-03T13:58:08Z</time>
      </trkpt>
      <trkpt lat="47.4468" lon="-2.45548">
        <ele>6.8</ele>
        <time>2020-08-03T13:58:09Z</time>
      </trkpt>
      <trkpt lat="47.44678" lon="-2.45546">
        <ele>6.6</ele>
        <time>2020-08-03T13:58:10Z</time>
      </trkpt>
      <trkpt lat="47.44676" lon="-2.45544">
        <ele>6.8</ele>
        <time>2020-08-03T13:58:11Z</time>
      </trkpt>
      <trkpt lat="47.44675" lon="-2.45541">
        <ele>6.8</ele>
        <time>2020-08-03T13:58:12Z</time>
      </trkpt>
      <trkpt lat="47.44674" lon="-2.45538">
        <ele>6.8</ele>
        <time>2020-08-03T13:58:13Z</time>
      </trkpt>
      <trkpt lat="47.44672" lon="-2.45536">
        <ele>6.8</ele>
        <time>2020-08-03T13:58:14Z</time>
      </trkpt>
      <trkpt lat="47.44671" lon="-2.45533">
        <ele>7</ele>
        <time>2020-08-03T13:58:15Z</time>
      </trkpt>
      <trkpt lat="47.44669" lon="-2.45531">
        <ele>7</ele>
        <time>2020-08-03T13:58:16Z</time>
      </trkpt>
      <trkpt lat="47.44668" lon="-2.45528">
        <ele>7</ele>
        <time>2020-08-03T13:58:17Z</time>
      </trkpt>
      <trkpt lat="47.44666" lon="-2.45525">
        <ele>7</ele>
        <time>2020-08-03T13:58:18Z</time>
      </trkpt>
      <trkpt lat="47.44664" lon="-2.45523">
        <ele>6.8</ele>
        <time>2020-08-03T13:58:19Z</time>
      </trkpt>
      <trkpt lat="47.44662" lon="-2.4552">
        <ele>7</ele>
        <time>2020-08-03T13:58:20Z</time>
      </trkpt>
      <trkpt lat="47.4466" lon="-2.45517">
        <ele>7</ele>
        <time>2020-08-03T13:58:21Z</time>
      </trkpt>
      <trkpt lat="47.44659" lon="-2.45515">
        <ele>7</ele>
        <time>2020-08-03T13:58:22Z</time>
      </trkpt>
      <trkpt lat="47.44657" lon="-2.45512">
        <ele>7</ele>
        <time>2020-08-03T13:58:23Z</time>
      </trkpt>
      <trkpt lat="47.44655" lon="-2.4551">
        <ele>7</ele>
        <time>2020-08-03T13:58:24Z</time>
      </trkpt>
      <trkpt lat="47.44654" lon="-2.45507">
        <ele>7</ele>
        <time>2020-08-03T13:58:25Z</time>
      </trkpt>
      <trkpt lat="47.44652" lon="-2.45505">
        <ele>7</ele>
        <time>2020-08-03T13:58:26Z</time>
      </trkpt>
      <trkpt lat="47.4465" lon="-2.45504">
        <ele>7.2</ele>
        <time>2020-08-03T13:58:27Z</time>
      </trkpt>
      <trkpt lat="47.44649" lon="-2.45502">
        <ele>7.2</ele>
        <time>2020-08-03T13:58:28Z</time>
      </trkpt>
      <trkpt lat="47.44647" lon="-2.455">
        <ele>7.2</ele>
        <time>2020-08-03T13:58:29Z</time>
      </trkpt>
      <trkpt lat="47.44645" lon="-2.45498">
        <ele>7</ele>
        <time>2020-08-03T13:58:30Z</time>
      </trkpt>
      <trkpt lat="47.44644" lon="-2.45496">
        <ele>6.8</ele>
        <time>2020-08-03T13:58:31Z</time>
      </trkpt>
      <trkpt lat="47.44642" lon="-2.45494">
        <ele>6.8</ele>
        <time>2020-08-03T13:58:32Z</time>
      </trkpt>
      <trkpt lat="47.44641" lon="-2.45491">
        <ele>6.8</ele>
        <time>2020-08-03T13:58:33Z</time>
      </trkpt>
      <trkpt lat="47.44639" lon="-2.45489">
        <ele>6.8</ele>
        <time>2020-08-03T13:58:34Z</time>
      </trkpt>
      <trkpt lat="47.44638" lon="-2.45486">
        <ele>6.8</ele>
        <time>2020-08-03T13:58:35Z</time>
      </trkpt>
      <trkpt lat="47.44637" lon="-2.45483">
        <ele>6.8</ele>
        <time>2020-08-03T13:58:36Z</time>
      </trkpt>
      <trkpt lat="47.44635" lon="-2.45481">
        <ele>6.8</ele>
        <time>2020-08-03T13:58:37Z</time>
      </trkpt>
      <trkpt lat="47.44634" lon="-2.45478">
        <ele>6.8</ele>
        <time>2020-08-03T13:58:38Z</time>
      </trkpt>
      <trkpt lat="47.44632" lon="-2.45476">
        <ele>7</ele>
        <time>2020-08-03T13:58:39Z</time>
      </trkpt>
      <trkpt lat="47.4463" lon="-2.45474">
        <ele>7</ele>
        <time>2020-08-03T13:58:40Z</time>
      </trkpt>
      <trkpt lat="47.44628" lon="-2.45472">
        <ele>7</ele>
        <time>2020-08-03T13:58:41Z</time>
      </trkpt>
      <trkpt lat="47.44626" lon="-2.4547">
        <ele>7</ele>
        <time>2020-08-03T13:58:42Z</time>
      </trkpt>
      <trkpt lat="47.44624" lon="-2.45467">
        <ele>7</ele>
        <time>2020-08-03T13:58:43Z</time>
      </trkpt>
      <trkpt lat="47.44623" lon="-2.45465">
        <ele>6.8</ele>
        <time>2020-08-03T13:58:44Z</time>
      </trkpt>
      <trkpt lat="47.44621" lon="-2.45463">
        <ele>6.8</ele>
        <time>2020-08-03T13:58:45Z</time>
      </trkpt>
      <trkpt lat="47.44619" lon="-2.4546">
        <ele>6.8</ele>
        <time>2020-08-03T13:58:46Z</time>
      </trkpt>
      <trkpt lat="47.44618" lon="-2.45458">
        <ele>6.8</ele>
        <time>2020-08-03T13:58:47Z</time>
      </trkpt>
      <trkpt lat="47.44617" lon="-2.45456">
        <ele>6.8</ele>
        <time>2020-08-03T13:58:48Z</time>
      </trkpt>
      <trkpt lat="47.44615" lon="-2.45453">
        <ele>6.8</ele>
        <time>2020-08-03T13:58:49Z</time>
      </trkpt>
      <trkpt lat="47.44614" lon="-2.45451">
        <ele>6.8</ele>
        <time>2020-08-03T13:58:50Z</time>
      </trkpt>
      <trkpt lat="47.44614" lon="-2.4545">
        <ele>6.6</ele>
        <time>2020-08-03T13:58:51Z</time>
      </trkpt>
      <trkpt lat="47.44613" lon="-2.45449">
        <ele>6.8</ele>
        <time>2020-08-03T13:58:52Z</time>
      </trkpt>
      <trkpt lat="47.44613" lon="-2.45448">
        <ele>7</ele>
        <time>2020-08-03T13:58:53Z</time>
      </trkpt>
      <trkpt lat="47.44613" lon="-2.45448">
        <ele>7.4</ele>
        <time>2020-08-03T13:58:54Z</time>
      </trkpt>
      <trkpt lat="47.44613" lon="-2.45448">
        <ele>7.6</ele>
        <time>2020-08-03T13:58:55Z</time>
      </trkpt>
      <trkpt lat="47.44613" lon="-2.45448">
        <ele>7.6</ele>
        <time>2020-08-03T13:58:56Z</time>
      </trkpt>
      <trkpt lat="47.44613" lon="-2.45448">
        <ele>7.8</ele>
        <time>2020-08-03T13:58:57Z</time>
      </trkpt>
      <trkpt lat="47.44613" lon="-2.45448">
        <ele>7.8</ele>
        <time>2020-08-03T13:58:58Z</time>
      </trkpt>
      <trkpt lat="47.44613" lon="-2.45448">
        <ele>7.8</ele>
        <time>2020-08-03T13:58:59Z</time>
      </trkpt>
      <trkpt lat="47.44611" lon="-2.45438">
        <ele>7.8</ele>
        <time>2020-08-03T14:01:04Z</time>
      </trkpt>
      <trkpt lat="47.4461" lon="-2.45439">
        <ele>7.8</ele>
        <time>2020-08-03T14:01:05Z</time>
      </trkpt>
      <trkpt lat="47.44609" lon="-2.45439">
        <ele>8</ele>
        <time>2020-08-03T14:01:06Z</time>
      </trkpt>
      <trkpt lat="47.44608" lon="-2.4544">
        <ele>8.2</ele>
        <time>2020-08-03T14:01:07Z</time>
      </trkpt>
      <trkpt lat="47.44607" lon="-2.4544">
        <ele>8</ele>
        <time>2020-08-03T14:01:08Z</time>
      </trkpt>
      <trkpt lat="47.44606" lon="-2.45439">
        <ele>7.8</ele>
        <time>2020-08-03T14:01:09Z</time>
      </trkpt>
      <trkpt lat="47.44605" lon="-2.45439">
        <ele>8</ele>
        <time>2020-08-03T14:01:10Z</time>
      </trkpt>
      <trkpt lat="47.44604" lon="-2.45439">
        <ele>7.8</ele>
        <time>2020-08-03T14:01:11Z</time>
      </trkpt>
      <trkpt lat="47.44603" lon="-2.45438">
        <ele>7.6</ele>
        <time>2020-08-03T14:01:12Z</time>
      </trkpt>
      <trkpt lat="47.44602" lon="-2.45437">
        <ele>7.4</ele>
        <time>2020-08-03T14:01:13Z</time>
      </trkpt>
      <trkpt lat="47.44602" lon="-2.45436">
        <ele>7.4</ele>
        <time>2020-08-03T14:01:14Z</time>
      </trkpt>
      <trkpt lat="47.44601" lon="-2.45436">
        <ele>7.2</ele>
        <time>2020-08-03T14:01:15Z</time>
      </trkpt>
      <trkpt lat="47.44601" lon="-2.45436">
        <ele>7.2</ele>
        <time>2020-08-03T14:01:16Z</time>
      </trkpt>
      <trkpt lat="47.44601" lon="-2.45436">
        <ele>7.2</ele>
        <time>2020-08-03T14:01:17Z</time>
      </trkpt>
      <trkpt lat="47.44602" lon="-2.45436">
        <ele>7.2</ele>
        <time>2020-08-03T14:01:18Z</time>
      </trkpt>
      <trkpt lat="47.44601" lon="-2.45436">
        <ele>7.4</ele>
        <time>2020-08-03T14:01:19Z</time>
      </trkpt>
      <trkpt lat="47.44602" lon="-2.45435">
        <ele>7.8</ele>
        <time>2020-08-03T14:01:20Z</time>
      </trkpt>
      <trkpt lat="47.44602" lon="-2.45435">
        <ele>7.8</ele>
        <time>2020-08-03T14:01:21Z</time>
      </trkpt>
      <trkpt lat="47.4459" lon="-2.45419">
        <ele>7.6</ele>
        <time>2020-08-03T14:01:34Z</time>
      </trkpt>
      <trkpt lat="47.44588" lon="-2.45417">
        <ele>7.6</ele>
        <time>2020-08-03T14:01:35Z</time>
      </trkpt>
      <trkpt lat="47.44587" lon="-2.45415">
        <ele>7.6</ele>
        <time>2020-08-03T14:01:36Z</time>
      </trkpt>
      <trkpt lat="47.44586" lon="-2.45413">
        <ele>7.8</ele>
        <time>2020-08-03T14:01:37Z</time>
      </trkpt>
      <trkpt lat="47.44584" lon="-2.45411">
        <ele>7.8</ele>
        <time>2020-08-03T14:01:38Z</time>
      </trkpt>
      <trkpt lat="47.44583" lon="-2.45409">
        <ele>7.8</ele>
        <time>2020-08-03T14:01:39Z</time>
      </trkpt>
      <trkpt lat="47.44581" lon="-2.45408">
        <ele>7.8</ele>
        <time>2020-08-03T14:01:40Z</time>
      </trkpt>
      <trkpt lat="47.4458" lon="-2.45406">
        <ele>7.8</ele>
        <time>2020-08-03T14:01:41Z</time>
      </trkpt>
      <trkpt lat="47.44578" lon="-2.45404">
        <ele>7.6</ele>
        <time>2020-08-03T14:01:42Z</time>
      </trkpt>
      <trkpt lat="47.44576" lon="-2.45402">
        <ele>7.6</ele>
        <time>2020-08-03T14:01:43Z</time>
      </trkpt>
      <trkpt lat="47.44575" lon="-2.45399">
        <ele>7.8</ele>
        <time>2020-08-03T14:01:44Z</time>
      </trkpt>
      <trkpt lat="47.44574" lon="-2.45396">
        <ele>7.8</ele>
        <time>2020-08-03T14:01:45Z</time>
      </trkpt>
      <trkpt lat="47.44572" lon="-2.45394">
        <ele>7.6</ele>
        <time>2020-08-03T14:01:46Z</time>
      </trkpt>
      <trkpt lat="47.44571" lon="-2.45391">
        <ele>7.8</ele>
        <time>2020-08-03T14:01:47Z</time>
      </trkpt>
      <trkpt lat="47.44569" lon="-2.45389">
        <ele>7.8</ele>
        <time>2020-08-03T14:01:48Z</time>
      </trkpt>
      <trkpt lat="47.44567" lon="-2.45387">
        <ele>7.8</ele>
        <time>2020-08-03T14:01:49Z</time>
      </trkpt>
      <trkpt lat="47.44566" lon="-2.45384">
        <ele>8</ele>
        <time>2020-08-03T14:01:50Z</time>
      </trkpt>
      <trkpt lat="47.44564" lon="-2.45382">
        <ele>8</ele>
        <time>2020-08-03T14:01:51Z</time>
      </trkpt>
      <trkpt lat="47.44562" lon="-2.45379">
        <ele>8</ele>
        <time>2020-08-03T14:01:52Z</time>
      </trkpt>
      <trkpt lat="47.4456" lon="-2.45377">
        <ele>8</ele>
        <time>2020-08-03T14:01:53Z</time>
      </trkpt>
      <trkpt lat="47.44559" lon="-2.45374">
        <ele>7.8</ele>
        <time>2020-08-03T14:01:54Z</time>
      </trkpt>
      <trkpt lat="47.44557" lon="-2.45372">
        <ele>8</ele>
        <time>2020-08-03T14:01:55Z</time>
      </trkpt>
      <trkpt lat="47.44556" lon="-2.4537">
        <ele>8</ele>
        <time>2020-08-03T14:01:56Z</time>
      </trkpt>
      <trkpt lat="47.44554" lon="-2.45368">
        <ele>8</ele>
        <time>2020-08-03T14:01:57Z</time>
      </trkpt>
      <trkpt lat="47.44552" lon="-2.45366">
        <ele>8.2</ele>
        <time>2020-08-03T14:01:58Z</time>
      </trkpt>
      <trkpt lat="47.4455" lon="-2.45364">
        <ele>8</ele>
        <time>2020-08-03T14:01:59Z</time>
      </trkpt>
      <trkpt lat="47.44548" lon="-2.45362">
        <ele>8</ele>
        <time>2020-08-03T14:02:00Z</time>
      </trkpt>
      <trkpt lat="47.44546" lon="-2.4536">
        <ele>8</ele>
        <time>2020-08-03T14:02:01Z</time>
      </trkpt>
      <trkpt lat="47.44544" lon="-2.45357">
        <ele>8</ele>
        <time>2020-08-03T14:02:02Z</time>
      </trkpt>
      <trkpt lat="47.44542" lon="-2.45355">
        <ele>7.8</ele>
        <time>2020-08-03T14:02:03Z</time>
      </trkpt>
      <trkpt lat="47.4454" lon="-2.45353">
        <ele>7.8</ele>
        <time>2020-08-03T14:02:04Z</time>
      </trkpt>
      <trkpt lat="47.44538" lon="-2.45351">
        <ele>7.8</ele>
        <time>2020-08-03T14:02:05Z</time>
      </trkpt>
      <trkpt lat="47.44537" lon="-2.45348">
        <ele>7.8</ele>
        <time>2020-08-03T14:02:06Z</time>
      </trkpt>
      <trkpt lat="47.44535" lon="-2.45346">
        <ele>8</ele>
        <time>2020-08-03T14:02:07Z</time>
      </trkpt>
      <trkpt lat="47.44533" lon="-2.45344">
        <ele>8.2</ele>
        <time>2020-08-03T14:02:08Z</time>
      </trkpt>
      <trkpt lat="47.44531" lon="-2.45342">
        <ele>8.2</ele>
        <time>2020-08-03T14:02:09Z</time>
      </trkpt>
      <trkpt lat="47.4453" lon="-2.45339">
        <ele>8.2</ele>
        <time>2020-08-03T14:02:10Z</time>
      </trkpt>
      <trkpt lat="47.44527" lon="-2.45337">
        <ele>8.2</ele>
        <time>2020-08-03T14:02:11Z</time>
      </trkpt>
      <trkpt lat="47.44525" lon="-2.45335">
        <ele>8.2</ele>
        <time>2020-08-03T14:02:12Z</time>
      </trkpt>
      <trkpt lat="47.44523" lon="-2.45332">
        <ele>8.2</ele>
        <time>2020-08-03T14:02:13Z</time>
      </trkpt>
      <trkpt lat="47.44521" lon="-2.4533">
        <ele>8.2</ele>
        <time>2020-08-03T14:02:14Z</time>
      </trkpt>
      <trkpt lat="47.44519" lon="-2.45328">
        <ele>8.2</ele>
        <time>2020-08-03T14:02:15Z</time>
      </trkpt>
      <trkpt lat="47.44517" lon="-2.45325">
        <ele>8</ele>
        <time>2020-08-03T14:02:16Z</time>
      </trkpt>
      <trkpt lat="47.44515" lon="-2.45323">
        <ele>8</ele>
        <time>2020-08-03T14:02:17Z</time>
      </trkpt>
      <trkpt lat="47.44513" lon="-2.45321">
        <ele>8</ele>
        <time>2020-08-03T14:02:18Z</time>
      </trkpt>
      <trkpt lat="47.44511" lon="-2.45318">
        <ele>8</ele>
        <time>2020-08-03T14:02:19Z</time>
      </trkpt>
      <trkpt lat="47.44509" lon="-2.45316">
        <ele>8</ele>
        <time>2020-08-03T14:02:20Z</time>
      </trkpt>
      <trkpt lat="47.44507" lon="-2.45313">
        <ele>8</ele>
        <time>2020-08-03T14:02:21Z</time>
      </trkpt>
      <trkpt lat="47.44506" lon="-2.4531">
        <ele>8</ele>
        <time>2020-08-03T14:02:22Z</time>
      </trkpt>
      <trkpt lat="47.44504" lon="-2.45308">
        <ele>8.2</ele>
        <time>2020-08-03T14:02:23Z</time>
      </trkpt>
      <trkpt lat="47.44502" lon="-2.45306">
        <ele>8</ele>
        <time>2020-08-03T14:02:24Z</time>
      </trkpt>
      <trkpt lat="47.445" lon="-2.45303">
        <ele>8</ele>
        <time>2020-08-03T14:02:25Z</time>
      </trkpt>
      <trkpt lat="47.44498" lon="-2.45301">
        <ele>8</ele>
        <time>2020-08-03T14:02:26Z</time>
      </trkpt>
      <trkpt lat="47.44496" lon="-2.45299">
        <ele>8</ele>
        <time>2020-08-03T14:02:27Z</time>
      </trkpt>
      <trkpt lat="47.44494" lon="-2.45296">
        <ele>8</ele>
        <time>2020-08-03T14:02:28Z</time>
      </trkpt>
      <trkpt lat="47.44492" lon="-2.45294">
        <ele>8</ele>
        <time>2020-08-03T14:02:29Z</time>
      </trkpt>
      <trkpt lat="47.4449" lon="-2.45292">
        <ele>8</ele>
        <time>2020-08-03T14:02:30Z</time>
      </trkpt>
      <trkpt lat="47.44488" lon="-2.45289">
        <ele>7.8</ele>
        <time>2020-08-03T14:02:31Z</time>
      </trkpt>
      <trkpt lat="47.44486" lon="-2.45287">
        <ele>7.8</ele>
        <time>2020-08-03T14:02:32Z</time>
      </trkpt>
      <trkpt lat="47.44484" lon="-2.45284">
        <ele>7.8</ele>
        <time>2020-08-03T14:02:33Z</time>
      </trkpt>
      <trkpt lat="47.44482" lon="-2.45282">
        <ele>8</ele>
        <time>2020-08-03T14:02:34Z</time>
      </trkpt>
      <trkpt lat="47.4448" lon="-2.4528">
        <ele>8</ele>
        <time>2020-08-03T14:02:35Z</time>
      </trkpt>
      <trkpt lat="47.44478" lon="-2.45278">
        <ele>8</ele>
        <time>2020-08-03T14:02:36Z</time>
      </trkpt>
      <trkpt lat="47.44477" lon="-2.45275">
        <ele>8</ele>
        <time>2020-08-03T14:02:37Z</time>
      </trkpt>
      <trkpt lat="47.44475" lon="-2.45273">
        <ele>8</ele>
        <time>2020-08-03T14:02:38Z</time>
      </trkpt>
      <trkpt lat="47.44474" lon="-2.45271">
        <ele>8</ele>
        <time>2020-08-03T14:02:39Z</time>
      </trkpt>
      <trkpt lat="47.44473" lon="-2.45269">
        <ele>8</ele>
        <time>2020-08-03T14:02:40Z</time>
      </trkpt>
      <trkpt lat="47.44472" lon="-2.45267">
        <ele>8</ele>
        <time>2020-08-03T14:02:41Z</time>
      </trkpt>
      <trkpt lat="47.44471" lon="-2.45266">
        <ele>8</ele>
        <time>2020-08-03T14:02:42Z</time>
      </trkpt>
      <trkpt lat="47.4447" lon="-2.45265">
        <ele>8</ele>
        <time>2020-08-03T14:02:43Z</time>
      </trkpt>
      <trkpt lat="47.44469" lon="-2.45264">
        <ele>8</ele>
        <time>2020-08-03T14:02:44Z</time>
      </trkpt>
      <trkpt lat="47.44469" lon="-2.45263">
        <ele>8</ele>
        <time>2020-08-03T14:02:45Z</time>
      </trkpt>
      <trkpt lat="47.44469" lon="-2.45263">
        <ele>7.8</ele>
        <time>2020-08-03T14:02:46Z</time>
      </trkpt>
      <trkpt lat="47.44469" lon="-2.45263">
        <ele>7.8</ele>
        <time>2020-08-03T14:02:47Z</time>
      </trkpt>
      <trkpt lat="47.44469" lon="-2.45263">
        <ele>7.8</ele>
        <time>2020-08-03T14:02:48Z</time>
      </trkpt>
      <trkpt lat="47.44469" lon="-2.45263">
        <ele>7.8</ele>
        <time>2020-08-03T14:02:49Z</time>
      </trkpt>
      <trkpt lat="47.44469" lon="-2.45263">
        <ele>8</ele>
        <time>2020-08-03T14:02:50Z</time>
      </trkpt>
      <trkpt lat="47.44469" lon="-2.45263">
        <ele>8.2</ele>
        <time>2020-08-03T14:02:51Z</time>
      </trkpt>
      <trkpt lat="47.44468" lon="-2.45262">
        <ele>8.2</ele>
        <time>2020-08-03T14:02:52Z</time>
      </trkpt>
      <trkpt lat="47.44456" lon="-2.45251">
        <ele>8.2</ele>
        <time>2020-08-03T14:03:00Z</time>
      </trkpt>
      <trkpt lat="47.44454" lon="-2.45249">
        <ele>8.2</ele>
        <time>2020-08-03T14:03:01Z</time>
      </trkpt>
      <trkpt lat="47.44452" lon="-2.45247">
        <ele>8</ele>
        <time>2020-08-03T14:03:02Z</time>
      </trkpt>
      <trkpt lat="47.4445" lon="-2.45245">
        <ele>8</ele>
        <time>2020-08-03T14:03:03Z</time>
      </trkpt>
      <trkpt lat="47.44448" lon="-2.45243">
        <ele>8</ele>
        <time>2020-08-03T14:03:04Z</time>
      </trkpt>
      <trkpt lat="47.44446" lon="-2.45241">
        <ele>8</ele>
        <time>2020-08-03T14:03:05Z</time>
      </trkpt>
      <trkpt lat="47.44445" lon="-2.45239">
        <ele>8</ele>
        <time>2020-08-03T14:03:06Z</time>
      </trkpt>
      <trkpt lat="47.44443" lon="-2.45237">
        <ele>8.2</ele>
        <time>2020-08-03T14:03:07Z</time>
      </trkpt>
      <trkpt lat="47.44441" lon="-2.45235">
        <ele>8</ele>
        <time>2020-08-03T14:03:08Z</time>
      </trkpt>
      <trkpt lat="47.44439" lon="-2.45232">
        <ele>8</ele>
        <time>2020-08-03T14:03:09Z</time>
      </trkpt>
      <trkpt lat="47.44437" lon="-2.4523">
        <ele>8</ele>
        <time>2020-08-03T14:03:10Z</time>
      </trkpt>
      <trkpt lat="47.44435" lon="-2.45228">
        <ele>8</ele>
        <time>2020-08-03T14:03:11Z</time>
      </trkpt>
      <trkpt lat="47.44434" lon="-2.45225">
        <ele>8</ele>
        <time>2020-08-03T14:03:12Z</time>
      </trkpt>
      <trkpt lat="47.44432" lon="-2.45223">
        <ele>7.8</ele>
        <time>2020-08-03T14:03:13Z</time>
      </trkpt>
      <trkpt lat="47.4443" lon="-2.45221">
        <ele>8</ele>
        <time>2020-08-03T14:03:14Z</time>
      </trkpt>
      <trkpt lat="47.44427" lon="-2.45219">
        <ele>8.2</ele>
        <time>2020-08-03T14:03:15Z</time>
      </trkpt>
      <trkpt lat="47.44426" lon="-2.45217">
        <ele>8.2</ele>
        <time>2020-08-03T14:03:16Z</time>
      </trkpt>
      <trkpt lat="47.44424" lon="-2.45215">
        <ele>8.2</ele>
        <time>2020-08-03T14:03:17Z</time>
      </trkpt>
      <trkpt lat="47.44422" lon="-2.45212">
        <ele>8.2</ele>
        <time>2020-08-03T14:03:18Z</time>
      </trkpt>
      <trkpt lat="47.4442" lon="-2.4521">
        <ele>8.4</ele>
        <time>2020-08-03T14:03:19Z</time>
      </trkpt>
      <trkpt lat="47.44418" lon="-2.45208">
        <ele>8.4</ele>
        <time>2020-08-03T14:03:20Z</time>
      </trkpt>
      <trkpt lat="47.44416" lon="-2.45207">
        <ele>8.2</ele>
        <time>2020-08-03T14:03:21Z</time>
      </trkpt>
      <trkpt lat="47.44414" lon="-2.45205">
        <ele>8</ele>
        <time>2020-08-03T14:03:22Z</time>
      </trkpt>
      <trkpt lat="47.44412" lon="-2.45203">
        <ele>8</ele>
        <time>2020-08-03T14:03:23Z</time>
      </trkpt>
      <trkpt lat="47.44411" lon="-2.452">
        <ele>8</ele>
        <time>2020-08-03T14:03:24Z</time>
      </trkpt>
      <trkpt lat="47.44409" lon="-2.45198">
        <ele>7.8</ele>
        <time>2020-08-03T14:03:25Z</time>
      </trkpt>
      <trkpt lat="47.44407" lon="-2.45196">
        <ele>8</ele>
        <time>2020-08-03T14:03:26Z</time>
      </trkpt>
      <trkpt lat="47.44405" lon="-2.45194">
        <ele>8</ele>
        <time>2020-08-03T14:03:27Z</time>
      </trkpt>
      <trkpt lat="47.44404" lon="-2.45191">
        <ele>8</ele>
        <time>2020-08-03T14:03:28Z</time>
      </trkpt>
      <trkpt lat="47.44402" lon="-2.45189">
        <ele>8</ele>
        <time>2020-08-03T14:03:29Z</time>
      </trkpt>
      <trkpt lat="47.444" lon="-2.45187">
        <ele>8</ele>
        <time>2020-08-03T14:03:30Z</time>
      </trkpt>
      <trkpt lat="47.44398" lon="-2.45185">
        <ele>8.2</ele>
        <time>2020-08-03T14:03:31Z</time>
      </trkpt>
      <trkpt lat="47.44396" lon="-2.45184">
        <ele>8.2</ele>
        <time>2020-08-03T14:03:32Z</time>
      </trkpt>
      <trkpt lat="47.44394" lon="-2.45182">
        <ele>8.2</ele>
        <time>2020-08-03T14:03:33Z</time>
      </trkpt>
      <trkpt lat="47.44392" lon="-2.45179">
        <ele>8.2</ele>
        <time>2020-08-03T14:03:34Z</time>
      </trkpt>
      <trkpt lat="47.44391" lon="-2.45177">
        <ele>8</ele>
        <time>2020-08-03T14:03:35Z</time>
      </trkpt>
      <trkpt lat="47.44389" lon="-2.45175">
        <ele>8.2</ele>
        <time>2020-08-03T14:03:36Z</time>
      </trkpt>
      <trkpt lat="47.44387" lon="-2.45173">
        <ele>8.2</ele>
        <time>2020-08-03T14:03:37Z</time>
      </trkpt>
      <trkpt lat="47.44385" lon="-2.45171">
        <ele>8.2</ele>
        <time>2020-08-03T14:03:38Z</time>
      </trkpt>
      <trkpt lat="47.44383" lon="-2.45169">
        <ele>8.2</ele>
        <time>2020-08-03T14:03:39Z</time>
      </trkpt>
      <trkpt lat="47.44381" lon="-2.45167">
        <ele>8.2</ele>
        <time>2020-08-03T14:03:40Z</time>
      </trkpt>
      <trkpt lat="47.44379" lon="-2.45164">
        <ele>8.2</ele>
        <time>2020-08-03T14:03:41Z</time>
      </trkpt>
      <trkpt lat="47.44378" lon="-2.45162">
        <ele>8.2</ele>
        <time>2020-08-03T14:03:42Z</time>
      </trkpt>
      <trkpt lat="47.44376" lon="-2.4516">
        <ele>8.2</ele>
        <time>2020-08-03T14:03:43Z</time>
      </trkpt>
      <trkpt lat="47.44374" lon="-2.45157">
        <ele>8.4</ele>
        <time>2020-08-03T14:03:44Z</time>
      </trkpt>
      <trkpt lat="47.44372" lon="-2.45155">
        <ele>8.2</ele>
        <time>2020-08-03T14:03:45Z</time>
      </trkpt>
      <trkpt lat="47.4437" lon="-2.45153">
        <ele>8.2</ele>
        <time>2020-08-03T14:03:46Z</time>
      </trkpt>
      <trkpt lat="47.44368" lon="-2.45151">
        <ele>8.4</ele>
        <time>2020-08-03T14:03:47Z</time>
      </trkpt>
      <trkpt lat="47.44366" lon="-2.4515">
        <ele>8.2</ele>
        <time>2020-08-03T14:03:48Z</time>
      </trkpt>
      <trkpt lat="47.44365" lon="-2.45148">
        <ele>8.4</ele>
        <time>2020-08-03T14:03:49Z</time>
      </trkpt>
      <trkpt lat="47.44363" lon="-2.45146">
        <ele>8.4</ele>
        <time>2020-08-03T14:03:50Z</time>
      </trkpt>
      <trkpt lat="47.44361" lon="-2.45144">
        <ele>8.4</ele>
        <time>2020-08-03T14:03:51Z</time>
      </trkpt>
      <trkpt lat="47.44359" lon="-2.45142">
        <ele>8.2</ele>
        <time>2020-08-03T14:03:52Z</time>
      </trkpt>
      <trkpt lat="47.44357" lon="-2.4514">
        <ele>8.2</ele>
        <time>2020-08-03T14:03:53Z</time>
      </trkpt>
      <trkpt lat="47.44356" lon="-2.45138">
        <ele>8.2</ele>
        <time>2020-08-03T14:03:54Z</time>
      </trkpt>
      <trkpt lat="47.44354" lon="-2.45136">
        <ele>8.4</ele>
        <time>2020-08-03T14:03:55Z</time>
      </trkpt>
      <trkpt lat="47.44353" lon="-2.45134">
        <ele>8.4</ele>
        <time>2020-08-03T14:03:56Z</time>
      </trkpt>
      <trkpt lat="47.44351" lon="-2.45131">
        <ele>8.2</ele>
        <time>2020-08-03T14:03:57Z</time>
      </trkpt>
      <trkpt lat="47.44351" lon="-2.45129">
        <ele>8</ele>
        <time>2020-08-03T14:03:58Z</time>
      </trkpt>
      <trkpt lat="47.44351" lon="-2.45128">
        <ele>8</ele>
        <time>2020-08-03T14:03:59Z</time>
      </trkpt>
      <trkpt lat="47.44351" lon="-2.45127">
        <ele>8.2</ele>
        <time>2020-08-03T14:04:00Z</time>
      </trkpt>
      <trkpt lat="47.44351" lon="-2.45126">
        <ele>9.2</ele>
        <time>2020-08-03T14:04:01Z</time>
      </trkpt>
      <trkpt lat="47.44351" lon="-2.45126">
        <ele>9.4</ele>
        <time>2020-08-03T14:04:02Z</time>
      </trkpt>
      <trkpt lat="47.44351" lon="-2.45126">
        <ele>9.2</ele>
        <time>2020-08-03T14:04:03Z</time>
      </trkpt>
      <trkpt lat="47.44351" lon="-2.45126">
        <ele>8.6</ele>
        <time>2020-08-03T14:04:04Z</time>
      </trkpt>
      <trkpt lat="47.44351" lon="-2.45125">
        <ele>8.4</ele>
        <time>2020-08-03T14:04:05Z</time>
      </trkpt>
      <trkpt lat="47.44351" lon="-2.45123">
        <ele>8.4</ele>
        <time>2020-08-03T14:04:06Z</time>
      </trkpt>
      <trkpt lat="47.44352" lon="-2.45122">
        <ele>8.4</ele>
        <time>2020-08-03T14:04:07Z</time>
      </trkpt>
      <trkpt lat="47.44335" lon="-2.45109">
        <ele>8.2</ele>
        <time>2020-08-03T14:06:01Z</time>
      </trkpt>
      <trkpt lat="47.44335" lon="-2.45108">
        <ele>8.4</ele>
        <time>2020-08-03T14:06:02Z</time>
      </trkpt>
      <trkpt lat="47.44334" lon="-2.45107">
        <ele>8.6</ele>
        <time>2020-08-03T14:06:03Z</time>
      </trkpt>
      <trkpt lat="47.44333" lon="-2.45106">
        <ele>8.6</ele>
        <time>2020-08-03T14:06:04Z</time>
      </trkpt>
      <trkpt lat="47.44332" lon="-2.45106">
        <ele>8.6</ele>
        <time>2020-08-03T14:06:05Z</time>
      </trkpt>
      <trkpt lat="47.44331" lon="-2.45105">
        <ele>8.6</ele>
        <time>2020-08-03T14:06:06Z</time>
      </trkpt>
      <trkpt lat="47.4433" lon="-2.45105">
        <ele>8.6</ele>
        <time>2020-08-03T14:06:07Z</time>
      </trkpt>
      <trkpt lat="47.44329" lon="-2.45105">
        <ele>8.4</ele>
        <time>2020-08-03T14:06:08Z</time>
      </trkpt>
      <trkpt lat="47.44328" lon="-2.45104">
        <ele>8.6</ele>
        <time>2020-08-03T14:06:09Z</time>
      </trkpt>
      <trkpt lat="47.44327" lon="-2.45104">
        <ele>8.8</ele>
        <time>2020-08-03T14:06:10Z</time>
      </trkpt>
      <trkpt lat="47.44326" lon="-2.45103">
        <ele>8.8</ele>
        <time>2020-08-03T14:06:11Z</time>
      </trkpt>
      <trkpt lat="47.44325" lon="-2.45103">
        <ele>8.6</ele>
        <time>2020-08-03T14:06:12Z</time>
      </trkpt>
      <trkpt lat="47.44324" lon="-2.45102">
        <ele>8.6</ele>
        <time>2020-08-03T14:06:13Z</time>
      </trkpt>
      <trkpt lat="47.44323" lon="-2.45101">
        <ele>8.4</ele>
        <time>2020-08-03T14:06:14Z</time>
      </trkpt>
      <trkpt lat="47.44322" lon="-2.45101">
        <ele>8.4</ele>
        <time>2020-08-03T14:06:15Z</time>
      </trkpt>
      <trkpt lat="47.44321" lon="-2.451">
        <ele>8.4</ele>
        <time>2020-08-03T14:06:16Z</time>
      </trkpt>
      <trkpt lat="47.44321" lon="-2.45098">
        <ele>8.2</ele>
        <time>2020-08-03T14:06:17Z</time>
      </trkpt>
      <trkpt lat="47.4432" lon="-2.45097">
        <ele>8.2</ele>
        <time>2020-08-03T14:06:18Z</time>
      </trkpt>
      <trkpt lat="47.44319" lon="-2.45096">
        <ele>8</ele>
        <time>2020-08-03T14:06:19Z</time>
      </trkpt>
      <trkpt lat="47.44319" lon="-2.45095">
        <ele>8</ele>
        <time>2020-08-03T14:06:20Z</time>
      </trkpt>
      <trkpt lat="47.44318" lon="-2.45094">
        <ele>8.2</ele>
        <time>2020-08-03T14:06:21Z</time>
      </trkpt>
      <trkpt lat="47.44317" lon="-2.45093">
        <ele>8.4</ele>
        <time>2020-08-03T14:06:22Z</time>
      </trkpt>
      <trkpt lat="47.44317" lon="-2.45092">
        <ele>8.4</ele>
        <time>2020-08-03T14:06:23Z</time>
      </trkpt>
      <trkpt lat="47.44316" lon="-2.45091">
        <ele>8.6</ele>
        <time>2020-08-03T14:06:24Z</time>
      </trkpt>
      <trkpt lat="47.44315" lon="-2.4509">
        <ele>8.6</ele>
        <time>2020-08-03T14:06:25Z</time>
      </trkpt>
      <trkpt lat="47.44314" lon="-2.45089">
        <ele>8.2</ele>
        <time>2020-08-03T14:06:26Z</time>
      </trkpt>
      <trkpt lat="47.44314" lon="-2.45087">
        <ele>8</ele>
        <time>2020-08-03T14:06:27Z</time>
      </trkpt>
      <trkpt lat="47.44313" lon="-2.45086">
        <ele>8.2</ele>
        <time>2020-08-03T14:06:28Z</time>
      </trkpt>
      <trkpt lat="47.44313" lon="-2.45086">
        <ele>8.8</ele>
        <time>2020-08-03T14:06:29Z</time>
      </trkpt>
      <trkpt lat="47.44313" lon="-2.45086">
        <ele>9</ele>
        <time>2020-08-03T14:06:30Z</time>
      </trkpt>
      <trkpt lat="47.44312" lon="-2.45085">
        <ele>8.8</ele>
        <time>2020-08-03T14:06:31Z</time>
      </trkpt>
      <trkpt lat="47.44311" lon="-2.45084">
        <ele>8.6</ele>
        <time>2020-08-03T14:06:32Z</time>
      </trkpt>
      <trkpt lat="47.4431" lon="-2.45084">
        <ele>8.8</ele>
        <time>2020-08-03T14:06:33Z</time>
      </trkpt>
      <trkpt lat="47.44309" lon="-2.45083">
        <ele>8.8</ele>
        <time>2020-08-03T14:06:34Z</time>
      </trkpt>
      <trkpt lat="47.44308" lon="-2.45083">
        <ele>8.6</ele>
        <time>2020-08-03T14:06:35Z</time>
      </trkpt>
      <trkpt lat="47.44307" lon="-2.45082">
        <ele>8.6</ele>
        <time>2020-08-03T14:06:36Z</time>
      </trkpt>
      <trkpt lat="47.44306" lon="-2.45082">
        <ele>8.8</ele>
        <time>2020-08-03T14:06:37Z</time>
      </trkpt>
      <trkpt lat="47.44305" lon="-2.45081">
        <ele>8.6</ele>
        <time>2020-08-03T14:06:38Z</time>
      </trkpt>
      <trkpt lat="47.44304" lon="-2.4508">
        <ele>8.6</ele>
        <time>2020-08-03T14:06:39Z</time>
      </trkpt>
      <trkpt lat="47.44303" lon="-2.45079">
        <ele>8.6</ele>
        <time>2020-08-03T14:06:40Z</time>
      </trkpt>
      <trkpt lat="47.44303" lon="-2.45078">
        <ele>8.6</ele>
        <time>2020-08-03T14:06:41Z</time>
      </trkpt>
      <trkpt lat="47.44302" lon="-2.45077">
        <ele>8.4</ele>
        <time>2020-08-03T14:06:42Z</time>
      </trkpt>
      <trkpt lat="47.44301" lon="-2.45076">
        <ele>8.2</ele>
        <time>2020-08-03T14:06:43Z</time>
      </trkpt>
      <trkpt lat="47.443" lon="-2.45074">
        <ele>8.2</ele>
        <time>2020-08-03T14:06:44Z</time>
      </trkpt>
      <trkpt lat="47.44299" lon="-2.45073">
        <ele>8.2</ele>
        <time>2020-08-03T14:06:45Z</time>
      </trkpt>
      <trkpt lat="47.44299" lon="-2.45072">
        <ele>8</ele>
        <time>2020-08-03T14:06:46Z</time>
      </trkpt>
      <trkpt lat="47.44299" lon="-2.4507">
        <ele>8.2</ele>
        <time>2020-08-03T14:06:47Z</time>
      </trkpt>
      <trkpt lat="47.44298" lon="-2.45069">
        <ele>8.4</ele>
        <time>2020-08-03T14:06:48Z</time>
      </trkpt>
      <trkpt lat="47.44298" lon="-2.45068">
        <ele>8.6</ele>
        <time>2020-08-03T14:06:49Z</time>
      </trkpt>
      <trkpt lat="47.44298" lon="-2.45067">
        <ele>8.2</ele>
        <time>2020-08-03T14:06:50Z</time>
      </trkpt>
      <trkpt lat="47.44297" lon="-2.45066">
        <ele>8.2</ele>
        <time>2020-08-03T14:06:51Z</time>
      </trkpt>
      <trkpt lat="47.44297" lon="-2.45064">
        <ele>8.2</ele>
        <time>2020-08-03T14:06:52Z</time>
      </trkpt>
      <trkpt lat="47.44296" lon="-2.45063">
        <ele>8.6</ele>
        <time>2020-08-03T14:06:53Z</time>
      </trkpt>
      <trkpt lat="47.44296" lon="-2.45062">
        <ele>8.8</ele>
        <time>2020-08-03T14:06:54Z</time>
      </trkpt>
      <trkpt lat="47.44295" lon="-2.45062">
        <ele>9</ele>
        <time>2020-08-03T14:06:55Z</time>
      </trkpt>
      <trkpt lat="47.44295" lon="-2.45061">
        <ele>9</ele>
        <time>2020-08-03T14:06:56Z</time>
      </trkpt>
      <trkpt lat="47.44294" lon="-2.4506">
        <ele>8.8</ele>
        <time>2020-08-03T14:06:57Z</time>
      </trkpt>
      <trkpt lat="47.44293" lon="-2.45059">
        <ele>9</ele>
        <time>2020-08-03T14:06:58Z</time>
      </trkpt>
      <trkpt lat="47.44293" lon="-2.45059">
        <ele>9</ele>
        <time>2020-08-03T14:06:59Z</time>
      </trkpt>
      <trkpt lat="47.44293" lon="-2.45058">
        <ele>9.4</ele>
        <time>2020-08-03T14:07:00Z</time>
      </trkpt>
      <trkpt lat="47.44293" lon="-2.45058">
        <ele>9</ele>
        <time>2020-08-03T14:07:01Z</time>
      </trkpt>
      <trkpt lat="47.44293" lon="-2.45058">
        <ele>8.8</ele>
        <time>2020-08-03T14:07:02Z</time>
      </trkpt>
      <trkpt lat="47.44293" lon="-2.45058">
        <ele>9</ele>
        <time>2020-08-03T14:07:03Z</time>
      </trkpt>
      <trkpt lat="47.44293" lon="-2.45058">
        <ele>9.6</ele>
        <time>2020-08-03T14:07:04Z</time>
      </trkpt>
      <trkpt lat="47.44293" lon="-2.45058">
        <ele>9.4</ele>
        <time>2020-08-03T14:07:05Z</time>
      </trkpt>
      <trkpt lat="47.44293" lon="-2.45058">
        <ele>9.4</ele>
        <time>2020-08-03T14:07:06Z</time>
      </trkpt>
      <trkpt lat="47.4431" lon="-2.45087">
        <ele>9.6</ele>
        <time>2020-08-03T14:12:53Z</time>
      </trkpt>
      <trkpt lat="47.44311" lon="-2.45087">
        <ele>9.6</ele>
        <time>2020-08-03T14:12:54Z</time>
      </trkpt>
      <trkpt lat="47.44312" lon="-2.45088">
        <ele>9.6</ele>
        <time>2020-08-03T14:12:55Z</time>
      </trkpt>
      <trkpt lat="47.44312" lon="-2.45089">
        <ele>9.6</ele>
        <time>2020-08-03T14:12:56Z</time>
      </trkpt>
      <trkpt lat="47.44313" lon="-2.4509">
        <ele>9.8</ele>
        <time>2020-08-03T14:12:57Z</time>
      </trkpt>
      <trkpt lat="47.44314" lon="-2.45091">
        <ele>9.6</ele>
        <time>2020-08-03T14:12:58Z</time>
      </trkpt>
      <trkpt lat="47.44314" lon="-2.45092">
        <ele>9.6</ele>
        <time>2020-08-03T14:12:59Z</time>
      </trkpt>
      <trkpt lat="47.44315" lon="-2.45092">
        <ele>9.6</ele>
        <time>2020-08-03T14:13:00Z</time>
      </trkpt>
      <trkpt lat="47.44316" lon="-2.45093">
        <ele>9.6</ele>
        <time>2020-08-03T14:13:01Z</time>
      </trkpt>
      <trkpt lat="47.44316" lon="-2.45094">
        <ele>10</ele>
        <time>2020-08-03T14:13:02Z</time>
      </trkpt>
      <trkpt lat="47.44317" lon="-2.45094">
        <ele>10.2</ele>
        <time>2020-08-03T14:13:03Z</time>
      </trkpt>
      <trkpt lat="47.44318" lon="-2.45095">
        <ele>10.2</ele>
        <time>2020-08-03T14:13:04Z</time>
      </trkpt>
      <trkpt lat="47.44318" lon="-2.45096">
        <ele>10.2</ele>
        <time>2020-08-03T14:13:05Z</time>
      </trkpt>
      <trkpt lat="47.44319" lon="-2.45097">
        <ele>10.4</ele>
        <time>2020-08-03T14:13:06Z</time>
      </trkpt>
      <trkpt lat="47.44319" lon="-2.45098">
        <ele>10.4</ele>
        <time>2020-08-03T14:13:07Z</time>
      </trkpt>
      <trkpt lat="47.4432" lon="-2.45098">
        <ele>10.2</ele>
        <time>2020-08-03T14:13:08Z</time>
      </trkpt>
      <trkpt lat="47.4432" lon="-2.45099">
        <ele>10.2</ele>
        <time>2020-08-03T14:13:09Z</time>
      </trkpt>
      <trkpt lat="47.44321" lon="-2.45099">
        <ele>10</ele>
        <time>2020-08-03T14:13:10Z</time>
      </trkpt>
      <trkpt lat="47.44322" lon="-2.451">
        <ele>10</ele>
        <time>2020-08-03T14:13:11Z</time>
      </trkpt>
      <trkpt lat="47.44322" lon="-2.451">
        <ele>10.2</ele>
        <time>2020-08-03T14:13:12Z</time>
      </trkpt>
      <trkpt lat="47.44323" lon="-2.45101">
        <ele>10.2</ele>
        <time>2020-08-03T14:13:13Z</time>
      </trkpt>
      <trkpt lat="47.44324" lon="-2.45102">
        <ele>9.8</ele>
        <time>2020-08-03T14:13:14Z</time>
      </trkpt>
      <trkpt lat="47.44327" lon="-2.45107">
        <ele>10.2</ele>
        <time>2020-08-03T14:13:20Z</time>
      </trkpt>
      <trkpt lat="47.44328" lon="-2.45108">
        <ele>9.8</ele>
        <time>2020-08-03T14:13:21Z</time>
      </trkpt>
      <trkpt lat="47.44329" lon="-2.45109">
        <ele>10</ele>
        <time>2020-08-03T14:13:22Z</time>
      </trkpt>
      <trkpt lat="47.44329" lon="-2.4511">
        <ele>10</ele>
        <time>2020-08-03T14:13:23Z</time>
      </trkpt>
      <trkpt lat="47.4433" lon="-2.4511">
        <ele>10</ele>
        <time>2020-08-03T14:13:24Z</time>
      </trkpt>
      <trkpt lat="47.44331" lon="-2.45111">
        <ele>10</ele>
        <time>2020-08-03T14:13:25Z</time>
      </trkpt>
      <trkpt lat="47.44331" lon="-2.45112">
        <ele>9.6</ele>
        <time>2020-08-03T14:13:26Z</time>
      </trkpt>
      <trkpt lat="47.44332" lon="-2.45112">
        <ele>9.6</ele>
        <time>2020-08-03T14:13:27Z</time>
      </trkpt>
      <trkpt lat="47.44333" lon="-2.45113">
        <ele>9.6</ele>
        <time>2020-08-03T14:13:28Z</time>
      </trkpt>
      <trkpt lat="47.44333" lon="-2.45113">
        <ele>9.8</ele>
        <time>2020-08-03T14:13:29Z</time>
      </trkpt>
      <trkpt lat="47.44334" lon="-2.45113">
        <ele>10</ele>
        <time>2020-08-03T14:13:30Z</time>
      </trkpt>
      <trkpt lat="47.44335" lon="-2.45114">
        <ele>10.2</ele>
        <time>2020-08-03T14:13:31Z</time>
      </trkpt>
      <trkpt lat="47.44336" lon="-2.45115">
        <ele>10.2</ele>
        <time>2020-08-03T14:13:32Z</time>
      </trkpt>
      <trkpt lat="47.44336" lon="-2.45116">
        <ele>10.4</ele>
        <time>2020-08-03T14:13:33Z</time>
      </trkpt>
      <trkpt lat="47.44337" lon="-2.45117">
        <ele>10.2</ele>
        <time>2020-08-03T14:13:34Z</time>
      </trkpt>
      <trkpt lat="47.44338" lon="-2.45118">
        <ele>10</ele>
        <time>2020-08-03T14:13:35Z</time>
      </trkpt>
      <trkpt lat="47.44338" lon="-2.45118">
        <ele>10.2</ele>
        <time>2020-08-03T14:13:36Z</time>
      </trkpt>
      <trkpt lat="47.44339" lon="-2.45119">
        <ele>10</ele>
        <time>2020-08-03T14:13:37Z</time>
      </trkpt>
      <trkpt lat="47.4434" lon="-2.45119">
        <ele>9.8</ele>
        <time>2020-08-03T14:13:38Z</time>
      </trkpt>
      <trkpt lat="47.4434" lon="-2.45119">
        <ele>10</ele>
        <time>2020-08-03T14:13:39Z</time>
      </trkpt>
      <trkpt lat="47.44341" lon="-2.4512">
        <ele>10</ele>
        <time>2020-08-03T14:13:40Z</time>
      </trkpt>
      <trkpt lat="47.44342" lon="-2.45122">
        <ele>9.8</ele>
        <time>2020-08-03T14:13:41Z</time>
      </trkpt>
      <trkpt lat="47.44343" lon="-2.45123">
        <ele>9.8</ele>
        <time>2020-08-03T14:13:42Z</time>
      </trkpt>
      <trkpt lat="47.44344" lon="-2.45123">
        <ele>9.6</ele>
        <time>2020-08-03T14:13:43Z</time>
      </trkpt>
      <trkpt lat="47.44345" lon="-2.45124">
        <ele>9.8</ele>
        <time>2020-08-03T14:13:44Z</time>
      </trkpt>
      <trkpt lat="47.44345" lon="-2.45124">
        <ele>10.2</ele>
        <time>2020-08-03T14:13:45Z</time>
      </trkpt>
      <trkpt lat="47.44346" lon="-2.45125">
        <ele>10.2</ele>
        <time>2020-08-03T14:13:46Z</time>
      </trkpt>
      <trkpt lat="47.44347" lon="-2.45126">
        <ele>10</ele>
        <time>2020-08-03T14:13:47Z</time>
      </trkpt>
      <trkpt lat="47.44348" lon="-2.45127">
        <ele>10</ele>
        <time>2020-08-03T14:13:48Z</time>
      </trkpt>
      <trkpt lat="47.44349" lon="-2.45128">
        <ele>10.2</ele>
        <time>2020-08-03T14:13:49Z</time>
      </trkpt>
      <trkpt lat="47.4435" lon="-2.45128">
        <ele>10.6</ele>
        <time>2020-08-03T14:13:50Z</time>
      </trkpt>
      <trkpt lat="47.4435" lon="-2.45129">
        <ele>10.6</ele>
        <time>2020-08-03T14:13:51Z</time>
      </trkpt>
      <trkpt lat="47.44351" lon="-2.4513">
        <ele>10.4</ele>
        <time>2020-08-03T14:13:52Z</time>
      </trkpt>
      <trkpt lat="47.44352" lon="-2.4513">
        <ele>10.4</ele>
        <time>2020-08-03T14:13:53Z</time>
      </trkpt>
      <trkpt lat="47.44352" lon="-2.45131">
        <ele>10.2</ele>
        <time>2020-08-03T14:13:54Z</time>
      </trkpt>
      <trkpt lat="47.44353" lon="-2.45132">
        <ele>10</ele>
        <time>2020-08-03T14:13:55Z</time>
      </trkpt>
      <trkpt lat="47.44353" lon="-2.45132">
        <ele>10</ele>
        <time>2020-08-03T14:13:56Z</time>
      </trkpt>
      <trkpt lat="47.44353" lon="-2.45132">
        <ele>9.8</ele>
        <time>2020-08-03T14:13:57Z</time>
      </trkpt>
      <trkpt lat="47.44353" lon="-2.45132">
        <ele>9.8</ele>
        <time>2020-08-03T14:13:58Z</time>
      </trkpt>
      <trkpt lat="47.44353" lon="-2.45132">
        <ele>9.8</ele>
        <time>2020-08-03T14:13:59Z</time>
      </trkpt>
      <trkpt lat="47.44353" lon="-2.45132">
        <ele>9.8</ele>
        <time>2020-08-03T14:14:00Z</time>
      </trkpt>
      <trkpt lat="47.44376" lon="-2.45159">
        <ele>9.8</ele>
        <time>2020-08-03T14:15:37Z</time>
      </trkpt>
      <trkpt lat="47.44378" lon="-2.45162">
        <ele>9.6</ele>
        <time>2020-08-03T14:15:38Z</time>
      </trkpt>
      <trkpt lat="47.4438" lon="-2.45164">
        <ele>9.6</ele>
        <time>2020-08-03T14:15:39Z</time>
      </trkpt>
      <trkpt lat="47.44382" lon="-2.45166">
        <ele>9.6</ele>
        <time>2020-08-03T14:15:40Z</time>
      </trkpt>
      <trkpt lat="47.44384" lon="-2.45168">
        <ele>9.6</ele>
        <time>2020-08-03T14:15:41Z</time>
      </trkpt>
      <trkpt lat="47.44386" lon="-2.4517">
        <ele>9.8</ele>
        <time>2020-08-03T14:15:42Z</time>
      </trkpt>
      <trkpt lat="47.44388" lon="-2.45173">
        <ele>9.8</ele>
        <time>2020-08-03T14:15:43Z</time>
      </trkpt>
      <trkpt lat="47.4439" lon="-2.45175">
        <ele>9.8</ele>
        <time>2020-08-03T14:15:44Z</time>
      </trkpt>
      <trkpt lat="47.44392" lon="-2.45177">
        <ele>9.8</ele>
        <time>2020-08-03T14:15:45Z</time>
      </trkpt>
      <trkpt lat="47.44395" lon="-2.45178">
        <ele>9.6</ele>
        <time>2020-08-03T14:15:46Z</time>
      </trkpt>
      <trkpt lat="47.44397" lon="-2.4518">
        <ele>9.6</ele>
        <time>2020-08-03T14:15:47Z</time>
      </trkpt>
      <trkpt lat="47.44399" lon="-2.45182">
        <ele>9.4</ele>
        <time>2020-08-03T14:15:48Z</time>
      </trkpt>
      <trkpt lat="47.44401" lon="-2.45184">
        <ele>9.6</ele>
        <time>2020-08-03T14:15:49Z</time>
      </trkpt>
      <trkpt lat="47.44403" lon="-2.45186">
        <ele>9.8</ele>
        <time>2020-08-03T14:15:50Z</time>
      </trkpt>
      <trkpt lat="47.44404" lon="-2.45188">
        <ele>9.6</ele>
        <time>2020-08-03T14:15:51Z</time>
      </trkpt>
      <trkpt lat="47.44406" lon="-2.4519">
        <ele>9.6</ele>
        <time>2020-08-03T14:15:52Z</time>
      </trkpt>
      <trkpt lat="47.44408" lon="-2.45193">
        <ele>9.6</ele>
        <time>2020-08-03T14:15:53Z</time>
      </trkpt>
      <trkpt lat="47.4441" lon="-2.45195">
        <ele>9.4</ele>
        <time>2020-08-03T14:15:54Z</time>
      </trkpt>
      <trkpt lat="47.44412" lon="-2.45197">
        <ele>9.4</ele>
        <time>2020-08-03T14:15:55Z</time>
      </trkpt>
      <trkpt lat="47.44414" lon="-2.45199">
        <ele>9.4</ele>
        <time>2020-08-03T14:15:56Z</time>
      </trkpt>
      <trkpt lat="47.44416" lon="-2.45201">
        <ele>9.4</ele>
        <time>2020-08-03T14:15:57Z</time>
      </trkpt>
      <trkpt lat="47.44418" lon="-2.45203">
        <ele>9.6</ele>
        <time>2020-08-03T14:15:58Z</time>
      </trkpt>
      <trkpt lat="47.4442" lon="-2.45205">
        <ele>9.6</ele>
        <time>2020-08-03T14:15:59Z</time>
      </trkpt>
      <trkpt lat="47.44422" lon="-2.45207">
        <ele>9.6</ele>
        <time>2020-08-03T14:16:00Z</time>
      </trkpt>
      <trkpt lat="47.44424" lon="-2.45209">
        <ele>9.6</ele>
        <time>2020-08-03T14:16:01Z</time>
      </trkpt>
      <trkpt lat="47.44425" lon="-2.45211">
        <ele>9.4</ele>
        <time>2020-08-03T14:16:02Z</time>
      </trkpt>
      <trkpt lat="47.44427" lon="-2.45213">
        <ele>9.4</ele>
        <time>2020-08-03T14:16:03Z</time>
      </trkpt>
      <trkpt lat="47.44428" lon="-2.45215">
        <ele>9.6</ele>
        <time>2020-08-03T14:16:04Z</time>
      </trkpt>
      <trkpt lat="47.4443" lon="-2.45217">
        <ele>9.6</ele>
        <time>2020-08-03T14:16:05Z</time>
      </trkpt>
      <trkpt lat="47.44432" lon="-2.45219">
        <ele>9.6</ele>
        <time>2020-08-03T14:16:06Z</time>
      </trkpt>
      <trkpt lat="47.44434" lon="-2.4522">
        <ele>9.4</ele>
        <time>2020-08-03T14:16:07Z</time>
      </trkpt>
      <trkpt lat="47.44435" lon="-2.45223">
        <ele>9.6</ele>
        <time>2020-08-03T14:16:08Z</time>
      </trkpt>
      <trkpt lat="47.44437" lon="-2.45224">
        <ele>9.6</ele>
        <time>2020-08-03T14:16:09Z</time>
      </trkpt>
      <trkpt lat="47.44438" lon="-2.45226">
        <ele>9.6</ele>
        <time>2020-08-03T14:16:10Z</time>
      </trkpt>
      <trkpt lat="47.4444" lon="-2.45228">
        <ele>9.4</ele>
        <time>2020-08-03T14:16:11Z</time>
      </trkpt>
      <trkpt lat="47.44442" lon="-2.45228">
        <ele>9.2</ele>
        <time>2020-08-03T14:16:12Z</time>
      </trkpt>
      <trkpt lat="47.44443" lon="-2.45228">
        <ele>9.2</ele>
        <time>2020-08-03T14:16:13Z</time>
      </trkpt>
      <trkpt lat="47.44443" lon="-2.45228">
        <ele>9</ele>
        <time>2020-08-03T14:16:14Z</time>
      </trkpt>
      <trkpt lat="47.44443" lon="-2.45228">
        <ele>9.6</ele>
        <time>2020-08-03T14:16:15Z</time>
      </trkpt>
      <trkpt lat="47.44444" lon="-2.45228">
        <ele>9.8</ele>
        <time>2020-08-03T14:16:16Z</time>
      </trkpt>
      <trkpt lat="47.44444" lon="-2.45227">
        <ele>9.6</ele>
        <time>2020-08-03T14:16:17Z</time>
      </trkpt>
      <trkpt lat="47.44444" lon="-2.45227">
        <ele>9.2</ele>
        <time>2020-08-03T14:16:18Z</time>
      </trkpt>
      <trkpt lat="47.44444" lon="-2.45227">
        <ele>9.2</ele>
        <time>2020-08-03T14:16:19Z</time>
      </trkpt>
      <trkpt lat="47.44444" lon="-2.45227">
        <ele>9.4</ele>
        <time>2020-08-03T14:16:20Z</time>
      </trkpt>
      <trkpt lat="47.44444" lon="-2.45227">
        <ele>9.8</ele>
        <time>2020-08-03T14:16:21Z</time>
      </trkpt>
      <trkpt lat="47.44445" lon="-2.45226">
        <ele>9.6</ele>
        <time>2020-08-03T14:16:22Z</time>
      </trkpt>
      <trkpt lat="47.44447" lon="-2.45226">
        <ele>8.6</ele>
        <time>2020-08-03T15:01:11Z</time>
      </trkpt>
      <trkpt lat="47.44446" lon="-2.45226">
        <ele>8.4</ele>
        <time>2020-08-03T15:01:12Z</time>
      </trkpt>
      <trkpt lat="47.44445" lon="-2.45227">
        <ele>8.2</ele>
        <time>2020-08-03T15:01:13Z</time>
      </trkpt>
      <trkpt lat="47.44444" lon="-2.45227">
        <ele>8.2</ele>
        <time>2020-08-03T15:01:14Z</time>
      </trkpt>
      <trkpt lat="47.44443" lon="-2.45227">
        <ele>8.4</ele>
        <time>2020-08-03T15:01:15Z</time>
      </trkpt>
      <trkpt lat="47.44442" lon="-2.45227">
        <ele>8.4</ele>
        <time>2020-08-03T15:01:16Z</time>
      </trkpt>
      <trkpt lat="47.44441" lon="-2.45227">
        <ele>8.4</ele>
        <time>2020-08-03T15:01:17Z</time>
      </trkpt>
      <trkpt lat="47.4444" lon="-2.45226">
        <ele>8.2</ele>
        <time>2020-08-03T15:01:18Z</time>
      </trkpt>
      <trkpt lat="47.44439" lon="-2.45225">
        <ele>7.8</ele>
        <time>2020-08-03T15:01:19Z</time>
      </trkpt>
      <trkpt lat="47.44438" lon="-2.45224">
        <ele>7.8</ele>
        <time>2020-08-03T15:01:20Z</time>
      </trkpt>
      <trkpt lat="47.44437" lon="-2.45222">
        <ele>7.6</ele>
        <time>2020-08-03T15:01:21Z</time>
      </trkpt>
      <trkpt lat="47.44437" lon="-2.45221">
        <ele>7.6</ele>
        <time>2020-08-03T15:01:22Z</time>
      </trkpt>
      <trkpt lat="47.44436" lon="-2.4522">
        <ele>7.6</ele>
        <time>2020-08-03T15:01:23Z</time>
      </trkpt>
      <trkpt lat="47.44435" lon="-2.45219">
        <ele>7.8</ele>
        <time>2020-08-03T15:01:24Z</time>
      </trkpt>
      <trkpt lat="47.44435" lon="-2.45218">
        <ele>7.8</ele>
        <time>2020-08-03T15:01:25Z</time>
      </trkpt>
      <trkpt lat="47.44434" lon="-2.45217">
        <ele>8</ele>
        <time>2020-08-03T15:01:26Z</time>
      </trkpt>
      <trkpt lat="47.44433" lon="-2.45217">
        <ele>7.8</ele>
        <time>2020-08-03T15:01:27Z</time>
      </trkpt>
      <trkpt lat="47.44432" lon="-2.45216">
        <ele>7.8</ele>
        <time>2020-08-03T15:01:28Z</time>
      </trkpt>
      <trkpt lat="47.44431" lon="-2.45215">
        <ele>7.6</ele>
        <time>2020-08-03T15:01:29Z</time>
      </trkpt>
      <trkpt lat="47.4443" lon="-2.45214">
        <ele>7.6</ele>
        <time>2020-08-03T15:01:30Z</time>
      </trkpt>
      <trkpt lat="47.4443" lon="-2.45213">
        <ele>7.6</ele>
        <time>2020-08-03T15:01:31Z</time>
      </trkpt>
      <trkpt lat="47.44429" lon="-2.45212">
        <ele>7.8</ele>
        <time>2020-08-03T15:01:32Z</time>
      </trkpt>
      <trkpt lat="47.44429" lon="-2.45211">
        <ele>7.6</ele>
        <time>2020-08-03T15:01:33Z</time>
      </trkpt>
      <trkpt lat="47.44428" lon="-2.4521">
        <ele>7.8</ele>
        <time>2020-08-03T15:01:34Z</time>
      </trkpt>
      <trkpt lat="47.44427" lon="-2.45209">
        <ele>7.8</ele>
        <time>2020-08-03T15:01:35Z</time>
      </trkpt>
      <trkpt lat="47.44426" lon="-2.45208">
        <ele>7.8</ele>
        <time>2020-08-03T15:01:36Z</time>
      </trkpt>
      <trkpt lat="47.44426" lon="-2.45207">
        <ele>7.8</ele>
        <time>2020-08-03T15:01:37Z</time>
      </trkpt>
      <trkpt lat="47.44425" lon="-2.45206">
        <ele>7.8</ele>
        <time>2020-08-03T15:01:38Z</time>
      </trkpt>
      <trkpt lat="47.44424" lon="-2.45205">
        <ele>7.8</ele>
        <time>2020-08-03T15:01:39Z</time>
      </trkpt>
      <trkpt lat="47.44423" lon="-2.45204">
        <ele>7.8</ele>
        <time>2020-08-03T15:01:40Z</time>
      </trkpt>
      <trkpt lat="47.44422" lon="-2.45203">
        <ele>8</ele>
        <time>2020-08-03T15:01:41Z</time>
      </trkpt>
      <trkpt lat="47.44421" lon="-2.45203">
        <ele>7.8</ele>
        <time>2020-08-03T15:01:42Z</time>
      </trkpt>
      <trkpt lat="47.44421" lon="-2.45202">
        <ele>7.8</ele>
        <time>2020-08-03T15:01:43Z</time>
      </trkpt>
      <trkpt lat="47.4442" lon="-2.45201">
        <ele>8</ele>
        <time>2020-08-03T15:01:44Z</time>
      </trkpt>
      <trkpt lat="47.44419" lon="-2.452">
        <ele>7.8</ele>
        <time>2020-08-03T15:01:45Z</time>
      </trkpt>
      <trkpt lat="47.44418" lon="-2.45199">
        <ele>7.8</ele>
        <time>2020-08-03T15:01:46Z</time>
      </trkpt>
      <trkpt lat="47.44417" lon="-2.45198">
        <ele>7.8</ele>
        <time>2020-08-03T15:01:47Z</time>
      </trkpt>
      <trkpt lat="47.44417" lon="-2.45197">
        <ele>7.6</ele>
        <time>2020-08-03T15:01:48Z</time>
      </trkpt>
      <trkpt lat="47.44416" lon="-2.45196">
        <ele>7.6</ele>
        <time>2020-08-03T15:01:49Z</time>
      </trkpt>
      <trkpt lat="47.44416" lon="-2.45195">
        <ele>7.6</ele>
        <time>2020-08-03T15:01:50Z</time>
      </trkpt>
      <trkpt lat="47.44415" lon="-2.45194">
        <ele>7.8</ele>
        <time>2020-08-03T15:01:51Z</time>
      </trkpt>
      <trkpt lat="47.44414" lon="-2.45193">
        <ele>8</ele>
        <time>2020-08-03T15:01:52Z</time>
      </trkpt>
      <trkpt lat="47.44413" lon="-2.45193">
        <ele>7.8</ele>
        <time>2020-08-03T15:01:53Z</time>
      </trkpt>
      <trkpt lat="47.44412" lon="-2.45192">
        <ele>7.6</ele>
        <time>2020-08-03T15:01:54Z</time>
      </trkpt>
      <trkpt lat="47.44411" lon="-2.45191">
        <ele>7.6</ele>
        <time>2020-08-03T15:01:55Z</time>
      </trkpt>
      <trkpt lat="47.44411" lon="-2.4519">
        <ele>7.6</ele>
        <time>2020-08-03T15:01:56Z</time>
      </trkpt>
      <trkpt lat="47.4441" lon="-2.45189">
        <ele>7.6</ele>
        <time>2020-08-03T15:01:57Z</time>
      </trkpt>
      <trkpt lat="47.44409" lon="-2.45188">
        <ele>7.8</ele>
        <time>2020-08-03T15:01:58Z</time>
      </trkpt>
      <trkpt lat="47.44408" lon="-2.45187">
        <ele>8</ele>
        <time>2020-08-03T15:01:59Z</time>
      </trkpt>
      <trkpt lat="47.44407" lon="-2.45186">
        <ele>8</ele>
        <time>2020-08-03T15:02:00Z</time>
      </trkpt>
      <trkpt lat="47.44407" lon="-2.45185">
        <ele>7.8</ele>
        <time>2020-08-03T15:02:01Z</time>
      </trkpt>
      <trkpt lat="47.44406" lon="-2.45184">
        <ele>7.4</ele>
        <time>2020-08-03T15:02:02Z</time>
      </trkpt>
      <trkpt lat="47.44405" lon="-2.45183">
        <ele>7.6</ele>
        <time>2020-08-03T15:02:03Z</time>
      </trkpt>
      <trkpt lat="47.44404" lon="-2.45182">
        <ele>8</ele>
        <time>2020-08-03T15:02:04Z</time>
      </trkpt>
      <trkpt lat="47.44404" lon="-2.45181">
        <ele>7.8</ele>
        <time>2020-08-03T15:02:05Z</time>
      </trkpt>
      <trkpt lat="47.44403" lon="-2.45179">
        <ele>7.8</ele>
        <time>2020-08-03T15:02:06Z</time>
      </trkpt>
      <trkpt lat="47.44402" lon="-2.45178">
        <ele>7.8</ele>
        <time>2020-08-03T15:02:07Z</time>
      </trkpt>
      <trkpt lat="47.44402" lon="-2.45177">
        <ele>7.8</ele>
        <time>2020-08-03T15:02:08Z</time>
      </trkpt>
      <trkpt lat="47.44401" lon="-2.45176">
        <ele>7.8</ele>
        <time>2020-08-03T15:02:09Z</time>
      </trkpt>
      <trkpt lat="47.444" lon="-2.45175">
        <ele>7.8</ele>
        <time>2020-08-03T15:02:10Z</time>
      </trkpt>
      <trkpt lat="47.44399" lon="-2.45174">
        <ele>8</ele>
        <time>2020-08-03T15:02:11Z</time>
      </trkpt>
      <trkpt lat="47.44399" lon="-2.45174">
        <ele>8</ele>
        <time>2020-08-03T15:02:12Z</time>
      </trkpt>
      <trkpt lat="47.44398" lon="-2.45173">
        <ele>8</ele>
        <time>2020-08-03T15:02:13Z</time>
      </trkpt>
      <trkpt lat="47.44397" lon="-2.45172">
        <ele>8</ele>
        <time>2020-08-03T15:02:14Z</time>
      </trkpt>
      <trkpt lat="47.44396" lon="-2.45171">
        <ele>8</ele>
        <time>2020-08-03T15:02:15Z</time>
      </trkpt>
      <trkpt lat="47.44395" lon="-2.4517">
        <ele>7.8</ele>
        <time>2020-08-03T15:02:16Z</time>
      </trkpt>
      <trkpt lat="47.44395" lon="-2.45168">
        <ele>8</ele>
        <time>2020-08-03T15:02:17Z</time>
      </trkpt>
      <trkpt lat="47.44394" lon="-2.45167">
        <ele>7.8</ele>
        <time>2020-08-03T15:02:18Z</time>
      </trkpt>
      <trkpt lat="47.44393" lon="-2.45166">
        <ele>8</ele>
        <time>2020-08-03T15:02:19Z</time>
      </trkpt>
      <trkpt lat="47.44392" lon="-2.45165">
        <ele>8</ele>
        <time>2020-08-03T15:02:20Z</time>
      </trkpt>
      <trkpt lat="47.44391" lon="-2.45164">
        <ele>8</ele>
        <time>2020-08-03T15:02:21Z</time>
      </trkpt>
      <trkpt lat="47.4439" lon="-2.45163">
        <ele>8</ele>
        <time>2020-08-03T15:02:22Z</time>
      </trkpt>
      <trkpt lat="47.44389" lon="-2.45163">
        <ele>8</ele>
        <time>2020-08-03T15:02:23Z</time>
      </trkpt>
      <trkpt lat="47.44388" lon="-2.45162">
        <ele>8</ele>
        <time>2020-08-03T15:02:24Z</time>
      </trkpt>
      <trkpt lat="47.44387" lon="-2.45161">
        <ele>7.8</ele>
        <time>2020-08-03T15:02:25Z</time>
      </trkpt>
      <trkpt lat="47.44387" lon="-2.45161">
        <ele>7.2</ele>
        <time>2020-08-03T15:02:26Z</time>
      </trkpt>
      <trkpt lat="47.44387" lon="-2.4516">
        <ele>7.2</ele>
        <time>2020-08-03T15:02:27Z</time>
      </trkpt>
      <trkpt lat="47.44386" lon="-2.4516">
        <ele>7.4</ele>
        <time>2020-08-03T15:02:28Z</time>
      </trkpt>
      <trkpt lat="47.44385" lon="-2.45159">
        <ele>7.6</ele>
        <time>2020-08-03T15:02:29Z</time>
      </trkpt>
      <trkpt lat="47.44384" lon="-2.45158">
        <ele>7.8</ele>
        <time>2020-08-03T15:02:30Z</time>
      </trkpt>
      <trkpt lat="47.44383" lon="-2.45157">
        <ele>8</ele>
        <time>2020-08-03T15:02:31Z</time>
      </trkpt>
      <trkpt lat="47.44383" lon="-2.45157">
        <ele>8.2</ele>
        <time>2020-08-03T15:02:32Z</time>
      </trkpt>
      <trkpt lat="47.44382" lon="-2.45156">
        <ele>8.2</ele>
        <time>2020-08-03T15:02:33Z</time>
      </trkpt>
      <trkpt lat="47.4438" lon="-2.45156">
        <ele>8.2</ele>
        <time>2020-08-03T15:02:34Z</time>
      </trkpt>
      <trkpt lat="47.44379" lon="-2.45155">
        <ele>7.8</ele>
        <time>2020-08-03T15:02:35Z</time>
      </trkpt>
      <trkpt lat="47.44379" lon="-2.45153">
        <ele>7.6</ele>
        <time>2020-08-03T15:02:36Z</time>
      </trkpt>
      <trkpt lat="47.44378" lon="-2.45152">
        <ele>7.6</ele>
        <time>2020-08-03T15:02:37Z</time>
      </trkpt>
      <trkpt lat="47.44377" lon="-2.45151">
        <ele>7.6</ele>
        <time>2020-08-03T15:02:38Z</time>
      </trkpt>
      <trkpt lat="47.44376" lon="-2.45149">
        <ele>7.8</ele>
        <time>2020-08-03T15:02:39Z</time>
      </trkpt>
      <trkpt lat="47.44375" lon="-2.45148">
        <ele>7.8</ele>
        <time>2020-08-03T15:02:40Z</time>
      </trkpt>
      <trkpt lat="47.44374" lon="-2.45147">
        <ele>7.8</ele>
        <time>2020-08-03T15:02:41Z</time>
      </trkpt>
      <trkpt lat="47.44373" lon="-2.45147">
        <ele>8</ele>
        <time>2020-08-03T15:02:42Z</time>
      </trkpt>
      <trkpt lat="47.44373" lon="-2.45145">
        <ele>7.8</ele>
        <time>2020-08-03T15:02:43Z</time>
      </trkpt>
      <trkpt lat="47.44372" lon="-2.45144">
        <ele>7.8</ele>
        <time>2020-08-03T15:02:44Z</time>
      </trkpt>
      <trkpt lat="47.44371" lon="-2.45143">
        <ele>7.8</ele>
        <time>2020-08-03T15:02:45Z</time>
      </trkpt>
      <trkpt lat="47.4437" lon="-2.45142">
        <ele>8</ele>
        <time>2020-08-03T15:02:46Z</time>
      </trkpt>
      <trkpt lat="47.44369" lon="-2.45141">
        <ele>8</ele>
        <time>2020-08-03T15:02:47Z</time>
      </trkpt>
      <trkpt lat="47.44368" lon="-2.4514">
        <ele>8</ele>
        <time>2020-08-03T15:02:48Z</time>
      </trkpt>
      <trkpt lat="47.44367" lon="-2.45139">
        <ele>8</ele>
        <time>2020-08-03T15:02:49Z</time>
      </trkpt>
      <trkpt lat="47.44366" lon="-2.45138">
        <ele>8</ele>
        <time>2020-08-03T15:02:50Z</time>
      </trkpt>
      <trkpt lat="47.44365" lon="-2.45137">
        <ele>7.8</ele>
        <time>2020-08-03T15:02:51Z</time>
      </trkpt>
      <trkpt lat="47.44364" lon="-2.45136">
        <ele>7.8</ele>
        <time>2020-08-03T15:02:52Z</time>
      </trkpt>
      <trkpt lat="47.44363" lon="-2.45135">
        <ele>7.8</ele>
        <time>2020-08-03T15:02:53Z</time>
      </trkpt>
      <trkpt lat="47.44362" lon="-2.45134">
        <ele>7.8</ele>
        <time>2020-08-03T15:02:54Z</time>
      </trkpt>
      <trkpt lat="47.44362" lon="-2.45132">
        <ele>7.6</ele>
        <time>2020-08-03T15:02:55Z</time>
      </trkpt>
      <trkpt lat="47.44362" lon="-2.45131">
        <ele>7.4</ele>
        <time>2020-08-03T15:02:56Z</time>
      </trkpt>
      <trkpt lat="47.44362" lon="-2.4513">
        <ele>7.6</ele>
        <time>2020-08-03T15:02:57Z</time>
      </trkpt>
      <trkpt lat="47.44362" lon="-2.4513">
        <ele>8</ele>
        <time>2020-08-03T15:02:58Z</time>
      </trkpt>
      <trkpt lat="47.44362" lon="-2.45129">
        <ele>8.2</ele>
        <time>2020-08-03T15:02:59Z</time>
      </trkpt>
      <trkpt lat="47.44362" lon="-2.45128">
        <ele>8</ele>
        <time>2020-08-03T15:03:00Z</time>
      </trkpt>
      <trkpt lat="47.44362" lon="-2.45127">
        <ele>8.6</ele>
        <time>2020-08-03T15:03:01Z</time>
      </trkpt>
      <trkpt lat="47.44362" lon="-2.45126">
        <ele>8.4</ele>
        <time>2020-08-03T15:03:02Z</time>
      </trkpt>
      <trkpt lat="47.44362" lon="-2.45125">
        <ele>8.2</ele>
        <time>2020-08-03T15:03:03Z</time>
      </trkpt>
      <trkpt lat="47.44356" lon="-2.45111">
        <ele>8.4</ele>
        <time>2020-08-03T15:03:17Z</time>
      </trkpt>
      <trkpt lat="47.44356" lon="-2.4511">
        <ele>8.4</ele>
        <time>2020-08-03T15:03:18Z</time>
      </trkpt>
      <trkpt lat="47.44355" lon="-2.45109">
        <ele>8.6</ele>
        <time>2020-08-03T15:03:19Z</time>
      </trkpt>
      <trkpt lat="47.44354" lon="-2.45109">
        <ele>8.6</ele>
        <time>2020-08-03T15:03:20Z</time>
      </trkpt>
      <trkpt lat="47.44354" lon="-2.45108">
        <ele>8.4</ele>
        <time>2020-08-03T15:03:21Z</time>
      </trkpt>
      <trkpt lat="47.44353" lon="-2.45108">
        <ele>8.4</ele>
        <time>2020-08-03T15:03:22Z</time>
      </trkpt>
      <trkpt lat="47.44352" lon="-2.45107">
        <ele>8.4</ele>
        <time>2020-08-03T15:03:23Z</time>
      </trkpt>
      <trkpt lat="47.44352" lon="-2.45107">
        <ele>8.2</ele>
        <time>2020-08-03T15:03:24Z</time>
      </trkpt>
      <trkpt lat="47.44351" lon="-2.45106">
        <ele>8</ele>
        <time>2020-08-03T15:03:25Z</time>
      </trkpt>
      <trkpt lat="47.44351" lon="-2.45105">
        <ele>8</ele>
        <time>2020-08-03T15:03:26Z</time>
      </trkpt>
      <trkpt lat="47.44351" lon="-2.45105">
        <ele>8</ele>
        <time>2020-08-03T15:03:27Z</time>
      </trkpt>
      <trkpt lat="47.4435" lon="-2.45104">
        <ele>8</ele>
        <time>2020-08-03T15:03:28Z</time>
      </trkpt>
      <trkpt lat="47.4435" lon="-2.45104">
        <ele>8.2</ele>
        <time>2020-08-03T15:03:29Z</time>
      </trkpt>
      <trkpt lat="47.44323" lon="-2.45087">
        <ele>3.8</ele>
        <time>2020-08-03T16:22:48Z</time>
      </trkpt>
      <trkpt lat="47.44321" lon="-2.45086">
        <ele>4</ele>
        <time>2020-08-03T16:22:49Z</time>
      </trkpt>
      <trkpt lat="47.44321" lon="-2.45085">
        <ele>4</ele>
        <time>2020-08-03T16:22:50Z</time>
      </trkpt>
      <trkpt lat="47.4432" lon="-2.45084">
        <ele>3.8</ele>
        <time>2020-08-03T16:22:51Z</time>
      </trkpt>
      <trkpt lat="47.4432" lon="-2.45084">
        <ele>3.6</ele>
        <time>2020-08-03T16:22:52Z</time>
      </trkpt>
      <trkpt lat="47.44319" lon="-2.45083">
        <ele>3.6</ele>
        <time>2020-08-03T16:22:53Z</time>
      </trkpt>
      <trkpt lat="47.44319" lon="-2.45083">
        <ele>3.8</ele>
        <time>2020-08-03T16:22:54Z</time>
      </trkpt>
      <trkpt lat="47.44318" lon="-2.45082">
        <ele>3.8</ele>
        <time>2020-08-03T16:22:55Z</time>
      </trkpt>
      <trkpt lat="47.44318" lon="-2.45081">
        <ele>3.6</ele>
        <time>2020-08-03T16:22:56Z</time>
      </trkpt>
      <trkpt lat="47.44317" lon="-2.45081">
        <ele>3.6</ele>
        <time>2020-08-03T16:22:57Z</time>
      </trkpt>
      <trkpt lat="47.44317" lon="-2.45081">
        <ele>3.4</ele>
        <time>2020-08-03T16:22:58Z</time>
      </trkpt>
      <trkpt lat="47.44317" lon="-2.45081">
        <ele>3.4</ele>
        <time>2020-08-03T16:22:59Z</time>
      </trkpt>
      <trkpt lat="47.44317" lon="-2.45081">
        <ele>3.4</ele>
        <time>2020-08-03T16:23:00Z</time>
      </trkpt>
      <trkpt lat="47.44317" lon="-2.45081">
        <ele>3.4</ele>
        <time>2020-08-03T16:23:01Z</time>
      </trkpt>
      <trkpt lat="47.44317" lon="-2.45081">
        <ele>3.8</ele>
        <time>2020-08-03T16:23:02Z</time>
      </trkpt>
      <trkpt lat="47.44317" lon="-2.45081">
        <ele>4</ele>
        <time>2020-08-03T16:23:03Z</time>
      </trkpt>
      <trkpt lat="47.44308" lon="-2.45069">
        <ele>4.2</ele>
        <time>2020-08-03T16:23:20Z</time>
      </trkpt>
      <trkpt lat="47.44306" lon="-2.45068">
        <ele>4.4</ele>
        <time>2020-08-03T16:23:21Z</time>
      </trkpt>
      <trkpt lat="47.44305" lon="-2.45067">
        <ele>4.4</ele>
        <time>2020-08-03T16:23:22Z</time>
      </trkpt>
      <trkpt lat="47.44304" lon="-2.45066">
        <ele>4.4</ele>
        <time>2020-08-03T16:23:23Z</time>
      </trkpt>
      <trkpt lat="47.44304" lon="-2.45066">
        <ele>4.2</ele>
        <time>2020-08-03T16:23:24Z</time>
      </trkpt>
      <trkpt lat="47.44303" lon="-2.45065">
        <ele>4.2</ele>
        <time>2020-08-03T16:23:25Z</time>
      </trkpt>
      <trkpt lat="47.44302" lon="-2.45064">
        <ele>4</ele>
        <time>2020-08-03T16:23:26Z</time>
      </trkpt>
      <trkpt lat="47.44302" lon="-2.45063">
        <ele>4</ele>
        <time>2020-08-03T16:23:27Z</time>
      </trkpt>
      <trkpt lat="47.44301" lon="-2.45062">
        <ele>4.2</ele>
        <time>2020-08-03T16:23:28Z</time>
      </trkpt>
      <trkpt lat="47.443" lon="-2.45061">
        <ele>4.2</ele>
        <time>2020-08-03T16:23:29Z</time>
      </trkpt>
      <trkpt lat="47.44299" lon="-2.4506">
        <ele>4.4</ele>
        <time>2020-08-03T16:23:30Z</time>
      </trkpt>
      <trkpt lat="47.44299" lon="-2.45059">
        <ele>4.4</ele>
        <time>2020-08-03T16:23:31Z</time>
      </trkpt>
      <trkpt lat="47.44298" lon="-2.45058">
        <ele>4.6</ele>
        <time>2020-08-03T16:23:32Z</time>
      </trkpt>
      <trkpt lat="47.44297" lon="-2.45058">
        <ele>4.4</ele>
        <time>2020-08-03T16:23:33Z</time>
      </trkpt>
      <trkpt lat="47.44296" lon="-2.45057">
        <ele>4.6</ele>
        <time>2020-08-03T16:23:34Z</time>
      </trkpt>
      <trkpt lat="47.44295" lon="-2.45056">
        <ele>4.6</ele>
        <time>2020-08-03T16:23:35Z</time>
      </trkpt>
      <trkpt lat="47.44295" lon="-2.45055">
        <ele>4.6</ele>
        <time>2020-08-03T16:23:36Z</time>
      </trkpt>
      <trkpt lat="47.44294" lon="-2.45055">
        <ele>4.8</ele>
        <time>2020-08-03T16:23:37Z</time>
      </trkpt>
      <trkpt lat="47.44293" lon="-2.45054">
        <ele>4.8</ele>
        <time>2020-08-03T16:23:38Z</time>
      </trkpt>
      <trkpt lat="47.44293" lon="-2.45054">
        <ele>4.4</ele>
        <time>2020-08-03T16:23:39Z</time>
      </trkpt>
      <trkpt lat="47.44293" lon="-2.45054">
        <ele>5.4</ele>
        <time>2020-08-03T16:23:40Z</time>
      </trkpt>
      <trkpt lat="47.44293" lon="-2.45054">
        <ele>5.4</ele>
        <time>2020-08-03T16:23:41Z</time>
      </trkpt>
      <trkpt lat="47.44293" lon="-2.45054">
        <ele>5</ele>
        <time>2020-08-03T16:23:42Z</time>
      </trkpt>
      <trkpt lat="47.44292" lon="-2.45053">
        <ele>5</ele>
        <time>2020-08-03T16:23:43Z</time>
      </trkpt>
      <trkpt lat="47.44291" lon="-2.45052">
        <ele>4.8</ele>
        <time>2020-08-03T16:23:44Z</time>
      </trkpt>
      <trkpt lat="47.44291" lon="-2.45051">
        <ele>4.6</ele>
        <time>2020-08-03T16:23:45Z</time>
      </trkpt>
      <trkpt lat="47.4428" lon="-2.45042">
        <ele>5</ele>
        <time>2020-08-03T16:23:52Z</time>
      </trkpt>
      <trkpt lat="47.44279" lon="-2.45041">
        <ele>5</ele>
        <time>2020-08-03T16:23:53Z</time>
      </trkpt>
      <trkpt lat="47.44275" lon="-2.45037">
        <ele>5</ele>
        <time>2020-08-03T16:23:54Z</time>
      </trkpt>
      <trkpt lat="47.44273" lon="-2.45035">
        <ele>5</ele>
        <time>2020-08-03T16:23:55Z</time>
      </trkpt>
      <trkpt lat="47.44272" lon="-2.45033">
        <ele>4.8</ele>
        <time>2020-08-03T16:23:56Z</time>
      </trkpt>
      <trkpt lat="47.44272" lon="-2.45033">
        <ele>5</ele>
        <time>2020-08-03T16:23:57Z</time>
      </trkpt>
      <trkpt lat="47.4427" lon="-2.45031">
        <ele>5.2</ele>
        <time>2020-08-03T16:23:58Z</time>
      </trkpt>
      <trkpt lat="47.44268" lon="-2.45029">
        <ele>5.4</ele>
        <time>2020-08-03T16:23:59Z</time>
      </trkpt>
      <trkpt lat="47.44266" lon="-2.45027">
        <ele>5.4</ele>
        <time>2020-08-03T16:24:00Z</time>
      </trkpt>
      <trkpt lat="47.44264" lon="-2.45025">
        <ele>5.4</ele>
        <time>2020-08-03T16:24:01Z</time>
      </trkpt>
      <trkpt lat="47.44263" lon="-2.45023">
        <ele>5</ele>
        <time>2020-08-03T16:24:02Z</time>
      </trkpt>
      <trkpt lat="47.44261" lon="-2.45021">
        <ele>5</ele>
        <time>2020-08-03T16:24:03Z</time>
      </trkpt>
      <trkpt lat="47.44259" lon="-2.45019">
        <ele>4.6</ele>
        <time>2020-08-03T16:24:04Z</time>
      </trkpt>
      <trkpt lat="47.44257" lon="-2.45017">
        <ele>4.4</ele>
        <time>2020-08-03T16:24:05Z</time>
      </trkpt>
      <trkpt lat="47.44253" lon="-2.45013">
        <ele>4.6</ele>
        <time>2020-08-03T16:24:06Z</time>
      </trkpt>
      <trkpt lat="47.44253" lon="-2.45013">
        <ele>4.4</ele>
        <time>2020-08-03T16:24:07Z</time>
      </trkpt>
      <trkpt lat="47.44251" lon="-2.45011">
        <ele>4.6</ele>
        <time>2020-08-03T16:24:08Z</time>
      </trkpt>
      <trkpt lat="47.4425" lon="-2.4501">
        <ele>4.6</ele>
        <time>2020-08-03T16:24:09Z</time>
      </trkpt>
      <trkpt lat="47.44248" lon="-2.45008">
        <ele>4.6</ele>
        <time>2020-08-03T16:24:10Z</time>
      </trkpt>
      <trkpt lat="47.44246" lon="-2.45006">
        <ele>4.6</ele>
        <time>2020-08-03T16:24:11Z</time>
      </trkpt>
      <trkpt lat="47.44244" lon="-2.45004">
        <ele>4.6</ele>
        <time>2020-08-03T16:24:12Z</time>
      </trkpt>
      <trkpt lat="47.44242" lon="-2.45002">
        <ele>4.6</ele>
        <time>2020-08-03T16:24:13Z</time>
      </trkpt>
      <trkpt lat="47.4424" lon="-2.45">
        <ele>4.6</ele>
        <time>2020-08-03T16:24:14Z</time>
      </trkpt>
      <trkpt lat="47.44238" lon="-2.44998">
        <ele>4.6</ele>
        <time>2020-08-03T16:24:15Z</time>
      </trkpt>
      <trkpt lat="47.44236" lon="-2.44996">
        <ele>4.6</ele>
        <time>2020-08-03T16:24:16Z</time>
      </trkpt>
      <trkpt lat="47.44234" lon="-2.44994">
        <ele>4.6</ele>
        <time>2020-08-03T16:24:17Z</time>
      </trkpt>
      <trkpt lat="47.44232" lon="-2.44992">
        <ele>4.6</ele>
        <time>2020-08-03T16:24:18Z</time>
      </trkpt>
      <trkpt lat="47.44231" lon="-2.4499">
        <ele>4.6</ele>
        <time>2020-08-03T16:24:19Z</time>
      </trkpt>
      <trkpt lat="47.44229" lon="-2.44988">
        <ele>4.8</ele>
        <time>2020-08-03T16:24:20Z</time>
      </trkpt>
      <trkpt lat="47.44227" lon="-2.44986">
        <ele>4.8</ele>
        <time>2020-08-03T16:24:21Z</time>
      </trkpt>
      <trkpt lat="47.44225" lon="-2.44984">
        <ele>4.8</ele>
        <time>2020-08-03T16:24:22Z</time>
      </trkpt>
      <trkpt lat="47.44224" lon="-2.44982">
        <ele>4.8</ele>
        <time>2020-08-03T16:24:23Z</time>
      </trkpt>
      <trkpt lat="47.44222" lon="-2.4498">
        <ele>4.8</ele>
        <time>2020-08-03T16:24:24Z</time>
      </trkpt>
      <trkpt lat="47.4422" lon="-2.44978">
        <ele>4.8</ele>
        <time>2020-08-03T16:24:25Z</time>
      </trkpt>
      <trkpt lat="47.44218" lon="-2.44976">
        <ele>4.8</ele>
        <time>2020-08-03T16:24:26Z</time>
      </trkpt>
      <trkpt lat="47.44217" lon="-2.44974">
        <ele>4.8</ele>
        <time>2020-08-03T16:24:27Z</time>
      </trkpt>
      <trkpt lat="47.44215" lon="-2.44973">
        <ele>5</ele>
        <time>2020-08-03T16:24:28Z</time>
      </trkpt>
      <trkpt lat="47.44213" lon="-2.44971">
        <ele>5</ele>
        <time>2020-08-03T16:24:29Z</time>
      </trkpt>
      <trkpt lat="47.44211" lon="-2.4497">
        <ele>4.8</ele>
        <time>2020-08-03T16:24:30Z</time>
      </trkpt>
      <trkpt lat="47.44208" lon="-2.44967">
        <ele>4.8</ele>
        <time>2020-08-03T16:24:31Z</time>
      </trkpt>
      <trkpt lat="47.44208" lon="-2.44967">
        <ele>4.6</ele>
        <time>2020-08-03T16:24:32Z</time>
      </trkpt>
      <trkpt lat="47.44206" lon="-2.44965">
        <ele>4.8</ele>
        <time>2020-08-03T16:24:33Z</time>
      </trkpt>
      <trkpt lat="47.44205" lon="-2.44963">
        <ele>4.8</ele>
        <time>2020-08-03T16:24:34Z</time>
      </trkpt>
      <trkpt lat="47.44203" lon="-2.44961">
        <ele>4.6</ele>
        <time>2020-08-03T16:24:35Z</time>
      </trkpt>
      <trkpt lat="47.44201" lon="-2.44959">
        <ele>4.8</ele>
        <time>2020-08-03T16:24:36Z</time>
      </trkpt>
      <trkpt lat="47.44199" lon="-2.44957">
        <ele>4.8</ele>
        <time>2020-08-03T16:24:37Z</time>
      </trkpt>
      <trkpt lat="47.44197" lon="-2.44955">
        <ele>5</ele>
        <time>2020-08-03T16:24:38Z</time>
      </trkpt>
      <trkpt lat="47.44195" lon="-2.44953">
        <ele>5.4</ele>
        <time>2020-08-03T16:24:39Z</time>
      </trkpt>
      <trkpt lat="47.44191" lon="-2.44949">
        <ele>5.4</ele>
        <time>2020-08-03T16:24:40Z</time>
      </trkpt>
      <trkpt lat="47.44191" lon="-2.44949">
        <ele>5.2</ele>
        <time>2020-08-03T16:24:41Z</time>
      </trkpt>
      <trkpt lat="47.4419" lon="-2.44947">
        <ele>5.2</ele>
        <time>2020-08-03T16:24:42Z</time>
      </trkpt>
      <trkpt lat="47.44188" lon="-2.44946">
        <ele>5</ele>
        <time>2020-08-03T16:24:43Z</time>
      </trkpt>
      <trkpt lat="47.44186" lon="-2.44943">
        <ele>4.8</ele>
        <time>2020-08-03T16:24:44Z</time>
      </trkpt>
      <trkpt lat="47.44185" lon="-2.44941">
        <ele>5</ele>
        <time>2020-08-03T16:24:45Z</time>
      </trkpt>
      <trkpt lat="47.44183" lon="-2.4494">
        <ele>5.4</ele>
        <time>2020-08-03T16:24:46Z</time>
      </trkpt>
      <trkpt lat="47.44182" lon="-2.44938">
        <ele>5.4</ele>
        <time>2020-08-03T16:24:47Z</time>
      </trkpt>
      <trkpt lat="47.4418" lon="-2.44937">
        <ele>5.2</ele>
        <time>2020-08-03T16:24:48Z</time>
      </trkpt>
      <trkpt lat="47.44178" lon="-2.44935">
        <ele>5</ele>
        <time>2020-08-03T16:24:49Z</time>
      </trkpt>
      <trkpt lat="47.44177" lon="-2.44933">
        <ele>5.2</ele>
        <time>2020-08-03T16:24:50Z</time>
      </trkpt>
      <trkpt lat="47.44175" lon="-2.44932">
        <ele>5.2</ele>
        <time>2020-08-03T16:24:51Z</time>
      </trkpt>
      <trkpt lat="47.44173" lon="-2.4493">
        <ele>5</ele>
        <time>2020-08-03T16:24:52Z</time>
      </trkpt>
      <trkpt lat="47.44172" lon="-2.44929">
        <ele>5</ele>
        <time>2020-08-03T16:24:53Z</time>
      </trkpt>
      <trkpt lat="47.4417" lon="-2.44928">
        <ele>5</ele>
        <time>2020-08-03T16:24:54Z</time>
      </trkpt>
      <trkpt lat="47.4417" lon="-2.44927">
        <ele>4.8</ele>
        <time>2020-08-03T16:24:55Z</time>
      </trkpt>
      <trkpt lat="47.44169" lon="-2.44925">
        <ele>5</ele>
        <time>2020-08-03T16:24:56Z</time>
      </trkpt>
      <trkpt lat="47.44167" lon="-2.44924">
        <ele>5.2</ele>
        <time>2020-08-03T16:24:57Z</time>
      </trkpt>
      <trkpt lat="47.44164" lon="-2.4492">
        <ele>5.2</ele>
        <time>2020-08-03T16:24:58Z</time>
      </trkpt>
      <trkpt lat="47.44164" lon="-2.4492">
        <ele>5.4</ele>
        <time>2020-08-03T16:24:59Z</time>
      </trkpt>
      <trkpt lat="47.44163" lon="-2.44919">
        <ele>5.4</ele>
        <time>2020-08-03T16:25:00Z</time>
      </trkpt>
      <trkpt lat="47.44161" lon="-2.44918">
        <ele>5.6</ele>
        <time>2020-08-03T16:25:01Z</time>
      </trkpt>
      <trkpt lat="47.44158" lon="-2.44915">
        <ele>5.4</ele>
        <time>2020-08-03T16:25:02Z</time>
      </trkpt>
      <trkpt lat="47.44158" lon="-2.44915">
        <ele>5.6</ele>
        <time>2020-08-03T16:25:03Z</time>
      </trkpt>
      <trkpt lat="47.44156" lon="-2.44914">
        <ele>5.6</ele>
        <time>2020-08-03T16:25:04Z</time>
      </trkpt>
      <trkpt lat="47.44154" lon="-2.44912">
        <ele>5.6</ele>
        <time>2020-08-03T16:25:05Z</time>
      </trkpt>
      <trkpt lat="47.44151" lon="-2.44909">
        <ele>5.4</ele>
        <time>2020-08-03T16:25:06Z</time>
      </trkpt>
      <trkpt lat="47.44151" lon="-2.44909">
        <ele>5.6</ele>
        <time>2020-08-03T16:25:07Z</time>
      </trkpt>
      <trkpt lat="47.44147" lon="-2.44906">
        <ele>5.6</ele>
        <time>2020-08-03T16:25:08Z</time>
      </trkpt>
      <trkpt lat="47.44146" lon="-2.44904">
        <ele>5.4</ele>
        <time>2020-08-03T16:25:09Z</time>
      </trkpt>
      <trkpt lat="47.44144" lon="-2.44902">
        <ele>5.6</ele>
        <time>2020-08-03T16:25:10Z</time>
      </trkpt>
      <trkpt lat="47.44144" lon="-2.44902">
        <ele>5.2</ele>
        <time>2020-08-03T16:25:11Z</time>
      </trkpt>
      <trkpt lat="47.44142" lon="-2.449">
        <ele>5.2</ele>
        <time>2020-08-03T16:25:12Z</time>
      </trkpt>
      <trkpt lat="47.44141" lon="-2.44899">
        <ele>5.4</ele>
        <time>2020-08-03T16:25:13Z</time>
      </trkpt>
      <trkpt lat="47.44139" lon="-2.44898">
        <ele>5.4</ele>
        <time>2020-08-03T16:25:14Z</time>
      </trkpt>
      <trkpt lat="47.44138" lon="-2.44897">
        <ele>5.4</ele>
        <time>2020-08-03T16:25:15Z</time>
      </trkpt>
      <trkpt lat="47.44137" lon="-2.44895">
        <ele>5.8</ele>
        <time>2020-08-03T16:25:16Z</time>
      </trkpt>
      <trkpt lat="47.44135" lon="-2.44894">
        <ele>5.6</ele>
        <time>2020-08-03T16:25:17Z</time>
      </trkpt>
      <trkpt lat="47.44133" lon="-2.44893">
        <ele>5.8</ele>
        <time>2020-08-03T16:25:18Z</time>
      </trkpt>
      <trkpt lat="47.4413" lon="-2.44891">
        <ele>5.8</ele>
        <time>2020-08-03T16:25:19Z</time>
      </trkpt>
      <trkpt lat="47.4413" lon="-2.44891">
        <ele>5.8</ele>
        <time>2020-08-03T16:25:20Z</time>
      </trkpt>
      <trkpt lat="47.44127" lon="-2.44889">
        <ele>5.6</ele>
        <time>2020-08-03T16:25:21Z</time>
      </trkpt>
      <trkpt lat="47.44125" lon="-2.44887">
        <ele>5.4</ele>
        <time>2020-08-03T16:25:22Z</time>
      </trkpt>
      <trkpt lat="47.4412" lon="-2.44883">
        <ele>5.6</ele>
        <time>2020-08-03T16:25:23Z</time>
      </trkpt>
      <trkpt lat="47.4412" lon="-2.44883">
        <ele>5.6</ele>
        <time>2020-08-03T16:25:24Z</time>
      </trkpt>
      <trkpt lat="47.44118" lon="-2.44881">
        <ele>5.6</ele>
        <time>2020-08-03T16:25:25Z</time>
      </trkpt>
      <trkpt lat="47.44116" lon="-2.44879">
        <ele>5.8</ele>
        <time>2020-08-03T16:25:26Z</time>
      </trkpt>
      <trkpt lat="47.44112" lon="-2.44876">
        <ele>6</ele>
        <time>2020-08-03T16:25:27Z</time>
      </trkpt>
      <trkpt lat="47.44112" lon="-2.44876">
        <ele>6</ele>
        <time>2020-08-03T16:25:28Z</time>
      </trkpt>
      <trkpt lat="47.4411" lon="-2.44875">
        <ele>5.8</ele>
        <time>2020-08-03T16:25:29Z</time>
      </trkpt>
      <trkpt lat="47.44108" lon="-2.44873">
        <ele>5.6</ele>
        <time>2020-08-03T16:25:30Z</time>
      </trkpt>
      <trkpt lat="47.44106" lon="-2.44871">
        <ele>5.4</ele>
        <time>2020-08-03T16:25:31Z</time>
      </trkpt>
      <trkpt lat="47.44102" lon="-2.44868">
        <ele>5.6</ele>
        <time>2020-08-03T16:25:32Z</time>
      </trkpt>
      <trkpt lat="47.44102" lon="-2.44868">
        <ele>5.6</ele>
        <time>2020-08-03T16:25:33Z</time>
      </trkpt>
      <trkpt lat="47.44098" lon="-2.44865">
        <ele>5.6</ele>
        <time>2020-08-03T16:25:34Z</time>
      </trkpt>
      <trkpt lat="47.44096" lon="-2.44863">
        <ele>5.6</ele>
        <time>2020-08-03T16:25:35Z</time>
      </trkpt>
      <trkpt lat="47.44094" lon="-2.44861">
        <ele>5.6</ele>
        <time>2020-08-03T16:25:36Z</time>
      </trkpt>
      <trkpt lat="47.44092" lon="-2.4486">
        <ele>6</ele>
        <time>2020-08-03T16:25:37Z</time>
      </trkpt>
      <trkpt lat="47.44091" lon="-2.44859">
        <ele>5.6</ele>
        <time>2020-08-03T16:25:38Z</time>
      </trkpt>
      <trkpt lat="47.4409" lon="-2.44858">
        <ele>5.6</ele>
        <time>2020-08-03T16:25:39Z</time>
      </trkpt>
      <trkpt lat="47.4409" lon="-2.44857">
        <ele>5.4</ele>
        <time>2020-08-03T16:25:40Z</time>
      </trkpt>
      <trkpt lat="47.4409" lon="-2.44857">
        <ele>5.2</ele>
        <time>2020-08-03T16:25:41Z</time>
      </trkpt>
      <trkpt lat="47.4409" lon="-2.44857">
        <ele>5.4</ele>
        <time>2020-08-03T16:25:42Z</time>
      </trkpt>
      <trkpt lat="47.4409" lon="-2.44857">
        <ele>5.4</ele>
        <time>2020-08-03T16:25:43Z</time>
      </trkpt>
      <trkpt lat="47.4409" lon="-2.44857">
        <ele>5.4</ele>
        <time>2020-08-03T16:25:44Z</time>
      </trkpt>
      <trkpt lat="47.44089" lon="-2.44857">
        <ele>5.4</ele>
        <time>2020-08-03T16:25:45Z</time>
      </trkpt>
      <trkpt lat="47.4409" lon="-2.44857">
        <ele>5.6</ele>
        <time>2020-08-03T16:25:46Z</time>
      </trkpt>
      <trkpt lat="47.44089" lon="-2.44857">
        <ele>5.6</ele>
        <time>2020-08-03T16:25:47Z</time>
      </trkpt>
      <trkpt lat="47.44069" lon="-2.44836">
        <ele>5.6</ele>
        <time>2020-08-03T16:26:32Z</time>
      </trkpt>
      <trkpt lat="47.44069" lon="-2.44835">
        <ele>5.6</ele>
        <time>2020-08-03T16:26:33Z</time>
      </trkpt>
      <trkpt lat="47.44068" lon="-2.44834">
        <ele>5.6</ele>
        <time>2020-08-03T16:26:34Z</time>
      </trkpt>
      <trkpt lat="47.44067" lon="-2.44833">
        <ele>5.6</ele>
        <time>2020-08-03T16:26:35Z</time>
      </trkpt>
      <trkpt lat="47.44066" lon="-2.44832">
        <ele>5.8</ele>
        <time>2020-08-03T16:26:36Z</time>
      </trkpt>
      <trkpt lat="47.44065" lon="-2.44832">
        <ele>5.8</ele>
        <time>2020-08-03T16:26:37Z</time>
      </trkpt>
      <trkpt lat="47.44064" lon="-2.44831">
        <ele>5.8</ele>
        <time>2020-08-03T16:26:38Z</time>
      </trkpt>
      <trkpt lat="47.44063" lon="-2.4483">
        <ele>5.6</ele>
        <time>2020-08-03T16:26:39Z</time>
      </trkpt>
      <trkpt lat="47.44062" lon="-2.44829">
        <ele>5.4</ele>
        <time>2020-08-03T16:26:40Z</time>
      </trkpt>
      <trkpt lat="47.44062" lon="-2.44829">
        <ele>5.6</ele>
        <time>2020-08-03T16:26:41Z</time>
      </trkpt>
      <trkpt lat="47.44061" lon="-2.44828">
        <ele>5.6</ele>
        <time>2020-08-03T16:26:42Z</time>
      </trkpt>
      <trkpt lat="47.4406" lon="-2.44827">
        <ele>5.6</ele>
        <time>2020-08-03T16:26:43Z</time>
      </trkpt>
      <trkpt lat="47.44059" lon="-2.44826">
        <ele>5.6</ele>
        <time>2020-08-03T16:26:44Z</time>
      </trkpt>
      <trkpt lat="47.44057" lon="-2.44824">
        <ele>5.6</ele>
        <time>2020-08-03T16:26:45Z</time>
      </trkpt>
      <trkpt lat="47.44056" lon="-2.44823">
        <ele>5.6</ele>
        <time>2020-08-03T16:26:46Z</time>
      </trkpt>
      <trkpt lat="47.44055" lon="-2.44822">
        <ele>5.6</ele>
        <time>2020-08-03T16:26:47Z</time>
      </trkpt>
      <trkpt lat="47.44054" lon="-2.44821">
        <ele>5.8</ele>
        <time>2020-08-03T16:26:48Z</time>
      </trkpt>
      <trkpt lat="47.44053" lon="-2.4482">
        <ele>5.8</ele>
        <time>2020-08-03T16:26:49Z</time>
      </trkpt>
      <trkpt lat="47.44052" lon="-2.4482">
        <ele>5.8</ele>
        <time>2020-08-03T16:26:50Z</time>
      </trkpt>
      <trkpt lat="47.44051" lon="-2.44819">
        <ele>5.8</ele>
        <time>2020-08-03T16:26:51Z</time>
      </trkpt>
      <trkpt lat="47.4405" lon="-2.44818">
        <ele>5.8</ele>
        <time>2020-08-03T16:26:52Z</time>
      </trkpt>
      <trkpt lat="47.44049" lon="-2.44817">
        <ele>6.2</ele>
        <time>2020-08-03T16:26:53Z</time>
      </trkpt>
      <trkpt lat="47.44048" lon="-2.44816">
        <ele>6.2</ele>
        <time>2020-08-03T16:26:54Z</time>
      </trkpt>
      <trkpt lat="47.44047" lon="-2.44815">
        <ele>6</ele>
        <time>2020-08-03T16:26:55Z</time>
      </trkpt>
      <trkpt lat="47.44046" lon="-2.44814">
        <ele>5.8</ele>
        <time>2020-08-03T16:26:56Z</time>
      </trkpt>
      <trkpt lat="47.44045" lon="-2.44813">
        <ele>5.8</ele>
        <time>2020-08-03T16:26:57Z</time>
      </trkpt>
      <trkpt lat="47.44044" lon="-2.44812">
        <ele>5.8</ele>
        <time>2020-08-03T16:26:58Z</time>
      </trkpt>
      <trkpt lat="47.44043" lon="-2.44812">
        <ele>5.6</ele>
        <time>2020-08-03T16:26:59Z</time>
      </trkpt>
      <trkpt lat="47.44042" lon="-2.44811">
        <ele>5.8</ele>
        <time>2020-08-03T16:27:00Z</time>
      </trkpt>
      <trkpt lat="47.44041" lon="-2.4481">
        <ele>5.8</ele>
        <time>2020-08-03T16:27:01Z</time>
      </trkpt>
      <trkpt lat="47.4404" lon="-2.44809">
        <ele>5.8</ele>
        <time>2020-08-03T16:27:02Z</time>
      </trkpt>
      <trkpt lat="47.44039" lon="-2.44808">
        <ele>5.8</ele>
        <time>2020-08-03T16:27:03Z</time>
      </trkpt>
      <trkpt lat="47.44038" lon="-2.44807">
        <ele>5.8</ele>
        <time>2020-08-03T16:27:04Z</time>
      </trkpt>
      <trkpt lat="47.44037" lon="-2.44806">
        <ele>6</ele>
        <time>2020-08-03T16:27:05Z</time>
      </trkpt>
      <trkpt lat="47.44036" lon="-2.44805">
        <ele>6</ele>
        <time>2020-08-03T16:27:06Z</time>
      </trkpt>
      <trkpt lat="47.44036" lon="-2.44804">
        <ele>5.8</ele>
        <time>2020-08-03T16:27:07Z</time>
      </trkpt>
      <trkpt lat="47.44035" lon="-2.44803">
        <ele>5.6</ele>
        <time>2020-08-03T16:27:08Z</time>
      </trkpt>
      <trkpt lat="47.44034" lon="-2.44803">
        <ele>5.8</ele>
        <time>2020-08-03T16:27:09Z</time>
      </trkpt>
      <trkpt lat="47.44033" lon="-2.44802">
        <ele>5.8</ele>
        <time>2020-08-03T16:27:10Z</time>
      </trkpt>
      <trkpt lat="47.44032" lon="-2.44801">
        <ele>5.8</ele>
        <time>2020-08-03T16:27:11Z</time>
      </trkpt>
      <trkpt lat="47.44031" lon="-2.448">
        <ele>5.8</ele>
        <time>2020-08-03T16:27:12Z</time>
      </trkpt>
      <trkpt lat="47.4403" lon="-2.448">
        <ele>6</ele>
        <time>2020-08-03T16:27:13Z</time>
      </trkpt>
      <trkpt lat="47.44029" lon="-2.44799">
        <ele>6</ele>
        <time>2020-08-03T16:27:14Z</time>
      </trkpt>
      <trkpt lat="47.44028" lon="-2.44798">
        <ele>6</ele>
        <time>2020-08-03T16:27:15Z</time>
      </trkpt>
      <trkpt lat="47.44027" lon="-2.44798">
        <ele>6</ele>
        <time>2020-08-03T16:27:16Z</time>
      </trkpt>
      <trkpt lat="47.44026" lon="-2.44797">
        <ele>6</ele>
        <time>2020-08-03T16:27:17Z</time>
      </trkpt>
      <trkpt lat="47.44025" lon="-2.44797">
        <ele>6</ele>
        <time>2020-08-03T16:27:18Z</time>
      </trkpt>
      <trkpt lat="47.44024" lon="-2.44796">
        <ele>6</ele>
        <time>2020-08-03T16:27:19Z</time>
      </trkpt>
      <trkpt lat="47.44023" lon="-2.44795">
        <ele>6</ele>
        <time>2020-08-03T16:27:20Z</time>
      </trkpt>
      <trkpt lat="47.44022" lon="-2.44794">
        <ele>5.8</ele>
        <time>2020-08-03T16:27:21Z</time>
      </trkpt>
      <trkpt lat="47.44021" lon="-2.44793">
        <ele>5.8</ele>
        <time>2020-08-03T16:27:22Z</time>
      </trkpt>
      <trkpt lat="47.4402" lon="-2.44792">
        <ele>5.8</ele>
        <time>2020-08-03T16:27:23Z</time>
      </trkpt>
      <trkpt lat="47.44019" lon="-2.44791">
        <ele>5.6</ele>
        <time>2020-08-03T16:27:24Z</time>
      </trkpt>
      <trkpt lat="47.44018" lon="-2.4479">
        <ele>5.6</ele>
        <time>2020-08-03T16:27:25Z</time>
      </trkpt>
      <trkpt lat="47.44017" lon="-2.4479">
        <ele>5.6</ele>
        <time>2020-08-03T16:27:26Z</time>
      </trkpt>
      <trkpt lat="47.44016" lon="-2.44789">
        <ele>5.6</ele>
        <time>2020-08-03T16:27:27Z</time>
      </trkpt>
      <trkpt lat="47.44015" lon="-2.44787">
        <ele>5.6</ele>
        <time>2020-08-03T16:27:28Z</time>
      </trkpt>
      <trkpt lat="47.44015" lon="-2.44786">
        <ele>5.6</ele>
        <time>2020-08-03T16:27:29Z</time>
      </trkpt>
      <trkpt lat="47.44014" lon="-2.44785">
        <ele>5.8</ele>
        <time>2020-08-03T16:27:30Z</time>
      </trkpt>
      <trkpt lat="47.44012" lon="-2.44784">
        <ele>5.8</ele>
        <time>2020-08-03T16:27:31Z</time>
      </trkpt>
      <trkpt lat="47.44011" lon="-2.44784">
        <ele>5.8</ele>
        <time>2020-08-03T16:27:32Z</time>
      </trkpt>
      <trkpt lat="47.4401" lon="-2.44783">
        <ele>6</ele>
        <time>2020-08-03T16:27:33Z</time>
      </trkpt>
      <trkpt lat="47.44009" lon="-2.44782">
        <ele>5.8</ele>
        <time>2020-08-03T16:27:34Z</time>
      </trkpt>
      <trkpt lat="47.44008" lon="-2.44781">
        <ele>5.8</ele>
        <time>2020-08-03T16:27:35Z</time>
      </trkpt>
      <trkpt lat="47.44007" lon="-2.4478">
        <ele>5.8</ele>
        <time>2020-08-03T16:27:36Z</time>
      </trkpt>
      <trkpt lat="47.44006" lon="-2.44779">
        <ele>6</ele>
        <time>2020-08-03T16:27:37Z</time>
      </trkpt>
      <trkpt lat="47.44005" lon="-2.44778">
        <ele>5.8</ele>
        <time>2020-08-03T16:27:38Z</time>
      </trkpt>
      <trkpt lat="47.44004" lon="-2.44778">
        <ele>5.8</ele>
        <time>2020-08-03T16:27:39Z</time>
      </trkpt>
      <trkpt lat="47.44003" lon="-2.44777">
        <ele>6.2</ele>
        <time>2020-08-03T16:27:40Z</time>
      </trkpt>
      <trkpt lat="47.44002" lon="-2.44776">
        <ele>6</ele>
        <time>2020-08-03T16:27:41Z</time>
      </trkpt>
      <trkpt lat="47.44001" lon="-2.44775">
        <ele>6</ele>
        <time>2020-08-03T16:27:42Z</time>
      </trkpt>
      <trkpt lat="47.44" lon="-2.44774">
        <ele>6</ele>
        <time>2020-08-03T16:27:43Z</time>
      </trkpt>
      <trkpt lat="47.43999" lon="-2.44773">
        <ele>6</ele>
        <time>2020-08-03T16:27:44Z</time>
      </trkpt>
      <trkpt lat="47.43998" lon="-2.44773">
        <ele>6</ele>
        <time>2020-08-03T16:27:45Z</time>
      </trkpt>
      <trkpt lat="47.43997" lon="-2.44772">
        <ele>6</ele>
        <time>2020-08-03T16:27:46Z</time>
      </trkpt>
      <trkpt lat="47.43996" lon="-2.44771">
        <ele>6.2</ele>
        <time>2020-08-03T16:27:47Z</time>
      </trkpt>
      <trkpt lat="47.43995" lon="-2.4477">
        <ele>6.2</ele>
        <time>2020-08-03T16:27:48Z</time>
      </trkpt>
      <trkpt lat="47.43994" lon="-2.4477">
        <ele>6</ele>
        <time>2020-08-03T16:27:49Z</time>
      </trkpt>
      <trkpt lat="47.43993" lon="-2.44769">
        <ele>6</ele>
        <time>2020-08-03T16:27:50Z</time>
      </trkpt>
      <trkpt lat="47.43993" lon="-2.44768">
        <ele>6</ele>
        <time>2020-08-03T16:27:51Z</time>
      </trkpt>
      <trkpt lat="47.43992" lon="-2.44767">
        <ele>6</ele>
        <time>2020-08-03T16:27:52Z</time>
      </trkpt>
      <trkpt lat="47.43991" lon="-2.44766">
        <ele>6.2</ele>
        <time>2020-08-03T16:27:53Z</time>
      </trkpt>
      <trkpt lat="47.4399" lon="-2.44766">
        <ele>6</ele>
        <time>2020-08-03T16:27:54Z</time>
      </trkpt>
      <trkpt lat="47.43989" lon="-2.44765">
        <ele>5.8</ele>
        <time>2020-08-03T16:27:55Z</time>
      </trkpt>
      <trkpt lat="47.43988" lon="-2.44764">
        <ele>5.8</ele>
        <time>2020-08-03T16:27:56Z</time>
      </trkpt>
      <trkpt lat="47.43987" lon="-2.44763">
        <ele>5.6</ele>
        <time>2020-08-03T16:27:57Z</time>
      </trkpt>
      <trkpt lat="47.43986" lon="-2.44762">
        <ele>6</ele>
        <time>2020-08-03T16:27:58Z</time>
      </trkpt>
      <trkpt lat="47.43985" lon="-2.44762">
        <ele>6.2</ele>
        <time>2020-08-03T16:27:59Z</time>
      </trkpt>
      <trkpt lat="47.43984" lon="-2.44761">
        <ele>6</ele>
        <time>2020-08-03T16:28:00Z</time>
      </trkpt>
      <trkpt lat="47.43983" lon="-2.4476">
        <ele>5.8</ele>
        <time>2020-08-03T16:28:01Z</time>
      </trkpt>
      <trkpt lat="47.43982" lon="-2.44759">
        <ele>6</ele>
        <time>2020-08-03T16:28:02Z</time>
      </trkpt>
      <trkpt lat="47.43981" lon="-2.44758">
        <ele>5.8</ele>
        <time>2020-08-03T16:28:03Z</time>
      </trkpt>
      <trkpt lat="47.4398" lon="-2.44757">
        <ele>6</ele>
        <time>2020-08-03T16:28:04Z</time>
      </trkpt>
      <trkpt lat="47.43979" lon="-2.44757">
        <ele>6</ele>
        <time>2020-08-03T16:28:05Z</time>
      </trkpt>
      <trkpt lat="47.43978" lon="-2.44756">
        <ele>5.8</ele>
        <time>2020-08-03T16:28:06Z</time>
      </trkpt>
      <trkpt lat="47.43977" lon="-2.44755">
        <ele>6.2</ele>
        <time>2020-08-03T16:28:07Z</time>
      </trkpt>
      <trkpt lat="47.43976" lon="-2.44754">
        <ele>6</ele>
        <time>2020-08-03T16:28:08Z</time>
      </trkpt>
      <trkpt lat="47.43975" lon="-2.44753">
        <ele>5.8</ele>
        <time>2020-08-03T16:28:09Z</time>
      </trkpt>
      <trkpt lat="47.43974" lon="-2.44752">
        <ele>5.8</ele>
        <time>2020-08-03T16:28:10Z</time>
      </trkpt>
      <trkpt lat="47.43973" lon="-2.44751">
        <ele>5.6</ele>
        <time>2020-08-03T16:28:11Z</time>
      </trkpt>
      <trkpt lat="47.43972" lon="-2.4475">
        <ele>5.8</ele>
        <time>2020-08-03T16:28:12Z</time>
      </trkpt>
      <trkpt lat="47.43971" lon="-2.4475">
        <ele>6</ele>
        <time>2020-08-03T16:28:13Z</time>
      </trkpt>
      <trkpt lat="47.4397" lon="-2.44749">
        <ele>6</ele>
        <time>2020-08-03T16:28:14Z</time>
      </trkpt>
      <trkpt lat="47.43969" lon="-2.44748">
        <ele>6</ele>
        <time>2020-08-03T16:28:15Z</time>
      </trkpt>
      <trkpt lat="47.43968" lon="-2.44747">
        <ele>6</ele>
        <time>2020-08-03T16:28:16Z</time>
      </trkpt>
      <trkpt lat="47.43967" lon="-2.44746">
        <ele>6</ele>
        <time>2020-08-03T16:28:17Z</time>
      </trkpt>
      <trkpt lat="47.43966" lon="-2.44746">
        <ele>5.8</ele>
        <time>2020-08-03T16:28:18Z</time>
      </trkpt>
      <trkpt lat="47.43965" lon="-2.44745">
        <ele>5.8</ele>
        <time>2020-08-03T16:28:19Z</time>
      </trkpt>
      <trkpt lat="47.43965" lon="-2.44744">
        <ele>5.6</ele>
        <time>2020-08-03T16:28:20Z</time>
      </trkpt>
      <trkpt lat="47.43964" lon="-2.44743">
        <ele>5.8</ele>
        <time>2020-08-03T16:28:21Z</time>
      </trkpt>
      <trkpt lat="47.43963" lon="-2.44742">
        <ele>6</ele>
        <time>2020-08-03T16:28:22Z</time>
      </trkpt>
      <trkpt lat="47.43962" lon="-2.44742">
        <ele>6</ele>
        <time>2020-08-03T16:28:23Z</time>
      </trkpt>
      <trkpt lat="47.43961" lon="-2.44741">
        <ele>6</ele>
        <time>2020-08-03T16:28:24Z</time>
      </trkpt>
      <trkpt lat="47.4396" lon="-2.4474">
        <ele>6</ele>
        <time>2020-08-03T16:28:25Z</time>
      </trkpt>
      <trkpt lat="47.43959" lon="-2.4474">
        <ele>6</ele>
        <time>2020-08-03T16:28:26Z</time>
      </trkpt>
      <trkpt lat="47.43959" lon="-2.44739">
        <ele>5.8</ele>
        <time>2020-08-03T16:28:27Z</time>
      </trkpt>
      <trkpt lat="47.43958" lon="-2.44738">
        <ele>5.8</ele>
        <time>2020-08-03T16:28:28Z</time>
      </trkpt>
      <trkpt lat="47.43957" lon="-2.44737">
        <ele>5.8</ele>
        <time>2020-08-03T16:28:29Z</time>
      </trkpt>
      <trkpt lat="47.43956" lon="-2.44736">
        <ele>5.6</ele>
        <time>2020-08-03T16:28:30Z</time>
      </trkpt>
      <trkpt lat="47.43955" lon="-2.44735">
        <ele>5.8</ele>
        <time>2020-08-03T16:28:31Z</time>
      </trkpt>
      <trkpt lat="47.43954" lon="-2.44734">
        <ele>6.2</ele>
        <time>2020-08-03T16:28:32Z</time>
      </trkpt>
      <trkpt lat="47.43953" lon="-2.44733">
        <ele>6.4</ele>
        <time>2020-08-03T16:28:33Z</time>
      </trkpt>
      <trkpt lat="47.43952" lon="-2.44733">
        <ele>6.4</ele>
        <time>2020-08-03T16:28:34Z</time>
      </trkpt>
      <trkpt lat="47.43951" lon="-2.44732">
        <ele>6.4</ele>
        <time>2020-08-03T16:28:35Z</time>
      </trkpt>
      <trkpt lat="47.43951" lon="-2.44732">
        <ele>6</ele>
        <time>2020-08-03T16:28:36Z</time>
      </trkpt>
      <trkpt lat="47.4395" lon="-2.44731">
        <ele>6</ele>
        <time>2020-08-03T16:28:37Z</time>
      </trkpt>
      <trkpt lat="47.43949" lon="-2.4473">
        <ele>6</ele>
        <time>2020-08-03T16:28:38Z</time>
      </trkpt>
      <trkpt lat="47.43948" lon="-2.44729">
        <ele>6</ele>
        <time>2020-08-03T16:28:39Z</time>
      </trkpt>
      <trkpt lat="47.43947" lon="-2.44729">
        <ele>5.8</ele>
        <time>2020-08-03T16:28:40Z</time>
      </trkpt>
      <trkpt lat="47.43947" lon="-2.44728">
        <ele>5.4</ele>
        <time>2020-08-03T16:28:41Z</time>
      </trkpt>
      <trkpt lat="47.43946" lon="-2.44727">
        <ele>5.8</ele>
        <time>2020-08-03T16:28:42Z</time>
      </trkpt>
      <trkpt lat="47.43945" lon="-2.44727">
        <ele>6.4</ele>
        <time>2020-08-03T16:28:43Z</time>
      </trkpt>
      <trkpt lat="47.43944" lon="-2.44726">
        <ele>6.4</ele>
        <time>2020-08-03T16:28:44Z</time>
      </trkpt>
      <trkpt lat="47.43943" lon="-2.44725">
        <ele>6.2</ele>
        <time>2020-08-03T16:28:45Z</time>
      </trkpt>
      <trkpt lat="47.43943" lon="-2.44725">
        <ele>6.2</ele>
        <time>2020-08-03T16:28:46Z</time>
      </trkpt>
      <trkpt lat="47.43942" lon="-2.44724">
        <ele>6</ele>
        <time>2020-08-03T16:28:47Z</time>
      </trkpt>
      <trkpt lat="47.43941" lon="-2.44723">
        <ele>6</ele>
        <time>2020-08-03T16:28:48Z</time>
      </trkpt>
      <trkpt lat="47.4394" lon="-2.44722">
        <ele>6.2</ele>
        <time>2020-08-03T16:28:49Z</time>
      </trkpt>
      <trkpt lat="47.43939" lon="-2.44721">
        <ele>6.2</ele>
        <time>2020-08-03T16:28:50Z</time>
      </trkpt>
      <trkpt lat="47.43938" lon="-2.44721">
        <ele>6.2</ele>
        <time>2020-08-03T16:28:51Z</time>
      </trkpt>
      <trkpt lat="47.43937" lon="-2.4472">
        <ele>6.2</ele>
        <time>2020-08-03T16:28:52Z</time>
      </trkpt>
      <trkpt lat="47.43936" lon="-2.44719">
        <ele>6</ele>
        <time>2020-08-03T16:28:53Z</time>
      </trkpt>
      <trkpt lat="47.43935" lon="-2.44718">
        <ele>6</ele>
        <time>2020-08-03T16:28:54Z</time>
      </trkpt>
      <trkpt lat="47.43934" lon="-2.44717">
        <ele>6</ele>
        <time>2020-08-03T16:28:55Z</time>
      </trkpt>
      <trkpt lat="47.43933" lon="-2.44716">
        <ele>5.8</ele>
        <time>2020-08-03T16:28:56Z</time>
      </trkpt>
      <trkpt lat="47.43932" lon="-2.44716">
        <ele>6</ele>
        <time>2020-08-03T16:28:57Z</time>
      </trkpt>
      <trkpt lat="47.43931" lon="-2.44715">
        <ele>6</ele>
        <time>2020-08-03T16:28:58Z</time>
      </trkpt>
      <trkpt lat="47.4393" lon="-2.44714">
        <ele>6</ele>
        <time>2020-08-03T16:28:59Z</time>
      </trkpt>
      <trkpt lat="47.43929" lon="-2.44714">
        <ele>6.2</ele>
        <time>2020-08-03T16:29:00Z</time>
      </trkpt>
      <trkpt lat="47.43928" lon="-2.44713">
        <ele>6.2</ele>
        <time>2020-08-03T16:29:01Z</time>
      </trkpt>
      <trkpt lat="47.43927" lon="-2.44712">
        <ele>6.2</ele>
        <time>2020-08-03T16:29:02Z</time>
      </trkpt>
      <trkpt lat="47.43927" lon="-2.44711">
        <ele>6</ele>
        <time>2020-08-03T16:29:03Z</time>
      </trkpt>
      <trkpt lat="47.43926" lon="-2.4471">
        <ele>5.8</ele>
        <time>2020-08-03T16:29:04Z</time>
      </trkpt>
      <trkpt lat="47.43925" lon="-2.4471">
        <ele>6.2</ele>
        <time>2020-08-03T16:29:05Z</time>
      </trkpt>
      <trkpt lat="47.43924" lon="-2.44709">
        <ele>6.2</ele>
        <time>2020-08-03T16:29:06Z</time>
      </trkpt>
      <trkpt lat="47.43923" lon="-2.44708">
        <ele>6.2</ele>
        <time>2020-08-03T16:29:07Z</time>
      </trkpt>
      <trkpt lat="47.43922" lon="-2.44708">
        <ele>6</ele>
        <time>2020-08-03T16:29:08Z</time>
      </trkpt>
      <trkpt lat="47.43921" lon="-2.44707">
        <ele>6.2</ele>
        <time>2020-08-03T16:29:09Z</time>
      </trkpt>
      <trkpt lat="47.4392" lon="-2.44706">
        <ele>6.2</ele>
        <time>2020-08-03T16:29:10Z</time>
      </trkpt>
      <trkpt lat="47.43919" lon="-2.44705">
        <ele>6.2</ele>
        <time>2020-08-03T16:29:11Z</time>
      </trkpt>
      <trkpt lat="47.43918" lon="-2.44705">
        <ele>6.2</ele>
        <time>2020-08-03T16:29:12Z</time>
      </trkpt>
      <trkpt lat="47.43917" lon="-2.44704">
        <ele>6</ele>
        <time>2020-08-03T16:29:13Z</time>
      </trkpt>
      <trkpt lat="47.43916" lon="-2.44703">
        <ele>6.2</ele>
        <time>2020-08-03T16:29:14Z</time>
      </trkpt>
      <trkpt lat="47.43915" lon="-2.44703">
        <ele>6.2</ele>
        <time>2020-08-03T16:29:15Z</time>
      </trkpt>
      <trkpt lat="47.43914" lon="-2.44702">
        <ele>6.2</ele>
        <time>2020-08-03T16:29:16Z</time>
      </trkpt>
      <trkpt lat="47.43913" lon="-2.44701">
        <ele>6</ele>
        <time>2020-08-03T16:29:17Z</time>
      </trkpt>
      <trkpt lat="47.43912" lon="-2.44701">
        <ele>6</ele>
        <time>2020-08-03T16:29:18Z</time>
      </trkpt>
      <trkpt lat="47.43912" lon="-2.447">
        <ele>6.2</ele>
        <time>2020-08-03T16:29:19Z</time>
      </trkpt>
      <trkpt lat="47.43911" lon="-2.44699">
        <ele>6.2</ele>
        <time>2020-08-03T16:29:20Z</time>
      </trkpt>
      <trkpt lat="47.4391" lon="-2.44698">
        <ele>6.2</ele>
        <time>2020-08-03T16:29:21Z</time>
      </trkpt>
      <trkpt lat="47.43909" lon="-2.44698">
        <ele>6</ele>
        <time>2020-08-03T16:29:22Z</time>
      </trkpt>
      <trkpt lat="47.43908" lon="-2.44697">
        <ele>6.2</ele>
        <time>2020-08-03T16:29:23Z</time>
      </trkpt>
      <trkpt lat="47.43907" lon="-2.44696">
        <ele>6.2</ele>
        <time>2020-08-03T16:29:24Z</time>
      </trkpt>
      <trkpt lat="47.43906" lon="-2.44696">
        <ele>6.2</ele>
        <time>2020-08-03T16:29:25Z</time>
      </trkpt>
      <trkpt lat="47.43905" lon="-2.44695">
        <ele>6.2</ele>
        <time>2020-08-03T16:29:26Z</time>
      </trkpt>
      <trkpt lat="47.43904" lon="-2.44694">
        <ele>6.2</ele>
        <time>2020-08-03T16:29:27Z</time>
      </trkpt>
      <trkpt lat="47.43903" lon="-2.44693">
        <ele>6.2</ele>
        <time>2020-08-03T16:29:28Z</time>
      </trkpt>
      <trkpt lat="47.43902" lon="-2.44692">
        <ele>6.2</ele>
        <time>2020-08-03T16:29:29Z</time>
      </trkpt>
      <trkpt lat="47.43901" lon="-2.44692">
        <ele>5.8</ele>
        <time>2020-08-03T16:29:30Z</time>
      </trkpt>
      <trkpt lat="47.439" lon="-2.4469">
        <ele>5.8</ele>
        <time>2020-08-03T16:29:31Z</time>
      </trkpt>
      <trkpt lat="47.43899" lon="-2.4469">
        <ele>6</ele>
        <time>2020-08-03T16:29:32Z</time>
      </trkpt>
      <trkpt lat="47.43898" lon="-2.44689">
        <ele>6</ele>
        <time>2020-08-03T16:29:33Z</time>
      </trkpt>
      <trkpt lat="47.43898" lon="-2.44687">
        <ele>6</ele>
        <time>2020-08-03T16:29:34Z</time>
      </trkpt>
      <trkpt lat="47.43897" lon="-2.44686">
        <ele>5.8</ele>
        <time>2020-08-03T16:29:35Z</time>
      </trkpt>
      <trkpt lat="47.43896" lon="-2.44685">
        <ele>6</ele>
        <time>2020-08-03T16:29:36Z</time>
      </trkpt>
      <trkpt lat="47.43896" lon="-2.44684">
        <ele>6</ele>
        <time>2020-08-03T16:29:37Z</time>
      </trkpt>
      <trkpt lat="47.43895" lon="-2.44683">
        <ele>5.8</ele>
        <time>2020-08-03T16:29:38Z</time>
      </trkpt>
      <trkpt lat="47.43895" lon="-2.44681">
        <ele>5.8</ele>
        <time>2020-08-03T16:29:39Z</time>
      </trkpt>
      <trkpt lat="47.43894" lon="-2.44681">
        <ele>6</ele>
        <time>2020-08-03T16:29:40Z</time>
      </trkpt>
      <trkpt lat="47.43893" lon="-2.4468">
        <ele>6</ele>
        <time>2020-08-03T16:29:41Z</time>
      </trkpt>
      <trkpt lat="47.43892" lon="-2.44679">
        <ele>6.2</ele>
        <time>2020-08-03T16:29:42Z</time>
      </trkpt>
      <trkpt lat="47.43892" lon="-2.44679">
        <ele>6.4</ele>
        <time>2020-08-03T16:29:43Z</time>
      </trkpt>
      <trkpt lat="47.43891" lon="-2.44679">
        <ele>6.2</ele>
        <time>2020-08-03T16:29:44Z</time>
      </trkpt>
      <trkpt lat="47.4389" lon="-2.44678">
        <ele>5.4</ele>
        <time>2020-08-03T16:29:45Z</time>
      </trkpt>
      <trkpt lat="47.43889" lon="-2.44677">
        <ele>5.8</ele>
        <time>2020-08-03T16:29:46Z</time>
      </trkpt>
      <trkpt lat="47.43889" lon="-2.44676">
        <ele>6.2</ele>
        <time>2020-08-03T16:29:47Z</time>
      </trkpt>
      <trkpt lat="47.43888" lon="-2.44675">
        <ele>6.2</ele>
        <time>2020-08-03T16:29:48Z</time>
      </trkpt>
      <trkpt lat="47.43887" lon="-2.44675">
        <ele>6.2</ele>
        <time>2020-08-03T16:29:49Z</time>
      </trkpt>
      <trkpt lat="47.43886" lon="-2.44675">
        <ele>6.6</ele>
        <time>2020-08-03T16:29:50Z</time>
      </trkpt>
      <trkpt lat="47.43885" lon="-2.44674">
        <ele>6.8</ele>
        <time>2020-08-03T16:29:51Z</time>
      </trkpt>
      <trkpt lat="47.43885" lon="-2.44674">
        <ele>6.8</ele>
        <time>2020-08-03T16:29:52Z</time>
      </trkpt>
      <trkpt lat="47.43884" lon="-2.44674">
        <ele>6.6</ele>
        <time>2020-08-03T16:29:53Z</time>
      </trkpt>
      <trkpt lat="47.43883" lon="-2.44673">
        <ele>6.4</ele>
        <time>2020-08-03T16:29:54Z</time>
      </trkpt>
      <trkpt lat="47.43882" lon="-2.44673">
        <ele>6.2</ele>
        <time>2020-08-03T16:29:55Z</time>
      </trkpt>
      <trkpt lat="47.43881" lon="-2.44672">
        <ele>6.4</ele>
        <time>2020-08-03T16:29:56Z</time>
      </trkpt>
      <trkpt lat="47.43881" lon="-2.44672">
        <ele>6.6</ele>
        <time>2020-08-03T16:29:57Z</time>
      </trkpt>
      <trkpt lat="47.4388" lon="-2.44671">
        <ele>6.8</ele>
        <time>2020-08-03T16:29:58Z</time>
      </trkpt>
      <trkpt lat="47.43879" lon="-2.44672">
        <ele>6.6</ele>
        <time>2020-08-03T16:29:59Z</time>
      </trkpt>
      <trkpt lat="47.43878" lon="-2.44672">
        <ele>6.8</ele>
        <time>2020-08-03T16:30:00Z</time>
      </trkpt>
      <trkpt lat="47.43877" lon="-2.44673">
        <ele>6.8</ele>
        <time>2020-08-03T16:30:01Z</time>
      </trkpt>
      <trkpt lat="47.43876" lon="-2.44673">
        <ele>6.6</ele>
        <time>2020-08-03T16:30:02Z</time>
      </trkpt>
      <trkpt lat="47.43875" lon="-2.44673">
        <ele>6.8</ele>
        <time>2020-08-03T16:30:03Z</time>
      </trkpt>
      <trkpt lat="47.43874" lon="-2.44673">
        <ele>6.8</ele>
        <time>2020-08-03T16:30:04Z</time>
      </trkpt>
      <trkpt lat="47.43873" lon="-2.44672">
        <ele>6.2</ele>
        <time>2020-08-03T16:30:05Z</time>
      </trkpt>
      <trkpt lat="47.43872" lon="-2.44672">
        <ele>5.8</ele>
        <time>2020-08-03T16:30:06Z</time>
      </trkpt>
      <trkpt lat="47.43871" lon="-2.44671">
        <ele>6.4</ele>
        <time>2020-08-03T16:30:07Z</time>
      </trkpt>
      <trkpt lat="47.4387" lon="-2.44671">
        <ele>6.6</ele>
        <time>2020-08-03T16:30:08Z</time>
      </trkpt>
      <trkpt lat="47.43869" lon="-2.4467">
        <ele>6.4</ele>
        <time>2020-08-03T16:30:09Z</time>
      </trkpt>
      <trkpt lat="47.43868" lon="-2.4467">
        <ele>6.2</ele>
        <time>2020-08-03T16:30:10Z</time>
      </trkpt>
      <trkpt lat="47.43867" lon="-2.4467">
        <ele>6.2</ele>
        <time>2020-08-03T16:30:11Z</time>
      </trkpt>
      <trkpt lat="47.43866" lon="-2.44669">
        <ele>6.2</ele>
        <time>2020-08-03T16:30:12Z</time>
      </trkpt>
      <trkpt lat="47.43865" lon="-2.44668">
        <ele>6</ele>
        <time>2020-08-03T16:30:13Z</time>
      </trkpt>
      <trkpt lat="47.43864" lon="-2.44668">
        <ele>6.2</ele>
        <time>2020-08-03T16:30:14Z</time>
      </trkpt>
      <trkpt lat="47.43863" lon="-2.44667">
        <ele>6.2</ele>
        <time>2020-08-03T16:30:15Z</time>
      </trkpt>
      <trkpt lat="47.43862" lon="-2.44667">
        <ele>6</ele>
        <time>2020-08-03T16:30:16Z</time>
      </trkpt>
      <trkpt lat="47.43861" lon="-2.44666">
        <ele>6</ele>
        <time>2020-08-03T16:30:17Z</time>
      </trkpt>
      <trkpt lat="47.4386" lon="-2.44666">
        <ele>6.2</ele>
        <time>2020-08-03T16:30:18Z</time>
      </trkpt>
      <trkpt lat="47.43859" lon="-2.44665">
        <ele>6.4</ele>
        <time>2020-08-03T16:30:19Z</time>
      </trkpt>
      <trkpt lat="47.43858" lon="-2.44665">
        <ele>6.2</ele>
        <time>2020-08-03T16:30:20Z</time>
      </trkpt>
      <trkpt lat="47.43857" lon="-2.44664">
        <ele>6.2</ele>
        <time>2020-08-03T16:30:21Z</time>
      </trkpt>
      <trkpt lat="47.43856" lon="-2.44664">
        <ele>6.4</ele>
        <time>2020-08-03T16:30:22Z</time>
      </trkpt>
      <trkpt lat="47.43855" lon="-2.44663">
        <ele>6.4</ele>
        <time>2020-08-03T16:30:23Z</time>
      </trkpt>
      <trkpt lat="47.43854" lon="-2.44663">
        <ele>6.6</ele>
        <time>2020-08-03T16:30:24Z</time>
      </trkpt>
      <trkpt lat="47.43853" lon="-2.44663">
        <ele>6.4</ele>
        <time>2020-08-03T16:30:25Z</time>
      </trkpt>
      <trkpt lat="47.43852" lon="-2.44662">
        <ele>6.4</ele>
        <time>2020-08-03T16:30:26Z</time>
      </trkpt>
      <trkpt lat="47.43851" lon="-2.44662">
        <ele>6.4</ele>
        <time>2020-08-03T16:30:27Z</time>
      </trkpt>
      <trkpt lat="47.4385" lon="-2.44662">
        <ele>6.4</ele>
        <time>2020-08-03T16:30:28Z</time>
      </trkpt>
      <trkpt lat="47.43849" lon="-2.44661">
        <ele>6.2</ele>
        <time>2020-08-03T16:30:29Z</time>
      </trkpt>
      <trkpt lat="47.43849" lon="-2.44661">
        <ele>5.8</ele>
        <time>2020-08-03T16:30:30Z</time>
      </trkpt>
      <trkpt lat="47.43848" lon="-2.4466">
        <ele>6</ele>
        <time>2020-08-03T16:30:31Z</time>
      </trkpt>
      <trkpt lat="47.43847" lon="-2.4466">
        <ele>6.8</ele>
        <time>2020-08-03T16:30:32Z</time>
      </trkpt>
      <trkpt lat="47.43846" lon="-2.4466">
        <ele>6.8</ele>
        <time>2020-08-03T16:30:33Z</time>
      </trkpt>
      <trkpt lat="47.43845" lon="-2.4466">
        <ele>6.6</ele>
        <time>2020-08-03T16:30:34Z</time>
      </trkpt>
      <trkpt lat="47.43844" lon="-2.44659">
        <ele>6.4</ele>
        <time>2020-08-03T16:30:35Z</time>
      </trkpt>
      <trkpt lat="47.43843" lon="-2.44659">
        <ele>6.4</ele>
        <time>2020-08-03T16:30:36Z</time>
      </trkpt>
      <trkpt lat="47.43842" lon="-2.44658">
        <ele>6.4</ele>
        <time>2020-08-03T16:30:37Z</time>
      </trkpt>
      <trkpt lat="47.43841" lon="-2.44658">
        <ele>6.4</ele>
        <time>2020-08-03T16:30:38Z</time>
      </trkpt>
      <trkpt lat="47.4384" lon="-2.44658">
        <ele>6.4</ele>
        <time>2020-08-03T16:30:39Z</time>
      </trkpt>
      <trkpt lat="47.43839" lon="-2.44657">
        <ele>6.4</ele>
        <time>2020-08-03T16:30:40Z</time>
      </trkpt>
      <trkpt lat="47.43838" lon="-2.44657">
        <ele>6</ele>
        <time>2020-08-03T16:30:41Z</time>
      </trkpt>
      <trkpt lat="47.43837" lon="-2.44656">
        <ele>6.2</ele>
        <time>2020-08-03T16:30:42Z</time>
      </trkpt>
      <trkpt lat="47.43836" lon="-2.44656">
        <ele>6.2</ele>
        <time>2020-08-03T16:30:43Z</time>
      </trkpt>
      <trkpt lat="47.43836" lon="-2.44656">
        <ele>6.2</ele>
        <time>2020-08-03T16:30:44Z</time>
      </trkpt>
      <trkpt lat="47.43835" lon="-2.44656">
        <ele>6.2</ele>
        <time>2020-08-03T16:30:45Z</time>
      </trkpt>
      <trkpt lat="47.43834" lon="-2.44655">
        <ele>6.2</ele>
        <time>2020-08-03T16:30:46Z</time>
      </trkpt>
      <trkpt lat="47.43833" lon="-2.44655">
        <ele>6.4</ele>
        <time>2020-08-03T16:30:47Z</time>
      </trkpt>
      <trkpt lat="47.43832" lon="-2.44655">
        <ele>6.2</ele>
        <time>2020-08-03T16:30:48Z</time>
      </trkpt>
      <trkpt lat="47.43831" lon="-2.44654">
        <ele>6</ele>
        <time>2020-08-03T16:30:49Z</time>
      </trkpt>
      <trkpt lat="47.4383" lon="-2.44653">
        <ele>6</ele>
        <time>2020-08-03T16:30:50Z</time>
      </trkpt>
      <trkpt lat="47.43829" lon="-2.44653">
        <ele>6</ele>
        <time>2020-08-03T16:30:51Z</time>
      </trkpt>
      <trkpt lat="47.43828" lon="-2.44653">
        <ele>6.4</ele>
        <time>2020-08-03T16:30:52Z</time>
      </trkpt>
      <trkpt lat="47.43827" lon="-2.44652">
        <ele>6.6</ele>
        <time>2020-08-03T16:30:53Z</time>
      </trkpt>
      <trkpt lat="47.43826" lon="-2.44652">
        <ele>6.6</ele>
        <time>2020-08-03T16:30:54Z</time>
      </trkpt>
      <trkpt lat="47.43825" lon="-2.44652">
        <ele>6.6</ele>
        <time>2020-08-03T16:30:55Z</time>
      </trkpt>
      <trkpt lat="47.43825" lon="-2.44652">
        <ele>6.4</ele>
        <time>2020-08-03T16:30:56Z</time>
      </trkpt>
      <trkpt lat="47.43824" lon="-2.44651">
        <ele>6.4</ele>
        <time>2020-08-03T16:30:57Z</time>
      </trkpt>
      <trkpt lat="47.43823" lon="-2.44651">
        <ele>6.6</ele>
        <time>2020-08-03T16:30:58Z</time>
      </trkpt>
      <trkpt lat="47.43822" lon="-2.44651">
        <ele>7</ele>
        <time>2020-08-03T16:30:59Z</time>
      </trkpt>
      <trkpt lat="47.43821" lon="-2.4465">
        <ele>6.8</ele>
        <time>2020-08-03T16:31:00Z</time>
      </trkpt>
      <trkpt lat="47.4382" lon="-2.4465">
        <ele>6.6</ele>
        <time>2020-08-03T16:31:01Z</time>
      </trkpt>
      <trkpt lat="47.4382" lon="-2.4465">
        <ele>6.4</ele>
        <time>2020-08-03T16:31:02Z</time>
      </trkpt>
      <trkpt lat="47.43819" lon="-2.44649">
        <ele>6.4</ele>
        <time>2020-08-03T16:31:03Z</time>
      </trkpt>
      <trkpt lat="47.43818" lon="-2.44649">
        <ele>6.6</ele>
        <time>2020-08-03T16:31:04Z</time>
      </trkpt>
      <trkpt lat="47.43817" lon="-2.44649">
        <ele>6.6</ele>
        <time>2020-08-03T16:31:05Z</time>
      </trkpt>
      <trkpt lat="47.43816" lon="-2.44649">
        <ele>6</ele>
        <time>2020-08-03T16:31:06Z</time>
      </trkpt>
      <trkpt lat="47.43815" lon="-2.44648">
        <ele>6.4</ele>
        <time>2020-08-03T16:31:07Z</time>
      </trkpt>
      <trkpt lat="47.43815" lon="-2.44648">
        <ele>6.4</ele>
        <time>2020-08-03T16:31:08Z</time>
      </trkpt>
      <trkpt lat="47.43814" lon="-2.44648">
        <ele>6.4</ele>
        <time>2020-08-03T16:31:09Z</time>
      </trkpt>
      <trkpt lat="47.43813" lon="-2.44648">
        <ele>6.2</ele>
        <time>2020-08-03T16:31:10Z</time>
      </trkpt>
      <trkpt lat="47.43812" lon="-2.44647">
        <ele>6</ele>
        <time>2020-08-03T16:31:11Z</time>
      </trkpt>
      <trkpt lat="47.43812" lon="-2.44647">
        <ele>6.2</ele>
        <time>2020-08-03T16:31:12Z</time>
      </trkpt>
      <trkpt lat="47.43811" lon="-2.44647">
        <ele>6.2</ele>
        <time>2020-08-03T16:31:13Z</time>
      </trkpt>
      <trkpt lat="47.4381" lon="-2.44646">
        <ele>6</ele>
        <time>2020-08-03T16:31:14Z</time>
      </trkpt>
      <trkpt lat="47.43809" lon="-2.44646">
        <ele>6.2</ele>
        <time>2020-08-03T16:31:15Z</time>
      </trkpt>
      <trkpt lat="47.43808" lon="-2.44645">
        <ele>6</ele>
        <time>2020-08-03T16:31:16Z</time>
      </trkpt>
      <trkpt lat="47.43807" lon="-2.44645">
        <ele>6</ele>
        <time>2020-08-03T16:31:17Z</time>
      </trkpt>
      <trkpt lat="47.43806" lon="-2.44644">
        <ele>6.2</ele>
        <time>2020-08-03T16:31:18Z</time>
      </trkpt>
      <trkpt lat="47.43805" lon="-2.44644">
        <ele>6.2</ele>
        <time>2020-08-03T16:31:19Z</time>
      </trkpt>
      <trkpt lat="47.43805" lon="-2.44644">
        <ele>6.2</ele>
        <time>2020-08-03T16:31:20Z</time>
      </trkpt>
      <trkpt lat="47.43804" lon="-2.44644">
        <ele>6.2</ele>
        <time>2020-08-03T16:31:21Z</time>
      </trkpt>
      <trkpt lat="47.43803" lon="-2.44643">
        <ele>5.8</ele>
        <time>2020-08-03T16:31:22Z</time>
      </trkpt>
      <trkpt lat="47.43802" lon="-2.44643">
        <ele>6</ele>
        <time>2020-08-03T16:31:23Z</time>
      </trkpt>
      <trkpt lat="47.43801" lon="-2.44642">
        <ele>6</ele>
        <time>2020-08-03T16:31:24Z</time>
      </trkpt>
      <trkpt lat="47.43801" lon="-2.44641">
        <ele>6</ele>
        <time>2020-08-03T16:31:25Z</time>
      </trkpt>
      <trkpt lat="47.438" lon="-2.44641">
        <ele>6</ele>
        <time>2020-08-03T16:31:26Z</time>
      </trkpt>
      <trkpt lat="47.43799" lon="-2.4464">
        <ele>6.2</ele>
        <time>2020-08-03T16:31:27Z</time>
      </trkpt>
      <trkpt lat="47.43798" lon="-2.4464">
        <ele>6.2</ele>
        <time>2020-08-03T16:31:28Z</time>
      </trkpt>
      <trkpt lat="47.43797" lon="-2.4464">
        <ele>6.2</ele>
        <time>2020-08-03T16:31:29Z</time>
      </trkpt>
      <trkpt lat="47.43796" lon="-2.44639">
        <ele>6.2</ele>
        <time>2020-08-03T16:31:30Z</time>
      </trkpt>
      <trkpt lat="47.43796" lon="-2.44639">
        <ele>6</ele>
        <time>2020-08-03T16:31:31Z</time>
      </trkpt>
      <trkpt lat="47.43795" lon="-2.44639">
        <ele>6</ele>
        <time>2020-08-03T16:31:32Z</time>
      </trkpt>
      <trkpt lat="47.43794" lon="-2.44638">
        <ele>5.8</ele>
        <time>2020-08-03T16:31:33Z</time>
      </trkpt>
      <trkpt lat="47.43793" lon="-2.44638">
        <ele>5.8</ele>
        <time>2020-08-03T16:31:34Z</time>
      </trkpt>
      <trkpt lat="47.43792" lon="-2.44637">
        <ele>6</ele>
        <time>2020-08-03T16:31:35Z</time>
      </trkpt>
      <trkpt lat="47.43791" lon="-2.44637">
        <ele>5.6</ele>
        <time>2020-08-03T16:31:36Z</time>
      </trkpt>
      <trkpt lat="47.43791" lon="-2.44636">
        <ele>5.4</ele>
        <time>2020-08-03T16:31:37Z</time>
      </trkpt>
      <trkpt lat="47.4379" lon="-2.44636">
        <ele>5.4</ele>
        <time>2020-08-03T16:31:38Z</time>
      </trkpt>
      <trkpt lat="47.43789" lon="-2.44635">
        <ele>5.4</ele>
        <time>2020-08-03T16:31:39Z</time>
      </trkpt>
      <trkpt lat="47.43789" lon="-2.44635">
        <ele>5.8</ele>
        <time>2020-08-03T16:31:40Z</time>
      </trkpt>
      <trkpt lat="47.43788" lon="-2.44634">
        <ele>5.8</ele>
        <time>2020-08-03T16:31:41Z</time>
      </trkpt>
      <trkpt lat="47.43787" lon="-2.44634">
        <ele>5.8</ele>
        <time>2020-08-03T16:31:42Z</time>
      </trkpt>
      <trkpt lat="47.43786" lon="-2.44634">
        <ele>5.6</ele>
        <time>2020-08-03T16:31:43Z</time>
      </trkpt>
      <trkpt lat="47.43785" lon="-2.44633">
        <ele>5.8</ele>
        <time>2020-08-03T16:31:44Z</time>
      </trkpt>
      <trkpt lat="47.43784" lon="-2.44633">
        <ele>6</ele>
        <time>2020-08-03T16:31:45Z</time>
      </trkpt>
      <trkpt lat="47.43784" lon="-2.44633">
        <ele>5.8</ele>
        <time>2020-08-03T16:31:46Z</time>
      </trkpt>
      <trkpt lat="47.43783" lon="-2.44632">
        <ele>5.6</ele>
        <time>2020-08-03T16:31:47Z</time>
      </trkpt>
      <trkpt lat="47.43782" lon="-2.44632">
        <ele>5.6</ele>
        <time>2020-08-03T16:31:48Z</time>
      </trkpt>
      <trkpt lat="47.43781" lon="-2.44631">
        <ele>5.6</ele>
        <time>2020-08-03T16:31:49Z</time>
      </trkpt>
      <trkpt lat="47.4378" lon="-2.44631">
        <ele>6</ele>
        <time>2020-08-03T16:31:50Z</time>
      </trkpt>
      <trkpt lat="47.4378" lon="-2.44631">
        <ele>6</ele>
        <time>2020-08-03T16:31:51Z</time>
      </trkpt>
      <trkpt lat="47.43779" lon="-2.4463">
        <ele>5.8</ele>
        <time>2020-08-03T16:31:52Z</time>
      </trkpt>
      <trkpt lat="47.43778" lon="-2.4463">
        <ele>5.6</ele>
        <time>2020-08-03T16:31:53Z</time>
      </trkpt>
      <trkpt lat="47.43777" lon="-2.44629">
        <ele>5.8</ele>
        <time>2020-08-03T16:31:54Z</time>
      </trkpt>
      <trkpt lat="47.43776" lon="-2.44628">
        <ele>5.8</ele>
        <time>2020-08-03T16:31:55Z</time>
      </trkpt>
      <trkpt lat="47.43776" lon="-2.44628">
        <ele>5.6</ele>
        <time>2020-08-03T16:31:56Z</time>
      </trkpt>
      <trkpt lat="47.43775" lon="-2.44627">
        <ele>6</ele>
        <time>2020-08-03T16:31:57Z</time>
      </trkpt>
      <trkpt lat="47.43774" lon="-2.44627">
        <ele>5.8</ele>
        <time>2020-08-03T16:31:58Z</time>
      </trkpt>
      <trkpt lat="47.43773" lon="-2.44626">
        <ele>6</ele>
        <time>2020-08-03T16:31:59Z</time>
      </trkpt>
      <trkpt lat="47.43772" lon="-2.44626">
        <ele>6</ele>
        <time>2020-08-03T16:32:00Z</time>
      </trkpt>
      <trkpt lat="47.43771" lon="-2.44626">
        <ele>6</ele>
        <time>2020-08-03T16:32:01Z</time>
      </trkpt>
      <trkpt lat="47.43771" lon="-2.44625">
        <ele>6</ele>
        <time>2020-08-03T16:32:02Z</time>
      </trkpt>
      <trkpt lat="47.4377" lon="-2.44625">
        <ele>6</ele>
        <time>2020-08-03T16:32:03Z</time>
      </trkpt>
      <trkpt lat="47.43769" lon="-2.44624">
        <ele>6</ele>
        <time>2020-08-03T16:32:04Z</time>
      </trkpt>
      <trkpt lat="47.43768" lon="-2.44624">
        <ele>6</ele>
        <time>2020-08-03T16:32:05Z</time>
      </trkpt>
      <trkpt lat="47.43768" lon="-2.44624">
        <ele>6</ele>
        <time>2020-08-03T16:32:06Z</time>
      </trkpt>
      <trkpt lat="47.43767" lon="-2.44623">
        <ele>5.6</ele>
        <time>2020-08-03T16:32:07Z</time>
      </trkpt>
      <trkpt lat="47.43766" lon="-2.44623">
        <ele>5.8</ele>
        <time>2020-08-03T16:32:08Z</time>
      </trkpt>
      <trkpt lat="47.43765" lon="-2.44623">
        <ele>5.8</ele>
        <time>2020-08-03T16:32:09Z</time>
      </trkpt>
      <trkpt lat="47.43764" lon="-2.44622">
        <ele>6</ele>
        <time>2020-08-03T16:32:10Z</time>
      </trkpt>
      <trkpt lat="47.43763" lon="-2.44622">
        <ele>6.2</ele>
        <time>2020-08-03T16:32:11Z</time>
      </trkpt>
      <trkpt lat="47.43762" lon="-2.44621">
        <ele>6.2</ele>
        <time>2020-08-03T16:32:12Z</time>
      </trkpt>
      <trkpt lat="47.43761" lon="-2.44621">
        <ele>6</ele>
        <time>2020-08-03T16:32:13Z</time>
      </trkpt>
      <trkpt lat="47.4376" lon="-2.44621">
        <ele>6</ele>
        <time>2020-08-03T16:32:14Z</time>
      </trkpt>
      <trkpt lat="47.43759" lon="-2.4462">
        <ele>6</ele>
        <time>2020-08-03T16:32:15Z</time>
      </trkpt>
      <trkpt lat="47.43758" lon="-2.4462">
        <ele>5.8</ele>
        <time>2020-08-03T16:32:16Z</time>
      </trkpt>
      <trkpt lat="47.43758" lon="-2.4462">
        <ele>5.8</ele>
        <time>2020-08-03T16:32:17Z</time>
      </trkpt>
      <trkpt lat="47.43757" lon="-2.44619">
        <ele>5.6</ele>
        <time>2020-08-03T16:32:18Z</time>
      </trkpt>
      <trkpt lat="47.43756" lon="-2.44619">
        <ele>5.6</ele>
        <time>2020-08-03T16:32:19Z</time>
      </trkpt>
      <trkpt lat="47.43755" lon="-2.44618">
        <ele>5.6</ele>
        <time>2020-08-03T16:32:20Z</time>
      </trkpt>
      <trkpt lat="47.43754" lon="-2.44618">
        <ele>5.8</ele>
        <time>2020-08-03T16:32:21Z</time>
      </trkpt>
      <trkpt lat="47.43753" lon="-2.44618">
        <ele>5.8</ele>
        <time>2020-08-03T16:32:22Z</time>
      </trkpt>
      <trkpt lat="47.43752" lon="-2.44617">
        <ele>5.8</ele>
        <time>2020-08-03T16:32:23Z</time>
      </trkpt>
      <trkpt lat="47.43751" lon="-2.44617">
        <ele>6</ele>
        <time>2020-08-03T16:32:24Z</time>
      </trkpt>
      <trkpt lat="47.4375" lon="-2.44617">
        <ele>6.4</ele>
        <time>2020-08-03T16:32:25Z</time>
      </trkpt>
      <trkpt lat="47.4375" lon="-2.44617">
        <ele>6</ele>
        <time>2020-08-03T16:32:26Z</time>
      </trkpt>
      <trkpt lat="47.43749" lon="-2.44616">
        <ele>5.4</ele>
        <time>2020-08-03T16:32:27Z</time>
      </trkpt>
      <trkpt lat="47.4375" lon="-2.44616">
        <ele>5.2</ele>
        <time>2020-08-03T16:32:28Z</time>
      </trkpt>
      <trkpt lat="47.4375" lon="-2.44616">
        <ele>5</ele>
        <time>2020-08-03T16:32:29Z</time>
      </trkpt>
      <trkpt lat="47.4375" lon="-2.44616">
        <ele>5</ele>
        <time>2020-08-03T16:32:30Z</time>
      </trkpt>
      <trkpt lat="47.4375" lon="-2.44616">
        <ele>5.2</ele>
        <time>2020-08-03T16:32:31Z</time>
      </trkpt>
      <trkpt lat="47.4375" lon="-2.44617">
        <ele>5</ele>
        <time>2020-08-03T16:32:32Z</time>
      </trkpt>
      <trkpt lat="47.4375" lon="-2.44617">
        <ele>5.2</ele>
        <time>2020-08-03T16:32:33Z</time>
      </trkpt>
      <trkpt lat="47.43741" lon="-2.44614">
        <ele>6</ele>
        <time>2020-08-03T16:32:42Z</time>
      </trkpt>
      <trkpt lat="47.4374" lon="-2.44614">
        <ele>6</ele>
        <time>2020-08-03T16:32:43Z</time>
      </trkpt>
      <trkpt lat="47.43739" lon="-2.44613">
        <ele>6</ele>
        <time>2020-08-03T16:32:44Z</time>
      </trkpt>
      <trkpt lat="47.43738" lon="-2.44613">
        <ele>5.8</ele>
        <time>2020-08-03T16:32:45Z</time>
      </trkpt>
      <trkpt lat="47.43737" lon="-2.44613">
        <ele>6</ele>
        <time>2020-08-03T16:32:46Z</time>
      </trkpt>
      <trkpt lat="47.43736" lon="-2.44612">
        <ele>6</ele>
        <time>2020-08-03T16:32:47Z</time>
      </trkpt>
      <trkpt lat="47.43735" lon="-2.44612">
        <ele>6.2</ele>
        <time>2020-08-03T16:32:48Z</time>
      </trkpt>
      <trkpt lat="47.43734" lon="-2.44612">
        <ele>6</ele>
        <time>2020-08-03T16:32:49Z</time>
      </trkpt>
      <trkpt lat="47.43733" lon="-2.44611">
        <ele>6</ele>
        <time>2020-08-03T16:32:50Z</time>
      </trkpt>
      <trkpt lat="47.43732" lon="-2.44611">
        <ele>6</ele>
        <time>2020-08-03T16:32:51Z</time>
      </trkpt>
      <trkpt lat="47.43732" lon="-2.44611">
        <ele>6</ele>
        <time>2020-08-03T16:32:52Z</time>
      </trkpt>
      <trkpt lat="47.43731" lon="-2.4461">
        <ele>6.2</ele>
        <time>2020-08-03T16:32:53Z</time>
      </trkpt>
      <trkpt lat="47.4373" lon="-2.4461">
        <ele>6.2</ele>
        <time>2020-08-03T16:32:54Z</time>
      </trkpt>
      <trkpt lat="47.4373" lon="-2.4461">
        <ele>6.2</ele>
        <time>2020-08-03T16:32:55Z</time>
      </trkpt>
      <trkpt lat="47.4373" lon="-2.4461">
        <ele>6.4</ele>
        <time>2020-08-03T16:32:56Z</time>
      </trkpt>
      <trkpt lat="47.4373" lon="-2.4461">
        <ele>6.2</ele>
        <time>2020-08-03T16:32:57Z</time>
      </trkpt>
      <trkpt lat="47.4373" lon="-2.4461">
        <ele>6.2</ele>
        <time>2020-08-03T16:32:58Z</time>
      </trkpt>
      <trkpt lat="47.43729" lon="-2.4461">
        <ele>6.4</ele>
        <time>2020-08-03T16:32:59Z</time>
      </trkpt>
      <trkpt lat="47.43728" lon="-2.44609">
        <ele>6.4</ele>
        <time>2020-08-03T16:33:00Z</time>
      </trkpt>
      <trkpt lat="47.43727" lon="-2.44608">
        <ele>6</ele>
        <time>2020-08-03T16:33:01Z</time>
      </trkpt>
      <trkpt lat="47.43718" lon="-2.44606">
        <ele>6.4</ele>
        <time>2020-08-03T16:33:07Z</time>
      </trkpt>
      <trkpt lat="47.43716" lon="-2.44606">
        <ele>6.4</ele>
        <time>2020-08-03T16:33:08Z</time>
      </trkpt>
      <trkpt lat="47.43714" lon="-2.44605">
        <ele>6.4</ele>
        <time>2020-08-03T16:33:09Z</time>
      </trkpt>
      <trkpt lat="47.43713" lon="-2.44604">
        <ele>6.6</ele>
        <time>2020-08-03T16:33:10Z</time>
      </trkpt>
      <trkpt lat="47.43711" lon="-2.44604">
        <ele>6.4</ele>
        <time>2020-08-03T16:33:11Z</time>
      </trkpt>
      <trkpt lat="47.4371" lon="-2.44603">
        <ele>6.4</ele>
        <time>2020-08-03T16:33:12Z</time>
      </trkpt>
      <trkpt lat="47.43709" lon="-2.44602">
        <ele>6.6</ele>
        <time>2020-08-03T16:33:13Z</time>
      </trkpt>
      <trkpt lat="47.43708" lon="-2.44602">
        <ele>6.6</ele>
        <time>2020-08-03T16:33:14Z</time>
      </trkpt>
      <trkpt lat="47.43708" lon="-2.44602">
        <ele>6.4</ele>
        <time>2020-08-03T16:33:15Z</time>
      </trkpt>
      <trkpt lat="47.43708" lon="-2.44602">
        <ele>6.2</ele>
        <time>2020-08-03T16:33:16Z</time>
      </trkpt>
      <trkpt lat="47.43707" lon="-2.44602">
        <ele>6.2</ele>
        <time>2020-08-03T16:33:17Z</time>
      </trkpt>
      <trkpt lat="47.43706" lon="-2.44601">
        <ele>6.6</ele>
        <time>2020-08-03T16:33:18Z</time>
      </trkpt>
      <trkpt lat="47.43705" lon="-2.44601">
        <ele>6.6</ele>
        <time>2020-08-03T16:33:19Z</time>
      </trkpt>
      <trkpt lat="47.43705" lon="-2.44601">
        <ele>6.8</ele>
        <time>2020-08-03T16:33:20Z</time>
      </trkpt>
      <trkpt lat="47.43704" lon="-2.44601">
        <ele>6.8</ele>
        <time>2020-08-03T16:33:21Z</time>
      </trkpt>
      <trkpt lat="47.43703" lon="-2.44601">
        <ele>6.8</ele>
        <time>2020-08-03T16:33:22Z</time>
      </trkpt>
      <trkpt lat="47.43702" lon="-2.44602">
        <ele>6.4</ele>
        <time>2020-08-03T16:33:23Z</time>
      </trkpt>
      <trkpt lat="47.43701" lon="-2.44602">
        <ele>6.4</ele>
        <time>2020-08-03T16:33:24Z</time>
      </trkpt>
      <trkpt lat="47.437" lon="-2.44602">
        <ele>6.2</ele>
        <time>2020-08-03T16:33:25Z</time>
      </trkpt>
      <trkpt lat="47.43699" lon="-2.44602">
        <ele>6.2</ele>
        <time>2020-08-03T16:33:26Z</time>
      </trkpt>
      <trkpt lat="47.43698" lon="-2.44602">
        <ele>6.4</ele>
        <time>2020-08-03T16:33:27Z</time>
      </trkpt>
      <trkpt lat="47.43697" lon="-2.44601">
        <ele>6.2</ele>
        <time>2020-08-03T16:33:28Z</time>
      </trkpt>
      <trkpt lat="47.43696" lon="-2.44601">
        <ele>6.2</ele>
        <time>2020-08-03T16:33:29Z</time>
      </trkpt>
      <trkpt lat="47.43694" lon="-2.44601">
        <ele>6.2</ele>
        <time>2020-08-03T16:33:30Z</time>
      </trkpt>
      <trkpt lat="47.43693" lon="-2.44601">
        <ele>6.4</ele>
        <time>2020-08-03T16:33:31Z</time>
      </trkpt>
      <trkpt lat="47.43692" lon="-2.44601">
        <ele>6.4</ele>
        <time>2020-08-03T16:33:32Z</time>
      </trkpt>
      <trkpt lat="47.43691" lon="-2.44601">
        <ele>6.2</ele>
        <time>2020-08-03T16:33:33Z</time>
      </trkpt>
      <trkpt lat="47.4369" lon="-2.446">
        <ele>6.2</ele>
        <time>2020-08-03T16:33:34Z</time>
      </trkpt>
      <trkpt lat="47.4369" lon="-2.446">
        <ele>5.8</ele>
        <time>2020-08-03T16:33:35Z</time>
      </trkpt>
      <trkpt lat="47.43689" lon="-2.446">
        <ele>6.4</ele>
        <time>2020-08-03T16:33:36Z</time>
      </trkpt>
      <trkpt lat="47.43688" lon="-2.446">
        <ele>6.6</ele>
        <time>2020-08-03T16:33:37Z</time>
      </trkpt>
      <trkpt lat="47.43687" lon="-2.446">
        <ele>6.4</ele>
        <time>2020-08-03T16:33:38Z</time>
      </trkpt>
      <trkpt lat="47.43685" lon="-2.446">
        <ele>6.4</ele>
        <time>2020-08-03T16:33:39Z</time>
      </trkpt>
      <trkpt lat="47.43683" lon="-2.446">
        <ele>6.4</ele>
        <time>2020-08-03T16:33:40Z</time>
      </trkpt>
      <trkpt lat="47.4368" lon="-2.44599">
        <ele>6.2</ele>
        <time>2020-08-03T16:33:41Z</time>
      </trkpt>
      <trkpt lat="47.43678" lon="-2.44599">
        <ele>6</ele>
        <time>2020-08-03T16:33:42Z</time>
      </trkpt>
      <trkpt lat="47.43675" lon="-2.44599">
        <ele>6.2</ele>
        <time>2020-08-03T16:33:43Z</time>
      </trkpt>
      <trkpt lat="47.43673" lon="-2.44598">
        <ele>6.2</ele>
        <time>2020-08-03T16:33:44Z</time>
      </trkpt>
      <trkpt lat="47.4367" lon="-2.44598">
        <ele>6.4</ele>
        <time>2020-08-03T16:33:45Z</time>
      </trkpt>
      <trkpt lat="47.43667" lon="-2.44597">
        <ele>6.4</ele>
        <time>2020-08-03T16:33:46Z</time>
      </trkpt>
      <trkpt lat="47.43665" lon="-2.44597">
        <ele>6.4</ele>
        <time>2020-08-03T16:33:47Z</time>
      </trkpt>
      <trkpt lat="47.43662" lon="-2.44597">
        <ele>6.6</ele>
        <time>2020-08-03T16:33:48Z</time>
      </trkpt>
      <trkpt lat="47.4366" lon="-2.44597">
        <ele>6.6</ele>
        <time>2020-08-03T16:33:49Z</time>
      </trkpt>
      <trkpt lat="47.43657" lon="-2.44597">
        <ele>6.4</ele>
        <time>2020-08-03T16:33:50Z</time>
      </trkpt>
      <trkpt lat="47.43655" lon="-2.44597">
        <ele>6.6</ele>
        <time>2020-08-03T16:33:51Z</time>
      </trkpt>
      <trkpt lat="47.43653" lon="-2.44597">
        <ele>6.4</ele>
        <time>2020-08-03T16:33:52Z</time>
      </trkpt>
      <trkpt lat="47.43651" lon="-2.44598">
        <ele>6</ele>
        <time>2020-08-03T16:33:53Z</time>
      </trkpt>
      <trkpt lat="47.4365" lon="-2.44597">
        <ele>6.2</ele>
        <time>2020-08-03T16:33:54Z</time>
      </trkpt>
      <trkpt lat="47.43648" lon="-2.44597">
        <ele>6.4</ele>
        <time>2020-08-03T16:33:55Z</time>
      </trkpt>
      <trkpt lat="47.43647" lon="-2.44597">
        <ele>6.6</ele>
        <time>2020-08-03T16:33:56Z</time>
      </trkpt>
      <trkpt lat="47.43645" lon="-2.44597">
        <ele>6.4</ele>
        <time>2020-08-03T16:33:57Z</time>
      </trkpt>
      <trkpt lat="47.43643" lon="-2.44597">
        <ele>6.6</ele>
        <time>2020-08-03T16:33:58Z</time>
      </trkpt>
      <trkpt lat="47.43641" lon="-2.44597">
        <ele>6.6</ele>
        <time>2020-08-03T16:33:59Z</time>
      </trkpt>
      <trkpt lat="47.43639" lon="-2.44597">
        <ele>6.6</ele>
        <time>2020-08-03T16:34:00Z</time>
      </trkpt>
      <trkpt lat="47.43637" lon="-2.44597">
        <ele>6.8</ele>
        <time>2020-08-03T16:34:01Z</time>
      </trkpt>
      <trkpt lat="47.43635" lon="-2.44598">
        <ele>6.8</ele>
        <time>2020-08-03T16:34:02Z</time>
      </trkpt>
      <trkpt lat="47.43634" lon="-2.44598">
        <ele>6.6</ele>
        <time>2020-08-03T16:34:03Z</time>
      </trkpt>
      <trkpt lat="47.43633" lon="-2.44598">
        <ele>6.4</ele>
        <time>2020-08-03T16:34:04Z</time>
      </trkpt>
      <trkpt lat="47.43633" lon="-2.44597">
        <ele>5.8</ele>
        <time>2020-08-03T16:34:05Z</time>
      </trkpt>
      <trkpt lat="47.43634" lon="-2.44597">
        <ele>4.8</ele>
        <time>2020-08-03T16:34:06Z</time>
      </trkpt>
      <trkpt lat="47.43634" lon="-2.44597">
        <ele>4.6</ele>
        <time>2020-08-03T16:34:07Z</time>
      </trkpt>
      <trkpt lat="47.43634" lon="-2.44597">
        <ele>5</ele>
        <time>2020-08-03T16:34:08Z</time>
      </trkpt>
      <trkpt lat="47.43633" lon="-2.44597">
        <ele>5.6</ele>
        <time>2020-08-03T16:34:09Z</time>
      </trkpt>
      <trkpt lat="47.43633" lon="-2.44597">
        <ele>6.2</ele>
        <time>2020-08-03T16:34:10Z</time>
      </trkpt>
      <trkpt lat="47.43634" lon="-2.44598">
        <ele>6.2</ele>
        <time>2020-08-03T16:34:11Z</time>
      </trkpt>
      <trkpt lat="47.43618" lon="-2.446">
        <ele>6.6</ele>
        <time>2020-08-03T16:34:26Z</time>
      </trkpt>
      <trkpt lat="47.43616" lon="-2.44601">
        <ele>6.6</ele>
        <time>2020-08-03T16:34:27Z</time>
      </trkpt>
      <trkpt lat="47.43614" lon="-2.44601">
        <ele>6.6</ele>
        <time>2020-08-03T16:34:28Z</time>
      </trkpt>
      <trkpt lat="47.43612" lon="-2.44602">
        <ele>6.8</ele>
        <time>2020-08-03T16:34:29Z</time>
      </trkpt>
      <trkpt lat="47.4361" lon="-2.44602">
        <ele>6.6</ele>
        <time>2020-08-03T16:34:30Z</time>
      </trkpt>
      <trkpt lat="47.43608" lon="-2.44602">
        <ele>6.6</ele>
        <time>2020-08-03T16:34:31Z</time>
      </trkpt>
      <trkpt lat="47.43606" lon="-2.44602">
        <ele>6.6</ele>
        <time>2020-08-03T16:34:32Z</time>
      </trkpt>
      <trkpt lat="47.43604" lon="-2.44603">
        <ele>7</ele>
        <time>2020-08-03T16:34:33Z</time>
      </trkpt>
      <trkpt lat="47.43602" lon="-2.44604">
        <ele>7</ele>
        <time>2020-08-03T16:34:34Z</time>
      </trkpt>
      <trkpt lat="47.436" lon="-2.44604">
        <ele>6.8</ele>
        <time>2020-08-03T16:34:35Z</time>
      </trkpt>
      <trkpt lat="47.43599" lon="-2.44605">
        <ele>6.8</ele>
        <time>2020-08-03T16:34:36Z</time>
      </trkpt>
      <trkpt lat="47.43598" lon="-2.44605">
        <ele>6.8</ele>
        <time>2020-08-03T16:34:37Z</time>
      </trkpt>
      <trkpt lat="47.43598" lon="-2.44604">
        <ele>6.2</ele>
        <time>2020-08-03T16:34:38Z</time>
      </trkpt>
      <trkpt lat="47.43597" lon="-2.44603">
        <ele>5.8</ele>
        <time>2020-08-03T16:34:39Z</time>
      </trkpt>
      <trkpt lat="47.43596" lon="-2.44602">
        <ele>5.8</ele>
        <time>2020-08-03T16:34:40Z</time>
      </trkpt>
      <trkpt lat="47.43595" lon="-2.44601">
        <ele>5.8</ele>
        <time>2020-08-03T16:34:41Z</time>
      </trkpt>
      <trkpt lat="47.43594" lon="-2.446">
        <ele>5.8</ele>
        <time>2020-08-03T16:34:42Z</time>
      </trkpt>
      <trkpt lat="47.43594" lon="-2.446">
        <ele>5.8</ele>
        <time>2020-08-03T16:34:43Z</time>
      </trkpt>
      <trkpt lat="47.43593" lon="-2.44599">
        <ele>5.8</ele>
        <time>2020-08-03T16:34:44Z</time>
      </trkpt>
      <trkpt lat="47.43592" lon="-2.44598">
        <ele>6</ele>
        <time>2020-08-03T16:34:45Z</time>
      </trkpt>
      <trkpt lat="47.43592" lon="-2.44598">
        <ele>5.6</ele>
        <time>2020-08-03T16:34:46Z</time>
      </trkpt>
      <trkpt lat="47.43591" lon="-2.44597">
        <ele>5.4</ele>
        <time>2020-08-03T16:34:47Z</time>
      </trkpt>
      <trkpt lat="47.4359" lon="-2.44596">
        <ele>5.6</ele>
        <time>2020-08-03T16:34:48Z</time>
      </trkpt>
      <trkpt lat="47.43589" lon="-2.44595">
        <ele>5.8</ele>
        <time>2020-08-03T16:34:49Z</time>
      </trkpt>
      <trkpt lat="47.43589" lon="-2.44594">
        <ele>5.6</ele>
        <time>2020-08-03T16:34:50Z</time>
      </trkpt>
      <trkpt lat="47.43588" lon="-2.44594">
        <ele>5.4</ele>
        <time>2020-08-03T16:34:51Z</time>
      </trkpt>
      <trkpt lat="47.43587" lon="-2.44593">
        <ele>5.8</ele>
        <time>2020-08-03T16:34:52Z</time>
      </trkpt>
      <trkpt lat="47.43587" lon="-2.44592">
        <ele>6</ele>
        <time>2020-08-03T16:34:53Z</time>
      </trkpt>
      <trkpt lat="47.43586" lon="-2.44591">
        <ele>5.2</ele>
        <time>2020-08-03T16:34:54Z</time>
      </trkpt>
      <trkpt lat="47.43586" lon="-2.4459">
        <ele>5.2</ele>
        <time>2020-08-03T16:34:55Z</time>
      </trkpt>
      <trkpt lat="47.43585" lon="-2.44589">
        <ele>5.2</ele>
        <time>2020-08-03T16:34:56Z</time>
      </trkpt>
      <trkpt lat="47.43585" lon="-2.44588">
        <ele>5.4</ele>
        <time>2020-08-03T16:34:57Z</time>
      </trkpt>
      <trkpt lat="47.43584" lon="-2.44587">
        <ele>5.8</ele>
        <time>2020-08-03T16:34:58Z</time>
      </trkpt>
      <trkpt lat="47.43584" lon="-2.44586">
        <ele>5.8</ele>
        <time>2020-08-03T16:34:59Z</time>
      </trkpt>
      <trkpt lat="47.43584" lon="-2.44585">
        <ele>5.8</ele>
        <time>2020-08-03T16:35:00Z</time>
      </trkpt>
      <trkpt lat="47.43583" lon="-2.44584">
        <ele>5.8</ele>
        <time>2020-08-03T16:35:01Z</time>
      </trkpt>
      <trkpt lat="47.43583" lon="-2.44583">
        <ele>6.2</ele>
        <time>2020-08-03T16:35:02Z</time>
      </trkpt>
      <trkpt lat="47.43583" lon="-2.44582">
        <ele>6.4</ele>
        <time>2020-08-03T16:35:03Z</time>
      </trkpt>
      <trkpt lat="47.43582" lon="-2.44581">
        <ele>6.6</ele>
        <time>2020-08-03T16:35:04Z</time>
      </trkpt>
      <trkpt lat="47.43582" lon="-2.4458">
        <ele>6.6</ele>
        <time>2020-08-03T16:35:05Z</time>
      </trkpt>
      <trkpt lat="47.43582" lon="-2.44579">
        <ele>7.4</ele>
        <time>2020-08-03T16:35:06Z</time>
      </trkpt>
      <trkpt lat="47.43582" lon="-2.44578">
        <ele>7.8</ele>
        <time>2020-08-03T16:35:07Z</time>
      </trkpt>
      <trkpt lat="47.43581" lon="-2.44577">
        <ele>7.4</ele>
        <time>2020-08-03T16:35:08Z</time>
      </trkpt>
      <trkpt lat="47.43581" lon="-2.44576">
        <ele>7.6</ele>
        <time>2020-08-03T16:35:09Z</time>
      </trkpt>
      <trkpt lat="47.4358" lon="-2.44575">
        <ele>7.8</ele>
        <time>2020-08-03T16:35:10Z</time>
      </trkpt>
      <trkpt lat="47.4358" lon="-2.44573">
        <ele>7.6</ele>
        <time>2020-08-03T16:35:11Z</time>
      </trkpt>
      <trkpt lat="47.43579" lon="-2.44572">
        <ele>7.6</ele>
        <time>2020-08-03T16:35:12Z</time>
      </trkpt>
      <trkpt lat="47.43579" lon="-2.44571">
        <ele>7.6</ele>
        <time>2020-08-03T16:35:13Z</time>
      </trkpt>
      <trkpt lat="47.43578" lon="-2.44569">
        <ele>7.6</ele>
        <time>2020-08-03T16:35:14Z</time>
      </trkpt>
      <trkpt lat="47.43577" lon="-2.44568">
        <ele>7.4</ele>
        <time>2020-08-03T16:35:15Z</time>
      </trkpt>
      <trkpt lat="47.43577" lon="-2.44567">
        <ele>8</ele>
        <time>2020-08-03T16:35:16Z</time>
      </trkpt>
      <trkpt lat="47.43576" lon="-2.44567">
        <ele>7.8</ele>
        <time>2020-08-03T16:35:17Z</time>
      </trkpt>
      <trkpt lat="47.43575" lon="-2.44566">
        <ele>7.6</ele>
        <time>2020-08-03T16:35:18Z</time>
      </trkpt>
      <trkpt lat="47.43574" lon="-2.44566">
        <ele>7.8</ele>
        <time>2020-08-03T16:35:19Z</time>
      </trkpt>
      <trkpt lat="47.43572" lon="-2.44565">
        <ele>7.8</ele>
        <time>2020-08-03T16:35:20Z</time>
      </trkpt>
      <trkpt lat="47.43571" lon="-2.44565">
        <ele>7.8</ele>
        <time>2020-08-03T16:35:21Z</time>
      </trkpt>
      <trkpt lat="47.4357" lon="-2.44564">
        <ele>8</ele>
        <time>2020-08-03T16:35:22Z</time>
      </trkpt>
      <trkpt lat="47.43569" lon="-2.44564">
        <ele>7.8</ele>
        <time>2020-08-03T16:35:23Z</time>
      </trkpt>
      <trkpt lat="47.43568" lon="-2.44564">
        <ele>7.8</ele>
        <time>2020-08-03T16:35:24Z</time>
      </trkpt>
      <trkpt lat="47.43567" lon="-2.44563">
        <ele>7.6</ele>
        <time>2020-08-03T16:35:25Z</time>
      </trkpt>
      <trkpt lat="47.43566" lon="-2.44563">
        <ele>7.8</ele>
        <time>2020-08-03T16:35:26Z</time>
      </trkpt>
      <trkpt lat="47.43565" lon="-2.44563">
        <ele>7.6</ele>
        <time>2020-08-03T16:35:27Z</time>
      </trkpt>
      <trkpt lat="47.43564" lon="-2.44562">
        <ele>7.4</ele>
        <time>2020-08-03T16:35:28Z</time>
      </trkpt>
      <trkpt lat="47.43563" lon="-2.44561">
        <ele>7.4</ele>
        <time>2020-08-03T16:35:29Z</time>
      </trkpt>
      <trkpt lat="47.43563" lon="-2.4456">
        <ele>7.2</ele>
        <time>2020-08-03T16:35:30Z</time>
      </trkpt>
      <trkpt lat="47.43562" lon="-2.44559">
        <ele>7.6</ele>
        <time>2020-08-03T16:35:31Z</time>
      </trkpt>
      <trkpt lat="47.43561" lon="-2.44559">
        <ele>8.2</ele>
        <time>2020-08-03T16:35:32Z</time>
      </trkpt>
      <trkpt lat="47.4356" lon="-2.44559">
        <ele>8</ele>
        <time>2020-08-03T16:35:33Z</time>
      </trkpt>
      <trkpt lat="47.43559" lon="-2.44559">
        <ele>7.6</ele>
        <time>2020-08-03T16:35:34Z</time>
      </trkpt>
      <trkpt lat="47.43559" lon="-2.4456">
        <ele>7.6</ele>
        <time>2020-08-03T16:35:35Z</time>
      </trkpt>
      <trkpt lat="47.43558" lon="-2.44561">
        <ele>7.6</ele>
        <time>2020-08-03T16:35:36Z</time>
      </trkpt>
      <trkpt lat="47.43558" lon="-2.44562">
        <ele>7.8</ele>
        <time>2020-08-03T16:35:37Z</time>
      </trkpt>
      <trkpt lat="47.43557" lon="-2.44562">
        <ele>8</ele>
        <time>2020-08-03T16:35:38Z</time>
      </trkpt>
      <trkpt lat="47.43557" lon="-2.44563">
        <ele>8</ele>
        <time>2020-08-03T16:35:39Z</time>
      </trkpt>
      <trkpt lat="47.43557" lon="-2.44563">
        <ele>7.8</ele>
        <time>2020-08-03T16:35:40Z</time>
      </trkpt>
      <trkpt lat="47.43557" lon="-2.44563">
        <ele>7.6</ele>
        <time>2020-08-03T16:35:41Z</time>
      </trkpt>
      <trkpt lat="47.43557" lon="-2.44563">
        <ele>7.8</ele>
        <time>2020-08-03T16:35:42Z</time>
      </trkpt>
      <trkpt lat="47.43557" lon="-2.44563">
        <ele>7.8</ele>
        <time>2020-08-03T16:35:43Z</time>
      </trkpt>
      <trkpt lat="47.43557" lon="-2.44563">
        <ele>8</ele>
        <time>2020-08-03T16:35:44Z</time>
      </trkpt>
      <trkpt lat="47.43557" lon="-2.44564">
        <ele>8.2</ele>
        <time>2020-08-03T16:35:45Z</time>
      </trkpt>
      <trkpt lat="47.43551" lon="-2.44586">
        <ele>9.4</ele>
        <time>2020-08-03T16:36:04Z</time>
      </trkpt>
      <trkpt lat="47.43551" lon="-2.44588">
        <ele>9.4</ele>
        <time>2020-08-03T16:36:05Z</time>
      </trkpt>
      <trkpt lat="47.43551" lon="-2.4459">
        <ele>9.6</ele>
        <time>2020-08-03T16:36:06Z</time>
      </trkpt>
      <trkpt lat="47.4355" lon="-2.44592">
        <ele>9.8</ele>
        <time>2020-08-03T16:36:07Z</time>
      </trkpt>
      <trkpt lat="47.4355" lon="-2.44594">
        <ele>9.8</ele>
        <time>2020-08-03T16:36:08Z</time>
      </trkpt>
      <trkpt lat="47.4355" lon="-2.44597">
        <ele>9.6</ele>
        <time>2020-08-03T16:36:09Z</time>
      </trkpt>
      <trkpt lat="47.43549" lon="-2.44599">
        <ele>9.8</ele>
        <time>2020-08-03T16:36:10Z</time>
      </trkpt>
      <trkpt lat="47.43548" lon="-2.44601">
        <ele>10</ele>
        <time>2020-08-03T16:36:11Z</time>
      </trkpt>
      <trkpt lat="47.43548" lon="-2.44604">
        <ele>10</ele>
        <time>2020-08-03T16:36:12Z</time>
      </trkpt>
      <trkpt lat="47.43547" lon="-2.44606">
        <ele>10</ele>
        <time>2020-08-03T16:36:13Z</time>
      </trkpt>
      <trkpt lat="47.43546" lon="-2.44608">
        <ele>10.2</ele>
        <time>2020-08-03T16:36:14Z</time>
      </trkpt>
      <trkpt lat="47.43546" lon="-2.44611">
        <ele>10.2</ele>
        <time>2020-08-03T16:36:15Z</time>
      </trkpt>
      <trkpt lat="47.43545" lon="-2.44613">
        <ele>10.4</ele>
        <time>2020-08-03T16:36:16Z</time>
      </trkpt>
      <trkpt lat="47.43544" lon="-2.44616">
        <ele>10.4</ele>
        <time>2020-08-03T16:36:17Z</time>
      </trkpt>
      <trkpt lat="47.43543" lon="-2.44618">
        <ele>10.4</ele>
        <time>2020-08-03T16:36:18Z</time>
      </trkpt>
      <trkpt lat="47.43542" lon="-2.44621">
        <ele>10.4</ele>
        <time>2020-08-03T16:36:19Z</time>
      </trkpt>
      <trkpt lat="47.43541" lon="-2.44623">
        <ele>10.4</ele>
        <time>2020-08-03T16:36:20Z</time>
      </trkpt>
      <trkpt lat="47.43539" lon="-2.44626">
        <ele>10.4</ele>
        <time>2020-08-03T16:36:21Z</time>
      </trkpt>
      <trkpt lat="47.43538" lon="-2.44628">
        <ele>10.6</ele>
        <time>2020-08-03T16:36:22Z</time>
      </trkpt>
      <trkpt lat="47.43538" lon="-2.4463">
        <ele>10.6</ele>
        <time>2020-08-03T16:36:23Z</time>
      </trkpt>
      <trkpt lat="47.43537" lon="-2.44632">
        <ele>10.8</ele>
        <time>2020-08-03T16:36:24Z</time>
      </trkpt>
      <trkpt lat="47.43536" lon="-2.44635">
        <ele>10.8</ele>
        <time>2020-08-03T16:36:25Z</time>
      </trkpt>
      <trkpt lat="47.43536" lon="-2.44637">
        <ele>10.6</ele>
        <time>2020-08-03T16:36:26Z</time>
      </trkpt>
      <trkpt lat="47.43536" lon="-2.4464">
        <ele>10.6</ele>
        <time>2020-08-03T16:36:27Z</time>
      </trkpt>
      <trkpt lat="47.43536" lon="-2.44642">
        <ele>10.4</ele>
        <time>2020-08-03T16:36:28Z</time>
      </trkpt>
      <trkpt lat="47.43536" lon="-2.44644">
        <ele>10.8</ele>
        <time>2020-08-03T16:36:29Z</time>
      </trkpt>
      <trkpt lat="47.43536" lon="-2.44646">
        <ele>10.6</ele>
        <time>2020-08-03T16:36:30Z</time>
      </trkpt>
      <trkpt lat="47.43535" lon="-2.44648">
        <ele>10.4</ele>
        <time>2020-08-03T16:36:31Z</time>
      </trkpt>
      <trkpt lat="47.43535" lon="-2.44649">
        <ele>10.2</ele>
        <time>2020-08-03T16:36:32Z</time>
      </trkpt>
      <trkpt lat="47.43535" lon="-2.4465">
        <ele>10.6</ele>
        <time>2020-08-03T16:36:33Z</time>
      </trkpt>
      <trkpt lat="47.43535" lon="-2.4465">
        <ele>10.4</ele>
        <time>2020-08-03T16:36:34Z</time>
      </trkpt>
      <trkpt lat="47.43535" lon="-2.4465">
        <ele>10.2</ele>
        <time>2020-08-03T16:36:35Z</time>
      </trkpt>
      <trkpt lat="47.43535" lon="-2.4465">
        <ele>10.4</ele>
        <time>2020-08-03T16:36:36Z</time>
      </trkpt>
      <trkpt lat="47.43535" lon="-2.4465">
        <ele>10.6</ele>
        <time>2020-08-03T16:36:37Z</time>
      </trkpt>
      <trkpt lat="47.43535" lon="-2.4465">
        <ele>11.2</ele>
        <time>2020-08-03T16:36:38Z</time>
      </trkpt>
      <trkpt lat="47.43535" lon="-2.44651">
        <ele>11</ele>
        <time>2020-08-03T16:36:39Z</time>
      </trkpt>
      <trkpt lat="47.43535" lon="-2.44651">
        <ele>10.8</ele>
        <time>2020-08-03T16:36:40Z</time>
      </trkpt>
      <trkpt lat="47.43536" lon="-2.44635">
        <ele>9.8</ele>
        <time>2020-08-03T16:38:36Z</time>
      </trkpt>
      <trkpt lat="47.43535" lon="-2.44635">
        <ele>9.6</ele>
        <time>2020-08-03T16:38:37Z</time>
      </trkpt>
      <trkpt lat="47.43536" lon="-2.44635">
        <ele>9.6</ele>
        <time>2020-08-03T16:38:38Z</time>
      </trkpt>
      <trkpt lat="47.43536" lon="-2.44635">
        <ele>9.6</ele>
        <time>2020-08-03T16:38:39Z</time>
      </trkpt>
      <trkpt lat="47.43536" lon="-2.44636">
        <ele>9.8</ele>
        <time>2020-08-03T16:38:40Z</time>
      </trkpt>
      <trkpt lat="47.43536" lon="-2.44638">
        <ele>9.8</ele>
        <time>2020-08-03T16:38:41Z</time>
      </trkpt>
      <trkpt lat="47.43535" lon="-2.44652">
        <ele>9.8</ele>
        <time>2020-08-03T16:38:48Z</time>
      </trkpt>
      <trkpt lat="47.43535" lon="-2.44654">
        <ele>9.8</ele>
        <time>2020-08-03T16:38:49Z</time>
      </trkpt>
      <trkpt lat="47.43534" lon="-2.44656">
        <ele>10</ele>
        <time>2020-08-03T16:38:50Z</time>
      </trkpt>
      <trkpt lat="47.43534" lon="-2.44658">
        <ele>10</ele>
        <time>2020-08-03T16:38:51Z</time>
      </trkpt>
      <trkpt lat="47.43533" lon="-2.44659">
        <ele>9.8</ele>
        <time>2020-08-03T16:38:52Z</time>
      </trkpt>
      <trkpt lat="47.43533" lon="-2.44659">
        <ele>10.2</ele>
        <time>2020-08-03T16:38:53Z</time>
      </trkpt>
      <trkpt lat="47.43533" lon="-2.44659">
        <ele>10.2</ele>
        <time>2020-08-03T16:38:54Z</time>
      </trkpt>
      <trkpt lat="47.43534" lon="-2.44659">
        <ele>10.2</ele>
        <time>2020-08-03T16:38:55Z</time>
      </trkpt>
      <trkpt lat="47.43534" lon="-2.44659">
        <ele>10</ele>
        <time>2020-08-03T16:38:56Z</time>
      </trkpt>
      <trkpt lat="47.43534" lon="-2.44659">
        <ele>10.2</ele>
        <time>2020-08-03T16:38:57Z</time>
      </trkpt>
      <trkpt lat="47.43534" lon="-2.44659">
        <ele>10.2</ele>
        <time>2020-08-03T16:38:58Z</time>
      </trkpt>
      <trkpt lat="47.43534" lon="-2.44659">
        <ele>10.2</ele>
        <time>2020-08-03T16:38:59Z</time>
      </trkpt>
      <trkpt lat="47.43526" lon="-2.44681">
        <ele>10.6</ele>
        <time>2020-08-03T16:40:17Z</time>
      </trkpt>
      <trkpt lat="47.43524" lon="-2.44683">
        <ele>10.6</ele>
        <time>2020-08-03T16:40:18Z</time>
      </trkpt>
      <trkpt lat="47.43523" lon="-2.44684">
        <ele>10.6</ele>
        <time>2020-08-03T16:40:19Z</time>
      </trkpt>
      <trkpt lat="47.43521" lon="-2.44686">
        <ele>10.6</ele>
        <time>2020-08-03T16:40:20Z</time>
      </trkpt>
      <trkpt lat="47.4352" lon="-2.44688">
        <ele>10.6</ele>
        <time>2020-08-03T16:40:21Z</time>
      </trkpt>
      <trkpt lat="47.43518" lon="-2.44689">
        <ele>10.6</ele>
        <time>2020-08-03T16:40:22Z</time>
      </trkpt>
      <trkpt lat="47.43516" lon="-2.44692">
        <ele>10.6</ele>
        <time>2020-08-03T16:40:23Z</time>
      </trkpt>
      <trkpt lat="47.43514" lon="-2.44694">
        <ele>10.6</ele>
        <time>2020-08-03T16:40:24Z</time>
      </trkpt>
      <trkpt lat="47.43512" lon="-2.44697">
        <ele>10.8</ele>
        <time>2020-08-03T16:40:25Z</time>
      </trkpt>
      <trkpt lat="47.4351" lon="-2.447">
        <ele>10.4</ele>
        <time>2020-08-03T16:40:26Z</time>
      </trkpt>
      <trkpt lat="47.43509" lon="-2.44703">
        <ele>10.4</ele>
        <time>2020-08-03T16:40:27Z</time>
      </trkpt>
      <trkpt lat="47.43507" lon="-2.44705">
        <ele>10.4</ele>
        <time>2020-08-03T16:40:28Z</time>
      </trkpt>
      <trkpt lat="47.43505" lon="-2.44708">
        <ele>10.6</ele>
        <time>2020-08-03T16:40:29Z</time>
      </trkpt>
      <trkpt lat="47.43504" lon="-2.44711">
        <ele>10.6</ele>
        <time>2020-08-03T16:40:30Z</time>
      </trkpt>
      <trkpt lat="47.43502" lon="-2.44715">
        <ele>10.4</ele>
        <time>2020-08-03T16:40:31Z</time>
      </trkpt>
      <trkpt lat="47.43501" lon="-2.44718">
        <ele>10.4</ele>
        <time>2020-08-03T16:40:32Z</time>
      </trkpt>
      <trkpt lat="47.43499" lon="-2.44722">
        <ele>10.4</ele>
        <time>2020-08-03T16:40:33Z</time>
      </trkpt>
      <trkpt lat="47.43499" lon="-2.44725">
        <ele>10.4</ele>
        <time>2020-08-03T16:40:34Z</time>
      </trkpt>
      <trkpt lat="47.43499" lon="-2.44729">
        <ele>10.4</ele>
        <time>2020-08-03T16:40:35Z</time>
      </trkpt>
      <trkpt lat="47.43499" lon="-2.44733">
        <ele>10.4</ele>
        <time>2020-08-03T16:40:36Z</time>
      </trkpt>
      <trkpt lat="47.435" lon="-2.44736">
        <ele>10.2</ele>
        <time>2020-08-03T16:40:37Z</time>
      </trkpt>
      <trkpt lat="47.43501" lon="-2.4474">
        <ele>10.4</ele>
        <time>2020-08-03T16:40:38Z</time>
      </trkpt>
      <trkpt lat="47.43501" lon="-2.44745">
        <ele>10.4</ele>
        <time>2020-08-03T16:40:39Z</time>
      </trkpt>
      <trkpt lat="47.43501" lon="-2.44749">
        <ele>10.2</ele>
        <time>2020-08-03T16:40:40Z</time>
      </trkpt>
      <trkpt lat="47.43501" lon="-2.44753">
        <ele>10</ele>
        <time>2020-08-03T16:40:41Z</time>
      </trkpt>
      <trkpt lat="47.43501" lon="-2.44757">
        <ele>10</ele>
        <time>2020-08-03T16:40:42Z</time>
      </trkpt>
      <trkpt lat="47.43501" lon="-2.44761">
        <ele>10</ele>
        <time>2020-08-03T16:40:43Z</time>
      </trkpt>
      <trkpt lat="47.43501" lon="-2.44765">
        <ele>9.8</ele>
        <time>2020-08-03T16:40:44Z</time>
      </trkpt>
      <trkpt lat="47.43502" lon="-2.44768">
        <ele>9.8</ele>
        <time>2020-08-03T16:40:45Z</time>
      </trkpt>
      <trkpt lat="47.43504" lon="-2.44772">
        <ele>9.8</ele>
        <time>2020-08-03T16:40:46Z</time>
      </trkpt>
      <trkpt lat="47.43505" lon="-2.44775">
        <ele>9.4</ele>
        <time>2020-08-03T16:40:47Z</time>
      </trkpt>
      <trkpt lat="47.43506" lon="-2.44779">
        <ele>9.4</ele>
        <time>2020-08-03T16:40:48Z</time>
      </trkpt>
      <trkpt lat="47.43507" lon="-2.44783">
        <ele>9.4</ele>
        <time>2020-08-03T16:40:49Z</time>
      </trkpt>
      <trkpt lat="47.43507" lon="-2.44788">
        <ele>9.6</ele>
        <time>2020-08-03T16:40:50Z</time>
      </trkpt>
      <trkpt lat="47.43508" lon="-2.44793">
        <ele>10.2</ele>
        <time>2020-08-03T16:40:51Z</time>
      </trkpt>
      <trkpt lat="47.43507" lon="-2.44799">
        <ele>10</ele>
        <time>2020-08-03T16:40:52Z</time>
      </trkpt>
      <trkpt lat="47.43507" lon="-2.44803">
        <ele>9.2</ele>
        <time>2020-08-03T16:40:53Z</time>
      </trkpt>
      <trkpt lat="47.43506" lon="-2.44808">
        <ele>9.6</ele>
        <time>2020-08-03T16:40:54Z</time>
      </trkpt>
      <trkpt lat="47.43506" lon="-2.44813">
        <ele>9.8</ele>
        <time>2020-08-03T16:40:55Z</time>
      </trkpt>
      <trkpt lat="47.43506" lon="-2.44817">
        <ele>9.8</ele>
        <time>2020-08-03T16:40:56Z</time>
      </trkpt>
      <trkpt lat="47.43506" lon="-2.44822">
        <ele>9.6</ele>
        <time>2020-08-03T16:40:57Z</time>
      </trkpt>
      <trkpt lat="47.43506" lon="-2.44826">
        <ele>10.2</ele>
        <time>2020-08-03T16:40:58Z</time>
      </trkpt>
      <trkpt lat="47.43506" lon="-2.4483">
        <ele>10.2</ele>
        <time>2020-08-03T16:40:59Z</time>
      </trkpt>
      <trkpt lat="47.43506" lon="-2.44834">
        <ele>10.4</ele>
        <time>2020-08-03T16:41:00Z</time>
      </trkpt>
      <trkpt lat="47.43506" lon="-2.44839">
        <ele>10.4</ele>
        <time>2020-08-03T16:41:01Z</time>
      </trkpt>
      <trkpt lat="47.43506" lon="-2.44843">
        <ele>10.2</ele>
        <time>2020-08-03T16:41:02Z</time>
      </trkpt>
      <trkpt lat="47.43505" lon="-2.44848">
        <ele>10.6</ele>
        <time>2020-08-03T16:41:03Z</time>
      </trkpt>
      <trkpt lat="47.43504" lon="-2.44852">
        <ele>10.8</ele>
        <time>2020-08-03T16:41:04Z</time>
      </trkpt>
      <trkpt lat="47.43504" lon="-2.44857">
        <ele>11</ele>
        <time>2020-08-03T16:41:05Z</time>
      </trkpt>
      <trkpt lat="47.43503" lon="-2.44861">
        <ele>11.2</ele>
        <time>2020-08-03T16:41:06Z</time>
      </trkpt>
      <trkpt lat="47.43502" lon="-2.44865">
        <ele>11.4</ele>
        <time>2020-08-03T16:41:07Z</time>
      </trkpt>
      <trkpt lat="47.43502" lon="-2.44869">
        <ele>11.4</ele>
        <time>2020-08-03T16:41:08Z</time>
      </trkpt>
      <trkpt lat="47.43501" lon="-2.44873">
        <ele>11.4</ele>
        <time>2020-08-03T16:41:09Z</time>
      </trkpt>
      <trkpt lat="47.435" lon="-2.44877">
        <ele>11.8</ele>
        <time>2020-08-03T16:41:10Z</time>
      </trkpt>
      <trkpt lat="47.43499" lon="-2.4488">
        <ele>11.8</ele>
        <time>2020-08-03T16:41:11Z</time>
      </trkpt>
      <trkpt lat="47.43497" lon="-2.44883">
        <ele>12.6</ele>
        <time>2020-08-03T16:41:12Z</time>
      </trkpt>
      <trkpt lat="47.43495" lon="-2.44886">
        <ele>12.6</ele>
        <time>2020-08-03T16:41:13Z</time>
      </trkpt>
      <trkpt lat="47.43493" lon="-2.44889">
        <ele>12.8</ele>
        <time>2020-08-03T16:41:14Z</time>
      </trkpt>
      <trkpt lat="47.43491" lon="-2.44891">
        <ele>12.8</ele>
        <time>2020-08-03T16:41:15Z</time>
      </trkpt>
      <trkpt lat="47.4349" lon="-2.44895">
        <ele>12.8</ele>
        <time>2020-08-03T16:41:16Z</time>
      </trkpt>
      <trkpt lat="47.43489" lon="-2.44898">
        <ele>12.4</ele>
        <time>2020-08-03T16:41:17Z</time>
      </trkpt>
      <trkpt lat="47.43488" lon="-2.44902">
        <ele>12.4</ele>
        <time>2020-08-03T16:41:18Z</time>
      </trkpt>
      <trkpt lat="47.43488" lon="-2.44906">
        <ele>12.4</ele>
        <time>2020-08-03T16:41:19Z</time>
      </trkpt>
      <trkpt lat="47.43488" lon="-2.4491">
        <ele>12.2</ele>
        <time>2020-08-03T16:41:20Z</time>
      </trkpt>
      <trkpt lat="47.43488" lon="-2.44914">
        <ele>11.8</ele>
        <time>2020-08-03T16:41:21Z</time>
      </trkpt>
      <trkpt lat="47.43488" lon="-2.44918">
        <ele>11.8</ele>
        <time>2020-08-03T16:41:22Z</time>
      </trkpt>
      <trkpt lat="47.43488" lon="-2.44923">
        <ele>11.8</ele>
        <time>2020-08-03T16:41:23Z</time>
      </trkpt>
      <trkpt lat="47.43489" lon="-2.44927">
        <ele>11.8</ele>
        <time>2020-08-03T16:41:24Z</time>
      </trkpt>
      <trkpt lat="47.43489" lon="-2.44932">
        <ele>11.6</ele>
        <time>2020-08-03T16:41:25Z</time>
      </trkpt>
      <trkpt lat="47.43489" lon="-2.44936">
        <ele>11.8</ele>
        <time>2020-08-03T16:41:26Z</time>
      </trkpt>
      <trkpt lat="47.43489" lon="-2.44941">
        <ele>12.2</ele>
        <time>2020-08-03T16:41:27Z</time>
      </trkpt>
      <trkpt lat="47.43489" lon="-2.44945">
        <ele>12.2</ele>
        <time>2020-08-03T16:41:28Z</time>
      </trkpt>
      <trkpt lat="47.43489" lon="-2.4495">
        <ele>12.2</ele>
        <time>2020-08-03T16:41:29Z</time>
      </trkpt>
      <trkpt lat="47.43489" lon="-2.44954">
        <ele>12.2</ele>
        <time>2020-08-03T16:41:30Z</time>
      </trkpt>
      <trkpt lat="47.4349" lon="-2.44958">
        <ele>12.2</ele>
        <time>2020-08-03T16:41:31Z</time>
      </trkpt>
      <trkpt lat="47.43491" lon="-2.44963">
        <ele>12.4</ele>
        <time>2020-08-03T16:41:32Z</time>
      </trkpt>
      <trkpt lat="47.43491" lon="-2.44967">
        <ele>12.4</ele>
        <time>2020-08-03T16:41:33Z</time>
      </trkpt>
      <trkpt lat="47.43492" lon="-2.44972">
        <ele>12.2</ele>
        <time>2020-08-03T16:41:34Z</time>
      </trkpt>
      <trkpt lat="47.43494" lon="-2.44976">
        <ele>12.4</ele>
        <time>2020-08-03T16:41:35Z</time>
      </trkpt>
      <trkpt lat="47.43495" lon="-2.4498">
        <ele>12.6</ele>
        <time>2020-08-03T16:41:36Z</time>
      </trkpt>
      <trkpt lat="47.43496" lon="-2.44984">
        <ele>12.6</ele>
        <time>2020-08-03T16:41:37Z</time>
      </trkpt>
      <trkpt lat="47.43497" lon="-2.44988">
        <ele>12.6</ele>
        <time>2020-08-03T16:41:38Z</time>
      </trkpt>
      <trkpt lat="47.43499" lon="-2.44992">
        <ele>12.6</ele>
        <time>2020-08-03T16:41:39Z</time>
      </trkpt>
      <trkpt lat="47.43499" lon="-2.44995">
        <ele>12.6</ele>
        <time>2020-08-03T16:41:40Z</time>
      </trkpt>
      <trkpt lat="47.435" lon="-2.44999">
        <ele>12.6</ele>
        <time>2020-08-03T16:41:41Z</time>
      </trkpt>
      <trkpt lat="47.435" lon="-2.45003">
        <ele>13</ele>
        <time>2020-08-03T16:41:42Z</time>
      </trkpt>
      <trkpt lat="47.435" lon="-2.45007">
        <ele>13</ele>
        <time>2020-08-03T16:41:43Z</time>
      </trkpt>
      <trkpt lat="47.435" lon="-2.45011">
        <ele>12.8</ele>
        <time>2020-08-03T16:41:44Z</time>
      </trkpt>
      <trkpt lat="47.43501" lon="-2.45015">
        <ele>12.6</ele>
        <time>2020-08-03T16:41:45Z</time>
      </trkpt>
      <trkpt lat="47.43501" lon="-2.45019">
        <ele>12.4</ele>
        <time>2020-08-03T16:41:46Z</time>
      </trkpt>
      <trkpt lat="47.43502" lon="-2.45022">
        <ele>12.6</ele>
        <time>2020-08-03T16:41:47Z</time>
      </trkpt>
      <trkpt lat="47.43502" lon="-2.45025">
        <ele>12.8</ele>
        <time>2020-08-03T16:41:48Z</time>
      </trkpt>
      <trkpt lat="47.43503" lon="-2.45028">
        <ele>12.8</ele>
        <time>2020-08-03T16:41:49Z</time>
      </trkpt>
      <trkpt lat="47.43503" lon="-2.45031">
        <ele>13.2</ele>
        <time>2020-08-03T16:41:50Z</time>
      </trkpt>
      <trkpt lat="47.43503" lon="-2.45033">
        <ele>13.2</ele>
        <time>2020-08-03T16:41:51Z</time>
      </trkpt>
      <trkpt lat="47.43503" lon="-2.45036">
        <ele>13</ele>
        <time>2020-08-03T16:41:52Z</time>
      </trkpt>
      <trkpt lat="47.43504" lon="-2.45039">
        <ele>13.2</ele>
        <time>2020-08-03T16:41:53Z</time>
      </trkpt>
      <trkpt lat="47.43504" lon="-2.45042">
        <ele>13.6</ele>
        <time>2020-08-03T16:41:54Z</time>
      </trkpt>
      <trkpt lat="47.43503" lon="-2.45044">
        <ele>14.2</ele>
        <time>2020-08-03T16:41:55Z</time>
      </trkpt>
      <trkpt lat="47.43504" lon="-2.45046">
        <ele>14</ele>
        <time>2020-08-03T16:41:56Z</time>
      </trkpt>
      <trkpt lat="47.43504" lon="-2.45048">
        <ele>14.4</ele>
        <time>2020-08-03T16:41:57Z</time>
      </trkpt>
      <trkpt lat="47.43505" lon="-2.45049">
        <ele>15.4</ele>
        <time>2020-08-03T16:41:58Z</time>
      </trkpt>
      <trkpt lat="47.43506" lon="-2.45051">
        <ele>15</ele>
        <time>2020-08-03T16:41:59Z</time>
      </trkpt>
      <trkpt lat="47.43506" lon="-2.45052">
        <ele>14.8</ele>
        <time>2020-08-03T16:42:00Z</time>
      </trkpt>
      <trkpt lat="47.43506" lon="-2.45052">
        <ele>14</ele>
        <time>2020-08-03T16:42:01Z</time>
      </trkpt>
      <trkpt lat="47.43506" lon="-2.45052">
        <ele>14</ele>
        <time>2020-08-03T16:42:02Z</time>
      </trkpt>
      <trkpt lat="47.43506" lon="-2.45052">
        <ele>14</ele>
        <time>2020-08-03T16:42:03Z</time>
      </trkpt>
      <trkpt lat="47.43506" lon="-2.45052">
        <ele>14.2</ele>
        <time>2020-08-03T16:42:04Z</time>
      </trkpt>
      <trkpt lat="47.43507" lon="-2.45052">
        <ele>14.4</ele>
        <time>2020-08-03T16:42:05Z</time>
      </trkpt>
      <trkpt lat="47.43507" lon="-2.45052">
        <ele>14</ele>
        <time>2020-08-03T16:42:06Z</time>
      </trkpt>
      <trkpt lat="47.43507" lon="-2.45052">
        <ele>13.8</ele>
        <time>2020-08-03T16:42:07Z</time>
      </trkpt>
      <trkpt lat="47.43506" lon="-2.45052">
        <ele>13.6</ele>
        <time>2020-08-03T16:42:08Z</time>
      </trkpt>
      <trkpt lat="47.43498" lon="-2.45052">
        <ele>14</ele>
        <time>2020-08-03T16:42:26Z</time>
      </trkpt>
      <trkpt lat="47.43497" lon="-2.45053">
        <ele>14.2</ele>
        <time>2020-08-03T16:42:27Z</time>
      </trkpt>
      <trkpt lat="47.43496" lon="-2.45053">
        <ele>14.6</ele>
        <time>2020-08-03T16:42:28Z</time>
      </trkpt>
      <trkpt lat="47.43496" lon="-2.45054">
        <ele>14.4</ele>
        <time>2020-08-03T16:42:29Z</time>
      </trkpt>
      <trkpt lat="47.43496" lon="-2.45054">
        <ele>14.8</ele>
        <time>2020-08-03T16:42:30Z</time>
      </trkpt>
      <trkpt lat="47.43496" lon="-2.45054">
        <ele>15</ele>
        <time>2020-08-03T16:42:31Z</time>
      </trkpt>
      <trkpt lat="47.43496" lon="-2.45054">
        <ele>15.2</ele>
        <time>2020-08-03T16:42:32Z</time>
      </trkpt>
      <trkpt lat="47.43496" lon="-2.45054">
        <ele>14.6</ele>
        <time>2020-08-03T16:42:33Z</time>
      </trkpt>
      <trkpt lat="47.43496" lon="-2.45054">
        <ele>14.6</ele>
        <time>2020-08-03T16:42:34Z</time>
      </trkpt>
      <trkpt lat="47.43496" lon="-2.45054">
        <ele>14.6</ele>
        <time>2020-08-03T16:42:35Z</time>
      </trkpt>
      <trkpt lat="47.4348" lon="-2.45072">
        <ele>15.8</ele>
        <time>2020-08-03T16:43:20Z</time>
      </trkpt>
      <trkpt lat="47.43479" lon="-2.45074">
        <ele>16.8</ele>
        <time>2020-08-03T16:43:21Z</time>
      </trkpt>
      <trkpt lat="47.43479" lon="-2.45077">
        <ele>16.8</ele>
        <time>2020-08-03T16:43:22Z</time>
      </trkpt>
      <trkpt lat="47.43478" lon="-2.45079">
        <ele>16</ele>
        <time>2020-08-03T16:43:23Z</time>
      </trkpt>
      <trkpt lat="47.43478" lon="-2.45083">
        <ele>14.2</ele>
        <time>2020-08-03T16:43:24Z</time>
      </trkpt>
      <trkpt lat="47.43477" lon="-2.45087">
        <ele>14.8</ele>
        <time>2020-08-03T16:43:25Z</time>
      </trkpt>
      <trkpt lat="47.43476" lon="-2.45092">
        <ele>14.8</ele>
        <time>2020-08-03T16:43:26Z</time>
      </trkpt>
      <trkpt lat="47.43474" lon="-2.45095">
        <ele>15.2</ele>
        <time>2020-08-03T16:43:27Z</time>
      </trkpt>
      <trkpt lat="47.43473" lon="-2.45099">
        <ele>14.6</ele>
        <time>2020-08-03T16:43:28Z</time>
      </trkpt>
      <trkpt lat="47.43471" lon="-2.45103">
        <ele>14.4</ele>
        <time>2020-08-03T16:43:29Z</time>
      </trkpt>
      <trkpt lat="47.43469" lon="-2.45106">
        <ele>14.2</ele>
        <time>2020-08-03T16:43:30Z</time>
      </trkpt>
      <trkpt lat="47.43467" lon="-2.45109">
        <ele>14.8</ele>
        <time>2020-08-03T16:43:31Z</time>
      </trkpt>
      <trkpt lat="47.43465" lon="-2.45112">
        <ele>15</ele>
        <time>2020-08-03T16:43:32Z</time>
      </trkpt>
      <trkpt lat="47.43462" lon="-2.45114">
        <ele>14.8</ele>
        <time>2020-08-03T16:43:33Z</time>
      </trkpt>
      <trkpt lat="47.43461" lon="-2.45116">
        <ele>15.2</ele>
        <time>2020-08-03T16:43:34Z</time>
      </trkpt>
      <trkpt lat="47.43459" lon="-2.45118">
        <ele>14.8</ele>
        <time>2020-08-03T16:43:35Z</time>
      </trkpt>
      <trkpt lat="47.43458" lon="-2.45119">
        <ele>15.4</ele>
        <time>2020-08-03T16:43:36Z</time>
      </trkpt>
      <trkpt lat="47.43457" lon="-2.45121">
        <ele>15.8</ele>
        <time>2020-08-03T16:43:37Z</time>
      </trkpt>
      <trkpt lat="47.43457" lon="-2.45121">
        <ele>15.6</ele>
        <time>2020-08-03T16:43:38Z</time>
      </trkpt>
      <trkpt lat="47.43456" lon="-2.45121">
        <ele>16</ele>
        <time>2020-08-03T16:43:39Z</time>
      </trkpt>
      <trkpt lat="47.43457" lon="-2.45121">
        <ele>16.2</ele>
        <time>2020-08-03T16:43:40Z</time>
      </trkpt>
      <trkpt lat="47.43456" lon="-2.45121">
        <ele>16</ele>
        <time>2020-08-03T16:43:41Z</time>
      </trkpt>
      <trkpt lat="47.43456" lon="-2.45121">
        <ele>16.2</ele>
        <time>2020-08-03T16:43:42Z</time>
      </trkpt>
      <trkpt lat="47.43456" lon="-2.45121">
        <ele>16.2</ele>
        <time>2020-08-03T16:43:43Z</time>
      </trkpt>
      <trkpt lat="47.43456" lon="-2.45121">
        <ele>15.6</ele>
        <time>2020-08-03T16:43:44Z</time>
      </trkpt>
      <trkpt lat="47.43456" lon="-2.45121">
        <ele>15.4</ele>
        <time>2020-08-03T16:43:45Z</time>
      </trkpt>
      <trkpt lat="47.43435" lon="-2.45146">
        <ele>14.4</ele>
        <time>2020-08-03T16:44:36Z</time>
      </trkpt>
      <trkpt lat="47.43434" lon="-2.45148">
        <ele>14.8</ele>
        <time>2020-08-03T16:44:37Z</time>
      </trkpt>
      <trkpt lat="47.43433" lon="-2.4515">
        <ele>14.4</ele>
        <time>2020-08-03T16:44:38Z</time>
      </trkpt>
      <trkpt lat="47.43431" lon="-2.45153">
        <ele>15.2</ele>
        <time>2020-08-03T16:44:39Z</time>
      </trkpt>
      <trkpt lat="47.4343" lon="-2.45156">
        <ele>15</ele>
        <time>2020-08-03T16:44:40Z</time>
      </trkpt>
      <trkpt lat="47.43429" lon="-2.45158">
        <ele>16.2</ele>
        <time>2020-08-03T16:44:41Z</time>
      </trkpt>
      <trkpt lat="47.43428" lon="-2.4516">
        <ele>15.8</ele>
        <time>2020-08-03T16:44:42Z</time>
      </trkpt>
      <trkpt lat="47.43428" lon="-2.45162">
        <ele>15.4</ele>
        <time>2020-08-03T16:44:43Z</time>
      </trkpt>
      <trkpt lat="47.43427" lon="-2.45164">
        <ele>14.8</ele>
        <time>2020-08-03T16:44:44Z</time>
      </trkpt>
      <trkpt lat="47.43427" lon="-2.45166">
        <ele>13.4</ele>
        <time>2020-08-03T16:44:45Z</time>
      </trkpt>
      <trkpt lat="47.43426" lon="-2.45168">
        <ele>13.2</ele>
        <time>2020-08-03T16:44:46Z</time>
      </trkpt>
      <trkpt lat="47.43425" lon="-2.4517">
        <ele>13.4</ele>
        <time>2020-08-03T16:44:47Z</time>
      </trkpt>
      <trkpt lat="47.43425" lon="-2.45172">
        <ele>13.6</ele>
        <time>2020-08-03T16:44:48Z</time>
      </trkpt>
      <trkpt lat="47.43424" lon="-2.45174">
        <ele>14</ele>
        <time>2020-08-03T16:44:49Z</time>
      </trkpt>
      <trkpt lat="47.43423" lon="-2.45176">
        <ele>14</ele>
        <time>2020-08-03T16:44:50Z</time>
      </trkpt>
      <trkpt lat="47.43423" lon="-2.45178">
        <ele>14</ele>
        <time>2020-08-03T16:44:51Z</time>
      </trkpt>
      <trkpt lat="47.43422" lon="-2.4518">
        <ele>14.2</ele>
        <time>2020-08-03T16:44:52Z</time>
      </trkpt>
      <trkpt lat="47.43422" lon="-2.45181">
        <ele>14</ele>
        <time>2020-08-03T16:44:53Z</time>
      </trkpt>
      <trkpt lat="47.43421" lon="-2.45183">
        <ele>14.2</ele>
        <time>2020-08-03T16:44:54Z</time>
      </trkpt>
      <trkpt lat="47.43421" lon="-2.45184">
        <ele>14.8</ele>
        <time>2020-08-03T16:44:55Z</time>
      </trkpt>
      <trkpt lat="47.4342" lon="-2.45183">
        <ele>14.4</ele>
        <time>2020-08-03T16:44:56Z</time>
      </trkpt>
      <trkpt lat="47.4342" lon="-2.45183">
        <ele>14.4</ele>
        <time>2020-08-03T16:44:57Z</time>
      </trkpt>
      <trkpt lat="47.4342" lon="-2.45182">
        <ele>14.8</ele>
        <time>2020-08-03T16:44:58Z</time>
      </trkpt>
      <trkpt lat="47.4342" lon="-2.45182">
        <ele>14.6</ele>
        <time>2020-08-03T16:44:59Z</time>
      </trkpt>
      <trkpt lat="47.4342" lon="-2.45182">
        <ele>14.8</ele>
        <time>2020-08-03T16:45:00Z</time>
      </trkpt>
      <trkpt lat="47.4342" lon="-2.45182">
        <ele>14.6</ele>
        <time>2020-08-03T16:45:01Z</time>
      </trkpt>
      <trkpt lat="47.4342" lon="-2.45182">
        <ele>14.6</ele>
        <time>2020-08-03T16:45:02Z</time>
      </trkpt>
      <trkpt lat="47.4342" lon="-2.45182">
        <ele>14.6</ele>
        <time>2020-08-03T16:45:03Z</time>
      </trkpt>
      <trkpt lat="47.4342" lon="-2.45182">
        <ele>14.6</ele>
        <time>2020-08-03T16:45:04Z</time>
      </trkpt>
      <trkpt lat="47.43409" lon="-2.45192">
        <ele>14.2</ele>
        <time>2020-08-03T16:45:36Z</time>
      </trkpt>
      <trkpt lat="47.43409" lon="-2.45192">
        <ele>14.2</ele>
        <time>2020-08-03T16:45:37Z</time>
      </trkpt>
      <trkpt lat="47.43409" lon="-2.45192">
        <ele>14.2</ele>
        <time>2020-08-03T16:45:38Z</time>
      </trkpt>
      <trkpt lat="47.43408" lon="-2.45193">
        <ele>14.2</ele>
        <time>2020-08-03T16:45:39Z</time>
      </trkpt>
      <trkpt lat="47.43406" lon="-2.45193">
        <ele>14.2</ele>
        <time>2020-08-03T16:45:40Z</time>
      </trkpt>
      <trkpt lat="47.43405" lon="-2.45193">
        <ele>14.2</ele>
        <time>2020-08-03T16:45:41Z</time>
      </trkpt>
      <trkpt lat="47.43404" lon="-2.45194">
        <ele>14.2</ele>
        <time>2020-08-03T16:45:42Z</time>
      </trkpt>
      <trkpt lat="47.43403" lon="-2.45194">
        <ele>14</ele>
        <time>2020-08-03T16:45:43Z</time>
      </trkpt>
      <trkpt lat="47.43401" lon="-2.45194">
        <ele>14.2</ele>
        <time>2020-08-03T16:45:44Z</time>
      </trkpt>
      <trkpt lat="47.434" lon="-2.45194">
        <ele>14</ele>
        <time>2020-08-03T16:45:45Z</time>
      </trkpt>
      <trkpt lat="47.43399" lon="-2.45194">
        <ele>14</ele>
        <time>2020-08-03T16:45:46Z</time>
      </trkpt>
      <trkpt lat="47.43397" lon="-2.45195">
        <ele>14</ele>
        <time>2020-08-03T16:45:47Z</time>
      </trkpt>
      <trkpt lat="47.43396" lon="-2.45195">
        <ele>14</ele>
        <time>2020-08-03T16:45:48Z</time>
      </trkpt>
      <trkpt lat="47.43395" lon="-2.45195">
        <ele>14.2</ele>
        <time>2020-08-03T16:45:49Z</time>
      </trkpt>
      <trkpt lat="47.43394" lon="-2.45195">
        <ele>14.2</ele>
        <time>2020-08-03T16:45:50Z</time>
      </trkpt>
      <trkpt lat="47.43393" lon="-2.45195">
        <ele>14.2</ele>
        <time>2020-08-03T16:45:51Z</time>
      </trkpt>
      <trkpt lat="47.43392" lon="-2.45195">
        <ele>14.2</ele>
        <time>2020-08-03T16:45:52Z</time>
      </trkpt>
      <trkpt lat="47.43391" lon="-2.45195">
        <ele>14.4</ele>
        <time>2020-08-03T16:45:53Z</time>
      </trkpt>
      <trkpt lat="47.4339" lon="-2.45194">
        <ele>14.6</ele>
        <time>2020-08-03T16:45:54Z</time>
      </trkpt>
      <trkpt lat="47.43389" lon="-2.45194">
        <ele>14.4</ele>
        <time>2020-08-03T16:45:55Z</time>
      </trkpt>
      <trkpt lat="47.43388" lon="-2.45194">
        <ele>14.6</ele>
        <time>2020-08-03T16:45:56Z</time>
      </trkpt>
      <trkpt lat="47.43388" lon="-2.45193">
        <ele>14.6</ele>
        <time>2020-08-03T16:45:57Z</time>
      </trkpt>
      <trkpt lat="47.43387" lon="-2.45193">
        <ele>14.6</ele>
        <time>2020-08-03T16:45:58Z</time>
      </trkpt>
      <trkpt lat="47.43387" lon="-2.45193">
        <ele>14.8</ele>
        <time>2020-08-03T16:45:59Z</time>
      </trkpt>
      <trkpt lat="47.43386" lon="-2.45193">
        <ele>15</ele>
        <time>2020-08-03T16:46:00Z</time>
      </trkpt>
      <trkpt lat="47.43385" lon="-2.45193">
        <ele>14.8</ele>
        <time>2020-08-03T16:46:01Z</time>
      </trkpt>
      <trkpt lat="47.43384" lon="-2.45193">
        <ele>15</ele>
        <time>2020-08-03T16:46:02Z</time>
      </trkpt>
      <trkpt lat="47.43382" lon="-2.45193">
        <ele>15</ele>
        <time>2020-08-03T16:46:03Z</time>
      </trkpt>
      <trkpt lat="47.4338" lon="-2.45192">
        <ele>15</ele>
        <time>2020-08-03T16:46:04Z</time>
      </trkpt>
      <trkpt lat="47.43379" lon="-2.45192">
        <ele>15</ele>
        <time>2020-08-03T16:46:05Z</time>
      </trkpt>
      <trkpt lat="47.43377" lon="-2.45192">
        <ele>15</ele>
        <time>2020-08-03T16:46:06Z</time>
      </trkpt>
      <trkpt lat="47.43375" lon="-2.45191">
        <ele>15.2</ele>
        <time>2020-08-03T16:46:07Z</time>
      </trkpt>
      <trkpt lat="47.43373" lon="-2.45191">
        <ele>15.2</ele>
        <time>2020-08-03T16:46:08Z</time>
      </trkpt>
      <trkpt lat="47.43371" lon="-2.45191">
        <ele>15.2</ele>
        <time>2020-08-03T16:46:09Z</time>
      </trkpt>
      <trkpt lat="47.43368" lon="-2.45189">
        <ele>15.2</ele>
        <time>2020-08-03T16:46:10Z</time>
      </trkpt>
      <trkpt lat="47.43365" lon="-2.45188">
        <ele>15.2</ele>
        <time>2020-08-03T16:46:11Z</time>
      </trkpt>
      <trkpt lat="47.43362" lon="-2.45188">
        <ele>15</ele>
        <time>2020-08-03T16:46:12Z</time>
      </trkpt>
      <trkpt lat="47.4336" lon="-2.45187">
        <ele>15.4</ele>
        <time>2020-08-03T16:46:13Z</time>
      </trkpt>
      <trkpt lat="47.43357" lon="-2.45186">
        <ele>15.4</ele>
        <time>2020-08-03T16:46:14Z</time>
      </trkpt>
      <trkpt lat="47.43354" lon="-2.45185">
        <ele>15.4</ele>
        <time>2020-08-03T16:46:15Z</time>
      </trkpt>
      <trkpt lat="47.43351" lon="-2.45184">
        <ele>15.6</ele>
        <time>2020-08-03T16:46:16Z</time>
      </trkpt>
      <trkpt lat="47.43349" lon="-2.45183">
        <ele>15.6</ele>
        <time>2020-08-03T16:46:17Z</time>
      </trkpt>
      <trkpt lat="47.43347" lon="-2.45183">
        <ele>15.6</ele>
        <time>2020-08-03T16:46:18Z</time>
      </trkpt>
      <trkpt lat="47.43345" lon="-2.45183">
        <ele>16</ele>
        <time>2020-08-03T16:46:19Z</time>
      </trkpt>
      <trkpt lat="47.43343" lon="-2.45182">
        <ele>16</ele>
        <time>2020-08-03T16:46:20Z</time>
      </trkpt>
      <trkpt lat="47.43341" lon="-2.45182">
        <ele>16</ele>
        <time>2020-08-03T16:46:21Z</time>
      </trkpt>
      <trkpt lat="47.43338" lon="-2.45182">
        <ele>16.2</ele>
        <time>2020-08-03T16:46:22Z</time>
      </trkpt>
      <trkpt lat="47.43335" lon="-2.45181">
        <ele>16.2</ele>
        <time>2020-08-03T16:46:23Z</time>
      </trkpt>
      <trkpt lat="47.43331" lon="-2.4518">
        <ele>17.2</ele>
        <time>2020-08-03T16:46:24Z</time>
      </trkpt>
      <trkpt lat="47.43328" lon="-2.45179">
        <ele>18.4</ele>
        <time>2020-08-03T16:46:25Z</time>
      </trkpt>
      <trkpt lat="47.43325" lon="-2.45179">
        <ele>18.2</ele>
        <time>2020-08-03T16:46:26Z</time>
      </trkpt>
      <trkpt lat="47.43322" lon="-2.4518">
        <ele>18.2</ele>
        <time>2020-08-03T16:46:27Z</time>
      </trkpt>
      <trkpt lat="47.4332" lon="-2.4518">
        <ele>18.2</ele>
        <time>2020-08-03T16:46:28Z</time>
      </trkpt>
      <trkpt lat="47.43317" lon="-2.4518">
        <ele>18</ele>
        <time>2020-08-03T16:46:29Z</time>
      </trkpt>
      <trkpt lat="47.43314" lon="-2.4518">
        <ele>18</ele>
        <time>2020-08-03T16:46:30Z</time>
      </trkpt>
      <trkpt lat="47.43312" lon="-2.4518">
        <ele>17.8</ele>
        <time>2020-08-03T16:46:31Z</time>
      </trkpt>
      <trkpt lat="47.43309" lon="-2.4518">
        <ele>17.6</ele>
        <time>2020-08-03T16:46:32Z</time>
      </trkpt>
      <trkpt lat="47.43307" lon="-2.4518">
        <ele>17.6</ele>
        <time>2020-08-03T16:46:33Z</time>
      </trkpt>
      <trkpt lat="47.43304" lon="-2.45181">
        <ele>17.8</ele>
        <time>2020-08-03T16:46:34Z</time>
      </trkpt>
      <trkpt lat="47.43301" lon="-2.45181">
        <ele>17.8</ele>
        <time>2020-08-03T16:46:35Z</time>
      </trkpt>
      <trkpt lat="47.43299" lon="-2.45181">
        <ele>17.8</ele>
        <time>2020-08-03T16:46:36Z</time>
      </trkpt>
      <trkpt lat="47.43296" lon="-2.45182">
        <ele>17.8</ele>
        <time>2020-08-03T16:46:37Z</time>
      </trkpt>
      <trkpt lat="47.43293" lon="-2.45182">
        <ele>17.8</ele>
        <time>2020-08-03T16:46:38Z</time>
      </trkpt>
      <trkpt lat="47.43291" lon="-2.45182">
        <ele>17.8</ele>
        <time>2020-08-03T16:46:39Z</time>
      </trkpt>
      <trkpt lat="47.43288" lon="-2.45182">
        <ele>17.6</ele>
        <time>2020-08-03T16:46:40Z</time>
      </trkpt>
      <trkpt lat="47.43285" lon="-2.45183">
        <ele>17.6</ele>
        <time>2020-08-03T16:46:41Z</time>
      </trkpt>
      <trkpt lat="47.43283" lon="-2.45183">
        <ele>17.6</ele>
        <time>2020-08-03T16:46:42Z</time>
      </trkpt>
      <trkpt lat="47.4328" lon="-2.45184">
        <ele>17.6</ele>
        <time>2020-08-03T16:46:43Z</time>
      </trkpt>
      <trkpt lat="47.43277" lon="-2.45185">
        <ele>17.8</ele>
        <time>2020-08-03T16:46:44Z</time>
      </trkpt>
      <trkpt lat="47.43275" lon="-2.45186">
        <ele>17.8</ele>
        <time>2020-08-03T16:46:45Z</time>
      </trkpt>
      <trkpt lat="47.43272" lon="-2.45187">
        <ele>18</ele>
        <time>2020-08-03T16:46:46Z</time>
      </trkpt>
      <trkpt lat="47.43269" lon="-2.45187">
        <ele>18</ele>
        <time>2020-08-03T16:46:47Z</time>
      </trkpt>
      <trkpt lat="47.43267" lon="-2.45188">
        <ele>18.2</ele>
        <time>2020-08-03T16:46:48Z</time>
      </trkpt>
      <trkpt lat="47.43264" lon="-2.45189">
        <ele>18.2</ele>
        <time>2020-08-03T16:46:49Z</time>
      </trkpt>
      <trkpt lat="47.43261" lon="-2.4519">
        <ele>18.4</ele>
        <time>2020-08-03T16:46:50Z</time>
      </trkpt>
      <trkpt lat="47.43258" lon="-2.4519">
        <ele>18.6</ele>
        <time>2020-08-03T16:46:51Z</time>
      </trkpt>
      <trkpt lat="47.43256" lon="-2.45191">
        <ele>18.6</ele>
        <time>2020-08-03T16:46:52Z</time>
      </trkpt>
      <trkpt lat="47.43253" lon="-2.45192">
        <ele>18.8</ele>
        <time>2020-08-03T16:46:53Z</time>
      </trkpt>
      <trkpt lat="47.43251" lon="-2.45192">
        <ele>19</ele>
        <time>2020-08-03T16:46:54Z</time>
      </trkpt>
      <trkpt lat="47.43249" lon="-2.45193">
        <ele>19</ele>
        <time>2020-08-03T16:46:55Z</time>
      </trkpt>
      <trkpt lat="47.43246" lon="-2.45195">
        <ele>18.8</ele>
        <time>2020-08-03T16:46:56Z</time>
      </trkpt>
      <trkpt lat="47.43244" lon="-2.45197">
        <ele>18.8</ele>
        <time>2020-08-03T16:46:57Z</time>
      </trkpt>
      <trkpt lat="47.43242" lon="-2.45199">
        <ele>18.8</ele>
        <time>2020-08-03T16:46:58Z</time>
      </trkpt>
      <trkpt lat="47.4324" lon="-2.45202">
        <ele>19</ele>
        <time>2020-08-03T16:46:59Z</time>
      </trkpt>
      <trkpt lat="47.43238" lon="-2.45205">
        <ele>19</ele>
        <time>2020-08-03T16:47:00Z</time>
      </trkpt>
      <trkpt lat="47.43236" lon="-2.45208">
        <ele>18.8</ele>
        <time>2020-08-03T16:47:01Z</time>
      </trkpt>
      <trkpt lat="47.43234" lon="-2.45211">
        <ele>18.6</ele>
        <time>2020-08-03T16:47:02Z</time>
      </trkpt>
      <trkpt lat="47.43233" lon="-2.45214">
        <ele>18.2</ele>
        <time>2020-08-03T16:47:03Z</time>
      </trkpt>
      <trkpt lat="47.43231" lon="-2.45217">
        <ele>17.2</ele>
        <time>2020-08-03T16:47:04Z</time>
      </trkpt>
      <trkpt lat="47.43229" lon="-2.45222">
        <ele>17.2</ele>
        <time>2020-08-03T16:47:05Z</time>
      </trkpt>
      <trkpt lat="47.43228" lon="-2.45226">
        <ele>16.6</ele>
        <time>2020-08-03T16:47:06Z</time>
      </trkpt>
      <trkpt lat="47.43226" lon="-2.4523">
        <ele>16.6</ele>
        <time>2020-08-03T16:47:07Z</time>
      </trkpt>
      <trkpt lat="47.43225" lon="-2.45235">
        <ele>16.8</ele>
        <time>2020-08-03T16:47:08Z</time>
      </trkpt>
      <trkpt lat="47.43224" lon="-2.4524">
        <ele>16.8</ele>
        <time>2020-08-03T16:47:09Z</time>
      </trkpt>
      <trkpt lat="47.43223" lon="-2.45244">
        <ele>16.8</ele>
        <time>2020-08-03T16:47:10Z</time>
      </trkpt>
      <trkpt lat="47.43222" lon="-2.45249">
        <ele>16.4</ele>
        <time>2020-08-03T16:47:11Z</time>
      </trkpt>
      <trkpt lat="47.43221" lon="-2.45254">
        <ele>16.2</ele>
        <time>2020-08-03T16:47:12Z</time>
      </trkpt>
      <trkpt lat="47.4322" lon="-2.45259">
        <ele>15.8</ele>
        <time>2020-08-03T16:47:13Z</time>
      </trkpt>
      <trkpt lat="47.43219" lon="-2.45263">
        <ele>15.8</ele>
        <time>2020-08-03T16:47:14Z</time>
      </trkpt>
      <trkpt lat="47.43219" lon="-2.45267">
        <ele>16</ele>
        <time>2020-08-03T16:47:15Z</time>
      </trkpt>
      <trkpt lat="47.43217" lon="-2.4527">
        <ele>15.8</ele>
        <time>2020-08-03T16:47:16Z</time>
      </trkpt>
      <trkpt lat="47.43215" lon="-2.45273">
        <ele>15.6</ele>
        <time>2020-08-03T16:47:17Z</time>
      </trkpt>
      <trkpt lat="47.43214" lon="-2.45275">
        <ele>15.6</ele>
        <time>2020-08-03T16:47:18Z</time>
      </trkpt>
      <trkpt lat="47.43212" lon="-2.45277">
        <ele>15</ele>
        <time>2020-08-03T16:47:19Z</time>
      </trkpt>
      <trkpt lat="47.4321" lon="-2.45277">
        <ele>15</ele>
        <time>2020-08-03T16:47:20Z</time>
      </trkpt>
      <trkpt lat="47.43208" lon="-2.45278">
        <ele>14.6</ele>
        <time>2020-08-03T16:47:21Z</time>
      </trkpt>
      <trkpt lat="47.43206" lon="-2.45278">
        <ele>14.4</ele>
        <time>2020-08-03T16:47:22Z</time>
      </trkpt>
      <trkpt lat="47.43204" lon="-2.45278">
        <ele>14.4</ele>
        <time>2020-08-03T16:47:23Z</time>
      </trkpt>
      <trkpt lat="47.43202" lon="-2.45278">
        <ele>14.2</ele>
        <time>2020-08-03T16:47:24Z</time>
      </trkpt>
      <trkpt lat="47.432" lon="-2.45277">
        <ele>14.2</ele>
        <time>2020-08-03T16:47:25Z</time>
      </trkpt>
      <trkpt lat="47.43199" lon="-2.45276">
        <ele>14.2</ele>
        <time>2020-08-03T16:47:26Z</time>
      </trkpt>
      <trkpt lat="47.43197" lon="-2.45274">
        <ele>14.4</ele>
        <time>2020-08-03T16:47:27Z</time>
      </trkpt>
      <trkpt lat="47.43196" lon="-2.45272">
        <ele>14.6</ele>
        <time>2020-08-03T16:47:28Z</time>
      </trkpt>
      <trkpt lat="47.43195" lon="-2.4527">
        <ele>14.6</ele>
        <time>2020-08-03T16:47:29Z</time>
      </trkpt>
      <trkpt lat="47.43194" lon="-2.45269">
        <ele>14.8</ele>
        <time>2020-08-03T16:47:30Z</time>
      </trkpt>
      <trkpt lat="47.43193" lon="-2.45268">
        <ele>14.8</ele>
        <time>2020-08-03T16:47:31Z</time>
      </trkpt>
      <trkpt lat="47.43193" lon="-2.45267">
        <ele>15</ele>
        <time>2020-08-03T16:47:32Z</time>
      </trkpt>
      <trkpt lat="47.43192" lon="-2.45264">
        <ele>15.2</ele>
        <time>2020-08-03T16:47:33Z</time>
      </trkpt>
      <trkpt lat="47.43192" lon="-2.45261">
        <ele>15.2</ele>
        <time>2020-08-03T16:47:34Z</time>
      </trkpt>
      <trkpt lat="47.43191" lon="-2.45258">
        <ele>15.4</ele>
        <time>2020-08-03T16:47:35Z</time>
      </trkpt>
      <trkpt lat="47.43191" lon="-2.45255">
        <ele>15.4</ele>
        <time>2020-08-03T16:47:36Z</time>
      </trkpt>
      <trkpt lat="47.4319" lon="-2.45251">
        <ele>15.6</ele>
        <time>2020-08-03T16:47:37Z</time>
      </trkpt>
      <trkpt lat="47.43189" lon="-2.45248">
        <ele>15.6</ele>
        <time>2020-08-03T16:47:38Z</time>
      </trkpt>
      <trkpt lat="47.43189" lon="-2.45245">
        <ele>15.6</ele>
        <time>2020-08-03T16:47:39Z</time>
      </trkpt>
      <trkpt lat="47.43188" lon="-2.45242">
        <ele>15.4</ele>
        <time>2020-08-03T16:47:40Z</time>
      </trkpt>
      <trkpt lat="47.43188" lon="-2.4524">
        <ele>15.4</ele>
        <time>2020-08-03T16:47:41Z</time>
      </trkpt>
      <trkpt lat="47.43188" lon="-2.45237">
        <ele>15.4</ele>
        <time>2020-08-03T16:47:42Z</time>
      </trkpt>
      <trkpt lat="47.43187" lon="-2.45234">
        <ele>15.4</ele>
        <time>2020-08-03T16:47:43Z</time>
      </trkpt>
      <trkpt lat="47.43186" lon="-2.4523">
        <ele>15.4</ele>
        <time>2020-08-03T16:47:44Z</time>
      </trkpt>
      <trkpt lat="47.43186" lon="-2.45227">
        <ele>15.4</ele>
        <time>2020-08-03T16:47:45Z</time>
      </trkpt>
      <trkpt lat="47.43186" lon="-2.45224">
        <ele>15.4</ele>
        <time>2020-08-03T16:47:46Z</time>
      </trkpt>
      <trkpt lat="47.43185" lon="-2.4522">
        <ele>15.4</ele>
        <time>2020-08-03T16:47:47Z</time>
      </trkpt>
      <trkpt lat="47.43184" lon="-2.45217">
        <ele>15.4</ele>
        <time>2020-08-03T16:47:48Z</time>
      </trkpt>
      <trkpt lat="47.43184" lon="-2.45214">
        <ele>15.6</ele>
        <time>2020-08-03T16:47:49Z</time>
      </trkpt>
      <trkpt lat="47.43184" lon="-2.45211">
        <ele>16</ele>
        <time>2020-08-03T16:47:50Z</time>
      </trkpt>
      <trkpt lat="47.43184" lon="-2.45208">
        <ele>16</ele>
        <time>2020-08-03T16:47:51Z</time>
      </trkpt>
      <trkpt lat="47.43183" lon="-2.45205">
        <ele>16</ele>
        <time>2020-08-03T16:47:52Z</time>
      </trkpt>
      <trkpt lat="47.43183" lon="-2.45203">
        <ele>16.2</ele>
        <time>2020-08-03T16:47:53Z</time>
      </trkpt>
      <trkpt lat="47.43182" lon="-2.45201">
        <ele>16.4</ele>
        <time>2020-08-03T16:47:54Z</time>
      </trkpt>
      <trkpt lat="47.4318" lon="-2.452">
        <ele>16.4</ele>
        <time>2020-08-03T16:47:55Z</time>
      </trkpt>
      <trkpt lat="47.43179" lon="-2.45199">
        <ele>16.4</ele>
        <time>2020-08-03T16:47:56Z</time>
      </trkpt>
      <trkpt lat="47.43177" lon="-2.45199">
        <ele>16.6</ele>
        <time>2020-08-03T16:47:57Z</time>
      </trkpt>
      <trkpt lat="47.43174" lon="-2.45198">
        <ele>17.2</ele>
        <time>2020-08-03T16:47:58Z</time>
      </trkpt>
      <trkpt lat="47.43172" lon="-2.45199">
        <ele>16.8</ele>
        <time>2020-08-03T16:47:59Z</time>
      </trkpt>
      <trkpt lat="47.4317" lon="-2.452">
        <ele>17</ele>
        <time>2020-08-03T16:48:00Z</time>
      </trkpt>
      <trkpt lat="47.43168" lon="-2.45201">
        <ele>17</ele>
        <time>2020-08-03T16:48:01Z</time>
      </trkpt>
      <trkpt lat="47.43165" lon="-2.45202">
        <ele>17</ele>
        <time>2020-08-03T16:48:02Z</time>
      </trkpt>
      <trkpt lat="47.43163" lon="-2.45203">
        <ele>16.8</ele>
        <time>2020-08-03T16:48:03Z</time>
      </trkpt>
      <trkpt lat="47.4316" lon="-2.45205">
        <ele>16.6</ele>
        <time>2020-08-03T16:48:04Z</time>
      </trkpt>
      <trkpt lat="47.43157" lon="-2.45206">
        <ele>17</ele>
        <time>2020-08-03T16:48:05Z</time>
      </trkpt>
      <trkpt lat="47.43155" lon="-2.45207">
        <ele>17.4</ele>
        <time>2020-08-03T16:48:06Z</time>
      </trkpt>
      <trkpt lat="47.43152" lon="-2.45209">
        <ele>17.4</ele>
        <time>2020-08-03T16:48:07Z</time>
      </trkpt>
      <trkpt lat="47.4315" lon="-2.4521">
        <ele>17.4</ele>
        <time>2020-08-03T16:48:08Z</time>
      </trkpt>
      <trkpt lat="47.43147" lon="-2.45211">
        <ele>17.4</ele>
        <time>2020-08-03T16:48:09Z</time>
      </trkpt>
      <trkpt lat="47.43145" lon="-2.45212">
        <ele>17.4</ele>
        <time>2020-08-03T16:48:10Z</time>
      </trkpt>
      <trkpt lat="47.43143" lon="-2.45213">
        <ele>17.4</ele>
        <time>2020-08-03T16:48:11Z</time>
      </trkpt>
      <trkpt lat="47.43141" lon="-2.45214">
        <ele>17.4</ele>
        <time>2020-08-03T16:48:12Z</time>
      </trkpt>
      <trkpt lat="47.43139" lon="-2.45215">
        <ele>17.4</ele>
        <time>2020-08-03T16:48:13Z</time>
      </trkpt>
      <trkpt lat="47.43137" lon="-2.45216">
        <ele>17.2</ele>
        <time>2020-08-03T16:48:14Z</time>
      </trkpt>
      <trkpt lat="47.43136" lon="-2.45217">
        <ele>17.2</ele>
        <time>2020-08-03T16:48:15Z</time>
      </trkpt>
      <trkpt lat="47.43134" lon="-2.45217">
        <ele>17.4</ele>
        <time>2020-08-03T16:48:16Z</time>
      </trkpt>
      <trkpt lat="47.43133" lon="-2.45217">
        <ele>17.4</ele>
        <time>2020-08-03T16:48:17Z</time>
      </trkpt>
      <trkpt lat="47.43132" lon="-2.45217">
        <ele>17.6</ele>
        <time>2020-08-03T16:48:18Z</time>
      </trkpt>
      <trkpt lat="47.43131" lon="-2.45217">
        <ele>17.4</ele>
        <time>2020-08-03T16:48:19Z</time>
      </trkpt>
      <trkpt lat="47.4313" lon="-2.45217">
        <ele>17.4</ele>
        <time>2020-08-03T16:48:20Z</time>
      </trkpt>
      <trkpt lat="47.43129" lon="-2.45217">
        <ele>17.4</ele>
        <time>2020-08-03T16:48:21Z</time>
      </trkpt>
      <trkpt lat="47.43129" lon="-2.45218">
        <ele>17.2</ele>
        <time>2020-08-03T16:48:22Z</time>
      </trkpt>
      <trkpt lat="47.43129" lon="-2.45219">
        <ele>17</ele>
        <time>2020-08-03T16:48:23Z</time>
      </trkpt>
      <trkpt lat="47.43129" lon="-2.4522">
        <ele>17</ele>
        <time>2020-08-03T16:48:24Z</time>
      </trkpt>
      <trkpt lat="47.43129" lon="-2.45222">
        <ele>17</ele>
        <time>2020-08-03T16:48:25Z</time>
      </trkpt>
      <trkpt lat="47.43129" lon="-2.45223">
        <ele>16.8</ele>
        <time>2020-08-03T16:48:26Z</time>
      </trkpt>
      <trkpt lat="47.43129" lon="-2.45224">
        <ele>16.8</ele>
        <time>2020-08-03T16:48:27Z</time>
      </trkpt>
      <trkpt lat="47.43129" lon="-2.45225">
        <ele>16.8</ele>
        <time>2020-08-03T16:48:28Z</time>
      </trkpt>
      <trkpt lat="47.43129" lon="-2.45226">
        <ele>16.8</ele>
        <time>2020-08-03T16:48:29Z</time>
      </trkpt>
      <trkpt lat="47.43128" lon="-2.45227">
        <ele>16.6</ele>
        <time>2020-08-03T16:48:30Z</time>
      </trkpt>
      <trkpt lat="47.43128" lon="-2.45228">
        <ele>16.6</ele>
        <time>2020-08-03T16:48:31Z</time>
      </trkpt>
      <trkpt lat="47.43128" lon="-2.4523">
        <ele>16.4</ele>
        <time>2020-08-03T16:48:32Z</time>
      </trkpt>
      <trkpt lat="47.43128" lon="-2.45233">
        <ele>16.2</ele>
        <time>2020-08-03T16:48:33Z</time>
      </trkpt>
      <trkpt lat="47.43127" lon="-2.45235">
        <ele>16</ele>
        <time>2020-08-03T16:48:34Z</time>
      </trkpt>
      <trkpt lat="47.43127" lon="-2.45237">
        <ele>16</ele>
        <time>2020-08-03T16:48:35Z</time>
      </trkpt>
      <trkpt lat="47.43127" lon="-2.45239">
        <ele>15.8</ele>
        <time>2020-08-03T16:48:36Z</time>
      </trkpt>
      <trkpt lat="47.43126" lon="-2.4524">
        <ele>15.4</ele>
        <time>2020-08-03T16:48:37Z</time>
      </trkpt>
      <trkpt lat="47.43126" lon="-2.4524">
        <ele>15.6</ele>
        <time>2020-08-03T16:48:38Z</time>
      </trkpt>
      <trkpt lat="47.43126" lon="-2.4524">
        <ele>15.8</ele>
        <time>2020-08-03T16:48:39Z</time>
      </trkpt>
      <trkpt lat="47.43126" lon="-2.45239">
        <ele>16</ele>
        <time>2020-08-03T16:48:40Z</time>
      </trkpt>
      <trkpt lat="47.43126" lon="-2.45239">
        <ele>16</ele>
        <time>2020-08-03T16:48:41Z</time>
      </trkpt>
      <trkpt lat="47.43126" lon="-2.45239">
        <ele>16</ele>
        <time>2020-08-03T16:48:42Z</time>
      </trkpt>
      <trkpt lat="47.43125" lon="-2.45239">
        <ele>15.8</ele>
        <time>2020-08-03T16:48:43Z</time>
      </trkpt>
      <trkpt lat="47.4312" lon="-2.4527">
        <ele>15.2</ele>
        <time>2020-08-03T16:48:59Z</time>
      </trkpt>
      <trkpt lat="47.4312" lon="-2.45272">
        <ele>15.2</ele>
        <time>2020-08-03T16:49:00Z</time>
      </trkpt>
      <trkpt lat="47.43119" lon="-2.45275">
        <ele>15.4</ele>
        <time>2020-08-03T16:49:01Z</time>
      </trkpt>
      <trkpt lat="47.43118" lon="-2.45278">
        <ele>15.4</ele>
        <time>2020-08-03T16:49:02Z</time>
      </trkpt>
      <trkpt lat="47.43117" lon="-2.45282">
        <ele>15.4</ele>
        <time>2020-08-03T16:49:03Z</time>
      </trkpt>
      <trkpt lat="47.43116" lon="-2.45285">
        <ele>15.8</ele>
        <time>2020-08-03T16:49:04Z</time>
      </trkpt>
      <trkpt lat="47.43115" lon="-2.45288">
        <ele>15.8</ele>
        <time>2020-08-03T16:49:05Z</time>
      </trkpt>
      <trkpt lat="47.43113" lon="-2.45292">
        <ele>15.8</ele>
        <time>2020-08-03T16:49:06Z</time>
      </trkpt>
      <trkpt lat="47.43112" lon="-2.45296">
        <ele>15.6</ele>
        <time>2020-08-03T16:49:07Z</time>
      </trkpt>
      <trkpt lat="47.4311" lon="-2.45299">
        <ele>15.6</ele>
        <time>2020-08-03T16:49:08Z</time>
      </trkpt>
      <trkpt lat="47.43109" lon="-2.45301">
        <ele>15.6</ele>
        <time>2020-08-03T16:49:09Z</time>
      </trkpt>
      <trkpt lat="47.43107" lon="-2.45304">
        <ele>15.6</ele>
        <time>2020-08-03T16:49:10Z</time>
      </trkpt>
      <trkpt lat="47.43105" lon="-2.45306">
        <ele>15.6</ele>
        <time>2020-08-03T16:49:11Z</time>
      </trkpt>
      <trkpt lat="47.43103" lon="-2.45308">
        <ele>15.4</ele>
        <time>2020-08-03T16:49:12Z</time>
      </trkpt>
      <trkpt lat="47.431" lon="-2.4531">
        <ele>15.6</ele>
        <time>2020-08-03T16:49:13Z</time>
      </trkpt>
      <trkpt lat="47.43097" lon="-2.45312">
        <ele>15.4</ele>
        <time>2020-08-03T16:49:14Z</time>
      </trkpt>
      <trkpt lat="47.43094" lon="-2.45313">
        <ele>15.4</ele>
        <time>2020-08-03T16:49:15Z</time>
      </trkpt>
      <trkpt lat="47.43092" lon="-2.45315">
        <ele>15.6</ele>
        <time>2020-08-03T16:49:16Z</time>
      </trkpt>
      <trkpt lat="47.43089" lon="-2.45316">
        <ele>15.6</ele>
        <time>2020-08-03T16:49:17Z</time>
      </trkpt>
      <trkpt lat="47.43086" lon="-2.45318">
        <ele>15.6</ele>
        <time>2020-08-03T16:49:18Z</time>
      </trkpt>
      <trkpt lat="47.43083" lon="-2.45319">
        <ele>15.6</ele>
        <time>2020-08-03T16:49:19Z</time>
      </trkpt>
      <trkpt lat="47.43081" lon="-2.45321">
        <ele>15.8</ele>
        <time>2020-08-03T16:49:20Z</time>
      </trkpt>
      <trkpt lat="47.43078" lon="-2.45322">
        <ele>15.8</ele>
        <time>2020-08-03T16:49:21Z</time>
      </trkpt>
      <trkpt lat="47.43076" lon="-2.45324">
        <ele>15.8</ele>
        <time>2020-08-03T16:49:22Z</time>
      </trkpt>
      <trkpt lat="47.43074" lon="-2.45325">
        <ele>16</ele>
        <time>2020-08-03T16:49:23Z</time>
      </trkpt>
      <trkpt lat="47.43072" lon="-2.45327">
        <ele>16</ele>
        <time>2020-08-03T16:49:24Z</time>
      </trkpt>
      <trkpt lat="47.43069" lon="-2.45328">
        <ele>16</ele>
        <time>2020-08-03T16:49:25Z</time>
      </trkpt>
      <trkpt lat="47.43067" lon="-2.4533">
        <ele>16</ele>
        <time>2020-08-03T16:49:26Z</time>
      </trkpt>
      <trkpt lat="47.43065" lon="-2.45332">
        <ele>16.2</ele>
        <time>2020-08-03T16:49:27Z</time>
      </trkpt>
      <trkpt lat="47.43063" lon="-2.45334">
        <ele>16.2</ele>
        <time>2020-08-03T16:49:28Z</time>
      </trkpt>
      <trkpt lat="47.43061" lon="-2.45336">
        <ele>16.4</ele>
        <time>2020-08-03T16:49:29Z</time>
      </trkpt>
      <trkpt lat="47.43059" lon="-2.45338">
        <ele>16.8</ele>
        <time>2020-08-03T16:49:30Z</time>
      </trkpt>
      <trkpt lat="47.43057" lon="-2.45339">
        <ele>17</ele>
        <time>2020-08-03T16:49:31Z</time>
      </trkpt>
      <trkpt lat="47.43055" lon="-2.45341">
        <ele>17</ele>
        <time>2020-08-03T16:49:32Z</time>
      </trkpt>
      <trkpt lat="47.43053" lon="-2.45343">
        <ele>17.2</ele>
        <time>2020-08-03T16:49:33Z</time>
      </trkpt>
      <trkpt lat="47.43051" lon="-2.45344">
        <ele>17.2</ele>
        <time>2020-08-03T16:49:34Z</time>
      </trkpt>
      <trkpt lat="47.43049" lon="-2.45345">
        <ele>17.2</ele>
        <time>2020-08-03T16:49:35Z</time>
      </trkpt>
      <trkpt lat="47.43047" lon="-2.45346">
        <ele>17.4</ele>
        <time>2020-08-03T16:49:36Z</time>
      </trkpt>
      <trkpt lat="47.43045" lon="-2.45347">
        <ele>17.6</ele>
        <time>2020-08-03T16:49:37Z</time>
      </trkpt>
      <trkpt lat="47.43043" lon="-2.45348">
        <ele>17.8</ele>
        <time>2020-08-03T16:49:38Z</time>
      </trkpt>
      <trkpt lat="47.43043" lon="-2.45349">
        <ele>18</ele>
        <time>2020-08-03T16:49:39Z</time>
      </trkpt>
      <trkpt lat="47.43041" lon="-2.45349">
        <ele>18</ele>
        <time>2020-08-03T16:49:40Z</time>
      </trkpt>
      <trkpt lat="47.43039" lon="-2.4535">
        <ele>18</ele>
        <time>2020-08-03T16:49:41Z</time>
      </trkpt>
      <trkpt lat="47.43037" lon="-2.45352">
        <ele>18.2</ele>
        <time>2020-08-03T16:49:42Z</time>
      </trkpt>
      <trkpt lat="47.43034" lon="-2.45353">
        <ele>18.4</ele>
        <time>2020-08-03T16:49:43Z</time>
      </trkpt>
      <trkpt lat="47.43032" lon="-2.45354">
        <ele>18.6</ele>
        <time>2020-08-03T16:49:44Z</time>
      </trkpt>
      <trkpt lat="47.4303" lon="-2.45354">
        <ele>18.4</ele>
        <time>2020-08-03T16:49:45Z</time>
      </trkpt>
      <trkpt lat="47.43027" lon="-2.45355">
        <ele>18.6</ele>
        <time>2020-08-03T16:49:46Z</time>
      </trkpt>
      <trkpt lat="47.43025" lon="-2.45355">
        <ele>18.8</ele>
        <time>2020-08-03T16:49:47Z</time>
      </trkpt>
      <trkpt lat="47.43022" lon="-2.45355">
        <ele>18.8</ele>
        <time>2020-08-03T16:49:48Z</time>
      </trkpt>
      <trkpt lat="47.4302" lon="-2.45355">
        <ele>19.6</ele>
        <time>2020-08-03T16:49:49Z</time>
      </trkpt>
      <trkpt lat="47.43018" lon="-2.45355">
        <ele>19.4</ele>
        <time>2020-08-03T16:49:50Z</time>
      </trkpt>
      <trkpt lat="47.43016" lon="-2.45356">
        <ele>19.4</ele>
        <time>2020-08-03T16:49:51Z</time>
      </trkpt>
      <trkpt lat="47.43014" lon="-2.45357">
        <ele>19.2</ele>
        <time>2020-08-03T16:49:52Z</time>
      </trkpt>
      <trkpt lat="47.43011" lon="-2.45358">
        <ele>19.6</ele>
        <time>2020-08-03T16:49:53Z</time>
      </trkpt>
      <trkpt lat="47.43009" lon="-2.45358">
        <ele>19.4</ele>
        <time>2020-08-03T16:49:54Z</time>
      </trkpt>
      <trkpt lat="47.43007" lon="-2.45359">
        <ele>19.6</ele>
        <time>2020-08-03T16:49:55Z</time>
      </trkpt>
      <trkpt lat="47.43005" lon="-2.4536">
        <ele>19.6</ele>
        <time>2020-08-03T16:49:56Z</time>
      </trkpt>
      <trkpt lat="47.43003" lon="-2.4536">
        <ele>19.6</ele>
        <time>2020-08-03T16:49:57Z</time>
      </trkpt>
      <trkpt lat="47.43001" lon="-2.4536">
        <ele>19.8</ele>
        <time>2020-08-03T16:49:58Z</time>
      </trkpt>
      <trkpt lat="47.42999" lon="-2.45362">
        <ele>20</ele>
        <time>2020-08-03T16:49:59Z</time>
      </trkpt>
      <trkpt lat="47.42997" lon="-2.45363">
        <ele>20</ele>
        <time>2020-08-03T16:50:00Z</time>
      </trkpt>
      <trkpt lat="47.42995" lon="-2.45364">
        <ele>20.2</ele>
        <time>2020-08-03T16:50:01Z</time>
      </trkpt>
      <trkpt lat="47.42994" lon="-2.45366">
        <ele>20.6</ele>
        <time>2020-08-03T16:50:02Z</time>
      </trkpt>
      <trkpt lat="47.42992" lon="-2.45368">
        <ele>20.8</ele>
        <time>2020-08-03T16:50:03Z</time>
      </trkpt>
      <trkpt lat="47.42992" lon="-2.4537">
        <ele>20.4</ele>
        <time>2020-08-03T16:50:04Z</time>
      </trkpt>
      <trkpt lat="47.42992" lon="-2.45372">
        <ele>20</ele>
        <time>2020-08-03T16:50:05Z</time>
      </trkpt>
      <trkpt lat="47.42992" lon="-2.45374">
        <ele>19.8</ele>
        <time>2020-08-03T16:50:06Z</time>
      </trkpt>
      <trkpt lat="47.42992" lon="-2.45377">
        <ele>19.6</ele>
        <time>2020-08-03T16:50:07Z</time>
      </trkpt>
      <trkpt lat="47.42991" lon="-2.45379">
        <ele>19.6</ele>
        <time>2020-08-03T16:50:08Z</time>
      </trkpt>
      <trkpt lat="47.4299" lon="-2.45382">
        <ele>19.2</ele>
        <time>2020-08-03T16:50:09Z</time>
      </trkpt>
      <trkpt lat="47.42989" lon="-2.45384">
        <ele>19.6</ele>
        <time>2020-08-03T16:50:10Z</time>
      </trkpt>
      <trkpt lat="47.42988" lon="-2.45386">
        <ele>19.6</ele>
        <time>2020-08-03T16:50:11Z</time>
      </trkpt>
      <trkpt lat="47.42988" lon="-2.45387">
        <ele>19.8</ele>
        <time>2020-08-03T16:50:12Z</time>
      </trkpt>
      <trkpt lat="47.42987" lon="-2.45388">
        <ele>19.8</ele>
        <time>2020-08-03T16:50:13Z</time>
      </trkpt>
      <trkpt lat="47.42987" lon="-2.45388">
        <ele>19.8</ele>
        <time>2020-08-03T16:50:14Z</time>
      </trkpt>
      <trkpt lat="47.42987" lon="-2.45388">
        <ele>20</ele>
        <time>2020-08-03T16:50:15Z</time>
      </trkpt>
      <trkpt lat="47.42987" lon="-2.45388">
        <ele>20</ele>
        <time>2020-08-03T16:50:16Z</time>
      </trkpt>
      <trkpt lat="47.42987" lon="-2.45389">
        <ele>19.8</ele>
        <time>2020-08-03T16:50:17Z</time>
      </trkpt>
      <trkpt lat="47.42986" lon="-2.45389">
        <ele>19.6</ele>
        <time>2020-08-03T16:50:18Z</time>
      </trkpt>
      <trkpt lat="47.42986" lon="-2.45389">
        <ele>19.6</ele>
        <time>2020-08-03T16:50:19Z</time>
      </trkpt>
      <trkpt lat="47.42971" lon="-2.45385">
        <ele>20</ele>
        <time>2020-08-03T16:50:29Z</time>
      </trkpt>
      <trkpt lat="47.42968" lon="-2.45384">
        <ele>19.6</ele>
        <time>2020-08-03T16:50:30Z</time>
      </trkpt>
      <trkpt lat="47.42966" lon="-2.45384">
        <ele>19.8</ele>
        <time>2020-08-03T16:50:31Z</time>
      </trkpt>
      <trkpt lat="47.42963" lon="-2.45384">
        <ele>19.8</ele>
        <time>2020-08-03T16:50:32Z</time>
      </trkpt>
      <trkpt lat="47.42961" lon="-2.45383">
        <ele>19.8</ele>
        <time>2020-08-03T16:50:33Z</time>
      </trkpt>
      <trkpt lat="47.42958" lon="-2.45382">
        <ele>19.8</ele>
        <time>2020-08-03T16:50:34Z</time>
      </trkpt>
      <trkpt lat="47.42956" lon="-2.45381">
        <ele>20</ele>
        <time>2020-08-03T16:50:35Z</time>
      </trkpt>
      <trkpt lat="47.42953" lon="-2.45381">
        <ele>20</ele>
        <time>2020-08-03T16:50:36Z</time>
      </trkpt>
      <trkpt lat="47.42951" lon="-2.4538">
        <ele>20</ele>
        <time>2020-08-03T16:50:37Z</time>
      </trkpt>
      <trkpt lat="47.42948" lon="-2.45381">
        <ele>20</ele>
        <time>2020-08-03T16:50:38Z</time>
      </trkpt>
      <trkpt lat="47.42946" lon="-2.4538">
        <ele>20</ele>
        <time>2020-08-03T16:50:39Z</time>
      </trkpt>
      <trkpt lat="47.42943" lon="-2.4538">
        <ele>20.2</ele>
        <time>2020-08-03T16:50:40Z</time>
      </trkpt>
      <trkpt lat="47.42941" lon="-2.45379">
        <ele>20</ele>
        <time>2020-08-03T16:50:41Z</time>
      </trkpt>
      <trkpt lat="47.42938" lon="-2.45379">
        <ele>19.8</ele>
        <time>2020-08-03T16:50:42Z</time>
      </trkpt>
      <trkpt lat="47.42936" lon="-2.45378">
        <ele>20</ele>
        <time>2020-08-03T16:50:43Z</time>
      </trkpt>
      <trkpt lat="47.42933" lon="-2.45378">
        <ele>20</ele>
        <time>2020-08-03T16:50:44Z</time>
      </trkpt>
      <trkpt lat="47.4293" lon="-2.45377">
        <ele>20</ele>
        <time>2020-08-03T16:50:45Z</time>
      </trkpt>
      <trkpt lat="47.42927" lon="-2.45377">
        <ele>20</ele>
        <time>2020-08-03T16:50:46Z</time>
      </trkpt>
      <trkpt lat="47.42925" lon="-2.45377">
        <ele>19.8</ele>
        <time>2020-08-03T16:50:47Z</time>
      </trkpt>
      <trkpt lat="47.42922" lon="-2.45376">
        <ele>19.4</ele>
        <time>2020-08-03T16:50:48Z</time>
      </trkpt>
      <trkpt lat="47.4292" lon="-2.45376">
        <ele>19.6</ele>
        <time>2020-08-03T16:50:49Z</time>
      </trkpt>
      <trkpt lat="47.42917" lon="-2.45376">
        <ele>19.8</ele>
        <time>2020-08-03T16:50:50Z</time>
      </trkpt>
      <trkpt lat="47.42915" lon="-2.45376">
        <ele>20</ele>
        <time>2020-08-03T16:50:51Z</time>
      </trkpt>
      <trkpt lat="47.42912" lon="-2.45375">
        <ele>20</ele>
        <time>2020-08-03T16:50:52Z</time>
      </trkpt>
      <trkpt lat="47.42909" lon="-2.45375">
        <ele>19.8</ele>
        <time>2020-08-03T16:50:53Z</time>
      </trkpt>
      <trkpt lat="47.42907" lon="-2.45373">
        <ele>19.6</ele>
        <time>2020-08-03T16:50:54Z</time>
      </trkpt>
      <trkpt lat="47.42904" lon="-2.45372">
        <ele>19.4</ele>
        <time>2020-08-03T16:50:55Z</time>
      </trkpt>
      <trkpt lat="47.42901" lon="-2.45372">
        <ele>19.2</ele>
        <time>2020-08-03T16:50:56Z</time>
      </trkpt>
      <trkpt lat="47.42899" lon="-2.45371">
        <ele>19.2</ele>
        <time>2020-08-03T16:50:57Z</time>
      </trkpt>
      <trkpt lat="47.42896" lon="-2.45371">
        <ele>19.2</ele>
        <time>2020-08-03T16:50:58Z</time>
      </trkpt>
      <trkpt lat="47.42893" lon="-2.4537">
        <ele>19.4</ele>
        <time>2020-08-03T16:50:59Z</time>
      </trkpt>
      <trkpt lat="47.4289" lon="-2.4537">
        <ele>19.2</ele>
        <time>2020-08-03T16:51:00Z</time>
      </trkpt>
      <trkpt lat="47.42886" lon="-2.45369">
        <ele>18.6</ele>
        <time>2020-08-03T16:51:01Z</time>
      </trkpt>
      <trkpt lat="47.42883" lon="-2.45369">
        <ele>18.4</ele>
        <time>2020-08-03T16:51:02Z</time>
      </trkpt>
      <trkpt lat="47.42881" lon="-2.45369">
        <ele>18.2</ele>
        <time>2020-08-03T16:51:03Z</time>
      </trkpt>
      <trkpt lat="47.42878" lon="-2.45369">
        <ele>18.4</ele>
        <time>2020-08-03T16:51:04Z</time>
      </trkpt>
      <trkpt lat="47.42876" lon="-2.45371">
        <ele>18.4</ele>
        <time>2020-08-03T16:51:05Z</time>
      </trkpt>
      <trkpt lat="47.42875" lon="-2.45373">
        <ele>18.4</ele>
        <time>2020-08-03T16:51:06Z</time>
      </trkpt>
      <trkpt lat="47.42874" lon="-2.45374">
        <ele>18.4</ele>
        <time>2020-08-03T16:51:07Z</time>
      </trkpt>
      <trkpt lat="47.42873" lon="-2.45376">
        <ele>18.6</ele>
        <time>2020-08-03T16:51:08Z</time>
      </trkpt>
      <trkpt lat="47.42873" lon="-2.45378">
        <ele>18.4</ele>
        <time>2020-08-03T16:51:09Z</time>
      </trkpt>
      <trkpt lat="47.42874" lon="-2.45379">
        <ele>18.4</ele>
        <time>2020-08-03T16:51:10Z</time>
      </trkpt>
      <trkpt lat="47.42874" lon="-2.45381">
        <ele>18.6</ele>
        <time>2020-08-03T16:51:11Z</time>
      </trkpt>
      <trkpt lat="47.42875" lon="-2.45382">
        <ele>18.6</ele>
        <time>2020-08-03T16:51:12Z</time>
      </trkpt>
      <trkpt lat="47.42875" lon="-2.45384">
        <ele>18.6</ele>
        <time>2020-08-03T16:51:13Z</time>
      </trkpt>
      <trkpt lat="47.42875" lon="-2.45386">
        <ele>18.4</ele>
        <time>2020-08-03T16:51:14Z</time>
      </trkpt>
      <trkpt lat="47.42875" lon="-2.45388">
        <ele>18.4</ele>
        <time>2020-08-03T16:51:15Z</time>
      </trkpt>
      <trkpt lat="47.42875" lon="-2.45391">
        <ele>19</ele>
        <time>2020-08-03T16:51:16Z</time>
      </trkpt>
      <trkpt lat="47.42875" lon="-2.45393">
        <ele>18.8</ele>
        <time>2020-08-03T16:51:17Z</time>
      </trkpt>
      <trkpt lat="47.42875" lon="-2.45397">
        <ele>18.4</ele>
        <time>2020-08-03T16:51:18Z</time>
      </trkpt>
      <trkpt lat="47.42875" lon="-2.454">
        <ele>18.4</ele>
        <time>2020-08-03T16:51:19Z</time>
      </trkpt>
      <trkpt lat="47.42875" lon="-2.45402">
        <ele>19.2</ele>
        <time>2020-08-03T16:51:20Z</time>
      </trkpt>
      <trkpt lat="47.42874" lon="-2.45404">
        <ele>19.4</ele>
        <time>2020-08-03T16:51:21Z</time>
      </trkpt>
      <trkpt lat="47.42874" lon="-2.45404">
        <ele>19.2</ele>
        <time>2020-08-03T16:51:22Z</time>
      </trkpt>
      <trkpt lat="47.42873" lon="-2.45404">
        <ele>19</ele>
        <time>2020-08-03T16:51:23Z</time>
      </trkpt>
      <trkpt lat="47.42873" lon="-2.45403">
        <ele>19</ele>
        <time>2020-08-03T16:51:24Z</time>
      </trkpt>
      <trkpt lat="47.42874" lon="-2.45402">
        <ele>19.2</ele>
        <time>2020-08-03T16:51:25Z</time>
      </trkpt>
      <trkpt lat="47.42874" lon="-2.45401">
        <ele>19.2</ele>
        <time>2020-08-03T16:51:26Z</time>
      </trkpt>
      <trkpt lat="47.42875" lon="-2.45402">
        <ele>19.2</ele>
        <time>2020-08-03T16:51:27Z</time>
      </trkpt>
      <trkpt lat="47.42875" lon="-2.45403">
        <ele>19</ele>
        <time>2020-08-03T16:51:28Z</time>
      </trkpt>
      <trkpt lat="47.42875" lon="-2.45404">
        <ele>19</ele>
        <time>2020-08-03T16:51:29Z</time>
      </trkpt>
      <trkpt lat="47.42875" lon="-2.45404">
        <ele>19</ele>
        <time>2020-08-03T16:51:30Z</time>
      </trkpt>
      <trkpt lat="47.42875" lon="-2.45405">
        <ele>19</ele>
        <time>2020-08-03T16:51:31Z</time>
      </trkpt>
      <trkpt lat="47.42875" lon="-2.45406">
        <ele>19.2</ele>
        <time>2020-08-03T16:51:32Z</time>
      </trkpt>
      <trkpt lat="47.42874" lon="-2.45407">
        <ele>19</ele>
        <time>2020-08-03T16:51:33Z</time>
      </trkpt>
      <trkpt lat="47.42874" lon="-2.45408">
        <ele>19.2</ele>
        <time>2020-08-03T16:51:34Z</time>
      </trkpt>
      <trkpt lat="47.42874" lon="-2.45408">
        <ele>19.4</ele>
        <time>2020-08-03T16:51:35Z</time>
      </trkpt>
      <trkpt lat="47.42874" lon="-2.45409">
        <ele>19</ele>
        <time>2020-08-03T16:51:36Z</time>
      </trkpt>
      <trkpt lat="47.42874" lon="-2.4541">
        <ele>18.6</ele>
        <time>2020-08-03T16:51:37Z</time>
      </trkpt>
      <trkpt lat="47.42871" lon="-2.45442">
        <ele>19.6</ele>
        <time>2020-08-03T16:51:49Z</time>
      </trkpt>
      <trkpt lat="47.42871" lon="-2.45447">
        <ele>19.6</ele>
        <time>2020-08-03T16:51:50Z</time>
      </trkpt>
      <trkpt lat="47.42871" lon="-2.45451">
        <ele>19.4</ele>
        <time>2020-08-03T16:51:51Z</time>
      </trkpt>
      <trkpt lat="47.42871" lon="-2.45456">
        <ele>19.8</ele>
        <time>2020-08-03T16:51:52Z</time>
      </trkpt>
      <trkpt lat="47.42871" lon="-2.4546">
        <ele>20.2</ele>
        <time>2020-08-03T16:51:53Z</time>
      </trkpt>
      <trkpt lat="47.42871" lon="-2.45464">
        <ele>20.4</ele>
        <time>2020-08-03T16:51:54Z</time>
      </trkpt>
      <trkpt lat="47.42871" lon="-2.45469">
        <ele>20.8</ele>
        <time>2020-08-03T16:51:55Z</time>
      </trkpt>
      <trkpt lat="47.42871" lon="-2.45473">
        <ele>21</ele>
        <time>2020-08-03T16:51:56Z</time>
      </trkpt>
      <trkpt lat="47.42871" lon="-2.45477">
        <ele>21.2</ele>
        <time>2020-08-03T16:51:57Z</time>
      </trkpt>
      <trkpt lat="47.42872" lon="-2.45482">
        <ele>21.8</ele>
        <time>2020-08-03T16:51:58Z</time>
      </trkpt>
      <trkpt lat="47.42872" lon="-2.45485">
        <ele>22</ele>
        <time>2020-08-03T16:51:59Z</time>
      </trkpt>
      <trkpt lat="47.42872" lon="-2.45489">
        <ele>22.2</ele>
        <time>2020-08-03T16:52:00Z</time>
      </trkpt>
      <trkpt lat="47.42871" lon="-2.45492">
        <ele>22.4</ele>
        <time>2020-08-03T16:52:01Z</time>
      </trkpt>
      <trkpt lat="47.4287" lon="-2.45494">
        <ele>22.6</ele>
        <time>2020-08-03T16:52:02Z</time>
      </trkpt>
      <trkpt lat="47.42868" lon="-2.45497">
        <ele>22.2</ele>
        <time>2020-08-03T16:52:03Z</time>
      </trkpt>
      <trkpt lat="47.42867" lon="-2.45498">
        <ele>22.4</ele>
        <time>2020-08-03T16:52:04Z</time>
      </trkpt>
      <trkpt lat="47.42865" lon="-2.455">
        <ele>22.8</ele>
        <time>2020-08-03T16:52:05Z</time>
      </trkpt>
      <trkpt lat="47.42862" lon="-2.45502">
        <ele>22.8</ele>
        <time>2020-08-03T16:52:06Z</time>
      </trkpt>
      <trkpt lat="47.4286" lon="-2.45503">
        <ele>22.6</ele>
        <time>2020-08-03T16:52:07Z</time>
      </trkpt>
      <trkpt lat="47.42859" lon="-2.45504">
        <ele>23</ele>
        <time>2020-08-03T16:52:08Z</time>
      </trkpt>
      <trkpt lat="47.42857" lon="-2.45505">
        <ele>23.2</ele>
        <time>2020-08-03T16:52:09Z</time>
      </trkpt>
      <trkpt lat="47.42855" lon="-2.45507">
        <ele>23.2</ele>
        <time>2020-08-03T16:52:10Z</time>
      </trkpt>
      <trkpt lat="47.42853" lon="-2.45508">
        <ele>22.6</ele>
        <time>2020-08-03T16:52:11Z</time>
      </trkpt>
      <trkpt lat="47.42851" lon="-2.4551">
        <ele>22.6</ele>
        <time>2020-08-03T16:52:12Z</time>
      </trkpt>
      <trkpt lat="47.42849" lon="-2.45511">
        <ele>22.8</ele>
        <time>2020-08-03T16:52:13Z</time>
      </trkpt>
      <trkpt lat="47.42847" lon="-2.45513">
        <ele>22.8</ele>
        <time>2020-08-03T16:52:14Z</time>
      </trkpt>
      <trkpt lat="47.42845" lon="-2.45514">
        <ele>23.2</ele>
        <time>2020-08-03T16:52:15Z</time>
      </trkpt>
      <trkpt lat="47.42843" lon="-2.45516">
        <ele>23.2</ele>
        <time>2020-08-03T16:52:16Z</time>
      </trkpt>
      <trkpt lat="47.4284" lon="-2.45518">
        <ele>23.2</ele>
        <time>2020-08-03T16:52:17Z</time>
      </trkpt>
      <trkpt lat="47.42838" lon="-2.45519">
        <ele>23.6</ele>
        <time>2020-08-03T16:52:18Z</time>
      </trkpt>
      <trkpt lat="47.42836" lon="-2.45521">
        <ele>23.8</ele>
        <time>2020-08-03T16:52:19Z</time>
      </trkpt>
      <trkpt lat="47.42834" lon="-2.45522">
        <ele>22.8</ele>
        <time>2020-08-03T16:52:20Z</time>
      </trkpt>
      <trkpt lat="47.42832" lon="-2.45524">
        <ele>21.4</ele>
        <time>2020-08-03T16:52:21Z</time>
      </trkpt>
      <trkpt lat="47.42831" lon="-2.45525">
        <ele>21.4</ele>
        <time>2020-08-03T16:52:22Z</time>
      </trkpt>
      <trkpt lat="47.42829" lon="-2.45527">
        <ele>21</ele>
        <time>2020-08-03T16:52:23Z</time>
      </trkpt>
      <trkpt lat="47.42826" lon="-2.45529">
        <ele>20.4</ele>
        <time>2020-08-03T16:52:24Z</time>
      </trkpt>
      <trkpt lat="47.42824" lon="-2.45531">
        <ele>20.4</ele>
        <time>2020-08-03T16:52:25Z</time>
      </trkpt>
      <trkpt lat="47.42822" lon="-2.45533">
        <ele>20.2</ele>
        <time>2020-08-03T16:52:26Z</time>
      </trkpt>
      <trkpt lat="47.42819" lon="-2.45534">
        <ele>20</ele>
        <time>2020-08-03T16:52:27Z</time>
      </trkpt>
      <trkpt lat="47.42817" lon="-2.45536">
        <ele>20.6</ele>
        <time>2020-08-03T16:52:28Z</time>
      </trkpt>
      <trkpt lat="47.42814" lon="-2.45538">
        <ele>21</ele>
        <time>2020-08-03T16:52:29Z</time>
      </trkpt>
      <trkpt lat="47.42812" lon="-2.4554">
        <ele>22.2</ele>
        <time>2020-08-03T16:52:30Z</time>
      </trkpt>
      <trkpt lat="47.42809" lon="-2.45542">
        <ele>22.2</ele>
        <time>2020-08-03T16:52:31Z</time>
      </trkpt>
      <trkpt lat="47.42807" lon="-2.45543">
        <ele>22.2</ele>
        <time>2020-08-03T16:52:32Z</time>
      </trkpt>
      <trkpt lat="47.42804" lon="-2.45544">
        <ele>22.2</ele>
        <time>2020-08-03T16:52:33Z</time>
      </trkpt>
      <trkpt lat="47.42801" lon="-2.45545">
        <ele>22.4</ele>
        <time>2020-08-03T16:52:34Z</time>
      </trkpt>
      <trkpt lat="47.42798" lon="-2.45546">
        <ele>22.6</ele>
        <time>2020-08-03T16:52:35Z</time>
      </trkpt>
      <trkpt lat="47.42795" lon="-2.45546">
        <ele>22.6</ele>
        <time>2020-08-03T16:52:36Z</time>
      </trkpt>
      <trkpt lat="47.42793" lon="-2.45547">
        <ele>22.6</ele>
        <time>2020-08-03T16:52:37Z</time>
      </trkpt>
      <trkpt lat="47.42791" lon="-2.45546">
        <ele>22.2</ele>
        <time>2020-08-03T16:52:38Z</time>
      </trkpt>
      <trkpt lat="47.4279" lon="-2.45545">
        <ele>22</ele>
        <time>2020-08-03T16:52:39Z</time>
      </trkpt>
      <trkpt lat="47.4279" lon="-2.45544">
        <ele>21.6</ele>
        <time>2020-08-03T16:52:40Z</time>
      </trkpt>
      <trkpt lat="47.42789" lon="-2.45543">
        <ele>21.2</ele>
        <time>2020-08-03T16:52:41Z</time>
      </trkpt>
      <trkpt lat="47.42788" lon="-2.45543">
        <ele>21</ele>
        <time>2020-08-03T16:52:42Z</time>
      </trkpt>
      <trkpt lat="47.42787" lon="-2.45545">
        <ele>21.2</ele>
        <time>2020-08-03T16:52:43Z</time>
      </trkpt>
      <trkpt lat="47.42786" lon="-2.45547">
        <ele>21.6</ele>
        <time>2020-08-03T16:52:44Z</time>
      </trkpt>
      <trkpt lat="47.42784" lon="-2.45549">
        <ele>21.8</ele>
        <time>2020-08-03T16:52:45Z</time>
      </trkpt>
      <trkpt lat="47.42783" lon="-2.45552">
        <ele>21.8</ele>
        <time>2020-08-03T16:52:46Z</time>
      </trkpt>
      <trkpt lat="47.42782" lon="-2.45554">
        <ele>21.8</ele>
        <time>2020-08-03T16:52:47Z</time>
      </trkpt>
      <trkpt lat="47.4278" lon="-2.45556">
        <ele>21.8</ele>
        <time>2020-08-03T16:52:48Z</time>
      </trkpt>
      <trkpt lat="47.42777" lon="-2.45559">
        <ele>23</ele>
        <time>2020-08-03T16:52:49Z</time>
      </trkpt>
      <trkpt lat="47.42775" lon="-2.45561">
        <ele>22.4</ele>
        <time>2020-08-03T16:52:50Z</time>
      </trkpt>
      <trkpt lat="47.42774" lon="-2.45563">
        <ele>21.2</ele>
        <time>2020-08-03T16:52:51Z</time>
      </trkpt>
      <trkpt lat="47.42772" lon="-2.45566">
        <ele>20.6</ele>
        <time>2020-08-03T16:52:52Z</time>
      </trkpt>
      <trkpt lat="47.4277" lon="-2.45568">
        <ele>20.4</ele>
        <time>2020-08-03T16:52:53Z</time>
      </trkpt>
      <trkpt lat="47.42768" lon="-2.4557">
        <ele>20.6</ele>
        <time>2020-08-03T16:52:54Z</time>
      </trkpt>
      <trkpt lat="47.42766" lon="-2.45572">
        <ele>21.2</ele>
        <time>2020-08-03T16:52:55Z</time>
      </trkpt>
      <trkpt lat="47.42765" lon="-2.45574">
        <ele>21</ele>
        <time>2020-08-03T16:52:56Z</time>
      </trkpt>
      <trkpt lat="47.42763" lon="-2.45575">
        <ele>20.6</ele>
        <time>2020-08-03T16:52:57Z</time>
      </trkpt>
      <trkpt lat="47.42761" lon="-2.45577">
        <ele>21</ele>
        <time>2020-08-03T16:52:58Z</time>
      </trkpt>
      <trkpt lat="47.4276" lon="-2.4558">
        <ele>21.2</ele>
        <time>2020-08-03T16:52:59Z</time>
      </trkpt>
      <trkpt lat="47.42759" lon="-2.45582">
        <ele>21.4</ele>
        <time>2020-08-03T16:53:00Z</time>
      </trkpt>
      <trkpt lat="47.42757" lon="-2.45583">
        <ele>21.8</ele>
        <time>2020-08-03T16:53:01Z</time>
      </trkpt>
      <trkpt lat="47.42755" lon="-2.45585">
        <ele>21.2</ele>
        <time>2020-08-03T16:53:02Z</time>
      </trkpt>
      <trkpt lat="47.42753" lon="-2.45586">
        <ele>20.8</ele>
        <time>2020-08-03T16:53:03Z</time>
      </trkpt>
      <trkpt lat="47.42751" lon="-2.45588">
        <ele>20.8</ele>
        <time>2020-08-03T16:53:04Z</time>
      </trkpt>
      <trkpt lat="47.42749" lon="-2.4559">
        <ele>20.6</ele>
        <time>2020-08-03T16:53:05Z</time>
      </trkpt>
      <trkpt lat="47.42747" lon="-2.45592">
        <ele>20.4</ele>
        <time>2020-08-03T16:53:06Z</time>
      </trkpt>
      <trkpt lat="47.42744" lon="-2.45593">
        <ele>20.2</ele>
        <time>2020-08-03T16:53:07Z</time>
      </trkpt>
      <trkpt lat="47.42742" lon="-2.45594">
        <ele>20</ele>
        <time>2020-08-03T16:53:08Z</time>
      </trkpt>
      <trkpt lat="47.4274" lon="-2.45596">
        <ele>19.6</ele>
        <time>2020-08-03T16:53:09Z</time>
      </trkpt>
      <trkpt lat="47.42737" lon="-2.45597">
        <ele>19.6</ele>
        <time>2020-08-03T16:53:10Z</time>
      </trkpt>
      <trkpt lat="47.42735" lon="-2.45598">
        <ele>19.4</ele>
        <time>2020-08-03T16:53:11Z</time>
      </trkpt>
      <trkpt lat="47.42732" lon="-2.456">
        <ele>19.2</ele>
        <time>2020-08-03T16:53:12Z</time>
      </trkpt>
      <trkpt lat="47.4273" lon="-2.45602">
        <ele>19.2</ele>
        <time>2020-08-03T16:53:13Z</time>
      </trkpt>
      <trkpt lat="47.42728" lon="-2.45604">
        <ele>19.6</ele>
        <time>2020-08-03T16:53:14Z</time>
      </trkpt>
      <trkpt lat="47.42725" lon="-2.45606">
        <ele>19.6</ele>
        <time>2020-08-03T16:53:15Z</time>
      </trkpt>
      <trkpt lat="47.42723" lon="-2.45607">
        <ele>19.4</ele>
        <time>2020-08-03T16:53:16Z</time>
      </trkpt>
      <trkpt lat="47.4272" lon="-2.45609">
        <ele>19.4</ele>
        <time>2020-08-03T16:53:17Z</time>
      </trkpt>
      <trkpt lat="47.42718" lon="-2.45609">
        <ele>19</ele>
        <time>2020-08-03T16:53:18Z</time>
      </trkpt>
      <trkpt lat="47.42715" lon="-2.4561">
        <ele>19</ele>
        <time>2020-08-03T16:53:19Z</time>
      </trkpt>
      <trkpt lat="47.42712" lon="-2.45611">
        <ele>19.2</ele>
        <time>2020-08-03T16:53:20Z</time>
      </trkpt>
      <trkpt lat="47.4271" lon="-2.45613">
        <ele>19.4</ele>
        <time>2020-08-03T16:53:21Z</time>
      </trkpt>
      <trkpt lat="47.42708" lon="-2.45616">
        <ele>19</ele>
        <time>2020-08-03T16:53:22Z</time>
      </trkpt>
      <trkpt lat="47.42706" lon="-2.45619">
        <ele>19.6</ele>
        <time>2020-08-03T16:53:23Z</time>
      </trkpt>
      <trkpt lat="47.42705" lon="-2.45622">
        <ele>20</ele>
        <time>2020-08-03T16:53:24Z</time>
      </trkpt>
      <trkpt lat="47.42703" lon="-2.45626">
        <ele>20.4</ele>
        <time>2020-08-03T16:53:25Z</time>
      </trkpt>
      <trkpt lat="47.42702" lon="-2.45629">
        <ele>20.4</ele>
        <time>2020-08-03T16:53:26Z</time>
      </trkpt>
      <trkpt lat="47.42701" lon="-2.45632">
        <ele>19.8</ele>
        <time>2020-08-03T16:53:27Z</time>
      </trkpt>
      <trkpt lat="47.42699" lon="-2.45636">
        <ele>19</ele>
        <time>2020-08-03T16:53:28Z</time>
      </trkpt>
      <trkpt lat="47.42697" lon="-2.4564">
        <ele>18.6</ele>
        <time>2020-08-03T16:53:29Z</time>
      </trkpt>
      <trkpt lat="47.42696" lon="-2.45644">
        <ele>19.2</ele>
        <time>2020-08-03T16:53:30Z</time>
      </trkpt>
      <trkpt lat="47.42694" lon="-2.45648">
        <ele>20.2</ele>
        <time>2020-08-03T16:53:31Z</time>
      </trkpt>
      <trkpt lat="47.42692" lon="-2.45651">
        <ele>19.4</ele>
        <time>2020-08-03T16:53:32Z</time>
      </trkpt>
      <trkpt lat="47.4269" lon="-2.45655">
        <ele>17.8</ele>
        <time>2020-08-03T16:53:33Z</time>
      </trkpt>
      <trkpt lat="47.42688" lon="-2.45659">
        <ele>16.6</ele>
        <time>2020-08-03T16:53:34Z</time>
      </trkpt>
      <trkpt lat="47.42687" lon="-2.45663">
        <ele>16.4</ele>
        <time>2020-08-03T16:53:35Z</time>
      </trkpt>
      <trkpt lat="47.42685" lon="-2.45667">
        <ele>16.6</ele>
        <time>2020-08-03T16:53:36Z</time>
      </trkpt>
      <trkpt lat="47.42683" lon="-2.45671">
        <ele>16.4</ele>
        <time>2020-08-03T16:53:37Z</time>
      </trkpt>
      <trkpt lat="47.42681" lon="-2.45675">
        <ele>16.4</ele>
        <time>2020-08-03T16:53:38Z</time>
      </trkpt>
      <trkpt lat="47.42678" lon="-2.45679">
        <ele>16.2</ele>
        <time>2020-08-03T16:53:39Z</time>
      </trkpt>
      <trkpt lat="47.42675" lon="-2.45683">
        <ele>16.4</ele>
        <time>2020-08-03T16:53:40Z</time>
      </trkpt>
      <trkpt lat="47.42672" lon="-2.45685">
        <ele>16.2</ele>
        <time>2020-08-03T16:53:41Z</time>
      </trkpt>
      <trkpt lat="47.42669" lon="-2.45687">
        <ele>15.6</ele>
        <time>2020-08-03T16:53:42Z</time>
      </trkpt>
      <trkpt lat="47.42666" lon="-2.45689">
        <ele>15</ele>
        <time>2020-08-03T16:53:43Z</time>
      </trkpt>
      <trkpt lat="47.42663" lon="-2.45691">
        <ele>14.8</ele>
        <time>2020-08-03T16:53:44Z</time>
      </trkpt>
      <trkpt lat="47.42659" lon="-2.45693">
        <ele>15.2</ele>
        <time>2020-08-03T16:53:45Z</time>
      </trkpt>
      <trkpt lat="47.42656" lon="-2.45694">
        <ele>15.2</ele>
        <time>2020-08-03T16:53:46Z</time>
      </trkpt>
      <trkpt lat="47.42653" lon="-2.45695">
        <ele>15.6</ele>
        <time>2020-08-03T16:53:47Z</time>
      </trkpt>
      <trkpt lat="47.4265" lon="-2.45696">
        <ele>16.2</ele>
        <time>2020-08-03T16:53:48Z</time>
      </trkpt>
      <trkpt lat="47.42646" lon="-2.45698">
        <ele>16.4</ele>
        <time>2020-08-03T16:53:49Z</time>
      </trkpt>
      <trkpt lat="47.42643" lon="-2.45699">
        <ele>16.4</ele>
        <time>2020-08-03T16:53:50Z</time>
      </trkpt>
      <trkpt lat="47.42639" lon="-2.457">
        <ele>16.2</ele>
        <time>2020-08-03T16:53:51Z</time>
      </trkpt>
      <trkpt lat="47.42636" lon="-2.45701">
        <ele>16.2</ele>
        <time>2020-08-03T16:53:52Z</time>
      </trkpt>
      <trkpt lat="47.42632" lon="-2.45701">
        <ele>16.2</ele>
        <time>2020-08-03T16:53:53Z</time>
      </trkpt>
      <trkpt lat="47.42629" lon="-2.45702">
        <ele>16.2</ele>
        <time>2020-08-03T16:53:54Z</time>
      </trkpt>
      <trkpt lat="47.42625" lon="-2.45703">
        <ele>16.2</ele>
        <time>2020-08-03T16:53:55Z</time>
      </trkpt>
      <trkpt lat="47.42622" lon="-2.45703">
        <ele>16.2</ele>
        <time>2020-08-03T16:53:56Z</time>
      </trkpt>
      <trkpt lat="47.42618" lon="-2.45704">
        <ele>15.8</ele>
        <time>2020-08-03T16:53:57Z</time>
      </trkpt>
      <trkpt lat="47.42615" lon="-2.45704">
        <ele>15.8</ele>
        <time>2020-08-03T16:53:58Z</time>
      </trkpt>
      <trkpt lat="47.42611" lon="-2.45705">
        <ele>16</ele>
        <time>2020-08-03T16:53:59Z</time>
      </trkpt>
      <trkpt lat="47.42607" lon="-2.45705">
        <ele>16.2</ele>
        <time>2020-08-03T16:54:00Z</time>
      </trkpt>
      <trkpt lat="47.42604" lon="-2.45706">
        <ele>15.2</ele>
        <time>2020-08-03T16:54:01Z</time>
      </trkpt>
      <trkpt lat="47.42601" lon="-2.45706">
        <ele>15</ele>
        <time>2020-08-03T16:54:02Z</time>
      </trkpt>
      <trkpt lat="47.42598" lon="-2.45707">
        <ele>15.4</ele>
        <time>2020-08-03T16:54:03Z</time>
      </trkpt>
      <trkpt lat="47.42595" lon="-2.45708">
        <ele>15.8</ele>
        <time>2020-08-03T16:54:04Z</time>
      </trkpt>
      <trkpt lat="47.42592" lon="-2.45708">
        <ele>15.8</ele>
        <time>2020-08-03T16:54:05Z</time>
      </trkpt>
      <trkpt lat="47.42589" lon="-2.45709">
        <ele>14.6</ele>
        <time>2020-08-03T16:54:06Z</time>
      </trkpt>
      <trkpt lat="47.42586" lon="-2.45709">
        <ele>14.2</ele>
        <time>2020-08-03T16:54:07Z</time>
      </trkpt>
      <trkpt lat="47.42583" lon="-2.45709">
        <ele>13.8</ele>
        <time>2020-08-03T16:54:08Z</time>
      </trkpt>
      <trkpt lat="47.4258" lon="-2.45708">
        <ele>14.8</ele>
        <time>2020-08-03T16:54:09Z</time>
      </trkpt>
      <trkpt lat="47.42578" lon="-2.45706">
        <ele>15.2</ele>
        <time>2020-08-03T16:54:10Z</time>
      </trkpt>
      <trkpt lat="47.42577" lon="-2.45703">
        <ele>15.2</ele>
        <time>2020-08-03T16:54:11Z</time>
      </trkpt>
      <trkpt lat="47.42576" lon="-2.45699">
        <ele>15.6</ele>
        <time>2020-08-03T16:54:12Z</time>
      </trkpt>
      <trkpt lat="47.42576" lon="-2.45694">
        <ele>15.6</ele>
        <time>2020-08-03T16:54:13Z</time>
      </trkpt>
      <trkpt lat="47.42576" lon="-2.4569">
        <ele>15.6</ele>
        <time>2020-08-03T16:54:14Z</time>
      </trkpt>
      <trkpt lat="47.42575" lon="-2.45684">
        <ele>15.6</ele>
        <time>2020-08-03T16:54:15Z</time>
      </trkpt>
      <trkpt lat="47.42575" lon="-2.45679">
        <ele>15.6</ele>
        <time>2020-08-03T16:54:16Z</time>
      </trkpt>
      <trkpt lat="47.42575" lon="-2.45674">
        <ele>15.6</ele>
        <time>2020-08-03T16:54:17Z</time>
      </trkpt>
      <trkpt lat="47.42575" lon="-2.45669">
        <ele>15.4</ele>
        <time>2020-08-03T16:54:18Z</time>
      </trkpt>
      <trkpt lat="47.42575" lon="-2.45664">
        <ele>15.2</ele>
        <time>2020-08-03T16:54:19Z</time>
      </trkpt>
      <trkpt lat="47.42575" lon="-2.45659">
        <ele>15</ele>
        <time>2020-08-03T16:54:20Z</time>
      </trkpt>
      <trkpt lat="47.42575" lon="-2.45653">
        <ele>14.6</ele>
        <time>2020-08-03T16:54:21Z</time>
      </trkpt>
      <trkpt lat="47.42575" lon="-2.45648">
        <ele>14.4</ele>
        <time>2020-08-03T16:54:22Z</time>
      </trkpt>
      <trkpt lat="47.42575" lon="-2.45642">
        <ele>14.2</ele>
        <time>2020-08-03T16:54:23Z</time>
      </trkpt>
      <trkpt lat="47.42574" lon="-2.45637">
        <ele>14.2</ele>
        <time>2020-08-03T16:54:24Z</time>
      </trkpt>
      <trkpt lat="47.42574" lon="-2.4563">
        <ele>14</ele>
        <time>2020-08-03T16:54:25Z</time>
      </trkpt>
      <trkpt lat="47.42574" lon="-2.45624">
        <ele>13.6</ele>
        <time>2020-08-03T16:54:26Z</time>
      </trkpt>
      <trkpt lat="47.42574" lon="-2.45617">
        <ele>13.4</ele>
        <time>2020-08-03T16:54:27Z</time>
      </trkpt>
      <trkpt lat="47.42574" lon="-2.45611">
        <ele>13.2</ele>
        <time>2020-08-03T16:54:28Z</time>
      </trkpt>
      <trkpt lat="47.42574" lon="-2.45604">
        <ele>13.2</ele>
        <time>2020-08-03T16:54:29Z</time>
      </trkpt>
      <trkpt lat="47.42574" lon="-2.45596">
        <ele>13</ele>
        <time>2020-08-03T16:54:30Z</time>
      </trkpt>
      <trkpt lat="47.42574" lon="-2.45588">
        <ele>12.8</ele>
        <time>2020-08-03T16:54:31Z</time>
      </trkpt>
      <trkpt lat="47.42574" lon="-2.4558">
        <ele>12.4</ele>
        <time>2020-08-03T16:54:32Z</time>
      </trkpt>
      <trkpt lat="47.42574" lon="-2.45572">
        <ele>12.2</ele>
        <time>2020-08-03T16:54:33Z</time>
      </trkpt>
      <trkpt lat="47.42574" lon="-2.45563">
        <ele>11.8</ele>
        <time>2020-08-03T16:54:34Z</time>
      </trkpt>
      <trkpt lat="47.42574" lon="-2.45554">
        <ele>11.6</ele>
        <time>2020-08-03T16:54:35Z</time>
      </trkpt>
      <trkpt lat="47.42575" lon="-2.45544">
        <ele>11.2</ele>
        <time>2020-08-03T16:54:36Z</time>
      </trkpt>
      <trkpt lat="47.42575" lon="-2.45534">
        <ele>10.8</ele>
        <time>2020-08-03T16:54:37Z</time>
      </trkpt>
      <trkpt lat="47.42575" lon="-2.45524">
        <ele>10.4</ele>
        <time>2020-08-03T16:54:38Z</time>
      </trkpt>
      <trkpt lat="47.42575" lon="-2.45513">
        <ele>9.8</ele>
        <time>2020-08-03T16:54:39Z</time>
      </trkpt>
      <trkpt lat="47.42574" lon="-2.45502">
        <ele>9.6</ele>
        <time>2020-08-03T16:54:40Z</time>
      </trkpt>
      <trkpt lat="47.42574" lon="-2.45491">
        <ele>9</ele>
        <time>2020-08-03T16:54:41Z</time>
      </trkpt>
      <trkpt lat="47.42574" lon="-2.45479">
        <ele>8.4</ele>
        <time>2020-08-03T16:54:42Z</time>
      </trkpt>
      <trkpt lat="47.42574" lon="-2.45467">
        <ele>7.8</ele>
        <time>2020-08-03T16:54:43Z</time>
      </trkpt>
      <trkpt lat="47.42575" lon="-2.45455">
        <ele>7</ele>
        <time>2020-08-03T16:54:44Z</time>
      </trkpt>
      <trkpt lat="47.42576" lon="-2.45442">
        <ele>6.4</ele>
        <time>2020-08-03T16:54:45Z</time>
      </trkpt>
      <trkpt lat="47.42578" lon="-2.4543">
        <ele>6</ele>
        <time>2020-08-03T16:54:46Z</time>
      </trkpt>
      <trkpt lat="47.42582" lon="-2.45418">
        <ele>5.8</ele>
        <time>2020-08-03T16:54:47Z</time>
      </trkpt>
      <trkpt lat="47.42586" lon="-2.45407">
        <ele>5.8</ele>
        <time>2020-08-03T16:54:48Z</time>
      </trkpt>
      <trkpt lat="47.4259" lon="-2.45396">
        <ele>5.4</ele>
        <time>2020-08-03T16:54:49Z</time>
      </trkpt>
      <trkpt lat="47.42594" lon="-2.45386">
        <ele>5.2</ele>
        <time>2020-08-03T16:54:50Z</time>
      </trkpt>
      <trkpt lat="47.42599" lon="-2.45376">
        <ele>5</ele>
        <time>2020-08-03T16:54:51Z</time>
      </trkpt>
      <trkpt lat="47.42603" lon="-2.45367">
        <ele>4.6</ele>
        <time>2020-08-03T16:54:52Z</time>
      </trkpt>
      <trkpt lat="47.42607" lon="-2.45358">
        <ele>4.4</ele>
        <time>2020-08-03T16:54:53Z</time>
      </trkpt>
      <trkpt lat="47.4261" lon="-2.45348">
        <ele>4.2</ele>
        <time>2020-08-03T16:54:54Z</time>
      </trkpt>
      <trkpt lat="47.42612" lon="-2.45338">
        <ele>3.8</ele>
        <time>2020-08-03T16:54:55Z</time>
      </trkpt>
      <trkpt lat="47.42614" lon="-2.45329">
        <ele>3.8</ele>
        <time>2020-08-03T16:54:56Z</time>
      </trkpt>
      <trkpt lat="47.42615" lon="-2.45319">
        <ele>4</ele>
        <time>2020-08-03T16:54:57Z</time>
      </trkpt>
      <trkpt lat="47.42615" lon="-2.4531">
        <ele>4</ele>
        <time>2020-08-03T16:54:58Z</time>
      </trkpt>
      <trkpt lat="47.42614" lon="-2.45301">
        <ele>4.2</ele>
        <time>2020-08-03T16:54:59Z</time>
      </trkpt>
      <trkpt lat="47.42614" lon="-2.45293">
        <ele>4.4</ele>
        <time>2020-08-03T16:55:00Z</time>
      </trkpt>
      <trkpt lat="47.42613" lon="-2.45285">
        <ele>4.4</ele>
        <time>2020-08-03T16:55:01Z</time>
      </trkpt>
      <trkpt lat="47.42612" lon="-2.45277">
        <ele>4.4</ele>
        <time>2020-08-03T16:55:02Z</time>
      </trkpt>
      <trkpt lat="47.4261" lon="-2.4527">
        <ele>4.4</ele>
        <time>2020-08-03T16:55:03Z</time>
      </trkpt>
      <trkpt lat="47.42608" lon="-2.45263">
        <ele>4.2</ele>
        <time>2020-08-03T16:55:04Z</time>
      </trkpt>
      <trkpt lat="47.42606" lon="-2.45256">
        <ele>4.2</ele>
        <time>2020-08-03T16:55:05Z</time>
      </trkpt>
      <trkpt lat="47.42605" lon="-2.45249">
        <ele>4.4</ele>
        <time>2020-08-03T16:55:06Z</time>
      </trkpt>
      <trkpt lat="47.42603" lon="-2.45243">
        <ele>4.4</ele>
        <time>2020-08-03T16:55:07Z</time>
      </trkpt>
      <trkpt lat="47.42601" lon="-2.45236">
        <ele>4.4</ele>
        <time>2020-08-03T16:55:08Z</time>
      </trkpt>
      <trkpt lat="47.426" lon="-2.45229">
        <ele>4.4</ele>
        <time>2020-08-03T16:55:09Z</time>
      </trkpt>
      <trkpt lat="47.42598" lon="-2.45222">
        <ele>4.4</ele>
        <time>2020-08-03T16:55:10Z</time>
      </trkpt>
      <trkpt lat="47.42597" lon="-2.45215">
        <ele>4.6</ele>
        <time>2020-08-03T16:55:11Z</time>
      </trkpt>
      <trkpt lat="47.42595" lon="-2.45209">
        <ele>4.6</ele>
        <time>2020-08-03T16:55:12Z</time>
      </trkpt>
      <trkpt lat="47.42594" lon="-2.45202">
        <ele>4.6</ele>
        <time>2020-08-03T16:55:13Z</time>
      </trkpt>
      <trkpt lat="47.42592" lon="-2.45195">
        <ele>4.4</ele>
        <time>2020-08-03T16:55:14Z</time>
      </trkpt>
      <trkpt lat="47.42591" lon="-2.45188">
        <ele>4.4</ele>
        <time>2020-08-03T16:55:15Z</time>
      </trkpt>
      <trkpt lat="47.42589" lon="-2.45182">
        <ele>4.4</ele>
        <time>2020-08-03T16:55:16Z</time>
      </trkpt>
      <trkpt lat="47.42587" lon="-2.45176">
        <ele>4.4</ele>
        <time>2020-08-03T16:55:17Z</time>
      </trkpt>
      <trkpt lat="47.42586" lon="-2.45169">
        <ele>4.4</ele>
        <time>2020-08-03T16:55:18Z</time>
      </trkpt>
      <trkpt lat="47.42584" lon="-2.45163">
        <ele>4.2</ele>
        <time>2020-08-03T16:55:19Z</time>
      </trkpt>
      <trkpt lat="47.42583" lon="-2.45157">
        <ele>4.2</ele>
        <time>2020-08-03T16:55:20Z</time>
      </trkpt>
      <trkpt lat="47.42582" lon="-2.45151">
        <ele>4.2</ele>
        <time>2020-08-03T16:55:21Z</time>
      </trkpt>
      <trkpt lat="47.4258" lon="-2.45145">
        <ele>4.2</ele>
        <time>2020-08-03T16:55:22Z</time>
      </trkpt>
      <trkpt lat="47.42579" lon="-2.45139">
        <ele>4.2</ele>
        <time>2020-08-03T16:55:23Z</time>
      </trkpt>
      <trkpt lat="47.42577" lon="-2.45134">
        <ele>4</ele>
        <time>2020-08-03T16:55:24Z</time>
      </trkpt>
      <trkpt lat="47.42576" lon="-2.45128">
        <ele>4</ele>
        <time>2020-08-03T16:55:25Z</time>
      </trkpt>
      <trkpt lat="47.42575" lon="-2.45123">
        <ele>4.2</ele>
        <time>2020-08-03T16:55:26Z</time>
      </trkpt>
      <trkpt lat="47.42574" lon="-2.45118">
        <ele>4.2</ele>
        <time>2020-08-03T16:55:27Z</time>
      </trkpt>
      <trkpt lat="47.42573" lon="-2.45113">
        <ele>4.4</ele>
        <time>2020-08-03T16:55:28Z</time>
      </trkpt>
      <trkpt lat="47.42572" lon="-2.45108">
        <ele>4.4</ele>
        <time>2020-08-03T16:55:29Z</time>
      </trkpt>
      <trkpt lat="47.42571" lon="-2.45103">
        <ele>4.4</ele>
        <time>2020-08-03T16:55:30Z</time>
      </trkpt>
      <trkpt lat="47.42569" lon="-2.45098">
        <ele>4.4</ele>
        <time>2020-08-03T16:55:31Z</time>
      </trkpt>
      <trkpt lat="47.42568" lon="-2.45092">
        <ele>4.4</ele>
        <time>2020-08-03T16:55:32Z</time>
      </trkpt>
      <trkpt lat="47.42567" lon="-2.45087">
        <ele>4.2</ele>
        <time>2020-08-03T16:55:33Z</time>
      </trkpt>
      <trkpt lat="47.42566" lon="-2.45082">
        <ele>4.2</ele>
        <time>2020-08-03T16:55:34Z</time>
      </trkpt>
      <trkpt lat="47.42566" lon="-2.45076">
        <ele>4.2</ele>
        <time>2020-08-03T16:55:35Z</time>
      </trkpt>
      <trkpt lat="47.42565" lon="-2.45072">
        <ele>4.4</ele>
        <time>2020-08-03T16:55:36Z</time>
      </trkpt>
      <trkpt lat="47.42564" lon="-2.45068">
        <ele>4.2</ele>
        <time>2020-08-03T16:55:37Z</time>
      </trkpt>
      <trkpt lat="47.42562" lon="-2.45065">
        <ele>4.2</ele>
        <time>2020-08-03T16:55:38Z</time>
      </trkpt>
      <trkpt lat="47.4256" lon="-2.45063">
        <ele>4.2</ele>
        <time>2020-08-03T16:55:39Z</time>
      </trkpt>
      <trkpt lat="47.42557" lon="-2.45062">
        <ele>4</ele>
        <time>2020-08-03T16:55:40Z</time>
      </trkpt>
      <trkpt lat="47.42555" lon="-2.45061">
        <ele>4.2</ele>
        <time>2020-08-03T16:55:41Z</time>
      </trkpt>
      <trkpt lat="47.42553" lon="-2.4506">
        <ele>4.2</ele>
        <time>2020-08-03T16:55:42Z</time>
      </trkpt>
      <trkpt lat="47.42551" lon="-2.45059">
        <ele>4.2</ele>
        <time>2020-08-03T16:55:43Z</time>
      </trkpt>
      <trkpt lat="47.42549" lon="-2.45057">
        <ele>4.2</ele>
        <time>2020-08-03T16:55:44Z</time>
      </trkpt>
      <trkpt lat="47.42547" lon="-2.45054">
        <ele>4</ele>
        <time>2020-08-03T16:55:45Z</time>
      </trkpt>
      <trkpt lat="47.42546" lon="-2.45051">
        <ele>4</ele>
        <time>2020-08-03T16:55:46Z</time>
      </trkpt>
      <trkpt lat="47.42545" lon="-2.45048">
        <ele>4</ele>
        <time>2020-08-03T16:55:47Z</time>
      </trkpt>
      <trkpt lat="47.42543" lon="-2.45045">
        <ele>4.2</ele>
        <time>2020-08-03T16:55:48Z</time>
      </trkpt>
      <trkpt lat="47.42541" lon="-2.45042">
        <ele>4.2</ele>
        <time>2020-08-03T16:55:49Z</time>
      </trkpt>
      <trkpt lat="47.4254" lon="-2.45039">
        <ele>4</ele>
        <time>2020-08-03T16:55:50Z</time>
      </trkpt>
      <trkpt lat="47.42538" lon="-2.45036">
        <ele>4</ele>
        <time>2020-08-03T16:55:51Z</time>
      </trkpt>
      <trkpt lat="47.42536" lon="-2.45033">
        <ele>4</ele>
        <time>2020-08-03T16:55:52Z</time>
      </trkpt>
      <trkpt lat="47.42534" lon="-2.45031">
        <ele>4</ele>
        <time>2020-08-03T16:55:53Z</time>
      </trkpt>
      <trkpt lat="47.42532" lon="-2.45028">
        <ele>4</ele>
        <time>2020-08-03T16:55:54Z</time>
      </trkpt>
      <trkpt lat="47.4253" lon="-2.45026">
        <ele>4.4</ele>
        <time>2020-08-03T16:55:55Z</time>
      </trkpt>
      <trkpt lat="47.42527" lon="-2.45023">
        <ele>4.2</ele>
        <time>2020-08-03T16:55:56Z</time>
      </trkpt>
      <trkpt lat="47.42525" lon="-2.4502">
        <ele>4.2</ele>
        <time>2020-08-03T16:55:57Z</time>
      </trkpt>
      <trkpt lat="47.42523" lon="-2.45017">
        <ele>4.2</ele>
        <time>2020-08-03T16:55:58Z</time>
      </trkpt>
      <trkpt lat="47.42521" lon="-2.45014">
        <ele>4.4</ele>
        <time>2020-08-03T16:55:59Z</time>
      </trkpt>
      <trkpt lat="47.42518" lon="-2.45011">
        <ele>4.4</ele>
        <time>2020-08-03T16:56:00Z</time>
      </trkpt>
      <trkpt lat="47.42516" lon="-2.45007">
        <ele>4.4</ele>
        <time>2020-08-03T16:56:01Z</time>
      </trkpt>
      <trkpt lat="47.42514" lon="-2.45004">
        <ele>4.4</ele>
        <time>2020-08-03T16:56:02Z</time>
      </trkpt>
      <trkpt lat="47.42512" lon="-2.45001">
        <ele>4.6</ele>
        <time>2020-08-03T16:56:03Z</time>
      </trkpt>
      <trkpt lat="47.42509" lon="-2.44997">
        <ele>4.6</ele>
        <time>2020-08-03T16:56:04Z</time>
      </trkpt>
      <trkpt lat="47.42507" lon="-2.44994">
        <ele>4.8</ele>
        <time>2020-08-03T16:56:05Z</time>
      </trkpt>
      <trkpt lat="47.42505" lon="-2.4499">
        <ele>4.8</ele>
        <time>2020-08-03T16:56:06Z</time>
      </trkpt>
      <trkpt lat="47.42503" lon="-2.44987">
        <ele>4.8</ele>
        <time>2020-08-03T16:56:07Z</time>
      </trkpt>
      <trkpt lat="47.425" lon="-2.44984">
        <ele>5</ele>
        <time>2020-08-03T16:56:08Z</time>
      </trkpt>
      <trkpt lat="47.42498" lon="-2.44981">
        <ele>4.8</ele>
        <time>2020-08-03T16:56:09Z</time>
      </trkpt>
      <trkpt lat="47.42496" lon="-2.44979">
        <ele>4.8</ele>
        <time>2020-08-03T16:56:10Z</time>
      </trkpt>
      <trkpt lat="47.42494" lon="-2.44976">
        <ele>4.8</ele>
        <time>2020-08-03T16:56:11Z</time>
      </trkpt>
      <trkpt lat="47.42492" lon="-2.44973">
        <ele>4.8</ele>
        <time>2020-08-03T16:56:12Z</time>
      </trkpt>
      <trkpt lat="47.4249" lon="-2.4497">
        <ele>4.6</ele>
        <time>2020-08-03T16:56:13Z</time>
      </trkpt>
      <trkpt lat="47.42488" lon="-2.44967">
        <ele>4.6</ele>
        <time>2020-08-03T16:56:14Z</time>
      </trkpt>
      <trkpt lat="47.42485" lon="-2.44964">
        <ele>4.6</ele>
        <time>2020-08-03T16:56:15Z</time>
      </trkpt>
      <trkpt lat="47.42483" lon="-2.44962">
        <ele>4.6</ele>
        <time>2020-08-03T16:56:16Z</time>
      </trkpt>
      <trkpt lat="47.42481" lon="-2.44959">
        <ele>4.6</ele>
        <time>2020-08-03T16:56:17Z</time>
      </trkpt>
      <trkpt lat="47.42478" lon="-2.44956">
        <ele>4.6</ele>
        <time>2020-08-03T16:56:18Z</time>
      </trkpt>
      <trkpt lat="47.42475" lon="-2.44953">
        <ele>4.6</ele>
        <time>2020-08-03T16:56:19Z</time>
      </trkpt>
      <trkpt lat="47.42473" lon="-2.4495">
        <ele>4.2</ele>
        <time>2020-08-03T16:56:20Z</time>
      </trkpt>
      <trkpt lat="47.42471" lon="-2.44948">
        <ele>4.4</ele>
        <time>2020-08-03T16:56:21Z</time>
      </trkpt>
      <trkpt lat="47.42468" lon="-2.44945">
        <ele>4.4</ele>
        <time>2020-08-03T16:56:22Z</time>
      </trkpt>
      <trkpt lat="47.42466" lon="-2.44943">
        <ele>4.6</ele>
        <time>2020-08-03T16:56:23Z</time>
      </trkpt>
      <trkpt lat="47.42464" lon="-2.4494">
        <ele>4.4</ele>
        <time>2020-08-03T16:56:24Z</time>
      </trkpt>
      <trkpt lat="47.42462" lon="-2.44937">
        <ele>4.2</ele>
        <time>2020-08-03T16:56:25Z</time>
      </trkpt>
      <trkpt lat="47.4246" lon="-2.44935">
        <ele>4.2</ele>
        <time>2020-08-03T16:56:26Z</time>
      </trkpt>
      <trkpt lat="47.42457" lon="-2.44932">
        <ele>4.2</ele>
        <time>2020-08-03T16:56:27Z</time>
      </trkpt>
      <trkpt lat="47.42455" lon="-2.44929">
        <ele>4.2</ele>
        <time>2020-08-03T16:56:28Z</time>
      </trkpt>
      <trkpt lat="47.42453" lon="-2.44927">
        <ele>4</ele>
        <time>2020-08-03T16:56:29Z</time>
      </trkpt>
      <trkpt lat="47.42451" lon="-2.44924">
        <ele>4.2</ele>
        <time>2020-08-03T16:56:30Z</time>
      </trkpt>
      <trkpt lat="47.42448" lon="-2.44922">
        <ele>4.4</ele>
        <time>2020-08-03T16:56:31Z</time>
      </trkpt>
      <trkpt lat="47.42446" lon="-2.44919">
        <ele>4.4</ele>
        <time>2020-08-03T16:56:32Z</time>
      </trkpt>
      <trkpt lat="47.42443" lon="-2.44916">
        <ele>4.2</ele>
        <time>2020-08-03T16:56:33Z</time>
      </trkpt>
      <trkpt lat="47.42441" lon="-2.44914">
        <ele>4.2</ele>
        <time>2020-08-03T16:56:34Z</time>
      </trkpt>
      <trkpt lat="47.42438" lon="-2.44911">
        <ele>4.2</ele>
        <time>2020-08-03T16:56:35Z</time>
      </trkpt>
      <trkpt lat="47.42435" lon="-2.44909">
        <ele>4.2</ele>
        <time>2020-08-03T16:56:36Z</time>
      </trkpt>
      <trkpt lat="47.42433" lon="-2.44906">
        <ele>4</ele>
        <time>2020-08-03T16:56:37Z</time>
      </trkpt>
      <trkpt lat="47.4243" lon="-2.44903">
        <ele>3.8</ele>
        <time>2020-08-03T16:56:38Z</time>
      </trkpt>
      <trkpt lat="47.42427" lon="-2.44901">
        <ele>3.6</ele>
        <time>2020-08-03T16:56:39Z</time>
      </trkpt>
      <trkpt lat="47.42424" lon="-2.44898">
        <ele>3.8</ele>
        <time>2020-08-03T16:56:40Z</time>
      </trkpt>
      <trkpt lat="47.42421" lon="-2.44895">
        <ele>3.6</ele>
        <time>2020-08-03T16:56:41Z</time>
      </trkpt>
      <trkpt lat="47.42418" lon="-2.44893">
        <ele>3.8</ele>
        <time>2020-08-03T16:56:42Z</time>
      </trkpt>
      <trkpt lat="47.42415" lon="-2.4489">
        <ele>4</ele>
        <time>2020-08-03T16:56:43Z</time>
      </trkpt>
      <trkpt lat="47.42412" lon="-2.44887">
        <ele>4.2</ele>
        <time>2020-08-03T16:56:44Z</time>
      </trkpt>
      <trkpt lat="47.42409" lon="-2.44884">
        <ele>4</ele>
        <time>2020-08-03T16:56:45Z</time>
      </trkpt>
      <trkpt lat="47.42406" lon="-2.44882">
        <ele>4</ele>
        <time>2020-08-03T16:56:46Z</time>
      </trkpt>
      <trkpt lat="47.42403" lon="-2.4488">
        <ele>4</ele>
        <time>2020-08-03T16:56:47Z</time>
      </trkpt>
      <trkpt lat="47.424" lon="-2.44877">
        <ele>4</ele>
        <time>2020-08-03T16:56:48Z</time>
      </trkpt>
      <trkpt lat="47.42398" lon="-2.44876">
        <ele>4.2</ele>
        <time>2020-08-03T16:56:49Z</time>
      </trkpt>
      <trkpt lat="47.42396" lon="-2.44873">
        <ele>4.2</ele>
        <time>2020-08-03T16:56:50Z</time>
      </trkpt>
      <trkpt lat="47.42393" lon="-2.44871">
        <ele>4.4</ele>
        <time>2020-08-03T16:56:51Z</time>
      </trkpt>
      <trkpt lat="47.42391" lon="-2.44869">
        <ele>4.4</ele>
        <time>2020-08-03T16:56:52Z</time>
      </trkpt>
      <trkpt lat="47.42389" lon="-2.44867">
        <ele>4.6</ele>
        <time>2020-08-03T16:56:53Z</time>
      </trkpt>
      <trkpt lat="47.42387" lon="-2.44866">
        <ele>4.8</ele>
        <time>2020-08-03T16:56:54Z</time>
      </trkpt>
      <trkpt lat="47.42385" lon="-2.44864">
        <ele>5</ele>
        <time>2020-08-03T16:56:55Z</time>
      </trkpt>
      <trkpt lat="47.42383" lon="-2.44863">
        <ele>5.2</ele>
        <time>2020-08-03T16:56:56Z</time>
      </trkpt>
      <trkpt lat="47.42381" lon="-2.44861">
        <ele>5.4</ele>
        <time>2020-08-03T16:56:57Z</time>
      </trkpt>
      <trkpt lat="47.4238" lon="-2.4486">
        <ele>5.4</ele>
        <time>2020-08-03T16:56:58Z</time>
      </trkpt>
      <trkpt lat="47.42378" lon="-2.44859">
        <ele>5.6</ele>
        <time>2020-08-03T16:56:59Z</time>
      </trkpt>
      <trkpt lat="47.42376" lon="-2.44858">
        <ele>5.6</ele>
        <time>2020-08-03T16:57:00Z</time>
      </trkpt>
      <trkpt lat="47.42374" lon="-2.44857">
        <ele>5.8</ele>
        <time>2020-08-03T16:57:01Z</time>
      </trkpt>
      <trkpt lat="47.42372" lon="-2.44856">
        <ele>6</ele>
        <time>2020-08-03T16:57:02Z</time>
      </trkpt>
      <trkpt lat="47.4237" lon="-2.44855">
        <ele>6.2</ele>
        <time>2020-08-03T16:57:03Z</time>
      </trkpt>
      <trkpt lat="47.42368" lon="-2.44854">
        <ele>6</ele>
        <time>2020-08-03T16:57:04Z</time>
      </trkpt>
      <trkpt lat="47.42366" lon="-2.44853">
        <ele>6</ele>
        <time>2020-08-03T16:57:05Z</time>
      </trkpt>
      <trkpt lat="47.42364" lon="-2.44852">
        <ele>6</ele>
        <time>2020-08-03T16:57:06Z</time>
      </trkpt>
      <trkpt lat="47.42362" lon="-2.4485">
        <ele>6</ele>
        <time>2020-08-03T16:57:07Z</time>
      </trkpt>
      <trkpt lat="47.4236" lon="-2.44849">
        <ele>6.2</ele>
        <time>2020-08-03T16:57:08Z</time>
      </trkpt>
      <trkpt lat="47.42358" lon="-2.44848">
        <ele>6.4</ele>
        <time>2020-08-03T16:57:09Z</time>
      </trkpt>
      <trkpt lat="47.42357" lon="-2.44846">
        <ele>6.4</ele>
        <time>2020-08-03T16:57:10Z</time>
      </trkpt>
      <trkpt lat="47.42355" lon="-2.44843">
        <ele>6.6</ele>
        <time>2020-08-03T16:57:11Z</time>
      </trkpt>
      <trkpt lat="47.42354" lon="-2.44841">
        <ele>6.6</ele>
        <time>2020-08-03T16:57:12Z</time>
      </trkpt>
      <trkpt lat="47.42352" lon="-2.44838">
        <ele>6.8</ele>
        <time>2020-08-03T16:57:13Z</time>
      </trkpt>
      <trkpt lat="47.42351" lon="-2.44836">
        <ele>7</ele>
        <time>2020-08-03T16:57:14Z</time>
      </trkpt>
      <trkpt lat="47.4235" lon="-2.44834">
        <ele>7</ele>
        <time>2020-08-03T16:57:15Z</time>
      </trkpt>
      <trkpt lat="47.42349" lon="-2.44832">
        <ele>7.2</ele>
        <time>2020-08-03T16:57:16Z</time>
      </trkpt>
      <trkpt lat="47.42347" lon="-2.4483">
        <ele>7.6</ele>
        <time>2020-08-03T16:57:17Z</time>
      </trkpt>
      <trkpt lat="47.42345" lon="-2.44829">
        <ele>7.6</ele>
        <time>2020-08-03T16:57:18Z</time>
      </trkpt>
      <trkpt lat="47.42343" lon="-2.44827">
        <ele>7.8</ele>
        <time>2020-08-03T16:57:19Z</time>
      </trkpt>
      <trkpt lat="47.42342" lon="-2.44826">
        <ele>7.8</ele>
        <time>2020-08-03T16:57:20Z</time>
      </trkpt>
      <trkpt lat="47.42339" lon="-2.44825">
        <ele>7.8</ele>
        <time>2020-08-03T16:57:21Z</time>
      </trkpt>
      <trkpt lat="47.42337" lon="-2.44824">
        <ele>8</ele>
        <time>2020-08-03T16:57:22Z</time>
      </trkpt>
      <trkpt lat="47.42335" lon="-2.44823">
        <ele>8</ele>
        <time>2020-08-03T16:57:23Z</time>
      </trkpt>
      <trkpt lat="47.42333" lon="-2.44824">
        <ele>7.8</ele>
        <time>2020-08-03T16:57:24Z</time>
      </trkpt>
      <trkpt lat="47.4233" lon="-2.44824">
        <ele>7.8</ele>
        <time>2020-08-03T16:57:25Z</time>
      </trkpt>
      <trkpt lat="47.42328" lon="-2.44825">
        <ele>7.8</ele>
        <time>2020-08-03T16:57:26Z</time>
      </trkpt>
      <trkpt lat="47.42326" lon="-2.44824">
        <ele>7.6</ele>
        <time>2020-08-03T16:57:27Z</time>
      </trkpt>
      <trkpt lat="47.42324" lon="-2.44823">
        <ele>7.6</ele>
        <time>2020-08-03T16:57:28Z</time>
      </trkpt>
      <trkpt lat="47.42323" lon="-2.44822">
        <ele>7.6</ele>
        <time>2020-08-03T16:57:29Z</time>
      </trkpt>
      <trkpt lat="47.42321" lon="-2.4482">
        <ele>7.6</ele>
        <time>2020-08-03T16:57:30Z</time>
      </trkpt>
      <trkpt lat="47.4232" lon="-2.44819">
        <ele>7.6</ele>
        <time>2020-08-03T16:57:31Z</time>
      </trkpt>
      <trkpt lat="47.42319" lon="-2.44818">
        <ele>7.8</ele>
        <time>2020-08-03T16:57:32Z</time>
      </trkpt>
      <trkpt lat="47.42318" lon="-2.44815">
        <ele>7.8</ele>
        <time>2020-08-03T16:57:33Z</time>
      </trkpt>
      <trkpt lat="47.42316" lon="-2.44813">
        <ele>8</ele>
        <time>2020-08-03T16:57:34Z</time>
      </trkpt>
      <trkpt lat="47.42314" lon="-2.4481">
        <ele>8.2</ele>
        <time>2020-08-03T16:57:35Z</time>
      </trkpt>
      <trkpt lat="47.42312" lon="-2.44808">
        <ele>8</ele>
        <time>2020-08-03T16:57:36Z</time>
      </trkpt>
      <trkpt lat="47.4231" lon="-2.44806">
        <ele>8.2</ele>
        <time>2020-08-03T16:57:37Z</time>
      </trkpt>
      <trkpt lat="47.42308" lon="-2.44804">
        <ele>8.2</ele>
        <time>2020-08-03T16:57:38Z</time>
      </trkpt>
      <trkpt lat="47.42305" lon="-2.44801">
        <ele>8.2</ele>
        <time>2020-08-03T16:57:39Z</time>
      </trkpt>
      <trkpt lat="47.42302" lon="-2.448">
        <ele>8.4</ele>
        <time>2020-08-03T16:57:40Z</time>
      </trkpt>
      <trkpt lat="47.42299" lon="-2.44798">
        <ele>8.6</ele>
        <time>2020-08-03T16:57:41Z</time>
      </trkpt>
      <trkpt lat="47.42297" lon="-2.44796">
        <ele>8.6</ele>
        <time>2020-08-03T16:57:42Z</time>
      </trkpt>
      <trkpt lat="47.42295" lon="-2.44795">
        <ele>8.4</ele>
        <time>2020-08-03T16:57:43Z</time>
      </trkpt>
      <trkpt lat="47.42292" lon="-2.44794">
        <ele>8.4</ele>
        <time>2020-08-03T16:57:44Z</time>
      </trkpt>
      <trkpt lat="47.4229" lon="-2.44793">
        <ele>8.4</ele>
        <time>2020-08-03T16:57:45Z</time>
      </trkpt>
      <trkpt lat="47.42287" lon="-2.44792">
        <ele>8.4</ele>
        <time>2020-08-03T16:57:46Z</time>
      </trkpt>
      <trkpt lat="47.42285" lon="-2.44791">
        <ele>8.4</ele>
        <time>2020-08-03T16:57:47Z</time>
      </trkpt>
      <trkpt lat="47.42283" lon="-2.44789">
        <ele>9</ele>
        <time>2020-08-03T16:57:48Z</time>
      </trkpt>
      <trkpt lat="47.42282" lon="-2.4479">
        <ele>8.8</ele>
        <time>2020-08-03T16:57:49Z</time>
      </trkpt>
      <trkpt lat="47.42278" lon="-2.44787">
        <ele>8.6</ele>
        <time>2020-08-03T16:57:50Z</time>
      </trkpt>
      <trkpt lat="47.42276" lon="-2.44786">
        <ele>8.6</ele>
        <time>2020-08-03T16:57:51Z</time>
      </trkpt>
      <trkpt lat="47.42273" lon="-2.44785">
        <ele>8.4</ele>
        <time>2020-08-03T16:57:52Z</time>
      </trkpt>
      <trkpt lat="47.42271" lon="-2.44784">
        <ele>8.4</ele>
        <time>2020-08-03T16:57:53Z</time>
      </trkpt>
      <trkpt lat="47.42269" lon="-2.44782">
        <ele>8.6</ele>
        <time>2020-08-03T16:57:54Z</time>
      </trkpt>
      <trkpt lat="47.42267" lon="-2.4478">
        <ele>8</ele>
        <time>2020-08-03T16:57:55Z</time>
      </trkpt>
      <trkpt lat="47.42265" lon="-2.44778">
        <ele>7.8</ele>
        <time>2020-08-03T16:57:56Z</time>
      </trkpt>
      <trkpt lat="47.42263" lon="-2.44776">
        <ele>7.8</ele>
        <time>2020-08-03T16:57:57Z</time>
      </trkpt>
      <trkpt lat="47.42261" lon="-2.44773">
        <ele>7.8</ele>
        <time>2020-08-03T16:57:58Z</time>
      </trkpt>
      <trkpt lat="47.42259" lon="-2.44771">
        <ele>7.6</ele>
        <time>2020-08-03T16:57:59Z</time>
      </trkpt>
      <trkpt lat="47.42257" lon="-2.4477">
        <ele>7.6</ele>
        <time>2020-08-03T16:58:00Z</time>
      </trkpt>
      <trkpt lat="47.42254" lon="-2.44767">
        <ele>7.6</ele>
        <time>2020-08-03T16:58:01Z</time>
      </trkpt>
      <trkpt lat="47.42252" lon="-2.44765">
        <ele>7.8</ele>
        <time>2020-08-03T16:58:02Z</time>
      </trkpt>
      <trkpt lat="47.42249" lon="-2.44763">
        <ele>7.8</ele>
        <time>2020-08-03T16:58:03Z</time>
      </trkpt>
      <trkpt lat="47.42248" lon="-2.44761">
        <ele>7.8</ele>
        <time>2020-08-03T16:58:04Z</time>
      </trkpt>
      <trkpt lat="47.42247" lon="-2.44758">
        <ele>7.8</ele>
        <time>2020-08-03T16:58:05Z</time>
      </trkpt>
      <trkpt lat="47.42245" lon="-2.44757">
        <ele>7.8</ele>
        <time>2020-08-03T16:58:06Z</time>
      </trkpt>
      <trkpt lat="47.42244" lon="-2.44756">
        <ele>7.8</ele>
        <time>2020-08-03T16:58:07Z</time>
      </trkpt>
      <trkpt lat="47.42244" lon="-2.44755">
        <ele>8</ele>
        <time>2020-08-03T16:58:08Z</time>
      </trkpt>
      <trkpt lat="47.42243" lon="-2.44753">
        <ele>8</ele>
        <time>2020-08-03T16:58:09Z</time>
      </trkpt>
      <trkpt lat="47.42242" lon="-2.44753">
        <ele>8.2</ele>
        <time>2020-08-03T16:58:10Z</time>
      </trkpt>
      <trkpt lat="47.4224" lon="-2.44751">
        <ele>8.4</ele>
        <time>2020-08-03T16:58:11Z</time>
      </trkpt>
      <trkpt lat="47.42238" lon="-2.4475">
        <ele>9</ele>
        <time>2020-08-03T16:58:12Z</time>
      </trkpt>
      <trkpt lat="47.42236" lon="-2.4475">
        <ele>9.2</ele>
        <time>2020-08-03T16:58:13Z</time>
      </trkpt>
      <trkpt lat="47.42234" lon="-2.4475">
        <ele>9.6</ele>
        <time>2020-08-03T16:58:14Z</time>
      </trkpt>
      <trkpt lat="47.42233" lon="-2.4475">
        <ele>9.6</ele>
        <time>2020-08-03T16:58:15Z</time>
      </trkpt>
      <trkpt lat="47.42231" lon="-2.44751">
        <ele>9.6</ele>
        <time>2020-08-03T16:58:16Z</time>
      </trkpt>
      <trkpt lat="47.4223" lon="-2.44752">
        <ele>9.6</ele>
        <time>2020-08-03T16:58:17Z</time>
      </trkpt>
      <trkpt lat="47.42229" lon="-2.44752">
        <ele>9.4</ele>
        <time>2020-08-03T16:58:18Z</time>
      </trkpt>
      <trkpt lat="47.42229" lon="-2.44752">
        <ele>9.4</ele>
        <time>2020-08-03T16:58:19Z</time>
      </trkpt>
      <trkpt lat="47.42229" lon="-2.44752">
        <ele>9.4</ele>
        <time>2020-08-03T16:58:20Z</time>
      </trkpt>
      <trkpt lat="47.42228" lon="-2.44752">
        <ele>9.4</ele>
        <time>2020-08-03T16:58:21Z</time>
      </trkpt>
      <trkpt lat="47.42228" lon="-2.44752">
        <ele>9.4</ele>
        <time>2020-08-03T16:58:22Z</time>
      </trkpt>
      <trkpt lat="47.42228" lon="-2.44751">
        <ele>9.4</ele>
        <time>2020-08-03T16:58:23Z</time>
      </trkpt>
      <trkpt lat="47.42228" lon="-2.44751">
        <ele>9.4</ele>
        <time>2020-08-03T16:58:24Z</time>
      </trkpt>
      <trkpt lat="47.42228" lon="-2.44751">
        <ele>9.4</ele>
        <time>2020-08-03T16:58:25Z</time>
      </trkpt>
      <trkpt lat="47.42215" lon="-2.44753">
        <ele>9.4</ele>
        <time>2020-08-03T16:58:41Z</time>
      </trkpt>
      <trkpt lat="47.42213" lon="-2.44753">
        <ele>9</ele>
        <time>2020-08-03T16:58:42Z</time>
      </trkpt>
      <trkpt lat="47.4221" lon="-2.44752">
        <ele>8.8</ele>
        <time>2020-08-03T16:58:43Z</time>
      </trkpt>
      <trkpt lat="47.42208" lon="-2.44751">
        <ele>8.4</ele>
        <time>2020-08-03T16:58:44Z</time>
      </trkpt>
      <trkpt lat="47.42206" lon="-2.4475">
        <ele>8.2</ele>
        <time>2020-08-03T16:58:45Z</time>
      </trkpt>
      <trkpt lat="47.42205" lon="-2.44746">
        <ele>8.2</ele>
        <time>2020-08-03T16:58:46Z</time>
      </trkpt>
      <trkpt lat="47.42205" lon="-2.44743">
        <ele>8</ele>
        <time>2020-08-03T16:58:47Z</time>
      </trkpt>
      <trkpt lat="47.42205" lon="-2.4474">
        <ele>8.2</ele>
        <time>2020-08-03T16:58:48Z</time>
      </trkpt>
      <trkpt lat="47.42205" lon="-2.44738">
        <ele>8.4</ele>
        <time>2020-08-03T16:58:49Z</time>
      </trkpt>
      <trkpt lat="47.42204" lon="-2.44736">
        <ele>8.8</ele>
        <time>2020-08-03T16:58:50Z</time>
      </trkpt>
      <trkpt lat="47.42203" lon="-2.44734">
        <ele>8.8</ele>
        <time>2020-08-03T16:58:51Z</time>
      </trkpt>
      <trkpt lat="47.42201" lon="-2.44733">
        <ele>9.6</ele>
        <time>2020-08-03T16:58:52Z</time>
      </trkpt>
      <trkpt lat="47.422" lon="-2.44733">
        <ele>9.2</ele>
        <time>2020-08-03T16:58:53Z</time>
      </trkpt>
      <trkpt lat="47.42199" lon="-2.44732">
        <ele>9</ele>
        <time>2020-08-03T16:58:54Z</time>
      </trkpt>
      <trkpt lat="47.42199" lon="-2.44731">
        <ele>9</ele>
        <time>2020-08-03T16:58:55Z</time>
      </trkpt>
      <trkpt lat="47.42198" lon="-2.44731">
        <ele>9.4</ele>
        <time>2020-08-03T16:58:56Z</time>
      </trkpt>
      <trkpt lat="47.42198" lon="-2.4473">
        <ele>9.6</ele>
        <time>2020-08-03T16:58:57Z</time>
      </trkpt>
      <trkpt lat="47.42198" lon="-2.4473">
        <ele>9.6</ele>
        <time>2020-08-03T16:58:58Z</time>
      </trkpt>
      <trkpt lat="47.42198" lon="-2.4473">
        <ele>9.2</ele>
        <time>2020-08-03T16:58:59Z</time>
      </trkpt>
      <trkpt lat="47.42198" lon="-2.4473">
        <ele>9.2</ele>
        <time>2020-08-03T16:59:00Z</time>
      </trkpt>
      <trkpt lat="47.42198" lon="-2.44731">
        <ele>9.4</ele>
        <time>2020-08-03T16:59:01Z</time>
      </trkpt>
      <trkpt lat="47.42179" lon="-2.44723">
        <ele>10.4</ele>
        <time>2020-08-03T16:59:14Z</time>
      </trkpt>
      <trkpt lat="47.42177" lon="-2.44722">
        <ele>10.2</ele>
        <time>2020-08-03T16:59:15Z</time>
      </trkpt>
      <trkpt lat="47.42174" lon="-2.44721">
        <ele>9.8</ele>
        <time>2020-08-03T16:59:16Z</time>
      </trkpt>
      <trkpt lat="47.42172" lon="-2.4472">
        <ele>9.6</ele>
        <time>2020-08-03T16:59:17Z</time>
      </trkpt>
      <trkpt lat="47.4217" lon="-2.44719">
        <ele>9.2</ele>
        <time>2020-08-03T16:59:18Z</time>
      </trkpt>
      <trkpt lat="47.42168" lon="-2.44719">
        <ele>9</ele>
        <time>2020-08-03T16:59:19Z</time>
      </trkpt>
      <trkpt lat="47.42165" lon="-2.44718">
        <ele>9</ele>
        <time>2020-08-03T16:59:20Z</time>
      </trkpt>
      <trkpt lat="47.42163" lon="-2.44717">
        <ele>8.8</ele>
        <time>2020-08-03T16:59:21Z</time>
      </trkpt>
      <trkpt lat="47.42161" lon="-2.44715">
        <ele>9</ele>
        <time>2020-08-03T16:59:22Z</time>
      </trkpt>
      <trkpt lat="47.42159" lon="-2.44713">
        <ele>8.8</ele>
        <time>2020-08-03T16:59:23Z</time>
      </trkpt>
      <trkpt lat="47.42158" lon="-2.4471">
        <ele>8.8</ele>
        <time>2020-08-03T16:59:24Z</time>
      </trkpt>
      <trkpt lat="47.42156" lon="-2.44708">
        <ele>8.8</ele>
        <time>2020-08-03T16:59:25Z</time>
      </trkpt>
      <trkpt lat="47.42155" lon="-2.44705">
        <ele>8.6</ele>
        <time>2020-08-03T16:59:26Z</time>
      </trkpt>
      <trkpt lat="47.42153" lon="-2.44703">
        <ele>8.8</ele>
        <time>2020-08-03T16:59:27Z</time>
      </trkpt>
      <trkpt lat="47.42151" lon="-2.447">
        <ele>9.8</ele>
        <time>2020-08-03T16:59:28Z</time>
      </trkpt>
      <trkpt lat="47.42149" lon="-2.44699">
        <ele>9.6</ele>
        <time>2020-08-03T16:59:29Z</time>
      </trkpt>
      <trkpt lat="47.42147" lon="-2.44697">
        <ele>9</ele>
        <time>2020-08-03T16:59:30Z</time>
      </trkpt>
      <trkpt lat="47.42146" lon="-2.44695">
        <ele>8.6</ele>
        <time>2020-08-03T16:59:31Z</time>
      </trkpt>
      <trkpt lat="47.42144" lon="-2.44694">
        <ele>8.4</ele>
        <time>2020-08-03T16:59:32Z</time>
      </trkpt>
      <trkpt lat="47.42144" lon="-2.44692">
        <ele>7.8</ele>
        <time>2020-08-03T16:59:33Z</time>
      </trkpt>
      <trkpt lat="47.42143" lon="-2.44692">
        <ele>8.2</ele>
        <time>2020-08-03T16:59:34Z</time>
      </trkpt>
      <trkpt lat="47.42143" lon="-2.44692">
        <ele>9.2</ele>
        <time>2020-08-03T16:59:35Z</time>
      </trkpt>
      <trkpt lat="47.42143" lon="-2.44692">
        <ele>9</ele>
        <time>2020-08-03T16:59:36Z</time>
      </trkpt>
      <trkpt lat="47.42142" lon="-2.44692">
        <ele>9</ele>
        <time>2020-08-03T16:59:37Z</time>
      </trkpt>
      <trkpt lat="47.4214" lon="-2.44693">
        <ele>8.8</ele>
        <time>2020-08-03T16:59:38Z</time>
      </trkpt>
      <trkpt lat="47.42139" lon="-2.44693">
        <ele>8.6</ele>
        <time>2020-08-03T16:59:39Z</time>
      </trkpt>
      <trkpt lat="47.42137" lon="-2.44694">
        <ele>8.4</ele>
        <time>2020-08-03T16:59:40Z</time>
      </trkpt>
      <trkpt lat="47.42136" lon="-2.44694">
        <ele>8.6</ele>
        <time>2020-08-03T16:59:41Z</time>
      </trkpt>
      <trkpt lat="47.42135" lon="-2.44694">
        <ele>8.6</ele>
        <time>2020-08-03T16:59:42Z</time>
      </trkpt>
      <trkpt lat="47.42134" lon="-2.44695">
        <ele>8.8</ele>
        <time>2020-08-03T16:59:43Z</time>
      </trkpt>
      <trkpt lat="47.42134" lon="-2.44695">
        <ele>9</ele>
        <time>2020-08-03T16:59:44Z</time>
      </trkpt>
      <trkpt lat="47.42134" lon="-2.44695">
        <ele>8.8</ele>
        <time>2020-08-03T16:59:45Z</time>
      </trkpt>
      <trkpt lat="47.42134" lon="-2.44695">
        <ele>8.8</ele>
        <time>2020-08-03T16:59:46Z</time>
      </trkpt>
      <trkpt lat="47.42134" lon="-2.44695">
        <ele>8.8</ele>
        <time>2020-08-03T16:59:47Z</time>
      </trkpt>
      <trkpt lat="47.42134" lon="-2.44695">
        <ele>9</ele>
        <time>2020-08-03T16:59:48Z</time>
      </trkpt>
      <trkpt lat="47.42134" lon="-2.44695">
        <ele>8.8</ele>
        <time>2020-08-03T16:59:49Z</time>
      </trkpt>
      <trkpt lat="47.42148" lon="-2.44675">
        <ele>7</ele>
        <time>2020-08-03T17:00:36Z</time>
      </trkpt>
      <trkpt lat="47.4215" lon="-2.44673">
        <ele>6.8</ele>
        <time>2020-08-03T17:00:37Z</time>
      </trkpt>
      <trkpt lat="47.42152" lon="-2.44672">
        <ele>6.8</ele>
        <time>2020-08-03T17:00:38Z</time>
      </trkpt>
      <trkpt lat="47.42154" lon="-2.4467">
        <ele>6.6</ele>
        <time>2020-08-03T17:00:39Z</time>
      </trkpt>
      <trkpt lat="47.42156" lon="-2.44669">
        <ele>6.4</ele>
        <time>2020-08-03T17:00:40Z</time>
      </trkpt>
      <trkpt lat="47.42158" lon="-2.44668">
        <ele>7</ele>
        <time>2020-08-03T17:00:41Z</time>
      </trkpt>
      <trkpt lat="47.4216" lon="-2.44666">
        <ele>6.8</ele>
        <time>2020-08-03T17:00:42Z</time>
      </trkpt>
      <trkpt lat="47.42161" lon="-2.44663">
        <ele>6.6</ele>
        <time>2020-08-03T17:00:43Z</time>
      </trkpt>
      <trkpt lat="47.42162" lon="-2.4466">
        <ele>6.6</ele>
        <time>2020-08-03T17:00:44Z</time>
      </trkpt>
      <trkpt lat="47.42162" lon="-2.44658">
        <ele>7.2</ele>
        <time>2020-08-03T17:00:45Z</time>
      </trkpt>
      <trkpt lat="47.42163" lon="-2.44655">
        <ele>7.2</ele>
        <time>2020-08-03T17:00:46Z</time>
      </trkpt>
      <trkpt lat="47.42163" lon="-2.44652">
        <ele>7</ele>
        <time>2020-08-03T17:00:47Z</time>
      </trkpt>
      <trkpt lat="47.42164" lon="-2.44649">
        <ele>7</ele>
        <time>2020-08-03T17:00:48Z</time>
      </trkpt>
      <trkpt lat="47.42165" lon="-2.44646">
        <ele>6.8</ele>
        <time>2020-08-03T17:00:49Z</time>
      </trkpt>
      <trkpt lat="47.42166" lon="-2.44643">
        <ele>6.8</ele>
        <time>2020-08-03T17:00:50Z</time>
      </trkpt>
      <trkpt lat="47.42167" lon="-2.44641">
        <ele>7</ele>
        <time>2020-08-03T17:00:51Z</time>
      </trkpt>
      <trkpt lat="47.42167" lon="-2.44638">
        <ele>7</ele>
        <time>2020-08-03T17:00:52Z</time>
      </trkpt>
      <trkpt lat="47.42168" lon="-2.44635">
        <ele>7.2</ele>
        <time>2020-08-03T17:00:53Z</time>
      </trkpt>
      <trkpt lat="47.42168" lon="-2.44631">
        <ele>7.2</ele>
        <time>2020-08-03T17:00:54Z</time>
      </trkpt>
      <trkpt lat="47.42168" lon="-2.44628">
        <ele>7.2</ele>
        <time>2020-08-03T17:00:55Z</time>
      </trkpt>
      <trkpt lat="47.42168" lon="-2.44625">
        <ele>7.2</ele>
        <time>2020-08-03T17:00:56Z</time>
      </trkpt>
      <trkpt lat="47.42168" lon="-2.44622">
        <ele>7.2</ele>
        <time>2020-08-03T17:00:57Z</time>
      </trkpt>
      <trkpt lat="47.42168" lon="-2.44618">
        <ele>7.4</ele>
        <time>2020-08-03T17:00:58Z</time>
      </trkpt>
      <trkpt lat="47.42168" lon="-2.44615">
        <ele>8</ele>
        <time>2020-08-03T17:00:59Z</time>
      </trkpt>
      <trkpt lat="47.42169" lon="-2.44613">
        <ele>8</ele>
        <time>2020-08-03T17:01:00Z</time>
      </trkpt>
      <trkpt lat="47.4217" lon="-2.4461">
        <ele>8.4</ele>
        <time>2020-08-03T17:01:01Z</time>
      </trkpt>
      <trkpt lat="47.42171" lon="-2.44608">
        <ele>8.4</ele>
        <time>2020-08-03T17:01:02Z</time>
      </trkpt>
      <trkpt lat="47.42172" lon="-2.44606">
        <ele>8.4</ele>
        <time>2020-08-03T17:01:03Z</time>
      </trkpt>
      <trkpt lat="47.42173" lon="-2.44604">
        <ele>8.6</ele>
        <time>2020-08-03T17:01:04Z</time>
      </trkpt>
      <trkpt lat="47.42175" lon="-2.44601">
        <ele>8.6</ele>
        <time>2020-08-03T17:01:05Z</time>
      </trkpt>
      <trkpt lat="47.42176" lon="-2.44599">
        <ele>8.6</ele>
        <time>2020-08-03T17:01:06Z</time>
      </trkpt>
      <trkpt lat="47.42177" lon="-2.44596">
        <ele>8.6</ele>
        <time>2020-08-03T17:01:07Z</time>
      </trkpt>
      <trkpt lat="47.42178" lon="-2.44594">
        <ele>8.6</ele>
        <time>2020-08-03T17:01:08Z</time>
      </trkpt>
      <trkpt lat="47.42179" lon="-2.44592">
        <ele>8.6</ele>
        <time>2020-08-03T17:01:09Z</time>
      </trkpt>
      <trkpt lat="47.4218" lon="-2.44589">
        <ele>8.6</ele>
        <time>2020-08-03T17:01:10Z</time>
      </trkpt>
      <trkpt lat="47.4218" lon="-2.44587">
        <ele>8.6</ele>
        <time>2020-08-03T17:01:11Z</time>
      </trkpt>
      <trkpt lat="47.42181" lon="-2.44585">
        <ele>8.6</ele>
        <time>2020-08-03T17:01:12Z</time>
      </trkpt>
      <trkpt lat="47.42182" lon="-2.44582">
        <ele>8.8</ele>
        <time>2020-08-03T17:01:13Z</time>
      </trkpt>
      <trkpt lat="47.42183" lon="-2.44579">
        <ele>8.8</ele>
        <time>2020-08-03T17:01:14Z</time>
      </trkpt>
      <trkpt lat="47.42183" lon="-2.44576">
        <ele>8.8</ele>
        <time>2020-08-03T17:01:15Z</time>
      </trkpt>
      <trkpt lat="47.42184" lon="-2.44573">
        <ele>8.8</ele>
        <time>2020-08-03T17:01:16Z</time>
      </trkpt>
      <trkpt lat="47.42184" lon="-2.4457">
        <ele>8.6</ele>
        <time>2020-08-03T17:01:17Z</time>
      </trkpt>
      <trkpt lat="47.42185" lon="-2.44568">
        <ele>8.6</ele>
        <time>2020-08-03T17:01:18Z</time>
      </trkpt>
      <trkpt lat="47.42186" lon="-2.44565">
        <ele>8.6</ele>
        <time>2020-08-03T17:01:19Z</time>
      </trkpt>
      <trkpt lat="47.42186" lon="-2.44563">
        <ele>8.6</ele>
        <time>2020-08-03T17:01:20Z</time>
      </trkpt>
      <trkpt lat="47.42187" lon="-2.4456">
        <ele>8.6</ele>
        <time>2020-08-03T17:01:21Z</time>
      </trkpt>
      <trkpt lat="47.42188" lon="-2.44557">
        <ele>8.8</ele>
        <time>2020-08-03T17:01:22Z</time>
      </trkpt>
      <trkpt lat="47.42189" lon="-2.44554">
        <ele>9</ele>
        <time>2020-08-03T17:01:23Z</time>
      </trkpt>
      <trkpt lat="47.42189" lon="-2.44552">
        <ele>9</ele>
        <time>2020-08-03T17:01:24Z</time>
      </trkpt>
      <trkpt lat="47.4219" lon="-2.4455">
        <ele>8.8</ele>
        <time>2020-08-03T17:01:25Z</time>
      </trkpt>
      <trkpt lat="47.42191" lon="-2.44547">
        <ele>8.8</ele>
        <time>2020-08-03T17:01:26Z</time>
      </trkpt>
      <trkpt lat="47.42192" lon="-2.44544">
        <ele>8.8</ele>
        <time>2020-08-03T17:01:27Z</time>
      </trkpt>
      <trkpt lat="47.42192" lon="-2.44541">
        <ele>8.8</ele>
        <time>2020-08-03T17:01:28Z</time>
      </trkpt>
      <trkpt lat="47.42193" lon="-2.44538">
        <ele>8.8</ele>
        <time>2020-08-03T17:01:29Z</time>
      </trkpt>
      <trkpt lat="47.42194" lon="-2.44535">
        <ele>8.8</ele>
        <time>2020-08-03T17:01:30Z</time>
      </trkpt>
      <trkpt lat="47.42195" lon="-2.44532">
        <ele>8.8</ele>
        <time>2020-08-03T17:01:31Z</time>
      </trkpt>
      <trkpt lat="47.42196" lon="-2.44529">
        <ele>8.8</ele>
        <time>2020-08-03T17:01:32Z</time>
      </trkpt>
      <trkpt lat="47.42197" lon="-2.44526">
        <ele>9</ele>
        <time>2020-08-03T17:01:33Z</time>
      </trkpt>
      <trkpt lat="47.42199" lon="-2.44523">
        <ele>9</ele>
        <time>2020-08-03T17:01:34Z</time>
      </trkpt>
      <trkpt lat="47.422" lon="-2.4452">
        <ele>9</ele>
        <time>2020-08-03T17:01:35Z</time>
      </trkpt>
      <trkpt lat="47.42201" lon="-2.44517">
        <ele>8.8</ele>
        <time>2020-08-03T17:01:36Z</time>
      </trkpt>
      <trkpt lat="47.42203" lon="-2.44514">
        <ele>9</ele>
        <time>2020-08-03T17:01:37Z</time>
      </trkpt>
      <trkpt lat="47.42204" lon="-2.44511">
        <ele>9.2</ele>
        <time>2020-08-03T17:01:38Z</time>
      </trkpt>
      <trkpt lat="47.42204" lon="-2.44508">
        <ele>9.2</ele>
        <time>2020-08-03T17:01:39Z</time>
      </trkpt>
      <trkpt lat="47.42205" lon="-2.44505">
        <ele>9.4</ele>
        <time>2020-08-03T17:01:40Z</time>
      </trkpt>
      <trkpt lat="47.42206" lon="-2.44502">
        <ele>9.4</ele>
        <time>2020-08-03T17:01:41Z</time>
      </trkpt>
      <trkpt lat="47.42206" lon="-2.44499">
        <ele>9.4</ele>
        <time>2020-08-03T17:01:42Z</time>
      </trkpt>
      <trkpt lat="47.42207" lon="-2.44495">
        <ele>9.4</ele>
        <time>2020-08-03T17:01:43Z</time>
      </trkpt>
      <trkpt lat="47.42208" lon="-2.44492">
        <ele>9.4</ele>
        <time>2020-08-03T17:01:44Z</time>
      </trkpt>
      <trkpt lat="47.42208" lon="-2.44488">
        <ele>9.4</ele>
        <time>2020-08-03T17:01:45Z</time>
      </trkpt>
      <trkpt lat="47.4221" lon="-2.44485">
        <ele>9.4</ele>
        <time>2020-08-03T17:01:46Z</time>
      </trkpt>
      <trkpt lat="47.42211" lon="-2.44481">
        <ele>9.4</ele>
        <time>2020-08-03T17:01:47Z</time>
      </trkpt>
      <trkpt lat="47.42212" lon="-2.44478">
        <ele>9.4</ele>
        <time>2020-08-03T17:01:48Z</time>
      </trkpt>
      <trkpt lat="47.42212" lon="-2.44476">
        <ele>9.4</ele>
        <time>2020-08-03T17:01:49Z</time>
      </trkpt>
      <trkpt lat="47.42213" lon="-2.44473">
        <ele>10</ele>
        <time>2020-08-03T17:01:50Z</time>
      </trkpt>
      <trkpt lat="47.42214" lon="-2.4447">
        <ele>10</ele>
        <time>2020-08-03T17:01:51Z</time>
      </trkpt>
      <trkpt lat="47.42214" lon="-2.44467">
        <ele>9.8</ele>
        <time>2020-08-03T17:01:52Z</time>
      </trkpt>
      <trkpt lat="47.42215" lon="-2.44463">
        <ele>9.6</ele>
        <time>2020-08-03T17:01:53Z</time>
      </trkpt>
      <trkpt lat="47.42215" lon="-2.4446">
        <ele>9.6</ele>
        <time>2020-08-03T17:01:54Z</time>
      </trkpt>
      <trkpt lat="47.42215" lon="-2.44457">
        <ele>9.6</ele>
        <time>2020-08-03T17:01:55Z</time>
      </trkpt>
      <trkpt lat="47.42214" lon="-2.44455">
        <ele>9.6</ele>
        <time>2020-08-03T17:01:56Z</time>
      </trkpt>
      <trkpt lat="47.42213" lon="-2.44453">
        <ele>9.4</ele>
        <time>2020-08-03T17:01:57Z</time>
      </trkpt>
      <trkpt lat="47.42213" lon="-2.4445">
        <ele>9.4</ele>
        <time>2020-08-03T17:01:58Z</time>
      </trkpt>
      <trkpt lat="47.42212" lon="-2.44447">
        <ele>9.4</ele>
        <time>2020-08-03T17:01:59Z</time>
      </trkpt>
      <trkpt lat="47.42212" lon="-2.44444">
        <ele>9.4</ele>
        <time>2020-08-03T17:02:00Z</time>
      </trkpt>
      <trkpt lat="47.42212" lon="-2.44442">
        <ele>9.4</ele>
        <time>2020-08-03T17:02:01Z</time>
      </trkpt>
      <trkpt lat="47.42211" lon="-2.44439">
        <ele>9.4</ele>
        <time>2020-08-03T17:02:02Z</time>
      </trkpt>
      <trkpt lat="47.42211" lon="-2.44437">
        <ele>9.2</ele>
        <time>2020-08-03T17:02:03Z</time>
      </trkpt>
      <trkpt lat="47.4221" lon="-2.44435">
        <ele>9</ele>
        <time>2020-08-03T17:02:04Z</time>
      </trkpt>
      <trkpt lat="47.4221" lon="-2.44432">
        <ele>8.8</ele>
        <time>2020-08-03T17:02:05Z</time>
      </trkpt>
      <trkpt lat="47.4221" lon="-2.4443">
        <ele>8.6</ele>
        <time>2020-08-03T17:02:06Z</time>
      </trkpt>
      <trkpt lat="47.4221" lon="-2.44428">
        <ele>8.4</ele>
        <time>2020-08-03T17:02:07Z</time>
      </trkpt>
      <trkpt lat="47.4221" lon="-2.44425">
        <ele>8.4</ele>
        <time>2020-08-03T17:02:08Z</time>
      </trkpt>
      <trkpt lat="47.4221" lon="-2.44422">
        <ele>8.4</ele>
        <time>2020-08-03T17:02:09Z</time>
      </trkpt>
      <trkpt lat="47.42209" lon="-2.4442">
        <ele>8.2</ele>
        <time>2020-08-03T17:02:10Z</time>
      </trkpt>
      <trkpt lat="47.42209" lon="-2.44418">
        <ele>8</ele>
        <time>2020-08-03T17:02:11Z</time>
      </trkpt>
      <trkpt lat="47.42209" lon="-2.44415">
        <ele>8.2</ele>
        <time>2020-08-03T17:02:12Z</time>
      </trkpt>
      <trkpt lat="47.42209" lon="-2.44413">
        <ele>8.2</ele>
        <time>2020-08-03T17:02:13Z</time>
      </trkpt>
      <trkpt lat="47.42209" lon="-2.44412">
        <ele>8.4</ele>
        <time>2020-08-03T17:02:14Z</time>
      </trkpt>
      <trkpt lat="47.42209" lon="-2.4441">
        <ele>8.4</ele>
        <time>2020-08-03T17:02:15Z</time>
      </trkpt>
      <trkpt lat="47.42209" lon="-2.44408">
        <ele>8.4</ele>
        <time>2020-08-03T17:02:16Z</time>
      </trkpt>
      <trkpt lat="47.42209" lon="-2.44406">
        <ele>8.2</ele>
        <time>2020-08-03T17:02:17Z</time>
      </trkpt>
      <trkpt lat="47.42209" lon="-2.44404">
        <ele>7.8</ele>
        <time>2020-08-03T17:02:18Z</time>
      </trkpt>
      <trkpt lat="47.42209" lon="-2.44401">
        <ele>7.4</ele>
        <time>2020-08-03T17:02:19Z</time>
      </trkpt>
      <trkpt lat="47.42209" lon="-2.44397">
        <ele>7.6</ele>
        <time>2020-08-03T17:02:20Z</time>
      </trkpt>
      <trkpt lat="47.42209" lon="-2.44394">
        <ele>7.8</ele>
        <time>2020-08-03T17:02:21Z</time>
      </trkpt>
      <trkpt lat="47.42209" lon="-2.44391">
        <ele>8</ele>
        <time>2020-08-03T17:02:22Z</time>
      </trkpt>
      <trkpt lat="47.42209" lon="-2.44387">
        <ele>8.4</ele>
        <time>2020-08-03T17:02:23Z</time>
      </trkpt>
      <trkpt lat="47.42209" lon="-2.44384">
        <ele>8.4</ele>
        <time>2020-08-03T17:02:24Z</time>
      </trkpt>
      <trkpt lat="47.42209" lon="-2.44381">
        <ele>8.2</ele>
        <time>2020-08-03T17:02:25Z</time>
      </trkpt>
      <trkpt lat="47.42209" lon="-2.44379">
        <ele>8.2</ele>
        <time>2020-08-03T17:02:26Z</time>
      </trkpt>
      <trkpt lat="47.4221" lon="-2.44376">
        <ele>8.2</ele>
        <time>2020-08-03T17:02:27Z</time>
      </trkpt>
      <trkpt lat="47.42211" lon="-2.44374">
        <ele>8.4</ele>
        <time>2020-08-03T17:02:28Z</time>
      </trkpt>
      <trkpt lat="47.42213" lon="-2.44372">
        <ele>8.6</ele>
        <time>2020-08-03T17:02:29Z</time>
      </trkpt>
      <trkpt lat="47.42215" lon="-2.44371">
        <ele>8.6</ele>
        <time>2020-08-03T17:02:30Z</time>
      </trkpt>
      <trkpt lat="47.42218" lon="-2.44371">
        <ele>8.8</ele>
        <time>2020-08-03T17:02:31Z</time>
      </trkpt>
      <trkpt lat="47.42221" lon="-2.4437">
        <ele>8.8</ele>
        <time>2020-08-03T17:02:32Z</time>
      </trkpt>
      <trkpt lat="47.42224" lon="-2.4437">
        <ele>8.8</ele>
        <time>2020-08-03T17:02:33Z</time>
      </trkpt>
      <trkpt lat="47.42227" lon="-2.44371">
        <ele>8.8</ele>
        <time>2020-08-03T17:02:34Z</time>
      </trkpt>
      <trkpt lat="47.4223" lon="-2.44371">
        <ele>9</ele>
        <time>2020-08-03T17:02:35Z</time>
      </trkpt>
      <trkpt lat="47.42233" lon="-2.44371">
        <ele>9</ele>
        <time>2020-08-03T17:02:36Z</time>
      </trkpt>
      <trkpt lat="47.42235" lon="-2.44371">
        <ele>9.2</ele>
        <time>2020-08-03T17:02:37Z</time>
      </trkpt>
      <trkpt lat="47.42238" lon="-2.44371">
        <ele>9.4</ele>
        <time>2020-08-03T17:02:38Z</time>
      </trkpt>
      <trkpt lat="47.4224" lon="-2.4437">
        <ele>9.4</ele>
        <time>2020-08-03T17:02:39Z</time>
      </trkpt>
      <trkpt lat="47.42243" lon="-2.4437">
        <ele>9.4</ele>
        <time>2020-08-03T17:02:40Z</time>
      </trkpt>
      <trkpt lat="47.42245" lon="-2.44371">
        <ele>9.6</ele>
        <time>2020-08-03T17:02:41Z</time>
      </trkpt>
      <trkpt lat="47.42247" lon="-2.4437">
        <ele>10.2</ele>
        <time>2020-08-03T17:02:42Z</time>
      </trkpt>
      <trkpt lat="47.42249" lon="-2.44371">
        <ele>10.6</ele>
        <time>2020-08-03T17:02:43Z</time>
      </trkpt>
      <trkpt lat="47.42251" lon="-2.44371">
        <ele>10.8</ele>
        <time>2020-08-03T17:02:44Z</time>
      </trkpt>
      <trkpt lat="47.42253" lon="-2.44371">
        <ele>11</ele>
        <time>2020-08-03T17:02:45Z</time>
      </trkpt>
      <trkpt lat="47.42255" lon="-2.44371">
        <ele>11</ele>
        <time>2020-08-03T17:02:46Z</time>
      </trkpt>
      <trkpt lat="47.42257" lon="-2.44371">
        <ele>11</ele>
        <time>2020-08-03T17:02:47Z</time>
      </trkpt>
      <trkpt lat="47.42258" lon="-2.44371">
        <ele>11</ele>
        <time>2020-08-03T17:02:48Z</time>
      </trkpt>
      <trkpt lat="47.42259" lon="-2.44372">
        <ele>11</ele>
        <time>2020-08-03T17:02:49Z</time>
      </trkpt>
      <trkpt lat="47.4226" lon="-2.44373">
        <ele>11</ele>
        <time>2020-08-03T17:02:50Z</time>
      </trkpt>
      <trkpt lat="47.42261" lon="-2.44374">
        <ele>11.2</ele>
        <time>2020-08-03T17:02:51Z</time>
      </trkpt>
      <trkpt lat="47.42262" lon="-2.44375">
        <ele>11.4</ele>
        <time>2020-08-03T17:02:52Z</time>
      </trkpt>
      <trkpt lat="47.42262" lon="-2.44377">
        <ele>11.4</ele>
        <time>2020-08-03T17:02:53Z</time>
      </trkpt>
      <trkpt lat="47.42262" lon="-2.44379">
        <ele>11.2</ele>
        <time>2020-08-03T17:02:54Z</time>
      </trkpt>
      <trkpt lat="47.42262" lon="-2.44381">
        <ele>11.4</ele>
        <time>2020-08-03T17:02:55Z</time>
      </trkpt>
      <trkpt lat="47.42263" lon="-2.44383">
        <ele>11.4</ele>
        <time>2020-08-03T17:02:56Z</time>
      </trkpt>
      <trkpt lat="47.42263" lon="-2.44385">
        <ele>11.4</ele>
        <time>2020-08-03T17:02:57Z</time>
      </trkpt>
      <trkpt lat="47.42263" lon="-2.44388">
        <ele>11.4</ele>
        <time>2020-08-03T17:02:58Z</time>
      </trkpt>
      <trkpt lat="47.42263" lon="-2.44391">
        <ele>11.4</ele>
        <time>2020-08-03T17:02:59Z</time>
      </trkpt>
      <trkpt lat="47.42263" lon="-2.44393">
        <ele>11.4</ele>
        <time>2020-08-03T17:03:00Z</time>
      </trkpt>
      <trkpt lat="47.42265" lon="-2.44395">
        <ele>11.6</ele>
        <time>2020-08-03T17:03:01Z</time>
      </trkpt>
      <trkpt lat="47.42266" lon="-2.44396">
        <ele>11.8</ele>
        <time>2020-08-03T17:03:02Z</time>
      </trkpt>
      <trkpt lat="47.42267" lon="-2.44397">
        <ele>12</ele>
        <time>2020-08-03T17:03:03Z</time>
      </trkpt>
      <trkpt lat="47.42269" lon="-2.44398">
        <ele>12.2</ele>
        <time>2020-08-03T17:03:04Z</time>
      </trkpt>
      <trkpt lat="47.42272" lon="-2.44399">
        <ele>12.4</ele>
        <time>2020-08-03T17:03:05Z</time>
      </trkpt>
      <trkpt lat="47.42274" lon="-2.44401">
        <ele>12.6</ele>
        <time>2020-08-03T17:03:06Z</time>
      </trkpt>
      <trkpt lat="47.42275" lon="-2.44402">
        <ele>12.6</ele>
        <time>2020-08-03T17:03:07Z</time>
      </trkpt>
      <trkpt lat="47.42277" lon="-2.44403">
        <ele>12.6</ele>
        <time>2020-08-03T17:03:08Z</time>
      </trkpt>
      <trkpt lat="47.42279" lon="-2.44403">
        <ele>12.6</ele>
        <time>2020-08-03T17:03:09Z</time>
      </trkpt>
      <trkpt lat="47.42281" lon="-2.44404">
        <ele>12.8</ele>
        <time>2020-08-03T17:03:10Z</time>
      </trkpt>
      <trkpt lat="47.42282" lon="-2.44405">
        <ele>12.8</ele>
        <time>2020-08-03T17:03:11Z</time>
      </trkpt>
      <trkpt lat="47.42283" lon="-2.44406">
        <ele>12.8</ele>
        <time>2020-08-03T17:03:12Z</time>
      </trkpt>
      <trkpt lat="47.42285" lon="-2.44407">
        <ele>13</ele>
        <time>2020-08-03T17:03:13Z</time>
      </trkpt>
      <trkpt lat="47.42287" lon="-2.44408">
        <ele>13</ele>
        <time>2020-08-03T17:03:14Z</time>
      </trkpt>
      <trkpt lat="47.42289" lon="-2.44409">
        <ele>13.2</ele>
        <time>2020-08-03T17:03:15Z</time>
      </trkpt>
      <trkpt lat="47.42291" lon="-2.4441">
        <ele>13.2</ele>
        <time>2020-08-03T17:03:16Z</time>
      </trkpt>
      <trkpt lat="47.42292" lon="-2.44412">
        <ele>13.2</ele>
        <time>2020-08-03T17:03:17Z</time>
      </trkpt>
      <trkpt lat="47.42294" lon="-2.44414">
        <ele>13.2</ele>
        <time>2020-08-03T17:03:18Z</time>
      </trkpt>
      <trkpt lat="47.42294" lon="-2.44418">
        <ele>13.2</ele>
        <time>2020-08-03T17:03:19Z</time>
      </trkpt>
      <trkpt lat="47.42294" lon="-2.44422">
        <ele>13.2</ele>
        <time>2020-08-03T17:03:20Z</time>
      </trkpt>
      <trkpt lat="47.42293" lon="-2.44426">
        <ele>13.4</ele>
        <time>2020-08-03T17:03:21Z</time>
      </trkpt>
      <trkpt lat="47.42292" lon="-2.44429">
        <ele>13.4</ele>
        <time>2020-08-03T17:03:22Z</time>
      </trkpt>
      <trkpt lat="47.42292" lon="-2.44433">
        <ele>13.4</ele>
        <time>2020-08-03T17:03:23Z</time>
      </trkpt>
      <trkpt lat="47.42291" lon="-2.44437">
        <ele>13.6</ele>
        <time>2020-08-03T17:03:24Z</time>
      </trkpt>
      <trkpt lat="47.4229" lon="-2.44441">
        <ele>13.6</ele>
        <time>2020-08-03T17:03:25Z</time>
      </trkpt>
      <trkpt lat="47.42289" lon="-2.44445">
        <ele>13.6</ele>
        <time>2020-08-03T17:03:26Z</time>
      </trkpt>
      <trkpt lat="47.42289" lon="-2.44448">
        <ele>13.8</ele>
        <time>2020-08-03T17:03:27Z</time>
      </trkpt>
      <trkpt lat="47.42288" lon="-2.44451">
        <ele>13.8</ele>
        <time>2020-08-03T17:03:28Z</time>
      </trkpt>
      <trkpt lat="47.42287" lon="-2.44455">
        <ele>13.8</ele>
        <time>2020-08-03T17:03:29Z</time>
      </trkpt>
      <trkpt lat="47.42286" lon="-2.44458">
        <ele>13.8</ele>
        <time>2020-08-03T17:03:30Z</time>
      </trkpt>
      <trkpt lat="47.42285" lon="-2.44462">
        <ele>13.8</ele>
        <time>2020-08-03T17:03:31Z</time>
      </trkpt>
      <trkpt lat="47.42284" lon="-2.44466">
        <ele>13.8</ele>
        <time>2020-08-03T17:03:32Z</time>
      </trkpt>
      <trkpt lat="47.42283" lon="-2.4447">
        <ele>13.8</ele>
        <time>2020-08-03T17:03:33Z</time>
      </trkpt>
      <trkpt lat="47.42283" lon="-2.44473">
        <ele>13.8</ele>
        <time>2020-08-03T17:03:34Z</time>
      </trkpt>
      <trkpt lat="47.42282" lon="-2.44478">
        <ele>13.8</ele>
        <time>2020-08-03T17:03:35Z</time>
      </trkpt>
      <trkpt lat="47.42281" lon="-2.44482">
        <ele>13.8</ele>
        <time>2020-08-03T17:03:36Z</time>
      </trkpt>
      <trkpt lat="47.4228" lon="-2.44486">
        <ele>13.6</ele>
        <time>2020-08-03T17:03:37Z</time>
      </trkpt>
      <trkpt lat="47.42279" lon="-2.44489">
        <ele>13.6</ele>
        <time>2020-08-03T17:03:38Z</time>
      </trkpt>
      <trkpt lat="47.42279" lon="-2.44492">
        <ele>13.6</ele>
        <time>2020-08-03T17:03:39Z</time>
      </trkpt>
      <trkpt lat="47.42278" lon="-2.44496">
        <ele>13.6</ele>
        <time>2020-08-03T17:03:40Z</time>
      </trkpt>
      <trkpt lat="47.42277" lon="-2.44499">
        <ele>13.6</ele>
        <time>2020-08-03T17:03:41Z</time>
      </trkpt>
      <trkpt lat="47.42276" lon="-2.44503">
        <ele>13.6</ele>
        <time>2020-08-03T17:03:42Z</time>
      </trkpt>
      <trkpt lat="47.42276" lon="-2.44507">
        <ele>13.8</ele>
        <time>2020-08-03T17:03:43Z</time>
      </trkpt>
      <trkpt lat="47.42275" lon="-2.4451">
        <ele>13.6</ele>
        <time>2020-08-03T17:03:44Z</time>
      </trkpt>
      <trkpt lat="47.42274" lon="-2.44514">
        <ele>13.6</ele>
        <time>2020-08-03T17:03:45Z</time>
      </trkpt>
      <trkpt lat="47.42273" lon="-2.44518">
        <ele>13.6</ele>
        <time>2020-08-03T17:03:46Z</time>
      </trkpt>
      <trkpt lat="47.42271" lon="-2.44522">
        <ele>13.8</ele>
        <time>2020-08-03T17:03:47Z</time>
      </trkpt>
      <trkpt lat="47.42271" lon="-2.44526">
        <ele>14</ele>
        <time>2020-08-03T17:03:48Z</time>
      </trkpt>
      <trkpt lat="47.4227" lon="-2.44529">
        <ele>14.2</ele>
        <time>2020-08-03T17:03:49Z</time>
      </trkpt>
      <trkpt lat="47.42269" lon="-2.44533">
        <ele>14.2</ele>
        <time>2020-08-03T17:03:50Z</time>
      </trkpt>
      <trkpt lat="47.42269" lon="-2.44537">
        <ele>14</ele>
        <time>2020-08-03T17:03:51Z</time>
      </trkpt>
      <trkpt lat="47.42268" lon="-2.4454">
        <ele>13.8</ele>
        <time>2020-08-03T17:03:52Z</time>
      </trkpt>
      <trkpt lat="47.42267" lon="-2.44544">
        <ele>13.6</ele>
        <time>2020-08-03T17:03:53Z</time>
      </trkpt>
      <trkpt lat="47.42267" lon="-2.44548">
        <ele>13.6</ele>
        <time>2020-08-03T17:03:54Z</time>
      </trkpt>
      <trkpt lat="47.42267" lon="-2.44551">
        <ele>13.8</ele>
        <time>2020-08-03T17:03:55Z</time>
      </trkpt>
      <trkpt lat="47.42268" lon="-2.44553">
        <ele>14</ele>
        <time>2020-08-03T17:03:56Z</time>
      </trkpt>
      <trkpt lat="47.42269" lon="-2.44555">
        <ele>14.4</ele>
        <time>2020-08-03T17:03:57Z</time>
      </trkpt>
      <trkpt lat="47.4227" lon="-2.44557">
        <ele>14.4</ele>
        <time>2020-08-03T17:03:58Z</time>
      </trkpt>
      <trkpt lat="47.42272" lon="-2.44559">
        <ele>14.6</ele>
        <time>2020-08-03T17:03:59Z</time>
      </trkpt>
      <trkpt lat="47.42273" lon="-2.44562">
        <ele>14.4</ele>
        <time>2020-08-03T17:04:00Z</time>
      </trkpt>
      <trkpt lat="47.42274" lon="-2.44565">
        <ele>14.4</ele>
        <time>2020-08-03T17:04:01Z</time>
      </trkpt>
      <trkpt lat="47.42276" lon="-2.44568">
        <ele>14.4</ele>
        <time>2020-08-03T17:04:02Z</time>
      </trkpt>
      <trkpt lat="47.42278" lon="-2.4457">
        <ele>14.4</ele>
        <time>2020-08-03T17:04:03Z</time>
      </trkpt>
      <trkpt lat="47.42279" lon="-2.44573">
        <ele>14.4</ele>
        <time>2020-08-03T17:04:04Z</time>
      </trkpt>
      <trkpt lat="47.42281" lon="-2.44576">
        <ele>14.6</ele>
        <time>2020-08-03T17:04:05Z</time>
      </trkpt>
      <trkpt lat="47.42282" lon="-2.44579">
        <ele>14.6</ele>
        <time>2020-08-03T17:04:06Z</time>
      </trkpt>
      <trkpt lat="47.42284" lon="-2.44581">
        <ele>14.6</ele>
        <time>2020-08-03T17:04:07Z</time>
      </trkpt>
      <trkpt lat="47.42286" lon="-2.44584">
        <ele>14.6</ele>
        <time>2020-08-03T17:04:08Z</time>
      </trkpt>
      <trkpt lat="47.42287" lon="-2.44586">
        <ele>14.6</ele>
        <time>2020-08-03T17:04:09Z</time>
      </trkpt>
      <trkpt lat="47.42289" lon="-2.44588">
        <ele>14.6</ele>
        <time>2020-08-03T17:04:10Z</time>
      </trkpt>
      <trkpt lat="47.42291" lon="-2.44591">
        <ele>14.6</ele>
        <time>2020-08-03T17:04:11Z</time>
      </trkpt>
      <trkpt lat="47.42293" lon="-2.44594">
        <ele>14.6</ele>
        <time>2020-08-03T17:04:12Z</time>
      </trkpt>
      <trkpt lat="47.42295" lon="-2.44597">
        <ele>14.6</ele>
        <time>2020-08-03T17:04:13Z</time>
      </trkpt>
      <trkpt lat="47.42297" lon="-2.44599">
        <ele>14.8</ele>
        <time>2020-08-03T17:04:14Z</time>
      </trkpt>
      <trkpt lat="47.42299" lon="-2.44603">
        <ele>14.8</ele>
        <time>2020-08-03T17:04:15Z</time>
      </trkpt>
      <trkpt lat="47.42301" lon="-2.44605">
        <ele>14.8</ele>
        <time>2020-08-03T17:04:16Z</time>
      </trkpt>
      <trkpt lat="47.42303" lon="-2.44608">
        <ele>14.8</ele>
        <time>2020-08-03T17:04:17Z</time>
      </trkpt>
      <trkpt lat="47.42305" lon="-2.44611">
        <ele>14.8</ele>
        <time>2020-08-03T17:04:18Z</time>
      </trkpt>
      <trkpt lat="47.42308" lon="-2.44613">
        <ele>14.8</ele>
        <time>2020-08-03T17:04:19Z</time>
      </trkpt>
      <trkpt lat="47.4231" lon="-2.44615">
        <ele>14.8</ele>
        <time>2020-08-03T17:04:20Z</time>
      </trkpt>
      <trkpt lat="47.42312" lon="-2.44616">
        <ele>14.8</ele>
        <time>2020-08-03T17:04:21Z</time>
      </trkpt>
      <trkpt lat="47.42315" lon="-2.44618">
        <ele>15</ele>
        <time>2020-08-03T17:04:22Z</time>
      </trkpt>
      <trkpt lat="47.42317" lon="-2.4462">
        <ele>15.2</ele>
        <time>2020-08-03T17:04:23Z</time>
      </trkpt>
      <trkpt lat="47.4232" lon="-2.44622">
        <ele>15.2</ele>
        <time>2020-08-03T17:04:24Z</time>
      </trkpt>
      <trkpt lat="47.42322" lon="-2.44624">
        <ele>15.2</ele>
        <time>2020-08-03T17:04:25Z</time>
      </trkpt>
      <trkpt lat="47.42324" lon="-2.44626">
        <ele>15.2</ele>
        <time>2020-08-03T17:04:26Z</time>
      </trkpt>
      <trkpt lat="47.42326" lon="-2.44627">
        <ele>15</ele>
        <time>2020-08-03T17:04:27Z</time>
      </trkpt>
      <trkpt lat="47.42328" lon="-2.44629">
        <ele>15</ele>
        <time>2020-08-03T17:04:28Z</time>
      </trkpt>
      <trkpt lat="47.42331" lon="-2.4463">
        <ele>15.2</ele>
        <time>2020-08-03T17:04:29Z</time>
      </trkpt>
      <trkpt lat="47.42333" lon="-2.4463">
        <ele>15.2</ele>
        <time>2020-08-03T17:04:30Z</time>
      </trkpt>
      <trkpt lat="47.42336" lon="-2.4463">
        <ele>15.4</ele>
        <time>2020-08-03T17:04:31Z</time>
      </trkpt>
      <trkpt lat="47.42338" lon="-2.4463">
        <ele>15.4</ele>
        <time>2020-08-03T17:04:32Z</time>
      </trkpt>
      <trkpt lat="47.4234" lon="-2.44629">
        <ele>15.4</ele>
        <time>2020-08-03T17:04:33Z</time>
      </trkpt>
      <trkpt lat="47.42342" lon="-2.44626">
        <ele>15.4</ele>
        <time>2020-08-03T17:04:34Z</time>
      </trkpt>
      <trkpt lat="47.42343" lon="-2.44623">
        <ele>15.6</ele>
        <time>2020-08-03T17:04:35Z</time>
      </trkpt>
      <trkpt lat="47.42343" lon="-2.44621">
        <ele>15.6</ele>
        <time>2020-08-03T17:04:36Z</time>
      </trkpt>
      <trkpt lat="47.42344" lon="-2.44618">
        <ele>15.8</ele>
        <time>2020-08-03T17:04:37Z</time>
      </trkpt>
      <trkpt lat="47.42345" lon="-2.44615">
        <ele>16</ele>
        <time>2020-08-03T17:04:38Z</time>
      </trkpt>
      <trkpt lat="47.42345" lon="-2.44611">
        <ele>16</ele>
        <time>2020-08-03T17:04:39Z</time>
      </trkpt>
      <trkpt lat="47.42346" lon="-2.44608">
        <ele>16</ele>
        <time>2020-08-03T17:04:40Z</time>
      </trkpt>
      <trkpt lat="47.42346" lon="-2.44605">
        <ele>16</ele>
        <time>2020-08-03T17:04:41Z</time>
      </trkpt>
      <trkpt lat="47.42347" lon="-2.44602">
        <ele>16</ele>
        <time>2020-08-03T17:04:42Z</time>
      </trkpt>
      <trkpt lat="47.42347" lon="-2.44598">
        <ele>16</ele>
        <time>2020-08-03T17:04:43Z</time>
      </trkpt>
      <trkpt lat="47.42347" lon="-2.44596">
        <ele>16</ele>
        <time>2020-08-03T17:04:44Z</time>
      </trkpt>
      <trkpt lat="47.42347" lon="-2.44593">
        <ele>16</ele>
        <time>2020-08-03T17:04:45Z</time>
      </trkpt>
      <trkpt lat="47.42346" lon="-2.4459">
        <ele>16</ele>
        <time>2020-08-03T17:04:46Z</time>
      </trkpt>
      <trkpt lat="47.42345" lon="-2.44588">
        <ele>15.8</ele>
        <time>2020-08-03T17:04:47Z</time>
      </trkpt>
      <trkpt lat="47.42345" lon="-2.44587">
        <ele>15.6</ele>
        <time>2020-08-03T17:04:48Z</time>
      </trkpt>
      <trkpt lat="47.42343" lon="-2.44585">
        <ele>15.6</ele>
        <time>2020-08-03T17:04:49Z</time>
      </trkpt>
      <trkpt lat="47.42342" lon="-2.44583">
        <ele>15.4</ele>
        <time>2020-08-03T17:04:50Z</time>
      </trkpt>
      <trkpt lat="47.42341" lon="-2.4458">
        <ele>15.2</ele>
        <time>2020-08-03T17:04:51Z</time>
      </trkpt>
      <trkpt lat="47.42341" lon="-2.44578">
        <ele>15.2</ele>
        <time>2020-08-03T17:04:52Z</time>
      </trkpt>
      <trkpt lat="47.42341" lon="-2.44575">
        <ele>15.2</ele>
        <time>2020-08-03T17:04:53Z</time>
      </trkpt>
      <trkpt lat="47.42342" lon="-2.44574">
        <ele>15.2</ele>
        <time>2020-08-03T17:04:54Z</time>
      </trkpt>
      <trkpt lat="47.42343" lon="-2.44573">
        <ele>15.2</ele>
        <time>2020-08-03T17:04:55Z</time>
      </trkpt>
      <trkpt lat="47.42343" lon="-2.44572">
        <ele>15.2</ele>
        <time>2020-08-03T17:04:56Z</time>
      </trkpt>
      <trkpt lat="47.42344" lon="-2.44572">
        <ele>15.4</ele>
        <time>2020-08-03T17:04:57Z</time>
      </trkpt>
      <trkpt lat="47.42344" lon="-2.44571">
        <ele>15.8</ele>
        <time>2020-08-03T17:04:58Z</time>
      </trkpt>
      <trkpt lat="47.42345" lon="-2.44569">
        <ele>16</ele>
        <time>2020-08-03T17:04:59Z</time>
      </trkpt>
      <trkpt lat="47.42346" lon="-2.44568">
        <ele>16</ele>
        <time>2020-08-03T17:05:00Z</time>
      </trkpt>
      <trkpt lat="47.42347" lon="-2.44567">
        <ele>15.8</ele>
        <time>2020-08-03T17:05:01Z</time>
      </trkpt>
      <trkpt lat="47.42347" lon="-2.44565">
        <ele>15.6</ele>
        <time>2020-08-03T17:05:02Z</time>
      </trkpt>
      <trkpt lat="47.42347" lon="-2.44564">
        <ele>15.4</ele>
        <time>2020-08-03T17:05:03Z</time>
      </trkpt>
      <trkpt lat="47.42348" lon="-2.44563">
        <ele>15.4</ele>
        <time>2020-08-03T17:05:04Z</time>
      </trkpt>
      <trkpt lat="47.42348" lon="-2.44562">
        <ele>15.4</ele>
        <time>2020-08-03T17:05:05Z</time>
      </trkpt>
      <trkpt lat="47.42348" lon="-2.44561">
        <ele>15.4</ele>
        <time>2020-08-03T17:05:06Z</time>
      </trkpt>
      <trkpt lat="47.42349" lon="-2.4456">
        <ele>15.4</ele>
        <time>2020-08-03T17:05:07Z</time>
      </trkpt>
      <trkpt lat="47.42349" lon="-2.44558">
        <ele>15.4</ele>
        <time>2020-08-03T17:05:08Z</time>
      </trkpt>
      <trkpt lat="47.4235" lon="-2.44557">
        <ele>15.2</ele>
        <time>2020-08-03T17:05:09Z</time>
      </trkpt>
      <trkpt lat="47.42351" lon="-2.44555">
        <ele>15.2</ele>
        <time>2020-08-03T17:05:10Z</time>
      </trkpt>
      <trkpt lat="47.42351" lon="-2.44553">
        <ele>15.4</ele>
        <time>2020-08-03T17:05:11Z</time>
      </trkpt>
      <trkpt lat="47.42351" lon="-2.44551">
        <ele>15.8</ele>
        <time>2020-08-03T17:05:12Z</time>
      </trkpt>
      <trkpt lat="47.42352" lon="-2.44549">
        <ele>15.8</ele>
        <time>2020-08-03T17:05:13Z</time>
      </trkpt>
      <trkpt lat="47.42352" lon="-2.44547">
        <ele>15.8</ele>
        <time>2020-08-03T17:05:14Z</time>
      </trkpt>
      <trkpt lat="47.42353" lon="-2.44546">
        <ele>15.6</ele>
        <time>2020-08-03T17:05:15Z</time>
      </trkpt>
      <trkpt lat="47.42353" lon="-2.44544">
        <ele>15.4</ele>
        <time>2020-08-03T17:05:16Z</time>
      </trkpt>
      <trkpt lat="47.42354" lon="-2.44543">
        <ele>15.2</ele>
        <time>2020-08-03T17:05:17Z</time>
      </trkpt>
      <trkpt lat="47.42354" lon="-2.44541">
        <ele>15.2</ele>
        <time>2020-08-03T17:05:18Z</time>
      </trkpt>
      <trkpt lat="47.42355" lon="-2.4454">
        <ele>15.2</ele>
        <time>2020-08-03T17:05:19Z</time>
      </trkpt>
      <trkpt lat="47.42355" lon="-2.44538">
        <ele>15.4</ele>
        <time>2020-08-03T17:05:20Z</time>
      </trkpt>
      <trkpt lat="47.42355" lon="-2.44537">
        <ele>15.4</ele>
        <time>2020-08-03T17:05:21Z</time>
      </trkpt>
      <trkpt lat="47.42355" lon="-2.44536">
        <ele>15.4</ele>
        <time>2020-08-03T17:05:22Z</time>
      </trkpt>
      <trkpt lat="47.42355" lon="-2.44535">
        <ele>15.4</ele>
        <time>2020-08-03T17:05:23Z</time>
      </trkpt>
      <trkpt lat="47.42355" lon="-2.44535">
        <ele>15.4</ele>
        <time>2020-08-03T17:05:24Z</time>
      </trkpt>
      <trkpt lat="47.42356" lon="-2.44534">
        <ele>15.6</ele>
        <time>2020-08-03T17:05:25Z</time>
      </trkpt>
      <trkpt lat="47.42357" lon="-2.44534">
        <ele>15.2</ele>
        <time>2020-08-03T17:05:26Z</time>
      </trkpt>
      <trkpt lat="47.42358" lon="-2.44533">
        <ele>15.4</ele>
        <time>2020-08-03T17:05:27Z</time>
      </trkpt>
      <trkpt lat="47.42359" lon="-2.44532">
        <ele>15.4</ele>
        <time>2020-08-03T17:05:28Z</time>
      </trkpt>
      <trkpt lat="47.42359" lon="-2.4453">
        <ele>15.4</ele>
        <time>2020-08-03T17:05:29Z</time>
      </trkpt>
      <trkpt lat="47.4236" lon="-2.44529">
        <ele>15.6</ele>
        <time>2020-08-03T17:05:30Z</time>
      </trkpt>
      <trkpt lat="47.42361" lon="-2.44528">
        <ele>15.4</ele>
        <time>2020-08-03T17:05:31Z</time>
      </trkpt>
      <trkpt lat="47.42362" lon="-2.44527">
        <ele>15.6</ele>
        <time>2020-08-03T17:05:32Z</time>
      </trkpt>
      <trkpt lat="47.42362" lon="-2.44526">
        <ele>15.6</ele>
        <time>2020-08-03T17:05:33Z</time>
      </trkpt>
      <trkpt lat="47.42363" lon="-2.44524">
        <ele>15.4</ele>
        <time>2020-08-03T17:05:34Z</time>
      </trkpt>
      <trkpt lat="47.42363" lon="-2.44522">
        <ele>15.4</ele>
        <time>2020-08-03T17:05:35Z</time>
      </trkpt>
      <trkpt lat="47.42363" lon="-2.4452">
        <ele>15.2</ele>
        <time>2020-08-03T17:05:36Z</time>
      </trkpt>
      <trkpt lat="47.42364" lon="-2.44518">
        <ele>15.2</ele>
        <time>2020-08-03T17:05:37Z</time>
      </trkpt>
      <trkpt lat="47.42363" lon="-2.44515">
        <ele>15.2</ele>
        <time>2020-08-03T17:05:38Z</time>
      </trkpt>
      <trkpt lat="47.42363" lon="-2.44513">
        <ele>15.2</ele>
        <time>2020-08-03T17:05:39Z</time>
      </trkpt>
      <trkpt lat="47.42364" lon="-2.4451">
        <ele>15</ele>
        <time>2020-08-03T17:05:40Z</time>
      </trkpt>
      <trkpt lat="47.42365" lon="-2.44507">
        <ele>15</ele>
        <time>2020-08-03T17:05:41Z</time>
      </trkpt>
      <trkpt lat="47.42365" lon="-2.44504">
        <ele>15</ele>
        <time>2020-08-03T17:05:42Z</time>
      </trkpt>
      <trkpt lat="47.42366" lon="-2.44502">
        <ele>15</ele>
        <time>2020-08-03T17:05:43Z</time>
      </trkpt>
      <trkpt lat="47.42367" lon="-2.445">
        <ele>15</ele>
        <time>2020-08-03T17:05:44Z</time>
      </trkpt>
      <trkpt lat="47.42366" lon="-2.44498">
        <ele>15</ele>
        <time>2020-08-03T17:05:45Z</time>
      </trkpt>
      <trkpt lat="47.42365" lon="-2.44496">
        <ele>15</ele>
        <time>2020-08-03T17:05:46Z</time>
      </trkpt>
      <trkpt lat="47.42364" lon="-2.44495">
        <ele>15.2</ele>
        <time>2020-08-03T17:05:47Z</time>
      </trkpt>
      <trkpt lat="47.42362" lon="-2.44494">
        <ele>15.2</ele>
        <time>2020-08-03T17:05:48Z</time>
      </trkpt>
      <trkpt lat="47.4236" lon="-2.44494">
        <ele>15</ele>
        <time>2020-08-03T17:05:49Z</time>
      </trkpt>
      <trkpt lat="47.42359" lon="-2.44493">
        <ele>15</ele>
        <time>2020-08-03T17:05:50Z</time>
      </trkpt>
      <trkpt lat="47.42357" lon="-2.44492">
        <ele>15</ele>
        <time>2020-08-03T17:05:51Z</time>
      </trkpt>
      <trkpt lat="47.42355" lon="-2.44491">
        <ele>14.8</ele>
        <time>2020-08-03T17:05:52Z</time>
      </trkpt>
      <trkpt lat="47.42355" lon="-2.44489">
        <ele>14.8</ele>
        <time>2020-08-03T17:05:53Z</time>
      </trkpt>
      <trkpt lat="47.42354" lon="-2.44488">
        <ele>14.6</ele>
        <time>2020-08-03T17:05:54Z</time>
      </trkpt>
      <trkpt lat="47.42353" lon="-2.44485">
        <ele>14.6</ele>
        <time>2020-08-03T17:05:55Z</time>
      </trkpt>
      <trkpt lat="47.42353" lon="-2.44482">
        <ele>14.8</ele>
        <time>2020-08-03T17:05:56Z</time>
      </trkpt>
      <trkpt lat="47.42353" lon="-2.4448">
        <ele>14.8</ele>
        <time>2020-08-03T17:05:57Z</time>
      </trkpt>
      <trkpt lat="47.42354" lon="-2.44478">
        <ele>15</ele>
        <time>2020-08-03T17:05:58Z</time>
      </trkpt>
      <trkpt lat="47.42355" lon="-2.44477">
        <ele>15.2</ele>
        <time>2020-08-03T17:05:59Z</time>
      </trkpt>
      <trkpt lat="47.42357" lon="-2.44477">
        <ele>15.4</ele>
        <time>2020-08-03T17:06:00Z</time>
      </trkpt>
      <trkpt lat="47.42358" lon="-2.44477">
        <ele>15.4</ele>
        <time>2020-08-03T17:06:01Z</time>
      </trkpt>
      <trkpt lat="47.4236" lon="-2.44476">
        <ele>15.4</ele>
        <time>2020-08-03T17:06:02Z</time>
      </trkpt>
      <trkpt lat="47.42361" lon="-2.44476">
        <ele>15.2</ele>
        <time>2020-08-03T17:06:03Z</time>
      </trkpt>
      <trkpt lat="47.42362" lon="-2.44476">
        <ele>15.2</ele>
        <time>2020-08-03T17:06:04Z</time>
      </trkpt>
      <trkpt lat="47.42364" lon="-2.44477">
        <ele>15.2</ele>
        <time>2020-08-03T17:06:05Z</time>
      </trkpt>
      <trkpt lat="47.42365" lon="-2.44475">
        <ele>15.2</ele>
        <time>2020-08-03T17:06:06Z</time>
      </trkpt>
      <trkpt lat="47.42367" lon="-2.44476">
        <ele>15</ele>
        <time>2020-08-03T17:06:07Z</time>
      </trkpt>
      <trkpt lat="47.42368" lon="-2.44475">
        <ele>15</ele>
        <time>2020-08-03T17:06:08Z</time>
      </trkpt>
      <trkpt lat="47.42369" lon="-2.44475">
        <ele>15</ele>
        <time>2020-08-03T17:06:09Z</time>
      </trkpt>
      <trkpt lat="47.4237" lon="-2.44475">
        <ele>15</ele>
        <time>2020-08-03T17:06:10Z</time>
      </trkpt>
      <trkpt lat="47.4237" lon="-2.44475">
        <ele>15</ele>
        <time>2020-08-03T17:06:11Z</time>
      </trkpt>
      <trkpt lat="47.4237" lon="-2.44474">
        <ele>15</ele>
        <time>2020-08-03T17:06:12Z</time>
      </trkpt>
      <trkpt lat="47.4237" lon="-2.44474">
        <ele>14.8</ele>
        <time>2020-08-03T17:06:13Z</time>
      </trkpt>
      <trkpt lat="47.4237" lon="-2.44474">
        <ele>14.8</ele>
        <time>2020-08-03T17:06:14Z</time>
      </trkpt>
      <trkpt lat="47.42371" lon="-2.44473">
        <ele>14.8</ele>
        <time>2020-08-03T17:06:15Z</time>
      </trkpt>
      <trkpt lat="47.42371" lon="-2.44473">
        <ele>14.8</ele>
        <time>2020-08-03T17:06:16Z</time>
      </trkpt>
      <trkpt lat="47.42371" lon="-2.44473">
        <ele>14.8</ele>
        <time>2020-08-03T17:06:17Z</time>
      </trkpt>
    </trkseg>
  </trk>
</gpx>